<?xml version='1.0' encoding='UTF-8'?><gpx version="1.1" creator="JPX - https://github.com/jenetics/jpx" xmlns="http://www.topografix.com/GPX/1/1"><trk><trkseg><trkpt lat="44.77369672151303" lon="10.262518176701432"><ele>86.0</ele><time>2026-04-11T12:03:48.993Z</time></trkpt><trkpt lat="44.773661212665665" lon="10.26260800439802"><ele>86.0</ele><time>2026-04-11T12:04:39Z</time></trkpt><trkpt lat="44.77358842482503" lon="10.262648215133888"><ele>86.0</ele><time>2026-04-11T12:06:38Z</time></trkpt><trkpt lat="44.7736094868605" lon="10.262808590076219"><ele>86.0</ele><time>2026-04-11T12:09:07.999Z</time></trkpt><trkpt lat="44.77365091985911" lon="10.262903811013258"><ele>86.0</ele><time>2026-04-11T12:09:08.999Z</time></trkpt><trkpt lat="44.77370649274043" lon="10.262976048322235"><ele>86.0</ele><time>2026-04-11T12:09:09.999Z</time></trkpt><trkpt lat="44.773770436490366" lon="10.26302007080791"><ele>86.0</ele><time>2026-04-11T12:09:10.999Z</time></trkpt><trkpt lat="44.77382082280441" lon="10.263076258489875"><ele>86.0</ele><time>2026-04-11T12:09:11.999Z</time></trkpt><trkpt lat="44.773894613305764" lon="10.263106127445901"><ele>86.0</ele><time>2026-04-11T12:09:13.999Z</time></trkpt><trkpt lat="44.7739635045105" lon="10.263134013271701"><ele>86.0</ele><time>2026-04-11T12:09:17.999Z</time></trkpt><trkpt lat="44.7740278896133" lon="10.263156063667596"><ele>86.0</ele><time>2026-04-11T12:09:22.999Z</time></trkpt><trkpt lat="44.77394529628417" lon="10.263329122363649"><ele>86.0</ele><time>2026-04-11T12:09:43.999Z</time></trkpt><trkpt lat="44.77390837885167" lon="10.263445739699453"><ele>85.8</ele><time>2026-04-11T12:09:45.999Z</time></trkpt><trkpt lat="44.773865538528845" lon="10.263516740141318"><ele>85.6</ele><time>2026-04-11T12:10:14Z</time></trkpt><trkpt lat="44.773760384916535" lon="10.263476413557251"><ele>85.4</ele><time>2026-04-11T12:10:17Z</time></trkpt><trkpt lat="44.77371764942647" lon="10.263354865268392"><ele>85.2</ele><time>2026-04-11T12:10:18Z</time></trkpt><trkpt lat="44.773674656549446" lon="10.263241835141073"><ele>85.0</ele><time>2026-04-11T12:10:19Z</time></trkpt><trkpt lat="44.773620861169725" lon="10.263127249116293"><ele>85.25</ele><time>2026-04-11T12:10:20Z</time></trkpt><trkpt lat="44.773553399767465" lon="10.263003078423415"><ele>85.5</ele><time>2026-04-11T12:10:21Z</time></trkpt><trkpt lat="44.773486325276906" lon="10.262863285916858"><ele>85.75</ele><time>2026-04-11T12:10:22Z</time></trkpt><trkpt lat="44.77341831920547" lon="10.262720387913484"><ele>86.0</ele><time>2026-04-11T12:10:23Z</time></trkpt><trkpt lat="44.77334778294945" lon="10.262572742168096"><ele>86.5</ele><time>2026-04-11T12:10:24Z</time></trkpt><trkpt lat="44.77327782392143" lon="10.262424427888106"><ele>87.0</ele><time>2026-04-11T12:10:25Z</time></trkpt><trkpt lat="44.77320908216017" lon="10.262275288982627"><ele>87.5</ele><time>2026-04-11T12:10:26Z</time></trkpt><trkpt lat="44.77313691518959" lon="10.262120923215802"><ele>88.0</ele><time>2026-04-11T12:10:27Z</time></trkpt><trkpt lat="44.77306303865026" lon="10.261970048242896"><ele>88.0</ele><time>2026-04-11T12:10:28Z</time></trkpt><trkpt lat="44.77300231162261" lon="10.261842805964932"><ele>88.0</ele><time>2026-04-11T12:10:29Z</time></trkpt><trkpt lat="44.772946087921866" lon="10.261729955414836"><ele>88.0</ele><time>2026-04-11T12:10:30Z</time></trkpt><trkpt lat="44.772897089889426" lon="10.26162981701586"><ele>88.0</ele><time>2026-04-11T12:10:31Z</time></trkpt><trkpt lat="44.772855408457566" lon="10.261545384237168"><ele>88.0</ele><time>2026-04-11T12:10:32Z</time></trkpt><trkpt lat="44.772818757610324" lon="10.26146808477518"><ele>88.0</ele><time>2026-04-11T12:10:33Z</time></trkpt><trkpt lat="44.77275812645653" lon="10.261333064079047"><ele>88.2</ele><time>2026-04-11T12:10:35Z</time></trkpt><trkpt lat="44.77270267807967" lon="10.261228671036603"><ele>88.4</ele><time>2026-04-11T12:10:37Z</time></trkpt><trkpt lat="44.7726553836912" lon="10.261116495836845"><ele>88.60000000000001</ele><time>2026-04-11T12:10:39Z</time></trkpt><trkpt lat="44.77261245741677" lon="10.261020356162176"><ele>88.80000000000001</ele><time>2026-04-11T12:10:40Z</time></trkpt><trkpt lat="44.772557442888235" lon="10.260896565252972"><ele>89.0</ele><time>2026-04-11T12:10:41Z</time></trkpt><trkpt lat="44.772486949122396" lon="10.260748103548838"><ele>88.66666666666667</ele><time>2026-04-11T12:10:42Z</time></trkpt><trkpt lat="44.772403710816185" lon="10.260579319839035"><ele>88.33333333333333</ele><time>2026-04-11T12:10:43Z</time></trkpt><trkpt lat="44.77229739540309" lon="10.260371993708914"><ele>88.0</ele><time>2026-04-11T12:10:44Z</time></trkpt><trkpt lat="44.772182302727195" lon="10.260144296148763"><ele>88.0</ele><time>2026-04-11T12:10:45Z</time></trkpt><trkpt lat="44.77206559859385" lon="10.259900664326842"><ele>88.0</ele><time>2026-04-11T12:10:46Z</time></trkpt><trkpt lat="44.77196306186948" lon="10.259666302015045"><ele>88.0</ele><time>2026-04-11T12:10:47Z</time></trkpt><trkpt lat="44.77186452428523" lon="10.259450620993377"><ele>88.0</ele><time>2026-04-11T12:10:48Z</time></trkpt><trkpt lat="44.7717546379825" lon="10.259221081169013"><ele>88.0</ele><time>2026-04-11T12:10:49Z</time></trkpt><trkpt lat="44.77164532713115" lon="10.258997453681467"><ele>88.0</ele><time>2026-04-11T12:10:50Z</time></trkpt><trkpt lat="44.77154149682767" lon="10.25879610320841"><ele>88.0</ele><time>2026-04-11T12:10:51Z</time></trkpt><trkpt lat="44.77144121075213" lon="10.25858037555465"><ele>88.0</ele><time>2026-04-11T12:10:52Z</time></trkpt><trkpt lat="44.77134640543311" lon="10.258378491153449"><ele>88.0</ele><time>2026-04-11T12:10:53Z</time></trkpt><trkpt lat="44.77125117452486" lon="10.258170287130351"><ele>88.33333333333333</ele><time>2026-04-11T12:10:54Z</time></trkpt><trkpt lat="44.771156401885555" lon="10.25796751068979"><ele>88.66666666666667</ele><time>2026-04-11T12:10:55Z</time></trkpt><trkpt lat="44.771059983450975" lon="10.257767967292816"><ele>89.0</ele><time>2026-04-11T12:10:56Z</time></trkpt><trkpt lat="44.77097000231929" lon="10.25757685290585"><ele>89.66666666666667</ele><time>2026-04-11T12:10:57Z</time></trkpt><trkpt lat="44.770879723862194" lon="10.257384225604772"><ele>90.33333333333333</ele><time>2026-04-11T12:10:58Z</time></trkpt><trkpt lat="44.770798917262645" lon="10.257210577528031"><ele>91.0</ele><time>2026-04-11T12:10:59Z</time></trkpt><trkpt lat="44.77071967821963" lon="10.25704545426709"><ele>91.25</ele><time>2026-04-11T12:11:00Z</time></trkpt><trkpt lat="44.7706477083886" lon="10.256888644963084"><ele>91.5</ele><time>2026-04-11T12:11:01Z</time></trkpt><trkpt lat="44.77058662057252" lon="10.256737184492051"><ele>91.75</ele><time>2026-04-11T12:11:02Z</time></trkpt><trkpt lat="44.7705542405315" lon="10.256565127914193"><ele>92.0</ele><time>2026-04-11T12:11:03Z</time></trkpt><trkpt lat="44.770612476548145" lon="10.256382092970261"><ele>92.0</ele><time>2026-04-11T12:11:04Z</time></trkpt><trkpt lat="44.77062411811011" lon="10.256169957020173"><ele>92.0</ele><time>2026-04-11T12:11:05Z</time></trkpt><trkpt lat="44.77066439337828" lon="10.255958856350706"><ele>92.0</ele><time>2026-04-11T12:11:06Z</time></trkpt><trkpt lat="44.770690522983955" lon="10.255767644081795"><ele>92.0</ele><time>2026-04-11T12:11:07Z</time></trkpt><trkpt lat="44.770708980355046" lon="10.255597401288705"><ele>92.0</ele><time>2026-04-11T12:11:08Z</time></trkpt><trkpt lat="44.77072453296442" lon="10.255447981510192"><ele>92.0</ele><time>2026-04-11T12:11:09Z</time></trkpt><trkpt lat="44.77074877333379" lon="10.255337992601339"><ele>92.0</ele><time>2026-04-11T12:11:10Z</time></trkpt><trkpt lat="44.770757534735" lon="10.255245092163095"><ele>92.0</ele><time>2026-04-11T12:11:13.999Z</time></trkpt><trkpt lat="44.77070475090415" lon="10.255137510985247"><ele>92.0</ele><time>2026-04-11T12:11:16.999Z</time></trkpt><trkpt lat="44.77058916484242" lon="10.255096038772939"><ele>92.0</ele><time>2026-04-11T12:11:17.999Z</time></trkpt><trkpt lat="44.7704469094275" lon="10.255064834280263"><ele>92.0</ele><time>2026-04-11T12:11:18.999Z</time></trkpt><trkpt lat="44.77026944627854" lon="10.255025321449116"><ele>92.0</ele><time>2026-04-11T12:11:19.999Z</time></trkpt><trkpt lat="44.770072116449896" lon="10.254966936277423"><ele>92.0</ele><time>2026-04-11T12:11:20.999Z</time></trkpt><trkpt lat="44.76986125602301" lon="10.25490041845421"><ele>92.0</ele><time>2026-04-11T12:11:21.999Z</time></trkpt><trkpt lat="44.7696561611831" lon="10.254845109815667"><ele>92.0</ele><time>2026-04-11T12:11:22.999Z</time></trkpt><trkpt lat="44.76944047676942" lon="10.254787340482446"><ele>92.0</ele><time>2026-04-11T12:11:23.999Z</time></trkpt><trkpt lat="44.76923586548003" lon="10.254724543543375"><ele>92.0</ele><time>2026-04-11T12:11:24.999Z</time></trkpt><trkpt lat="44.7690527536974" lon="10.254672027191353"><ele>92.0</ele><time>2026-04-11T12:11:25.999Z</time></trkpt><trkpt lat="44.7688734849659" lon="10.254623293018865"><ele>92.0</ele><time>2026-04-11T12:11:26.999Z</time></trkpt><trkpt lat="44.768699752383235" lon="10.254584983769787"><ele>92.0</ele><time>2026-04-11T12:11:27.999Z</time></trkpt><trkpt lat="44.7685183367199" lon="10.254560118344486"><ele>92.0</ele><time>2026-04-11T12:11:28.999Z</time></trkpt><trkpt lat="44.768314451334206" lon="10.254527607182483"><ele>93.33333333333334</ele><time>2026-04-11T12:11:29.999Z</time></trkpt><trkpt lat="44.76810719072262" lon="10.25448200795173"><ele>94.66666666666667</ele><time>2026-04-11T12:11:30.999Z</time></trkpt><trkpt lat="44.76788527417344" lon="10.254408537457422"><ele>96.0</ele><time>2026-04-11T12:11:31.999Z</time></trkpt><trkpt lat="44.767667541580444" lon="10.254331240979722"><ele>96.0</ele><time>2026-04-11T12:11:32.999Z</time></trkpt><trkpt lat="44.76746368724276" lon="10.254222777318196"><ele>96.0</ele><time>2026-04-11T12:11:33.999Z</time></trkpt><trkpt lat="44.767276277978596" lon="10.254197827068527"><ele>96.0</ele><time>2026-04-11T12:11:34.999Z</time></trkpt><trkpt lat="44.76710113423779" lon="10.25413111334382"><ele>96.0</ele><time>2026-04-11T12:11:35.999Z</time></trkpt><trkpt lat="44.76694505218762" lon="10.254090518121869"><ele>96.0</ele><time>2026-04-11T12:11:36.999Z</time></trkpt><trkpt lat="44.76679666004437" lon="10.254049097934828"><ele>96.0</ele><time>2026-04-11T12:11:37.999Z</time></trkpt><trkpt lat="44.76666833429534" lon="10.254016920000602"><ele>96.0</ele><time>2026-04-11T12:11:38.999Z</time></trkpt><trkpt lat="44.76656118999876" lon="10.253997188745753"><ele>96.0</ele><time>2026-04-11T12:11:39.999Z</time></trkpt><trkpt lat="44.766476099602635" lon="10.254039517440962"><ele>96.0</ele><time>2026-04-11T12:11:40.999Z</time></trkpt><trkpt lat="44.766378293639185" lon="10.253989208025489"><ele>96.0</ele><time>2026-04-11T12:11:41.999Z</time></trkpt><trkpt lat="44.76629523951694" lon="10.25395151959893"><ele>96.0</ele><time>2026-04-11T12:11:43.999Z</time></trkpt><trkpt lat="44.76623785666208" lon="10.253874939181062"><ele>96.0</ele><time>2026-04-11T12:11:50.999Z</time></trkpt><trkpt lat="44.76616043751433" lon="10.253741591688462"><ele>96.5</ele><time>2026-04-11T12:11:51.999Z</time></trkpt><trkpt lat="44.766099205684064" lon="10.253601132310106"><ele>97.0</ele><time>2026-04-11T12:11:52.999Z</time></trkpt><trkpt lat="44.766032759876396" lon="10.2534468304024"><ele>97.5</ele><time>2026-04-11T12:11:53.999Z</time></trkpt><trkpt lat="44.76596001619542" lon="10.253281962615802"><ele>98.0</ele><time>2026-04-11T12:11:54.999Z</time></trkpt><trkpt lat="44.765863693270525" lon="10.2530697819573"><ele>98.0</ele><time>2026-04-11T12:11:55.999Z</time></trkpt><trkpt lat="44.765755646587124" lon="10.252831281289469"><ele>98.0</ele><time>2026-04-11T12:11:56.999Z</time></trkpt><trkpt lat="44.76564489882868" lon="10.252601966671763"><ele>98.0</ele><time>2026-04-11T12:11:57.999Z</time></trkpt><trkpt lat="44.76553339854798" lon="10.252364420411924"><ele>97.66666666666666</ele><time>2026-04-11T12:11:58.999Z</time></trkpt><trkpt lat="44.76542768221961" lon="10.252135781294625"><ele>97.33333333333334</ele><time>2026-04-11T12:11:59.999Z</time></trkpt><trkpt lat="44.76532743556805" lon="10.251913041414065"><ele>97.0</ele><time>2026-04-11T12:12:00.999Z</time></trkpt><trkpt lat="44.76523135310001" lon="10.251702956629725"><ele>97.33333333333334</ele><time>2026-04-11T12:12:01.999Z</time></trkpt><trkpt lat="44.76513839645745" lon="10.251504628297788"><ele>97.66666666666666</ele><time>2026-04-11T12:12:02.999Z</time></trkpt><trkpt lat="44.765046681040566" lon="10.251315705235955"><ele>98.0</ele><time>2026-04-11T12:12:03.999Z</time></trkpt><trkpt lat="44.76496375861633" lon="10.251128287666434"><ele>98.0</ele><time>2026-04-11T12:12:04.999Z</time></trkpt><trkpt lat="44.76488110791335" lon="10.250941910661421"><ele>98.0</ele><time>2026-04-11T12:12:06Z</time></trkpt><trkpt lat="44.76480004411364" lon="10.25076318261694"><ele>98.0</ele><time>2026-04-11T12:12:07Z</time></trkpt><trkpt lat="44.76472249985937" lon="10.250578499078781"><ele>98.0</ele><time>2026-04-11T12:12:08Z</time></trkpt><trkpt lat="44.76464474526787" lon="10.250396368088648"><ele>98.0</ele><time>2026-04-11T12:12:09Z</time></trkpt><trkpt lat="44.7645647822356" lon="10.25021599422571"><ele>98.0</ele><time>2026-04-11T12:12:10Z</time></trkpt><trkpt lat="44.76448208505199" lon="10.250044945706144"><ele>98.0</ele><time>2026-04-11T12:12:11Z</time></trkpt><trkpt lat="44.76440322669535" lon="10.249871974143508"><ele>99.0</ele><time>2026-04-11T12:12:12Z</time></trkpt><trkpt lat="44.76432463327648" lon="10.249701617955955"><ele>100.0</ele><time>2026-04-11T12:12:13Z</time></trkpt><trkpt lat="44.76424340320628" lon="10.249524159183215"><ele>101.0</ele><time>2026-04-11T12:12:14Z</time></trkpt><trkpt lat="44.764162390215056" lon="10.249343429558774"><ele>102.0</ele><time>2026-04-11T12:12:15Z</time></trkpt><trkpt lat="44.76407787005287" lon="10.24916953127972"><ele>102.0</ele><time>2026-04-11T12:12:16Z</time></trkpt><trkpt lat="44.76398987839222" lon="10.249004435425494"><ele>102.0</ele><time>2026-04-11T12:12:17Z</time></trkpt><trkpt lat="44.76390908245142" lon="10.248836775484667"><ele>102.0</ele><time>2026-04-11T12:12:18Z</time></trkpt><trkpt lat="44.763828374569265" lon="10.248668380884775"><ele>102.0</ele><time>2026-04-11T12:12:19Z</time></trkpt><trkpt lat="44.76374962299683" lon="10.248494770202088"><ele>101.75</ele><time>2026-04-11T12:12:20Z</time></trkpt><trkpt lat="44.763675820874404" lon="10.248339112985663"><ele>101.5</ele><time>2026-04-11T12:12:21Z</time></trkpt><trkpt lat="44.76359997649441" lon="10.248181046112272"><ele>101.25</ele><time>2026-04-11T12:12:22Z</time></trkpt><trkpt lat="44.76352286074024" lon="10.248024805998039"><ele>101.0</ele><time>2026-04-11T12:12:23Z</time></trkpt><trkpt lat="44.7634422990735" lon="10.247869681014308"><ele>101.5</ele><time>2026-04-11T12:12:24Z</time></trkpt><trkpt lat="44.76336888291243" lon="10.247708993438646"><ele>102.0</ele><time>2026-04-11T12:12:25Z</time></trkpt><trkpt lat="44.76329526051184" lon="10.24754656058639"><ele>102.5</ele><time>2026-04-11T12:12:26Z</time></trkpt><trkpt lat="44.76321644685682" lon="10.247382412501548"><ele>103.0</ele><time>2026-04-11T12:12:27Z</time></trkpt><trkpt lat="44.76314422731414" lon="10.247215708023157"><ele>103.0</ele><time>2026-04-11T12:12:28Z</time></trkpt><trkpt lat="44.76306630018712" lon="10.247052522569566"><ele>103.0</ele><time>2026-04-11T12:12:29Z</time></trkpt><trkpt lat="44.7629861151445" lon="10.246884661025081"><ele>103.0</ele><time>2026-04-11T12:12:30Z</time></trkpt><trkpt lat="44.7629025135332" lon="10.246711165619308"><ele>103.0</ele><time>2026-04-11T12:12:31Z</time></trkpt><trkpt lat="44.762823216310885" lon="10.246536052111878"><ele>102.66666666666667</ele><time>2026-04-11T12:12:32Z</time></trkpt><trkpt lat="44.76274308685193" lon="10.246357989685627"><ele>102.33333333333334</ele><time>2026-04-11T12:12:33Z</time></trkpt><trkpt lat="44.76266320452539" lon="10.246184719935414"><ele>102.0</ele><time>2026-04-11T12:12:34Z</time></trkpt><trkpt lat="44.762576829758785" lon="10.245996461127447"><ele>102.0</ele><time>2026-04-11T12:12:35Z</time></trkpt><trkpt lat="44.762488046898376" lon="10.245806587406433"><ele>102.0</ele><time>2026-04-11T12:12:36Z</time></trkpt><trkpt lat="44.76239498586767" lon="10.245605094656904"><ele>102.0</ele><time>2026-04-11T12:12:37Z</time></trkpt><trkpt lat="44.762301238802124" lon="10.245390019651452"><ele>102.0</ele><time>2026-04-11T12:12:38Z</time></trkpt><trkpt lat="44.76220859631328" lon="10.245174990858356"><ele>102.0</ele><time>2026-04-11T12:12:39Z</time></trkpt><trkpt lat="44.76211380981273" lon="10.244960888725304"><ele>102.0</ele><time>2026-04-11T12:12:40Z</time></trkpt><trkpt lat="44.762010682983096" lon="10.244733761799505"><ele>102.0</ele><time>2026-04-11T12:12:41Z</time></trkpt><trkpt lat="44.761901418749616" lon="10.244500438996528"><ele>102.0</ele><time>2026-04-11T12:12:42Z</time></trkpt><trkpt lat="44.76178900888488" lon="10.244277244255322"><ele>102.0</ele><time>2026-04-11T12:12:43Z</time></trkpt><trkpt lat="44.76168565570389" lon="10.244057273327424"><ele>102.33333333333334</ele><time>2026-04-11T12:12:44Z</time></trkpt><trkpt lat="44.76157335976875" lon="10.24383295764747"><ele>102.66666666666667</ele><time>2026-04-11T12:12:45Z</time></trkpt><trkpt lat="44.76146413120085" lon="10.243602914609017"><ele>103.0</ele><time>2026-04-11T12:12:46Z</time></trkpt><trkpt lat="44.76135559012946" lon="10.24337474779441"><ele>103.0</ele><time>2026-04-11T12:12:47Z</time></trkpt><trkpt lat="44.76124116524163" lon="10.24314292881452"><ele>103.0</ele><time>2026-04-11T12:12:48Z</time></trkpt><trkpt lat="44.76112657031584" lon="10.242910907155213"><ele>103.0</ele><time>2026-04-11T12:12:49Z</time></trkpt><trkpt lat="44.7610157633239" lon="10.2426808552341"><ele>105.0</ele><time>2026-04-11T12:12:50Z</time></trkpt><trkpt lat="44.76090159583224" lon="10.24244409116019"><ele>107.0</ele><time>2026-04-11T12:12:51Z</time></trkpt><trkpt lat="44.76079488828567" lon="10.242209500022554"><ele>109.0</ele><time>2026-04-11T12:12:52Z</time></trkpt><trkpt lat="44.76068341588293" lon="10.241974198918076"><ele>109.0</ele><time>2026-04-11T12:12:53Z</time></trkpt><trkpt lat="44.760572442522474" lon="10.241735593621977"><ele>109.0</ele><time>2026-04-11T12:12:54Z</time></trkpt><trkpt lat="44.760459739499275" lon="10.241496508164508"><ele>109.0</ele><time>2026-04-11T12:12:55Z</time></trkpt><trkpt lat="44.76035562912155" lon="10.241276148994524"><ele>109.33333333333334</ele><time>2026-04-11T12:12:56Z</time></trkpt><trkpt lat="44.760255998461524" lon="10.241059936893489"><ele>109.66666666666666</ele><time>2026-04-11T12:12:57Z</time></trkpt><trkpt lat="44.760153562143756" lon="10.240844945103273"><ele>110.0</ele><time>2026-04-11T12:12:58Z</time></trkpt><trkpt lat="44.76004933692467" lon="10.240619067332668"><ele>110.66666666666666</ele><time>2026-04-11T12:12:59Z</time></trkpt><trkpt lat="44.75994591723656" lon="10.24039621001117"><ele>111.33333333333334</ele><time>2026-04-11T12:13:00Z</time></trkpt><trkpt lat="44.75984638147565" lon="10.24017901912088"><ele>112.0</ele><time>2026-04-11T12:13:01Z</time></trkpt><trkpt lat="44.75974695891131" lon="10.239960955843427"><ele>110.33333333333334</ele><time>2026-04-11T12:13:02Z</time></trkpt><trkpt lat="44.7596540311525" lon="10.239756701235502"><ele>108.66666666666666</ele><time>2026-04-11T12:13:03Z</time></trkpt><trkpt lat="44.75956093932538" lon="10.239558255365402"><ele>107.0</ele><time>2026-04-11T12:13:04Z</time></trkpt><trkpt lat="44.759470151203196" lon="10.239369169901305"><ele>107.0</ele><time>2026-04-11T12:13:05Z</time></trkpt><trkpt lat="44.75937827179276" lon="10.239172378823843"><ele>107.0</ele><time>2026-04-11T12:13:06Z</time></trkpt><trkpt lat="44.7592852983426" lon="10.238969941419397"><ele>107.0</ele><time>2026-04-11T12:13:07Z</time></trkpt><trkpt lat="44.759191416694904" lon="10.238764299657442"><ele>107.33333333333333</ele><time>2026-04-11T12:13:08Z</time></trkpt><trkpt lat="44.75910119967402" lon="10.238567598832171"><ele>107.66666666666666</ele><time>2026-04-11T12:13:09Z</time></trkpt><trkpt lat="44.75901617401085" lon="10.238375956866575"><ele>108.0</ele><time>2026-04-11T12:13:10Z</time></trkpt><trkpt lat="44.75893258326479" lon="10.238191531963563"><ele>108.0</ele><time>2026-04-11T12:13:11Z</time></trkpt><trkpt lat="44.75885206270326" lon="10.23801531945811"><ele>108.0</ele><time>2026-04-11T12:13:12Z</time></trkpt><trkpt lat="44.758771857605225" lon="10.23784206010051"><ele>108.0</ele><time>2026-04-11T12:13:12.999Z</time></trkpt><trkpt lat="44.75869336928589" lon="10.237669774371332"><ele>108.0</ele><time>2026-04-11T12:13:13.999Z</time></trkpt><trkpt lat="44.75861406492092" lon="10.237490929876255"><ele>108.0</ele><time>2026-04-11T12:13:14.999Z</time></trkpt><trkpt lat="44.75853526363443" lon="10.237314312037073"><ele>108.0</ele><time>2026-04-11T12:13:15.999Z</time></trkpt><trkpt lat="44.758453678152485" lon="10.237137212027609"><ele>108.0</ele><time>2026-04-11T12:13:16.999Z</time></trkpt><trkpt lat="44.75837429175328" lon="10.236965525660766"><ele>108.0</ele><time>2026-04-11T12:13:17.999Z</time></trkpt><trkpt lat="44.758297368102156" lon="10.23680187322867"><ele>108.0</ele><time>2026-04-11T12:13:18.999Z</time></trkpt><trkpt lat="44.758223387981886" lon="10.236642758841372"><ele>108.0</ele><time>2026-04-11T12:13:19.999Z</time></trkpt><trkpt lat="44.7581484062913" lon="10.236476663374875"><ele>108.0</ele><time>2026-04-11T12:13:20.999Z</time></trkpt><trkpt lat="44.75806698176076" lon="10.236298722518352"><ele>108.0</ele><time>2026-04-11T12:13:21.999Z</time></trkpt><trkpt lat="44.75798084024519" lon="10.23612036383336"><ele>108.0</ele><time>2026-04-11T12:13:22.999Z</time></trkpt><trkpt lat="44.75789646022131" lon="10.235937716713382"><ele>108.0</ele><time>2026-04-11T12:13:23.999Z</time></trkpt><trkpt lat="44.75781521619854" lon="10.235754514454696"><ele>108.0</ele><time>2026-04-11T12:13:24.999Z</time></trkpt><trkpt lat="44.757731221576115" lon="10.235570748852014"><ele>108.75</ele><time>2026-04-11T12:13:25.999Z</time></trkpt><trkpt lat="44.75764940259214" lon="10.235401017453208"><ele>109.5</ele><time>2026-04-11T12:13:26.999Z</time></trkpt><trkpt lat="44.757570801618634" lon="10.235232208732771"><ele>110.25</ele><time>2026-04-11T12:13:27.999Z</time></trkpt><trkpt lat="44.75748915586025" lon="10.235060406640729"><ele>111.0</ele><time>2026-04-11T12:13:28.999Z</time></trkpt><trkpt lat="44.75741272501719" lon="10.234894122816144"><ele>111.0</ele><time>2026-04-11T12:13:29.999Z</time></trkpt><trkpt lat="44.75733718621715" lon="10.234727759339993"><ele>111.0</ele><time>2026-04-11T12:13:30.999Z</time></trkpt><trkpt lat="44.75726405329311" lon="10.234559950468201"><ele>111.0</ele><time>2026-04-11T12:13:31.999Z</time></trkpt><trkpt lat="44.757188143060276" lon="10.234395526975945"><ele>111.0</ele><time>2026-04-11T12:13:32.999Z</time></trkpt><trkpt lat="44.75711181774246" lon="10.23422934248311"><ele>111.0</ele><time>2026-04-11T12:13:33.999Z</time></trkpt><trkpt lat="44.757031439518606" lon="10.234060554187169"><ele>111.0</ele><time>2026-04-11T12:13:34.999Z</time></trkpt><trkpt lat="44.75694951641501" lon="10.233886196728264"><ele>111.0</ele><time>2026-04-11T12:13:35.999Z</time></trkpt><trkpt lat="44.75687041590739" lon="10.23370927827904"><ele>111.0</ele><time>2026-04-11T12:13:36.999Z</time></trkpt><trkpt lat="44.75679549046816" lon="10.23354394781912"><ele>111.0</ele><time>2026-04-11T12:13:37.999Z</time></trkpt><trkpt lat="44.756719880824015" lon="10.233385872969837"><ele>111.0</ele><time>2026-04-11T12:13:38.999Z</time></trkpt><trkpt lat="44.756644629894076" lon="10.233224408263997"><ele>111.0</ele><time>2026-04-11T12:13:39.999Z</time></trkpt><trkpt lat="44.756566002793804" lon="10.23306324028048"><ele>111.0</ele><time>2026-04-11T12:13:40.999Z</time></trkpt><trkpt lat="44.75649028162802" lon="10.232892915350826"><ele>110.25</ele><time>2026-04-11T12:13:41.999Z</time></trkpt><trkpt lat="44.756412033789154" lon="10.23271581836082"><ele>109.5</ele><time>2026-04-11T12:13:42.999Z</time></trkpt><trkpt lat="44.75634079614565" lon="10.23252993913509"><ele>108.75</ele><time>2026-04-11T12:13:43.999Z</time></trkpt><trkpt lat="44.75628040720005" lon="10.232352443265903"><ele>108.0</ele><time>2026-04-11T12:13:44.999Z</time></trkpt><trkpt lat="44.756231617725554" lon="10.232178843976337"><ele>107.75</ele><time>2026-04-11T12:13:45.999Z</time></trkpt><trkpt lat="44.756192407156995" lon="10.232012921846268"><ele>107.5</ele><time>2026-04-11T12:13:46.999Z</time></trkpt><trkpt lat="44.75616131216758" lon="10.231852084359465"><ele>107.25</ele><time>2026-04-11T12:13:47.999Z</time></trkpt><trkpt lat="44.75614002822336" lon="10.231689720157979"><ele>107.0</ele><time>2026-04-11T12:13:48.999Z</time></trkpt><trkpt lat="44.75612783425202" lon="10.23151054451454"><ele>107.6</ele><time>2026-04-11T12:13:49.999Z</time></trkpt><trkpt lat="44.75613529260423" lon="10.231338816786081"><ele>108.19999999999999</ele><time>2026-04-11T12:13:50.999Z</time></trkpt><trkpt lat="44.75616102308545" lon="10.231217315421437"><ele>108.8</ele><time>2026-04-11T12:13:51.999Z</time></trkpt><trkpt lat="44.75618055866415" lon="10.231095520604603"><ele>109.4</ele><time>2026-04-11T12:13:52.999Z</time></trkpt><trkpt lat="44.756176515779906" lon="10.230943987108068"><ele>110.0</ele><time>2026-04-11T12:13:53.999Z</time></trkpt><trkpt lat="44.756159936129045" lon="10.230757657839824"><ele>111.33333333333333</ele><time>2026-04-11T12:13:54.999Z</time></trkpt><trkpt lat="44.75617846103745" lon="10.230549734756814"><ele>112.66666666666666</ele><time>2026-04-11T12:13:55.999Z</time></trkpt><trkpt lat="44.75619010665642" lon="10.230340651049794"><ele>114.0</ele><time>2026-04-11T12:13:56.999Z</time></trkpt><trkpt lat="44.756348658965216" lon="10.230110672352247"><ele>114.0</ele><time>2026-04-11T12:13:57.999Z</time></trkpt><trkpt lat="44.756470131816016" lon="10.229902708935745"><ele>114.0</ele><time>2026-04-11T12:13:58.999Z</time></trkpt><trkpt lat="44.756603842915545" lon="10.229728421621516"><ele>114.0</ele><time>2026-04-11T12:13:59.999Z</time></trkpt><trkpt lat="44.75673916930921" lon="10.229557125140555"><ele>113.66666666666666</ele><time>2026-04-11T12:14:00.999Z</time></trkpt><trkpt lat="44.756866597262196" lon="10.229380204981227"><ele>113.33333333333333</ele><time>2026-04-11T12:14:01.999Z</time></trkpt><trkpt lat="44.75698239422278" lon="10.229200106320633"><ele>113.0</ele><time>2026-04-11T12:14:02.999Z</time></trkpt><trkpt lat="44.75708931035637" lon="10.229017440769379"><ele>111.0</ele><time>2026-04-11T12:14:03.999Z</time></trkpt><trkpt lat="44.757196867768926" lon="10.228834312541773"><ele>109.0</ele><time>2026-04-11T12:14:04.999Z</time></trkpt><trkpt lat="44.75729575176771" lon="10.228651264184364"><ele>107.0</ele><time>2026-04-11T12:14:05.999Z</time></trkpt><trkpt lat="44.75738721454897" lon="10.228465955575956"><ele>107.0</ele><time>2026-04-11T12:14:06.999Z</time></trkpt><trkpt lat="44.7574674603578" lon="10.228287694056869"><ele>107.0</ele><time>2026-04-11T12:14:07.999Z</time></trkpt><trkpt lat="44.75753875912548" lon="10.228116309861718"><ele>107.0</ele><time>2026-04-11T12:14:08.999Z</time></trkpt><trkpt lat="44.75760987437166" lon="10.227940373932288"><ele>107.0</ele><time>2026-04-11T12:14:09.999Z</time></trkpt><trkpt lat="44.75767845417423" lon="10.227762675411144"><ele>107.75</ele><time>2026-04-11T12:14:10.999Z</time></trkpt><trkpt lat="44.75774549630953" lon="10.227577748241044"><ele>108.5</ele><time>2026-04-11T12:14:12Z</time></trkpt><trkpt lat="44.757808319978636" lon="10.227389617468749"><ele>109.25</ele><time>2026-04-11T12:14:13Z</time></trkpt><trkpt lat="44.75786718214945" lon="10.227191633803148"><ele>110.0</ele><time>2026-04-11T12:14:14Z</time></trkpt><trkpt lat="44.757922296660425" lon="10.226984373548017"><ele>110.0</ele><time>2026-04-11T12:14:15Z</time></trkpt><trkpt lat="44.757974735264675" lon="10.226765644947848"><ele>110.0</ele><time>2026-04-11T12:14:16Z</time></trkpt><trkpt lat="44.758025682825355" lon="10.226536116089253"><ele>110.0</ele><time>2026-04-11T12:14:17Z</time></trkpt><trkpt lat="44.758073571771675" lon="10.226309744168535"><ele>110.0</ele><time>2026-04-11T12:14:18Z</time></trkpt><trkpt lat="44.75811270505427" lon="10.226068516677756"><ele>110.0</ele><time>2026-04-11T12:14:19Z</time></trkpt><trkpt lat="44.758145010078344" lon="10.225821659816496"><ele>110.0</ele><time>2026-04-11T12:14:20Z</time></trkpt><trkpt lat="44.75817016332933" lon="10.225569746030315"><ele>110.33333333333333</ele><time>2026-04-11T12:14:21Z</time></trkpt><trkpt lat="44.758189560060245" lon="10.225307504328697"><ele>110.66666666666666</ele><time>2026-04-11T12:14:22Z</time></trkpt><trkpt lat="44.758203611498736" lon="10.22504377278635"><ele>111.0</ele><time>2026-04-11T12:14:23Z</time></trkpt><trkpt lat="44.7582123768611" lon="10.224773384837889"><ele>110.33333333333334</ele><time>2026-04-11T12:14:24Z</time></trkpt><trkpt lat="44.75821827722007" lon="10.224498662960603"><ele>109.66666666666667</ele><time>2026-04-11T12:14:25Z</time></trkpt><trkpt lat="44.758215378120255" lon="10.224217816832166"><ele>109.0</ele><time>2026-04-11T12:14:26Z</time></trkpt><trkpt lat="44.75820000004583" lon="10.223961665644993"><ele>108.33333333333334</ele><time>2026-04-11T12:14:27Z</time></trkpt><trkpt lat="44.75817893838704" lon="10.22370015364924"><ele>107.66666666666666</ele><time>2026-04-11T12:14:28Z</time></trkpt><trkpt lat="44.758150776619594" lon="10.223446297151806"><ele>107.0</ele><time>2026-04-11T12:14:29Z</time></trkpt><trkpt lat="44.75811794175534" lon="10.223201230680901"><ele>107.66666666666666</ele><time>2026-04-11T12:14:30Z</time></trkpt><trkpt lat="44.7580713282092" lon="10.22294467287051"><ele>108.33333333333334</ele><time>2026-04-11T12:14:31Z</time></trkpt><trkpt lat="44.758034774236656" lon="10.222672041482568"><ele>109.0</ele><time>2026-04-11T12:14:32Z</time></trkpt><trkpt lat="44.75798895180516" lon="10.222382010362516"><ele>109.33333333333334</ele><time>2026-04-11T12:14:33Z</time></trkpt><trkpt lat="44.757940765900194" lon="10.222077019693979"><ele>109.66666666666666</ele><time>2026-04-11T12:14:34Z</time></trkpt><trkpt lat="44.75789404880851" lon="10.22178132589901"><ele>110.0</ele><time>2026-04-11T12:14:35Z</time></trkpt><trkpt lat="44.75784761674983" lon="10.221487436141354"><ele>109.66666666666666</ele><time>2026-04-11T12:14:36Z</time></trkpt><trkpt lat="44.75780019871467" lon="10.221186992526452"><ele>109.33333333333334</ele><time>2026-04-11T12:14:37Z</time></trkpt><trkpt lat="44.75775298069103" lon="10.220881413733322"><ele>109.0</ele><time>2026-04-11T12:14:38Z</time></trkpt><trkpt lat="44.75770524123902" lon="10.22058128247433"><ele>108.66666666666667</ele><time>2026-04-11T12:14:39Z</time></trkpt><trkpt lat="44.75764141599207" lon="10.22028652174609"><ele>108.33333333333334</ele><time>2026-04-11T12:14:40Z</time></trkpt><trkpt lat="44.757594433657246" lon="10.219990280130109"><ele>108.0</ele><time>2026-04-11T12:14:41Z</time></trkpt><trkpt lat="44.757550140007574" lon="10.219699875440432"><ele>108.33333333333334</ele><time>2026-04-11T12:14:42Z</time></trkpt><trkpt lat="44.757524459295034" lon="10.21944323530588"><ele>108.66666666666667</ele><time>2026-04-11T12:14:43Z</time></trkpt><trkpt lat="44.757484382859474" lon="10.219190303555513"><ele>109.0</ele><time>2026-04-11T12:14:44Z</time></trkpt><trkpt lat="44.75744698056416" lon="10.218953656317144"><ele>109.0</ele><time>2026-04-11T12:14:45Z</time></trkpt><trkpt lat="44.75740985751828" lon="10.2187184461726"><ele>109.0</ele><time>2026-04-11T12:14:46Z</time></trkpt><trkpt lat="44.7573716529759" lon="10.218468905763258"><ele>109.0</ele><time>2026-04-11T12:14:47Z</time></trkpt><trkpt lat="44.75733908209848" lon="10.21821593219862"><ele>108.0</ele><time>2026-04-11T12:14:48Z</time></trkpt><trkpt lat="44.757312323132346" lon="10.217962006395144"><ele>107.0</ele><time>2026-04-11T12:14:49Z</time></trkpt><trkpt lat="44.75728994501199" lon="10.217695480362858"><ele>106.0</ele><time>2026-04-11T12:14:50Z</time></trkpt><trkpt lat="44.75727252647308" lon="10.217424940792311"><ele>106.0</ele><time>2026-04-11T12:14:51Z</time></trkpt><trkpt lat="44.75726090402896" lon="10.217145338625489"><ele>106.0</ele><time>2026-04-11T12:14:52Z</time></trkpt><trkpt lat="44.75725514037603" lon="10.216870986348217"><ele>106.0</ele><time>2026-04-11T12:14:53Z</time></trkpt><trkpt lat="44.757254809194464" lon="10.216650943423886"><ele>106.0</ele><time>2026-04-11T12:14:54Z</time></trkpt><trkpt lat="44.75725726273723" lon="10.216499818899402"><ele>106.0</ele><time>2026-04-11T12:14:55Z</time></trkpt><trkpt lat="44.757259922217635" lon="10.216393228066138"><ele>106.0</ele><time>2026-04-11T12:14:56Z</time></trkpt><trkpt lat="44.75726340957291" lon="10.216273841638454"><ele>106.0</ele><time>2026-04-11T12:14:57Z</time></trkpt><trkpt lat="44.757271671396445" lon="10.216108564189176"><ele>106.0</ele><time>2026-04-11T12:14:58Z</time></trkpt><trkpt lat="44.75728438365054" lon="10.215918109122745"><ele>106.25</ele><time>2026-04-11T12:14:59Z</time></trkpt><trkpt lat="44.75729805796714" lon="10.215717908576428"><ele>106.5</ele><time>2026-04-11T12:15:00Z</time></trkpt><trkpt lat="44.75731201120285" lon="10.215513624492749"><ele>106.75</ele><time>2026-04-11T12:15:01Z</time></trkpt><trkpt lat="44.757326581772595" lon="10.215305715534791"><ele>107.0</ele><time>2026-04-11T12:15:02Z</time></trkpt><trkpt lat="44.75734170729533" lon="10.215093592252611"><ele>107.0</ele><time>2026-04-11T12:15:03Z</time></trkpt><trkpt lat="44.7573597074778" lon="10.214841154232651"><ele>107.0</ele><time>2026-04-11T12:15:04Z</time></trkpt><trkpt lat="44.75737909383443" lon="10.214620275341504"><ele>107.0</ele><time>2026-04-11T12:15:05Z</time></trkpt><trkpt lat="44.75739813004458" lon="10.214426812138159"><ele>107.0</ele><time>2026-04-11T12:15:06Z</time></trkpt><trkpt lat="44.75742069030888" lon="10.214248259242245"><ele>107.0</ele><time>2026-04-11T12:15:07Z</time></trkpt><trkpt lat="44.757444561173195" lon="10.214077927284958"><ele>107.0</ele><time>2026-04-11T12:15:08Z</time></trkpt><trkpt lat="44.75747358862023" lon="10.213889015050746"><ele>107.0</ele><time>2026-04-11T12:15:09Z</time></trkpt><trkpt lat="44.75750583683088" lon="10.213704520290264"><ele>106.5</ele><time>2026-04-11T12:15:10Z</time></trkpt><trkpt lat="44.75753586750276" lon="10.213544944769955"><ele>106.0</ele><time>2026-04-11T12:15:11Z</time></trkpt><trkpt lat="44.75755938574773" lon="10.213377625794722"><ele>105.5</ele><time>2026-04-11T12:15:12Z</time></trkpt><trkpt lat="44.75759129065596" lon="10.213219852084924"><ele>105.0</ele><time>2026-04-11T12:15:13Z</time></trkpt><trkpt lat="44.75764660670101" lon="10.213047363365007"><ele>104.66666666666666</ele><time>2026-04-11T12:15:14Z</time></trkpt><trkpt lat="44.757703555068886" lon="10.212832793062564"><ele>104.33333333333333</ele><time>2026-04-11T12:15:15Z</time></trkpt><trkpt lat="44.75777369965785" lon="10.212588522235272"><ele>104.0</ele><time>2026-04-11T12:15:16Z</time></trkpt><trkpt lat="44.75787137660873" lon="10.21229539232732"><ele>104.0</ele><time>2026-04-11T12:15:17Z</time></trkpt><trkpt lat="44.757982472896984" lon="10.211968360950234"><ele>104.0</ele><time>2026-04-11T12:15:18Z</time></trkpt><trkpt lat="44.758086342479" lon="10.211719522686561"><ele>105.0</ele><time>2026-04-11T12:15:19Z</time></trkpt><trkpt lat="44.75820767569828" lon="10.211374573131977"><ele>106.0</ele><time>2026-04-11T12:15:19.999Z</time></trkpt><trkpt lat="44.75835489662977" lon="10.21101063344502"><ele>105.5</ele><time>2026-04-11T12:15:20.999Z</time></trkpt><trkpt lat="44.75850134367427" lon="10.210623684676712"><ele>105.0</ele><time>2026-04-11T12:15:21.999Z</time></trkpt><trkpt lat="44.75864272759879" lon="10.210245273296612"><ele>103.5</ele><time>2026-04-11T12:15:22.999Z</time></trkpt><trkpt lat="44.75879000731561" lon="10.209871230195189"><ele>102.0</ele><time>2026-04-11T12:15:23.999Z</time></trkpt><trkpt lat="44.75893324766887" lon="10.209500439178681"><ele>102.0</ele><time>2026-04-11T12:15:24.999Z</time></trkpt><trkpt lat="44.759072679688124" lon="10.209133812870565"><ele>102.0</ele><time>2026-04-11T12:15:25.999Z</time></trkpt><trkpt lat="44.75922653088685" lon="10.208784996679114"><ele>101.0</ele><time>2026-04-11T12:15:26.999Z</time></trkpt><trkpt lat="44.75933839457252" lon="10.208428103505423"><ele>100.0</ele><time>2026-04-11T12:15:27.999Z</time></trkpt><trkpt lat="44.75945149329494" lon="10.208104777663337"><ele>100.0</ele><time>2026-04-11T12:15:28.999Z</time></trkpt><trkpt lat="44.759531789069094" lon="10.207759328844348"><ele>100.0</ele><time>2026-04-11T12:15:29.999Z</time></trkpt><trkpt lat="44.7595866814113" lon="10.207383512322979"><ele>98.0</ele><time>2026-04-11T12:15:30.999Z</time></trkpt><trkpt lat="44.75962238414895" lon="10.206987859250102"><ele>96.0</ele><time>2026-04-11T12:15:31.999Z</time></trkpt><trkpt lat="44.759627824239594" lon="10.20660011208208"><ele>96.0</ele><time>2026-04-11T12:15:32.999Z</time></trkpt><trkpt lat="44.759598236215105" lon="10.206216179883363"><ele>96.0</ele><time>2026-04-11T12:15:33.999Z</time></trkpt><trkpt lat="44.75954658173918" lon="10.2058360089727"><ele>96.5</ele><time>2026-04-11T12:15:34.999Z</time></trkpt><trkpt lat="44.75948504450554" lon="10.205477919993964"><ele>97.0</ele><time>2026-04-11T12:15:35.999Z</time></trkpt><trkpt lat="44.75940264101121" lon="10.205139710305222"><ele>98.0</ele><time>2026-04-11T12:15:36.999Z</time></trkpt><trkpt lat="44.75931404008956" lon="10.204866043364119"><ele>99.0</ele><time>2026-04-11T12:15:37.999Z</time></trkpt><trkpt lat="44.75924861400277" lon="10.204650505833813"><ele>100.0</ele><time>2026-04-11T12:15:38.999Z</time></trkpt><trkpt lat="44.759222529333584" lon="10.204459279062942"><ele>100.0</ele><time>2026-04-11T12:15:39.999Z</time></trkpt><trkpt lat="44.759206019242434" lon="10.204302181971284"><ele>100.0</ele><time>2026-04-11T12:15:40.999Z</time></trkpt><trkpt lat="44.75920184962812" lon="10.204153152625953"><ele>100.0</ele><time>2026-04-11T12:15:41.999Z</time></trkpt><trkpt lat="44.759255483861395" lon="10.204017206865032"><ele>100.0</ele><time>2026-04-11T12:15:42.999Z</time></trkpt><trkpt lat="44.759332989485245" lon="10.203906000774486"><ele>100.0</ele><time>2026-04-11T12:15:43.999Z</time></trkpt><trkpt lat="44.75938925414503" lon="10.203768775448838"><ele>99.75</ele><time>2026-04-11T12:15:44.999Z</time></trkpt><trkpt lat="44.759404111788605" lon="10.203576406919908"><ele>99.5</ele><time>2026-04-11T12:15:45.999Z</time></trkpt><trkpt lat="44.7593776753143" lon="10.203370867770365"><ele>99.25</ele><time>2026-04-11T12:15:46.999Z</time></trkpt><trkpt lat="44.75930455620912" lon="10.203186506435115"><ele>99.0</ele><time>2026-04-11T12:15:47.999Z</time></trkpt><trkpt lat="44.75917845229298" lon="10.203044211248347"><ele>99.0</ele><time>2026-04-11T12:15:48.999Z</time></trkpt><trkpt lat="44.75902011325532" lon="10.202971764218132"><ele>99.0</ele><time>2026-04-11T12:15:49.999Z</time></trkpt><trkpt lat="44.75884414085818" lon="10.202984658608823"><ele>99.0</ele><time>2026-04-11T12:15:50.999Z</time></trkpt><trkpt lat="44.758675869436125" lon="10.203071076955823"><ele>99.0</ele><time>2026-04-11T12:15:51.999Z</time></trkpt><trkpt lat="44.75850554209627" lon="10.203226865059774"><ele>99.0</ele><time>2026-04-11T12:15:52.999Z</time></trkpt><trkpt lat="44.75834561770057" lon="10.203247732090494"><ele>99.0</ele><time>2026-04-11T12:15:53.999Z</time></trkpt><trkpt lat="44.75818634087402" lon="10.203140583256218"><ele>98.66666666666666</ele><time>2026-04-11T12:15:54.999Z</time></trkpt><trkpt lat="44.75798964365369" lon="10.20303836234656"><ele>98.33333333333333</ele><time>2026-04-11T12:15:55.999Z</time></trkpt><trkpt lat="44.75778441048425" lon="10.202935972955938"><ele>98.0</ele><time>2026-04-11T12:15:56.999Z</time></trkpt><trkpt lat="44.757595183111135" lon="10.202827502497076"><ele>98.0</ele><time>2026-04-11T12:15:57.999Z</time></trkpt><trkpt lat="44.75738640803444" lon="10.20271408689549"><ele>98.0</ele><time>2026-04-11T12:15:58.999Z</time></trkpt><trkpt lat="44.757152581877776" lon="10.20259042718904"><ele>98.0</ele><time>2026-04-11T12:15:59.999Z</time></trkpt><trkpt lat="44.7569042911813" lon="10.202454360685675"><ele>98.0</ele><time>2026-04-11T12:16:00.999Z</time></trkpt><trkpt lat="44.75664523887114" lon="10.20231053944787"><ele>98.5</ele><time>2026-04-11T12:16:01.999Z</time></trkpt><trkpt lat="44.75638994503327" lon="10.202169128037834"><ele>99.0</ele><time>2026-04-11T12:16:02.999Z</time></trkpt><trkpt lat="44.756130386416274" lon="10.202026122754253"><ele>99.0</ele><time>2026-04-11T12:16:03.999Z</time></trkpt><trkpt lat="44.75586363343214" lon="10.201879930677997"><ele>99.0</ele><time>2026-04-11T12:16:04.999Z</time></trkpt><trkpt lat="44.75558637199358" lon="10.201735816501913"><ele>99.0</ele><time>2026-04-11T12:16:05.999Z</time></trkpt><trkpt lat="44.75531051495096" lon="10.201591485363751"><ele>99.0</ele><time>2026-04-11T12:16:06.999Z</time></trkpt><trkpt lat="44.75502684158919" lon="10.201444236749374"><ele>100.0</ele><time>2026-04-11T12:16:07.999Z</time></trkpt><trkpt lat="44.75474747165644" lon="10.201297873632514"><ele>101.0</ele><time>2026-04-11T12:16:08.999Z</time></trkpt><trkpt lat="44.75445733247667" lon="10.201144624842984"><ele>102.0</ele><time>2026-04-11T12:16:09.999Z</time></trkpt><trkpt lat="44.754175184568204" lon="10.200991988655202"><ele>103.0</ele><time>2026-04-11T12:16:10.999Z</time></trkpt><trkpt lat="44.753901351799946" lon="10.200817990269078"><ele>103.0</ele><time>2026-04-11T12:16:11.999Z</time></trkpt><trkpt lat="44.753621099869505" lon="10.200685168978993"><ele>103.0</ele><time>2026-04-11T12:16:12.999Z</time></trkpt><trkpt lat="44.75335292969855" lon="10.200530836959096"><ele>102.0</ele><time>2026-04-11T12:16:13.999Z</time></trkpt><trkpt lat="44.75307544193522" lon="10.200379054753066"><ele>101.0</ele><time>2026-04-11T12:16:14.999Z</time></trkpt><trkpt lat="44.752812294527594" lon="10.200230923431912"><ele>101.5</ele><time>2026-04-11T12:16:15.999Z</time></trkpt><trkpt lat="44.7525364869569" lon="10.200086708614002"><ele>102.0</ele><time>2026-04-11T12:16:16.999Z</time></trkpt><trkpt lat="44.75226690375628" lon="10.199943008563634"><ele>102.0</ele><time>2026-04-11T12:16:18Z</time></trkpt><trkpt lat="44.7519989403004" lon="10.199797966030156"><ele>102.0</ele><time>2026-04-11T12:16:19Z</time></trkpt><trkpt lat="44.751723781001736" lon="10.19964931672129"><ele>101.5</ele><time>2026-04-11T12:16:20Z</time></trkpt><trkpt lat="44.75145707788792" lon="10.199507580896437"><ele>101.0</ele><time>2026-04-11T12:16:21Z</time></trkpt><trkpt lat="44.7511919078365" lon="10.199364623372501"><ele>101.0</ele><time>2026-04-11T12:16:22Z</time></trkpt><trkpt lat="44.7509262239892" lon="10.199224538734656"><ele>101.0</ele><time>2026-04-11T12:16:23Z</time></trkpt><trkpt lat="44.75066344152971" lon="10.199083849872732"><ele>101.5</ele><time>2026-04-11T12:16:24Z</time></trkpt><trkpt lat="44.750399395911586" lon="10.198940191333225"><ele>102.0</ele><time>2026-04-11T12:16:25Z</time></trkpt><trkpt lat="44.75013911355824" lon="10.198797008164966"><ele>102.5</ele><time>2026-04-11T12:16:26Z</time></trkpt><trkpt lat="44.74987538008888" lon="10.198653171607946"><ele>103.0</ele><time>2026-04-11T12:16:27Z</time></trkpt><trkpt lat="44.74961688674529" lon="10.198489486811914"><ele>103.5</ele><time>2026-04-11T12:16:28Z</time></trkpt><trkpt lat="44.74937118355027" lon="10.198304208326118"><ele>104.0</ele><time>2026-04-11T12:16:29Z</time></trkpt><trkpt lat="44.749128230275325" lon="10.198093389063851"><ele>104.0</ele><time>2026-04-11T12:16:30Z</time></trkpt><trkpt lat="44.74888866004861" lon="10.19789395791376"><ele>104.0</ele><time>2026-04-11T12:16:31Z</time></trkpt><trkpt lat="44.74864148103946" lon="10.197720360082702"><ele>104.5</ele><time>2026-04-11T12:16:32Z</time></trkpt><trkpt lat="44.74839554926196" lon="10.197589655746839"><ele>105.0</ele><time>2026-04-11T12:16:33Z</time></trkpt><trkpt lat="44.748135996531154" lon="10.19747973886822"><ele>105.0</ele><time>2026-04-11T12:16:34Z</time></trkpt><trkpt lat="44.74789183421671" lon="10.197401007609459"><ele>105.0</ele><time>2026-04-11T12:16:35Z</time></trkpt><trkpt lat="44.747652805637266" lon="10.197349260383204"><ele>107.0</ele><time>2026-04-11T12:16:36Z</time></trkpt><trkpt lat="44.74740534077524" lon="10.197318922409279"><ele>109.0</ele><time>2026-04-11T12:16:37Z</time></trkpt><trkpt lat="44.74714493060443" lon="10.197315614287923"><ele>109.0</ele><time>2026-04-11T12:16:38Z</time></trkpt><trkpt lat="44.74687542685487" lon="10.197325244669777"><ele>109.0</ele><time>2026-04-11T12:16:39Z</time></trkpt><trkpt lat="44.74659993767185" lon="10.19733242439662"><ele>109.0</ele><time>2026-04-11T12:16:40Z</time></trkpt><trkpt lat="44.74632060853811" lon="10.197309719169239"><ele>109.0</ele><time>2026-04-11T12:16:41Z</time></trkpt><trkpt lat="44.74604027213651" lon="10.197336078115253"><ele>108.5</ele><time>2026-04-11T12:16:42Z</time></trkpt><trkpt lat="44.745772712555116" lon="10.197333192835648"><ele>108.0</ele><time>2026-04-11T12:16:43Z</time></trkpt><trkpt lat="44.74552093008631" lon="10.197307066220615"><ele>108.0</ele><time>2026-04-11T12:16:44Z</time></trkpt><trkpt lat="44.74527354197345" lon="10.197289024805364"><ele>108.0</ele><time>2026-04-11T12:16:45Z</time></trkpt><trkpt lat="44.74501956752831" lon="10.197202309279842"><ele>109.0</ele><time>2026-04-11T12:16:46Z</time></trkpt><trkpt lat="44.74477868864908" lon="10.197049333344424"><ele>110.0</ele><time>2026-04-11T12:16:47Z</time></trkpt><trkpt lat="44.744538239536304" lon="10.196859182760669"><ele>110.5</ele><time>2026-04-11T12:16:48Z</time></trkpt><trkpt lat="44.744323425928314" lon="10.196639148008037"><ele>111.0</ele><time>2026-04-11T12:16:49Z</time></trkpt><trkpt lat="44.744132262094105" lon="10.196376216969613"><ele>111.0</ele><time>2026-04-11T12:16:50Z</time></trkpt><trkpt lat="44.743938692246104" lon="10.196093636030145"><ele>111.0</ele><time>2026-04-11T12:16:51Z</time></trkpt><trkpt lat="44.743762163936324" lon="10.195793826255336"><ele>111.0</ele><time>2026-04-11T12:16:52Z</time></trkpt><trkpt lat="44.74358112996442" lon="10.195504831995956"><ele>111.0</ele><time>2026-04-11T12:16:53Z</time></trkpt><trkpt lat="44.74339500395643" lon="10.195217293226301"><ele>111.0</ele><time>2026-04-11T12:16:54Z</time></trkpt><trkpt lat="44.74320927887501" lon="10.194930907190109"><ele>111.0</ele><time>2026-04-11T12:16:55Z</time></trkpt><trkpt lat="44.743025449691935" lon="10.194658262828666"><ele>112.0</ele><time>2026-04-11T12:16:56Z</time></trkpt><trkpt lat="44.74283158999327" lon="10.194396727499395"><ele>113.0</ele><time>2026-04-11T12:16:57Z</time></trkpt><trkpt lat="44.74262596994893" lon="10.194147959349406"><ele>113.5</ele><time>2026-04-11T12:16:58Z</time></trkpt><trkpt lat="44.742400604874895" lon="10.193926019385943"><ele>114.0</ele><time>2026-04-11T12:16:59Z</time></trkpt><trkpt lat="44.74216873166729" lon="10.193718964030268"><ele>114.0</ele><time>2026-04-11T12:17:00Z</time></trkpt><trkpt lat="44.741936842381016" lon="10.19351800676983"><ele>114.0</ele><time>2026-04-11T12:17:01Z</time></trkpt><trkpt lat="44.74169800377325" lon="10.193323912170369"><ele>114.0</ele><time>2026-04-11T12:17:02Z</time></trkpt><trkpt lat="44.74146900611296" lon="10.193135188424584"><ele>114.0</ele><time>2026-04-11T12:17:03Z</time></trkpt><trkpt lat="44.74123633107126" lon="10.192937556596215"><ele>113.5</ele><time>2026-04-11T12:17:04Z</time></trkpt><trkpt lat="44.74100672030051" lon="10.192741836327679"><ele>113.0</ele><time>2026-04-11T12:17:05Z</time></trkpt><trkpt lat="44.7407752130651" lon="10.19254191641631"><ele>113.0</ele><time>2026-04-11T12:17:06Z</time></trkpt><trkpt lat="44.74054698355788" lon="10.19235828199244"><ele>113.0</ele><time>2026-04-11T12:17:07Z</time></trkpt><trkpt lat="44.74031739005811" lon="10.192172420140185"><ele>114.5</ele><time>2026-04-11T12:17:08Z</time></trkpt><trkpt lat="44.740084921366204" lon="10.19198825133371"><ele>116.0</ele><time>2026-04-11T12:17:09Z</time></trkpt><trkpt lat="44.73985935504305" lon="10.191806046778467"><ele>116.0</ele><time>2026-04-11T12:17:10Z</time></trkpt><trkpt lat="44.73963652245309" lon="10.191628587628948"><ele>116.0</ele><time>2026-04-11T12:17:11Z</time></trkpt><trkpt lat="44.73942747826089" lon="10.191467255499898"><ele>115.66666666666666</ele><time>2026-04-11T12:17:12Z</time></trkpt><trkpt lat="44.73923921617532" lon="10.191315457754653"><ele>115.33333333333334</ele><time>2026-04-11T12:17:13Z</time></trkpt><trkpt lat="44.73906589667666" lon="10.19114445507193"><ele>115.0</ele><time>2026-04-11T12:17:14Z</time></trkpt><trkpt lat="44.73887709588173" lon="10.191004934579887"><ele>115.0</ele><time>2026-04-11T12:17:15Z</time></trkpt><trkpt lat="44.73867854087819" lon="10.19083714260047"><ele>115.0</ele><time>2026-04-11T12:17:16Z</time></trkpt><trkpt lat="44.73848270179834" lon="10.190672584872056"><ele>115.0</ele><time>2026-04-11T12:17:17Z</time></trkpt><trkpt lat="44.738294479036426" lon="10.190491494621812"><ele>115.0</ele><time>2026-04-11T12:17:18Z</time></trkpt><trkpt lat="44.73809083033872" lon="10.190342255724305"><ele>115.0</ele><time>2026-04-11T12:17:19Z</time></trkpt><trkpt lat="44.73789376340006" lon="10.190179910185318"><ele>115.0</ele><time>2026-04-11T12:17:20Z</time></trkpt><trkpt lat="44.737704166643425" lon="10.19001806382595"><ele>115.0</ele><time>2026-04-11T12:17:21Z</time></trkpt><trkpt lat="44.73753713027195" lon="10.18987658385115"><ele>115.0</ele><time>2026-04-11T12:17:22Z</time></trkpt><trkpt lat="44.7373664632206" lon="10.18973571771576"><ele>115.0</ele><time>2026-04-11T12:17:23Z</time></trkpt><trkpt lat="44.73720717475241" lon="10.189599993402231"><ele>114.66666666666667</ele><time>2026-04-11T12:17:24Z</time></trkpt><trkpt lat="44.7370546140276" lon="10.189470843851266"><ele>114.33333333333334</ele><time>2026-04-11T12:17:25Z</time></trkpt><trkpt lat="44.73691131764046" lon="10.189350083476068"><ele>114.0</ele><time>2026-04-11T12:17:26Z</time></trkpt><trkpt lat="44.73676955488617" lon="10.189235151543707"><ele>114.66666666666666</ele><time>2026-04-11T12:17:27Z</time></trkpt><trkpt lat="44.736630984836104" lon="10.189117824111099"><ele>115.33333333333333</ele><time>2026-04-11T12:17:28Z</time></trkpt><trkpt lat="44.73649055896755" lon="10.189002396076514"><ele>116.0</ele><time>2026-04-11T12:17:28.999Z</time></trkpt><trkpt lat="44.73635738736132" lon="10.18888607148183"><ele>116.0</ele><time>2026-04-11T12:17:29.999Z</time></trkpt><trkpt lat="44.73621364497531" lon="10.188762183374788"><ele>116.0</ele><time>2026-04-11T12:17:30.999Z</time></trkpt><trkpt lat="44.736070326144095" lon="10.188642364968194"><ele>116.0</ele><time>2026-04-11T12:17:31.999Z</time></trkpt><trkpt lat="44.735920206804124" lon="10.188512963532533"><ele>115.33333333333333</ele><time>2026-04-11T12:17:32.999Z</time></trkpt><trkpt lat="44.7357743950144" lon="10.188384519643604"><ele>114.66666666666666</ele><time>2026-04-11T12:17:33.999Z</time></trkpt><trkpt lat="44.73561867067909" lon="10.18825173009578"><ele>114.0</ele><time>2026-04-11T12:17:34.999Z</time></trkpt><trkpt lat="44.73546260941872" lon="10.188118811571215"><ele>113.33333333333334</ele><time>2026-04-11T12:17:35.999Z</time></trkpt><trkpt lat="44.7353025582204" lon="10.18797940100531"><ele>112.66666666666667</ele><time>2026-04-11T12:17:36.999Z</time></trkpt><trkpt lat="44.73513738647982" lon="10.18783349436314"><ele>112.0</ele><time>2026-04-11T12:17:37.999Z</time></trkpt><trkpt lat="44.73497299557723" lon="10.187693321772818"><ele>112.0</ele><time>2026-04-11T12:17:38.999Z</time></trkpt><trkpt lat="44.734806017599475" lon="10.187548534932205"><ele>112.0</ele><time>2026-04-11T12:17:39.999Z</time></trkpt><trkpt lat="44.73464026867012" lon="10.187399459838455"><ele>112.0</ele><time>2026-04-11T12:17:40.999Z</time></trkpt><trkpt lat="44.73447528222712" lon="10.187249111748661"><ele>112.33333333333334</ele><time>2026-04-11T12:17:41.999Z</time></trkpt><trkpt lat="44.73431090321532" lon="10.187097173080968"><ele>112.66666666666666</ele><time>2026-04-11T12:17:42.999Z</time></trkpt><trkpt lat="44.73414782734894" lon="10.186950346953207"><ele>113.0</ele><time>2026-04-11T12:17:43.999Z</time></trkpt><trkpt lat="44.733978989002814" lon="10.186793243426461"><ele>113.0</ele><time>2026-04-11T12:17:44.999Z</time></trkpt><trkpt lat="44.733810013451745" lon="10.186630819760127"><ele>113.0</ele><time>2026-04-11T12:17:45.999Z</time></trkpt><trkpt lat="44.73364536900489" lon="10.186487887284455"><ele>113.0</ele><time>2026-04-11T12:17:46.999Z</time></trkpt><trkpt lat="44.73347437691511" lon="10.186330087386578"><ele>112.66666666666666</ele><time>2026-04-11T12:17:47.999Z</time></trkpt><trkpt lat="44.73330463544377" lon="10.186165001941317"><ele>112.33333333333334</ele><time>2026-04-11T12:17:48.999Z</time></trkpt><trkpt lat="44.73313697494098" lon="10.185987475656617"><ele>112.0</ele><time>2026-04-11T12:17:49.999Z</time></trkpt><trkpt lat="44.73297378751114" lon="10.185791898056506"><ele>112.33333333333334</ele><time>2026-04-11T12:17:50.999Z</time></trkpt><trkpt lat="44.73282121539614" lon="10.185585924548576"><ele>112.66666666666666</ele><time>2026-04-11T12:17:51.999Z</time></trkpt><trkpt lat="44.73266755800434" lon="10.18537440268145"><ele>113.0</ele><time>2026-04-11T12:17:52.999Z</time></trkpt><trkpt lat="44.732507056577965" lon="10.185158548318848"><ele>113.0</ele><time>2026-04-11T12:17:53.999Z</time></trkpt><trkpt lat="44.73234892907089" lon="10.18495240116247"><ele>113.0</ele><time>2026-04-11T12:17:54.999Z</time></trkpt><trkpt lat="44.73218967107862" lon="10.18474943185096"><ele>113.0</ele><time>2026-04-11T12:17:55.999Z</time></trkpt><trkpt lat="44.73202181225615" lon="10.18454276152909"><ele>113.66666666666666</ele><time>2026-04-11T12:17:56.999Z</time></trkpt><trkpt lat="44.73184227163127" lon="10.184374187187142"><ele>114.33333333333334</ele><time>2026-04-11T12:17:57.999Z</time></trkpt><trkpt lat="44.731633655824574" lon="10.184234446328919"><ele>115.0</ele><time>2026-04-11T12:17:58.999Z</time></trkpt><trkpt lat="44.73142569401828" lon="10.184081455450492"><ele>113.0</ele><time>2026-04-11T12:17:59.999Z</time></trkpt><trkpt lat="44.73121468557861" lon="10.183914374100597"><ele>111.0</ele><time>2026-04-11T12:18:00.999Z</time></trkpt><trkpt lat="44.731000359019326" lon="10.183743311261084"><ele>111.0</ele><time>2026-04-11T12:18:01.999Z</time></trkpt><trkpt lat="44.730779476482304" lon="10.183590910879131"><ele>111.0</ele><time>2026-04-11T12:18:02.999Z</time></trkpt><trkpt lat="44.73056628146795" lon="10.183410690900011"><ele>111.0</ele><time>2026-04-11T12:18:03.999Z</time></trkpt><trkpt lat="44.730365913981046" lon="10.183198170218093"><ele>111.0</ele><time>2026-04-11T12:18:04.999Z</time></trkpt><trkpt lat="44.730161997416516" lon="10.182984864135776"><ele>112.5</ele><time>2026-04-11T12:18:05.999Z</time></trkpt><trkpt lat="44.729952734032324" lon="10.182788474660262"><ele>114.0</ele><time>2026-04-11T12:18:06.999Z</time></trkpt><trkpt lat="44.7297554068842" lon="10.182565551641868"><ele>114.0</ele><time>2026-04-11T12:18:07.999Z</time></trkpt><trkpt lat="44.72955762113848" lon="10.1823479375634"><ele>114.0</ele><time>2026-04-11T12:18:08.999Z</time></trkpt><trkpt lat="44.7293607890838" lon="10.182131936389835"><ele>114.0</ele><time>2026-04-11T12:18:09.999Z</time></trkpt><trkpt lat="44.72916407874413" lon="10.181915768970484"><ele>114.0</ele><time>2026-04-11T12:18:10.999Z</time></trkpt><trkpt lat="44.728966063520886" lon="10.181698688306957"><ele>113.5</ele><time>2026-04-11T12:18:11.999Z</time></trkpt><trkpt lat="44.728768417346224" lon="10.181487256048369"><ele>113.0</ele><time>2026-04-11T12:18:12.999Z</time></trkpt><trkpt lat="44.72856882656747" lon="10.181272078979122"><ele>114.0</ele><time>2026-04-11T12:18:13.999Z</time></trkpt><trkpt lat="44.72837025427382" lon="10.181054865927749"><ele>115.0</ele><time>2026-04-11T12:18:14.999Z</time></trkpt><trkpt lat="44.72817004039168" lon="10.180836127379306"><ele>113.5</ele><time>2026-04-11T12:18:15.999Z</time></trkpt><trkpt lat="44.727970646866076" lon="10.180615224959942"><ele>112.0</ele><time>2026-04-11T12:18:16.999Z</time></trkpt><trkpt lat="44.72777099940794" lon="10.180396229862987"><ele>113.0</ele><time>2026-04-11T12:18:17.999Z</time></trkpt><trkpt lat="44.72757206780846" lon="10.180171578347206"><ele>114.0</ele><time>2026-04-11T12:18:18.999Z</time></trkpt><trkpt lat="44.72737718970529" lon="10.1799445417254"><ele>113.0</ele><time>2026-04-11T12:18:19.999Z</time></trkpt><trkpt lat="44.72717935163083" lon="10.179704848352973"><ele>112.0</ele><time>2026-04-11T12:18:20.999Z</time></trkpt><trkpt lat="44.72698524419072" lon="10.179476036418913"><ele>113.0</ele><time>2026-04-11T12:18:21.999Z</time></trkpt><trkpt lat="44.72679215898326" lon="10.179239188710815"><ele>114.0</ele><time>2026-04-11T12:18:22.999Z</time></trkpt><trkpt lat="44.726605473514574" lon="10.17899396611663"><ele>114.0</ele><time>2026-04-11T12:18:24Z</time></trkpt><trkpt lat="44.72642649278062" lon="10.17873381429428"><ele>114.0</ele><time>2026-04-11T12:18:25Z</time></trkpt><trkpt lat="44.72626762796282" lon="10.178459525385792"><ele>113.5</ele><time>2026-04-11T12:18:26Z</time></trkpt><trkpt lat="44.72611020784141" lon="10.178181080302268"><ele>113.0</ele><time>2026-04-11T12:18:27Z</time></trkpt><trkpt lat="44.72594841193972" lon="10.177917088178669"><ele>114.0</ele><time>2026-04-11T12:18:28Z</time></trkpt><trkpt lat="44.725812958100406" lon="10.17763258960217"><ele>115.0</ele><time>2026-04-11T12:18:29Z</time></trkpt><trkpt lat="44.725685859345965" lon="10.177354776633894"><ele>114.66666666666667</ele><time>2026-04-11T12:18:30Z</time></trkpt><trkpt lat="44.72556787486017" lon="10.177099803420653"><ele>114.33333333333334</ele><time>2026-04-11T12:18:31Z</time></trkpt><trkpt lat="44.72545626637443" lon="10.176871694644932"><ele>114.0</ele><time>2026-04-11T12:18:32Z</time></trkpt><trkpt lat="44.72534662654392" lon="10.176640566270308"><ele>114.66666666666666</ele><time>2026-04-11T12:18:33Z</time></trkpt><trkpt lat="44.72524195964407" lon="10.176420035552104"><ele>115.33333333333333</ele><time>2026-04-11T12:18:34Z</time></trkpt><trkpt lat="44.72514372187334" lon="10.176217328371447"><ele>116.0</ele><time>2026-04-11T12:18:35Z</time></trkpt><trkpt lat="44.7250523620151" lon="10.176020814026876"><ele>116.5</ele><time>2026-04-11T12:18:36Z</time></trkpt><trkpt lat="44.724968458994276" lon="10.175830443231083"><ele>117.0</ele><time>2026-04-11T12:18:37Z</time></trkpt><trkpt lat="44.724892412671444" lon="10.175655026318825"><ele>117.5</ele><time>2026-04-11T12:18:38Z</time></trkpt><trkpt lat="44.72482101333599" lon="10.175491759973772"><ele>118.0</ele><time>2026-04-11T12:18:39Z</time></trkpt><trkpt lat="44.72475735678101" lon="10.175346101487468"><ele>118.00000000000001</ele><time>2026-04-11T12:18:40Z</time></trkpt><trkpt lat="44.724702600811895" lon="10.1752191885453"><ele>118.0</ele><time>2026-04-11T12:18:41Z</time></trkpt><trkpt lat="44.724654334426475" lon="10.17511442382205"><ele>118.0</ele><time>2026-04-11T12:18:42Z</time></trkpt><trkpt lat="44.72461614660195" lon="10.175027981810976"><ele>118.0</ele><time>2026-04-11T12:18:43Z</time></trkpt><trkpt lat="44.724584278078495" lon="10.174948491920953"><ele>118.00000000000001</ele><time>2026-04-11T12:18:44Z</time></trkpt><trkpt lat="44.72453691346599" lon="10.174796802413592"><ele>118.0</ele><time>2026-04-11T12:18:46Z</time></trkpt><trkpt lat="44.72450449458184" lon="10.174718950844976"><ele>118.00000000000001</ele><time>2026-04-11T12:18:47Z</time></trkpt><trkpt lat="44.72446426758694" lon="10.174620546954177"><ele>118.0</ele><time>2026-04-11T12:18:48Z</time></trkpt><trkpt lat="44.724426570743944" lon="10.174528332384565"><ele>118.0</ele><time>2026-04-11T12:18:49Z</time></trkpt><trkpt lat="44.72438227103973" lon="10.174419965911923"><ele>118.0</ele><time>2026-04-11T12:18:51Z</time></trkpt><trkpt lat="44.72434305240011" lon="10.174324028574066"><ele>118.00000000000001</ele><time>2026-04-11T12:18:54Z</time></trkpt><trkpt lat="44.72430215627806" lon="10.174223987715413"><ele>118.0</ele><time>2026-04-11T12:18:56Z</time></trkpt><trkpt lat="44.724250946553084" lon="10.17413500145101"><ele>118.0</ele><time>2026-04-11T12:18:58Z</time></trkpt><trkpt lat="44.72419013272001" lon="10.173982192634677"><ele>118.00000000000001</ele><time>2026-04-11T12:19:00Z</time></trkpt><trkpt lat="44.72414452662939" lon="10.173870695438973"><ele>118.00000000000001</ele><time>2026-04-11T12:19:01Z</time></trkpt><trkpt lat="44.72411264542152" lon="10.173737130336765"><ele>118.0</ele><time>2026-04-11T12:19:02Z</time></trkpt><trkpt lat="44.72406354137652" lon="10.173603436561002"><ele>118.0</ele><time>2026-04-11T12:19:03Z</time></trkpt><trkpt lat="44.72400984242065" lon="10.173458669615151"><ele>118.0</ele><time>2026-04-11T12:19:04Z</time></trkpt><trkpt lat="44.72394268633889" lon="10.173287627030978"><ele>118.0</ele><time>2026-04-11T12:19:05Z</time></trkpt><trkpt lat="44.72385462410352" lon="10.17311191757537"><ele>118.0</ele><time>2026-04-11T12:19:06Z</time></trkpt><trkpt lat="44.72379017626326" lon="10.172940604090051"><ele>118.0</ele><time>2026-04-11T12:19:07Z</time></trkpt><trkpt lat="44.72370800145825" lon="10.17275421652031"><ele>118.0</ele><time>2026-04-11T12:19:08Z</time></trkpt><trkpt lat="44.72362381748694" lon="10.172556996474798"><ele>118.0</ele><time>2026-04-11T12:19:09Z</time></trkpt><trkpt lat="44.72354412681508" lon="10.172346802216708"><ele>118.0</ele><time>2026-04-11T12:19:10Z</time></trkpt><trkpt lat="44.723447328078244" lon="10.17211269817025"><ele>118.0</ele><time>2026-04-11T12:19:11Z</time></trkpt><trkpt lat="44.72334462095422" lon="10.171848797527371"><ele>118.0</ele><time>2026-04-11T12:19:12Z</time></trkpt><trkpt lat="44.72324468357856" lon="10.171592198364692"><ele>118.0</ele><time>2026-04-11T12:19:13Z</time></trkpt><trkpt lat="44.72313744293542" lon="10.17133057990691"><ele>117.66666666666667</ele><time>2026-04-11T12:19:14Z</time></trkpt><trkpt lat="44.72303368422667" lon="10.171071697876249"><ele>117.33333333333334</ele><time>2026-04-11T12:19:15Z</time></trkpt><trkpt lat="44.72293835576022" lon="10.17082843441964"><ele>117.0</ele><time>2026-04-11T12:19:16Z</time></trkpt><trkpt lat="44.72284152354731" lon="10.170583712534683"><ele>117.0</ele><time>2026-04-11T12:19:17Z</time></trkpt><trkpt lat="44.722747125867436" lon="10.170338465905573"><ele>117.0</ele><time>2026-04-11T12:19:18Z</time></trkpt><trkpt lat="44.72265093591223" lon="10.170094670254352"><ele>117.0</ele><time>2026-04-11T12:19:19Z</time></trkpt><trkpt lat="44.72255624461998" lon="10.169847734811045"><ele>117.66666666666666</ele><time>2026-04-11T12:19:20Z</time></trkpt><trkpt lat="44.7224672224363" lon="10.16960186008709"><ele>118.33333333333333</ele><time>2026-04-11T12:19:21Z</time></trkpt><trkpt lat="44.722382158849065" lon="10.169350234962389"><ele>119.0</ele><time>2026-04-11T12:19:22Z</time></trkpt><trkpt lat="44.72227488233001" lon="10.169115095478945"><ele>119.66666666666666</ele><time>2026-04-11T12:19:23Z</time></trkpt><trkpt lat="44.722179917192825" lon="10.168858802259797"><ele>120.33333333333334</ele><time>2026-04-11T12:19:24Z</time></trkpt><trkpt lat="44.722076340048076" lon="10.16860871388465"><ele>121.0</ele><time>2026-04-11T12:19:25Z</time></trkpt><trkpt lat="44.72199028514733" lon="10.168338606389947"><ele>120.0</ele><time>2026-04-11T12:19:26Z</time></trkpt><trkpt lat="44.721875526273074" lon="10.168081859712796"><ele>119.0</ele><time>2026-04-11T12:19:27Z</time></trkpt><trkpt lat="44.72177519641354" lon="10.167815230253783"><ele>118.0</ele><time>2026-04-11T12:19:28Z</time></trkpt><trkpt lat="44.7216742579412" lon="10.167556832233497"><ele>117.66666666666667</ele><time>2026-04-11T12:19:29Z</time></trkpt><trkpt lat="44.72158684642077" lon="10.16728500248589"><ele>117.33333333333334</ele><time>2026-04-11T12:19:30Z</time></trkpt><trkpt lat="44.72150034371737" lon="10.167022650833378"><ele>117.0</ele><time>2026-04-11T12:19:31Z</time></trkpt><trkpt lat="44.721420923038146" lon="10.166759128818418"><ele>117.33333333333334</ele><time>2026-04-11T12:19:32Z</time></trkpt><trkpt lat="44.721343038306046" lon="10.166488230017544"><ele>117.66666666666667</ele><time>2026-04-11T12:19:32.999Z</time></trkpt><trkpt lat="44.72124984917079" lon="10.166219975713123"><ele>118.0</ele><time>2026-04-11T12:19:33.999Z</time></trkpt><trkpt lat="44.72117171349204" lon="10.165935913936933"><ele>118.0</ele><time>2026-04-11T12:19:34.999Z</time></trkpt><trkpt lat="44.72108915996661" lon="10.16565867048729"><ele>118.0</ele><time>2026-04-11T12:19:35.999Z</time></trkpt><trkpt lat="44.72101615040758" lon="10.165373246945409"><ele>118.0</ele><time>2026-04-11T12:19:36.999Z</time></trkpt><trkpt lat="44.720915062336" lon="10.165101346429662"><ele>118.66666666666667</ele><time>2026-04-11T12:19:37.999Z</time></trkpt><trkpt lat="44.72084098820905" lon="10.164805424651801"><ele>119.33333333333334</ele><time>2026-04-11T12:19:38.999Z</time></trkpt><trkpt lat="44.720751693051454" lon="10.164517777173247"><ele>120.0</ele><time>2026-04-11T12:19:39.999Z</time></trkpt><trkpt lat="44.720660196676256" lon="10.164227506113319"><ele>120.5</ele><time>2026-04-11T12:19:40.999Z</time></trkpt><trkpt lat="44.720551510784546" lon="10.163942164360819"><ele>121.0</ele><time>2026-04-11T12:19:41.999Z</time></trkpt><trkpt lat="44.72045835139051" lon="10.163648362834929"><ele>121.0</ele><time>2026-04-11T12:19:42.999Z</time></trkpt><trkpt lat="44.720364711735314" lon="10.163357098430945"><ele>121.0</ele><time>2026-04-11T12:19:43.999Z</time></trkpt><trkpt lat="44.720269582836856" lon="10.163064316415369"><ele>122.5</ele><time>2026-04-11T12:19:44.999Z</time></trkpt><trkpt lat="44.720175591094446" lon="10.162774108012997"><ele>124.0</ele><time>2026-04-11T12:19:45.999Z</time></trkpt><trkpt lat="44.72007836715325" lon="10.162478532318978"><ele>123.5</ele><time>2026-04-11T12:19:46.999Z</time></trkpt><trkpt lat="44.71997887975219" lon="10.162176559879013"><ele>123.0</ele><time>2026-04-11T12:19:47.999Z</time></trkpt><trkpt lat="44.71987886093215" lon="10.161871679491398"><ele>123.0</ele><time>2026-04-11T12:19:48.999Z</time></trkpt><trkpt lat="44.71977605382545" lon="10.161565550480551"><ele>123.0</ele><time>2026-04-11T12:19:49.999Z</time></trkpt><trkpt lat="44.71967255112042" lon="10.161261296429833"><ele>123.0</ele><time>2026-04-11T12:19:50.999Z</time></trkpt><trkpt lat="44.71958421411118" lon="10.160939894682834"><ele>123.0</ele><time>2026-04-11T12:19:51.999Z</time></trkpt><trkpt lat="44.7194829406675" lon="10.160633561065273"><ele>123.5</ele><time>2026-04-11T12:19:52.999Z</time></trkpt><trkpt lat="44.71938313484517" lon="10.160337932621902"><ele>124.0</ele><time>2026-04-11T12:19:53.999Z</time></trkpt><trkpt lat="44.71928550109729" lon="10.160054431650956"><ele>123.0</ele><time>2026-04-11T12:19:54.999Z</time></trkpt><trkpt lat="44.71918801259405" lon="10.1597734170002"><ele>122.0</ele><time>2026-04-11T12:19:55.999Z</time></trkpt><trkpt lat="44.71908964324338" lon="10.159493898351464"><ele>121.0</ele><time>2026-04-11T12:19:56.999Z</time></trkpt><trkpt lat="44.71899145445339" lon="10.159219010060921"><ele>121.33333333333334</ele><time>2026-04-11T12:19:57.999Z</time></trkpt><trkpt lat="44.718889415042874" lon="10.158940644640065"><ele>121.66666666666666</ele><time>2026-04-11T12:19:58.999Z</time></trkpt><trkpt lat="44.7187870136359" lon="10.15866152040581"><ele>122.0</ele><time>2026-04-11T12:19:59.999Z</time></trkpt><trkpt lat="44.71866690652951" lon="10.158384541799869"><ele>122.33333333333333</ele><time>2026-04-11T12:20:00.999Z</time></trkpt><trkpt lat="44.71857902038117" lon="10.158095386739706"><ele>122.66666666666666</ele><time>2026-04-11T12:20:01.999Z</time></trkpt><trkpt lat="44.71847574850903" lon="10.15781429258781"><ele>123.0</ele><time>2026-04-11T12:20:02.999Z</time></trkpt><trkpt lat="44.71837428276598" lon="10.157538114533107"><ele>124.66666666666666</ele><time>2026-04-11T12:20:03.999Z</time></trkpt><trkpt lat="44.71827439027592" lon="10.15726381597644"><ele>126.33333333333333</ele><time>2026-04-11T12:20:04.999Z</time></trkpt><trkpt lat="44.71817432896757" lon="10.156988141203065"><ele>128.0</ele><time>2026-04-11T12:20:05.999Z</time></trkpt><trkpt lat="44.718073398481856" lon="10.15671007177154"><ele>127.66666666666666</ele><time>2026-04-11T12:20:06.999Z</time></trkpt><trkpt lat="44.717971649808646" lon="10.156429748189156"><ele>127.33333333333334</ele><time>2026-04-11T12:20:07.999Z</time></trkpt><trkpt lat="44.71787108756851" lon="10.156150650039326"><ele>127.0</ele><time>2026-04-11T12:20:08.999Z</time></trkpt><trkpt lat="44.71776999346485" lon="10.155868743758546"><ele>127.0</ele><time>2026-04-11T12:20:09.999Z</time></trkpt><trkpt lat="44.71766719711822" lon="10.155585905035188"><ele>127.0</ele><time>2026-04-11T12:20:10.999Z</time></trkpt><trkpt lat="44.717563808497694" lon="10.155301436711563"><ele>127.0</ele><time>2026-04-11T12:20:11.999Z</time></trkpt><trkpt lat="44.717445837087" lon="10.155023979750048"><ele>127.0</ele><time>2026-04-11T12:20:12.999Z</time></trkpt><trkpt lat="44.71734524583843" lon="10.154738719624396"><ele>127.66666666666667</ele><time>2026-04-11T12:20:13.999Z</time></trkpt><trkpt lat="44.71724365705622" lon="10.15445317133475"><ele>128.33333333333334</ele><time>2026-04-11T12:20:14.999Z</time></trkpt><trkpt lat="44.71714294145843" lon="10.154173817336437"><ele>129.0</ele><time>2026-04-11T12:20:15.999Z</time></trkpt><trkpt lat="44.71704299043418" lon="10.153896212673732"><ele>129.0</ele><time>2026-04-11T12:20:16.999Z</time></trkpt><trkpt lat="44.71693882899586" lon="10.15361842698277"><ele>129.0</ele><time>2026-04-11T12:20:17.999Z</time></trkpt><trkpt lat="44.7168219699997" lon="10.15334484008555"><ele>131.0</ele><time>2026-04-11T12:20:18.999Z</time></trkpt><trkpt lat="44.7166927692489" lon="10.15307668232913"><ele>133.0</ele><time>2026-04-11T12:20:19.999Z</time></trkpt><trkpt lat="44.71655507009296" lon="10.152821570715581"><ele>133.0</ele><time>2026-04-11T12:20:20.999Z</time></trkpt><trkpt lat="44.716415911832286" lon="10.152565614675819"><ele>133.0</ele><time>2026-04-11T12:20:21.999Z</time></trkpt><trkpt lat="44.71628560455173" lon="10.152320272905364"><ele>133.0</ele><time>2026-04-11T12:20:22.999Z</time></trkpt><trkpt lat="44.716160089906865" lon="10.152079744577662"><ele>132.33333333333334</ele><time>2026-04-11T12:20:23.999Z</time></trkpt><trkpt lat="44.71604567163011" lon="10.151861264090288"><ele>131.66666666666666</ele><time>2026-04-11T12:20:24.999Z</time></trkpt><trkpt lat="44.715932403136435" lon="10.15163790216585"><ele>131.0</ele><time>2026-04-11T12:20:25.999Z</time></trkpt><trkpt lat="44.71582294446289" lon="10.151419333391459"><ele>130.33333333333331</ele><time>2026-04-11T12:20:26.999Z</time></trkpt><trkpt lat="44.71571529000631" lon="10.151208780546186"><ele>129.66666666666666</ele><time>2026-04-11T12:20:27.999Z</time></trkpt><trkpt lat="44.71560930310699" lon="10.151002578944619"><ele>129.0</ele><time>2026-04-11T12:20:28.999Z</time></trkpt><trkpt lat="44.71551056981188" lon="10.150808893217745"><ele>128.33333333333334</ele><time>2026-04-11T12:20:30Z</time></trkpt><trkpt lat="44.71541841519152" lon="10.150614426086888"><ele>127.66666666666667</ele><time>2026-04-11T12:20:31Z</time></trkpt><trkpt lat="44.715333084478104" lon="10.150413310246797"><ele>127.0</ele><time>2026-04-11T12:20:32Z</time></trkpt><trkpt lat="44.715281348393155" lon="10.150192459238568"><ele>127.33333333333334</ele><time>2026-04-11T12:20:33Z</time></trkpt><trkpt lat="44.71522104178289" lon="10.149976329402715"><ele>127.66666666666666</ele><time>2026-04-11T12:20:34Z</time></trkpt><trkpt lat="44.7151522594367" lon="10.149760537253643"><ele>128.0</ele><time>2026-04-11T12:20:35Z</time></trkpt><trkpt lat="44.71510368047689" lon="10.149529159053797"><ele>128.0</ele><time>2026-04-11T12:20:36Z</time></trkpt><trkpt lat="44.71505089783058" lon="10.149312900692335"><ele>128.0</ele><time>2026-04-11T12:20:37Z</time></trkpt><trkpt lat="44.71499610090796" lon="10.149109314851788"><ele>128.0</ele><time>2026-04-11T12:20:38Z</time></trkpt><trkpt lat="44.71493703495399" lon="10.148894698793073"><ele>127.66666666666666</ele><time>2026-04-11T12:20:39Z</time></trkpt><trkpt lat="44.71487708928881" lon="10.148683207378934"><ele>127.33333333333334</ele><time>2026-04-11T12:20:40Z</time></trkpt><trkpt lat="44.714816820154255" lon="10.148471632156486"><ele>127.0</ele><time>2026-04-11T12:20:41Z</time></trkpt><trkpt lat="44.71474341604005" lon="10.148250900422074"><ele>126.66666666666667</ele><time>2026-04-11T12:20:42Z</time></trkpt><trkpt lat="44.71465796808638" lon="10.148043802223057"><ele>126.33333333333334</ele><time>2026-04-11T12:20:43Z</time></trkpt><trkpt lat="44.714564803828175" lon="10.147852458973754"><ele>126.0</ele><time>2026-04-11T12:20:44Z</time></trkpt><trkpt lat="44.71446493962966" lon="10.14766145165321"><ele>127.66666666666666</ele><time>2026-04-11T12:20:45Z</time></trkpt><trkpt lat="44.714366334117074" lon="10.147464022716349"><ele>129.33333333333331</ele><time>2026-04-11T12:20:46Z</time></trkpt><trkpt lat="44.71426361948732" lon="10.147262256220639"><ele>131.0</ele><time>2026-04-11T12:20:47Z</time></trkpt><trkpt lat="44.71417632969967" lon="10.147041721418459"><ele>131.0</ele><time>2026-04-11T12:20:48Z</time></trkpt><trkpt lat="44.71406472992504" lon="10.14684797905167"><ele>131.0</ele><time>2026-04-11T12:20:49Z</time></trkpt><trkpt lat="44.71396673857524" lon="10.146646627082582"><ele>131.0</ele><time>2026-04-11T12:20:50Z</time></trkpt><trkpt lat="44.713872168003896" lon="10.146454935549436"><ele>129.66666666666666</ele><time>2026-04-11T12:20:51Z</time></trkpt><trkpt lat="44.713794423239534" lon="10.146252624905964"><ele>128.33333333333334</ele><time>2026-04-11T12:20:52Z</time></trkpt><trkpt lat="44.71370498706937" lon="10.146066103993048"><ele>127.0</ele><time>2026-04-11T12:20:53Z</time></trkpt><trkpt lat="44.71361534458146" lon="10.145875670331144"><ele>128.0</ele><time>2026-04-11T12:20:54Z</time></trkpt><trkpt lat="44.713531443838804" lon="10.145687247744798"><ele>129.0</ele><time>2026-04-11T12:20:55Z</time></trkpt><trkpt lat="44.713455835494436" lon="10.145512953499553"><ele>130.0</ele><time>2026-04-11T12:20:56Z</time></trkpt><trkpt lat="44.7133849752568" lon="10.145348742447093"><ele>131.0</ele><time>2026-04-11T12:20:57Z</time></trkpt><trkpt lat="44.713304663619674" lon="10.14520551341337"><ele>131.0</ele><time>2026-04-11T12:20:58Z</time></trkpt><trkpt lat="44.71324851145982" lon="10.145051968483875"><ele>131.0</ele><time>2026-04-11T12:20:59Z</time></trkpt><trkpt lat="44.713183188072314" lon="10.144903437281373"><ele>131.0</ele><time>2026-04-11T12:21:00Z</time></trkpt><trkpt lat="44.71312974283036" lon="10.144753176887786"><ele>131.0</ele><time>2026-04-11T12:21:01Z</time></trkpt><trkpt lat="44.713072073357594" lon="10.144619818559208"><ele>130.83333333333331</ele><time>2026-04-11T12:21:02Z</time></trkpt><trkpt lat="44.713026265172125" lon="10.144513885097675"><ele>130.66666666666666</ele><time>2026-04-11T12:21:03Z</time></trkpt><trkpt lat="44.71297480078104" lon="10.144431944726689"><ele>130.5</ele><time>2026-04-11T12:21:04Z</time></trkpt><trkpt lat="44.71293790808352" lon="10.144337211674905"><ele>130.33333333333334</ele><time>2026-04-11T12:21:05Z</time></trkpt><trkpt lat="44.71289951121309" lon="10.144246350716472"><ele>130.16666666666669</ele><time>2026-04-11T12:21:06Z</time></trkpt><trkpt lat="44.71286018801909" lon="10.144155348694067"><ele>130.0</ele><time>2026-04-11T12:21:07Z</time></trkpt><trkpt lat="44.712815203320964" lon="10.14405124388079"><ele>129.8</ele><time>2026-04-11T12:21:08Z</time></trkpt><trkpt lat="44.712764314682175" lon="10.143946164869286"><ele>129.6</ele><time>2026-04-11T12:21:09Z</time></trkpt><trkpt lat="44.71271196397334" lon="10.143830999673591"><ele>129.4</ele><time>2026-04-11T12:21:10Z</time></trkpt><trkpt lat="44.71265553025264" lon="10.143710520954636"><ele>129.2</ele><time>2026-04-11T12:21:11Z</time></trkpt><trkpt lat="44.7125975918515" lon="10.143597185149133"><ele>129.0</ele><time>2026-04-11T12:21:12Z</time></trkpt><trkpt lat="44.71253546810507" lon="10.1435050525247"><ele>129.6</ele><time>2026-04-11T12:21:13Z</time></trkpt><trkpt lat="44.71247273168244" lon="10.14342361157626"><ele>130.2</ele><time>2026-04-11T12:21:14Z</time></trkpt><trkpt lat="44.71240105417223" lon="10.143343526365719"><ele>130.79999999999998</ele><time>2026-04-11T12:21:15Z</time></trkpt><trkpt lat="44.712305957613104" lon="10.143268367837521"><ele>131.4</ele><time>2026-04-11T12:21:16Z</time></trkpt><trkpt lat="44.71222491626175" lon="10.143170043981515"><ele>132.0</ele><time>2026-04-11T12:21:17Z</time></trkpt><trkpt lat="44.71213207727805" lon="10.14307395035356"><ele>132.0</ele><time>2026-04-11T12:21:18Z</time></trkpt><trkpt lat="44.712031190151684" lon="10.142969526511502"><ele>132.0</ele><time>2026-04-11T12:21:19Z</time></trkpt><trkpt lat="44.7119283050945" lon="10.142863034578316"><ele>132.0</ele><time>2026-04-11T12:21:20Z</time></trkpt><trkpt lat="44.71181123804634" lon="10.142767837408615"><ele>132.0</ele><time>2026-04-11T12:21:21Z</time></trkpt><trkpt lat="44.711697332844174" lon="10.14264826617712"><ele>132.25</ele><time>2026-04-11T12:21:22Z</time></trkpt><trkpt lat="44.7115909122793" lon="10.142509222767506"><ele>132.5</ele><time>2026-04-11T12:21:23Z</time></trkpt><trkpt lat="44.71147060512948" lon="10.142403709485395"><ele>132.75</ele><time>2026-04-11T12:21:24Z</time></trkpt><trkpt lat="44.7113621427594" lon="10.142292118746482"><ele>133.0</ele><time>2026-04-11T12:21:25Z</time></trkpt><trkpt lat="44.711244568702675" lon="10.142159849436887"><ele>133.0</ele><time>2026-04-11T12:21:26Z</time></trkpt><trkpt lat="44.71114405358414" lon="10.142012077925118"><ele>133.0</ele><time>2026-04-11T12:21:27Z</time></trkpt><trkpt lat="44.711033044159215" lon="10.141843044319753"><ele>133.0</ele><time>2026-04-11T12:21:28Z</time></trkpt><trkpt lat="44.71092930262423" lon="10.141687182647214"><ele>132.66666666666669</ele><time>2026-04-11T12:21:29Z</time></trkpt><trkpt lat="44.71082768630391" lon="10.141501947125382"><ele>132.33333333333334</ele><time>2026-04-11T12:21:30Z</time></trkpt><trkpt lat="44.710713979782334" lon="10.141317848036211"><ele>132.0</ele><time>2026-04-11T12:21:31Z</time></trkpt><trkpt lat="44.710608922365815" lon="10.141136501624468"><ele>132.0</ele><time>2026-04-11T12:21:32Z</time></trkpt><trkpt lat="44.71048647281432" lon="10.140959208127919"><ele>132.0</ele><time>2026-04-11T12:21:33Z</time></trkpt><trkpt lat="44.71037579088686" lon="10.14078211789569"><ele>132.0</ele><time>2026-04-11T12:21:34Z</time></trkpt><trkpt lat="44.71024683006125" lon="10.140618866053673"><ele>133.0</ele><time>2026-04-11T12:21:35Z</time></trkpt><trkpt lat="44.7100960072905" lon="10.1404773133456"><ele>134.0</ele><time>2026-04-11T12:21:36Z</time></trkpt><trkpt lat="44.709943601159665" lon="10.140331541513916"><ele>135.0</ele><time>2026-04-11T12:21:37Z</time></trkpt><trkpt lat="44.70979407860897" lon="10.140173792175448"><ele>135.0</ele><time>2026-04-11T12:21:38Z</time></trkpt><trkpt lat="44.70965108340444" lon="10.140010361160938"><ele>135.0</ele><time>2026-04-11T12:21:39Z</time></trkpt><trkpt lat="44.70949589113598" lon="10.139834922652875"><ele>135.0</ele><time>2026-04-11T12:21:40Z</time></trkpt><trkpt lat="44.709353252924004" lon="10.139646622555592"><ele>135.66666666666666</ele><time>2026-04-11T12:21:40.999Z</time></trkpt><trkpt lat="44.70922815367996" lon="10.139412959945561"><ele>136.33333333333331</ele><time>2026-04-11T12:21:41.999Z</time></trkpt><trkpt lat="44.70909036810311" lon="10.13917477380372"><ele>137.0</ele><time>2026-04-11T12:21:42.999Z</time></trkpt><trkpt lat="44.70895212329848" lon="10.13895309595969"><ele>137.0</ele><time>2026-04-11T12:21:43.999Z</time></trkpt><trkpt lat="44.70884081676861" lon="10.138743330884855"><ele>137.0</ele><time>2026-04-11T12:21:44.999Z</time></trkpt><trkpt lat="44.70875386467724" lon="10.138539807039512"><ele>137.0</ele><time>2026-04-11T12:21:45.999Z</time></trkpt><trkpt lat="44.708664464938586" lon="10.138370238635092"><ele>137.5</ele><time>2026-04-11T12:21:46.999Z</time></trkpt><trkpt lat="44.708574839987556" lon="10.138200241800197"><ele>138.0</ele><time>2026-04-11T12:21:47.999Z</time></trkpt><trkpt lat="44.70848173220226" lon="10.138026917199216"><ele>138.5</ele><time>2026-04-11T12:21:48.999Z</time></trkpt><trkpt lat="44.70839558998672" lon="10.137865343885155"><ele>139.0</ele><time>2026-04-11T12:21:49.999Z</time></trkpt><trkpt lat="44.70830479194442" lon="10.137697438655772"><ele>139.0</ele><time>2026-04-11T12:21:50.999Z</time></trkpt><trkpt lat="44.70820750764855" lon="10.137515631151903"><ele>139.0</ele><time>2026-04-11T12:21:51.999Z</time></trkpt><trkpt lat="44.708105198021784" lon="10.1373194650283"><ele>139.0</ele><time>2026-04-11T12:21:52.999Z</time></trkpt><trkpt lat="44.707995215020155" lon="10.137110434684633"><ele>139.0</ele><time>2026-04-11T12:21:53.999Z</time></trkpt><trkpt lat="44.707870952423505" lon="10.136879793658872"><ele>139.0</ele><time>2026-04-11T12:21:54.999Z</time></trkpt><trkpt lat="44.707733697363636" lon="10.136627912569992"><ele>139.0</ele><time>2026-04-11T12:21:55.999Z</time></trkpt><trkpt lat="44.707591724489326" lon="10.136359777972682"><ele>137.5</ele><time>2026-04-11T12:21:56.999Z</time></trkpt><trkpt lat="44.707446684954625" lon="10.136087482878539"><ele>136.0</ele><time>2026-04-11T12:21:57.999Z</time></trkpt><trkpt lat="44.70730575767044" lon="10.135830550610166"><ele>136.0</ele><time>2026-04-11T12:21:58.999Z</time></trkpt><trkpt lat="44.70717841003233" lon="10.135595015690729"><ele>136.0</ele><time>2026-04-11T12:21:59.999Z</time></trkpt><trkpt lat="44.70706312553091" lon="10.135377164671928"><ele>136.0</ele><time>2026-04-11T12:22:00.999Z</time></trkpt><trkpt lat="44.706950274247205" lon="10.135163911731134"><ele>137.33333333333334</ele><time>2026-04-11T12:22:01.999Z</time></trkpt><trkpt lat="44.70683933388639" lon="10.134958143218753"><ele>138.66666666666666</ele><time>2026-04-11T12:22:02.999Z</time></trkpt><trkpt lat="44.70673522694821" lon="10.134765673300985"><ele>140.0</ele><time>2026-04-11T12:22:03.999Z</time></trkpt><trkpt lat="44.70663084829844" lon="10.134572700832033"><ele>140.33333333333331</ele><time>2026-04-11T12:22:04.999Z</time></trkpt><trkpt lat="44.70652562819863" lon="10.13437811312191"><ele>140.66666666666666</ele><time>2026-04-11T12:22:05.999Z</time></trkpt><trkpt lat="44.706414330124716" lon="10.134209782434453"><ele>141.0</ele><time>2026-04-11T12:22:06.999Z</time></trkpt><trkpt lat="44.70631639631987" lon="10.134024712408282"><ele>141.0</ele><time>2026-04-11T12:22:07.999Z</time></trkpt><trkpt lat="44.70621353363759" lon="10.133833805905612"><ele>141.0</ele><time>2026-04-11T12:22:08.999Z</time></trkpt><trkpt lat="44.7061086529788" lon="10.13364506873263"><ele>141.0</ele><time>2026-04-11T12:22:09.999Z</time></trkpt><trkpt lat="44.706003841191894" lon="10.133455366510937"><ele>141.33333333333334</ele><time>2026-04-11T12:22:10.999Z</time></trkpt><trkpt lat="44.705912877513946" lon="10.133242384769911"><ele>141.66666666666669</ele><time>2026-04-11T12:22:11.999Z</time></trkpt><trkpt lat="44.705793786068554" lon="10.133051800667054"><ele>142.0</ele><time>2026-04-11T12:22:12.999Z</time></trkpt><trkpt lat="44.705687018864644" lon="10.132841023856841"><ele>142.0</ele><time>2026-04-11T12:22:13.999Z</time></trkpt><trkpt lat="44.70558337328532" lon="10.132618050890823"><ele>142.0</ele><time>2026-04-11T12:22:14.999Z</time></trkpt><trkpt lat="44.70546224275282" lon="10.132375709281959"><ele>142.0</ele><time>2026-04-11T12:22:15.999Z</time></trkpt><trkpt lat="44.70533748732987" lon="10.132075104830934"><ele>141.5</ele><time>2026-04-11T12:22:16.999Z</time></trkpt><trkpt lat="44.70519664401496" lon="10.131785428940349"><ele>141.0</ele><time>2026-04-11T12:22:17.999Z</time></trkpt><trkpt lat="44.70505309498384" lon="10.131499776158089"><ele>139.5</ele><time>2026-04-11T12:22:18.999Z</time></trkpt><trkpt lat="44.70491742535239" lon="10.131222192443822"><ele>138.0</ele><time>2026-04-11T12:22:19.999Z</time></trkpt><trkpt lat="44.70477816826774" lon="10.130935001335427"><ele>137.0</ele><time>2026-04-11T12:22:20.999Z</time></trkpt><trkpt lat="44.70463644945374" lon="10.130648811729818"><ele>136.0</ele><time>2026-04-11T12:22:21.999Z</time></trkpt><trkpt lat="44.70449407102334" lon="10.130357578220442"><ele>138.0</ele><time>2026-04-11T12:22:22.999Z</time></trkpt><trkpt lat="44.70435059786578" lon="10.130056855901318"><ele>140.0</ele><time>2026-04-11T12:22:23.999Z</time></trkpt><trkpt lat="44.70421581673698" lon="10.12977367055596"><ele>140.0</ele><time>2026-04-11T12:22:24.999Z</time></trkpt><trkpt lat="44.70408723812039" lon="10.12949992877355"><ele>140.0</ele><time>2026-04-11T12:22:25.999Z</time></trkpt><trkpt lat="44.703955602737786" lon="10.129238168973693"><ele>140.0</ele><time>2026-04-11T12:22:26.999Z</time></trkpt><trkpt lat="44.70383426934404" lon="10.128975227874724"><ele>140.0</ele><time>2026-04-11T12:22:27.999Z</time></trkpt><trkpt lat="44.70371891267727" lon="10.128718254095396"><ele>140.0</ele><time>2026-04-11T12:22:28.999Z</time></trkpt><trkpt lat="44.70360135132109" lon="10.128470547458345"><ele>140.66666666666666</ele><time>2026-04-11T12:22:29.999Z</time></trkpt><trkpt lat="44.703489804388916" lon="10.128236938883976"><ele>141.33333333333334</ele><time>2026-04-11T12:22:30.999Z</time></trkpt><trkpt lat="44.7033956941725" lon="10.128034893601322"><ele>142.0</ele><time>2026-04-11T12:22:31.999Z</time></trkpt><trkpt lat="44.70333544262472" lon="10.127839195993712"><ele>142.2</ele><time>2026-04-11T12:22:32.999Z</time></trkpt><trkpt lat="44.703271263789375" lon="10.127696195105834"><ele>142.39999999999998</ele><time>2026-04-11T12:22:33.999Z</time></trkpt><trkpt lat="44.70322265649295" lon="10.127587890040425"><ele>142.60000000000002</ele><time>2026-04-11T12:22:34.999Z</time></trkpt><trkpt lat="44.703172674283906" lon="10.127476877772706"><ele>142.8</ele><time>2026-04-11T12:22:36Z</time></trkpt><trkpt lat="44.70312372761429" lon="10.127368436897896"><ele>143.0</ele><time>2026-04-11T12:22:37Z</time></trkpt><trkpt lat="44.70307796963573" lon="10.127267060514487"><ele>143.0</ele><time>2026-04-11T12:22:38Z</time></trkpt><trkpt lat="44.70303601760387" lon="10.127174116120969"><ele>143.0</ele><time>2026-04-11T12:22:39Z</time></trkpt><trkpt lat="44.702995741492465" lon="10.127084884908538"><ele>143.0</ele><time>2026-04-11T12:22:40Z</time></trkpt><trkpt lat="44.70293891190308" lon="10.127001606041583"><ele>143.0</ele><time>2026-04-11T12:22:41Z</time></trkpt><trkpt lat="44.70290683742953" lon="10.126917627620985"><ele>143.0</ele><time>2026-04-11T12:22:42Z</time></trkpt><trkpt lat="44.70289489929529" lon="10.126817962863184"><ele>143.0</ele><time>2026-04-11T12:22:47Z</time></trkpt><trkpt lat="44.702888830137226" lon="10.126648566339709"><ele>143.16666666666666</ele><time>2026-04-11T12:22:50Z</time></trkpt><trkpt lat="44.702874149090405" lon="10.126536818146157"><ele>143.33333333333331</ele><time>2026-04-11T12:22:51Z</time></trkpt><trkpt lat="44.702837595328994" lon="10.12644515985889"><ele>143.5</ele><time>2026-04-11T12:22:52Z</time></trkpt><trkpt lat="44.70278117272569" lon="10.126375230939463"><ele>143.66666666666666</ele><time>2026-04-11T12:22:53Z</time></trkpt><trkpt lat="44.70268869984919" lon="10.12633280116546"><ele>143.83333333333334</ele><time>2026-04-11T12:22:54Z</time></trkpt><trkpt lat="44.70259368340266" lon="10.126293517601145"><ele>144.0</ele><time>2026-04-11T12:22:55Z</time></trkpt><trkpt lat="44.70255878130668" lon="10.126119750907026"><ele>144.25</ele><time>2026-04-11T12:22:56Z</time></trkpt><trkpt lat="44.70248872669772" lon="10.125971576337632"><ele>144.5</ele><time>2026-04-11T12:22:57Z</time></trkpt><trkpt lat="44.70241178039085" lon="10.125837018473923"><ele>144.75</ele><time>2026-04-11T12:22:58Z</time></trkpt><trkpt lat="44.7023418916645" lon="10.125684659484582"><ele>145.0</ele><time>2026-04-11T12:22:59Z</time></trkpt><trkpt lat="44.70227820824591" lon="10.125538134865161"><ele>144.6</ele><time>2026-04-11T12:23:00Z</time></trkpt><trkpt lat="44.7022225371733" lon="10.12540477768774"><ele>144.2</ele><time>2026-04-11T12:23:01Z</time></trkpt><trkpt lat="44.702160177939135" lon="10.125275172206933"><ele>143.8</ele><time>2026-04-11T12:23:02Z</time></trkpt><trkpt lat="44.70209867869107" lon="10.12515159344032"><ele>143.4</ele><time>2026-04-11T12:23:03Z</time></trkpt><trkpt lat="44.7020428327327" lon="10.125025502160982"><ele>143.0</ele><time>2026-04-11T12:23:04Z</time></trkpt><trkpt lat="44.70200475446541" lon="10.124939673542139"><ele>143.16666666666666</ele><time>2026-04-11T12:23:05Z</time></trkpt><trkpt lat="44.701971932863415" lon="10.124863761212048"><ele>143.33333333333331</ele><time>2026-04-11T12:23:07Z</time></trkpt><trkpt lat="44.70190981440735" lon="10.124735761328129"><ele>143.5</ele><time>2026-04-11T12:23:10Z</time></trkpt><trkpt lat="44.70188114005896" lon="10.124635342639577"><ele>143.66666666666666</ele><time>2026-04-11T12:23:11Z</time></trkpt><trkpt lat="44.70182551335904" lon="10.124527597884203"><ele>143.83333333333334</ele><time>2026-04-11T12:23:15Z</time></trkpt><trkpt lat="44.701788381661125" lon="10.124453410950435"><ele>144.0</ele><time>2026-04-11T12:23:16Z</time></trkpt><trkpt lat="44.7017380516733" lon="10.124353236047222"><ele>144.4</ele><time>2026-04-11T12:23:17Z</time></trkpt><trkpt lat="44.701693824933784" lon="10.124223789185486"><ele>144.8</ele><time>2026-04-11T12:23:18Z</time></trkpt><trkpt lat="44.7016381156619" lon="10.12410067656004"><ele>145.2</ele><time>2026-04-11T12:23:19Z</time></trkpt><trkpt lat="44.70158005531904" lon="10.123973111296529"><ele>145.6</ele><time>2026-04-11T12:23:20Z</time></trkpt><trkpt lat="44.7015283479614" lon="10.123859188580747"><ele>146.0</ele><time>2026-04-11T12:23:21Z</time></trkpt><trkpt lat="44.701471858957724" lon="10.123762310670076"><ele>146.0</ele><time>2026-04-11T12:23:22Z</time></trkpt><trkpt lat="44.701432348458276" lon="10.123658828571173"><ele>146.0</ele><time>2026-04-11T12:23:23Z</time></trkpt><trkpt lat="44.70139010565779" lon="10.123551111412992"><ele>146.0</ele><time>2026-04-11T12:23:24Z</time></trkpt><trkpt lat="44.70134866791601" lon="10.12344623884039"><ele>146.0</ele><time>2026-04-11T12:23:25Z</time></trkpt><trkpt lat="44.701308267011434" lon="10.123329926054586"><ele>146.0</ele><time>2026-04-11T12:23:26Z</time></trkpt><trkpt lat="44.701259462663025" lon="10.123214800155086"><ele>146.0</ele><time>2026-04-11T12:23:27Z</time></trkpt><trkpt lat="44.70122177517768" lon="10.123076745882061"><ele>145.0</ele><time>2026-04-11T12:23:28Z</time></trkpt><trkpt lat="44.70116814366748" lon="10.122937866917157"><ele>144.0</ele><time>2026-04-11T12:23:29Z</time></trkpt><trkpt lat="44.701108158385864" lon="10.122752182680795"><ele>143.0</ele><time>2026-04-11T12:23:30Z</time></trkpt><trkpt lat="44.70106576227183" lon="10.122533865483215"><ele>142.0</ele><time>2026-04-11T12:23:31Z</time></trkpt><trkpt lat="44.701005108296435" lon="10.122340165358542"><ele>140.0</ele><time>2026-04-11T12:23:32Z</time></trkpt><trkpt lat="44.700948848832056" lon="10.122130553943354"><ele>138.0</ele><time>2026-04-11T12:23:33Z</time></trkpt><trkpt lat="44.70091374084961" lon="10.121923734536567"><ele>136.0</ele><time>2026-04-11T12:23:34Z</time></trkpt><trkpt lat="44.70087701983149" lon="10.121709253215041"><ele>136.75</ele><time>2026-04-11T12:23:35Z</time></trkpt><trkpt lat="44.7008472217124" lon="10.1215160612568"><ele>137.5</ele><time>2026-04-11T12:23:36Z</time></trkpt><trkpt lat="44.70083258418809" lon="10.121322148778344"><ele>138.25</ele><time>2026-04-11T12:23:37Z</time></trkpt><trkpt lat="44.70082965617778" lon="10.121123214376176"><ele>139.0</ele><time>2026-04-11T12:23:38Z</time></trkpt><trkpt lat="44.70084451756615" lon="10.120933298012746"><ele>139.0</ele><time>2026-04-11T12:23:39Z</time></trkpt><trkpt lat="44.700866608255154" lon="10.120741868231406"><ele>139.0</ele><time>2026-04-11T12:23:40Z</time></trkpt><trkpt lat="44.70089557686632" lon="10.120556907397388"><ele>139.0</ele><time>2026-04-11T12:23:41Z</time></trkpt><trkpt lat="44.700927993668" lon="10.120371673447046"><ele>139.0</ele><time>2026-04-11T12:23:41.999Z</time></trkpt><trkpt lat="44.70096669633716" lon="10.12020038952493"><ele>138.75</ele><time>2026-04-11T12:23:42.999Z</time></trkpt><trkpt lat="44.70100919988241" lon="10.120024955079174"><ele>138.5</ele><time>2026-04-11T12:23:43.999Z</time></trkpt><trkpt lat="44.701056252310075" lon="10.119837644186193"><ele>138.25</ele><time>2026-04-11T12:23:44.999Z</time></trkpt><trkpt lat="44.7010898959611" lon="10.11963653565812"><ele>138.0</ele><time>2026-04-11T12:23:45.999Z</time></trkpt><trkpt lat="44.701100880989884" lon="10.11941667786357"><ele>138.0</ele><time>2026-04-11T12:23:46.999Z</time></trkpt><trkpt lat="44.70108653132652" lon="10.119198367046495"><ele>138.0</ele><time>2026-04-11T12:23:47.999Z</time></trkpt><trkpt lat="44.701071407707026" lon="10.118991102185566"><ele>138.0</ele><time>2026-04-11T12:23:48.999Z</time></trkpt><trkpt lat="44.70105525337167" lon="10.118798060270313"><ele>138.0</ele><time>2026-04-11T12:23:49.999Z</time></trkpt><trkpt lat="44.70103996025773" lon="10.118623370076296"><ele>140.25</ele><time>2026-04-11T12:23:50.999Z</time></trkpt><trkpt lat="44.70102706034026" lon="10.118455836786802"><ele>142.5</ele><time>2026-04-11T12:23:51.999Z</time></trkpt><trkpt lat="44.70102096463377" lon="10.11829155836276"><ele>144.75</ele><time>2026-04-11T12:23:52.999Z</time></trkpt><trkpt lat="44.701001375994046" lon="10.118130551839009"><ele>147.0</ele><time>2026-04-11T12:23:53.999Z</time></trkpt><trkpt lat="44.70099000562006" lon="10.11796817782695"><ele>147.0</ele><time>2026-04-11T12:23:54.999Z</time></trkpt><trkpt lat="44.70097520902524" lon="10.11779010688579"><ele>147.0</ele><time>2026-04-11T12:23:55.999Z</time></trkpt><trkpt lat="44.700956121555905" lon="10.117596696797083"><ele>147.0</ele><time>2026-04-11T12:23:56.999Z</time></trkpt><trkpt lat="44.700918353747554" lon="10.117401798783943"><ele>147.0</ele><time>2026-04-11T12:23:57.999Z</time></trkpt><trkpt lat="44.700873032659146" lon="10.117209513126987"><ele>146.75</ele><time>2026-04-11T12:23:58.999Z</time></trkpt><trkpt lat="44.700831783458575" lon="10.117030488155887"><ele>146.5</ele><time>2026-04-11T12:23:59.999Z</time></trkpt><trkpt lat="44.70078901197249" lon="10.116843090060998"><ele>146.25</ele><time>2026-04-11T12:24:00.999Z</time></trkpt><trkpt lat="44.70074770226055" lon="10.116647458677834"><ele>146.0</ele><time>2026-04-11T12:24:01.999Z</time></trkpt><trkpt lat="44.70070994094799" lon="10.116454992726709"><ele>145.5</ele><time>2026-04-11T12:24:02.999Z</time></trkpt><trkpt lat="44.70067908087988" lon="10.116263088212143"><ele>145.0</ele><time>2026-04-11T12:24:03.999Z</time></trkpt><trkpt lat="44.7006562229823" lon="10.116063796779395"><ele>144.5</ele><time>2026-04-11T12:24:04.999Z</time></trkpt><trkpt lat="44.700642807208645" lon="10.11586419981466"><ele>144.0</ele><time>2026-04-11T12:24:05.999Z</time></trkpt><trkpt lat="44.700628499477716" lon="10.115662136325021"><ele>143.5</ele><time>2026-04-11T12:24:06.999Z</time></trkpt><trkpt lat="44.70060280442957" lon="10.115470173641969"><ele>143.0</ele><time>2026-04-11T12:24:07.999Z</time></trkpt><trkpt lat="44.70056285071886" lon="10.115274625885913"><ele>142.5</ele><time>2026-04-11T12:24:08.999Z</time></trkpt><trkpt lat="44.70051268351618" lon="10.115072219112637"><ele>142.0</ele><time>2026-04-11T12:24:09.999Z</time></trkpt><trkpt lat="44.70046026208754" lon="10.114893550150514"><ele>141.25</ele><time>2026-04-11T12:24:10.999Z</time></trkpt><trkpt lat="44.70041026177938" lon="10.114721384292299"><ele>140.5</ele><time>2026-04-11T12:24:11.999Z</time></trkpt><trkpt lat="44.70036084412034" lon="10.11454101628178"><ele>139.75</ele><time>2026-04-11T12:24:12.999Z</time></trkpt><trkpt lat="44.700313130388956" lon="10.114347338571926"><ele>139.0</ele><time>2026-04-11T12:24:13.999Z</time></trkpt><trkpt lat="44.70026036715521" lon="10.114159541621525"><ele>139.5</ele><time>2026-04-11T12:24:14.999Z</time></trkpt><trkpt lat="44.70019472515005" lon="10.113976862976504"><ele>140.0</ele><time>2026-04-11T12:24:15.999Z</time></trkpt><trkpt lat="44.70011279073181" lon="10.113814108328569"><ele>140.5</ele><time>2026-04-11T12:24:16.999Z</time></trkpt><trkpt lat="44.70001854859856" lon="10.113665656476865"><ele>141.0</ele><time>2026-04-11T12:24:17.999Z</time></trkpt><trkpt lat="44.699920972644215" lon="10.113543318726832"><ele>141.0</ele><time>2026-04-11T12:24:18.999Z</time></trkpt><trkpt lat="44.69982104275762" lon="10.113440644397773"><ele>141.0</ele><time>2026-04-11T12:24:19.999Z</time></trkpt><trkpt lat="44.69970939608255" lon="10.113349097409685"><ele>141.0</ele><time>2026-04-11T12:24:20.999Z</time></trkpt><trkpt lat="44.699590625582346" lon="10.11326931440336"><ele>141.0</ele><time>2026-04-11T12:24:21.999Z</time></trkpt><trkpt lat="44.69946454339932" lon="10.113214857545033"><ele>140.0</ele><time>2026-04-11T12:24:22.999Z</time></trkpt><trkpt lat="44.6993301024959" lon="10.113174051802812"><ele>139.0</ele><time>2026-04-11T12:24:23.999Z</time></trkpt><trkpt lat="44.699179359682255" lon="10.113142380810153"><ele>138.0</ele><time>2026-04-11T12:24:24.999Z</time></trkpt><trkpt lat="44.699021734777126" lon="10.113114531024587"><ele>137.0</ele><time>2026-04-11T12:24:25.999Z</time></trkpt><trkpt lat="44.69883653412186" lon="10.113062678623745"><ele>137.0</ele><time>2026-04-11T12:24:26.999Z</time></trkpt><trkpt lat="44.698640758227526" lon="10.113025623003045"><ele>137.0</ele><time>2026-04-11T12:24:27.999Z</time></trkpt><trkpt lat="44.69843577847932" lon="10.112986825293856"><ele>137.0</ele><time>2026-04-11T12:24:28.999Z</time></trkpt><trkpt lat="44.69823234665085" lon="10.11294832060639"><ele>138.0</ele><time>2026-04-11T12:24:29.999Z</time></trkpt><trkpt lat="44.698033216410586" lon="10.112931517174419"><ele>139.0</ele><time>2026-04-11T12:24:30.999Z</time></trkpt><trkpt lat="44.69784738916827" lon="10.112892552040204"><ele>140.0</ele><time>2026-04-11T12:24:31.999Z</time></trkpt><trkpt lat="44.697670991179436" lon="10.112841260400382"><ele>141.33333333333331</ele><time>2026-04-11T12:24:32.999Z</time></trkpt><trkpt lat="44.69749933447121" lon="10.112808724680695"><ele>142.66666666666666</ele><time>2026-04-11T12:24:33.999Z</time></trkpt><trkpt lat="44.697328664758054" lon="10.112776261691934"><ele>144.0</ele><time>2026-04-11T12:24:34.999Z</time></trkpt><trkpt lat="44.69716318149518" lon="10.112760934346612"><ele>144.0</ele><time>2026-04-11T12:24:35.999Z</time></trkpt><trkpt lat="44.69700117395891" lon="10.11271209878032"><ele>144.0</ele><time>2026-04-11T12:24:36.999Z</time></trkpt><trkpt lat="44.69683971284597" lon="10.11264667692421"><ele>144.0</ele><time>2026-04-11T12:24:37.999Z</time></trkpt><trkpt lat="44.6966918469733" lon="10.1125538611174"><ele>142.0</ele><time>2026-04-11T12:24:38.999Z</time></trkpt><trkpt lat="44.69657155173623" lon="10.112399263463638"><ele>140.0</ele><time>2026-04-11T12:24:39.999Z</time></trkpt><trkpt lat="44.696452958039806" lon="10.112248203495863"><ele>138.0</ele><time>2026-04-11T12:24:40.999Z</time></trkpt><trkpt lat="44.69636143675425" lon="10.112099034780718"><ele>138.0</ele><time>2026-04-11T12:24:42Z</time></trkpt><trkpt lat="44.696275830013626" lon="10.111940847833338"><ele>138.0</ele><time>2026-04-11T12:24:43Z</time></trkpt><trkpt lat="44.69619285579267" lon="10.111783872095215"><ele>138.0</ele><time>2026-04-11T12:24:44Z</time></trkpt><trkpt lat="44.696117899353915" lon="10.111639694611798"><ele>138.0</ele><time>2026-04-11T12:24:45Z</time></trkpt><trkpt lat="44.6960487979541" lon="10.111506779209172"><ele>141.25</ele><time>2026-04-11T12:24:46Z</time></trkpt><trkpt lat="44.69597537289479" lon="10.111365544653207"><ele>144.5</ele><time>2026-04-11T12:24:47Z</time></trkpt><trkpt lat="44.69588615159623" lon="10.111194126792604"><ele>147.75</ele><time>2026-04-11T12:24:48Z</time></trkpt><trkpt lat="44.695787103092755" lon="10.111003692282754"><ele>151.0</ele><time>2026-04-11T12:24:49Z</time></trkpt><trkpt lat="44.695691772871506" lon="10.110806598833152"><ele>149.0</ele><time>2026-04-11T12:24:50Z</time></trkpt><trkpt lat="44.695601290035036" lon="10.110607121900047"><ele>147.0</ele><time>2026-04-11T12:24:51Z</time></trkpt><trkpt lat="44.69550962535311" lon="10.110441434950584"><ele>145.0</ele><time>2026-04-11T12:24:52Z</time></trkpt><trkpt lat="44.695443280504016" lon="10.110266317370268"><ele>145.0</ele><time>2026-04-11T12:24:53Z</time></trkpt><trkpt lat="44.69538241572183" lon="10.110108184308054"><ele>145.0</ele><time>2026-04-11T12:24:54Z</time></trkpt><trkpt lat="44.6953213587976" lon="10.109968566642387"><ele>145.0</ele><time>2026-04-11T12:24:55Z</time></trkpt><trkpt lat="44.69525818460473" lon="10.109850531981142"><ele>145.0</ele><time>2026-04-11T12:24:56Z</time></trkpt><trkpt lat="44.6952093077614" lon="10.109751921512492"><ele>145.0</ele><time>2026-04-11T12:24:57Z</time></trkpt><trkpt lat="44.69516614694279" lon="10.109662633496729"><ele>145.5</ele><time>2026-04-11T12:24:58Z</time></trkpt><trkpt lat="44.695094342187055" lon="10.109522527117445"><ele>146.0</ele><time>2026-04-11T12:25:00Z</time></trkpt><trkpt lat="44.695065201854234" lon="10.109430847236561"><ele>146.5</ele><time>2026-04-11T12:25:01Z</time></trkpt><trkpt lat="44.695023979224295" lon="10.109357511793343"><ele>147.0</ele><time>2026-04-11T12:25:02Z</time></trkpt><trkpt lat="44.69497292619976" lon="10.109270742235067"><ele>147.5</ele><time>2026-04-11T12:25:04Z</time></trkpt><trkpt lat="44.694907471986035" lon="10.109170217787913"><ele>148.0</ele><time>2026-04-11T12:25:07Z</time></trkpt><trkpt lat="44.69482581710189" lon="10.109061599274268"><ele>148.0</ele><time>2026-04-11T12:25:09Z</time></trkpt><trkpt lat="44.69479919778016" lon="10.108956066155768"><ele>148.0</ele><time>2026-04-11T12:25:10Z</time></trkpt><trkpt lat="44.69477652300409" lon="10.108856976945026"><ele>148.0</ele><time>2026-04-11T12:25:11Z</time></trkpt><trkpt lat="44.69473285800379" lon="10.108770437422521"><ele>148.0</ele><time>2026-04-11T12:25:12Z</time></trkpt><trkpt lat="44.694655504251145" lon="10.108712919124088"><ele>148.0</ele><time>2026-04-11T12:25:13Z</time></trkpt><trkpt lat="44.69455427523442" lon="10.108732979062104"><ele>148.0</ele><time>2026-04-11T12:25:14Z</time></trkpt><trkpt lat="44.69448183803965" lon="10.108755620734268"><ele>151.25</ele><time>2026-04-11T12:25:15Z</time></trkpt><trkpt lat="44.69439780506293" lon="10.10869801644921"><ele>154.5</ele><time>2026-04-11T12:25:16Z</time></trkpt><trkpt lat="44.69432623363103" lon="10.108561598464735"><ele>157.75</ele><time>2026-04-11T12:25:17Z</time></trkpt><trkpt lat="44.69427289616257" lon="10.108367952673342"><ele>161.0</ele><time>2026-04-11T12:25:18Z</time></trkpt><trkpt lat="44.69421635423603" lon="10.108172459710538"><ele>161.0</ele><time>2026-04-11T12:25:19Z</time></trkpt><trkpt lat="44.694165268500946" lon="10.107987650125711"><ele>161.0</ele><time>2026-04-11T12:25:20Z</time></trkpt><trkpt lat="44.69411678915978" lon="10.10780275094004"><ele>161.0</ele><time>2026-04-11T12:25:21Z</time></trkpt><trkpt lat="44.69406710784804" lon="10.10760827621663"><ele>161.0</ele><time>2026-04-11T12:25:22Z</time></trkpt><trkpt lat="44.69401321956359" lon="10.107398842161395"><ele>160.0</ele><time>2026-04-11T12:25:23Z</time></trkpt><trkpt lat="44.693964890036675" lon="10.10718202206064"><ele>159.0</ele><time>2026-04-11T12:25:24Z</time></trkpt><trkpt lat="44.69390921878528" lon="10.106969832833427"><ele>158.0</ele><time>2026-04-11T12:25:25Z</time></trkpt><trkpt lat="44.69384584775353" lon="10.106754126479817"><ele>157.33333333333331</ele><time>2026-04-11T12:25:26Z</time></trkpt><trkpt lat="44.69377829616616" lon="10.106550520008149"><ele>156.66666666666666</ele><time>2026-04-11T12:25:27Z</time></trkpt><trkpt lat="44.69370329894698" lon="10.106357547339742"><ele>156.0</ele><time>2026-04-11T12:25:28Z</time></trkpt><trkpt lat="44.693624876141534" lon="10.106163708376542"><ele>156.0</ele><time>2026-04-11T12:25:29Z</time></trkpt><trkpt lat="44.69354737067497" lon="10.10597830879715"><ele>156.0</ele><time>2026-04-11T12:25:30Z</time></trkpt><trkpt lat="44.69347762735042" lon="10.105814409982388"><ele>156.0</ele><time>2026-04-11T12:25:31Z</time></trkpt><trkpt lat="44.69340905730415" lon="10.105656345017525"><ele>156.0</ele><time>2026-04-11T12:25:32Z</time></trkpt><trkpt lat="44.69334299825193" lon="10.105498293670001"><ele>156.0</ele><time>2026-04-11T12:25:33Z</time></trkpt><trkpt lat="44.69326802400192" lon="10.105321479084227"><ele>156.0</ele><time>2026-04-11T12:25:34Z</time></trkpt><trkpt lat="44.69319117469458" lon="10.105141498095135"><ele>156.0</ele><time>2026-04-11T12:25:35Z</time></trkpt><trkpt lat="44.69311635108044" lon="10.104962142193166"><ele>156.0</ele><time>2026-04-11T12:25:36Z</time></trkpt><trkpt lat="44.69303558914665" lon="10.104791350505415"><ele>157.0</ele><time>2026-04-11T12:25:37Z</time></trkpt><trkpt lat="44.69294745522567" lon="10.10461301800832"><ele>158.0</ele><time>2026-04-11T12:25:38Z</time></trkpt><trkpt lat="44.69284938180862" lon="10.104442015148074"><ele>159.0</ele><time>2026-04-11T12:25:39Z</time></trkpt><trkpt lat="44.69274130471642" lon="10.104280605037129"><ele>159.0</ele><time>2026-04-11T12:25:40Z</time></trkpt><trkpt lat="44.69263574044762" lon="10.104119483143768"><ele>159.0</ele><time>2026-04-11T12:25:41Z</time></trkpt><trkpt lat="44.69253404229667" lon="10.103966255018936"><ele>159.0</ele><time>2026-04-11T12:25:42Z</time></trkpt><trkpt lat="44.69242913591478" lon="10.10381152507173"><ele>157.5</ele><time>2026-04-11T12:25:43Z</time></trkpt><trkpt lat="44.69232854126511" lon="10.103655967317497"><ele>156.0</ele><time>2026-04-11T12:25:44Z</time></trkpt><trkpt lat="44.69224093915857" lon="10.103514867476346"><ele>154.5</ele><time>2026-04-11T12:25:45Z</time></trkpt><trkpt lat="44.69214706715216" lon="10.103361468127499"><ele>153.0</ele><time>2026-04-11T12:25:46Z</time></trkpt><trkpt lat="44.692057091570994" lon="10.103212692315754"><ele>151.5</ele><time>2026-04-11T12:25:47Z</time></trkpt><trkpt lat="44.691972243702544" lon="10.103075245547272"><ele>150.0</ele><time>2026-04-11T12:25:48Z</time></trkpt><trkpt lat="44.69188665133096" lon="10.102935530334607"><ele>148.5</ele><time>2026-04-11T12:25:49Z</time></trkpt><trkpt lat="44.691809088185146" lon="10.102808142117071"><ele>147.0</ele><time>2026-04-11T12:25:50Z</time></trkpt><trkpt lat="44.691732905441604" lon="10.102688364956547"><ele>148.5</ele><time>2026-04-11T12:25:50.999Z</time></trkpt><trkpt lat="44.6916583507775" lon="10.10256206552087"><ele>150.0</ele><time>2026-04-11T12:25:51.999Z</time></trkpt><trkpt lat="44.69157884027138" lon="10.102434195786735"><ele>151.5</ele><time>2026-04-11T12:25:52.999Z</time></trkpt><trkpt lat="44.69150371489479" lon="10.10232039706429"><ele>153.0</ele><time>2026-04-11T12:25:53.999Z</time></trkpt><trkpt lat="44.6914329009708" lon="10.102204389673188"><ele>153.0</ele><time>2026-04-11T12:25:54.999Z</time></trkpt><trkpt lat="44.691367836137566" lon="10.102082684181818"><ele>153.0</ele><time>2026-04-11T12:25:55.999Z</time></trkpt><trkpt lat="44.69130078486044" lon="10.101991184393473"><ele>153.0</ele><time>2026-04-11T12:25:56.999Z</time></trkpt><trkpt lat="44.69123511796854" lon="10.10188621823969"><ele>153.0</ele><time>2026-04-11T12:25:57.999Z</time></trkpt><trkpt lat="44.69117658375943" lon="10.101770294642117"><ele>153.0</ele><time>2026-04-11T12:25:58.999Z</time></trkpt><trkpt lat="44.69112908349722" lon="10.101690565029541"><ele>154.60000000000002</ele><time>2026-04-11T12:25:59.999Z</time></trkpt><trkpt lat="44.69106891924552" lon="10.101591878333123"><ele>156.20000000000002</ele><time>2026-04-11T12:26:00.999Z</time></trkpt><trkpt lat="44.69100714174593" lon="10.101492689701775"><ele>157.8</ele><time>2026-04-11T12:26:01.999Z</time></trkpt><trkpt lat="44.69094584728371" lon="10.10139735554099"><ele>159.4</ele><time>2026-04-11T12:26:02.999Z</time></trkpt><trkpt lat="44.69089603633432" lon="10.101282351355762"><ele>161.0</ele><time>2026-04-11T12:26:03.999Z</time></trkpt><trkpt lat="44.6908470665302" lon="10.101174481178127"><ele>161.0</ele><time>2026-04-11T12:26:04.999Z</time></trkpt><trkpt lat="44.69080955190691" lon="10.101046253507597"><ele>161.0</ele><time>2026-04-11T12:26:05.999Z</time></trkpt><trkpt lat="44.6907798475922" lon="10.100930327518965"><ele>161.0</ele><time>2026-04-11T12:26:06.999Z</time></trkpt><trkpt lat="44.6907563894211" lon="10.100822849047796"><ele>161.0</ele><time>2026-04-11T12:26:07.999Z</time></trkpt><trkpt lat="44.6907349135813" lon="10.100714262231513"><ele>161.0</ele><time>2026-04-11T12:26:08.999Z</time></trkpt><trkpt lat="44.69071568983694" lon="10.10060927654173"><ele>161.0</ele><time>2026-04-11T12:26:09.999Z</time></trkpt><trkpt lat="44.69069338448395" lon="10.100521455048852"><ele>160.4</ele><time>2026-04-11T12:26:10.999Z</time></trkpt><trkpt lat="44.690670995792296" lon="10.10040831320365"><ele>159.8</ele><time>2026-04-11T12:26:11.999Z</time></trkpt><trkpt lat="44.690650166988334" lon="10.10029675558336"><ele>159.20000000000002</ele><time>2026-04-11T12:26:12.999Z</time></trkpt><trkpt lat="44.6906241722735" lon="10.100167102605734"><ele>158.60000000000002</ele><time>2026-04-11T12:26:13.999Z</time></trkpt><trkpt lat="44.69059172728794" lon="10.100045632195204"><ele>158.0</ele><time>2026-04-11T12:26:14.999Z</time></trkpt><trkpt lat="44.690562831910626" lon="10.099904590606588"><ele>157.4</ele><time>2026-04-11T12:26:15.999Z</time></trkpt><trkpt lat="44.690499286748555" lon="10.09972427993281"><ele>156.8</ele><time>2026-04-11T12:26:17.999Z</time></trkpt><trkpt lat="44.6904764217829" lon="10.09959421114755"><ele>156.2</ele><time>2026-04-11T12:26:18.999Z</time></trkpt><trkpt lat="44.6904509903984" lon="10.099488524863906"><ele>155.6</ele><time>2026-04-11T12:26:19.999Z</time></trkpt><trkpt lat="44.69043133758205" lon="10.099395689313784"><ele>155.0</ele><time>2026-04-11T12:26:20.999Z</time></trkpt><trkpt lat="44.69040587981754" lon="10.09928295948493"><ele>155.0</ele><time>2026-04-11T12:26:22.999Z</time></trkpt><trkpt lat="44.69037581787163" lon="10.09912877537556"><ele>155.0</ele><time>2026-04-11T12:26:24.999Z</time></trkpt><trkpt lat="44.690347419217765" lon="10.099021900059952"><ele>155.0</ele><time>2026-04-11T12:26:25.999Z</time></trkpt><trkpt lat="44.69032660361657" lon="10.098895790748301"><ele>155.0</ele><time>2026-04-11T12:26:26.999Z</time></trkpt><trkpt lat="44.690294495711136" lon="10.098753934653773"><ele>155.0</ele><time>2026-04-11T12:26:27.999Z</time></trkpt><trkpt lat="44.69025484569597" lon="10.09860962511697"><ele>155.0</ele><time>2026-04-11T12:26:28.999Z</time></trkpt><trkpt lat="44.69021996975162" lon="10.098487752658274"><ele>155.0</ele><time>2026-04-11T12:26:29.999Z</time></trkpt><trkpt lat="44.69018265788315" lon="10.098340809797852"><ele>155.0</ele><time>2026-04-11T12:26:30.999Z</time></trkpt><trkpt lat="44.690138338555364" lon="10.098195923837464"><ele>155.0</ele><time>2026-04-11T12:26:31.999Z</time></trkpt><trkpt lat="44.6900809691704" lon="10.098060007602847"><ele>155.0</ele><time>2026-04-11T12:26:32.999Z</time></trkpt><trkpt lat="44.69001639152956" lon="10.097934060762768"><ele>155.0</ele><time>2026-04-11T12:26:33.999Z</time></trkpt><trkpt lat="44.68993993774547" lon="10.09780920737385"><ele>155.0</ele><time>2026-04-11T12:26:34.999Z</time></trkpt><trkpt lat="44.68984576968904" lon="10.097696843842009"><ele>155.0</ele><time>2026-04-11T12:26:35.999Z</time></trkpt><trkpt lat="44.68974145964586" lon="10.097604647529462"><ele>155.0</ele><time>2026-04-11T12:26:36.999Z</time></trkpt><trkpt lat="44.68962256465449" lon="10.09752248063047"><ele>155.0</ele><time>2026-04-11T12:26:37.999Z</time></trkpt><trkpt lat="44.68949265064476" lon="10.09745507253782"><ele>155.0</ele><time>2026-04-11T12:26:38.999Z</time></trkpt><trkpt lat="44.68934711242469" lon="10.097435154652675"><ele>155.0</ele><time>2026-04-11T12:26:39.999Z</time></trkpt><trkpt lat="44.68920235932341" lon="10.09740615961521"><ele>155.0</ele><time>2026-04-11T12:26:40.999Z</time></trkpt><trkpt lat="44.68906086760203" lon="10.097368172990272"><ele>150.33333333333331</ele><time>2026-04-11T12:26:41.999Z</time></trkpt><trkpt lat="44.68891516604554" lon="10.097330874298697"><ele>145.66666666666666</ele><time>2026-04-11T12:26:42.999Z</time></trkpt><trkpt lat="44.68876539070121" lon="10.097297063019628"><ele>141.0</ele><time>2026-04-11T12:26:43.999Z</time></trkpt><trkpt lat="44.688615865299894" lon="10.097264646563772"><ele>141.0</ele><time>2026-04-11T12:26:44.999Z</time></trkpt><trkpt lat="44.68846416898353" lon="10.097233893878535"><ele>141.0</ele><time>2026-04-11T12:26:45.999Z</time></trkpt><trkpt lat="44.688315700833535" lon="10.097191215212447"><ele>141.0</ele><time>2026-04-11T12:26:46.999Z</time></trkpt><trkpt lat="44.68816425582318" lon="10.097165719022025"><ele>141.0</ele><time>2026-04-11T12:26:48Z</time></trkpt><trkpt lat="44.68802839399725" lon="10.097138084273588"><ele>141.0</ele><time>2026-04-11T12:26:49Z</time></trkpt><trkpt lat="44.687896067871016" lon="10.097111976361328"><ele>141.0</ele><time>2026-04-11T12:26:50Z</time></trkpt><trkpt lat="44.687769771194375" lon="10.097085060303673"><ele>141.0</ele><time>2026-04-11T12:26:51Z</time></trkpt><trkpt lat="44.68765113561597" lon="10.097049213992333"><ele>141.25</ele><time>2026-04-11T12:26:52Z</time></trkpt><trkpt lat="44.68753855899227" lon="10.097018295069747"><ele>141.5</ele><time>2026-04-11T12:26:53Z</time></trkpt><trkpt lat="44.687433084683214" lon="10.096999017463649"><ele>141.75</ele><time>2026-04-11T12:26:54Z</time></trkpt><trkpt lat="44.687330367789826" lon="10.096981525671744"><ele>142.0</ele><time>2026-04-11T12:26:55Z</time></trkpt><trkpt lat="44.68719751898735" lon="10.096949271044549"><ele>142.0</ele><time>2026-04-11T12:26:56Z</time></trkpt><trkpt lat="44.68704521517355" lon="10.09691739879439"><ele>142.0</ele><time>2026-04-11T12:26:57Z</time></trkpt><trkpt lat="44.68688849698213" lon="10.096884034553113"><ele>142.0</ele><time>2026-04-11T12:26:58Z</time></trkpt><trkpt lat="44.68672479135317" lon="10.096845665535282"><ele>143.0</ele><time>2026-04-11T12:26:59Z</time></trkpt><trkpt lat="44.686547375887805" lon="10.096808291081887"><ele>144.0</ele><time>2026-04-11T12:27:00Z</time></trkpt><trkpt lat="44.686359302096925" lon="10.09676536631537"><ele>145.0</ele><time>2026-04-11T12:27:01Z</time></trkpt><trkpt lat="44.68619167870319" lon="10.096726656211052"><ele>146.0</ele><time>2026-04-11T12:27:02Z</time></trkpt><trkpt lat="44.68601921663913" lon="10.096696368888786"><ele>147.0</ele><time>2026-04-11T12:27:03Z</time></trkpt><trkpt lat="44.68585818688013" lon="10.096652713620289"><ele>148.0</ele><time>2026-04-11T12:27:04Z</time></trkpt><trkpt lat="44.685684372478676" lon="10.096611093896636"><ele>147.0</ele><time>2026-04-11T12:27:05Z</time></trkpt><trkpt lat="44.68550916363828" lon="10.09657499021783"><ele>146.0</ele><time>2026-04-11T12:27:06Z</time></trkpt><trkpt lat="44.685333266913915" lon="10.096538748011492"><ele>145.0</ele><time>2026-04-11T12:27:07Z</time></trkpt><trkpt lat="44.68515659529362" lon="10.096503185699605"><ele>145.0</ele><time>2026-04-11T12:27:08Z</time></trkpt><trkpt lat="44.68497704763318" lon="10.096467231954291"><ele>145.0</ele><time>2026-04-11T12:27:09Z</time></trkpt><trkpt lat="44.684799399849645" lon="10.09642574221816"><ele>145.0</ele><time>2026-04-11T12:27:10Z</time></trkpt><trkpt lat="44.684632978527894" lon="10.096386264496118"><ele>145.0</ele><time>2026-04-11T12:27:11Z</time></trkpt><trkpt lat="44.68448182437771" lon="10.09634700094148"><ele>145.0</ele><time>2026-04-11T12:27:12Z</time></trkpt><trkpt lat="44.68433527469532" lon="10.096314911541512"><ele>145.0</ele><time>2026-04-11T12:27:13Z</time></trkpt><trkpt lat="44.684177988313266" lon="10.096280185175733"><ele>145.33333333333334</ele><time>2026-04-11T12:27:14Z</time></trkpt><trkpt lat="44.6840163158004" lon="10.096246933566087"><ele>145.66666666666666</ele><time>2026-04-11T12:27:15Z</time></trkpt><trkpt lat="44.683853452198804" lon="10.09620994607521"><ele>146.0</ele><time>2026-04-11T12:27:16Z</time></trkpt><trkpt lat="44.68369373694399" lon="10.09617160923666"><ele>146.0</ele><time>2026-04-11T12:27:17Z</time></trkpt><trkpt lat="44.68353878752087" lon="10.096132459356777"><ele>146.0</ele><time>2026-04-11T12:27:18Z</time></trkpt><trkpt lat="44.68338761341694" lon="10.096100380737818"><ele>146.0</ele><time>2026-04-11T12:27:19Z</time></trkpt><trkpt lat="44.68323477684912" lon="10.096065423021248"><ele>146.0</ele><time>2026-04-11T12:27:20Z</time></trkpt><trkpt lat="44.683084661944214" lon="10.096029026650625"><ele>146.0</ele><time>2026-04-11T12:27:21Z</time></trkpt><trkpt lat="44.68293677968325" lon="10.09599682947367"><ele>146.0</ele><time>2026-04-11T12:27:22Z</time></trkpt><trkpt lat="44.682786391086495" lon="10.095969809470192"><ele>147.0</ele><time>2026-04-11T12:27:23Z</time></trkpt><trkpt lat="44.682634889036834" lon="10.095940872140035"><ele>148.0</ele><time>2026-04-11T12:27:24Z</time></trkpt><trkpt lat="44.6824854616178" lon="10.09590788231617"><ele>149.0</ele><time>2026-04-11T12:27:25Z</time></trkpt><trkpt lat="44.682340323076836" lon="10.095864965165159"><ele>149.0</ele><time>2026-04-11T12:27:26Z</time></trkpt><trkpt lat="44.68219594544017" lon="10.095825369860517"><ele>149.0</ele><time>2026-04-11T12:27:27Z</time></trkpt><trkpt lat="44.68205799080605" lon="10.095789305726836"><ele>149.0</ele><time>2026-04-11T12:27:28Z</time></trkpt><trkpt lat="44.68192133439075" lon="10.095750005258628"><ele>149.0</ele><time>2026-04-11T12:27:29Z</time></trkpt><trkpt lat="44.68177886302399" lon="10.09571071056929"><ele>148.25</ele><time>2026-04-11T12:27:30Z</time></trkpt><trkpt lat="44.68164172292664" lon="10.095668603721379"><ele>147.5</ele><time>2026-04-11T12:27:31Z</time></trkpt><trkpt lat="44.681503133825316" lon="10.09563322690195"><ele>146.75</ele><time>2026-04-11T12:27:32Z</time></trkpt><trkpt lat="44.681364425650955" lon="10.095592247374677"><ele>146.0</ele><time>2026-04-11T12:27:33Z</time></trkpt><trkpt lat="44.68122383145221" lon="10.095510468988826"><ele>145.75</ele><time>2026-04-11T12:27:34Z</time></trkpt><trkpt lat="44.681074101522206" lon="10.09546095596944"><ele>145.5</ele><time>2026-04-11T12:27:35Z</time></trkpt><trkpt lat="44.680939129190335" lon="10.09539038112338"><ele>145.25</ele><time>2026-04-11T12:27:36Z</time></trkpt><trkpt lat="44.680803722812335" lon="10.095318022758217"><ele>145.0</ele><time>2026-04-11T12:27:37Z</time></trkpt><trkpt lat="44.68066612182411" lon="10.095243174190369"><ele>145.0</ele><time>2026-04-11T12:27:38Z</time></trkpt><trkpt lat="44.68053025324131" lon="10.095168236408389"><ele>145.0</ele><time>2026-04-11T12:27:39Z</time></trkpt><trkpt lat="44.680400773179045" lon="10.095098771388663"><ele>145.0</ele><time>2026-04-11T12:27:40Z</time></trkpt><trkpt lat="44.680272292224444" lon="10.095030282170578"><ele>145.0</ele><time>2026-04-11T12:27:41Z</time></trkpt><trkpt lat="44.68014425677466" lon="10.0949601487543"><ele>145.75</ele><time>2026-04-11T12:27:42Z</time></trkpt><trkpt lat="44.6800210512494" lon="10.094890735792811"><ele>146.5</ele><time>2026-04-11T12:27:43Z</time></trkpt><trkpt lat="44.679896673676744" lon="10.094816265128925"><ele>147.25</ele><time>2026-04-11T12:27:44Z</time></trkpt><trkpt lat="44.67978388420215" lon="10.094746666225204"><ele>148.0</ele><time>2026-04-11T12:27:45Z</time></trkpt><trkpt lat="44.679697374197076" lon="10.0946874052377"><ele>148.0</ele><time>2026-04-11T12:27:46Z</time></trkpt><trkpt lat="44.679627417687314" lon="10.094628312143257"><ele>148.0</ele><time>2026-04-11T12:27:47Z</time></trkpt><trkpt lat="44.67956274421137" lon="10.094573807406817"><ele>148.0</ele><time>2026-04-11T12:27:48Z</time></trkpt><trkpt lat="44.67950377222719" lon="10.094534917181273"><ele>148.0</ele><time>2026-04-11T12:27:49Z</time></trkpt><trkpt lat="44.67940103715498" lon="10.094437526031477"><ele>148.0</ele><time>2026-04-11T12:27:51Z</time></trkpt><trkpt lat="44.67932989955814" lon="10.09429751672994"><ele>148.0</ele><time>2026-04-11T12:27:53Z</time></trkpt><trkpt lat="44.6792782518128" lon="10.094219969737068"><ele>148.0</ele><time>2026-04-11T12:27:54Z</time></trkpt><trkpt lat="44.679201371295704" lon="10.094158543041825"><ele>148.0</ele><time>2026-04-11T12:27:54.999Z</time></trkpt><trkpt lat="44.67911055865748" lon="10.09415607161872"><ele>148.0</ele><time>2026-04-11T12:27:55.999Z</time></trkpt><trkpt lat="44.67903516086439" lon="10.094233823074921"><ele>148.0</ele><time>2026-04-11T12:27:56.999Z</time></trkpt><trkpt lat="44.67899431239107" lon="10.094354547493264"><ele>148.0</ele><time>2026-04-11T12:27:57.999Z</time></trkpt><trkpt lat="44.678946990098304" lon="10.094465059773343"><ele>148.0</ele><time>2026-04-11T12:27:58.999Z</time></trkpt><trkpt lat="44.678842419884305" lon="10.094534748152666"><ele>148.0</ele><time>2026-04-11T12:27:59.999Z</time></trkpt><trkpt lat="44.67871396737316" lon="10.094580818728817"><ele>148.0</ele><time>2026-04-11T12:28:00.999Z</time></trkpt><trkpt lat="44.67858307319552" lon="10.094654538824079"><ele>148.0</ele><time>2026-04-11T12:28:01.999Z</time></trkpt><trkpt lat="44.67847279545503" lon="10.094730064373097"><ele>148.0</ele><time>2026-04-11T12:28:02.999Z</time></trkpt><trkpt lat="44.678367516386054" lon="10.094789291961506"><ele>148.0</ele><time>2026-04-11T12:28:03.999Z</time></trkpt><trkpt lat="44.678253575205055" lon="10.094846497864578"><ele>148.0</ele><time>2026-04-11T12:28:04.999Z</time></trkpt><trkpt lat="44.678136400567624" lon="10.094904987807837"><ele>148.0</ele><time>2026-04-11T12:28:05.999Z</time></trkpt><trkpt lat="44.67802466433863" lon="10.0949640363386"><ele>148.4</ele><time>2026-04-11T12:28:06.999Z</time></trkpt><trkpt lat="44.677925335184455" lon="10.095019012204737"><ele>148.8</ele><time>2026-04-11T12:28:07.999Z</time></trkpt><trkpt lat="44.67783077894361" lon="10.0950655078425"><ele>149.2</ele><time>2026-04-11T12:28:08.999Z</time></trkpt><trkpt lat="44.67772450835771" lon="10.095122238125436"><ele>149.6</ele><time>2026-04-11T12:28:09.999Z</time></trkpt><trkpt lat="44.67762288048521" lon="10.095174154305388"><ele>150.0</ele><time>2026-04-11T12:28:10.999Z</time></trkpt><trkpt lat="44.67752273707727" lon="10.095230127635606"><ele>150.6</ele><time>2026-04-11T12:28:11.999Z</time></trkpt><trkpt lat="44.677426651520655" lon="10.09528039225588"><ele>151.2</ele><time>2026-04-11T12:28:12.999Z</time></trkpt><trkpt lat="44.677337191327226" lon="10.095326106328503"><ele>151.8</ele><time>2026-04-11T12:28:13.999Z</time></trkpt><trkpt lat="44.67724525211592" lon="10.095372144424491"><ele>152.4</ele><time>2026-04-11T12:28:14.999Z</time></trkpt><trkpt lat="44.67713992408372" lon="10.095428210529533"><ele>153.0</ele><time>2026-04-11T12:28:15.999Z</time></trkpt><trkpt lat="44.67704129553536" lon="10.095480397219184"><ele>153.0</ele><time>2026-04-11T12:28:16.999Z</time></trkpt><trkpt lat="44.67694268950129" lon="10.095535615255592"><ele>153.0</ele><time>2026-04-11T12:28:17.999Z</time></trkpt><trkpt lat="44.67684481740339" lon="10.095588165478967"><ele>153.0</ele><time>2026-04-11T12:28:18.999Z</time></trkpt><trkpt lat="44.67675800389534" lon="10.095629454138074"><ele>153.0</ele><time>2026-04-11T12:28:19.999Z</time></trkpt><trkpt lat="44.676682463825195" lon="10.09565958972744"><ele>153.0</ele><time>2026-04-11T12:28:20.999Z</time></trkpt><trkpt lat="44.676573756984176" lon="10.095673926161654"><ele>153.20000000000002</ele><time>2026-04-11T12:28:22.999Z</time></trkpt><trkpt lat="44.676504315649616" lon="10.095689170775156"><ele>153.4</ele><time>2026-04-11T12:28:24.999Z</time></trkpt><trkpt lat="44.67644152751816" lon="10.095741616939955"><ele>153.60000000000002</ele><time>2026-04-11T12:29:34Z</time></trkpt><trkpt lat="44.67635956859019" lon="10.095832982963403"><ele>153.8</ele><time>2026-04-11T12:29:36Z</time></trkpt><trkpt lat="44.67626038741288" lon="10.095888181875686"><ele>154.0</ele><time>2026-04-11T12:29:37Z</time></trkpt><trkpt lat="44.676165380479475" lon="10.095934006060007"><ele>154.75</ele><time>2026-04-11T12:29:38Z</time></trkpt><trkpt lat="44.67604530890946" lon="10.095993154210515"><ele>155.5</ele><time>2026-04-11T12:29:39Z</time></trkpt><trkpt lat="44.67590300609972" lon="10.096070878746811"><ele>156.25</ele><time>2026-04-11T12:29:40Z</time></trkpt><trkpt lat="44.675768066750926" lon="10.09613734731336"><ele>157.0</ele><time>2026-04-11T12:29:41Z</time></trkpt><trkpt lat="44.675630419269375" lon="10.096206207141"><ele>157.0</ele><time>2026-04-11T12:29:42Z</time></trkpt><trkpt lat="44.67549629406112" lon="10.096265750262251"><ele>157.0</ele><time>2026-04-11T12:29:43Z</time></trkpt><trkpt lat="44.67536556007665" lon="10.096343093249859"><ele>157.0</ele><time>2026-04-11T12:29:44Z</time></trkpt><trkpt lat="44.67522156508421" lon="10.096409129485284"><ele>157.0</ele><time>2026-04-11T12:29:45Z</time></trkpt><trkpt lat="44.67507788963672" lon="10.09648404753363"><ele>156.66666666666669</ele><time>2026-04-11T12:29:46Z</time></trkpt><trkpt lat="44.67492404621254" lon="10.09656946597639"><ele>156.33333333333334</ele><time>2026-04-11T12:29:47Z</time></trkpt><trkpt lat="44.6747666547729" lon="10.09665630249907"><ele>156.0</ele><time>2026-04-11T12:29:48Z</time></trkpt><trkpt lat="44.67459759656187" lon="10.09673936643399"><ele>157.33333333333334</ele><time>2026-04-11T12:29:49Z</time></trkpt><trkpt lat="44.67442638668288" lon="10.096834180336655"><ele>158.66666666666669</ele><time>2026-04-11T12:29:50Z</time></trkpt><trkpt lat="44.67424134913323" lon="10.096937035166711"><ele>160.0</ele><time>2026-04-11T12:29:51Z</time></trkpt><trkpt lat="44.67403615647921" lon="10.09704844875827"><ele>160.0</ele><time>2026-04-11T12:29:52Z</time></trkpt><trkpt lat="44.6738251826927" lon="10.097156931834693"><ele>160.0</ele><time>2026-04-11T12:29:53Z</time></trkpt><trkpt lat="44.673622046312076" lon="10.097259023004444"><ele>160.0</ele><time>2026-04-11T12:29:54Z</time></trkpt><trkpt lat="44.673445738260014" lon="10.097350199098386"><ele>160.0</ele><time>2026-04-11T12:29:55Z</time></trkpt><trkpt lat="44.6732603316604" lon="10.09744644106262"><ele>160.0</ele><time>2026-04-11T12:29:56Z</time></trkpt><trkpt lat="44.67308154024626" lon="10.097543018220158"><ele>160.0</ele><time>2026-04-11T12:29:57Z</time></trkpt><trkpt lat="44.67290556173308" lon="10.09761056228184"><ele>162.33333333333334</ele><time>2026-04-11T12:29:58Z</time></trkpt><trkpt lat="44.67272893944651" lon="10.097724054164816"><ele>164.66666666666666</ele><time>2026-04-11T12:29:59Z</time></trkpt><trkpt lat="44.672572552405704" lon="10.097796394714212"><ele>167.0</ele><time>2026-04-11T12:30:00Z</time></trkpt><trkpt lat="44.67244421540011" lon="10.097815133762426"><ele>167.0</ele><time>2026-04-11T12:30:01Z</time></trkpt><trkpt lat="44.672338105277404" lon="10.097833286195605"><ele>167.0</ele><time>2026-04-11T12:30:01.999Z</time></trkpt><trkpt lat="44.67224365791188" lon="10.097759642078818"><ele>167.0</ele><time>2026-04-11T12:30:02.999Z</time></trkpt><trkpt lat="44.67220045365003" lon="10.097585072178394"><ele>167.0</ele><time>2026-04-11T12:30:03.999Z</time></trkpt><trkpt lat="44.67219382131422" lon="10.097388341263791"><ele>168.0</ele><time>2026-04-11T12:30:04.999Z</time></trkpt><trkpt lat="44.6721720788065" lon="10.097138048462543"><ele>169.0</ele><time>2026-04-11T12:30:05.999Z</time></trkpt><trkpt lat="44.67214967978246" lon="10.09687131063244"><ele>170.0</ele><time>2026-04-11T12:30:06.999Z</time></trkpt><trkpt lat="44.67208497535409" lon="10.096624627061658"><ele>172.0</ele><time>2026-04-11T12:30:07.999Z</time></trkpt><trkpt lat="44.67196233371621" lon="10.096415809849887"><ele>174.0</ele><time>2026-04-11T12:30:08.999Z</time></trkpt><trkpt lat="44.67178380475111" lon="10.096248622051677"><ele>176.0</ele><time>2026-04-11T12:30:09.999Z</time></trkpt><trkpt lat="44.67158368011186" lon="10.09607930665518"><ele>176.5</ele><time>2026-04-11T12:30:10.999Z</time></trkpt><trkpt lat="44.671422365684755" lon="10.095925621439081"><ele>177.0</ele><time>2026-04-11T12:30:11.999Z</time></trkpt><trkpt lat="44.67130800152097" lon="10.095842278194784"><ele>177.5</ele><time>2026-04-11T12:30:12.999Z</time></trkpt><trkpt lat="44.67119145296476" lon="10.09583818625753"><ele>178.0</ele><time>2026-04-11T12:30:13.999Z</time></trkpt><trkpt lat="44.671062362124935" lon="10.095924530455306"><ele>179.66666666666669</ele><time>2026-04-11T12:30:14.999Z</time></trkpt><trkpt lat="44.67095022566528" lon="10.096081109452408"><ele>181.33333333333334</ele><time>2026-04-11T12:30:15.999Z</time></trkpt><trkpt lat="44.67085553569688" lon="10.096310617901704"><ele>183.0</ele><time>2026-04-11T12:30:16.999Z</time></trkpt><trkpt lat="44.67077366895081" lon="10.096566624623549"><ele>183.33333333333334</ele><time>2026-04-11T12:30:17.999Z</time></trkpt><trkpt lat="44.67065952529546" lon="10.096824857056879"><ele>183.66666666666669</ele><time>2026-04-11T12:30:18.999Z</time></trkpt><trkpt lat="44.67053468293183" lon="10.09708938713704"><ele>184.0</ele><time>2026-04-11T12:30:19.999Z</time></trkpt><trkpt lat="44.67039505494698" lon="10.097349842484913"><ele>189.0</ele><time>2026-04-11T12:30:20.999Z</time></trkpt><trkpt lat="44.67022020235177" lon="10.09758985352551"><ele>194.0</ele><time>2026-04-11T12:30:21.999Z</time></trkpt><trkpt lat="44.670039126508726" lon="10.097813875768027"><ele>194.0</ele><time>2026-04-11T12:30:22.999Z</time></trkpt><trkpt lat="44.669891879512505" lon="10.098052999270623"><ele>194.0</ele><time>2026-04-11T12:30:23.999Z</time></trkpt><trkpt lat="44.66977802145468" lon="10.098311127131609"><ele>194.0</ele><time>2026-04-11T12:30:24.999Z</time></trkpt><trkpt lat="44.66969486577551" lon="10.098510721033756"><ele>193.0</ele><time>2026-04-11T12:30:25.999Z</time></trkpt><trkpt lat="44.669590452843785" lon="10.098633770416898"><ele>192.0</ele><time>2026-04-11T12:30:26.999Z</time></trkpt><trkpt lat="44.66949105304935" lon="10.098707551244484"><ele>191.0</ele><time>2026-04-11T12:30:27.999Z</time></trkpt><trkpt lat="44.66939308400273" lon="10.098709494612079"><ele>190.0</ele><time>2026-04-11T12:30:28.999Z</time></trkpt><trkpt lat="44.6692904325948" lon="10.098639608244882"><ele>192.25</ele><time>2026-04-11T12:30:29.999Z</time></trkpt><trkpt lat="44.669215342808414" lon="10.098484714008556"><ele>194.5</ele><time>2026-04-11T12:30:30.999Z</time></trkpt><trkpt lat="44.669194355095044" lon="10.098284573140157"><ele>196.75</ele><time>2026-04-11T12:30:31.999Z</time></trkpt><trkpt lat="44.66924358667774" lon="10.098063236885023"><ele>199.0</ele><time>2026-04-11T12:30:32.999Z</time></trkpt><trkpt lat="44.669289063322495" lon="10.09778182380373"><ele>201.5</ele><time>2026-04-11T12:30:33.999Z</time></trkpt><trkpt lat="44.66935509343736" lon="10.097460985570402"><ele>204.0</ele><time>2026-04-11T12:30:34.999Z</time></trkpt><trkpt lat="44.669410337883235" lon="10.097160417114774"><ele>201.66666666666669</ele><time>2026-04-11T12:30:35.999Z</time></trkpt><trkpt lat="44.669460743717494" lon="10.096855128535818"><ele>199.33333333333334</ele><time>2026-04-11T12:30:36.999Z</time></trkpt><trkpt lat="44.66949977709734" lon="10.096600212909838"><ele>197.0</ele><time>2026-04-11T12:30:37.999Z</time></trkpt><trkpt lat="44.66950590044477" lon="10.096388611475561"><ele>201.66666666666669</ele><time>2026-04-11T12:30:38.999Z</time></trkpt><trkpt lat="44.669440724366545" lon="10.096185872361483"><ele>206.33333333333331</ele><time>2026-04-11T12:30:39.999Z</time></trkpt><trkpt lat="44.66929182965914" lon="10.095979239080611"><ele>211.0</ele><time>2026-04-11T12:30:40.999Z</time></trkpt><trkpt lat="44.66913332241275" lon="10.095763333078105"><ele>210.66666666666666</ele><time>2026-04-11T12:30:41.999Z</time></trkpt><trkpt lat="44.668972112812156" lon="10.095558675931839"><ele>210.33333333333331</ele><time>2026-04-11T12:30:42.999Z</time></trkpt><trkpt lat="44.66878423735192" lon="10.09538915272537"><ele>210.0</ele><time>2026-04-11T12:30:43.999Z</time></trkpt><trkpt lat="44.66856896621968" lon="10.09526934949692"><ele>214.5</ele><time>2026-04-11T12:30:44.999Z</time></trkpt><trkpt lat="44.66834471391518" lon="10.095190219775226"><ele>219.0</ele><time>2026-04-11T12:30:45.999Z</time></trkpt><trkpt lat="44.66813331391201" lon="10.09511051178995"><ele>219.0</ele><time>2026-04-11T12:30:46.999Z</time></trkpt><trkpt lat="44.66795208200351" lon="10.095015220157801"><ele>219.0</ele><time>2026-04-11T12:30:47.999Z</time></trkpt><trkpt lat="44.66777604695947" lon="10.09490500956463"><ele>219.0</ele><time>2026-04-11T12:30:48.999Z</time></trkpt><trkpt lat="44.66761303050084" lon="10.09478390231935"><ele>221.0</ele><time>2026-04-11T12:30:49.999Z</time></trkpt><trkpt lat="44.667460837133085" lon="10.09465364020596"><ele>223.0</ele><time>2026-04-11T12:30:50.999Z</time></trkpt><trkpt lat="44.66731295760548" lon="10.09451893719672"><ele>225.0</ele><time>2026-04-11T12:30:51.999Z</time></trkpt><trkpt lat="44.667163969041205" lon="10.094386286467753"><ele>225.0</ele><time>2026-04-11T12:30:52.999Z</time></trkpt><trkpt lat="44.667012629604194" lon="10.094255573262672"><ele>225.0</ele><time>2026-04-11T12:30:53.999Z</time></trkpt><trkpt lat="44.66685943691947" lon="10.094127768512127"><ele>225.0</ele><time>2026-04-11T12:30:54.999Z</time></trkpt><trkpt lat="44.66670544025563" lon="10.093997675560194"><ele>228.0</ele><time>2026-04-11T12:30:55.999Z</time></trkpt><trkpt lat="44.66654924120863" lon="10.093862914883253"><ele>231.0</ele><time>2026-04-11T12:30:56.999Z</time></trkpt><trkpt lat="44.66639360120137" lon="10.093721110218432"><ele>234.0</ele><time>2026-04-11T12:30:57.999Z</time></trkpt><trkpt lat="44.666254748821466" lon="10.093569887636617"><ele>234.0</ele><time>2026-04-11T12:30:58.999Z</time></trkpt><trkpt lat="44.66613605412454" lon="10.093397800881561"><ele>234.0</ele><time>2026-04-11T12:31:00Z</time></trkpt><trkpt lat="44.66603057360892" lon="10.093230177273874"><ele>234.0</ele><time>2026-04-11T12:31:01Z</time></trkpt><trkpt lat="44.66592208869279" lon="10.0930980097744"><ele>235.75</ele><time>2026-04-11T12:31:02Z</time></trkpt><trkpt lat="44.665808541908426" lon="10.093020095682036"><ele>237.5</ele><time>2026-04-11T12:31:03Z</time></trkpt><trkpt lat="44.66566503868211" lon="10.093015203248376"><ele>239.25</ele><time>2026-04-11T12:31:04Z</time></trkpt><trkpt lat="44.665516692828035" lon="10.093089592048344"><ele>241.0</ele><time>2026-04-11T12:31:05Z</time></trkpt><trkpt lat="44.665363286313045" lon="10.09316073650123"><ele>244.66666666666666</ele><time>2026-04-11T12:31:06Z</time></trkpt><trkpt lat="44.66517985964881" lon="10.09318434748343"><ele>248.33333333333331</ele><time>2026-04-11T12:31:07Z</time></trkpt><trkpt lat="44.66503665190852" lon="10.093187256091445"><ele>252.0</ele><time>2026-04-11T12:31:08Z</time></trkpt><trkpt lat="44.66486688861667" lon="10.093183348673163"><ele>252.0</ele><time>2026-04-11T12:31:09Z</time></trkpt><trkpt lat="44.66469537718334" lon="10.09316048870558"><ele>252.0</ele><time>2026-04-11T12:31:10Z</time></trkpt><trkpt lat="44.66452474539745" lon="10.093131430381726"><ele>252.0</ele><time>2026-04-11T12:31:11Z</time></trkpt><trkpt lat="44.664350989028634" lon="10.093101585434487"><ele>254.66666666666669</ele><time>2026-04-11T12:31:12Z</time></trkpt><trkpt lat="44.664179871688624" lon="10.09307348600625"><ele>257.33333333333337</ele><time>2026-04-11T12:31:13Z</time></trkpt><trkpt lat="44.66400491259218" lon="10.093041183648499"><ele>260.0</ele><time>2026-04-11T12:31:14Z</time></trkpt><trkpt lat="44.66382838564761" lon="10.093013583264968"><ele>260.0</ele><time>2026-04-11T12:31:15Z</time></trkpt><trkpt lat="44.66365973336643" lon="10.092991291169144"><ele>260.0</ele><time>2026-04-11T12:31:16Z</time></trkpt><trkpt lat="44.663498725749584" lon="10.09296292691535"><ele>260.0</ele><time>2026-04-11T12:31:17Z</time></trkpt><trkpt lat="44.66334631602062" lon="10.092921807985173"><ele>261.75</ele><time>2026-04-11T12:31:18Z</time></trkpt><trkpt lat="44.66322138541675" lon="10.09285475935596"><ele>263.5</ele><time>2026-04-11T12:31:19Z</time></trkpt><trkpt lat="44.66310703343244" lon="10.092760325002859"><ele>265.25</ele><time>2026-04-11T12:31:20Z</time></trkpt><trkpt lat="44.66301389975597" lon="10.09262034099137"><ele>267.0</ele><time>2026-04-11T12:31:21Z</time></trkpt><trkpt lat="44.66294695179735" lon="10.09244898377752"><ele>267.5</ele><time>2026-04-11T12:31:22Z</time></trkpt><trkpt lat="44.662930954043446" lon="10.092240488867066"><ele>268.0</ele><time>2026-04-11T12:31:23Z</time></trkpt><trkpt lat="44.662874072712" lon="10.092059984402733"><ele>268.5</ele><time>2026-04-11T12:31:24Z</time></trkpt><trkpt lat="44.66281670623408" lon="10.091878077717624"><ele>269.0</ele><time>2026-04-11T12:31:25Z</time></trkpt><trkpt lat="44.662745244698975" lon="10.091705309905189"><ele>272.5</ele><time>2026-04-11T12:31:26Z</time></trkpt><trkpt lat="44.662690949335634" lon="10.091525874164086"><ele>276.0</ele><time>2026-04-11T12:31:27Z</time></trkpt><trkpt lat="44.66264719102448" lon="10.09134055235554"><ele>279.5</ele><time>2026-04-11T12:31:28Z</time></trkpt><trkpt lat="44.66259997161307" lon="10.091170717448712"><ele>283.0</ele><time>2026-04-11T12:31:29Z</time></trkpt><trkpt lat="44.66258641032958" lon="10.091008984583532"><ele>283.0</ele><time>2026-04-11T12:31:30Z</time></trkpt><trkpt lat="44.66261813269837" lon="10.090836995742324"><ele>283.0</ele><time>2026-04-11T12:31:31Z</time></trkpt><trkpt lat="44.662711087012624" lon="10.090683295818943"><ele>283.0</ele><time>2026-04-11T12:31:32Z</time></trkpt><trkpt lat="44.66281832401977" lon="10.090541213235385"><ele>283.0</ele><time>2026-04-11T12:31:33Z</time></trkpt><trkpt lat="44.66291248609186" lon="10.09040626960943"><ele>283.8</ele><time>2026-04-11T12:31:34Z</time></trkpt><trkpt lat="44.66298985375201" lon="10.090270796223235"><ele>284.6</ele><time>2026-04-11T12:31:35Z</time></trkpt><trkpt lat="44.66305852205232" lon="10.090143141917974"><ele>285.4</ele><time>2026-04-11T12:31:36Z</time></trkpt><trkpt lat="44.66311806200954" lon="10.09003046652194"><ele>286.2</ele><time>2026-04-11T12:31:37Z</time></trkpt><trkpt lat="44.663174364089265" lon="10.089913467240194"><ele>287.0</ele><time>2026-04-11T12:31:38Z</time></trkpt><trkpt lat="44.663204116323264" lon="10.089800201397363"><ele>289.4</ele><time>2026-04-11T12:31:39Z</time></trkpt><trkpt lat="44.66320138143794" lon="10.089676392755674"><ele>291.79999999999995</ele><time>2026-04-11T12:31:40Z</time></trkpt><trkpt lat="44.66316540229019" lon="10.089544754595726"><ele>294.2</ele><time>2026-04-11T12:31:41Z</time></trkpt><trkpt lat="44.663087840282564" lon="10.089426186670282"><ele>296.59999999999997</ele><time>2026-04-11T12:31:42Z</time></trkpt><trkpt lat="44.66297173326646" lon="10.089360534238713"><ele>299.0</ele><time>2026-04-11T12:31:43Z</time></trkpt><trkpt lat="44.66284162513401" lon="10.089345315155885"><ele>300.0</ele><time>2026-04-11T12:31:44Z</time></trkpt><trkpt lat="44.66271504722961" lon="10.089347637044487"><ele>301.0</ele><time>2026-04-11T12:31:45Z</time></trkpt><trkpt lat="44.662591413880634" lon="10.089341058439691"><ele>302.0</ele><time>2026-04-11T12:31:46Z</time></trkpt><trkpt lat="44.662474922971654" lon="10.089325152326058"><ele>303.0</ele><time>2026-04-11T12:31:47Z</time></trkpt><trkpt lat="44.662360467753246" lon="10.0893088609204"><ele>303.0</ele><time>2026-04-11T12:31:48Z</time></trkpt><trkpt lat="44.66224733715488" lon="10.089303349962638"><ele>303.0</ele><time>2026-04-11T12:31:49Z</time></trkpt><trkpt lat="44.6621285053886" lon="10.089319783110268"><ele>303.0</ele><time>2026-04-11T12:31:50Z</time></trkpt><trkpt lat="44.66201067775094" lon="10.089381573315105"><ele>303.0</ele><time>2026-04-11T12:31:51Z</time></trkpt><trkpt lat="44.66189226567051" lon="10.089478570997912"><ele>304.75</ele><time>2026-04-11T12:31:52Z</time></trkpt><trkpt lat="44.66179012782806" lon="10.089574352956864"><ele>306.5</ele><time>2026-04-11T12:31:53Z</time></trkpt><trkpt lat="44.661694343262745" lon="10.089666071934268"><ele>308.25</ele><time>2026-04-11T12:31:54Z</time></trkpt><trkpt lat="44.66159457632582" lon="10.089748802834084"><ele>310.0</ele><time>2026-04-11T12:31:55Z</time></trkpt><trkpt lat="44.661503061122296" lon="10.089826660431648"><ele>310.0</ele><time>2026-04-11T12:31:56Z</time></trkpt><trkpt lat="44.661411263007906" lon="10.089899862988945"><ele>310.0</ele><time>2026-04-11T12:31:57Z</time></trkpt><trkpt lat="44.6613211157939" lon="10.089977728785573"><ele>310.0</ele><time>2026-04-11T12:31:58Z</time></trkpt><trkpt lat="44.66123749744851" lon="10.090065632600577"><ele>310.0</ele><time>2026-04-11T12:31:59Z</time></trkpt><trkpt lat="44.66116592857684" lon="10.090171618183723"><ele>310.0</ele><time>2026-04-11T12:32:00Z</time></trkpt><trkpt lat="44.661110728306724" lon="10.090278300417808"><ele>312.0</ele><time>2026-04-11T12:32:01Z</time></trkpt><trkpt lat="44.66107776945173" lon="10.090399352532717"><ele>314.0</ele><time>2026-04-11T12:32:02Z</time></trkpt><trkpt lat="44.661067337011744" lon="10.090534328641326"><ele>316.0</ele><time>2026-04-11T12:32:03Z</time></trkpt><trkpt lat="44.661065328036706" lon="10.090672734351662"><ele>318.0</ele><time>2026-04-11T12:32:04Z</time></trkpt><trkpt lat="44.661064803886184" lon="10.09082549600796"><ele>320.0</ele><time>2026-04-11T12:32:05Z</time></trkpt><trkpt lat="44.661056750692296" lon="10.0909715207626"><ele>320.8</ele><time>2026-04-11T12:32:06Z</time></trkpt><trkpt lat="44.66104662704654" lon="10.091119542988265"><ele>321.6</ele><time>2026-04-11T12:32:06.999Z</time></trkpt><trkpt lat="44.66103571729951" lon="10.091273297397017"><ele>322.4</ele><time>2026-04-11T12:32:07.999Z</time></trkpt><trkpt lat="44.66103192139016" lon="10.091426137022163"><ele>323.2</ele><time>2026-04-11T12:32:08.999Z</time></trkpt><trkpt lat="44.66102786044686" lon="10.091578356182008"><ele>324.0</ele><time>2026-04-11T12:32:09.999Z</time></trkpt><trkpt lat="44.66102690122873" lon="10.091720066498809"><ele>324.0</ele><time>2026-04-11T12:32:10.999Z</time></trkpt><trkpt lat="44.661029840501165" lon="10.091842199978815"><ele>324.0</ele><time>2026-04-11T12:32:11.999Z</time></trkpt><trkpt lat="44.66103762758362" lon="10.091950424903334"><ele>324.0</ele><time>2026-04-11T12:32:12.999Z</time></trkpt><trkpt lat="44.66103297529615" lon="10.092119566087707"><ele>324.0</ele><time>2026-04-11T12:32:14.999Z</time></trkpt><trkpt lat="44.6609595119409" lon="10.092257235282888"><ele>324.0</ele><time>2026-04-11T12:32:16.999Z</time></trkpt><trkpt lat="44.66089299869956" lon="10.092268546773198"><ele>324.0</ele><time>2026-04-11T12:32:17.999Z</time></trkpt><trkpt lat="44.6608280585677" lon="10.09221835625019"><ele>324.0</ele><time>2026-04-11T12:32:18.999Z</time></trkpt><trkpt lat="44.66077784521234" lon="10.092114615937454"><ele>324.0</ele><time>2026-04-11T12:32:19.999Z</time></trkpt><trkpt lat="44.660791703951276" lon="10.091972535183773"><ele>324.0</ele><time>2026-04-11T12:32:20.999Z</time></trkpt><trkpt lat="44.66077858499121" lon="10.091838199686945"><ele>324.0</ele><time>2026-04-11T12:32:21.999Z</time></trkpt><trkpt lat="44.66077909979775" lon="10.091702807730478"><ele>324.0</ele><time>2026-04-11T12:32:22.999Z</time></trkpt><trkpt lat="44.66076331244718" lon="10.091582637055255"><ele>324.0</ele><time>2026-04-11T12:32:23.999Z</time></trkpt><trkpt lat="44.66074111969402" lon="10.091473488707353"><ele>324.0</ele><time>2026-04-11T12:32:24.999Z</time></trkpt><trkpt lat="44.66071263237929" lon="10.091357501200813"><ele>324.0</ele><time>2026-04-11T12:32:25.999Z</time></trkpt><trkpt lat="44.66068061582543" lon="10.091242772479163"><ele>324.0</ele><time>2026-04-11T12:32:26.999Z</time></trkpt><trkpt lat="44.66065129225767" lon="10.0911250451133"><ele>324.0</ele><time>2026-04-11T12:32:27.999Z</time></trkpt><trkpt lat="44.66061946792173" lon="10.09100715001877"><ele>324.0</ele><time>2026-04-11T12:32:28.999Z</time></trkpt><trkpt lat="44.6605847556209" lon="10.090882257294181"><ele>324.0</ele><time>2026-04-11T12:32:29.999Z</time></trkpt><trkpt lat="44.66054440953767" lon="10.09075317799889"><ele>324.0</ele><time>2026-04-11T12:32:30.999Z</time></trkpt><trkpt lat="44.66049931676237" lon="10.090628719803513"><ele>324.0</ele><time>2026-04-11T12:32:31.999Z</time></trkpt><trkpt lat="44.66043879240361" lon="10.090496451236843"><ele>324.0</ele><time>2026-04-11T12:32:32.999Z</time></trkpt><trkpt lat="44.660362715900625" lon="10.090342296813754"><ele>323.0</ele><time>2026-04-11T12:32:33.999Z</time></trkpt><trkpt lat="44.660286398685955" lon="10.090187428652374"><ele>322.0</ele><time>2026-04-11T12:32:34.999Z</time></trkpt><trkpt lat="44.660207997106625" lon="10.090019770408157"><ele>321.0</ele><time>2026-04-11T12:32:35.999Z</time></trkpt><trkpt lat="44.66013861564626" lon="10.08987082688442"><ele>320.0</ele><time>2026-04-11T12:32:36.999Z</time></trkpt><trkpt lat="44.660076756734746" lon="10.089731445022876"><ele>325.0</ele><time>2026-04-11T12:32:37.999Z</time></trkpt><trkpt lat="44.66001218062083" lon="10.089593966030383"><ele>330.0</ele><time>2026-04-11T12:32:38.999Z</time></trkpt><trkpt lat="44.659947601776516" lon="10.089452053247937"><ele>335.0</ele><time>2026-04-11T12:32:39.999Z</time></trkpt><trkpt lat="44.65988245397702" lon="10.089303499570832"><ele>340.0</ele><time>2026-04-11T12:32:40.999Z</time></trkpt><trkpt lat="44.65981951738018" lon="10.089150395876814"><ele>341.2</ele><time>2026-04-11T12:32:41.999Z</time></trkpt><trkpt lat="44.659762902042516" lon="10.088996011410565"><ele>342.4</ele><time>2026-04-11T12:32:42.999Z</time></trkpt><trkpt lat="44.65972754099531" lon="10.088831532350163"><ele>343.6</ele><time>2026-04-11T12:32:43.999Z</time></trkpt><trkpt lat="44.659675340661295" lon="10.088710815452957"><ele>344.8</ele><time>2026-04-11T12:32:44.999Z</time></trkpt><trkpt lat="44.65964578201986" lon="10.088591436813333"><ele>346.0</ele><time>2026-04-11T12:32:45.999Z</time></trkpt><trkpt lat="44.65960979789089" lon="10.088480588010809"><ele>346.0</ele><time>2026-04-11T12:32:46.999Z</time></trkpt><trkpt lat="44.65958007190026" lon="10.088378634004865"><ele>346.0</ele><time>2026-04-11T12:32:47.999Z</time></trkpt><trkpt lat="44.65958452455403" lon="10.088266159737598"><ele>346.0</ele><time>2026-04-11T12:32:48.999Z</time></trkpt><trkpt lat="44.65958855701585" lon="10.088144772104437"><ele>346.0</ele><time>2026-04-11T12:32:49.999Z</time></trkpt><trkpt lat="44.65961524499843" lon="10.088015189045079"><ele>346.0</ele><time>2026-04-11T12:32:50.999Z</time></trkpt><trkpt lat="44.659641567871084" lon="10.08788110977966"><ele>346.0</ele><time>2026-04-11T12:32:51.999Z</time></trkpt><trkpt lat="44.65969548738985" lon="10.08775672803082"><ele>347.0</ele><time>2026-04-11T12:32:52.999Z</time></trkpt><trkpt lat="44.65975286591413" lon="10.087615650293078"><ele>348.0</ele><time>2026-04-11T12:32:53.999Z</time></trkpt><trkpt lat="44.65980783742323" lon="10.087481444107658"><ele>349.0</ele><time>2026-04-11T12:32:54.999Z</time></trkpt><trkpt lat="44.65986094455072" lon="10.087360660335117"><ele>350.0</ele><time>2026-04-11T12:32:55.999Z</time></trkpt><trkpt lat="44.65991182478615" lon="10.087252440142565"><ele>351.0</ele><time>2026-04-11T12:32:56.999Z</time></trkpt><trkpt lat="44.659954679583706" lon="10.087172651158983"><ele>351.20000000000005</ele><time>2026-04-11T12:32:57.999Z</time></trkpt><trkpt lat="44.66002051211963" lon="10.087052453205102"><ele>351.40000000000003</ele><time>2026-04-11T12:32:59.999Z</time></trkpt><trkpt lat="44.66004375917999" lon="10.086910083649727"><ele>351.6</ele><time>2026-04-11T12:33:01.999Z</time></trkpt><trkpt lat="44.65996353799527" lon="10.086799446956947"><ele>351.8</ele><time>2026-04-11T12:33:03.999Z</time></trkpt><trkpt lat="44.6598958810614" lon="10.086789053008605"><ele>352.0</ele><time>2026-04-11T12:33:04.999Z</time></trkpt><trkpt lat="44.65982000568639" lon="10.08683067592834"><ele>352.0</ele><time>2026-04-11T12:33:06Z</time></trkpt><trkpt lat="44.65974130464595" lon="10.08693960867067"><ele>352.0</ele><time>2026-04-11T12:33:07Z</time></trkpt><trkpt lat="44.65965241501486" lon="10.087068993577807"><ele>352.0</ele><time>2026-04-11T12:33:08Z</time></trkpt><trkpt lat="44.65953867067436" lon="10.087190065941094"><ele>352.0</ele><time>2026-04-11T12:33:09Z</time></trkpt><trkpt lat="44.659410923070105" lon="10.087318826823491"><ele>358.0</ele><time>2026-04-11T12:33:10Z</time></trkpt><trkpt lat="44.65927337982932" lon="10.087428287084451"><ele>364.0</ele><time>2026-04-11T12:33:11Z</time></trkpt><trkpt lat="44.65913281071019" lon="10.087559974120943"><ele>370.0</ele><time>2026-04-11T12:33:12Z</time></trkpt><trkpt lat="44.65899869880739" lon="10.087703262796074"><ele>370.0</ele><time>2026-04-11T12:33:13Z</time></trkpt><trkpt lat="44.65886559785979" lon="10.087863491900405"><ele>370.0</ele><time>2026-04-11T12:33:14Z</time></trkpt><trkpt lat="44.65875359321039" lon="10.088048002667204"><ele>370.0</ele><time>2026-04-11T12:33:15Z</time></trkpt><trkpt lat="44.65865715190321" lon="10.088269039586079"><ele>375.66666666666663</ele><time>2026-04-11T12:33:16Z</time></trkpt><trkpt lat="44.65858466671529" lon="10.088510885407302"><ele>381.3333333333333</ele><time>2026-04-11T12:33:17Z</time></trkpt><trkpt lat="44.658531386445205" lon="10.088751715448625"><ele>387.0</ele><time>2026-04-11T12:33:18Z</time></trkpt><trkpt lat="44.65850816942194" lon="10.088909407264717"><ele>386.66666666666663</ele><time>2026-04-11T12:33:19Z</time></trkpt><trkpt lat="44.65848482193557" lon="10.089270686339741"><ele>386.3333333333333</ele><time>2026-04-11T12:33:20Z</time></trkpt><trkpt lat="44.65854457458076" lon="10.08949554089422"><ele>386.0</ele><time>2026-04-11T12:33:21Z</time></trkpt><trkpt lat="44.65862137501737" lon="10.089655162502098"><ele>386.0</ele><time>2026-04-11T12:33:22Z</time></trkpt><trkpt lat="44.658657866380395" lon="10.089777354931984"><ele>386.0</ele><time>2026-04-11T12:33:23Z</time></trkpt><trkpt lat="44.65864939350801" lon="10.08988017996521"><ele>386.0</ele><time>2026-04-11T12:33:24Z</time></trkpt><trkpt lat="44.65858640172693" lon="10.089956397448708"><ele>386.0</ele><time>2026-04-11T12:33:25Z</time></trkpt><trkpt lat="44.65848151147761" lon="10.08995097287877"><ele>386.0</ele><time>2026-04-11T12:33:26Z</time></trkpt><trkpt lat="44.658425434807" lon="10.089776914280328"><ele>386.0</ele><time>2026-04-11T12:33:27Z</time></trkpt><trkpt lat="44.65838956644192" lon="10.08959090763396"><ele>386.0</ele><time>2026-04-11T12:33:28Z</time></trkpt><trkpt lat="44.65833094138409" lon="10.089346210309428"><ele>386.0</ele><time>2026-04-11T12:33:29Z</time></trkpt><trkpt lat="44.65825546542488" lon="10.089095854342412"><ele>386.3333333333333</ele><time>2026-04-11T12:33:30Z</time></trkpt><trkpt lat="44.65820448867799" lon="10.088854352988067"><ele>386.66666666666663</ele><time>2026-04-11T12:33:31Z</time></trkpt><trkpt lat="44.658142972767095" lon="10.088612496924279"><ele>387.0</ele><time>2026-04-11T12:33:32Z</time></trkpt><trkpt lat="44.65810445528295" lon="10.088337611491266"><ele>388.33333333333337</ele><time>2026-04-11T12:33:33Z</time></trkpt><trkpt lat="44.65810771743595" lon="10.088022081079025"><ele>389.6666666666667</ele><time>2026-04-11T12:33:34Z</time></trkpt><trkpt lat="44.6581204535386" lon="10.087709869347124"><ele>391.0</ele><time>2026-04-11T12:33:35Z</time></trkpt><trkpt lat="44.65814906280347" lon="10.087496275719136"><ele>391.00000000000006</ele><time>2026-04-11T12:33:36Z</time></trkpt><trkpt lat="44.658156746833626" lon="10.087347923019772"><ele>391.0</ele><time>2026-04-11T12:33:37Z</time></trkpt><trkpt lat="44.65814254995737" lon="10.087246916747544"><ele>391.0</ele><time>2026-04-11T12:33:38Z</time></trkpt><trkpt lat="44.65808232090977" lon="10.087176346944544"><ele>391.0</ele><time>2026-04-11T12:33:39Z</time></trkpt><trkpt lat="44.657987873426954" lon="10.087189611659163"><ele>391.00000000000006</ele><time>2026-04-11T12:33:40Z</time></trkpt><trkpt lat="44.657909257482096" lon="10.087240674867719"><ele>391.0</ele><time>2026-04-11T12:33:41Z</time></trkpt><trkpt lat="44.65786969537576" lon="10.08750818260508"><ele>391.0</ele><time>2026-04-11T12:33:42Z</time></trkpt><trkpt lat="44.65782772866374" lon="10.087761898719805"><ele>391.0</ele><time>2026-04-11T12:33:43Z</time></trkpt><trkpt lat="44.65774181761108" lon="10.08800882581056"><ele>391.0</ele><time>2026-04-11T12:33:44Z</time></trkpt><trkpt lat="44.65768998711216" lon="10.088222805248213"><ele>395.0</ele><time>2026-04-11T12:33:45Z</time></trkpt><trkpt lat="44.65768182954878" lon="10.088430114779909"><ele>399.0</ele><time>2026-04-11T12:33:46Z</time></trkpt><trkpt lat="44.65767115037424" lon="10.088555539078717"><ele>403.0</ele><time>2026-04-11T12:33:47Z</time></trkpt><trkpt lat="44.65762306228247" lon="10.088622205042913"><ele>407.0</ele><time>2026-04-11T12:33:48Z</time></trkpt><trkpt lat="44.6575396917294" lon="10.08862563574721"><ele>411.0</ele><time>2026-04-11T12:33:49Z</time></trkpt><trkpt lat="44.657467833521395" lon="10.088571011830776"><ele>411.0</ele><time>2026-04-11T12:33:50Z</time></trkpt><trkpt lat="44.65746244349447" lon="10.08834663283512"><ele>411.0</ele><time>2026-04-11T12:33:51Z</time></trkpt><trkpt lat="44.657527062897074" lon="10.088210074617065"><ele>411.0</ele><time>2026-04-11T12:33:52Z</time></trkpt><trkpt lat="44.65757055092163" lon="10.087993406448017"><ele>411.0</ele><time>2026-04-11T12:33:53Z</time></trkpt><trkpt lat="44.657626837846614" lon="10.087809047420329"><ele>411.25</ele><time>2026-04-11T12:33:54Z</time></trkpt><trkpt lat="44.657650223502316" lon="10.087649428449943"><ele>411.5</ele><time>2026-04-11T12:33:55Z</time></trkpt><trkpt lat="44.657633437924396" lon="10.087488242794292"><ele>411.75</ele><time>2026-04-11T12:33:56Z</time></trkpt><trkpt lat="44.65755183908364" lon="10.087356260718405"><ele>412.0</ele><time>2026-04-11T12:33:57Z</time></trkpt><trkpt lat="44.65740888016442" lon="10.087279439762037"><ele>409.0</ele><time>2026-04-11T12:33:58Z</time></trkpt><trkpt lat="44.65721733733869" lon="10.087261918438735"><ele>406.0</ele><time>2026-04-11T12:33:59Z</time></trkpt><trkpt lat="44.65703921861538" lon="10.08726127021747"><ele>403.0</ele><time>2026-04-11T12:34:00Z</time></trkpt><trkpt lat="44.656918545044704" lon="10.08717123916095"><ele>408.33333333333337</ele><time>2026-04-11T12:34:01Z</time></trkpt><trkpt lat="44.65687685971929" lon="10.086989578284303"><ele>413.66666666666663</ele><time>2026-04-11T12:34:02Z</time></trkpt><trkpt lat="44.656829137313665" lon="10.086746107325839"><ele>419.0</ele><time>2026-04-11T12:34:03Z</time></trkpt><trkpt lat="44.6567696621379" lon="10.086465805479875"><ele>419.0</ele><time>2026-04-11T12:34:04Z</time></trkpt><trkpt lat="44.65669927990361" lon="10.086208571582361"><ele>419.0</ele><time>2026-04-11T12:34:05Z</time></trkpt><trkpt lat="44.65664395238842" lon="10.086004397610221"><ele>419.0</ele><time>2026-04-11T12:34:06Z</time></trkpt><trkpt lat="44.656564474564846" lon="10.08588044949887"><ele>419.0</ele><time>2026-04-11T12:34:07Z</time></trkpt><trkpt lat="44.65642551933763" lon="10.085826307667878"><ele>419.0</ele><time>2026-04-11T12:34:08Z</time></trkpt><trkpt lat="44.65623716972482" lon="10.085852705545742"><ele>419.0</ele><time>2026-04-11T12:34:09Z</time></trkpt><trkpt lat="44.656045989848344" lon="10.085862065697153"><ele>423.0</ele><time>2026-04-11T12:34:10Z</time></trkpt><trkpt lat="44.655883505752826" lon="10.085810979263593"><ele>427.0</ele><time>2026-04-11T12:34:11Z</time></trkpt><trkpt lat="44.65577804159713" lon="10.085724782369107"><ele>431.0</ele><time>2026-04-11T12:34:12Z</time></trkpt><trkpt lat="44.65572589081287" lon="10.085592269555956"><ele>435.0</ele><time>2026-04-11T12:34:13Z</time></trkpt><trkpt lat="44.65574864250114" lon="10.08539747323786"><ele>435.0</ele><time>2026-04-11T12:34:14Z</time></trkpt><trkpt lat="44.65574605591623" lon="10.085125647042151"><ele>435.0</ele><time>2026-04-11T12:34:14.999Z</time></trkpt><trkpt lat="44.655740294512384" lon="10.084852634208602"><ele>435.0</ele><time>2026-04-11T12:34:15.999Z</time></trkpt><trkpt lat="44.65573441751714" lon="10.084585509564427"><ele>434.25</ele><time>2026-04-11T12:34:16.999Z</time></trkpt><trkpt lat="44.65572828815399" lon="10.084347056996963"><ele>433.5</ele><time>2026-04-11T12:34:17.999Z</time></trkpt><trkpt lat="44.65569095407429" lon="10.084159223092366"><ele>432.75</ele><time>2026-04-11T12:34:18.999Z</time></trkpt><trkpt lat="44.6556272886947" lon="10.084012690396296"><ele>432.0</ele><time>2026-04-11T12:34:19.999Z</time></trkpt><trkpt lat="44.65549519161022" lon="10.083924727503026"><ele>431.66666666666663</ele><time>2026-04-11T12:34:20.999Z</time></trkpt><trkpt lat="44.655316446291046" lon="10.083941611636222"><ele>431.3333333333333</ele><time>2026-04-11T12:34:21.999Z</time></trkpt><trkpt lat="44.65510339708869" lon="10.084006236795268"><ele>431.0</ele><time>2026-04-11T12:34:22.999Z</time></trkpt><trkpt lat="44.65491327290391" lon="10.08401616000546"><ele>431.0</ele><time>2026-04-11T12:34:23.999Z</time></trkpt><trkpt lat="44.65477203774868" lon="10.083907713297641"><ele>431.0</ele><time>2026-04-11T12:34:24.999Z</time></trkpt><trkpt lat="44.65465732889412" lon="10.083746115105633"><ele>431.0</ele><time>2026-04-11T12:34:25.999Z</time></trkpt><trkpt lat="44.65452369278871" lon="10.08356720760753"><ele>436.66666666666663</ele><time>2026-04-11T12:34:26.999Z</time></trkpt><trkpt lat="44.65436561143242" lon="10.083421314630243"><ele>442.33333333333337</ele><time>2026-04-11T12:34:27.999Z</time></trkpt><trkpt lat="44.654156659926834" lon="10.083328915601555"><ele>448.0</ele><time>2026-04-11T12:34:28.999Z</time></trkpt><trkpt lat="44.653919667473794" lon="10.083269467604916"><ele>447.0</ele><time>2026-04-11T12:34:29.999Z</time></trkpt><trkpt lat="44.65370874066531" lon="10.083153299581253"><ele>446.0</ele><time>2026-04-11T12:34:30.999Z</time></trkpt><trkpt lat="44.653495076573925" lon="10.082981755580201"><ele>446.0</ele><time>2026-04-11T12:34:31.999Z</time></trkpt><trkpt lat="44.65332160994476" lon="10.082835626442408"><ele>446.0</ele><time>2026-04-11T12:34:32.999Z</time></trkpt><trkpt lat="44.653144109973184" lon="10.082757539044827"><ele>446.0</ele><time>2026-04-11T12:34:33.999Z</time></trkpt><trkpt lat="44.6529375642644" lon="10.082779835916686"><ele>449.66666666666663</ele><time>2026-04-11T12:34:34.999Z</time></trkpt><trkpt lat="44.65272000196524" lon="10.082842284302883"><ele>453.33333333333337</ele><time>2026-04-11T12:34:35.999Z</time></trkpt><trkpt lat="44.65255398014338" lon="10.08282911854646"><ele>457.0</ele><time>2026-04-11T12:34:36.999Z</time></trkpt><trkpt lat="44.652421657595" lon="10.082768556814466"><ele>457.0</ele><time>2026-04-11T12:34:37.999Z</time></trkpt><trkpt lat="44.65233838892105" lon="10.082608429469861"><ele>457.0</ele><time>2026-04-11T12:34:38.999Z</time></trkpt><trkpt lat="44.65230407058638" lon="10.082428131905456"><ele>457.0</ele><time>2026-04-11T12:34:39.999Z</time></trkpt><trkpt lat="44.65222276598229" lon="10.082198942832834"><ele>458.6666666666667</ele><time>2026-04-11T12:34:40.999Z</time></trkpt><trkpt lat="44.65211135603858" lon="10.081998596562007"><ele>460.33333333333337</ele><time>2026-04-11T12:34:41.999Z</time></trkpt><trkpt lat="44.651960608810036" lon="10.081806976957697"><ele>462.0</ele><time>2026-04-11T12:34:42.999Z</time></trkpt><trkpt lat="44.65176694936434" lon="10.081653083982516"><ele>455.5</ele><time>2026-04-11T12:34:43.999Z</time></trkpt><trkpt lat="44.651523183685484" lon="10.081578190396673"><ele>449.0</ele><time>2026-04-11T12:34:44.999Z</time></trkpt><trkpt lat="44.65126875057365" lon="10.081557229141522"><ele>454.0</ele><time>2026-04-11T12:34:45.999Z</time></trkpt><trkpt lat="44.65102094899431" lon="10.081559974291377"><ele>459.0</ele><time>2026-04-11T12:34:46.999Z</time></trkpt><trkpt lat="44.650780943191265" lon="10.081550196480114"><ele>459.0</ele><time>2026-04-11T12:34:47.999Z</time></trkpt><trkpt lat="44.65056911151401" lon="10.081487055200702"><ele>459.0</ele><time>2026-04-11T12:34:48.999Z</time></trkpt><trkpt lat="44.65038196163846" lon="10.081354885979339"><ele>459.0</ele><time>2026-04-11T12:34:49.999Z</time></trkpt><trkpt lat="44.65019352234462" lon="10.081174988938182"><ele>463.66666666666663</ele><time>2026-04-11T12:34:50.999Z</time></trkpt><trkpt lat="44.65000835192237" lon="10.081051482728457"><ele>468.3333333333333</ele><time>2026-04-11T12:34:51.999Z</time></trkpt><trkpt lat="44.649815470397655" lon="10.08093263437572"><ele>473.0</ele><time>2026-04-11T12:34:52.999Z</time></trkpt><trkpt lat="44.64957124739735" lon="10.080913393241975"><ele>471.66666666666663</ele><time>2026-04-11T12:34:53.999Z</time></trkpt><trkpt lat="44.64935745957897" lon="10.080851995898653"><ele>470.33333333333337</ele><time>2026-04-11T12:34:54.999Z</time></trkpt><trkpt lat="44.64918875701325" lon="10.080758285925164"><ele>469.0</ele><time>2026-04-11T12:34:55.999Z</time></trkpt><trkpt lat="44.64903429272191" lon="10.080701660917002"><ele>469.0</ele><time>2026-04-11T12:34:56.999Z</time></trkpt><trkpt lat="44.64887673879226" lon="10.080743831062033"><ele>469.0</ele><time>2026-04-11T12:34:57.999Z</time></trkpt><trkpt lat="44.648720441051545" lon="10.08092775332368"><ele>469.0</ele><time>2026-04-11T12:34:58.999Z</time></trkpt><trkpt lat="44.64855510904416" lon="10.081173540479764"><ele>473.6666666666667</ele><time>2026-04-11T12:34:59.999Z</time></trkpt><trkpt lat="44.64839824726723" lon="10.081393574518076"><ele>478.33333333333337</ele><time>2026-04-11T12:35:00.999Z</time></trkpt><trkpt lat="44.64825531446382" lon="10.081611237240608"><ele>483.0</ele><time>2026-04-11T12:35:01.999Z</time></trkpt><trkpt lat="44.64811129018809" lon="10.081822038193234"><ele>486.66666666666663</ele><time>2026-04-11T12:35:02.999Z</time></trkpt><trkpt lat="44.64798215181534" lon="10.081997656034858"><ele>490.3333333333333</ele><time>2026-04-11T12:35:03.999Z</time></trkpt><trkpt lat="44.64786420872321" lon="10.082145589781407"><ele>494.0</ele><time>2026-04-11T12:35:04.999Z</time></trkpt><trkpt lat="44.64775791317556" lon="10.082202468563597"><ele>492.0</ele><time>2026-04-11T12:35:05.999Z</time></trkpt><trkpt lat="44.64766660012936" lon="10.082131657486922"><ele>490.0</ele><time>2026-04-11T12:35:06.999Z</time></trkpt><trkpt lat="44.64756885255435" lon="10.082032912304044"><ele>488.0</ele><time>2026-04-11T12:35:07.999Z</time></trkpt><trkpt lat="44.64744576666498" lon="10.081848159805963"><ele>486.0</ele><time>2026-04-11T12:35:08.999Z</time></trkpt><trkpt lat="44.647342857847164" lon="10.081596770170894"><ele>486.0</ele><time>2026-04-11T12:35:09.999Z</time></trkpt><trkpt lat="44.64720995815541" lon="10.081302936768727"><ele>486.0</ele><time>2026-04-11T12:35:10.999Z</time></trkpt><trkpt lat="44.64704733082862" lon="10.081051035919543"><ele>490.0</ele><time>2026-04-11T12:35:12Z</time></trkpt><trkpt lat="44.64688400924613" lon="10.080782451300603"><ele>494.0</ele><time>2026-04-11T12:35:13Z</time></trkpt><trkpt lat="44.64672769956358" lon="10.080560417856848"><ele>494.0</ele><time>2026-04-11T12:35:14Z</time></trkpt><trkpt lat="44.64652887428823" lon="10.080383665700168"><ele>494.0</ele><time>2026-04-11T12:35:15Z</time></trkpt><trkpt lat="44.64628609661046" lon="10.080245990627416"><ele>496.5</ele><time>2026-04-11T12:35:16Z</time></trkpt><trkpt lat="44.64603094367242" lon="10.080085129266841"><ele>499.0</ele><time>2026-04-11T12:35:17Z</time></trkpt><trkpt lat="44.64577900761762" lon="10.07991178567087"><ele>499.0</ele><time>2026-04-11T12:35:18Z</time></trkpt><trkpt lat="44.64551572099577" lon="10.079749734655138"><ele>499.0</ele><time>2026-04-11T12:35:19Z</time></trkpt><trkpt lat="44.64523676261949" lon="10.079625587544584"><ele>509.0</ele><time>2026-04-11T12:35:20Z</time></trkpt><trkpt lat="44.64496635125886" lon="10.079512865609189"><ele>519.0</ele><time>2026-04-11T12:35:21Z</time></trkpt><trkpt lat="44.64473326792366" lon="10.079405621545607"><ele>519.0</ele><time>2026-04-11T12:35:22Z</time></trkpt><trkpt lat="44.64454819054594" lon="10.07931848428287"><ele>519.0</ele><time>2026-04-11T12:35:23Z</time></trkpt><trkpt lat="44.644420197413446" lon="10.079199700244018"><ele>519.0</ele><time>2026-04-11T12:35:24Z</time></trkpt><trkpt lat="44.64434635421672" lon="10.07904261750144"><ele>525.6666666666666</ele><time>2026-04-11T12:35:25Z</time></trkpt><trkpt lat="44.644279971348766" lon="10.078822275287196"><ele>532.3333333333333</ele><time>2026-04-11T12:35:26Z</time></trkpt><trkpt lat="44.64427582026076" lon="10.078559403004645"><ele>539.0</ele><time>2026-04-11T12:35:27Z</time></trkpt><trkpt lat="44.644277634778675" lon="10.078226219423382"><ele>539.0</ele><time>2026-04-11T12:35:28Z</time></trkpt><trkpt lat="44.644274284292436" lon="10.07791810169522"><ele>539.0</ele><time>2026-04-11T12:35:29Z</time></trkpt><trkpt lat="44.64423103410739" lon="10.077682563836309"><ele>539.0</ele><time>2026-04-11T12:35:30Z</time></trkpt><trkpt lat="44.64416476766413" lon="10.07750827030303"><ele>538.3333333333333</ele><time>2026-04-11T12:35:31Z</time></trkpt><trkpt lat="44.64402157280914" lon="10.07736957713955"><ele>537.6666666666666</ele><time>2026-04-11T12:35:32Z</time></trkpt><trkpt lat="44.643817529227455" lon="10.077298114618683"><ele>537.0</ele><time>2026-04-11T12:35:33Z</time></trkpt><trkpt lat="44.64360447280306" lon="10.077223398361337"><ele>537.0</ele><time>2026-04-11T12:35:34Z</time></trkpt><trkpt lat="44.64344836745708" lon="10.077176703081182"><ele>537.0</ele><time>2026-04-11T12:35:35Z</time></trkpt><trkpt lat="44.64332028917223" lon="10.077204085220975"><ele>537.0</ele><time>2026-04-11T12:35:36Z</time></trkpt><trkpt lat="44.643194399827735" lon="10.077331187271637"><ele>537.0</ele><time>2026-04-11T12:35:37Z</time></trkpt><trkpt lat="44.64310288234395" lon="10.077566699087338"><ele>542.0</ele><time>2026-04-11T12:35:38Z</time></trkpt><trkpt lat="44.64300275940418" lon="10.07790158901468"><ele>547.0</ele><time>2026-04-11T12:35:39Z</time></trkpt><trkpt lat="44.64284234279597" lon="10.078122655315399"><ele>551.3333333333334</ele><time>2026-04-11T12:35:40Z</time></trkpt><trkpt lat="44.64264843178293" lon="10.078274220623587"><ele>555.6666666666666</ele><time>2026-04-11T12:35:41Z</time></trkpt><trkpt lat="44.642446840709674" lon="10.07834635222897"><ele>560.0</ele><time>2026-04-11T12:35:42Z</time></trkpt><trkpt lat="44.642254973917666" lon="10.078317076776017"><ele>558.0</ele><time>2026-04-11T12:35:43Z</time></trkpt><trkpt lat="44.642040865298135" lon="10.07824983315223"><ele>556.0</ele><time>2026-04-11T12:35:44Z</time></trkpt><trkpt lat="44.64181055675839" lon="10.078156338736576"><ele>556.0</ele><time>2026-04-11T12:35:45Z</time></trkpt><trkpt lat="44.641629685559266" lon="10.078060807266677"><ele>556.0</ele><time>2026-04-11T12:35:46Z</time></trkpt><trkpt lat="44.641511275350624" lon="10.078028169462279"><ele>556.0</ele><time>2026-04-11T12:35:47Z</time></trkpt><trkpt lat="44.64138682276685" lon="10.078090585110889"><ele>556.0</ele><time>2026-04-11T12:35:48Z</time></trkpt><trkpt lat="44.641240648093664" lon="10.078266352174847"><ele>562.0</ele><time>2026-04-11T12:35:49Z</time></trkpt><trkpt lat="44.641053871670124" lon="10.078461676031306"><ele>568.0</ele><time>2026-04-11T12:35:50Z</time></trkpt><trkpt lat="44.64083624252917" lon="10.078639630809944"><ele>568.0</ele><time>2026-04-11T12:35:51Z</time></trkpt><trkpt lat="44.64068198199458" lon="10.078810748643493"><ele>568.0</ele><time>2026-04-11T12:35:52Z</time></trkpt><trkpt lat="44.640501470197286" lon="10.078988104176668"><ele>568.0</ele><time>2026-04-11T12:35:53Z</time></trkpt><trkpt lat="44.640323817898306" lon="10.079135647556761"><ele>573.0</ele><time>2026-04-11T12:35:54Z</time></trkpt><trkpt lat="44.640111062938246" lon="10.079193714511957"><ele>578.0</ele><time>2026-04-11T12:35:55Z</time></trkpt><trkpt lat="44.63987341309108" lon="10.079194433515218"><ele>578.0</ele><time>2026-04-11T12:35:56Z</time></trkpt><trkpt lat="44.63961102299577" lon="10.079181810818126"><ele>578.0</ele><time>2026-04-11T12:35:57Z</time></trkpt><trkpt lat="44.63936327450521" lon="10.079169201195764"><ele>579.5</ele><time>2026-04-11T12:35:58Z</time></trkpt><trkpt lat="44.63911425279636" lon="10.079169227228794"><ele>581.0</ele><time>2026-04-11T12:35:59Z</time></trkpt><trkpt lat="44.63885315491225" lon="10.079161188852812"><ele>580.5</ele><time>2026-04-11T12:36:00Z</time></trkpt><trkpt lat="44.63859704085478" lon="10.079190855745743"><ele>580.0</ele><time>2026-04-11T12:36:01Z</time></trkpt><trkpt lat="44.63833656564495" lon="10.079257132102972"><ele>580.0</ele><time>2026-04-11T12:36:02Z</time></trkpt><trkpt lat="44.63810152426208" lon="10.079345749452774"><ele>580.0</ele><time>2026-04-11T12:36:03Z</time></trkpt><trkpt lat="44.63784933377177" lon="10.079379022874251"><ele>581.0</ele><time>2026-04-11T12:36:04Z</time></trkpt><trkpt lat="44.63757519868177" lon="10.079440097849574"><ele>582.0</ele><time>2026-04-11T12:36:05Z</time></trkpt><trkpt lat="44.6373074171564" lon="10.079520396906924"><ele>582.0</ele><time>2026-04-11T12:36:06Z</time></trkpt><trkpt lat="44.63706790207846" lon="10.079566436399373"><ele>582.0</ele><time>2026-04-11T12:36:07Z</time></trkpt><trkpt lat="44.63684755307394" lon="10.079543979561151"><ele>581.0</ele><time>2026-04-11T12:36:08Z</time></trkpt><trkpt lat="44.63661832730961" lon="10.079485504685776"><ele>580.0</ele><time>2026-04-11T12:36:09Z</time></trkpt><trkpt lat="44.63637678178565" lon="10.079428407654756"><ele>583.0</ele><time>2026-04-11T12:36:10Z</time></trkpt><trkpt lat="44.6361305670561" lon="10.079371163907973"><ele>586.0</ele><time>2026-04-11T12:36:11Z</time></trkpt><trkpt lat="44.635884861995386" lon="10.079293483759107"><ele>586.0</ele><time>2026-04-11T12:36:12Z</time></trkpt><trkpt lat="44.63566545075837" lon="10.07917693984057"><ele>586.0</ele><time>2026-04-11T12:36:13Z</time></trkpt><trkpt lat="44.6354995673858" lon="10.079046022405349"><ele>586.0</ele><time>2026-04-11T12:36:14Z</time></trkpt><trkpt lat="44.63535403284206" lon="10.078923158568474"><ele>585.0</ele><time>2026-04-11T12:36:15Z</time></trkpt><trkpt lat="44.63521137314174" lon="10.078814509838487"><ele>584.0</ele><time>2026-04-11T12:36:16Z</time></trkpt><trkpt lat="44.63506642518632" lon="10.078719503269028"><ele>583.0</ele><time>2026-04-11T12:36:17Z</time></trkpt><trkpt lat="44.63490321480378" lon="10.078663551486136"><ele>583.0</ele><time>2026-04-11T12:36:18Z</time></trkpt><trkpt lat="44.63472187503023" lon="10.078646989577436"><ele>583.0</ele><time>2026-04-11T12:36:19Z</time></trkpt><trkpt lat="44.63452977794089" lon="10.078676262567646"><ele>583.0</ele><time>2026-04-11T12:36:19.999Z</time></trkpt><trkpt lat="44.63431714676289" lon="10.078731079070671"><ele>584.5</ele><time>2026-04-11T12:36:20.999Z</time></trkpt><trkpt lat="44.63407774560496" lon="10.078782861880866"><ele>586.0</ele><time>2026-04-11T12:36:21.999Z</time></trkpt><trkpt lat="44.63381374349407" lon="10.078839131650701"><ele>587.0</ele><time>2026-04-11T12:36:22.999Z</time></trkpt><trkpt lat="44.63356638944374" lon="10.07885464941664"><ele>588.0</ele><time>2026-04-11T12:36:23.999Z</time></trkpt><trkpt lat="44.6333435444254" lon="10.078901911434533"><ele>588.0</ele><time>2026-04-11T12:36:24.999Z</time></trkpt><trkpt lat="44.633123247347626" lon="10.078933707441628"><ele>588.0</ele><time>2026-04-11T12:36:25.999Z</time></trkpt><trkpt lat="44.63290794282217" lon="10.078945091093894"><ele>588.0</ele><time>2026-04-11T12:36:26.999Z</time></trkpt><trkpt lat="44.63271011124458" lon="10.078994026015188"><ele>590.0</ele><time>2026-04-11T12:36:27.999Z</time></trkpt><trkpt lat="44.63251501759737" lon="10.079017592287906"><ele>592.0</ele><time>2026-04-11T12:36:28.999Z</time></trkpt><trkpt lat="44.63232235697181" lon="10.079048860197855"><ele>594.0</ele><time>2026-04-11T12:36:29.999Z</time></trkpt><trkpt lat="44.63213687612108" lon="10.079077875491011"><ele>594.3333333333334</ele><time>2026-04-11T12:36:30.999Z</time></trkpt><trkpt lat="44.63195002784787" lon="10.079082481595027"><ele>594.6666666666667</ele><time>2026-04-11T12:36:31.999Z</time></trkpt><trkpt lat="44.631784350319776" lon="10.079095755234194"><ele>595.0</ele><time>2026-04-11T12:36:32.999Z</time></trkpt><trkpt lat="44.631639538766755" lon="10.079103871607654"><ele>597.0</ele><time>2026-04-11T12:36:33.999Z</time></trkpt><trkpt lat="44.63148374733881" lon="10.07900249038744"><ele>599.0</ele><time>2026-04-11T12:36:34.999Z</time></trkpt><trkpt lat="44.631337681558435" lon="10.078803921057315"><ele>601.0</ele><time>2026-04-11T12:36:35.999Z</time></trkpt><trkpt lat="44.63119021643922" lon="10.07856274615148"><ele>602.3333333333334</ele><time>2026-04-11T12:36:36.999Z</time></trkpt><trkpt lat="44.63105583014649" lon="10.078363466029485"><ele>603.6666666666666</ele><time>2026-04-11T12:36:37.999Z</time></trkpt><trkpt lat="44.63092716504607" lon="10.078227355508835"><ele>605.0</ele><time>2026-04-11T12:36:38.999Z</time></trkpt><trkpt lat="44.630780423596185" lon="10.078149798452827"><ele>605.0</ele><time>2026-04-11T12:36:39.999Z</time></trkpt><trkpt lat="44.63060861623355" lon="10.078175711344088"><ele>605.0</ele><time>2026-04-11T12:36:40.999Z</time></trkpt><trkpt lat="44.63043025121632" lon="10.078294205530934"><ele>605.0</ele><time>2026-04-11T12:36:41.999Z</time></trkpt><trkpt lat="44.6302619241521" lon="10.078480977492662"><ele>609.0</ele><time>2026-04-11T12:36:42.999Z</time></trkpt><trkpt lat="44.63012544715196" lon="10.078700479773127"><ele>613.0</ele><time>2026-04-11T12:36:43.999Z</time></trkpt><trkpt lat="44.63002924538711" lon="10.078911388213868"><ele>617.0</ele><time>2026-04-11T12:36:44.999Z</time></trkpt><trkpt lat="44.62990706683087" lon="10.079030699656974"><ele>615.6666666666666</ele><time>2026-04-11T12:36:45.999Z</time></trkpt><trkpt lat="44.629746991887224" lon="10.0791030076582"><ele>614.3333333333334</ele><time>2026-04-11T12:36:46.999Z</time></trkpt><trkpt lat="44.629570276737766" lon="10.079104421309822"><ele>613.0</ele><time>2026-04-11T12:36:47.999Z</time></trkpt><trkpt lat="44.629339634040456" lon="10.079113823512174"><ele>613.0</ele><time>2026-04-11T12:36:48.999Z</time></trkpt><trkpt lat="44.62913040461825" lon="10.079082061584518"><ele>613.0</ele><time>2026-04-11T12:36:49.999Z</time></trkpt><trkpt lat="44.62896106989634" lon="10.079079077437905"><ele>613.0</ele><time>2026-04-11T12:36:50.999Z</time></trkpt><trkpt lat="44.62882182898663" lon="10.07914913905213"><ele>613.0</ele><time>2026-04-11T12:36:51.999Z</time></trkpt><trkpt lat="44.62871201817859" lon="10.079299996249814"><ele>613.0</ele><time>2026-04-11T12:36:52.999Z</time></trkpt><trkpt lat="44.62866545162604" lon="10.079511201161115"><ele>613.0</ele><time>2026-04-11T12:36:53.999Z</time></trkpt><trkpt lat="44.62866825103227" lon="10.079775601325236"><ele>614.5</ele><time>2026-04-11T12:36:54.999Z</time></trkpt><trkpt lat="44.62866228824257" lon="10.079968098741187"><ele>616.0</ele><time>2026-04-11T12:36:55.999Z</time></trkpt><trkpt lat="44.62858406771206" lon="10.080104451827554"><ele>617.5</ele><time>2026-04-11T12:36:56.999Z</time></trkpt><trkpt lat="44.6284395872537" lon="10.08014840133495"><ele>619.0</ele><time>2026-04-11T12:36:57.999Z</time></trkpt><trkpt lat="44.628298399308655" lon="10.08008072531061"><ele>622.0</ele><time>2026-04-11T12:36:58.999Z</time></trkpt><trkpt lat="44.628189326598594" lon="10.079912935911443"><ele>625.0</ele><time>2026-04-11T12:36:59.999Z</time></trkpt><trkpt lat="44.62809607778618" lon="10.079694811408869"><ele>628.0</ele><time>2026-04-11T12:37:00.999Z</time></trkpt><trkpt lat="44.627947915321776" lon="10.079548868077554"><ele>629.6666666666667</ele><time>2026-04-11T12:37:01.999Z</time></trkpt><trkpt lat="44.62776372536126" lon="10.079531032163873"><ele>631.3333333333334</ele><time>2026-04-11T12:37:02.999Z</time></trkpt><trkpt lat="44.62758313191283" lon="10.079552529676969"><ele>633.0</ele><time>2026-04-11T12:37:03.999Z</time></trkpt><trkpt lat="44.6274225379882" lon="10.079548328984579"><ele>633.0</ele><time>2026-04-11T12:37:04.999Z</time></trkpt><trkpt lat="44.627278637655955" lon="10.079510022436674"><ele>633.0</ele><time>2026-04-11T12:37:05.999Z</time></trkpt><trkpt lat="44.627154754919104" lon="10.079426649408212"><ele>633.0</ele><time>2026-04-11T12:37:06.999Z</time></trkpt><trkpt lat="44.62700396687678" lon="10.079288895716564"><ele>634.0</ele><time>2026-04-11T12:37:07.999Z</time></trkpt><trkpt lat="44.62682273236607" lon="10.07910240489068"><ele>635.0</ele><time>2026-04-11T12:37:08.999Z</time></trkpt><trkpt lat="44.62665299358888" lon="10.078912890944434"><ele>636.0</ele><time>2026-04-11T12:37:09.999Z</time></trkpt><trkpt lat="44.626496723935446" lon="10.078721352363754"><ele>636.0</ele><time>2026-04-11T12:37:10.999Z</time></trkpt><trkpt lat="44.626342290276604" lon="10.078549198529892"><ele>636.0</ele><time>2026-04-11T12:37:11.999Z</time></trkpt><trkpt lat="44.626180512448144" lon="10.07841944282117"><ele>636.0</ele><time>2026-04-11T12:37:12.999Z</time></trkpt><trkpt lat="44.62600332112755" lon="10.078338871198715"><ele>635.0</ele><time>2026-04-11T12:37:13.999Z</time></trkpt><trkpt lat="44.62580900449654" lon="10.078327352867404"><ele>634.0</ele><time>2026-04-11T12:37:14.999Z</time></trkpt><trkpt lat="44.62560509243224" lon="10.078399823802467"><ele>633.0</ele><time>2026-04-11T12:37:15.999Z</time></trkpt><trkpt lat="44.62542738472652" lon="10.078532022430963"><ele>638.0</ele><time>2026-04-11T12:37:16.999Z</time></trkpt><trkpt lat="44.62523627894246" lon="10.078692589471462"><ele>643.0</ele><time>2026-04-11T12:37:18Z</time></trkpt><trkpt lat="44.62503124521528" lon="10.07884710232595"><ele>643.0</ele><time>2026-04-11T12:37:19Z</time></trkpt><trkpt lat="44.624846692282645" lon="10.078964792795498"><ele>643.0</ele><time>2026-04-11T12:37:20Z</time></trkpt><trkpt lat="44.62469484224495" lon="10.079055843797171"><ele>643.0</ele><time>2026-04-11T12:37:21Z</time></trkpt><trkpt lat="44.6245764311884" lon="10.079111352670472"><ele>644.6666666666667</ele><time>2026-04-11T12:37:22Z</time></trkpt><trkpt lat="44.62445401049778" lon="10.079096173505475"><ele>646.3333333333334</ele><time>2026-04-11T12:37:23Z</time></trkpt><trkpt lat="44.624303763892854" lon="10.078964618584953"><ele>648.0</ele><time>2026-04-11T12:37:24Z</time></trkpt><trkpt lat="44.624156245281156" lon="10.07881104085551"><ele>648.0</ele><time>2026-04-11T12:37:25Z</time></trkpt><trkpt lat="44.6240601063751" lon="10.078633090101114"><ele>648.0</ele><time>2026-04-11T12:37:26Z</time></trkpt><trkpt lat="44.62402938784459" lon="10.078384479480373"><ele>648.0</ele><time>2026-04-11T12:37:27Z</time></trkpt><trkpt lat="44.62404176614838" lon="10.07813067811693"><ele>648.6666666666666</ele><time>2026-04-11T12:37:28Z</time></trkpt><trkpt lat="44.62400194141504" lon="10.077897667682759"><ele>649.3333333333333</ele><time>2026-04-11T12:37:29Z</time></trkpt><trkpt lat="44.62387751361785" lon="10.077722478150383"><ele>650.0</ele><time>2026-04-11T12:37:30Z</time></trkpt><trkpt lat="44.623711587785515" lon="10.077579902549587"><ele>649.6666666666666</ele><time>2026-04-11T12:37:31Z</time></trkpt><trkpt lat="44.62360300415097" lon="10.07741406662467"><ele>649.3333333333334</ele><time>2026-04-11T12:37:32Z</time></trkpt><trkpt lat="44.62363822504416" lon="10.077200811503054"><ele>649.0</ele><time>2026-04-11T12:37:33Z</time></trkpt><trkpt lat="44.62365386028553" lon="10.07693967446575"><ele>648.6666666666667</ele><time>2026-04-11T12:37:34Z</time></trkpt><trkpt lat="44.623653447150836" lon="10.076692420785655"><ele>648.3333333333334</ele><time>2026-04-11T12:37:35Z</time></trkpt><trkpt lat="44.62361087149459" lon="10.076486908134742"><ele>648.0</ele><time>2026-04-11T12:37:36Z</time></trkpt><trkpt lat="44.623488985626025" lon="10.076313458186654"><ele>649.6666666666666</ele><time>2026-04-11T12:37:37Z</time></trkpt><trkpt lat="44.62331415908111" lon="10.076170424833832"><ele>651.3333333333333</ele><time>2026-04-11T12:37:38Z</time></trkpt><trkpt lat="44.62313473927739" lon="10.076072927230936"><ele>653.0</ele><time>2026-04-11T12:37:39Z</time></trkpt><trkpt lat="44.622931382166946" lon="10.07598707073574"><ele>654.3333333333333</ele><time>2026-04-11T12:37:40Z</time></trkpt><trkpt lat="44.622727060280226" lon="10.075963741541988"><ele>655.6666666666666</ele><time>2026-04-11T12:37:41Z</time></trkpt><trkpt lat="44.62254114141429" lon="10.076014702048537"><ele>657.0</ele><time>2026-04-11T12:37:42Z</time></trkpt><trkpt lat="44.62239280289388" lon="10.076143374000749"><ele>657.0</ele><time>2026-04-11T12:37:43Z</time></trkpt><trkpt lat="44.62229104899576" lon="10.076334939735643"><ele>657.0</ele><time>2026-04-11T12:37:44Z</time></trkpt><trkpt lat="44.62221674998528" lon="10.076495032711453"><ele>657.0</ele><time>2026-04-11T12:37:45Z</time></trkpt><trkpt lat="44.62210202627761" lon="10.076532347576672"><ele>657.0</ele><time>2026-04-11T12:37:46Z</time></trkpt><trkpt lat="44.62199193313632" lon="10.076462824243388"><ele>657.6666666666666</ele><time>2026-04-11T12:37:47Z</time></trkpt><trkpt lat="44.62190747434386" lon="10.076277321151597"><ele>658.3333333333333</ele><time>2026-04-11T12:37:48Z</time></trkpt><trkpt lat="44.621760255744704" lon="10.076090597312952"><ele>659.0</ele><time>2026-04-11T12:37:49Z</time></trkpt><trkpt lat="44.62162839452539" lon="10.075904033109298"><ele>658.3333333333333</ele><time>2026-04-11T12:37:50Z</time></trkpt><trkpt lat="44.62150139422675" lon="10.07573192349629"><ele>657.6666666666666</ele><time>2026-04-11T12:37:51Z</time></trkpt><trkpt lat="44.62136757009377" lon="10.075541695901398"><ele>657.0</ele><time>2026-04-11T12:37:52Z</time></trkpt><trkpt lat="44.62121606243998" lon="10.075315829439282"><ele>659.0</ele><time>2026-04-11T12:37:53Z</time></trkpt><trkpt lat="44.621065267408774" lon="10.075105252981471"><ele>661.0</ele><time>2026-04-11T12:37:54Z</time></trkpt><trkpt lat="44.62094687174466" lon="10.074872218606922"><ele>663.0</ele><time>2026-04-11T12:37:55Z</time></trkpt><trkpt lat="44.62083375424652" lon="10.074627277613235"><ele>663.0</ele><time>2026-04-11T12:37:56Z</time></trkpt><trkpt lat="44.62073690428225" lon="10.074394640675106"><ele>663.0</ele><time>2026-04-11T12:37:57Z</time></trkpt><trkpt lat="44.62058956256539" lon="10.074223589255668"><ele>663.0</ele><time>2026-04-11T12:37:58Z</time></trkpt><trkpt lat="44.6203886514059" lon="10.07413438453535"><ele>667.6666666666666</ele><time>2026-04-11T12:37:59Z</time></trkpt><trkpt lat="44.62018070617452" lon="10.074069751938213"><ele>672.3333333333333</ele><time>2026-04-11T12:38:00Z</time></trkpt><trkpt lat="44.62000740486574" lon="10.07392578477845"><ele>677.0</ele><time>2026-04-11T12:38:01Z</time></trkpt><trkpt lat="44.619887436955274" lon="10.073751631175604"><ele>677.0</ele><time>2026-04-11T12:38:02Z</time></trkpt><trkpt lat="44.61982124233978" lon="10.073523279881336"><ele>677.0</ele><time>2026-04-11T12:38:03Z</time></trkpt><trkpt lat="44.6198139297218" lon="10.073262695493481"><ele>677.0</ele><time>2026-04-11T12:38:04Z</time></trkpt><trkpt lat="44.61983443722843" lon="10.07297542373045"><ele>676.75</ele><time>2026-04-11T12:38:05Z</time></trkpt><trkpt lat="44.61984572430563" lon="10.072726194577049"><ele>676.5</ele><time>2026-04-11T12:38:06Z</time></trkpt><trkpt lat="44.61987148480604" lon="10.072537457616619"><ele>676.25</ele><time>2026-04-11T12:38:07Z</time></trkpt><trkpt lat="44.61985665943038" lon="10.072418610878774"><ele>676.0</ele><time>2026-04-11T12:38:08Z</time></trkpt><trkpt lat="44.61977969631583" lon="10.072325425100093"><ele>678.3333333333334</ele><time>2026-04-11T12:38:09Z</time></trkpt><trkpt lat="44.61963972920965" lon="10.072291362654136"><ele>680.6666666666666</ele><time>2026-04-11T12:38:10Z</time></trkpt><trkpt lat="44.61944924744878" lon="10.072310838236449"><ele>683.0</ele><time>2026-04-11T12:38:11Z</time></trkpt><trkpt lat="44.619246738153535" lon="10.072313114793191"><ele>683.0</ele><time>2026-04-11T12:38:12Z</time></trkpt><trkpt lat="44.61905182792793" lon="10.072274311816098"><ele>683.0</ele><time>2026-04-11T12:38:13Z</time></trkpt><trkpt lat="44.61886560223815" lon="10.072236201716333"><ele>683.0</ele><time>2026-04-11T12:38:14Z</time></trkpt><trkpt lat="44.61865858634391" lon="10.072234971871879"><ele>688.6666666666666</ele><time>2026-04-11T12:38:15Z</time></trkpt><trkpt lat="44.61846884115156" lon="10.072222764900271"><ele>694.3333333333334</ele><time>2026-04-11T12:38:16Z</time></trkpt><trkpt lat="44.61830712189862" lon="10.072134709223272"><ele>700.0</ele><time>2026-04-11T12:38:17Z</time></trkpt><trkpt lat="44.618180390237036" lon="10.072028494209007"><ele>700.0</ele><time>2026-04-11T12:38:18Z</time></trkpt><trkpt lat="44.618109530865446" lon="10.071886698250148"><ele>700.0</ele><time>2026-04-11T12:38:19Z</time></trkpt><trkpt lat="44.618104781607755" lon="10.071697965651062"><ele>700.0</ele><time>2026-04-11T12:38:20Z</time></trkpt><trkpt lat="44.61815854404334" lon="10.071501718328049"><ele>700.0</ele><time>2026-04-11T12:38:21Z</time></trkpt><trkpt lat="44.61821853016586" lon="10.071225386829902"><ele>701.3333333333334</ele><time>2026-04-11T12:38:22Z</time></trkpt><trkpt lat="44.618233830794644" lon="10.070936703518063"><ele>702.6666666666666</ele><time>2026-04-11T12:38:23Z</time></trkpt><trkpt lat="44.618223352390594" lon="10.070649337574839"><ele>704.0</ele><time>2026-04-11T12:38:24Z</time></trkpt><trkpt lat="44.61819450434325" lon="10.070367329408912"><ele>705.3333333333333</ele><time>2026-04-11T12:38:25Z</time></trkpt><trkpt lat="44.61822570778382" lon="10.070098155464239"><ele>706.6666666666666</ele><time>2026-04-11T12:38:26Z</time></trkpt><trkpt lat="44.61827760204547" lon="10.06979307080617"><ele>708.0</ele><time>2026-04-11T12:38:26.999Z</time></trkpt><trkpt lat="44.61832615984235" lon="10.069518761468268"><ele>709.3333333333334</ele><time>2026-04-11T12:38:27.999Z</time></trkpt><trkpt lat="44.618355468501974" lon="10.069287344203907"><ele>710.6666666666667</ele><time>2026-04-11T12:38:28.999Z</time></trkpt><trkpt lat="44.6183623563544" lon="10.069080421820738"><ele>712.0</ele><time>2026-04-11T12:38:29.999Z</time></trkpt><trkpt lat="44.618308462299524" lon="10.06888101569548"><ele>712.0</ele><time>2026-04-11T12:38:30.999Z</time></trkpt><trkpt lat="44.61818225707056" lon="10.068690699722326"><ele>712.0</ele><time>2026-04-11T12:38:31.999Z</time></trkpt><trkpt lat="44.61802758192187" lon="10.0684932595726"><ele>712.0</ele><time>2026-04-11T12:38:32.999Z</time></trkpt><trkpt lat="44.617902194694" lon="10.068291398883083"><ele>717.3333333333334</ele><time>2026-04-11T12:38:33.999Z</time></trkpt><trkpt lat="44.61777738100695" lon="10.068081721066873"><ele>722.6666666666666</ele><time>2026-04-11T12:38:34.999Z</time></trkpt><trkpt lat="44.61769441051273" lon="10.067817874099935"><ele>728.0</ele><time>2026-04-11T12:38:35.999Z</time></trkpt><trkpt lat="44.617645145295725" lon="10.067542093640597"><ele>726.0</ele><time>2026-04-11T12:38:36.999Z</time></trkpt><trkpt lat="44.61757978194851" lon="10.067324926887691"><ele>724.0</ele><time>2026-04-11T12:38:37.999Z</time></trkpt><trkpt lat="44.61752083928357" lon="10.067151487955135"><ele>722.0</ele><time>2026-04-11T12:38:38.999Z</time></trkpt><trkpt lat="44.61738640411324" lon="10.067016411524387"><ele>722.0</ele><time>2026-04-11T12:38:39.999Z</time></trkpt><trkpt lat="44.61720084522223" lon="10.066898500981615"><ele>722.0</ele><time>2026-04-11T12:38:40.999Z</time></trkpt><trkpt lat="44.61701662204806" lon="10.066725903525072"><ele>722.0</ele><time>2026-04-11T12:38:41.999Z</time></trkpt><trkpt lat="44.61690184594949" lon="10.066483724438205"><ele>724.0</ele><time>2026-04-11T12:38:42.999Z</time></trkpt><trkpt lat="44.6167880360677" lon="10.066317553098992"><ele>726.0</ele><time>2026-04-11T12:38:43.999Z</time></trkpt><trkpt lat="44.616647906000644" lon="10.066201186329305"><ele>728.0</ele><time>2026-04-11T12:38:44.999Z</time></trkpt><trkpt lat="44.616436160768075" lon="10.066168458926954"><ele>728.0</ele><time>2026-04-11T12:38:45.999Z</time></trkpt><trkpt lat="44.61621053369972" lon="10.066137048795994"><ele>728.0</ele><time>2026-04-11T12:38:46.999Z</time></trkpt><trkpt lat="44.615987738580245" lon="10.066071528422578"><ele>732.0</ele><time>2026-04-11T12:38:47.999Z</time></trkpt><trkpt lat="44.615772676136444" lon="10.066001622913575"><ele>736.0</ele><time>2026-04-11T12:38:48.999Z</time></trkpt><trkpt lat="44.61558966762848" lon="10.065951449122519"><ele>740.0</ele><time>2026-04-11T12:38:49.999Z</time></trkpt><trkpt lat="44.61543453461455" lon="10.065915413464394"><ele>739.6666666666666</ele><time>2026-04-11T12:38:50.999Z</time></trkpt><trkpt lat="44.615308585164755" lon="10.065937616324872"><ele>739.3333333333334</ele><time>2026-04-11T12:38:51.999Z</time></trkpt><trkpt lat="44.61519401401517" lon="10.066083855749866"><ele>739.0</ele><time>2026-04-11T12:38:52.999Z</time></trkpt><trkpt lat="44.61506786015461" lon="10.066320877541713"><ele>739.0</ele><time>2026-04-11T12:38:53.999Z</time></trkpt><trkpt lat="44.61491979503645" lon="10.066563622223375"><ele>739.0</ele><time>2026-04-11T12:38:54.999Z</time></trkpt><trkpt lat="44.61476752950669" lon="10.066786041359826"><ele>739.0</ele><time>2026-04-11T12:38:55.999Z</time></trkpt><trkpt lat="44.614625510625615" lon="10.067010120181916"><ele>738.25</ele><time>2026-04-11T12:38:56.999Z</time></trkpt><trkpt lat="44.614526107889425" lon="10.067193969439263"><ele>737.5</ele><time>2026-04-11T12:38:57.999Z</time></trkpt><trkpt lat="44.61446189194646" lon="10.067362960010271"><ele>736.75</ele><time>2026-04-11T12:38:58.999Z</time></trkpt><trkpt lat="44.614457776087036" lon="10.067568988254582"><ele>736.0</ele><time>2026-04-11T12:38:59.999Z</time></trkpt><trkpt lat="44.61451517170399" lon="10.06781648756368"><ele>743.6666666666667</ele><time>2026-04-11T12:39:00.999Z</time></trkpt><trkpt lat="44.61456662100745" lon="10.068049090914458"><ele>751.3333333333334</ele><time>2026-04-11T12:39:01.999Z</time></trkpt><trkpt lat="44.61449599428943" lon="10.068254405160351"><ele>759.0</ele><time>2026-04-11T12:39:02.999Z</time></trkpt><trkpt lat="44.614363419252335" lon="10.068418366359369"><ele>759.0</ele><time>2026-04-11T12:39:03.999Z</time></trkpt><trkpt lat="44.61421065289705" lon="10.068606287383801"><ele>759.0</ele><time>2026-04-11T12:39:04.999Z</time></trkpt><trkpt lat="44.61405073488303" lon="10.068816016420065"><ele>759.0</ele><time>2026-04-11T12:39:05.999Z</time></trkpt><trkpt lat="44.61387252841569" lon="10.069016543369335"><ele>765.5</ele><time>2026-04-11T12:39:06.999Z</time></trkpt><trkpt lat="44.613679660489375" lon="10.06924239168358"><ele>772.0</ele><time>2026-04-11T12:39:07.999Z</time></trkpt><trkpt lat="44.61349054117869" lon="10.069471424138"><ele>772.0</ele><time>2026-04-11T12:39:08.999Z</time></trkpt><trkpt lat="44.613300775751895" lon="10.069695529186385"><ele>772.0</ele><time>2026-04-11T12:39:09.999Z</time></trkpt><trkpt lat="44.61308028143209" lon="10.069881989827923"><ele>777.0</ele><time>2026-04-11T12:39:10.999Z</time></trkpt><trkpt lat="44.61285909276877" lon="10.070043263466312"><ele>782.0</ele><time>2026-04-11T12:39:11.999Z</time></trkpt><trkpt lat="44.61263907347671" lon="10.070122530445293"><ele>782.5</ele><time>2026-04-11T12:39:12.999Z</time></trkpt><trkpt lat="44.61240225219224" lon="10.070134017909716"><ele>783.0</ele><time>2026-04-11T12:39:13.999Z</time></trkpt><trkpt lat="44.61215726631194" lon="10.070079912980384"><ele>786.0</ele><time>2026-04-11T12:39:14.999Z</time></trkpt><trkpt lat="44.611901151986245" lon="10.070014844140523"><ele>789.0</ele><time>2026-04-11T12:39:15.999Z</time></trkpt><trkpt lat="44.611675381609096" lon="10.069955880110681"><ele>787.0</ele><time>2026-04-11T12:39:16.999Z</time></trkpt><trkpt lat="44.61147914884022" lon="10.06991488109774"><ele>785.0</ele><time>2026-04-11T12:39:17.999Z</time></trkpt><trkpt lat="44.61133702374827" lon="10.069867371029416"><ele>783.0</ele><time>2026-04-11T12:39:18.999Z</time></trkpt><trkpt lat="44.61123596280865" lon="10.069871774520104"><ele>781.0</ele><time>2026-04-11T12:39:19.999Z</time></trkpt><trkpt lat="44.61113561194904" lon="10.06996886234665"><ele>781.0</ele><time>2026-04-11T12:39:20.999Z</time></trkpt><trkpt lat="44.61105259142521" lon="10.070173102296593"><ele>781.0</ele><time>2026-04-11T12:39:21.999Z</time></trkpt><trkpt lat="44.61101154091202" lon="10.070465657400486"><ele>781.0</ele><time>2026-04-11T12:39:22.999Z</time></trkpt><trkpt lat="44.61098185477733" lon="10.070802996765755"><ele>782.6666666666666</ele><time>2026-04-11T12:39:24Z</time></trkpt><trkpt lat="44.610935057947295" lon="10.071121184703227"><ele>784.3333333333333</ele><time>2026-04-11T12:39:25Z</time></trkpt><trkpt lat="44.610870324821846" lon="10.07140388361684"><ele>786.0</ele><time>2026-04-11T12:39:26Z</time></trkpt><trkpt lat="44.61076475946964" lon="10.07160727609497"><ele>786.3333333333333</ele><time>2026-04-11T12:39:27Z</time></trkpt><trkpt lat="44.61063258261738" lon="10.071698617297391"><ele>786.6666666666666</ele><time>2026-04-11T12:39:28Z</time></trkpt><trkpt lat="44.61047088778198" lon="10.071758769734474"><ele>787.0</ele><time>2026-04-11T12:39:29Z</time></trkpt><trkpt lat="44.610282236251585" lon="10.071789168813797"><ele>787.0</ele><time>2026-04-11T12:39:30Z</time></trkpt><trkpt lat="44.61008894447867" lon="10.071741596881008"><ele>787.0</ele><time>2026-04-11T12:39:31Z</time></trkpt><trkpt lat="44.60984813213981" lon="10.071666272516081"><ele>787.0</ele><time>2026-04-11T12:39:32Z</time></trkpt><trkpt lat="44.609606251453336" lon="10.071602068062326"><ele>780.0</ele><time>2026-04-11T12:39:33Z</time></trkpt><trkpt lat="44.609361251802135" lon="10.071514991929279"><ele>773.0</ele><time>2026-04-11T12:39:34Z</time></trkpt><trkpt lat="44.60911946370822" lon="10.071436707539727"><ele>773.0</ele><time>2026-04-11T12:39:35Z</time></trkpt><trkpt lat="44.60887064352204" lon="10.071355153769792"><ele>773.0</ele><time>2026-04-11T12:39:36Z</time></trkpt><trkpt lat="44.60864403798144" lon="10.071284451393145"><ele>773.0</ele><time>2026-04-11T12:39:37Z</time></trkpt><trkpt lat="44.60845349528975" lon="10.071227661914183"><ele>773.0</ele><time>2026-04-11T12:39:38Z</time></trkpt><trkpt lat="44.60829842794189" lon="10.071189516075624"><ele>773.0</ele><time>2026-04-11T12:39:39Z</time></trkpt><trkpt lat="44.608139080981395" lon="10.07119521794907"><ele>773.0</ele><time>2026-04-11T12:39:40Z</time></trkpt><trkpt lat="44.60797344376094" lon="10.07126805903763"><ele>773.0</ele><time>2026-04-11T12:39:41Z</time></trkpt><trkpt lat="44.60782922716119" lon="10.071414791598281"><ele>773.0</ele><time>2026-04-11T12:39:42Z</time></trkpt><trkpt lat="44.60768763522489" lon="10.071648333904424"><ele>775.0</ele><time>2026-04-11T12:39:43Z</time></trkpt><trkpt lat="44.60756449076078" lon="10.071872621233398"><ele>777.0</ele><time>2026-04-11T12:39:44Z</time></trkpt><trkpt lat="44.60743322071689" lon="10.07190617138607"><ele>779.0</ele><time>2026-04-11T12:39:45Z</time></trkpt><trkpt lat="44.6073063663384" lon="10.07189828945368"><ele>779.0</ele><time>2026-04-11T12:39:46Z</time></trkpt><trkpt lat="44.60714639310858" lon="10.071900962703646"><ele>779.0</ele><time>2026-04-11T12:39:47Z</time></trkpt><trkpt lat="44.60695034436226" lon="10.071903269157309"><ele>779.0</ele><time>2026-04-11T12:39:48Z</time></trkpt><trkpt lat="44.6067326345695" lon="10.07192774230567"><ele>775.6666666666667</ele><time>2026-04-11T12:39:49Z</time></trkpt><trkpt lat="44.606526331649164" lon="10.071917690560468"><ele>772.3333333333333</ele><time>2026-04-11T12:39:50Z</time></trkpt><trkpt lat="44.60633721832447" lon="10.071813118462941"><ele>769.0</ele><time>2026-04-11T12:39:51Z</time></trkpt><trkpt lat="44.606158414415695" lon="10.071760643369625"><ele>769.0</ele><time>2026-04-11T12:39:52Z</time></trkpt><trkpt lat="44.60600986554775" lon="10.071720380577219"><ele>769.0</ele><time>2026-04-11T12:39:53Z</time></trkpt><trkpt lat="44.60582491114267" lon="10.07181759243787"><ele>769.0</ele><time>2026-04-11T12:39:54Z</time></trkpt><trkpt lat="44.60560549402456" lon="10.071988241446887"><ele>769.0</ele><time>2026-04-11T12:39:55Z</time></trkpt><trkpt lat="44.605355600509995" lon="10.07210970301573"><ele>769.0</ele><time>2026-04-11T12:39:56Z</time></trkpt><trkpt lat="44.60508264791189" lon="10.072193989389671"><ele>767.5</ele><time>2026-04-11T12:39:57Z</time></trkpt><trkpt lat="44.60482975728479" lon="10.07228619792493"><ele>766.0</ele><time>2026-04-11T12:39:58Z</time></trkpt><trkpt lat="44.60462054404679" lon="10.072364965481569"><ele>767.3333333333334</ele><time>2026-04-11T12:39:59Z</time></trkpt><trkpt lat="44.60442855561391" lon="10.072385819394077"><ele>768.6666666666667</ele><time>2026-04-11T12:40:00Z</time></trkpt><trkpt lat="44.60425265507797" lon="10.072349414252335"><ele>770.0</ele><time>2026-04-11T12:40:01Z</time></trkpt><trkpt lat="44.60404538516468" lon="10.07226211642006"><ele>770.0</ele><time>2026-04-11T12:40:02Z</time></trkpt><trkpt lat="44.603795406679374" lon="10.072186378406487"><ele>770.0</ele><time>2026-04-11T12:40:03Z</time></trkpt><trkpt lat="44.603539312765925" lon="10.072162199499475"><ele>771.6666666666667</ele><time>2026-04-11T12:40:04Z</time></trkpt><trkpt lat="44.60333399429612" lon="10.072175531049687"><ele>773.3333333333333</ele><time>2026-04-11T12:40:05Z</time></trkpt><trkpt lat="44.60319998421177" lon="10.07215651447277"><ele>775.0</ele><time>2026-04-11T12:40:06Z</time></trkpt><trkpt lat="44.603105091385885" lon="10.072076655084956"><ele>775.0</ele><time>2026-04-11T12:40:07Z</time></trkpt><trkpt lat="44.60305417085763" lon="10.071898616862383"><ele>775.0</ele><time>2026-04-11T12:40:08Z</time></trkpt><trkpt lat="44.60296903002698" lon="10.071633100949962"><ele>775.0</ele><time>2026-04-11T12:40:09Z</time></trkpt><trkpt lat="44.60286025269734" lon="10.071314999921908"><ele>775.3333333333333</ele><time>2026-04-11T12:40:10Z</time></trkpt><trkpt lat="44.60276197438312" lon="10.071045357237109"><ele>775.6666666666667</ele><time>2026-04-11T12:40:11Z</time></trkpt><trkpt lat="44.602682944506405" lon="10.070851022057955"><ele>776.0</ele><time>2026-04-11T12:40:12Z</time></trkpt><trkpt lat="44.60259664182116" lon="10.070714311430901"><ele>776.0</ele><time>2026-04-11T12:40:13Z</time></trkpt><trkpt lat="44.60250996684162" lon="10.070630083421328"><ele>776.0</ele><time>2026-04-11T12:40:14Z</time></trkpt><trkpt lat="44.602363612822934" lon="10.070621822088418"><ele>776.0</ele><time>2026-04-11T12:40:15Z</time></trkpt><trkpt lat="44.602198982603184" lon="10.070747437272239"><ele>776.0</ele><time>2026-04-11T12:40:16Z</time></trkpt><trkpt lat="44.60201101689358" lon="10.070928756704749"><ele>782.0</ele><time>2026-04-11T12:40:17Z</time></trkpt><trkpt lat="44.601801989688056" lon="10.071157056552835"><ele>788.0</ele><time>2026-04-11T12:40:18Z</time></trkpt><trkpt lat="44.60158037335026" lon="10.071354915900082"><ele>788.0</ele><time>2026-04-11T12:40:19Z</time></trkpt><trkpt lat="44.60137261367559" lon="10.071539290484527"><ele>788.0</ele><time>2026-04-11T12:40:20Z</time></trkpt><trkpt lat="44.60120612930312" lon="10.071695606832916"><ele>788.0</ele><time>2026-04-11T12:40:21Z</time></trkpt><trkpt lat="44.601070209121204" lon="10.071810769650266"><ele>790.75</ele><time>2026-04-11T12:40:22Z</time></trkpt><trkpt lat="44.600959387369336" lon="10.071895498590521"><ele>793.5</ele><time>2026-04-11T12:40:23Z</time></trkpt><trkpt lat="44.60085933202307" lon="10.071949644997801"><ele>796.25</ele><time>2026-04-11T12:40:24Z</time></trkpt><trkpt lat="44.600749271889576" lon="10.071968421148648"><ele>799.0</ele><time>2026-04-11T12:40:25Z</time></trkpt><trkpt lat="44.60063810260381" lon="10.071895369866093"><ele>799.0</ele><time>2026-04-11T12:40:26Z</time></trkpt><trkpt lat="44.600550707417916" lon="10.071715735145848"><ele>799.0</ele><time>2026-04-11T12:40:27Z</time></trkpt><trkpt lat="44.60049494972212" lon="10.071433813014968"><ele>799.0</ele><time>2026-04-11T12:40:28Z</time></trkpt><trkpt lat="44.60047988562257" lon="10.071088230501802"><ele>800.0</ele><time>2026-04-11T12:40:29Z</time></trkpt><trkpt lat="44.60043961888534" lon="10.070770340213144"><ele>801.0</ele><time>2026-04-11T12:40:30Z</time></trkpt><trkpt lat="44.60020305825427" lon="10.070622063454698"><ele>801.0</ele><time>2026-04-11T12:40:30.999Z</time></trkpt><trkpt lat="44.599978979414225" lon="10.070466322905096"><ele>801.0</ele><time>2026-04-11T12:40:31.999Z</time></trkpt><trkpt lat="44.59974015316855" lon="10.070294689407994"><ele>801.0</ele><time>2026-04-11T12:40:32.999Z</time></trkpt><trkpt lat="44.599560117283055" lon="10.070149694129157"><ele>801.0</ele><time>2026-04-11T12:40:33.999Z</time></trkpt><trkpt lat="44.5994152842166" lon="10.070083277831676"><ele>801.0</ele><time>2026-04-11T12:40:34.999Z</time></trkpt><trkpt lat="44.59923840401569" lon="10.07015347013707"><ele>805.0</ele><time>2026-04-11T12:40:35.999Z</time></trkpt><trkpt lat="44.59902214210378" lon="10.07027110936905"><ele>809.0</ele><time>2026-04-11T12:40:36.999Z</time></trkpt><trkpt lat="44.598830201879196" lon="10.070361596780085"><ele>813.0</ele><time>2026-04-11T12:40:37.999Z</time></trkpt><trkpt lat="44.59867288038508" lon="10.070261989200299"><ele>820.0</ele><time>2026-04-11T12:40:38.999Z</time></trkpt><trkpt lat="44.598481921874715" lon="10.070107549603069"><ele>827.0</ele><time>2026-04-11T12:40:39.999Z</time></trkpt><trkpt lat="44.5982527732392" lon="10.070002104102713"><ele>832.0</ele><time>2026-04-11T12:40:40.999Z</time></trkpt><trkpt lat="44.59800468496183" lon="10.069927454952616"><ele>837.0</ele><time>2026-04-11T12:40:41.999Z</time></trkpt><trkpt lat="44.59772387522404" lon="10.069944468768313"><ele>839.0</ele><time>2026-04-11T12:40:42.999Z</time></trkpt><trkpt lat="44.597438675511526" lon="10.06997283990847"><ele>841.0</ele><time>2026-04-11T12:40:43.999Z</time></trkpt><trkpt lat="44.597183283745956" lon="10.069986140776994"><ele>841.6666666666666</ele><time>2026-04-11T12:40:44.999Z</time></trkpt><trkpt lat="44.59696247779744" lon="10.06998962714064"><ele>842.3333333333333</ele><time>2026-04-11T12:40:45.999Z</time></trkpt><trkpt lat="44.59677124652836" lon="10.069938656874655"><ele>843.0</ele><time>2026-04-11T12:40:46.999Z</time></trkpt><trkpt lat="44.59661518103759" lon="10.069843344003734"><ele>848.6666666666667</ele><time>2026-04-11T12:40:47.999Z</time></trkpt><trkpt lat="44.59650024124334" lon="10.069699362264394"><ele>854.3333333333334</ele><time>2026-04-11T12:40:48.999Z</time></trkpt><trkpt lat="44.59645354561224" lon="10.069524538135989"><ele>860.0</ele><time>2026-04-11T12:40:49.999Z</time></trkpt><trkpt lat="44.59641098537005" lon="10.069249939743779"><ele>864.0</ele><time>2026-04-11T12:40:50.999Z</time></trkpt><trkpt lat="44.59635190587514" lon="10.068899039458671"><ele>868.0</ele><time>2026-04-11T12:40:51.999Z</time></trkpt><trkpt lat="44.596223324522526" lon="10.06855743708142"><ele>858.5</ele><time>2026-04-11T12:40:52.999Z</time></trkpt><trkpt lat="44.596111940285724" lon="10.068197817191768"><ele>849.0</ele><time>2026-04-11T12:40:53.999Z</time></trkpt><trkpt lat="44.59594892788044" lon="10.067881099640479"><ele>849.0</ele><time>2026-04-11T12:40:54.999Z</time></trkpt><trkpt lat="44.59581980506419" lon="10.06759465589032"><ele>849.0</ele><time>2026-04-11T12:40:55.999Z</time></trkpt><trkpt lat="44.595802526890054" lon="10.067199802418854"><ele>855.0</ele><time>2026-04-11T12:40:56.999Z</time></trkpt><trkpt lat="44.59574723288036" lon="10.066795718808569"><ele>861.0</ele><time>2026-04-11T12:40:57.999Z</time></trkpt><trkpt lat="44.595719831080814" lon="10.066387920983654"><ele>864.5</ele><time>2026-04-11T12:40:58.999Z</time></trkpt><trkpt lat="44.59572377781677" lon="10.065985867126445"><ele>868.0</ele><time>2026-04-11T12:40:59.999Z</time></trkpt><trkpt lat="44.59574980473048" lon="10.065577701685667"><ele>873.0</ele><time>2026-04-11T12:41:00.999Z</time></trkpt><trkpt lat="44.59572628917239" lon="10.065182001006214"><ele>878.0</ele><time>2026-04-11T12:41:01.999Z</time></trkpt><trkpt lat="44.595696392488584" lon="10.0648243172792"><ele>879.6666666666667</ele><time>2026-04-11T12:41:02.999Z</time></trkpt><trkpt lat="44.595674473383745" lon="10.064498626196722"><ele>881.3333333333333</ele><time>2026-04-11T12:41:03.999Z</time></trkpt><trkpt lat="44.59568233094376" lon="10.064195473752504"><ele>883.0</ele><time>2026-04-11T12:41:04.999Z</time></trkpt><trkpt lat="44.595703360532475" lon="10.063866028955855"><ele>884.5</ele><time>2026-04-11T12:41:05.999Z</time></trkpt><trkpt lat="44.595779408304765" lon="10.063544686515602"><ele>886.0</ele><time>2026-04-11T12:41:06.999Z</time></trkpt><trkpt lat="44.595815818357636" lon="10.0632252859035"><ele>889.6666666666666</ele><time>2026-04-11T12:41:07.999Z</time></trkpt><trkpt lat="44.595824098305634" lon="10.06296615233079"><ele>893.3333333333333</ele><time>2026-04-11T12:41:08.999Z</time></trkpt><trkpt lat="44.59577107762386" lon="10.062679428866934"><ele>897.0</ele><time>2026-04-11T12:41:09.999Z</time></trkpt><trkpt lat="44.59562427985717" lon="10.06241662459388"><ele>894.0</ele><time>2026-04-11T12:41:10.999Z</time></trkpt><trkpt lat="44.59542677117527" lon="10.062175543457341"><ele>891.0</ele><time>2026-04-11T12:41:11.999Z</time></trkpt><trkpt lat="44.59521064278435" lon="10.0619472117145"><ele>891.0</ele><time>2026-04-11T12:41:12.999Z</time></trkpt><trkpt lat="44.595030524146246" lon="10.061717603497906"><ele>891.0</ele><time>2026-04-11T12:41:13.999Z</time></trkpt><trkpt lat="44.594864920421266" lon="10.061469887152507"><ele>891.0</ele><time>2026-04-11T12:41:14.999Z</time></trkpt><trkpt lat="44.59474241208298" lon="10.061175643702235"><ele>891.0</ele><time>2026-04-11T12:41:15.999Z</time></trkpt><trkpt lat="44.59464485513674" lon="10.06087451944382"><ele>888.0</ele><time>2026-04-11T12:41:16.999Z</time></trkpt><trkpt lat="44.594582184288214" lon="10.060556227352496"><ele>885.0</ele><time>2026-04-11T12:41:17.999Z</time></trkpt><trkpt lat="44.59451658543204" lon="10.06019117910525"><ele>881.0</ele><time>2026-04-11T12:41:18.999Z</time></trkpt><trkpt lat="44.59444837300162" lon="10.059800501188956"><ele>877.0</ele><time>2026-04-11T12:41:19.999Z</time></trkpt><trkpt lat="44.59436820877171" lon="10.059421422542194"><ele>877.5</ele><time>2026-04-11T12:41:20.999Z</time></trkpt><trkpt lat="44.59430817797223" lon="10.059068058399422"><ele>878.0</ele><time>2026-04-11T12:41:21.999Z</time></trkpt><trkpt lat="44.594236852519586" lon="10.058797821486124"><ele>878.0</ele><time>2026-04-11T12:41:22.999Z</time></trkpt><trkpt lat="44.594119884991386" lon="10.058579143858351"><ele>878.0</ele><time>2026-04-11T12:41:23.999Z</time></trkpt><trkpt lat="44.593914174835625" lon="10.058391279221478"><ele>878.0</ele><time>2026-04-11T12:41:24.999Z</time></trkpt><trkpt lat="44.59367861208282" lon="10.058232242584415"><ele>879.5</ele><time>2026-04-11T12:41:25.999Z</time></trkpt><trkpt lat="44.59347175814664" lon="10.05802843483715"><ele>881.0</ele><time>2026-04-11T12:41:26.999Z</time></trkpt><trkpt lat="44.59330708488494" lon="10.057725712708793"><ele>885.5</ele><time>2026-04-11T12:41:27.999Z</time></trkpt><trkpt lat="44.59319151152867" lon="10.057401426885303"><ele>890.0</ele><time>2026-04-11T12:41:28.999Z</time></trkpt><trkpt lat="44.59311737764052" lon="10.05711696377342"><ele>890.0</ele><time>2026-04-11T12:41:30Z</time></trkpt><trkpt lat="44.59313042073726" lon="10.056752596588561"><ele>890.0</ele><time>2026-04-11T12:41:31Z</time></trkpt><trkpt lat="44.59306624103788" lon="10.056433444471475"><ele>891.3333333333334</ele><time>2026-04-11T12:41:32Z</time></trkpt><trkpt lat="44.59298426302846" lon="10.056176716306958"><ele>892.6666666666667</ele><time>2026-04-11T12:41:33Z</time></trkpt><trkpt lat="44.59289918336151" lon="10.05591606848261"><ele>894.0</ele><time>2026-04-11T12:41:34Z</time></trkpt><trkpt lat="44.59273447248481" lon="10.055666545313166"><ele>901.5</ele><time>2026-04-11T12:41:35Z</time></trkpt><trkpt lat="44.59253146996383" lon="10.055444248652833"><ele>909.0</ele><time>2026-04-11T12:41:36Z</time></trkpt><trkpt lat="44.592372522924656" lon="10.055258418237015"><ele>909.0</ele><time>2026-04-11T12:41:37Z</time></trkpt><trkpt lat="44.592239281538596" lon="10.055140270148764"><ele>909.0</ele><time>2026-04-11T12:41:38Z</time></trkpt><trkpt lat="44.59208894404312" lon="10.055105730000156"><ele>909.0</ele><time>2026-04-11T12:41:39Z</time></trkpt><trkpt lat="44.59189580070631" lon="10.055176553539177"><ele>911.0</ele><time>2026-04-11T12:41:40Z</time></trkpt><trkpt lat="44.591669502863105" lon="10.05530043006519"><ele>913.0</ele><time>2026-04-11T12:41:41Z</time></trkpt><trkpt lat="44.59145858914028" lon="10.05538430445084"><ele>913.0</ele><time>2026-04-11T12:41:42Z</time></trkpt><trkpt lat="44.59130435231303" lon="10.055384188709716"><ele>913.0</ele><time>2026-04-11T12:41:43Z</time></trkpt><trkpt lat="44.59119932422371" lon="10.055236649442977"><ele>913.0</ele><time>2026-04-11T12:41:44Z</time></trkpt><trkpt lat="44.59109943755498" lon="10.05504880395224"><ele>914.3333333333333</ele><time>2026-04-11T12:41:45Z</time></trkpt><trkpt lat="44.591026155374095" lon="10.05477300558424"><ele>915.6666666666667</ele><time>2026-04-11T12:41:46Z</time></trkpt><trkpt lat="44.590931054994265" lon="10.054481479883734"><ele>917.0</ele><time>2026-04-11T12:41:47Z</time></trkpt><trkpt lat="44.59081647604559" lon="10.054300460815263"><ele>917.0</ele><time>2026-04-11T12:41:48Z</time></trkpt><trkpt lat="44.59066728932146" lon="10.054213372852438"><ele>917.0</ele><time>2026-04-11T12:41:49Z</time></trkpt><trkpt lat="44.590468536734804" lon="10.054213425958062"><ele>917.0</ele><time>2026-04-11T12:41:50Z</time></trkpt><trkpt lat="44.59026798052967" lon="10.054175666275981"><ele>920.0</ele><time>2026-04-11T12:41:51Z</time></trkpt><trkpt lat="44.59012267234272" lon="10.053951241109672"><ele>923.0</ele><time>2026-04-11T12:41:52Z</time></trkpt><trkpt lat="44.58991558149942" lon="10.053724304110176"><ele>923.0</ele><time>2026-04-11T12:41:53Z</time></trkpt><trkpt lat="44.589710004115695" lon="10.053522038776213"><ele>923.0</ele><time>2026-04-11T12:41:54Z</time></trkpt><trkpt lat="44.58955594932746" lon="10.053364495259352"><ele>923.0</ele><time>2026-04-11T12:41:55Z</time></trkpt><trkpt lat="44.589492131472795" lon="10.053086896356273"><ele>926.3333333333334</ele><time>2026-04-11T12:41:56Z</time></trkpt><trkpt lat="44.5894973096099" lon="10.052820096116088"><ele>929.6666666666667</ele><time>2026-04-11T12:41:57Z</time></trkpt><trkpt lat="44.5895078619531" lon="10.052607388081888"><ele>933.0</ele><time>2026-04-11T12:41:58Z</time></trkpt><trkpt lat="44.589521768889846" lon="10.0522446537066"><ele>933.0</ele><time>2026-04-11T12:41:59Z</time></trkpt><trkpt lat="44.58953784378938" lon="10.051859307598855"><ele>933.0</ele><time>2026-04-11T12:42:00Z</time></trkpt><trkpt lat="44.58954874572951" lon="10.051457286193749"><ele>934.0</ele><time>2026-04-11T12:42:01Z</time></trkpt><trkpt lat="44.58953777191378" lon="10.051079148253109"><ele>935.0</ele><time>2026-04-11T12:42:02Z</time></trkpt><trkpt lat="44.58949852712006" lon="10.050737273612693"><ele>924.5</ele><time>2026-04-11T12:42:03Z</time></trkpt><trkpt lat="44.58942460915906" lon="10.050419382062502"><ele>914.0</ele><time>2026-04-11T12:42:04Z</time></trkpt><trkpt lat="44.589314081483046" lon="10.050107724806482"><ele>921.0</ele><time>2026-04-11T12:42:05Z</time></trkpt><trkpt lat="44.589145113839145" lon="10.049818245677514"><ele>928.0</ele><time>2026-04-11T12:42:06Z</time></trkpt><trkpt lat="44.58893475899614" lon="10.049553157467823"><ele>928.0</ele><time>2026-04-11T12:42:07Z</time></trkpt><trkpt lat="44.58872035651984" lon="10.049325772623343"><ele>928.0</ele><time>2026-04-11T12:42:08Z</time></trkpt><trkpt lat="44.58851603837587" lon="10.049143477905831"><ele>920.5</ele><time>2026-04-11T12:42:09Z</time></trkpt><trkpt lat="44.58829443517313" lon="10.04901457723847"><ele>913.0</ele><time>2026-04-11T12:42:10Z</time></trkpt><trkpt lat="44.588052342617225" lon="10.048961552538362"><ele>905.3333333333333</ele><time>2026-04-11T12:42:11Z</time></trkpt><trkpt lat="44.587822525409905" lon="10.04897546228862"><ele>897.6666666666667</ele><time>2026-04-11T12:42:12Z</time></trkpt><trkpt lat="44.587641193053216" lon="10.0489896505887"><ele>890.0</ele><time>2026-04-11T12:42:13Z</time></trkpt><trkpt lat="44.5875138140069" lon="10.048974732442021"><ele>890.0</ele><time>2026-04-11T12:42:14Z</time></trkpt><trkpt lat="44.58745791665253" lon="10.048848560105801"><ele>890.0</ele><time>2026-04-11T12:42:15Z</time></trkpt><trkpt lat="44.58746593221097" lon="10.0486993688183"><ele>890.0</ele><time>2026-04-11T12:42:16Z</time></trkpt><trkpt lat="44.587543801934515" lon="10.048572391110094"><ele>890.0</ele><time>2026-04-11T12:42:17Z</time></trkpt><trkpt lat="44.58763968893433" lon="10.048323868095588"><ele>892.0</ele><time>2026-04-11T12:42:18Z</time></trkpt><trkpt lat="44.58774477116813" lon="10.048044796127906"><ele>894.0</ele><time>2026-04-11T12:42:19Z</time></trkpt><trkpt lat="44.58781142811362" lon="10.047820445180283"><ele>896.0</ele><time>2026-04-11T12:42:20Z</time></trkpt><trkpt lat="44.58780575072434" lon="10.047629863602033"><ele>896.0</ele><time>2026-04-11T12:42:21Z</time></trkpt><trkpt lat="44.58774436001634" lon="10.04746650850283"><ele>896.0</ele><time>2026-04-11T12:42:22Z</time></trkpt><trkpt lat="44.587603687509855" lon="10.04733299135325"><ele>896.0</ele><time>2026-04-11T12:42:23Z</time></trkpt><trkpt lat="44.58741570497803" lon="10.047284718581142"><ele>894.0</ele><time>2026-04-11T12:42:24Z</time></trkpt><trkpt lat="44.58718180608881" lon="10.047294742598911"><ele>892.0</ele><time>2026-04-11T12:42:25Z</time></trkpt><trkpt lat="44.586923331604154" lon="10.047280903816638"><ele>892.0</ele><time>2026-04-11T12:42:26Z</time></trkpt><trkpt lat="44.586658255815465" lon="10.047258113622112"><ele>892.0</ele><time>2026-04-11T12:42:27Z</time></trkpt><trkpt lat="44.58644428629614" lon="10.047251705727744"><ele>892.0</ele><time>2026-04-11T12:42:28Z</time></trkpt><trkpt lat="44.58628537832784" lon="10.047243317895841"><ele>892.0</ele><time>2026-04-11T12:42:29Z</time></trkpt><trkpt lat="44.586190770026725" lon="10.04716567034596"><ele>892.0</ele><time>2026-04-11T12:42:30Z</time></trkpt><trkpt lat="44.58617654381447" lon="10.047014820902584"><ele>892.0</ele><time>2026-04-11T12:42:31Z</time></trkpt><trkpt lat="44.58617672849095" lon="10.046847537220508"><ele>890.0</ele><time>2026-04-11T12:42:32Z</time></trkpt><trkpt lat="44.586228243015334" lon="10.04661927371938"><ele>888.0</ele><time>2026-04-11T12:42:33Z</time></trkpt><trkpt lat="44.58629796874576" lon="10.0463050193946"><ele>886.0</ele><time>2026-04-11T12:42:34Z</time></trkpt><trkpt lat="44.58638473667722" lon="10.045971907145464"><ele>878.0</ele><time>2026-04-11T12:42:35Z</time></trkpt><trkpt lat="44.586503376733084" lon="10.045656772233105"><ele>870.0</ele><time>2026-04-11T12:42:36Z</time></trkpt><trkpt lat="44.586655600445866" lon="10.04539415226404"><ele>870.0</ele><time>2026-04-11T12:42:36.999Z</time></trkpt><trkpt lat="44.58677096822791" lon="10.045116179745582"><ele>870.0</ele><time>2026-04-11T12:42:37.999Z</time></trkpt><trkpt lat="44.58683764259838" lon="10.044775895340385"><ele>863.0</ele><time>2026-04-11T12:42:38.999Z</time></trkpt><trkpt lat="44.58690002616315" lon="10.044382915123421"><ele>856.0</ele><time>2026-04-11T12:42:39.999Z</time></trkpt><trkpt lat="44.586955318748274" lon="10.043973879547428"><ele>855.0</ele><time>2026-04-11T12:42:40.999Z</time></trkpt><trkpt lat="44.586965133021586" lon="10.043582609553749"><ele>854.0</ele><time>2026-04-11T12:42:41.999Z</time></trkpt><trkpt lat="44.58694937268181" lon="10.043244932749937"><ele>872.0</ele><time>2026-04-11T12:42:42.999Z</time></trkpt><trkpt lat="44.58702241308099" lon="10.04296759529395"><ele>890.0</ele><time>2026-04-11T12:42:43.999Z</time></trkpt><trkpt lat="44.58704139980223" lon="10.042722008417668"><ele>908.0</ele><time>2026-04-11T12:42:44.999Z</time></trkpt><trkpt lat="44.58701312694025" lon="10.042474644331914"><ele>885.0</ele><time>2026-04-11T12:42:45.999Z</time></trkpt><trkpt lat="44.586892048241374" lon="10.042188740647752"><ele>862.0</ele><time>2026-04-11T12:42:46.999Z</time></trkpt><trkpt lat="44.586751593546516" lon="10.041913719814966"><ele>860.0</ele><time>2026-04-11T12:42:47.999Z</time></trkpt><trkpt lat="44.58664794002009" lon="10.04163107042726"><ele>858.0</ele><time>2026-04-11T12:42:48.999Z</time></trkpt><trkpt lat="44.58659879715273" lon="10.041301077226128"><ele>858.0</ele><time>2026-04-11T12:42:49.999Z</time></trkpt><trkpt lat="44.58658602845306" lon="10.040999978684761"><ele>858.0</ele><time>2026-04-11T12:42:50.999Z</time></trkpt><trkpt lat="44.5865785341908" lon="10.040677867445506"><ele>858.0</ele><time>2026-04-11T12:42:51.999Z</time></trkpt><trkpt lat="44.586548844172356" lon="10.040374990016595"><ele>850.5</ele><time>2026-04-11T12:42:52.999Z</time></trkpt><trkpt lat="44.586776153690344" lon="10.040056851707359"><ele>843.0</ele><time>2026-04-11T12:42:53.999Z</time></trkpt><trkpt lat="44.586878723978884" lon="10.03982425791135"><ele>848.5</ele><time>2026-04-11T12:42:54.999Z</time></trkpt><trkpt lat="44.58706766942987" lon="10.039610858458232"><ele>854.0</ele><time>2026-04-11T12:42:55.999Z</time></trkpt><trkpt lat="44.58725897354045" lon="10.039383549583434"><ele>854.0</ele><time>2026-04-11T12:42:56.999Z</time></trkpt><trkpt lat="44.58741492558623" lon="10.039163504062625"><ele>854.0</ele><time>2026-04-11T12:42:57.999Z</time></trkpt><trkpt lat="44.58752776613481" lon="10.038914327269566"><ele>854.0</ele><time>2026-04-11T12:42:58.999Z</time></trkpt><trkpt lat="44.5875860984737" lon="10.03857590765503"><ele>845.6666666666667</ele><time>2026-04-11T12:42:59.999Z</time></trkpt><trkpt lat="44.587620461448125" lon="10.038257690070518"><ele>837.3333333333333</ele><time>2026-04-11T12:43:00.999Z</time></trkpt><trkpt lat="44.587662081391215" lon="10.037963689603592"><ele>829.0</ele><time>2026-04-11T12:43:01.999Z</time></trkpt><trkpt lat="44.58770325722741" lon="10.037678901450644"><ele>828.0</ele><time>2026-04-11T12:43:02.999Z</time></trkpt><trkpt lat="44.5877467462242" lon="10.037397721864561"><ele>827.0</ele><time>2026-04-11T12:43:03.999Z</time></trkpt><trkpt lat="44.587791804737215" lon="10.037116450418083"><ele>826.0</ele><time>2026-04-11T12:43:04.999Z</time></trkpt><trkpt lat="44.58782814469455" lon="10.036851337385642"><ele>825.0</ele><time>2026-04-11T12:43:05.999Z</time></trkpt><trkpt lat="44.58783670430807" lon="10.036605800312678"><ele>824.0</ele><time>2026-04-11T12:43:06.999Z</time></trkpt><trkpt lat="44.587780157487536" lon="10.036385948381612"><ele>823.0</ele><time>2026-04-11T12:43:07.999Z</time></trkpt><trkpt lat="44.587673182618154" lon="10.03615616985637"><ele>823.0</ele><time>2026-04-11T12:43:08.999Z</time></trkpt><trkpt lat="44.58757775532467" lon="10.035961792737949"><ele>823.0</ele><time>2026-04-11T12:43:09.999Z</time></trkpt><trkpt lat="44.58752981521609" lon="10.035764002999375"><ele>823.0</ele><time>2026-04-11T12:43:10.999Z</time></trkpt><trkpt lat="44.58753852847757" lon="10.035559684544921"><ele>821.75</ele><time>2026-04-11T12:43:11.999Z</time></trkpt><trkpt lat="44.58758812054" lon="10.035361295252942"><ele>820.5</ele><time>2026-04-11T12:43:12.999Z</time></trkpt><trkpt lat="44.58762677456221" lon="10.035174048171383"><ele>819.25</ele><time>2026-04-11T12:43:13.999Z</time></trkpt><trkpt lat="44.58760394026468" lon="10.035004468891039"><ele>818.0</ele><time>2026-04-11T12:43:14.999Z</time></trkpt><trkpt lat="44.587520571773275" lon="10.034840376229704"><ele>816.5</ele><time>2026-04-11T12:43:15.999Z</time></trkpt><trkpt lat="44.587396256799515" lon="10.03472791677229"><ele>815.0</ele><time>2026-04-11T12:43:16.999Z</time></trkpt><trkpt lat="44.587249166565" lon="10.034682536155659"><ele>813.5</ele><time>2026-04-11T12:43:17.999Z</time></trkpt><trkpt lat="44.58712296085634" lon="10.03467735085938"><ele>812.0</ele><time>2026-04-11T12:43:18.999Z</time></trkpt><trkpt lat="44.58702020056249" lon="10.034664365752196"><ele>810.0</ele><time>2026-04-11T12:43:19.999Z</time></trkpt><trkpt lat="44.58689276580549" lon="10.034634145974708"><ele>808.0</ele><time>2026-04-11T12:43:20.999Z</time></trkpt><trkpt lat="44.586756382022664" lon="10.03459312803189"><ele>806.0</ele><time>2026-04-11T12:43:21.999Z</time></trkpt><trkpt lat="44.58660855180196" lon="10.034551472303132"><ele>804.0</ele><time>2026-04-11T12:43:22.999Z</time></trkpt><trkpt lat="44.58647087596571" lon="10.034513763902313"><ele>804.0</ele><time>2026-04-11T12:43:23.999Z</time></trkpt><trkpt lat="44.58633135568421" lon="10.034469243528669"><ele>804.0</ele><time>2026-04-11T12:43:24.999Z</time></trkpt><trkpt lat="44.58619076463424" lon="10.034424658939983"><ele>804.0</ele><time>2026-04-11T12:43:25.999Z</time></trkpt><trkpt lat="44.58606052942012" lon="10.034384004135058"><ele>804.0</ele><time>2026-04-11T12:43:26.999Z</time></trkpt><trkpt lat="44.58592957320427" lon="10.034339917179576"><ele>803.0</ele><time>2026-04-11T12:43:27.999Z</time></trkpt><trkpt lat="44.58579104759893" lon="10.034294118333408"><ele>802.0</ele><time>2026-04-11T12:43:28.999Z</time></trkpt><trkpt lat="44.585640357070766" lon="10.034228254185152"><ele>801.0</ele><time>2026-04-11T12:43:29.999Z</time></trkpt><trkpt lat="44.585481103888604" lon="10.03417527569815"><ele>799.6666666666667</ele><time>2026-04-11T12:43:30.999Z</time></trkpt><trkpt lat="44.58532938795709" lon="10.034109400548724"><ele>798.3333333333334</ele><time>2026-04-11T12:43:31.999Z</time></trkpt><trkpt lat="44.58518928306737" lon="10.033988236110655"><ele>797.0</ele><time>2026-04-11T12:43:32.999Z</time></trkpt><trkpt lat="44.58506094389893" lon="10.03380188211951"><ele>797.0</ele><time>2026-04-11T12:43:33.999Z</time></trkpt><trkpt lat="44.58493756003377" lon="10.033614043309834"><ele>797.0</ele><time>2026-04-11T12:43:34.999Z</time></trkpt><trkpt lat="44.584823938723645" lon="10.033432442180743"><ele>797.0</ele><time>2026-04-11T12:43:36Z</time></trkpt><trkpt lat="44.58470988778741" lon="10.033260139046265"><ele>794.6666666666667</ele><time>2026-04-11T12:43:37Z</time></trkpt><trkpt lat="44.5845870588323" lon="10.033100365050254"><ele>792.3333333333333</ele><time>2026-04-11T12:43:38Z</time></trkpt><trkpt lat="44.58446176514235" lon="10.032931875163472"><ele>790.0</ele><time>2026-04-11T12:43:39Z</time></trkpt><trkpt lat="44.584325208449265" lon="10.032787810794686"><ele>790.0</ele><time>2026-04-11T12:43:40Z</time></trkpt><trkpt lat="44.584172700264496" lon="10.032638851372967"><ele>790.0</ele><time>2026-04-11T12:43:41Z</time></trkpt><trkpt lat="44.58400980204688" lon="10.032472771422833"><ele>790.0</ele><time>2026-04-11T12:43:42Z</time></trkpt><trkpt lat="44.58383124571407" lon="10.032314798757449"><ele>782.5</ele><time>2026-04-11T12:43:43Z</time></trkpt><trkpt lat="44.583614429385726" lon="10.032197726207315"><ele>775.0</ele><time>2026-04-11T12:43:44Z</time></trkpt><trkpt lat="44.58336197108366" lon="10.032143001498204"><ele>775.0</ele><time>2026-04-11T12:43:45Z</time></trkpt><trkpt lat="44.58310006928613" lon="10.032083676024556"><ele>775.0</ele><time>2026-04-11T12:43:46Z</time></trkpt><trkpt lat="44.5828614809618" lon="10.031959720925794"><ele>774.0</ele><time>2026-04-11T12:43:47Z</time></trkpt><trkpt lat="44.582638927447974" lon="10.031779801556485"><ele>773.0</ele><time>2026-04-11T12:43:48Z</time></trkpt><trkpt lat="44.58240698619849" lon="10.031506299017666"><ele>769.0</ele><time>2026-04-11T12:43:49Z</time></trkpt><trkpt lat="44.582158405641735" lon="10.031226242353052"><ele>765.0</ele><time>2026-04-11T12:43:50Z</time></trkpt><trkpt lat="44.58202290050504" lon="10.031023183549818"><ele>767.0</ele><time>2026-04-11T12:43:51Z</time></trkpt><trkpt lat="44.58184481645209" lon="10.030795908068187"><ele>769.0</ele><time>2026-04-11T12:43:52Z</time></trkpt><trkpt lat="44.581682522785876" lon="10.03060047493046"><ele>769.0</ele><time>2026-04-11T12:43:53Z</time></trkpt><trkpt lat="44.58150129742374" lon="10.030435771959542"><ele>769.0</ele><time>2026-04-11T12:43:54Z</time></trkpt><trkpt lat="44.58126729709313" lon="10.03034089450792"><ele>771.0</ele><time>2026-04-11T12:43:55Z</time></trkpt><trkpt lat="44.58098536552759" lon="10.030322295788618"><ele>773.0</ele><time>2026-04-11T12:43:56Z</time></trkpt><trkpt lat="44.580701950282176" lon="10.030269666804353"><ele>773.0</ele><time>2026-04-11T12:43:57Z</time></trkpt><trkpt lat="44.580456169113305" lon="10.03018026748649"><ele>773.0</ele><time>2026-04-11T12:43:58Z</time></trkpt><trkpt lat="44.580222471113544" lon="10.030107358627196"><ele>771.5</ele><time>2026-04-11T12:43:59Z</time></trkpt><trkpt lat="44.579978620108974" lon="10.03009231109239"><ele>770.0</ele><time>2026-04-11T12:44:00Z</time></trkpt><trkpt lat="44.57972956048787" lon="10.030147063026407"><ele>770.0</ele><time>2026-04-11T12:44:01Z</time></trkpt><trkpt lat="44.57947422648853" lon="10.030254153762188"><ele>770.0</ele><time>2026-04-11T12:44:02Z</time></trkpt><trkpt lat="44.579258296946094" lon="10.030376590493884"><ele>770.0</ele><time>2026-04-11T12:44:03Z</time></trkpt><trkpt lat="44.57908526863532" lon="10.030519675795095"><ele>770.0</ele><time>2026-04-11T12:44:04Z</time></trkpt><trkpt lat="44.57894781820734" lon="10.030640982878277"><ele>770.0</ele><time>2026-04-11T12:44:05Z</time></trkpt><trkpt lat="44.578800890760704" lon="10.030607487299719"><ele>767.0</ele><time>2026-04-11T12:44:06Z</time></trkpt><trkpt lat="44.578634831485836" lon="10.030534233329117"><ele>764.0</ele><time>2026-04-11T12:44:07Z</time></trkpt><trkpt lat="44.5784524252365" lon="10.030384551883728"><ele>761.0</ele><time>2026-04-11T12:44:08Z</time></trkpt><trkpt lat="44.57827955161357" lon="10.030195857167492"><ele>761.0</ele><time>2026-04-11T12:44:09Z</time></trkpt><trkpt lat="44.57815219265659" lon="10.02998383567315"><ele>761.0</ele><time>2026-04-11T12:44:10Z</time></trkpt><trkpt lat="44.57807329169907" lon="10.029722798872259"><ele>761.0</ele><time>2026-04-11T12:44:11Z</time></trkpt><trkpt lat="44.57804226201817" lon="10.02945460171314"><ele>760.3333333333333</ele><time>2026-04-11T12:44:12Z</time></trkpt><trkpt lat="44.578003077935826" lon="10.029126040693622"><ele>759.6666666666666</ele><time>2026-04-11T12:44:13Z</time></trkpt><trkpt lat="44.57794445817092" lon="10.028870995722002"><ele>759.0</ele><time>2026-04-11T12:44:14Z</time></trkpt><trkpt lat="44.57778482124293" lon="10.028651792243117"><ele>756.3333333333334</ele><time>2026-04-11T12:44:15Z</time></trkpt><trkpt lat="44.57757664748662" lon="10.028469359194165"><ele>753.6666666666667</ele><time>2026-04-11T12:44:16Z</time></trkpt><trkpt lat="44.57743850165878" lon="10.028262678812476"><ele>751.0</ele><time>2026-04-11T12:44:17Z</time></trkpt><trkpt lat="44.57723283218409" lon="10.028132529038999"><ele>747.5</ele><time>2026-04-11T12:44:18Z</time></trkpt><trkpt lat="44.577294744598774" lon="10.027612034485063"><ele>744.0</ele><time>2026-04-11T12:44:19Z</time></trkpt><trkpt lat="44.57716990524304" lon="10.027268732822774"><ele>742.0</ele><time>2026-04-11T12:44:20Z</time></trkpt><trkpt lat="44.577020164634526" lon="10.026921559349608"><ele>740.0</ele><time>2026-04-11T12:44:21Z</time></trkpt><trkpt lat="44.576936874613615" lon="10.026600063589084"><ele>740.0</ele><time>2026-04-11T12:44:22Z</time></trkpt><trkpt lat="44.576848470356815" lon="10.02632951079771"><ele>740.0</ele><time>2026-04-11T12:44:23Z</time></trkpt><trkpt lat="44.57674251185529" lon="10.026084620412433"><ele>740.0</ele><time>2026-04-11T12:44:24Z</time></trkpt><trkpt lat="44.57653321519364" lon="10.02584917349548"><ele>737.0</ele><time>2026-04-11T12:44:25Z</time></trkpt><trkpt lat="44.57626984749597" lon="10.025567436646579"><ele>734.0</ele><time>2026-04-11T12:44:26Z</time></trkpt><trkpt lat="44.576035989968" lon="10.025391264158486"><ele>734.0</ele><time>2026-04-11T12:44:27Z</time></trkpt><trkpt lat="44.5758323246322" lon="10.025175183925985"><ele>734.0</ele><time>2026-04-11T12:44:28Z</time></trkpt><trkpt lat="44.57564128804806" lon="10.024972925873124"><ele>732.5</ele><time>2026-04-11T12:44:29Z</time></trkpt><trkpt lat="44.5754433574654" lon="10.024784502088343"><ele>731.0</ele><time>2026-04-11T12:44:30Z</time></trkpt><trkpt lat="44.57519971041244" lon="10.024630561825157"><ele>731.0</ele><time>2026-04-11T12:44:31Z</time></trkpt><trkpt lat="44.574943697407726" lon="10.02454792550857"><ele>731.0</ele><time>2026-04-11T12:44:32Z</time></trkpt><trkpt lat="44.57472380411704" lon="10.024496893647951"><ele>731.0</ele><time>2026-04-11T12:44:33Z</time></trkpt><trkpt lat="44.57453391579375" lon="10.024432025384025"><ele>731.0</ele><time>2026-04-11T12:44:34Z</time></trkpt><trkpt lat="44.57434091954826" lon="10.024361961312655"><ele>731.0</ele><time>2026-04-11T12:44:35Z</time></trkpt><trkpt lat="44.57415770073432" lon="10.024291399223072"><ele>733.0</ele><time>2026-04-11T12:44:36Z</time></trkpt><trkpt lat="44.573968590337806" lon="10.024208740407182"><ele>735.0</ele><time>2026-04-11T12:44:37Z</time></trkpt><trkpt lat="44.57379355052306" lon="10.024136431789284"><ele>737.0</ele><time>2026-04-11T12:44:38Z</time></trkpt><trkpt lat="44.573600522321215" lon="10.024061145363497"><ele>737.0</ele><time>2026-04-11T12:44:39Z</time></trkpt><trkpt lat="44.573409261460746" lon="10.023961131322249"><ele>737.0</ele><time>2026-04-11T12:44:40Z</time></trkpt><trkpt lat="44.573261098487286" lon="10.023753907503119"><ele>737.0</ele><time>2026-04-11T12:44:41Z</time></trkpt><trkpt lat="44.573142593906724" lon="10.02349002858211"><ele>735.0</ele><time>2026-04-11T12:44:42Z</time></trkpt><trkpt lat="44.57300770412301" lon="10.023182446822053"><ele>733.0</ele><time>2026-04-11T12:44:42.999Z</time></trkpt><trkpt lat="44.57288414027677" lon="10.022900336401365"><ele>735.6666666666667</ele><time>2026-04-11T12:44:43.999Z</time></trkpt><trkpt lat="44.57276761118782" lon="10.022651547615505"><ele>738.3333333333334</ele><time>2026-04-11T12:44:44.999Z</time></trkpt><trkpt lat="44.57264963852348" lon="10.022404537603531"><ele>741.0</ele><time>2026-04-11T12:44:45.999Z</time></trkpt><trkpt lat="44.57253336983745" lon="10.022153983017022"><ele>742.5</ele><time>2026-04-11T12:44:46.999Z</time></trkpt><trkpt lat="44.5724182498551" lon="10.02192975102613"><ele>744.0</ele><time>2026-04-11T12:44:47.999Z</time></trkpt><trkpt lat="44.57204275826679" lon="10.021960674763323"><ele>742.5</ele><time>2026-04-11T12:44:48.999Z</time></trkpt><trkpt lat="44.57181603778888" lon="10.02187101490183"><ele>741.0</ele><time>2026-04-11T12:44:49.999Z</time></trkpt><trkpt lat="44.57160387741555" lon="10.021779324381596"><ele>741.0</ele><time>2026-04-11T12:44:50.999Z</time></trkpt><trkpt lat="44.57140447184667" lon="10.021677498543262"><ele>741.0</ele><time>2026-04-11T12:44:51.999Z</time></trkpt><trkpt lat="44.57120659810273" lon="10.021566030662266"><ele>741.0</ele><time>2026-04-11T12:44:52.999Z</time></trkpt><trkpt lat="44.57101020194033" lon="10.021414162629213"><ele>735.0</ele><time>2026-04-11T12:44:53.999Z</time></trkpt><trkpt lat="44.57081266583427" lon="10.021171989761122"><ele>729.0</ele><time>2026-04-11T12:44:54.999Z</time></trkpt><trkpt lat="44.570641376900866" lon="10.020894606769927"><ele>725.6666666666666</ele><time>2026-04-11T12:44:55.999Z</time></trkpt><trkpt lat="44.57050433492615" lon="10.020668793546731"><ele>722.3333333333333</ele><time>2026-04-11T12:44:56.999Z</time></trkpt><trkpt lat="44.57038027823389" lon="10.020509899159098"><ele>719.0</ele><time>2026-04-11T12:44:57.999Z</time></trkpt><trkpt lat="44.57024913903688" lon="10.020402795984513"><ele>718.6666666666666</ele><time>2026-04-11T12:44:58.999Z</time></trkpt><trkpt lat="44.570066203499785" lon="10.020374361177852"><ele>718.3333333333334</ele><time>2026-04-11T12:44:59.999Z</time></trkpt><trkpt lat="44.56981281836778" lon="10.020429523543292"><ele>718.0</ele><time>2026-04-11T12:45:00.999Z</time></trkpt><trkpt lat="44.5695704508581" lon="10.020477976824758"><ele>715.6666666666667</ele><time>2026-04-11T12:45:01.999Z</time></trkpt><trkpt lat="44.56934453140939" lon="10.020437668324735"><ele>713.3333333333334</ele><time>2026-04-11T12:45:02.999Z</time></trkpt><trkpt lat="44.569161886944414" lon="10.020325500224732"><ele>711.0</ele><time>2026-04-11T12:45:03.999Z</time></trkpt><trkpt lat="44.56897110720823" lon="10.020145584070926"><ele>708.5</ele><time>2026-04-11T12:45:04.999Z</time></trkpt><trkpt lat="44.56872586350656" lon="10.019925724102645"><ele>706.0</ele><time>2026-04-11T12:45:05.999Z</time></trkpt><trkpt lat="44.56851339957724" lon="10.019723151065614"><ele>706.0</ele><time>2026-04-11T12:45:06.999Z</time></trkpt><trkpt lat="44.56830668014726" lon="10.019548392364758"><ele>706.0</ele><time>2026-04-11T12:45:07.999Z</time></trkpt><trkpt lat="44.56808693347229" lon="10.019361325432461"><ele>706.0</ele><time>2026-04-11T12:45:08.999Z</time></trkpt><trkpt lat="44.56786705505621" lon="10.019175013661904"><ele>706.0</ele><time>2026-04-11T12:45:09.999Z</time></trkpt><trkpt lat="44.56762318605569" lon="10.018967258995978"><ele>709.5</ele><time>2026-04-11T12:45:10.999Z</time></trkpt><trkpt lat="44.56738431498217" lon="10.018769296727822"><ele>713.0</ele><time>2026-04-11T12:45:11.999Z</time></trkpt><trkpt lat="44.567175378878815" lon="10.01856583659749"><ele>711.0</ele><time>2026-04-11T12:45:12.999Z</time></trkpt><trkpt lat="44.56690304533407" lon="10.01835116382399"><ele>709.0</ele><time>2026-04-11T12:45:13.999Z</time></trkpt><trkpt lat="44.56667625305265" lon="10.01814782259281"><ele>709.0</ele><time>2026-04-11T12:45:14.999Z</time></trkpt><trkpt lat="44.566486014380494" lon="10.017953673405314"><ele>709.0</ele><time>2026-04-11T12:45:15.999Z</time></trkpt><trkpt lat="44.56629469088973" lon="10.017782533317892"><ele>709.5</ele><time>2026-04-11T12:45:16.999Z</time></trkpt><trkpt lat="44.566056335256334" lon="10.017646047462124"><ele>710.0</ele><time>2026-04-11T12:45:17.999Z</time></trkpt><trkpt lat="44.565787781349464" lon="10.017586363044332"><ele>710.0</ele><time>2026-04-11T12:45:18.999Z</time></trkpt><trkpt lat="44.56550610284591" lon="10.01757159125642"><ele>710.0</ele><time>2026-04-11T12:45:19.999Z</time></trkpt><trkpt lat="44.56525701869314" lon="10.017536868823623"><ele>709.0</ele><time>2026-04-11T12:45:20.999Z</time></trkpt><trkpt lat="44.56505417517472" lon="10.017400039792118"><ele>708.0</ele><time>2026-04-11T12:45:21.999Z</time></trkpt><trkpt lat="44.56487509693185" lon="10.01723596950401"><ele>707.0</ele><time>2026-04-11T12:45:22.999Z</time></trkpt><trkpt lat="44.56469857667553" lon="10.01712741853596"><ele>707.0</ele><time>2026-04-11T12:45:23.999Z</time></trkpt><trkpt lat="44.564548895335015" lon="10.017032042884958"><ele>707.0</ele><time>2026-04-11T12:45:24.999Z</time></trkpt><trkpt lat="44.56435211553266" lon="10.017000507166347"><ele>707.0</ele><time>2026-04-11T12:45:25.999Z</time></trkpt><trkpt lat="44.56416172295738" lon="10.017023149199872"><ele>708.6666666666666</ele><time>2026-04-11T12:45:26.999Z</time></trkpt><trkpt lat="44.564013098373735" lon="10.01696616549839"><ele>710.3333333333334</ele><time>2026-04-11T12:45:27.999Z</time></trkpt><trkpt lat="44.563883192954755" lon="10.016858081908723"><ele>712.0</ele><time>2026-04-11T12:45:28.999Z</time></trkpt><trkpt lat="44.5637533536875" lon="10.01674186332996"><ele>713.0</ele><time>2026-04-11T12:45:29.999Z</time></trkpt><trkpt lat="44.563632445539106" lon="10.016633652073129"><ele>714.0</ele><time>2026-04-11T12:45:30.999Z</time></trkpt><trkpt lat="44.56352044881503" lon="10.016525224470746"><ele>715.0</ele><time>2026-04-11T12:45:31.999Z</time></trkpt><trkpt lat="44.5634186667441" lon="10.016413463500804"><ele>716.0</ele><time>2026-04-11T12:45:32.999Z</time></trkpt><trkpt lat="44.56333552942021" lon="10.01629660565487"><ele>716.0</ele><time>2026-04-11T12:45:33.999Z</time></trkpt><trkpt lat="44.5632618467512" lon="10.016146584066353"><ele>716.0</ele><time>2026-04-11T12:45:34.999Z</time></trkpt><trkpt lat="44.56320049385205" lon="10.01595723744123"><ele>716.0</ele><time>2026-04-11T12:45:35.999Z</time></trkpt><trkpt lat="44.56314695063713" lon="10.01574007824693"><ele>716.0</ele><time>2026-04-11T12:45:36.999Z</time></trkpt><trkpt lat="44.56309164048874" lon="10.015515828235099"><ele>715.3333333333333</ele><time>2026-04-11T12:45:37.999Z</time></trkpt><trkpt lat="44.56301106822177" lon="10.015302628294716"><ele>714.6666666666666</ele><time>2026-04-11T12:45:38.999Z</time></trkpt><trkpt lat="44.56296663544689" lon="10.015095565001005"><ele>714.0</ele><time>2026-04-11T12:45:39.999Z</time></trkpt><trkpt lat="44.56292077218634" lon="10.014913148241888"><ele>715.5</ele><time>2026-04-11T12:45:40.999Z</time></trkpt><trkpt lat="44.56285221312112" lon="10.014764227085983"><ele>717.0</ele><time>2026-04-11T12:45:42Z</time></trkpt><trkpt lat="44.562742619467095" lon="10.014678105198954"><ele>718.5</ele><time>2026-04-11T12:45:43Z</time></trkpt><trkpt lat="44.562605707888366" lon="10.014724317412133"><ele>720.0</ele><time>2026-04-11T12:45:44Z</time></trkpt><trkpt lat="44.56244371494138" lon="10.01482058081034"><ele>720.0</ele><time>2026-04-11T12:45:45Z</time></trkpt><trkpt lat="44.56224118210357" lon="10.014930862346121"><ele>720.0</ele><time>2026-04-11T12:45:46Z</time></trkpt><trkpt lat="44.562036504333136" lon="10.014975035711856"><ele>720.0</ele><time>2026-04-11T12:45:47Z</time></trkpt><trkpt lat="44.561859925700844" lon="10.014874867739861"><ele>722.6666666666666</ele><time>2026-04-11T12:45:48Z</time></trkpt><trkpt lat="44.561698658987844" lon="10.014749514485343"><ele>725.3333333333333</ele><time>2026-04-11T12:45:49Z</time></trkpt><trkpt lat="44.56155429319269" lon="10.014671847203955"><ele>728.0</ele><time>2026-04-11T12:45:50Z</time></trkpt><trkpt lat="44.56144650780984" lon="10.014576187583513"><ele>728.0</ele><time>2026-04-11T12:45:51Z</time></trkpt><trkpt lat="44.561349297344776" lon="10.014500842493076"><ele>728.0</ele><time>2026-04-11T12:45:52Z</time></trkpt><trkpt lat="44.56124887321737" lon="10.014425283018767"><ele>728.0</ele><time>2026-04-11T12:45:53Z</time></trkpt><trkpt lat="44.56113456434648" lon="10.014335523115296"><ele>728.0</ele><time>2026-04-11T12:45:54Z</time></trkpt><trkpt lat="44.56101437852103" lon="10.014251194682819"><ele>728.75</ele><time>2026-04-11T12:45:55Z</time></trkpt><trkpt lat="44.560882729240475" lon="10.014199438899368"><ele>729.5</ele><time>2026-04-11T12:45:56Z</time></trkpt><trkpt lat="44.560742387792665" lon="10.014172257417503"><ele>730.25</ele><time>2026-04-11T12:45:57Z</time></trkpt><trkpt lat="44.56060126264133" lon="10.014160796693034"><ele>731.0</ele><time>2026-04-11T12:45:58Z</time></trkpt><trkpt lat="44.56046402310312" lon="10.014152669001641"><ele>735.75</ele><time>2026-04-11T12:45:59Z</time></trkpt><trkpt lat="44.56032399808189" lon="10.01413300953612"><ele>740.5</ele><time>2026-04-11T12:46:00Z</time></trkpt><trkpt lat="44.560182223792836" lon="10.014085472362511"><ele>745.25</ele><time>2026-04-11T12:46:01Z</time></trkpt><trkpt lat="44.56007778966118" lon="10.013953082890517"><ele>750.0</ele><time>2026-04-11T12:46:02Z</time></trkpt><trkpt lat="44.55996755814411" lon="10.013815377061169"><ele>750.0</ele><time>2026-04-11T12:46:03Z</time></trkpt><trkpt lat="44.559949066146096" lon="10.013606004530986"><ele>750.0</ele><time>2026-04-11T12:46:04Z</time></trkpt><trkpt lat="44.559888838198646" lon="10.013393248847523"><ele>750.0</ele><time>2026-04-11T12:46:05Z</time></trkpt><trkpt lat="44.559826247067356" lon="10.01315831816234"><ele>750.0</ele><time>2026-04-11T12:46:06Z</time></trkpt><trkpt lat="44.55976545546229" lon="10.012920046755612"><ele>750.0</ele><time>2026-04-11T12:46:07Z</time></trkpt><trkpt lat="44.559705821353994" lon="10.01268379679454"><ele>750.0</ele><time>2026-04-11T12:46:08Z</time></trkpt><trkpt lat="44.55964692957065" lon="10.012443381405747"><ele>749.3333333333334</ele><time>2026-04-11T12:46:09Z</time></trkpt><trkpt lat="44.55959814050744" lon="10.012189031104885"><ele>748.6666666666667</ele><time>2026-04-11T12:46:10Z</time></trkpt><trkpt lat="44.55959430571705" lon="10.011927385449084"><ele>748.0</ele><time>2026-04-11T12:46:11Z</time></trkpt><trkpt lat="44.55959909605053" lon="10.011644983040231"><ele>748.0</ele><time>2026-04-11T12:46:12Z</time></trkpt><trkpt lat="44.55957476478887" lon="10.011415620365053"><ele>748.0</ele><time>2026-04-11T12:46:13Z</time></trkpt><trkpt lat="44.55952315899261" lon="10.01118216137798"><ele>748.0</ele><time>2026-04-11T12:46:14Z</time></trkpt><trkpt lat="44.55943728795374" lon="10.010921486644069"><ele>753.0</ele><time>2026-04-11T12:46:15Z</time></trkpt><trkpt lat="44.5593503459329" lon="10.010721328234576"><ele>758.0</ele><time>2026-04-11T12:46:16Z</time></trkpt><trkpt lat="44.559307901643095" lon="10.010501052323562"><ele>763.0</ele><time>2026-04-11T12:46:17Z</time></trkpt><trkpt lat="44.55905234104398" lon="10.010492851209097"><ele>763.0</ele><time>2026-04-11T12:46:18Z</time></trkpt><trkpt lat="44.55883519622704" lon="10.010376975254463"><ele>763.0</ele><time>2026-04-11T12:46:19Z</time></trkpt><trkpt lat="44.55861865398681" lon="10.010206763250947"><ele>772.0</ele><time>2026-04-11T12:46:20Z</time></trkpt><trkpt lat="44.55837650580538" lon="10.009972464804584"><ele>781.0</ele><time>2026-04-11T12:46:21Z</time></trkpt><trkpt lat="44.558221530507716" lon="10.00966090444341"><ele>781.0</ele><time>2026-04-11T12:46:22Z</time></trkpt><trkpt lat="44.55812904800894" lon="10.009311547666647"><ele>781.0</ele><time>2026-04-11T12:46:24Z</time></trkpt><trkpt lat="44.558040442315516" lon="10.008988366431323"><ele>778.6666666666666</ele><time>2026-04-11T12:46:25Z</time></trkpt><trkpt lat="44.55792203619196" lon="10.008740428082016"><ele>776.3333333333333</ele><time>2026-04-11T12:46:26Z</time></trkpt><trkpt lat="44.55777876890154" lon="10.008528148864373"><ele>774.0</ele><time>2026-04-11T12:46:27Z</time></trkpt><trkpt lat="44.55762914453054" lon="10.00832789771529"><ele>777.3333333333333</ele><time>2026-04-11T12:46:28Z</time></trkpt><trkpt lat="44.55756364886828" lon="10.008112971973311"><ele>780.6666666666666</ele><time>2026-04-11T12:46:29Z</time></trkpt><trkpt lat="44.55753443372934" lon="10.007880189854262"><ele>784.0</ele><time>2026-04-11T12:46:30Z</time></trkpt><trkpt lat="44.557473946706544" lon="10.007685458971684"><ele>784.0</ele><time>2026-04-11T12:46:31Z</time></trkpt><trkpt lat="44.557400931710895" lon="10.007548305459895"><ele>784.0</ele><time>2026-04-11T12:46:32Z</time></trkpt><trkpt lat="44.55726124774699" lon="10.007486756348747"><ele>784.0</ele><time>2026-04-11T12:46:33Z</time></trkpt><trkpt lat="44.55707927716456" lon="10.007522182212028"><ele>788.6666666666666</ele><time>2026-04-11T12:46:34Z</time></trkpt><trkpt lat="44.55685879947688" lon="10.007621055126613"><ele>793.3333333333333</ele><time>2026-04-11T12:46:35Z</time></trkpt><trkpt lat="44.556683440408506" lon="10.007678632991825"><ele>798.0</ele><time>2026-04-11T12:46:36Z</time></trkpt><trkpt lat="44.55656538490549" lon="10.007659015181897"><ele>798.0</ele><time>2026-04-11T12:46:37Z</time></trkpt><trkpt lat="44.55651372686316" lon="10.007508634185335"><ele>798.0</ele><time>2026-04-11T12:46:38Z</time></trkpt><trkpt lat="44.55650198235724" lon="10.007347491196692"><ele>798.0</ele><time>2026-04-11T12:46:39Z</time></trkpt><trkpt lat="44.55647247250056" lon="10.007139646261646"><ele>798.0</ele><time>2026-04-11T12:46:40Z</time></trkpt><trkpt lat="44.55638637572042" lon="10.006963397172846"><ele>799.6666666666667</ele><time>2026-04-11T12:46:41Z</time></trkpt><trkpt lat="44.556259521306515" lon="10.006790369783822"><ele>801.3333333333334</ele><time>2026-04-11T12:46:42Z</time></trkpt><trkpt lat="44.55607448835616" lon="10.006609621423484"><ele>803.0</ele><time>2026-04-11T12:46:43Z</time></trkpt><trkpt lat="44.55586971533572" lon="10.006412785987052"><ele>803.0</ele><time>2026-04-11T12:46:44Z</time></trkpt><trkpt lat="44.555706773596974" lon="10.006217714313806"><ele>803.0</ele><time>2026-04-11T12:46:45Z</time></trkpt><trkpt lat="44.555599511507644" lon="10.006007509029184"><ele>803.0</ele><time>2026-04-11T12:46:46Z</time></trkpt><trkpt lat="44.55552764369412" lon="10.005725624052403"><ele>803.0</ele><time>2026-04-11T12:46:47Z</time></trkpt><trkpt lat="44.5554691070936" lon="10.005457190850027"><ele>803.0</ele><time>2026-04-11T12:46:48Z</time></trkpt><trkpt lat="44.55546614607331" lon="10.005243184966806"><ele>803.0</ele><time>2026-04-11T12:46:49Z</time></trkpt><trkpt lat="44.55553158963182" lon="10.005011695074916"><ele>803.6666666666667</ele><time>2026-04-11T12:46:50Z</time></trkpt><trkpt lat="44.555615685120436" lon="10.004741206972474"><ele>804.3333333333333</ele><time>2026-04-11T12:46:50.999Z</time></trkpt><trkpt lat="44.555641398353075" lon="10.00448129160913"><ele>805.0</ele><time>2026-04-11T12:46:51.999Z</time></trkpt><trkpt lat="44.5556254316072" lon="10.004261562565572"><ele>804.75</ele><time>2026-04-11T12:46:52.999Z</time></trkpt><trkpt lat="44.555587777711246" lon="10.004045075891126"><ele>804.5</ele><time>2026-04-11T12:46:53.999Z</time></trkpt><trkpt lat="44.555496111327784" lon="10.003905175627969"><ele>804.25</ele><time>2026-04-11T12:46:54.999Z</time></trkpt><trkpt lat="44.555367864734585" lon="10.003831810439042"><ele>804.0</ele><time>2026-04-11T12:46:55.999Z</time></trkpt><trkpt lat="44.55519110670605" lon="10.003806714084115"><ele>809.5</ele><time>2026-04-11T12:46:56.999Z</time></trkpt><trkpt lat="44.55497636847946" lon="10.003795751804809"><ele>815.0</ele><time>2026-04-11T12:46:57.999Z</time></trkpt><trkpt lat="44.554742677571525" lon="10.003700512907534"><ele>815.0</ele><time>2026-04-11T12:46:58.999Z</time></trkpt><trkpt lat="44.55453978002382" lon="10.003488979521226"><ele>815.0</ele><time>2026-04-11T12:46:59.999Z</time></trkpt><trkpt lat="44.55431266218792" lon="10.003300232245229"><ele>818.3333333333334</ele><time>2026-04-11T12:47:00.999Z</time></trkpt><trkpt lat="44.554145021125265" lon="10.0031323060526"><ele>821.6666666666667</ele><time>2026-04-11T12:47:01.999Z</time></trkpt><trkpt lat="44.55407363782694" lon="10.00290201508492"><ele>825.0</ele><time>2026-04-11T12:47:02.999Z</time></trkpt><trkpt lat="44.553995156512876" lon="10.002622348330219"><ele>822.5</ele><time>2026-04-11T12:47:03.999Z</time></trkpt><trkpt lat="44.5539151159476" lon="10.002276644812092"><ele>820.0</ele><time>2026-04-11T12:47:04.999Z</time></trkpt><trkpt lat="44.553843063287104" lon="10.001931134483275"><ele>821.6666666666666</ele><time>2026-04-11T12:47:05.999Z</time></trkpt><trkpt lat="44.55376137786173" lon="10.001657337987286"><ele>823.3333333333333</ele><time>2026-04-11T12:47:06.999Z</time></trkpt><trkpt lat="44.553688522916396" lon="10.00144335233966"><ele>825.0</ele><time>2026-04-11T12:47:07.999Z</time></trkpt><trkpt lat="44.55359228634194" lon="10.001308314231604"><ele>825.0</ele><time>2026-04-11T12:47:08.999Z</time></trkpt><trkpt lat="44.553469890053584" lon="10.001192379136606"><ele>825.0</ele><time>2026-04-11T12:47:09.999Z</time></trkpt><trkpt lat="44.55331784384793" lon="10.00117239577844"><ele>825.0</ele><time>2026-04-11T12:47:10.999Z</time></trkpt><trkpt lat="44.553154134106116" lon="10.001242274422152"><ele>825.0</ele><time>2026-04-11T12:47:11.999Z</time></trkpt><trkpt lat="44.55299776103656" lon="10.001479700349828"><ele>825.0</ele><time>2026-04-11T12:47:12.999Z</time></trkpt><trkpt lat="44.55285760626313" lon="10.001722847830537"><ele>830.3333333333333</ele><time>2026-04-11T12:47:13.999Z</time></trkpt><trkpt lat="44.55273343923162" lon="10.001961628907797"><ele>835.6666666666666</ele><time>2026-04-11T12:47:14.999Z</time></trkpt><trkpt lat="44.55256050996556" lon="10.002111846172326"><ele>841.0</ele><time>2026-04-11T12:47:15.999Z</time></trkpt><trkpt lat="44.55232799559124" lon="10.00215270330977"><ele>841.0</ele><time>2026-04-11T12:47:16.999Z</time></trkpt><trkpt lat="44.55207974239356" lon="10.002187535630279"><ele>841.0</ele><time>2026-04-11T12:47:17.999Z</time></trkpt><trkpt lat="44.551934717488685" lon="10.002190260328346"><ele>841.0</ele><time>2026-04-11T12:47:18.999Z</time></trkpt><trkpt lat="44.551714565566805" lon="10.002134990783093"><ele>841.6666666666666</ele><time>2026-04-11T12:47:19.999Z</time></trkpt><trkpt lat="44.55151252314224" lon="10.002053528703106"><ele>842.3333333333333</ele><time>2026-04-11T12:47:20.999Z</time></trkpt><trkpt lat="44.55129700240208" lon="10.001975714005734"><ele>843.0</ele><time>2026-04-11T12:47:21.999Z</time></trkpt><trkpt lat="44.5511470221757" lon="10.001953479961356"><ele>843.0</ele><time>2026-04-11T12:47:22.999Z</time></trkpt><trkpt lat="44.551021615290935" lon="10.00201086052134"><ele>843.0</ele><time>2026-04-11T12:47:23.999Z</time></trkpt><trkpt lat="44.55092176611869" lon="10.002199769730382"><ele>843.0</ele><time>2026-04-11T12:47:24.999Z</time></trkpt><trkpt lat="44.55080552652935" lon="10.002476219856408"><ele>848.5</ele><time>2026-04-11T12:47:25.999Z</time></trkpt><trkpt lat="44.550657911495755" lon="10.00276423445934"><ele>854.0</ele><time>2026-04-11T12:47:26.999Z</time></trkpt><trkpt lat="44.55050721442123" lon="10.003020149012197"><ele>854.0</ele><time>2026-04-11T12:47:27.999Z</time></trkpt><trkpt lat="44.55038739313029" lon="10.00323657468139"><ele>854.0</ele><time>2026-04-11T12:47:28.999Z</time></trkpt><trkpt lat="44.550284052804805" lon="10.003435090106723"><ele>854.0</ele><time>2026-04-11T12:47:29.999Z</time></trkpt><trkpt lat="44.55013504228485" lon="10.003542633640347"><ele>856.6666666666667</ele><time>2026-04-11T12:47:30.999Z</time></trkpt><trkpt lat="44.549960072808965" lon="10.00363148855435"><ele>859.3333333333333</ele><time>2026-04-11T12:47:31.999Z</time></trkpt><trkpt lat="44.549784896048855" lon="10.003618892921168"><ele>862.0</ele><time>2026-04-11T12:47:32.999Z</time></trkpt><trkpt lat="44.54959910346377" lon="10.00354756999531"><ele>862.3333333333333</ele><time>2026-04-11T12:47:33.999Z</time></trkpt><trkpt lat="44.54943573695903" lon="10.003545939639556"><ele>862.6666666666667</ele><time>2026-04-11T12:47:34.999Z</time></trkpt><trkpt lat="44.549249689639694" lon="10.003554732873859"><ele>863.0</ele><time>2026-04-11T12:47:35.999Z</time></trkpt><trkpt lat="44.54904523582301" lon="10.00368181701382"><ele>863.0</ele><time>2026-04-11T12:47:36.999Z</time></trkpt><trkpt lat="44.548828202732196" lon="10.003858493926625"><ele>863.0</ele><time>2026-04-11T12:47:37.999Z</time></trkpt><trkpt lat="44.54862806773769" lon="10.004008121342919"><ele>864.6666666666667</ele><time>2026-04-11T12:47:38.999Z</time></trkpt><trkpt lat="44.54845361353195" lon="10.004072865656873"><ele>866.3333333333333</ele><time>2026-04-11T12:47:39.999Z</time></trkpt><trkpt lat="44.54831269896172" lon="10.004007625434014"><ele>868.0</ele><time>2026-04-11T12:47:40.999Z</time></trkpt><trkpt lat="44.54814711693299" lon="10.003897972707549"><ele>868.0</ele><time>2026-04-11T12:47:41.999Z</time></trkpt><trkpt lat="44.54794591225964" lon="10.003817453678073"><ele>868.0</ele><time>2026-04-11T12:47:42.999Z</time></trkpt><trkpt lat="44.547745958982176" lon="10.00375616538294"><ele>868.0</ele><time>2026-04-11T12:47:43.999Z</time></trkpt><trkpt lat="44.54753421703157" lon="10.003819013901712"><ele>870.5</ele><time>2026-04-11T12:47:44.999Z</time></trkpt><trkpt lat="44.54730721404805" lon="10.003918933887677"><ele>873.0</ele><time>2026-04-11T12:47:45.999Z</time></trkpt><trkpt lat="44.54706966087388" lon="10.003866926513348"><ele>875.0</ele><time>2026-04-11T12:47:46.999Z</time></trkpt><trkpt lat="44.54679942406852" lon="10.003810115120974"><ele>877.0</ele><time>2026-04-11T12:47:48Z</time></trkpt><trkpt lat="44.546567500930394" lon="10.003743944738757"><ele>877.0</ele><time>2026-04-11T12:47:49Z</time></trkpt><trkpt lat="44.54634748218502" lon="10.003732367597602"><ele>877.0</ele><time>2026-04-11T12:47:50Z</time></trkpt><trkpt lat="44.546126222754694" lon="10.003782471897809"><ele>877.0</ele><time>2026-04-11T12:47:51Z</time></trkpt><trkpt lat="44.54593716616718" lon="10.003887636683075"><ele>881.0</ele><time>2026-04-11T12:47:52Z</time></trkpt><trkpt lat="44.54575885015329" lon="10.004066251589967"><ele>885.0</ele><time>2026-04-11T12:47:53Z</time></trkpt><trkpt lat="44.54557563856764" lon="10.004299378880816"><ele>888.6666666666667</ele><time>2026-04-11T12:47:54Z</time></trkpt><trkpt lat="44.54541330071079" lon="10.004474136540564"><ele>892.3333333333334</ele><time>2026-04-11T12:47:55Z</time></trkpt><trkpt lat="44.54526043207487" lon="10.00448438937827"><ele>896.0</ele><time>2026-04-11T12:47:56Z</time></trkpt><trkpt lat="44.54510931451138" lon="10.004448564900612"><ele>896.6666666666667</ele><time>2026-04-11T12:47:57Z</time></trkpt><trkpt lat="44.54493307134397" lon="10.0043775578461"><ele>897.3333333333333</ele><time>2026-04-11T12:47:58Z</time></trkpt><trkpt lat="44.54472200927315" lon="10.004286393251673"><ele>898.0</ele><time>2026-04-11T12:47:59Z</time></trkpt><trkpt lat="44.54449568040522" lon="10.004202144598938"><ele>897.0</ele><time>2026-04-11T12:48:00Z</time></trkpt><trkpt lat="44.54428092708459" lon="10.004109187861204"><ele>896.0</ele><time>2026-04-11T12:48:01Z</time></trkpt><trkpt lat="44.54407170113031" lon="10.004044539694668"><ele>895.0</ele><time>2026-04-11T12:48:02Z</time></trkpt><trkpt lat="44.54384109143345" lon="10.004059671567763"><ele>899.5</ele><time>2026-04-11T12:48:03Z</time></trkpt><trkpt lat="44.54358504967808" lon="10.004147636066685"><ele>904.0</ele><time>2026-04-11T12:48:04Z</time></trkpt><trkpt lat="44.54332557819683" lon="10.00416349631574"><ele>904.0</ele><time>2026-04-11T12:48:05Z</time></trkpt><trkpt lat="44.54308070819188" lon="10.004129044552698"><ele>904.0</ele><time>2026-04-11T12:48:06Z</time></trkpt><trkpt lat="44.54288590497824" lon="10.004044017863785"><ele>909.3333333333333</ele><time>2026-04-11T12:48:07Z</time></trkpt><trkpt lat="44.54271890370018" lon="10.003898054188202"><ele>914.6666666666667</ele><time>2026-04-11T12:48:08Z</time></trkpt><trkpt lat="44.542564674199355" lon="10.003687533673666"><ele>920.0</ele><time>2026-04-11T12:48:09Z</time></trkpt><trkpt lat="44.54244609922931" lon="10.00340608073882"><ele>918.6666666666667</ele><time>2026-04-11T12:48:10Z</time></trkpt><trkpt lat="44.54237756676347" lon="10.003107432307965"><ele>917.3333333333333</ele><time>2026-04-11T12:48:11Z</time></trkpt><trkpt lat="44.54230659236981" lon="10.00283010148122"><ele>916.0</ele><time>2026-04-11T12:48:12Z</time></trkpt><trkpt lat="44.54223538191682" lon="10.002674742979503"><ele>916.0</ele><time>2026-04-11T12:48:13Z</time></trkpt><trkpt lat="44.5421363200767" lon="10.002562727236974"><ele>916.0</ele><time>2026-04-11T12:48:14Z</time></trkpt><trkpt lat="44.541950318389766" lon="10.002505150087737"><ele>916.0</ele><time>2026-04-11T12:48:15Z</time></trkpt><trkpt lat="44.54171719111106" lon="10.0024958171415"><ele>918.0</ele><time>2026-04-11T12:48:16Z</time></trkpt><trkpt lat="44.541466065954275" lon="10.002448598783417"><ele>920.0</ele><time>2026-04-11T12:48:17Z</time></trkpt><trkpt lat="44.54124149539881" lon="10.002389323265637"><ele>924.5</ele><time>2026-04-11T12:48:18Z</time></trkpt><trkpt lat="44.541086753026725" lon="10.00235741409466"><ele>929.0</ele><time>2026-04-11T12:48:19Z</time></trkpt><trkpt lat="44.54097926783218" lon="10.002364347723562"><ele>933.5</ele><time>2026-04-11T12:48:20Z</time></trkpt><trkpt lat="44.54089989863212" lon="10.002452787651025"><ele>938.0</ele><time>2026-04-11T12:48:21Z</time></trkpt><trkpt lat="44.54086658786667" lon="10.002625587029254"><ele>938.3333333333334</ele><time>2026-04-11T12:48:22Z</time></trkpt><trkpt lat="44.54092872195637" lon="10.002812828086704"><ele>938.6666666666667</ele><time>2026-04-11T12:48:23Z</time></trkpt><trkpt lat="44.54096340958081" lon="10.00293831018561"><ele>939.0</ele><time>2026-04-11T12:48:24Z</time></trkpt><trkpt lat="44.541393510357906" lon="10.003138680155597"><ele>936.0</ele><time>2026-04-11T12:48:25Z</time></trkpt><trkpt lat="44.5415564571397" lon="10.003321125909197"><ele>933.0</ele><time>2026-04-11T12:48:26Z</time></trkpt><trkpt lat="44.54175295845214" lon="10.00353691412375"><ele>933.0</ele><time>2026-04-11T12:48:27Z</time></trkpt><trkpt lat="44.541956253467355" lon="10.003758312262928"><ele>933.0</ele><time>2026-04-11T12:48:28Z</time></trkpt><trkpt lat="44.54203782820938" lon="10.003902364481775"><ele>933.0</ele><time>2026-04-11T12:48:29Z</time></trkpt><trkpt lat="44.542091410760705" lon="10.00411654948577"><ele>934.25</ele><time>2026-04-11T12:48:30Z</time></trkpt><trkpt lat="44.54207230491475" lon="10.00431308780569"><ele>935.5</ele><time>2026-04-11T12:48:31Z</time></trkpt><trkpt lat="44.54195610730706" lon="10.004469561025543"><ele>936.75</ele><time>2026-04-11T12:48:32Z</time></trkpt><trkpt lat="44.5418746587066" lon="10.004589818542883"><ele>938.0</ele><time>2026-04-11T12:48:33Z</time></trkpt><trkpt lat="44.54165697724382" lon="10.004518366908577"><ele>938.0</ele><time>2026-04-11T12:48:34Z</time></trkpt><trkpt lat="44.54147661309342" lon="10.00447668733106"><ele>938.0</ele><time>2026-04-11T12:48:35Z</time></trkpt><trkpt lat="44.54130065004234" lon="10.00441384317061"><ele>938.0</ele><time>2026-04-11T12:48:36Z</time></trkpt><trkpt lat="44.541079705647064" lon="10.004478127314409"><ele>944.5</ele><time>2026-04-11T12:48:37Z</time></trkpt><trkpt lat="44.54085478363845" lon="10.00463965241695"><ele>951.0</ele><time>2026-04-11T12:48:38Z</time></trkpt><trkpt lat="44.54060356492882" lon="10.004773662726135"><ele>951.0</ele><time>2026-04-11T12:48:39Z</time></trkpt><trkpt lat="44.540395870011835" lon="10.004801274838295"><ele>951.0</ele><time>2026-04-11T12:48:40Z</time></trkpt><trkpt lat="44.54024692176874" lon="10.004753389932771"><ele>951.0</ele><time>2026-04-11T12:48:41Z</time></trkpt><trkpt lat="44.540014717946626" lon="10.004590898186331"><ele>957.5</ele><time>2026-04-11T12:48:42Z</time></trkpt><trkpt lat="44.539750408002234" lon="10.004490217327373"><ele>964.0</ele><time>2026-04-11T12:48:43Z</time></trkpt><trkpt lat="44.539448030329794" lon="10.004478549701473"><ele>965.5</ele><time>2026-04-11T12:48:44Z</time></trkpt><trkpt lat="44.53917234651363" lon="10.004410491396362"><ele>967.0</ele><time>2026-04-11T12:48:45Z</time></trkpt><trkpt lat="44.53893510303308" lon="10.004374999584678"><ele>967.0</ele><time>2026-04-11T12:48:46Z</time></trkpt><trkpt lat="44.53876572577964" lon="10.00427806808208"><ele>967.0</ele><time>2026-04-11T12:48:47Z</time></trkpt><trkpt lat="44.53862478618289" lon="10.004138718587216"><ele>967.0</ele><time>2026-04-11T12:48:48Z</time></trkpt><trkpt lat="44.53850413905092" lon="10.003916295972504"><ele>965.0</ele><time>2026-04-11T12:48:49Z</time></trkpt><trkpt lat="44.53840975942496" lon="10.00364210620504"><ele>963.0</ele><time>2026-04-11T12:48:50Z</time></trkpt><trkpt lat="44.53835208392157" lon="10.003352825863788"><ele>961.0</ele><time>2026-04-11T12:48:51Z</time></trkpt><trkpt lat="44.53834580938806" lon="10.003043977169224"><ele>959.3333333333333</ele><time>2026-04-11T12:48:52Z</time></trkpt><trkpt lat="44.53840351205388" lon="10.002768512707494"><ele>957.6666666666667</ele><time>2026-04-11T12:48:53Z</time></trkpt><trkpt lat="44.538477832801156" lon="10.002442199310044"><ele>956.0</ele><time>2026-04-11T12:48:54Z</time></trkpt><trkpt lat="44.53855850744252" lon="10.002063497109523"><ele>956.0</ele><time>2026-04-11T12:48:55Z</time></trkpt><trkpt lat="44.538675628747555" lon="10.001662429598959"><ele>956.0</ele><time>2026-04-11T12:48:56Z</time></trkpt><trkpt lat="44.538619035267" lon="10.001320802867975"><ele>956.0</ele><time>2026-04-11T12:48:57Z</time></trkpt><trkpt lat="44.53855781792741" lon="10.001235894212835"><ele>956.0</ele><time>2026-04-11T12:48:57.999Z</time></trkpt><trkpt lat="44.53842211360015" lon="10.000905960314478"><ele>956.0</ele><time>2026-04-11T12:48:58.999Z</time></trkpt><trkpt lat="44.53827335109222" lon="10.00054029845227"><ele>954.5</ele><time>2026-04-11T12:48:59.999Z</time></trkpt><trkpt lat="44.53813754057169" lon="10.000137749715162"><ele>953.0</ele><time>2026-04-11T12:49:00.999Z</time></trkpt><trkpt lat="44.53800484794926" lon="9.999731794181129"><ele>951.0</ele><time>2026-04-11T12:49:01.999Z</time></trkpt><trkpt lat="44.5378823580418" lon="9.999373098738088"><ele>949.0</ele><time>2026-04-11T12:49:02.999Z</time></trkpt><trkpt lat="44.537775390991335" lon="9.999042622167277"><ele>949.0</ele><time>2026-04-11T12:49:03.999Z</time></trkpt><trkpt lat="44.537680171479344" lon="9.998757341214004"><ele>949.0</ele><time>2026-04-11T12:49:04.999Z</time></trkpt><trkpt lat="44.5375646522313" lon="9.99853263833075"><ele>949.0</ele><time>2026-04-11T12:49:05.999Z</time></trkpt><trkpt lat="44.53737875724678" lon="9.998369643016048"><ele>948.5</ele><time>2026-04-11T12:49:06.999Z</time></trkpt><trkpt lat="44.53713641743319" lon="9.9982114589371"><ele>948.0</ele><time>2026-04-11T12:49:07.999Z</time></trkpt><trkpt lat="44.53690225593053" lon="9.99804500128212"><ele>948.0</ele><time>2026-04-11T12:49:08.999Z</time></trkpt><trkpt lat="44.53669293447538" lon="9.99791961648494"><ele>948.0</ele><time>2026-04-11T12:49:09.999Z</time></trkpt><trkpt lat="44.536485359301864" lon="9.997887285254262"><ele>948.0</ele><time>2026-04-11T12:49:10.999Z</time></trkpt><trkpt lat="44.53625310433472" lon="9.99796287704509"><ele>949.5</ele><time>2026-04-11T12:49:11.999Z</time></trkpt><trkpt lat="44.53606420298945" lon="9.99812890431465"><ele>951.0</ele><time>2026-04-11T12:49:12.999Z</time></trkpt><trkpt lat="44.53588863031128" lon="9.998387062035022"><ele>948.6666666666667</ele><time>2026-04-11T12:49:13.999Z</time></trkpt><trkpt lat="44.53573579965747" lon="9.998675418013653"><ele>946.3333333333334</ele><time>2026-04-11T12:49:14.999Z</time></trkpt><trkpt lat="44.53562004514506" lon="9.998856357274713"><ele>944.0</ele><time>2026-04-11T12:49:15.999Z</time></trkpt><trkpt lat="44.53551410313714" lon="9.998939342705448"><ele>942.0</ele><time>2026-04-11T12:49:16.999Z</time></trkpt><trkpt lat="44.535372317615014" lon="9.998929633640854"><ele>940.0</ele><time>2026-04-11T12:49:17.999Z</time></trkpt><trkpt lat="44.53520225538382" lon="9.998811482096238"><ele>938.0</ele><time>2026-04-11T12:49:18.999Z</time></trkpt><trkpt lat="44.53503628239697" lon="9.998575159979708"><ele>942.5</ele><time>2026-04-11T12:49:19.999Z</time></trkpt><trkpt lat="44.5348675521746" lon="9.998321212129635"><ele>947.0</ele><time>2026-04-11T12:49:20.999Z</time></trkpt><trkpt lat="44.53467425381393" lon="9.99814258178646"><ele>943.5</ele><time>2026-04-11T12:49:21.999Z</time></trkpt><trkpt lat="44.53441524832948" lon="9.998037452741443"><ele>940.0</ele><time>2026-04-11T12:49:22.999Z</time></trkpt><trkpt lat="44.534128352762465" lon="9.998033306266821"><ele>940.0</ele><time>2026-04-11T12:49:23.999Z</time></trkpt><trkpt lat="44.53381243172904" lon="9.99805597213326"><ele>940.0</ele><time>2026-04-11T12:49:24.999Z</time></trkpt><trkpt lat="44.533483814240945" lon="9.998038863020907"><ele>940.0</ele><time>2026-04-11T12:49:25.999Z</time></trkpt><trkpt lat="44.53317728931664" lon="9.998012879595173"><ele>940.0</ele><time>2026-04-11T12:49:26.999Z</time></trkpt><trkpt lat="44.532917489657514" lon="9.99799621010938"><ele>940.3333333333333</ele><time>2026-04-11T12:49:27.999Z</time></trkpt><trkpt lat="44.53269266235297" lon="9.99800327494018"><ele>940.6666666666667</ele><time>2026-04-11T12:49:28.999Z</time></trkpt><trkpt lat="44.53249221559167" lon="9.998081904258196"><ele>941.0</ele><time>2026-04-11T12:49:29.999Z</time></trkpt><trkpt lat="44.5323305275834" lon="9.998227909477164"><ele>938.3333333333334</ele><time>2026-04-11T12:49:30.999Z</time></trkpt><trkpt lat="44.53219665865244" lon="9.998346459988111"><ele>935.6666666666667</ele><time>2026-04-11T12:49:31.999Z</time></trkpt><trkpt lat="44.53204811919845" lon="9.998352696372626"><ele>933.0</ele><time>2026-04-11T12:49:32.999Z</time></trkpt><trkpt lat="44.53187760481472" lon="9.998232967416008"><ele>933.0</ele><time>2026-04-11T12:49:33.999Z</time></trkpt><trkpt lat="44.53170061335342" lon="9.998009902595097"><ele>933.0</ele><time>2026-04-11T12:49:34.999Z</time></trkpt><trkpt lat="44.53157999312048" lon="9.997789978857874"><ele>933.0</ele><time>2026-04-11T12:49:35.999Z</time></trkpt><trkpt lat="44.53151661935844" lon="9.997499080792386"><ele>935.6666666666667</ele><time>2026-04-11T12:49:36.999Z</time></trkpt><trkpt lat="44.53151712758215" lon="9.997172970241696"><ele>938.3333333333334</ele><time>2026-04-11T12:49:37.999Z</time></trkpt><trkpt lat="44.5315070568234" lon="9.996936665529601"><ele>941.0</ele><time>2026-04-11T12:49:38.999Z</time></trkpt><trkpt lat="44.53142706602593" lon="9.996780982459708"><ele>941.0</ele><time>2026-04-11T12:49:39.999Z</time></trkpt><trkpt lat="44.53128908248586" lon="9.996703616839138"><ele>941.0</ele><time>2026-04-11T12:49:40.999Z</time></trkpt><trkpt lat="44.531104390308364" lon="9.996720050062876"><ele>941.0</ele><time>2026-04-11T12:49:41.999Z</time></trkpt><trkpt lat="44.53091109751043" lon="9.99680045003255"><ele>941.6666666666667</ele><time>2026-04-11T12:49:42.999Z</time></trkpt><trkpt lat="44.53071204441839" lon="9.996790505962423"><ele>942.3333333333333</ele><time>2026-04-11T12:49:43.999Z</time></trkpt><trkpt lat="44.53050123440038" lon="9.996611860055676"><ele>943.0</ele><time>2026-04-11T12:49:44.999Z</time></trkpt><trkpt lat="44.53026663607823" lon="9.996382279623305"><ele>937.0</ele><time>2026-04-11T12:49:45.999Z</time></trkpt><trkpt lat="44.53000358649066" lon="9.996151585545865"><ele>931.0</ele><time>2026-04-11T12:49:46.999Z</time></trkpt><trkpt lat="44.52974262007457" lon="9.995928077997966"><ele>933.0</ele><time>2026-04-11T12:49:47.999Z</time></trkpt><trkpt lat="44.529547998589415" lon="9.995763834876518"><ele>935.0</ele><time>2026-04-11T12:49:48.999Z</time></trkpt><trkpt lat="44.529395863265094" lon="9.995644696558"><ele>937.0</ele><time>2026-04-11T12:49:49.999Z</time></trkpt><trkpt lat="44.52924559155684" lon="9.995589979587557"><ele>937.0</ele><time>2026-04-11T12:49:50.999Z</time></trkpt><trkpt lat="44.52907587859968" lon="9.995664748225273"><ele>937.0</ele><time>2026-04-11T12:49:51.999Z</time></trkpt><trkpt lat="44.52890321020881" lon="9.9958481210505"><ele>937.0</ele><time>2026-04-11T12:49:52.999Z</time></trkpt><trkpt lat="44.52875079270072" lon="9.995975935079569"><ele>933.6666666666666</ele><time>2026-04-11T12:49:54Z</time></trkpt><trkpt lat="44.52859286147227" lon="9.99596851058229"><ele>930.3333333333333</ele><time>2026-04-11T12:49:55Z</time></trkpt><trkpt lat="44.52844479187847" lon="9.995835371055595"><ele>927.0</ele><time>2026-04-11T12:49:56Z</time></trkpt><trkpt lat="44.52829949621275" lon="9.995581067965828"><ele>927.0</ele><time>2026-04-11T12:49:57Z</time></trkpt><trkpt lat="44.52811077403481" lon="9.9953290072445"><ele>927.0</ele><time>2026-04-11T12:49:58Z</time></trkpt><trkpt lat="44.527875692373556" lon="9.995154351566528"><ele>920.0</ele><time>2026-04-11T12:49:59Z</time></trkpt><trkpt lat="44.5275986676972" lon="9.995077174928038"><ele>913.0</ele><time>2026-04-11T12:50:00Z</time></trkpt><trkpt lat="44.52734928598692" lon="9.995035629396723"><ele>914.6666666666666</ele><time>2026-04-11T12:50:01Z</time></trkpt><trkpt lat="44.52715340436963" lon="9.994935914183154"><ele>916.3333333333333</ele><time>2026-04-11T12:50:02Z</time></trkpt><trkpt lat="44.52702106882974" lon="9.994766754157293"><ele>918.0</ele><time>2026-04-11T12:50:03Z</time></trkpt><trkpt lat="44.52690728019908" lon="9.994492832148051"><ele>918.0</ele><time>2026-04-11T12:50:04Z</time></trkpt><trkpt lat="44.526806139843735" lon="9.994287871969576"><ele>918.0</ele><time>2026-04-11T12:50:05Z</time></trkpt><trkpt lat="44.5266717480402" lon="9.994186641179791"><ele>918.0</ele><time>2026-04-11T12:50:06Z</time></trkpt><trkpt lat="44.52648495003985" lon="9.994185000493815"><ele>918.0</ele><time>2026-04-11T12:50:07Z</time></trkpt><trkpt lat="44.52627607148569" lon="9.99429898028884"><ele>918.0</ele><time>2026-04-11T12:50:08Z</time></trkpt><trkpt lat="44.52607553461154" lon="9.994515256032814"><ele>919.0</ele><time>2026-04-11T12:50:09Z</time></trkpt><trkpt lat="44.52586607883808" lon="9.994724468005597"><ele>920.0</ele><time>2026-04-11T12:50:10Z</time></trkpt><trkpt lat="44.525674710416574" lon="9.994831870141764"><ele>920.0</ele><time>2026-04-11T12:50:11Z</time></trkpt><trkpt lat="44.525468369719114" lon="9.994875240761635"><ele>920.0</ele><time>2026-04-11T12:50:12Z</time></trkpt><trkpt lat="44.5252180787503" lon="9.994876117240699"><ele>921.3333333333334</ele><time>2026-04-11T12:50:13Z</time></trkpt><trkpt lat="44.52495913107218" lon="9.994849466940108"><ele>922.6666666666667</ele><time>2026-04-11T12:50:14Z</time></trkpt><trkpt lat="44.524774282176544" lon="9.99485843097098"><ele>924.0</ele><time>2026-04-11T12:50:15Z</time></trkpt><trkpt lat="44.52462065654736" lon="9.994945988504044"><ele>921.6666666666667</ele><time>2026-04-11T12:50:16Z</time></trkpt><trkpt lat="44.52448524342238" lon="9.995146333734098"><ele>919.3333333333334</ele><time>2026-04-11T12:50:17Z</time></trkpt><trkpt lat="44.524398609215986" lon="9.995435593833369"><ele>917.0</ele><time>2026-04-11T12:50:18Z</time></trkpt><trkpt lat="44.52431482123147" lon="9.995643955834932"><ele>917.0</ele><time>2026-04-11T12:50:19Z</time></trkpt><trkpt lat="44.524163216502785" lon="9.995745741395302"><ele>917.0</ele><time>2026-04-11T12:50:20Z</time></trkpt><trkpt lat="44.523954756850074" lon="9.99576411149893"><ele>917.0</ele><time>2026-04-11T12:50:21Z</time></trkpt><trkpt lat="44.52369658865114" lon="9.995683522929731"><ele>918.0</ele><time>2026-04-11T12:50:22Z</time></trkpt><trkpt lat="44.52341285916762" lon="9.995690262714646"><ele>919.0</ele><time>2026-04-11T12:50:23Z</time></trkpt><trkpt lat="44.52310226054338" lon="9.995698532163773"><ele>916.5</ele><time>2026-04-11T12:50:24Z</time></trkpt><trkpt lat="44.5228214914387" lon="9.99570634377403"><ele>914.0</ele><time>2026-04-11T12:50:25Z</time></trkpt><trkpt lat="44.52257163267035" lon="9.995709220046187"><ele>914.0</ele><time>2026-04-11T12:50:26Z</time></trkpt><trkpt lat="44.522366603038066" lon="9.995665396207443"><ele>914.0</ele><time>2026-04-11T12:50:27Z</time></trkpt><trkpt lat="44.522206143840585" lon="9.995554339128129"><ele>914.0</ele><time>2026-04-11T12:50:28Z</time></trkpt><trkpt lat="44.52208109885636" lon="9.995380118191754"><ele>909.0</ele><time>2026-04-11T12:50:29Z</time></trkpt><trkpt lat="44.52190486223005" lon="9.995091160702676"><ele>904.0</ele><time>2026-04-11T12:50:30Z</time></trkpt><trkpt lat="44.52168245156799" lon="9.994861875996758"><ele>904.0</ele><time>2026-04-11T12:50:31Z</time></trkpt><trkpt lat="44.521436648598794" lon="9.994611587930939"><ele>904.0</ele><time>2026-04-11T12:50:32Z</time></trkpt><trkpt lat="44.52118003960523" lon="9.994381953033772"><ele>899.5</ele><time>2026-04-11T12:50:33Z</time></trkpt><trkpt lat="44.520966660324184" lon="9.994176985335947"><ele>895.0</ele><time>2026-04-11T12:50:34Z</time></trkpt><trkpt lat="44.520777023570204" lon="9.994023233129935"><ele>895.0</ele><time>2026-04-11T12:50:35Z</time></trkpt><trkpt lat="44.52057290347895" lon="9.993945227146872"><ele>895.0</ele><time>2026-04-11T12:50:36Z</time></trkpt><trkpt lat="44.52030030969258" lon="9.99395913647378"><ele>892.5</ele><time>2026-04-11T12:50:37Z</time></trkpt><trkpt lat="44.51999812608625" lon="9.993992322985717"><ele>890.0</ele><time>2026-04-11T12:50:38Z</time></trkpt><trkpt lat="44.519702602936746" lon="9.994008907345725"><ele>889.5</ele><time>2026-04-11T12:50:39Z</time></trkpt><trkpt lat="44.5194414516543" lon="9.99394797504943"><ele>889.0</ele><time>2026-04-11T12:50:40Z</time></trkpt><trkpt lat="44.51918829950903" lon="9.993899052040955"><ele>889.0</ele><time>2026-04-11T12:50:41Z</time></trkpt><trkpt lat="44.51894465872382" lon="9.993842909189842"><ele>889.0</ele><time>2026-04-11T12:50:42Z</time></trkpt><trkpt lat="44.5187244828266" lon="9.993833992255333"><ele>888.3333333333333</ele><time>2026-04-11T12:50:43Z</time></trkpt><trkpt lat="44.51852619840627" lon="9.993839637423065"><ele>887.6666666666667</ele><time>2026-04-11T12:50:44Z</time></trkpt><trkpt lat="44.518354324197176" lon="9.993956120439421"><ele>887.0</ele><time>2026-04-11T12:50:45Z</time></trkpt><trkpt lat="44.518156996646745" lon="9.99416911329506"><ele>888.0</ele><time>2026-04-11T12:50:46Z</time></trkpt><trkpt lat="44.51795215267657" lon="9.994451106160199"><ele>889.0</ele><time>2026-04-11T12:50:47Z</time></trkpt><trkpt lat="44.51775560605149" lon="9.994701892405427"><ele>889.0</ele><time>2026-04-11T12:50:48Z</time></trkpt><trkpt lat="44.51758011731413" lon="9.994919678140187"><ele>889.0</ele><time>2026-04-11T12:50:49Z</time></trkpt><trkpt lat="44.51742293761805" lon="9.99510595407498"><ele>889.0</ele><time>2026-04-11T12:50:50Z</time></trkpt><trkpt lat="44.51729032235155" lon="9.995291427197714"><ele>885.0</ele><time>2026-04-11T12:50:51Z</time></trkpt><trkpt lat="44.51719153187378" lon="9.995511468824846"><ele>881.0</ele><time>2026-04-11T12:50:52Z</time></trkpt><trkpt lat="44.51711699801153" lon="9.995744672298331"><ele>877.0</ele><time>2026-04-11T12:50:53Z</time></trkpt><trkpt lat="44.51705325402859" lon="9.995948193083809"><ele>876.75</ele><time>2026-04-11T12:50:54Z</time></trkpt><trkpt lat="44.516983590868435" lon="9.996083703952017"><ele>876.5</ele><time>2026-04-11T12:50:55Z</time></trkpt><trkpt lat="44.51685318002887" lon="9.996123128278963"><ele>876.25</ele><time>2026-04-11T12:50:56Z</time></trkpt><trkpt lat="44.51670475161984" lon="9.996093543095352"><ele>876.0</ele><time>2026-04-11T12:50:57Z</time></trkpt><trkpt lat="44.51647128107182" lon="9.996076326137269"><ele>874.0</ele><time>2026-04-11T12:50:58Z</time></trkpt><trkpt lat="44.51619640293525" lon="9.996050114915313"><ele>872.0</ele><time>2026-04-11T12:50:59Z</time></trkpt><trkpt lat="44.515908136335234" lon="9.99603966689292"><ele>872.0</ele><time>2026-04-11T12:51:00Z</time></trkpt><trkpt lat="44.51562879480513" lon="9.995999211400626"><ele>872.0</ele><time>2026-04-11T12:51:01Z</time></trkpt><trkpt lat="44.515338839620505" lon="9.995961383940578"><ele>869.0</ele><time>2026-04-11T12:51:02Z</time></trkpt><trkpt lat="44.51503545801485" lon="9.99591630587654"><ele>866.0</ele><time>2026-04-11T12:51:03Z</time></trkpt><trkpt lat="44.51470588621803" lon="9.995868937064847"><ele>873.5</ele><time>2026-04-11T12:51:03.999Z</time></trkpt><trkpt lat="44.514407662012694" lon="9.995830841432598"><ele>881.0</ele><time>2026-04-11T12:51:04.999Z</time></trkpt><trkpt lat="44.514137364247816" lon="9.99579399823509"><ele>881.0</ele><time>2026-04-11T12:51:05.999Z</time></trkpt><trkpt lat="44.51388593323987" lon="9.995793470397732"><ele>881.0</ele><time>2026-04-11T12:51:06.999Z</time></trkpt><trkpt lat="44.51362400473406" lon="9.995891480058642"><ele>874.0</ele><time>2026-04-11T12:51:07.999Z</time></trkpt><trkpt lat="44.51333344235906" lon="9.996043869699802"><ele>867.0</ele><time>2026-04-11T12:51:08.999Z</time></trkpt><trkpt lat="44.51309274290767" lon="9.996189440036066"><ele>873.6666666666667</ele><time>2026-04-11T12:51:09.999Z</time></trkpt><trkpt lat="44.512896181495016" lon="9.996280273428725"><ele>880.3333333333334</ele><time>2026-04-11T12:51:10.999Z</time></trkpt><trkpt lat="44.51274376915541" lon="9.996381674234286"><ele>887.0</ele><time>2026-04-11T12:51:11.999Z</time></trkpt><trkpt lat="44.51263553670512" lon="9.996623109077493"><ele>879.5</ele><time>2026-04-11T12:51:12.999Z</time></trkpt><trkpt lat="44.51250595385901" lon="9.996945119002424"><ele>872.0</ele><time>2026-04-11T12:51:13.999Z</time></trkpt><trkpt lat="44.51239766899665" lon="9.997319832658988"><ele>868.3333333333334</ele><time>2026-04-11T12:51:14.999Z</time></trkpt><trkpt lat="44.512284782108615" lon="9.997628188361498"><ele>864.6666666666667</ele><time>2026-04-11T12:51:15.999Z</time></trkpt><trkpt lat="44.51217659772424" lon="9.997852263778327"><ele>861.0</ele><time>2026-04-11T12:51:16.999Z</time></trkpt><trkpt lat="44.5120305666583" lon="9.998003480798385"><ele>861.0</ele><time>2026-04-11T12:51:17.999Z</time></trkpt><trkpt lat="44.51182421000754" lon="9.99803686506583"><ele>861.0</ele><time>2026-04-11T12:51:18.999Z</time></trkpt><trkpt lat="44.51162971701192" lon="9.998060781253416"><ele>861.0</ele><time>2026-04-11T12:51:19.999Z</time></trkpt><trkpt lat="44.511412851700875" lon="9.998023095954865"><ele>861.0</ele><time>2026-04-11T12:51:20.999Z</time></trkpt><trkpt lat="44.511275536761474" lon="9.997908886149132"><ele>861.0</ele><time>2026-04-11T12:51:21.999Z</time></trkpt><trkpt lat="44.511124542644765" lon="9.997730287526213"><ele>861.0</ele><time>2026-04-11T12:51:22.999Z</time></trkpt><trkpt lat="44.51097456147779" lon="9.99751067865585"><ele>860.3333333333333</ele><time>2026-04-11T12:51:23.999Z</time></trkpt><trkpt lat="44.51089306202448" lon="9.997282694611691"><ele>859.6666666666666</ele><time>2026-04-11T12:51:24.999Z</time></trkpt><trkpt lat="44.51083058126793" lon="9.996965498047091"><ele>859.0</ele><time>2026-04-11T12:51:25.999Z</time></trkpt><trkpt lat="44.51071677130941" lon="9.996658250197255"><ele>864.5</ele><time>2026-04-11T12:51:26.999Z</time></trkpt><trkpt lat="44.51054697853874" lon="9.996370956577731"><ele>870.0</ele><time>2026-04-11T12:51:27.999Z</time></trkpt><trkpt lat="44.51037637869533" lon="9.996081338310502"><ele>863.6666666666667</ele><time>2026-04-11T12:51:28.999Z</time></trkpt><trkpt lat="44.5101971411297" lon="9.995909202864391"><ele>857.3333333333334</ele><time>2026-04-11T12:51:29.999Z</time></trkpt><trkpt lat="44.5100213032387" lon="9.995767418065245"><ele>851.0</ele><time>2026-04-11T12:51:30.999Z</time></trkpt><trkpt lat="44.50989470902799" lon="9.995639209195987"><ele>851.0</ele><time>2026-04-11T12:51:31.999Z</time></trkpt><trkpt lat="44.50986893432189" lon="9.99546916215096"><ele>851.0</ele><time>2026-04-11T12:51:32.999Z</time></trkpt><trkpt lat="44.509792858639706" lon="9.99521245043221"><ele>851.0</ele><time>2026-04-11T12:51:33.999Z</time></trkpt><trkpt lat="44.50969366669573" lon="9.994923380055273"><ele>853.6666666666667</ele><time>2026-04-11T12:51:34.999Z</time></trkpt><trkpt lat="44.50959258828942" lon="9.994741444569033"><ele>856.3333333333333</ele><time>2026-04-11T12:51:35.999Z</time></trkpt><trkpt lat="44.509448088899326" lon="9.99460253970043"><ele>859.0</ele><time>2026-04-11T12:51:36.999Z</time></trkpt><trkpt lat="44.50924580086277" lon="9.994576158286684"><ele>852.3333333333333</ele><time>2026-04-11T12:51:37.999Z</time></trkpt><trkpt lat="44.50901147258157" lon="9.994583096729846"><ele>845.6666666666667</ele><time>2026-04-11T12:51:38.999Z</time></trkpt><trkpt lat="44.50881176989512" lon="9.994562585912286"><ele>839.0</ele><time>2026-04-11T12:51:39.999Z</time></trkpt><trkpt lat="44.50868805178554" lon="9.994411778412353"><ele>837.3333333333334</ele><time>2026-04-11T12:51:40.999Z</time></trkpt><trkpt lat="44.508587301701844" lon="9.994237558860268"><ele>835.6666666666667</ele><time>2026-04-11T12:51:41.999Z</time></trkpt><trkpt lat="44.50850534819636" lon="9.994061905812963"><ele>834.0</ele><time>2026-04-11T12:51:42.999Z</time></trkpt><trkpt lat="44.50843782885531" lon="9.993879916625032"><ele>834.0</ele><time>2026-04-11T12:51:43.999Z</time></trkpt><trkpt lat="44.508380147090264" lon="9.993686965194096"><ele>834.0</ele><time>2026-04-11T12:51:44.999Z</time></trkpt><trkpt lat="44.508312488911386" lon="9.993505993358706"><ele>834.0</ele><time>2026-04-11T12:51:45.999Z</time></trkpt><trkpt lat="44.50826255753711" lon="9.993318958381511"><ele>834.0</ele><time>2026-04-11T12:51:46.999Z</time></trkpt><trkpt lat="44.50821621546172" lon="9.993133110602837"><ele>836.25</ele><time>2026-04-11T12:51:47.999Z</time></trkpt><trkpt lat="44.508169293844226" lon="9.992951448520628"><ele>838.5</ele><time>2026-04-11T12:51:48.999Z</time></trkpt><trkpt lat="44.508106383381424" lon="9.992766851017354"><ele>840.75</ele><time>2026-04-11T12:51:49.999Z</time></trkpt><trkpt lat="44.5080161642993" lon="9.992589416377083"><ele>843.0</ele><time>2026-04-11T12:51:50.999Z</time></trkpt><trkpt lat="44.5078993904157" lon="9.992445482441742"><ele>843.0</ele><time>2026-04-11T12:51:51.999Z</time></trkpt><trkpt lat="44.50776594869916" lon="9.992330475531062"><ele>843.0</ele><time>2026-04-11T12:51:52.999Z</time></trkpt><trkpt lat="44.5076510111101" lon="9.992229403536262"><ele>843.0</ele><time>2026-04-11T12:51:53.999Z</time></trkpt><trkpt lat="44.50753464144194" lon="9.992111465391948"><ele>843.0</ele><time>2026-04-11T12:51:54.999Z</time></trkpt><trkpt lat="44.50742153904502" lon="9.991997705749002"><ele>843.0</ele><time>2026-04-11T12:51:55.999Z</time></trkpt><trkpt lat="44.50730988526416" lon="9.991882554763839"><ele>843.0</ele><time>2026-04-11T12:51:56.999Z</time></trkpt><trkpt lat="44.50719266302042" lon="9.991765594006658"><ele>843.0</ele><time>2026-04-11T12:51:57.999Z</time></trkpt><trkpt lat="44.507076841686924" lon="9.991648581531386"><ele>843.0</ele><time>2026-04-11T12:51:58.999Z</time></trkpt><trkpt lat="44.506966724279735" lon="9.99152262039613"><ele>843.0</ele><time>2026-04-11T12:52:00Z</time></trkpt><trkpt lat="44.506857186158015" lon="9.991391658501028"><ele>843.0</ele><time>2026-04-11T12:52:01Z</time></trkpt><trkpt lat="44.506754310070455" lon="9.991249655454313"><ele>843.0</ele><time>2026-04-11T12:52:02Z</time></trkpt><trkpt lat="44.50665241800361" lon="9.991127276990454"><ele>843.0</ele><time>2026-04-11T12:52:03Z</time></trkpt><trkpt lat="44.50655090603356" lon="9.99099874059589"><ele>842.3333333333333</ele><time>2026-04-11T12:52:04Z</time></trkpt><trkpt lat="44.506455877024116" lon="9.990823934363647"><ele>841.6666666666666</ele><time>2026-04-11T12:52:05Z</time></trkpt><trkpt lat="44.506364233220914" lon="9.99064093171495"><ele>841.0</ele><time>2026-04-11T12:52:06Z</time></trkpt><trkpt lat="44.506287662844834" lon="9.990446374216384"><ele>842.25</ele><time>2026-04-11T12:52:07Z</time></trkpt><trkpt lat="44.50622144391668" lon="9.990256102487674"><ele>843.5</ele><time>2026-04-11T12:52:08Z</time></trkpt><trkpt lat="44.50613788122003" lon="9.990082332860027"><ele>844.75</ele><time>2026-04-11T12:52:09Z</time></trkpt><trkpt lat="44.5060405533194" lon="9.989933333029278"><ele>846.0</ele><time>2026-04-11T12:52:10Z</time></trkpt><trkpt lat="44.505930709107695" lon="9.989809791146005"><ele>846.0</ele><time>2026-04-11T12:52:11Z</time></trkpt><trkpt lat="44.50583023253452" lon="9.989710483917715"><ele>846.0</ele><time>2026-04-11T12:52:12Z</time></trkpt><trkpt lat="44.50573484955006" lon="9.989615639742697"><ele>846.0</ele><time>2026-04-11T12:52:13Z</time></trkpt><trkpt lat="44.50562486062506" lon="9.989502753147153"><ele>846.0</ele><time>2026-04-11T12:52:14Z</time></trkpt><trkpt lat="44.505511603615325" lon="9.98937802548307"><ele>847.0</ele><time>2026-04-11T12:52:15Z</time></trkpt><trkpt lat="44.50539476870832" lon="9.989257044088637"><ele>848.0</ele><time>2026-04-11T12:52:16Z</time></trkpt><trkpt lat="44.50527930790835" lon="9.989124677901497"><ele>849.0</ele><time>2026-04-11T12:52:17Z</time></trkpt><trkpt lat="44.50514648027428" lon="9.988998733465387"><ele>849.0</ele><time>2026-04-11T12:52:18Z</time></trkpt><trkpt lat="44.5049726213181" lon="9.988936677329626"><ele>849.0</ele><time>2026-04-11T12:52:19Z</time></trkpt><trkpt lat="44.504754481629" lon="9.988945910976181"><ele>849.0</ele><time>2026-04-11T12:52:20Z</time></trkpt><trkpt lat="44.50449584342163" lon="9.988942341615257"><ele>850.3333333333333</ele><time>2026-04-11T12:52:21Z</time></trkpt><trkpt lat="44.50422440772421" lon="9.988902078471867"><ele>851.6666666666666</ele><time>2026-04-11T12:52:22Z</time></trkpt><trkpt lat="44.504104844425974" lon="9.988843534986394"><ele>853.0</ele><time>2026-04-11T12:52:23Z</time></trkpt><trkpt lat="44.503945193390294" lon="9.988730214640553"><ele>853.0</ele><time>2026-04-11T12:52:24Z</time></trkpt><trkpt lat="44.503796596111485" lon="9.988606101156817"><ele>853.0</ele><time>2026-04-11T12:52:25Z</time></trkpt><trkpt lat="44.503642800072875" lon="9.988448342083842"><ele>853.0</ele><time>2026-04-11T12:52:26Z</time></trkpt><trkpt lat="44.503496461896724" lon="9.988256843534026"><ele>853.3333333333333</ele><time>2026-04-11T12:52:27Z</time></trkpt><trkpt lat="44.50336872835854" lon="9.988008186662467"><ele>853.6666666666667</ele><time>2026-04-11T12:52:28Z</time></trkpt><trkpt lat="44.503247253742266" lon="9.987750100681424"><ele>854.0</ele><time>2026-04-11T12:52:29Z</time></trkpt><trkpt lat="44.50312572061288" lon="9.987547707772919"><ele>853.75</ele><time>2026-04-11T12:52:30Z</time></trkpt><trkpt lat="44.503039966552905" lon="9.987395390862014"><ele>853.5</ele><time>2026-04-11T12:52:31Z</time></trkpt><trkpt lat="44.502942544019916" lon="9.987317788747013"><ele>853.25</ele><time>2026-04-11T12:52:32Z</time></trkpt><trkpt lat="44.50280843867431" lon="9.987308114202605"><ele>853.0</ele><time>2026-04-11T12:52:33Z</time></trkpt><trkpt lat="44.50262767386295" lon="9.987387081972896"><ele>853.0</ele><time>2026-04-11T12:52:34Z</time></trkpt><trkpt lat="44.50242697397294" lon="9.987467005728979"><ele>853.0</ele><time>2026-04-11T12:52:35Z</time></trkpt><trkpt lat="44.50225555926128" lon="9.987505788444915"><ele>853.0</ele><time>2026-04-11T12:52:36Z</time></trkpt><trkpt lat="44.50214158884504" lon="9.987433349362362"><ele>853.0</ele><time>2026-04-11T12:52:37Z</time></trkpt><trkpt lat="44.50206468274595" lon="9.98731180601899"><ele>853.0</ele><time>2026-04-11T12:52:38Z</time></trkpt><trkpt lat="44.502041410318" lon="9.987134642447959"><ele>853.0</ele><time>2026-04-11T12:52:39Z</time></trkpt><trkpt lat="44.502101352883535" lon="9.986963850301755"><ele>853.0</ele><time>2026-04-11T12:52:40Z</time></trkpt><trkpt lat="44.502181894257475" lon="9.986756853531224"><ele>851.0</ele><time>2026-04-11T12:52:41Z</time></trkpt><trkpt lat="44.502251595658066" lon="9.98649722954698"><ele>849.0</ele><time>2026-04-11T12:52:42Z</time></trkpt><trkpt lat="44.502245355425345" lon="9.986259535451053"><ele>847.0</ele><time>2026-04-11T12:52:43Z</time></trkpt><trkpt lat="44.50217301222687" lon="9.986039410283455"><ele>853.5</ele><time>2026-04-11T12:52:44Z</time></trkpt><trkpt lat="44.502035496356456" lon="9.98579718097072"><ele>860.0</ele><time>2026-04-11T12:52:45Z</time></trkpt><trkpt lat="44.50181791471238" lon="9.985533993521026"><ele>860.0</ele><time>2026-04-11T12:52:46Z</time></trkpt><trkpt lat="44.50162713332749" lon="9.985406184807651"><ele>860.0</ele><time>2026-04-11T12:52:47Z</time></trkpt><trkpt lat="44.50150226904688" lon="9.985243642846386"><ele>860.0</ele><time>2026-04-11T12:52:48Z</time></trkpt><trkpt lat="44.5014492859209" lon="9.985084655413948"><ele>859.3333333333334</ele><time>2026-04-11T12:52:49Z</time></trkpt><trkpt lat="44.50144334357753" lon="9.984905055143571"><ele>858.6666666666667</ele><time>2026-04-11T12:52:50Z</time></trkpt><trkpt lat="44.501507551115004" lon="9.984723392432906"><ele>858.0</ele><time>2026-04-11T12:52:51Z</time></trkpt><trkpt lat="44.50162694912541" lon="9.98450340506558"><ele>858.0</ele><time>2026-04-11T12:52:52Z</time></trkpt><trkpt lat="44.501740990143844" lon="9.984233904679385"><ele>858.0</ele><time>2026-04-11T12:52:53Z</time></trkpt><trkpt lat="44.501852490179786" lon="9.98393653066572"><ele>860.3333333333333</ele><time>2026-04-11T12:52:54Z</time></trkpt><trkpt lat="44.501902629580954" lon="9.9836432151492"><ele>862.6666666666666</ele><time>2026-04-11T12:52:55Z</time></trkpt><trkpt lat="44.501927380671184" lon="9.983369296508812"><ele>865.0</ele><time>2026-04-11T12:52:56Z</time></trkpt><trkpt lat="44.5018708394991" lon="9.983065248002646"><ele>865.0</ele><time>2026-04-11T12:52:57Z</time></trkpt><trkpt lat="44.50178008594121" lon="9.98276037445708"><ele>865.0</ele><time>2026-04-11T12:52:58Z</time></trkpt><trkpt lat="44.501705335641894" lon="9.982529778762084"><ele>865.0</ele><time>2026-04-11T12:52:59Z</time></trkpt><trkpt lat="44.501625516361045" lon="9.982404325223943"><ele>862.3333333333333</ele><time>2026-04-11T12:53:00Z</time></trkpt><trkpt lat="44.50146224321841" lon="9.982311980068653"><ele>859.6666666666667</ele><time>2026-04-11T12:53:01Z</time></trkpt><trkpt lat="44.5012015183899" lon="9.982201143278314"><ele>857.0</ele><time>2026-04-11T12:53:02Z</time></trkpt><trkpt lat="44.50097337897469" lon="9.982051200803815"><ele>858.0</ele><time>2026-04-11T12:53:03Z</time></trkpt><trkpt lat="44.500767829040804" lon="9.981848066126373"><ele>859.0</ele><time>2026-04-11T12:53:04Z</time></trkpt><trkpt lat="44.50057453661093" lon="9.981596508766309"><ele>868.0</ele><time>2026-04-11T12:53:05Z</time></trkpt><trkpt lat="44.50041152736561" lon="9.981367139574056"><ele>877.0</ele><time>2026-04-11T12:53:06Z</time></trkpt><trkpt lat="44.50027618135021" lon="9.981140754902642"><ele>886.0</ele><time>2026-04-11T12:53:07Z</time></trkpt><trkpt lat="44.5000957212161" lon="9.980889007070749"><ele>880.3333333333333</ele><time>2026-04-11T12:53:08Z</time></trkpt><trkpt lat="44.50000890850893" lon="9.980625399106373"><ele>874.6666666666667</ele><time>2026-04-11T12:53:09Z</time></trkpt><trkpt lat="44.49999474232384" lon="9.98034739834251"><ele>869.0</ele><time>2026-04-11T12:53:10Z</time></trkpt><trkpt lat="44.50003639328481" lon="9.98003037943697"><ele>868.3333333333334</ele><time>2026-04-11T12:53:11Z</time></trkpt><trkpt lat="44.500094146092685" lon="9.979703863499587"><ele>867.6666666666667</ele><time>2026-04-11T12:53:12Z</time></trkpt><trkpt lat="44.50005283495482" lon="9.979430255377586"><ele>867.0</ele><time>2026-04-11T12:53:12.999Z</time></trkpt><trkpt lat="44.499944711338344" lon="9.979130172884744"><ele>865.5</ele><time>2026-04-11T12:53:13.999Z</time></trkpt><trkpt lat="44.499820519562206" lon="9.978821545959955"><ele>864.0</ele><time>2026-04-11T12:53:14.999Z</time></trkpt><trkpt lat="44.49977475612566" lon="9.97854090774011"><ele>863.6666666666667</ele><time>2026-04-11T12:53:15.999Z</time></trkpt><trkpt lat="44.49978544304329" lon="9.978272987578219"><ele>863.3333333333334</ele><time>2026-04-11T12:53:16.999Z</time></trkpt><trkpt lat="44.499803723222364" lon="9.977954003113632"><ele>863.0</ele><time>2026-04-11T12:53:17.999Z</time></trkpt><trkpt lat="44.49981294607777" lon="9.977667658864409"><ele>862.0</ele><time>2026-04-11T12:53:18.999Z</time></trkpt><trkpt lat="44.49979419573358" lon="9.977410634964452"><ele>861.0</ele><time>2026-04-11T12:53:19.999Z</time></trkpt><trkpt lat="44.49975170171595" lon="9.977173931617546"><ele>860.0</ele><time>2026-04-11T12:53:20.999Z</time></trkpt><trkpt lat="44.49967493725875" lon="9.976945770256236"><ele>873.6666666666667</ele><time>2026-04-11T12:53:21.999Z</time></trkpt><trkpt lat="44.49957245297739" lon="9.976688402800878"><ele>887.3333333333333</ele><time>2026-04-11T12:53:22.999Z</time></trkpt><trkpt lat="44.499478440823154" lon="9.976426798732994"><ele>901.0</ele><time>2026-04-11T12:53:23.999Z</time></trkpt><trkpt lat="44.49941508773892" lon="9.976153554273528"><ele>901.0</ele><time>2026-04-11T12:53:24.999Z</time></trkpt><trkpt lat="44.49938905948199" lon="9.975868865185092"><ele>901.0</ele><time>2026-04-11T12:53:25.999Z</time></trkpt><trkpt lat="44.49936730390877" lon="9.975609113118452"><ele>901.0</ele><time>2026-04-11T12:53:26.999Z</time></trkpt><trkpt lat="44.499333220923084" lon="9.97540429644668"><ele>894.6666666666666</ele><time>2026-04-11T12:53:27.999Z</time></trkpt><trkpt lat="44.49929418982814" lon="9.975283984883797"><ele>888.3333333333333</ele><time>2026-04-11T12:53:28.999Z</time></trkpt><trkpt lat="44.49918377206362" lon="9.975183511759143"><ele>882.0</ele><time>2026-04-11T12:53:29.999Z</time></trkpt><trkpt lat="44.49896488476256" lon="9.975257808680915"><ele>895.5</ele><time>2026-04-11T12:53:30.999Z</time></trkpt><trkpt lat="44.49874602745401" lon="9.975278700450088"><ele>909.0</ele><time>2026-04-11T12:53:31.999Z</time></trkpt><trkpt lat="44.49850299892424" lon="9.975150695768264"><ele>909.0</ele><time>2026-04-11T12:53:32.999Z</time></trkpt><trkpt lat="44.49825241892914" lon="9.975056625833256"><ele>909.0</ele><time>2026-04-11T12:53:33.999Z</time></trkpt><trkpt lat="44.49801126449272" lon="9.974933194100135"><ele>905.6666666666667</ele><time>2026-04-11T12:53:34.999Z</time></trkpt><trkpt lat="44.49783505386859" lon="9.974762211156039"><ele>902.3333333333334</ele><time>2026-04-11T12:53:35.999Z</time></trkpt><trkpt lat="44.49770078802011" lon="9.974559893902272"><ele>899.0</ele><time>2026-04-11T12:53:36.999Z</time></trkpt><trkpt lat="44.49754840610939" lon="9.9743468140068"><ele>894.6666666666667</ele><time>2026-04-11T12:53:37.999Z</time></trkpt><trkpt lat="44.49742867024621" lon="9.974141979098519"><ele>890.3333333333333</ele><time>2026-04-11T12:53:38.999Z</time></trkpt><trkpt lat="44.49728409277283" lon="9.974012957304515"><ele>886.0</ele><time>2026-04-11T12:53:39.999Z</time></trkpt><trkpt lat="44.49708231036696" lon="9.973957666970541"><ele>886.0</ele><time>2026-04-11T12:53:40.999Z</time></trkpt><trkpt lat="44.49683372553404" lon="9.973935193193087"><ele>886.0</ele><time>2026-04-11T12:53:41.999Z</time></trkpt><trkpt lat="44.49660758757066" lon="9.973795436696067"><ele>886.0</ele><time>2026-04-11T12:53:42.999Z</time></trkpt><trkpt lat="44.49633259860004" lon="9.973692766080871"><ele>886.0</ele><time>2026-04-11T12:53:43.999Z</time></trkpt><trkpt lat="44.496049603418385" lon="9.97359273285401"><ele>893.0</ele><time>2026-04-11T12:53:44.999Z</time></trkpt><trkpt lat="44.49573387616119" lon="9.973516492594285"><ele>900.0</ele><time>2026-04-11T12:53:45.999Z</time></trkpt><trkpt lat="44.49542373367998" lon="9.973416622913668"><ele>892.5</ele><time>2026-04-11T12:53:46.999Z</time></trkpt><trkpt lat="44.495143471531385" lon="9.97321339336214"><ele>885.0</ele><time>2026-04-11T12:53:47.999Z</time></trkpt><trkpt lat="44.494873900783865" lon="9.97305413349399"><ele>885.0</ele><time>2026-04-11T12:53:48.999Z</time></trkpt><trkpt lat="44.49462716288478" lon="9.972886192195427"><ele>885.0</ele><time>2026-04-11T12:53:49.999Z</time></trkpt><trkpt lat="44.49440200446743" lon="9.972739977127338"><ele>883.6666666666667</ele><time>2026-04-11T12:53:50.999Z</time></trkpt><trkpt lat="44.49422131165385" lon="9.97261550859973"><ele>882.3333333333334</ele><time>2026-04-11T12:53:51.999Z</time></trkpt><trkpt lat="44.49405724594454" lon="9.972414139166686"><ele>881.0</ele><time>2026-04-11T12:53:52.999Z</time></trkpt><trkpt lat="44.49401333701185" lon="9.972179260157398"><ele>881.0</ele><time>2026-04-11T12:53:54.999Z</time></trkpt><trkpt lat="44.49398837050694" lon="9.971949410170385"><ele>881.0</ele><time>2026-04-11T12:53:55.999Z</time></trkpt><trkpt lat="44.49400962551068" lon="9.97175918590219"><ele>881.0</ele><time>2026-04-11T12:53:56.999Z</time></trkpt><trkpt lat="44.49408749509389" lon="9.971634328000077"><ele>881.0</ele><time>2026-04-11T12:53:57.999Z</time></trkpt><trkpt lat="44.49416471045565" lon="9.971417348477809"><ele>879.0</ele><time>2026-04-11T12:53:58.999Z</time></trkpt><trkpt lat="44.49418377427382" lon="9.971207731238882"><ele>877.0</ele><time>2026-04-11T12:53:59.999Z</time></trkpt><trkpt lat="44.4941423443806" lon="9.971026496897027"><ele>875.0</ele><time>2026-04-11T12:54:00.999Z</time></trkpt><trkpt lat="44.49405030330982" lon="9.970871425706617"><ele>873.0</ele><time>2026-04-11T12:54:01.999Z</time></trkpt><trkpt lat="44.49390407203266" lon="9.970772191189765"><ele>871.0</ele><time>2026-04-11T12:54:02.999Z</time></trkpt><trkpt lat="44.493835261460866" lon="9.970728833470696"><ele>869.0</ele><time>2026-04-11T12:54:03.999Z</time></trkpt><trkpt lat="44.493741495263706" lon="9.970647113153607"><ele>867.0</ele><time>2026-04-11T12:54:06Z</time></trkpt><trkpt lat="44.49362600413768" lon="9.970566427395214"><ele>865.0</ele><time>2026-04-11T12:54:07Z</time></trkpt><trkpt lat="44.49347807742894" lon="9.970442745678163"><ele>866.3333333333333</ele><time>2026-04-11T12:54:08Z</time></trkpt><trkpt lat="44.49337382117085" lon="9.970230690744552"><ele>867.6666666666667</ele><time>2026-04-11T12:54:09Z</time></trkpt><trkpt lat="44.49330415626901" lon="9.969967248253614"><ele>869.0</ele><time>2026-04-11T12:54:10Z</time></trkpt><trkpt lat="44.49323550755833" lon="9.96973446777425"><ele>869.0</ele><time>2026-04-11T12:54:11Z</time></trkpt><trkpt lat="44.493177662515514" lon="9.96953832177817"><ele>869.0</ele><time>2026-04-11T12:54:12Z</time></trkpt><trkpt lat="44.49312271936025" lon="9.969352015641633"><ele>869.0</ele><time>2026-04-11T12:54:13Z</time></trkpt><trkpt lat="44.49306521452608" lon="9.969157022937527"><ele>869.0</ele><time>2026-04-11T12:54:14Z</time></trkpt><trkpt lat="44.49300495024855" lon="9.968954270029974"><ele>869.3333333333334</ele><time>2026-04-11T12:54:15Z</time></trkpt><trkpt lat="44.4929283063036" lon="9.968754223415047"><ele>869.6666666666667</ele><time>2026-04-11T12:54:16Z</time></trkpt><trkpt lat="44.4928659430188" lon="9.968546041004453"><ele>870.0</ele><time>2026-04-11T12:54:17Z</time></trkpt><trkpt lat="44.4928084907364" lon="9.968350324568538"><ele>870.0</ele><time>2026-04-11T12:54:18Z</time></trkpt><trkpt lat="44.492773113629674" lon="9.968166866755853"><ele>870.0</ele><time>2026-04-11T12:54:19Z</time></trkpt><trkpt lat="44.492731769104026" lon="9.968019314337692"><ele>870.0</ele><time>2026-04-11T12:54:20Z</time></trkpt><trkpt lat="44.492677784623226" lon="9.967875318201228"><ele>870.0</ele><time>2026-04-11T12:54:21Z</time></trkpt><trkpt lat="44.4926416646375" lon="9.967701719192835"><ele>869.3333333333333</ele><time>2026-04-11T12:54:22Z</time></trkpt><trkpt lat="44.492636556694926" lon="9.967490140237485"><ele>868.6666666666666</ele><time>2026-04-11T12:54:23Z</time></trkpt><trkpt lat="44.492628122430226" lon="9.967252814452621"><ele>868.0</ele><time>2026-04-11T12:54:24Z</time></trkpt><trkpt lat="44.49261544751776" lon="9.967014321264658"><ele>868.0</ele><time>2026-04-11T12:54:25Z</time></trkpt><trkpt lat="44.4925928910264" lon="9.966801458410323"><ele>868.0</ele><time>2026-04-11T12:54:26Z</time></trkpt><trkpt lat="44.49257531051675" lon="9.966603366460633"><ele>868.0</ele><time>2026-04-11T12:54:27Z</time></trkpt><trkpt lat="44.49252106157486" lon="9.966385732842076"><ele>866.5</ele><time>2026-04-11T12:54:28Z</time></trkpt><trkpt lat="44.49223629991565" lon="9.966390606075867"><ele>865.0</ele><time>2026-04-11T12:54:29Z</time></trkpt><trkpt lat="44.49204913925167" lon="9.966328527821888"><ele>867.3333333333333</ele><time>2026-04-11T12:54:30Z</time></trkpt><trkpt lat="44.491868512202174" lon="9.966254766332195"><ele>869.6666666666667</ele><time>2026-04-11T12:54:31Z</time></trkpt><trkpt lat="44.4916951646673" lon="9.966170520408442"><ele>872.0</ele><time>2026-04-11T12:54:32Z</time></trkpt><trkpt lat="44.4915245749811" lon="9.966087272808107"><ele>872.0</ele><time>2026-04-11T12:54:33Z</time></trkpt><trkpt lat="44.49134841088664" lon="9.965999810215797"><ele>872.0</ele><time>2026-04-11T12:54:34Z</time></trkpt><trkpt lat="44.49115352424507" lon="9.965894190377028"><ele>872.0</ele><time>2026-04-11T12:54:35Z</time></trkpt><trkpt lat="44.49092783158619" lon="9.965816810365267"><ele>870.5</ele><time>2026-04-11T12:54:36Z</time></trkpt><trkpt lat="44.49068542474277" lon="9.965785738693242"><ele>869.0</ele><time>2026-04-11T12:54:37Z</time></trkpt><trkpt lat="44.49043532408695" lon="9.965816823571721"><ele>867.6666666666667</ele><time>2026-04-11T12:54:38Z</time></trkpt><trkpt lat="44.490222409928066" lon="9.965861487158705"><ele>866.3333333333333</ele><time>2026-04-11T12:54:39Z</time></trkpt><trkpt lat="44.490049144741754" lon="9.965927845642359"><ele>865.0</ele><time>2026-04-11T12:54:40Z</time></trkpt><trkpt lat="44.48988643389168" lon="9.966091733780566"><ele>871.0</ele><time>2026-04-11T12:54:41Z</time></trkpt><trkpt lat="44.48971598720947" lon="9.96635127512303"><ele>877.0</ele><time>2026-04-11T12:54:42Z</time></trkpt><trkpt lat="44.48955433030759" lon="9.966577525629532"><ele>877.0</ele><time>2026-04-11T12:54:43Z</time></trkpt><trkpt lat="44.48942388248176" lon="9.966738755905892"><ele>877.0</ele><time>2026-04-11T12:54:44Z</time></trkpt><trkpt lat="44.489324075360315" lon="9.966786547287471"><ele>877.0</ele><time>2026-04-11T12:54:45Z</time></trkpt><trkpt lat="44.48921766772782" lon="9.966751522927721"><ele>877.0</ele><time>2026-04-11T12:54:46Z</time></trkpt><trkpt lat="44.48911998143388" lon="9.9666305021525"><ele>877.0</ele><time>2026-04-11T12:54:47Z</time></trkpt><trkpt lat="44.48900317938946" lon="9.966429584477739"><ele>877.0</ele><time>2026-04-11T12:54:48Z</time></trkpt><trkpt lat="44.4888472459878" lon="9.966182312360345"><ele>877.0</ele><time>2026-04-11T12:54:49Z</time></trkpt><trkpt lat="44.48868015434289" lon="9.966031594611797"><ele>877.0</ele><time>2026-04-11T12:54:50Z</time></trkpt><trkpt lat="44.48851748993778" lon="9.965940372141155"><ele>877.0</ele><time>2026-04-11T12:54:51Z</time></trkpt><trkpt lat="44.48833091968029" lon="9.965972233944331"><ele>877.0</ele><time>2026-04-11T12:54:52Z</time></trkpt><trkpt lat="44.48815057136463" lon="9.966120760213581"><ele>877.0</ele><time>2026-04-11T12:54:53Z</time></trkpt><trkpt lat="44.487992151397286" lon="9.966236280964386"><ele>877.0</ele><time>2026-04-11T12:54:54Z</time></trkpt><trkpt lat="44.487853949624494" lon="9.966173452230544"><ele>877.0</ele><time>2026-04-11T12:54:55Z</time></trkpt><trkpt lat="44.48778089214453" lon="9.96601852402361"><ele>877.0</ele><time>2026-04-11T12:54:56Z</time></trkpt><trkpt lat="44.48764600696727" lon="9.96586702918977"><ele>877.0</ele><time>2026-04-11T12:54:57Z</time></trkpt><trkpt lat="44.48753962143648" lon="9.965581372636537"><ele>877.0</ele><time>2026-04-11T12:54:58Z</time></trkpt><trkpt lat="44.48739999016498" lon="9.965287896490722"><ele>877.3333333333333</ele><time>2026-04-11T12:54:59Z</time></trkpt><trkpt lat="44.48727577905329" lon="9.965013657521267"><ele>877.6666666666667</ele><time>2026-04-11T12:55:00Z</time></trkpt><trkpt lat="44.48717362073322" lon="9.964792285997884"><ele>878.0</ele><time>2026-04-11T12:55:01Z</time></trkpt><trkpt lat="44.487020760476646" lon="9.964613742895772"><ele>878.0</ele><time>2026-04-11T12:55:02Z</time></trkpt><trkpt lat="44.48683322670049" lon="9.964522732157617"><ele>878.0</ele><time>2026-04-11T12:55:03Z</time></trkpt><trkpt lat="44.48663053547859" lon="9.96453325281432"><ele>878.0</ele><time>2026-04-11T12:55:04Z</time></trkpt><trkpt lat="44.48641216993262" lon="9.964632959372505"><ele>882.3333333333334</ele><time>2026-04-11T12:55:05Z</time></trkpt><trkpt lat="44.48621675505605" lon="9.9647810405679"><ele>886.6666666666667</ele><time>2026-04-11T12:55:06Z</time></trkpt><trkpt lat="44.486052737475575" lon="9.96487613663481"><ele>891.0</ele><time>2026-04-11T12:55:07Z</time></trkpt><trkpt lat="44.48589213534307" lon="9.964918847174534"><ele>891.0</ele><time>2026-04-11T12:55:08Z</time></trkpt><trkpt lat="44.48576567137632" lon="9.964858338040306"><ele>891.0</ele><time>2026-04-11T12:55:09Z</time></trkpt><trkpt lat="44.4856756859698" lon="9.964734236712768"><ele>891.0</ele><time>2026-04-11T12:55:10Z</time></trkpt><trkpt lat="44.48563002408821" lon="9.964537429686558"><ele>891.0</ele><time>2026-04-11T12:55:11Z</time></trkpt><trkpt lat="44.48560609736532" lon="9.964283653536013"><ele>890.3333333333333</ele><time>2026-04-11T12:55:12Z</time></trkpt><trkpt lat="44.48563780303183" lon="9.964016870572829"><ele>889.6666666666666</ele><time>2026-04-11T12:55:13Z</time></trkpt><trkpt lat="44.48570865835669" lon="9.963784030271325"><ele>889.0</ele><time>2026-04-11T12:55:14Z</time></trkpt><trkpt lat="44.48579493491619" lon="9.963592040834461"><ele>889.6666666666666</ele><time>2026-04-11T12:55:15Z</time></trkpt><trkpt lat="44.485914218793454" lon="9.963344813251299"><ele>890.3333333333333</ele><time>2026-04-11T12:55:16Z</time></trkpt><trkpt lat="44.486015750117765" lon="9.963104946715978"><ele>891.0</ele><time>2026-04-11T12:55:17Z</time></trkpt><trkpt lat="44.48606489606506" lon="9.962876947174209"><ele>891.0</ele><time>2026-04-11T12:55:18Z</time></trkpt><trkpt lat="44.486092502312495" lon="9.962632451067552"><ele>891.0</ele><time>2026-04-11T12:55:19Z</time></trkpt><trkpt lat="44.48605349224007" lon="9.96232007424473"><ele>891.0</ele><time>2026-04-11T12:55:20Z</time></trkpt><trkpt lat="44.48597725781572" lon="9.96197822088373"><ele>891.5</ele><time>2026-04-11T12:55:21Z</time></trkpt><trkpt lat="44.48590641005269" lon="9.961601730242661"><ele>892.0</ele><time>2026-04-11T12:55:22Z</time></trkpt><trkpt lat="44.48583616535221" lon="9.961210202903041"><ele>892.5</ele><time>2026-04-11T12:55:22.999Z</time></trkpt><trkpt lat="44.48575800541579" lon="9.960783044913681"><ele>893.0</ele><time>2026-04-11T12:55:23.999Z</time></trkpt><trkpt lat="44.485691896132124" lon="9.96039443758447"><ele>893.0</ele><time>2026-04-11T12:55:24.999Z</time></trkpt><trkpt lat="44.48564391066666" lon="9.960042380196903"><ele>893.0</ele><time>2026-04-11T12:55:25.999Z</time></trkpt><trkpt lat="44.485646681378725" lon="9.959690498255846"><ele>893.0</ele><time>2026-04-11T12:55:26.999Z</time></trkpt><trkpt lat="44.48563550091584" lon="9.959368034264331"><ele>893.0</ele><time>2026-04-11T12:55:27.999Z</time></trkpt><trkpt lat="44.48563153884386" lon="9.959128751918286"><ele>893.0</ele><time>2026-04-11T12:55:28.999Z</time></trkpt><trkpt lat="44.48560730141671" lon="9.95897454652762"><ele>893.0</ele><time>2026-04-11T12:55:29.999Z</time></trkpt><trkpt lat="44.48552706238105" lon="9.958829210227522"><ele>893.0</ele><time>2026-04-11T12:55:30.999Z</time></trkpt><trkpt lat="44.485381983115616" lon="9.95872325725166"><ele>893.0</ele><time>2026-04-11T12:55:31.999Z</time></trkpt><trkpt lat="44.485188068670496" lon="9.958683946590451"><ele>902.5</ele><time>2026-04-11T12:55:32.999Z</time></trkpt><trkpt lat="44.484953644004534" lon="9.958675784730678"><ele>912.0</ele><time>2026-04-11T12:55:33.999Z</time></trkpt><trkpt lat="44.48473629616125" lon="9.958657034046519"><ele>915.25</ele><time>2026-04-11T12:55:34.999Z</time></trkpt><trkpt lat="44.484571711579896" lon="9.958619671643419"><ele>918.5</ele><time>2026-04-11T12:55:35.999Z</time></trkpt><trkpt lat="44.484442722474405" lon="9.958553671681026"><ele>921.75</ele><time>2026-04-11T12:55:36.999Z</time></trkpt><trkpt lat="44.484382960150036" lon="9.958393787690044"><ele>925.0</ele><time>2026-04-11T12:55:37.999Z</time></trkpt><trkpt lat="44.484404846022926" lon="9.958225559806783"><ele>925.0</ele><time>2026-04-11T12:55:38.999Z</time></trkpt><trkpt lat="44.48442731712989" lon="9.957994838456658"><ele>925.0</ele><time>2026-04-11T12:55:39.999Z</time></trkpt><trkpt lat="44.48445478130918" lon="9.957682250664082"><ele>925.0</ele><time>2026-04-11T12:55:40.999Z</time></trkpt><trkpt lat="44.48448685850079" lon="9.957324803608106"><ele>924.5</ele><time>2026-04-11T12:55:41.999Z</time></trkpt><trkpt lat="44.48451884091846" lon="9.956969067776548"><ele>924.0</ele><time>2026-04-11T12:55:42.999Z</time></trkpt><trkpt lat="44.48455139899307" lon="9.956602062028022"><ele>925.5</ele><time>2026-04-11T12:55:43.999Z</time></trkpt><trkpt lat="44.48458597263527" lon="9.956241279872572"><ele>927.0</ele><time>2026-04-11T12:55:44.999Z</time></trkpt><trkpt lat="44.48463574637514" lon="9.955918153513554"><ele>920.5</ele><time>2026-04-11T12:55:45.999Z</time></trkpt><trkpt lat="44.484735426150834" lon="9.955577554644927"><ele>914.0</ele><time>2026-04-11T12:55:46.999Z</time></trkpt><trkpt lat="44.484811004781584" lon="9.955204991402768"><ele>921.0</ele><time>2026-04-11T12:55:47.999Z</time></trkpt><trkpt lat="44.484901318324134" lon="9.954835629192987"><ele>928.0</ele><time>2026-04-11T12:55:48.999Z</time></trkpt><trkpt lat="44.484970090482946" lon="9.954494564542943"><ele>930.3333333333333</ele><time>2026-04-11T12:55:49.999Z</time></trkpt><trkpt lat="44.485033055250334" lon="9.954197925186733"><ele>932.6666666666667</ele><time>2026-04-11T12:55:50.999Z</time></trkpt><trkpt lat="44.48507351102535" lon="9.953924759073367"><ele>935.0</ele><time>2026-04-11T12:55:51.999Z</time></trkpt><trkpt lat="44.48507959971312" lon="9.953640939362836"><ele>935.3333333333334</ele><time>2026-04-11T12:55:52.999Z</time></trkpt><trkpt lat="44.48505740014735" lon="9.953357533289068"><ele>935.6666666666667</ele><time>2026-04-11T12:55:53.999Z</time></trkpt><trkpt lat="44.48500065020237" lon="9.953073303966747"><ele>936.0</ele><time>2026-04-11T12:55:54.999Z</time></trkpt><trkpt lat="44.48489037830381" lon="9.952768079393934"><ele>934.0</ele><time>2026-04-11T12:55:55.999Z</time></trkpt><trkpt lat="44.48475495598043" lon="9.952444434622246"><ele>932.0</ele><time>2026-04-11T12:55:56.999Z</time></trkpt><trkpt lat="44.48459409313553" lon="9.95211096491956"><ele>944.5</ele><time>2026-04-11T12:55:57.999Z</time></trkpt><trkpt lat="44.48441619592396" lon="9.951825692899199"><ele>957.0</ele><time>2026-04-11T12:55:58.999Z</time></trkpt><trkpt lat="44.48428674048886" lon="9.951527474096931"><ele>957.0</ele><time>2026-04-11T12:55:59.999Z</time></trkpt><trkpt lat="44.48419997203035" lon="9.951163182358053"><ele>957.0</ele><time>2026-04-11T12:56:00.999Z</time></trkpt><trkpt lat="44.484116749108" lon="9.950832277922254"><ele>954.6666666666667</ele><time>2026-04-11T12:56:01.999Z</time></trkpt><trkpt lat="44.484055946472154" lon="9.950559109605614"><ele>952.3333333333334</ele><time>2026-04-11T12:56:02.999Z</time></trkpt><trkpt lat="44.48398724500843" lon="9.950343044588605"><ele>950.0</ele><time>2026-04-11T12:56:03.999Z</time></trkpt><trkpt lat="44.48385300091578" lon="9.950110886775146"><ele>951.6666666666667</ele><time>2026-04-11T12:56:04.999Z</time></trkpt><trkpt lat="44.483668563309486" lon="9.949931911564875"><ele>953.3333333333333</ele><time>2026-04-11T12:56:05.999Z</time></trkpt><trkpt lat="44.48349310786981" lon="9.949852098610885"><ele>955.0</ele><time>2026-04-11T12:56:06.999Z</time></trkpt><trkpt lat="44.483294397822185" lon="9.949827744238528"><ele>955.0</ele><time>2026-04-11T12:56:07.999Z</time></trkpt><trkpt lat="44.48307420257406" lon="9.949858728176334"><ele>955.0</ele><time>2026-04-11T12:56:08.999Z</time></trkpt><trkpt lat="44.48287916582696" lon="9.949918579922322"><ele>955.0</ele><time>2026-04-11T12:56:09.999Z</time></trkpt><trkpt lat="44.4827276136621" lon="9.949886928918144"><ele>960.6666666666666</ele><time>2026-04-11T12:56:10.999Z</time></trkpt><trkpt lat="44.48260088738138" lon="9.94973102957068"><ele>966.3333333333333</ele><time>2026-04-11T12:56:12Z</time></trkpt><trkpt lat="44.48241972372226" lon="9.949561305660552"><ele>972.0</ele><time>2026-04-11T12:56:13Z</time></trkpt><trkpt lat="44.48221643822901" lon="9.949393880391906"><ele>972.6666666666667</ele><time>2026-04-11T12:56:14Z</time></trkpt><trkpt lat="44.482028876894255" lon="9.949191397626862"><ele>973.3333333333334</ele><time>2026-04-11T12:56:15Z</time></trkpt><trkpt lat="44.48190222307575" lon="9.94901738180707"><ele>974.0</ele><time>2026-04-11T12:56:16Z</time></trkpt><trkpt lat="44.481835792023986" lon="9.948835948487083"><ele>974.0</ele><time>2026-04-11T12:56:17Z</time></trkpt><trkpt lat="44.48178753452976" lon="9.948604748437115"><ele>974.0</ele><time>2026-04-11T12:56:18Z</time></trkpt><trkpt lat="44.48172907450466" lon="9.948459955452037"><ele>974.0</ele><time>2026-04-11T12:56:19Z</time></trkpt><trkpt lat="44.481676941250605" lon="9.948382547190764"><ele>974.0</ele><time>2026-04-11T12:56:20Z</time></trkpt><trkpt lat="44.481597511043084" lon="9.948331767080601"><ele>974.0</ele><time>2026-04-11T12:56:21Z</time></trkpt><trkpt lat="44.48148598278486" lon="9.948356656660641"><ele>974.0</ele><time>2026-04-11T12:56:22Z</time></trkpt><trkpt lat="44.48135979262193" lon="9.94850753811988"><ele>974.0</ele><time>2026-04-11T12:56:23Z</time></trkpt><trkpt lat="44.48122903545763" lon="9.948747042364365"><ele>972.0</ele><time>2026-04-11T12:56:24Z</time></trkpt><trkpt lat="44.48107156852306" lon="9.94901941201988"><ele>970.0</ele><time>2026-04-11T12:56:25Z</time></trkpt><trkpt lat="44.48087661422405" lon="9.949298532892167"><ele>975.0</ele><time>2026-04-11T12:56:26Z</time></trkpt><trkpt lat="44.48069370528464" lon="9.94953296961971"><ele>980.0</ele><time>2026-04-11T12:56:27Z</time></trkpt><trkpt lat="44.480574784956346" lon="9.949686986187599"><ele>985.0</ele><time>2026-04-11T12:56:28Z</time></trkpt><trkpt lat="44.48047269086654" lon="9.949785524305607"><ele>984.6666666666666</ele><time>2026-04-11T12:56:29Z</time></trkpt><trkpt lat="44.48032935331637" lon="9.94976013642614"><ele>984.3333333333333</ele><time>2026-04-11T12:56:30Z</time></trkpt><trkpt lat="44.48014708434192" lon="9.949787668578342"><ele>984.0</ele><time>2026-04-11T12:56:31Z</time></trkpt><trkpt lat="44.479940053444004" lon="9.949839607682199"><ele>984.0</ele><time>2026-04-11T12:56:32Z</time></trkpt><trkpt lat="44.4797565338904" lon="9.949859208294672"><ele>984.0</ele><time>2026-04-11T12:56:33Z</time></trkpt><trkpt lat="44.479644764315736" lon="9.949862327227919"><ele>984.0</ele><time>2026-04-11T12:56:34Z</time></trkpt><trkpt lat="44.479521779043324" lon="9.949896699163071"><ele>984.0</ele><time>2026-04-11T12:56:35Z</time></trkpt><trkpt lat="44.47928232681968" lon="9.949925294740837"><ele>984.0</ele><time>2026-04-11T12:56:36Z</time></trkpt><trkpt lat="44.479106448442906" lon="9.949948391364451"><ele>984.0</ele><time>2026-04-11T12:56:37Z</time></trkpt><trkpt lat="44.47894465283212" lon="9.949971446914496"><ele>984.0</ele><time>2026-04-11T12:56:38Z</time></trkpt><trkpt lat="44.478777805707566" lon="9.949994197534508"><ele>984.0</ele><time>2026-04-11T12:56:39Z</time></trkpt><trkpt lat="44.47861079955975" lon="9.950024622207234"><ele>984.0</ele><time>2026-04-11T12:56:40Z</time></trkpt><trkpt lat="44.478399536577854" lon="9.950065375211445"><ele>984.0</ele><time>2026-04-11T12:56:41Z</time></trkpt><trkpt lat="44.47820258739031" lon="9.950102801363627"><ele>984.0</ele><time>2026-04-11T12:56:42Z</time></trkpt><trkpt lat="44.47804695028821" lon="9.95000702224095"><ele>984.0</ele><time>2026-04-11T12:56:43Z</time></trkpt><trkpt lat="44.477913012208305" lon="9.94992111647674"><ele>984.0</ele><time>2026-04-11T12:56:44Z</time></trkpt><trkpt lat="44.47782081656079" lon="9.949837555011385"><ele>984.0</ele><time>2026-04-11T12:56:45Z</time></trkpt><trkpt lat="44.477693320249216" lon="9.949543602869271"><ele>987.6666666666667</ele><time>2026-04-11T12:56:46Z</time></trkpt><trkpt lat="44.47772798581507" lon="9.949344176842294"><ele>991.3333333333334</ele><time>2026-04-11T12:56:47Z</time></trkpt><trkpt lat="44.47773233081175" lon="9.949039247746372"><ele>995.0</ele><time>2026-04-11T12:56:48Z</time></trkpt><trkpt lat="44.47769103597965" lon="9.948714301120328"><ele>995.0</ele><time>2026-04-11T12:56:49Z</time></trkpt><trkpt lat="44.47761020424083" lon="9.948421692621936"><ele>995.0</ele><time>2026-04-11T12:56:50Z</time></trkpt><trkpt lat="44.47750848423622" lon="9.948203325809285"><ele>995.0</ele><time>2026-04-11T12:56:51Z</time></trkpt><trkpt lat="44.47736191812407" lon="9.948079327213364"><ele>992.3333333333334</ele><time>2026-04-11T12:56:52Z</time></trkpt><trkpt lat="44.477155570256606" lon="9.948019680293248"><ele>989.6666666666667</ele><time>2026-04-11T12:56:53Z</time></trkpt><trkpt lat="44.476928970465295" lon="9.947926360671673"><ele>987.0</ele><time>2026-04-11T12:56:54Z</time></trkpt><trkpt lat="44.47675549389615" lon="9.947676449135164"><ele>990.0</ele><time>2026-04-11T12:56:55Z</time></trkpt><trkpt lat="44.47663991991059" lon="9.947377246415586"><ele>993.0</ele><time>2026-04-11T12:56:56Z</time></trkpt><trkpt lat="44.47650145634239" lon="9.947124821694281"><ele>993.0</ele><time>2026-04-11T12:56:57Z</time></trkpt><trkpt lat="44.4763854658996" lon="9.946913089421564"><ele>993.0</ele><time>2026-04-11T12:56:58Z</time></trkpt><trkpt lat="44.47619612910926" lon="9.946778247221594"><ele>993.0</ele><time>2026-04-11T12:56:59Z</time></trkpt><trkpt lat="44.4759408646575" lon="9.946668239365748"><ele>993.0</ele><time>2026-04-11T12:57:00Z</time></trkpt><trkpt lat="44.47568533657026" lon="9.946527517113989"><ele>993.0</ele><time>2026-04-11T12:57:01Z</time></trkpt><trkpt lat="44.47541435377615" lon="9.94642394293243"><ele>998.5</ele><time>2026-04-11T12:57:02Z</time></trkpt><trkpt lat="44.475132574598014" lon="9.946395508086884"><ele>1004.0</ele><time>2026-04-11T12:57:03Z</time></trkpt><trkpt lat="44.474877402010755" lon="9.946372427444047"><ele>1004.0</ele><time>2026-04-11T12:57:04Z</time></trkpt><trkpt lat="44.47465192879633" lon="9.946299551293995"><ele>1004.0</ele><time>2026-04-11T12:57:05Z</time></trkpt><trkpt lat="44.474468837668915" lon="9.946193553818839"><ele>1004.0</ele><time>2026-04-11T12:57:06Z</time></trkpt><trkpt lat="44.47436342128108" lon="9.946079675577254"><ele>1005.6666666666667</ele><time>2026-04-11T12:57:07Z</time></trkpt><trkpt lat="44.47430590866626" lon="9.945926818421015"><ele>1007.3333333333333</ele><time>2026-04-11T12:57:08Z</time></trkpt><trkpt lat="44.474308903107335" lon="9.945689282308043"><ele>1009.0</ele><time>2026-04-11T12:57:09Z</time></trkpt><trkpt lat="44.47425234938131" lon="9.945357368207489"><ele>1007.5</ele><time>2026-04-11T12:57:10Z</time></trkpt><trkpt lat="44.474188893196285" lon="9.94498905609903"><ele>1006.0</ele><time>2026-04-11T12:57:11Z</time></trkpt><trkpt lat="44.47408986263013" lon="9.944588349634252"><ele>1003.0</ele><time>2026-04-11T12:57:12Z</time></trkpt><trkpt lat="44.473960961719605" lon="9.944206598885971"><ele>1000.0</ele><time>2026-04-11T12:57:13Z</time></trkpt><trkpt lat="44.47380987335783" lon="9.94385643274979"><ele>1006.0</ele><time>2026-04-11T12:57:14Z</time></trkpt><trkpt lat="44.47368615323447" lon="9.943556398654598"><ele>1012.0</ele><time>2026-04-11T12:57:15Z</time></trkpt><trkpt lat="44.47359382109886" lon="9.943330144210643"><ele>1018.0</ele><time>2026-04-11T12:57:16Z</time></trkpt><trkpt lat="44.473556840991996" lon="9.94313487665815"><ele>1018.5</ele><time>2026-04-11T12:57:17Z</time></trkpt><trkpt lat="44.47356674580279" lon="9.942981418459771"><ele>1019.0</ele><time>2026-04-11T12:57:18Z</time></trkpt><trkpt lat="44.473586325100456" lon="9.942788059839463"><ele>1019.5</ele><time>2026-04-11T12:57:19Z</time></trkpt><trkpt lat="44.473611955337006" lon="9.94258311724214"><ele>1020.0</ele><time>2026-04-11T12:57:20Z</time></trkpt><trkpt lat="44.473644957125536" lon="9.942461170740383"><ele>1024.75</ele><time>2026-04-11T12:57:21Z</time></trkpt><trkpt lat="44.47369182782567" lon="9.942351320655904"><ele>1029.5</ele><time>2026-04-11T12:57:22Z</time></trkpt><trkpt lat="44.47376414439649" lon="9.942275094948561"><ele>1034.25</ele><time>2026-04-11T12:57:23Z</time></trkpt><trkpt lat="44.47389540530772" lon="9.942127294252437"><ele>1039.0</ele><time>2026-04-11T12:57:24Z</time></trkpt><trkpt lat="44.47407068453127" lon="9.941932101013233"><ele>1029.6666666666665</ele><time>2026-04-11T12:57:25Z</time></trkpt><trkpt lat="44.47422433339118" lon="9.94175826124908"><ele>1020.3333333333333</ele><time>2026-04-11T12:57:26Z</time></trkpt><trkpt lat="44.47432504956225" lon="9.941593708159639"><ele>1011.0</ele><time>2026-04-11T12:57:26.999Z</time></trkpt><trkpt lat="44.47435988823362" lon="9.941465092687269"><ele>1011.0</ele><time>2026-04-11T12:57:27.999Z</time></trkpt><trkpt lat="44.474332293015806" lon="9.941327119264502"><ele>1011.0</ele><time>2026-04-11T12:57:28.999Z</time></trkpt><trkpt lat="44.4742159943025" lon="9.941228095541947"><ele>1011.0</ele><time>2026-04-11T12:57:29.999Z</time></trkpt><trkpt lat="44.47404349465849" lon="9.941146877532416"><ele>1011.0</ele><time>2026-04-11T12:57:30.999Z</time></trkpt><trkpt lat="44.47385600376421" lon="9.940995190450089"><ele>1020.5</ele><time>2026-04-11T12:57:31.999Z</time></trkpt><trkpt lat="44.47370283707313" lon="9.940702360385018"><ele>1030.0</ele><time>2026-04-11T12:57:32.999Z</time></trkpt><trkpt lat="44.4735549167614" lon="9.940408503152758"><ele>1030.0</ele><time>2026-04-11T12:57:33.999Z</time></trkpt><trkpt lat="44.4734257078118" lon="9.940212429229419"><ele>1030.0</ele><time>2026-04-11T12:57:34.999Z</time></trkpt><trkpt lat="44.473262326491934" lon="9.940102113485509"><ele>1030.0</ele><time>2026-04-11T12:57:35.999Z</time></trkpt><trkpt lat="44.473040930687276" lon="9.940081374165917"><ele>1034.5</ele><time>2026-04-11T12:57:36.999Z</time></trkpt><trkpt lat="44.47277854894419" lon="9.940124553652346"><ele>1039.0</ele><time>2026-04-11T12:57:37.999Z</time></trkpt><trkpt lat="44.472540617135884" lon="9.940111030883822"><ele>1034.75</ele><time>2026-04-11T12:57:38.999Z</time></trkpt><trkpt lat="44.47239205574244" lon="9.940023100465401"><ele>1030.5</ele><time>2026-04-11T12:57:39.999Z</time></trkpt><trkpt lat="44.47228529358662" lon="9.939917523902288"><ele>1026.25</ele><time>2026-04-11T12:57:40.999Z</time></trkpt><trkpt lat="44.47227509209688" lon="9.939720510437008"><ele>1022.0</ele><time>2026-04-11T12:57:41.999Z</time></trkpt><trkpt lat="44.47221736876846" lon="9.939426553213234"><ele>1021.0</ele><time>2026-04-11T12:57:42.999Z</time></trkpt><trkpt lat="44.47217780440384" lon="9.939139368800742"><ele>1020.0</ele><time>2026-04-11T12:57:43.999Z</time></trkpt><trkpt lat="44.47221953027356" lon="9.938984230222808"><ele>1019.0</ele><time>2026-04-11T12:57:44.999Z</time></trkpt><trkpt lat="44.47230517803342" lon="9.93890879663915"><ele>1018.0</ele><time>2026-04-11T12:57:45.999Z</time></trkpt><trkpt lat="44.47244555162506" lon="9.938777536133292"><ele>1018.0</ele><time>2026-04-11T12:57:46.999Z</time></trkpt><trkpt lat="44.47255830973903" lon="9.938591032427299"><ele>1018.0</ele><time>2026-04-11T12:57:47.999Z</time></trkpt><trkpt lat="44.47259335525308" lon="9.93835279294636"><ele>1018.0</ele><time>2026-04-11T12:57:48.999Z</time></trkpt><trkpt lat="44.47261685716597" lon="9.938024352403422"><ele>1020.5</ele><time>2026-04-11T12:57:49.999Z</time></trkpt><trkpt lat="44.47264212416392" lon="9.937649985090932"><ele>1023.0</ele><time>2026-04-11T12:57:50.999Z</time></trkpt><trkpt lat="44.47270053690208" lon="9.937252067822945"><ele>1025.0</ele><time>2026-04-11T12:57:51.999Z</time></trkpt><trkpt lat="44.47278185648606" lon="9.936897335551388"><ele>1027.0</ele><time>2026-04-11T12:57:52.999Z</time></trkpt><trkpt lat="44.472860252524185" lon="9.93659220266112"><ele>1027.6666666666665</ele><time>2026-04-11T12:57:53.999Z</time></trkpt><trkpt lat="44.47289028620023" lon="9.936374916289735"><ele>1028.3333333333333</ele><time>2026-04-11T12:57:54.999Z</time></trkpt><trkpt lat="44.472879665985" lon="9.936168376630025"><ele>1029.0</ele><time>2026-04-11T12:57:55.999Z</time></trkpt><trkpt lat="44.47278716407766" lon="9.93593484062008"><ele>1025.0</ele><time>2026-04-11T12:57:56.999Z</time></trkpt><trkpt lat="44.472601705708776" lon="9.935721300270652"><ele>1021.0</ele><time>2026-04-11T12:57:57.999Z</time></trkpt><trkpt lat="44.47236649544164" lon="9.935503486372218"><ele>1021.0</ele><time>2026-04-11T12:57:58.999Z</time></trkpt><trkpt lat="44.47214401875833" lon="9.935265189382829"><ele>1021.0</ele><time>2026-04-11T12:57:59.999Z</time></trkpt><trkpt lat="44.471985296612786" lon="9.935092267491473"><ele>1020.3333333333333</ele><time>2026-04-11T12:58:00.999Z</time></trkpt><trkpt lat="44.471846530992416" lon="9.935020134125805"><ele>1019.6666666666667</ele><time>2026-04-11T12:58:01.999Z</time></trkpt><trkpt lat="44.47165647016637" lon="9.935054854454027"><ele>1019.0</ele><time>2026-04-11T12:58:02.999Z</time></trkpt><trkpt lat="44.47151670500916" lon="9.935097936804844"><ele>1019.0</ele><time>2026-04-11T12:58:03.999Z</time></trkpt><trkpt lat="44.47142636713478" lon="9.935045844666304"><ele>1019.0</ele><time>2026-04-11T12:58:04.999Z</time></trkpt><trkpt lat="44.471420931313716" lon="9.934873998668367"><ele>1019.0</ele><time>2026-04-11T12:58:05.999Z</time></trkpt><trkpt lat="44.471467740620525" lon="9.934699825697102"><ele>1019.0</ele><time>2026-04-11T12:58:06.999Z</time></trkpt><trkpt lat="44.471511092463594" lon="9.934426934909794"><ele>1022.0</ele><time>2026-04-11T12:58:07.999Z</time></trkpt><trkpt lat="44.47160325177795" lon="9.934138295945099"><ele>1025.0</ele><time>2026-04-11T12:58:08.999Z</time></trkpt><trkpt lat="44.4717460256492" lon="9.933818129231584"><ele>1025.0</ele><time>2026-04-11T12:58:09.999Z</time></trkpt><trkpt lat="44.47189953740675" lon="9.933468385097811"><ele>1025.0</ele><time>2026-04-11T12:58:10.999Z</time></trkpt><trkpt lat="44.47202406150758" lon="9.933075721494017"><ele>1020.5</ele><time>2026-04-11T12:58:11.999Z</time></trkpt><trkpt lat="44.4721853900022" lon="9.932676679879489"><ele>1016.0</ele><time>2026-04-11T12:58:12.999Z</time></trkpt><trkpt lat="44.47231087834712" lon="9.93223250893681"><ele>1016.0</ele><time>2026-04-11T12:58:13.999Z</time></trkpt><trkpt lat="44.47239962236707" lon="9.9318271692419"><ele>1016.0</ele><time>2026-04-11T12:58:14.999Z</time></trkpt><trkpt lat="44.472466865730084" lon="9.931479247256663"><ele>1019.3333333333334</ele><time>2026-04-11T12:58:15.999Z</time></trkpt><trkpt lat="44.472530559560006" lon="9.931171091969874"><ele>1022.6666666666667</ele><time>2026-04-11T12:58:16.999Z</time></trkpt><trkpt lat="44.472548695851046" lon="9.930890742616983"><ele>1026.0</ele><time>2026-04-11T12:58:18Z</time></trkpt><trkpt lat="44.472503053865125" lon="9.930619345689324"><ele>1027.3333333333333</ele><time>2026-04-11T12:58:19Z</time></trkpt><trkpt lat="44.47243552044947" lon="9.930368071568902"><ele>1028.6666666666665</ele><time>2026-04-11T12:58:20Z</time></trkpt><trkpt lat="44.472360651094654" lon="9.930193762591973"><ele>1030.0</ele><time>2026-04-11T12:58:21Z</time></trkpt><trkpt lat="44.47227830957516" lon="9.930041395586668"><ele>1030.0</ele><time>2026-04-11T12:58:22Z</time></trkpt><trkpt lat="44.47220279998339" lon="9.92990120152168"><ele>1030.0</ele><time>2026-04-11T12:58:23Z</time></trkpt><trkpt lat="44.472140556188805" lon="9.929768230272765"><ele>1030.0</ele><time>2026-04-11T12:58:24Z</time></trkpt><trkpt lat="44.47208204294624" lon="9.92962665807074"><ele>1030.0</ele><time>2026-04-11T12:58:25Z</time></trkpt><trkpt lat="44.472028856333004" lon="9.929504839049867"><ele>1032.0</ele><time>2026-04-11T12:58:26Z</time></trkpt><trkpt lat="44.47197956153522" lon="9.929391524126794"><ele>1034.0</ele><time>2026-04-11T12:58:27Z</time></trkpt><trkpt lat="44.47193427480698" lon="9.929292079813303"><ele>1036.0</ele><time>2026-04-11T12:58:28Z</time></trkpt><trkpt lat="44.47189807538367" lon="9.929208322616342"><ele>1038.0</ele><time>2026-04-11T12:58:29Z</time></trkpt><trkpt lat="44.47186436479649" lon="9.929132238337752"><ele>1040.0</ele><time>2026-04-11T12:58:30Z</time></trkpt><trkpt lat="44.4718070488199" lon="9.928985662909282"><ele>1042.0</ele><time>2026-04-11T12:58:32Z</time></trkpt><trkpt lat="44.4717702260441" lon="9.928911730094796"><ele>1042.0</ele><time>2026-04-11T12:58:33Z</time></trkpt><trkpt lat="44.471733513581455" lon="9.928834161994121"><ele>1042.0</ele><time>2026-04-11T12:58:34Z</time></trkpt><trkpt lat="44.47169123595564" lon="9.928749808731814"><ele>1042.0</ele><time>2026-04-11T12:58:35Z</time></trkpt><trkpt lat="44.47165492656257" lon="9.928666267174417"><ele>1042.0</ele><time>2026-04-11T12:58:36Z</time></trkpt><trkpt lat="44.47162926024126" lon="9.928562580026043"><ele>1042.0</ele><time>2026-04-11T12:58:37Z</time></trkpt><trkpt lat="44.471581491334916" lon="9.928448535360822"><ele>1042.0</ele><time>2026-04-11T12:58:38Z</time></trkpt><trkpt lat="44.47151994249427" lon="9.928313794041664"><ele>1041.0</ele><time>2026-04-11T12:58:39Z</time></trkpt><trkpt lat="44.47146470672344" lon="9.928161987403689"><ele>1040.0</ele><time>2026-04-11T12:58:40Z</time></trkpt><trkpt lat="44.47140990962332" lon="9.928000779068423"><ele>1039.0</ele><time>2026-04-11T12:58:41Z</time></trkpt><trkpt lat="44.471367309829624" lon="9.927805614706674"><ele>1038.0</ele><time>2026-04-11T12:58:42Z</time></trkpt><trkpt lat="44.47134721371258" lon="9.927607177477983"><ele>1040.0</ele><time>2026-04-11T12:58:43Z</time></trkpt><trkpt lat="44.47135105704564" lon="9.927385136084382"><ele>1042.0</ele><time>2026-04-11T12:58:44Z</time></trkpt><trkpt lat="44.47137730922678" lon="9.927108472347904"><ele>1044.0</ele><time>2026-04-11T12:58:45Z</time></trkpt><trkpt lat="44.4713999434964" lon="9.926804056209958"><ele>1046.3333333333333</ele><time>2026-04-11T12:58:46Z</time></trkpt><trkpt lat="44.471375091762525" lon="9.926503709619155"><ele>1048.6666666666665</ele><time>2026-04-11T12:58:47Z</time></trkpt><trkpt lat="44.47133707495616" lon="9.92620689514947"><ele>1051.0</ele><time>2026-04-11T12:58:48Z</time></trkpt><trkpt lat="44.47136043117694" lon="9.925951710530537"><ele>1050.3333333333333</ele><time>2026-04-11T12:58:49Z</time></trkpt><trkpt lat="44.47142085783253" lon="9.92568745578408"><ele>1049.6666666666667</ele><time>2026-04-11T12:58:50Z</time></trkpt><trkpt lat="44.47151928149437" lon="9.92539574328291"><ele>1049.0</ele><time>2026-04-11T12:58:51Z</time></trkpt><trkpt lat="44.47161701512841" lon="9.925103636793041"><ele>1045.0</ele><time>2026-04-11T12:58:52Z</time></trkpt><trkpt lat="44.47170949727779" lon="9.924850871411893"><ele>1041.0</ele><time>2026-04-11T12:58:53Z</time></trkpt><trkpt lat="44.4717873485309" lon="9.924613242187249"><ele>1037.0</ele><time>2026-04-11T12:58:54Z</time></trkpt><trkpt lat="44.47185200673814" lon="9.924377937803618"><ele>1034.3333333333335</ele><time>2026-04-11T12:58:55Z</time></trkpt><trkpt lat="44.471864286557874" lon="9.92413222397801"><ele>1031.6666666666667</ele><time>2026-04-11T12:58:56Z</time></trkpt><trkpt lat="44.471807834868294" lon="9.923869333590265"><ele>1029.0</ele><time>2026-04-11T12:58:57Z</time></trkpt><trkpt lat="44.471708566783214" lon="9.923622328621327"><ele>1029.0</ele><time>2026-04-11T12:58:58Z</time></trkpt><trkpt lat="44.471622683470045" lon="9.923429109210593"><ele>1029.0</ele><time>2026-04-11T12:58:59Z</time></trkpt><trkpt lat="44.47156776535058" lon="9.923297865997284"><ele>1029.0</ele><time>2026-04-11T12:59:00Z</time></trkpt><trkpt lat="44.47153557294408" lon="9.92320997183337"><ele>1029.0</ele><time>2026-04-11T12:59:01Z</time></trkpt><trkpt lat="44.47148459754037" lon="9.923126263111971"><ele>1029.0</ele><time>2026-04-11T12:59:04Z</time></trkpt><trkpt lat="44.47143099225827" lon="9.923021609180617"><ele>1030.25</ele><time>2026-04-11T12:59:41.999Z</time></trkpt><trkpt lat="44.47137980855376" lon="9.922920109432534"><ele>1031.5</ele><time>2026-04-11T12:59:42.999Z</time></trkpt><trkpt lat="44.47132915184506" lon="9.92279294011465"><ele>1032.75</ele><time>2026-04-11T12:59:43.999Z</time></trkpt><trkpt lat="44.471292508660135" lon="9.922633376649932"><ele>1034.0</ele><time>2026-04-11T12:59:44.999Z</time></trkpt><trkpt lat="44.47127858770894" lon="9.922436692917843"><ele>1030.75</ele><time>2026-04-11T12:59:45.999Z</time></trkpt><trkpt lat="44.47128686564916" lon="9.922247094189956"><ele>1027.5</ele><time>2026-04-11T12:59:46.999Z</time></trkpt><trkpt lat="44.47129174576374" lon="9.92204939758643"><ele>1024.25</ele><time>2026-04-11T12:59:47.999Z</time></trkpt><trkpt lat="44.47127202489332" lon="9.921872882416993"><ele>1021.0</ele><time>2026-04-11T12:59:48.999Z</time></trkpt><trkpt lat="44.47121155721165" lon="9.921699109882324"><ele>1021.0</ele><time>2026-04-11T12:59:49.999Z</time></trkpt><trkpt lat="44.471092085500345" lon="9.92154842840518"><ele>1021.0</ele><time>2026-04-11T12:59:50.999Z</time></trkpt><trkpt lat="44.47094431498134" lon="9.921391556470553"><ele>1021.0</ele><time>2026-04-11T12:59:51.999Z</time></trkpt><trkpt lat="44.470816887374305" lon="9.921216524825526"><ele>1021.0</ele><time>2026-04-11T12:59:52.999Z</time></trkpt><trkpt lat="44.470707591005414" lon="9.92104282137562"><ele>1021.0</ele><time>2026-04-11T12:59:53.999Z</time></trkpt><trkpt lat="44.47061254375764" lon="9.92088710290677"><ele>1021.0</ele><time>2026-04-11T12:59:54.999Z</time></trkpt><trkpt lat="44.47050625750056" lon="9.920741528476242"><ele>1024.0</ele><time>2026-04-11T12:59:55.999Z</time></trkpt><trkpt lat="44.47039642726399" lon="9.920626960126905"><ele>1027.0</ele><time>2026-04-11T12:59:56.999Z</time></trkpt><trkpt lat="44.47028310543812" lon="9.920543109220931"><ele>1030.0</ele><time>2026-04-11T12:59:57.999Z</time></trkpt><trkpt lat="44.47017657480234" lon="9.920510438801669"><ele>1033.0</ele><time>2026-04-11T12:59:58.999Z</time></trkpt><trkpt lat="44.47007686104107" lon="9.920541729480927"><ele>1033.0</ele><time>2026-04-11T12:59:59.999Z</time></trkpt><trkpt lat="44.46998374983268" lon="9.920662622182434"><ele>1033.0</ele><time>2026-04-11T13:00:00.999Z</time></trkpt><trkpt lat="44.46989991973797" lon="9.920844876138561"><ele>1033.0</ele><time>2026-04-11T13:00:01.999Z</time></trkpt><trkpt lat="44.46983822648127" lon="9.921050806452017"><ele>1033.0</ele><time>2026-04-11T13:00:02.999Z</time></trkpt><trkpt lat="44.46978346973077" lon="9.921253826199358"><ele>1028.3333333333333</ele><time>2026-04-11T13:00:03.999Z</time></trkpt><trkpt lat="44.46969684985605" lon="9.921438820159857"><ele>1023.6666666666667</ele><time>2026-04-11T13:00:04.999Z</time></trkpt><trkpt lat="44.469622582049865" lon="9.921634199231967"><ele>1019.0</ele><time>2026-04-11T13:00:05.999Z</time></trkpt><trkpt lat="44.46954925226179" lon="9.921827757368257"><ele>1019.0</ele><time>2026-04-11T13:00:06.999Z</time></trkpt><trkpt lat="44.46949741282084" lon="9.922030046364538"><ele>1019.0</ele><time>2026-04-11T13:00:07.999Z</time></trkpt><trkpt lat="44.46944563405508" lon="9.922205130365647"><ele>1019.0</ele><time>2026-04-11T13:00:08.999Z</time></trkpt><trkpt lat="44.46939237067304" lon="9.92236006849131"><ele>1019.0</ele><time>2026-04-11T13:00:09.999Z</time></trkpt><trkpt lat="44.46934427575255" lon="9.922493617084852"><ele>1019.0</ele><time>2026-04-11T13:00:10.999Z</time></trkpt><trkpt lat="44.46926349129503" lon="9.922589956922412"><ele>1019.0</ele><time>2026-04-11T13:00:11.999Z</time></trkpt><trkpt lat="44.46912511063668" lon="9.922582187379081"><ele>1019.0</ele><time>2026-04-11T13:00:12.999Z</time></trkpt><trkpt lat="44.468990341706075" lon="9.922479838776287"><ele>1019.0</ele><time>2026-04-11T13:00:13.999Z</time></trkpt><trkpt lat="44.46888539888532" lon="9.922289634353477"><ele>1019.0</ele><time>2026-04-11T13:00:14.999Z</time></trkpt><trkpt lat="44.46879328318264" lon="9.922057051951468"><ele>1019.0</ele><time>2026-04-11T13:00:15.999Z</time></trkpt><trkpt lat="44.468683334663226" lon="9.921834456525994"><ele>1019.0</ele><time>2026-04-11T13:00:16.999Z</time></trkpt><trkpt lat="44.468565353851616" lon="9.921618595466441"><ele>1017.6666666666667</ele><time>2026-04-11T13:00:17.999Z</time></trkpt><trkpt lat="44.46845040880913" lon="9.92140013950895"><ele>1016.3333333333333</ele><time>2026-04-11T13:00:18.999Z</time></trkpt><trkpt lat="44.46832472814229" lon="9.921178817571523"><ele>1015.0</ele><time>2026-04-11T13:00:19.999Z</time></trkpt><trkpt lat="44.46817391120825" lon="9.920976030007292"><ele>1013.6666666666666</ele><time>2026-04-11T13:00:20.999Z</time></trkpt><trkpt lat="44.46800427062112" lon="9.92079040731939"><ele>1012.3333333333333</ele><time>2026-04-11T13:00:21.999Z</time></trkpt><trkpt lat="44.467838927868634" lon="9.920611442856437"><ele>1011.0</ele><time>2026-04-11T13:00:22.999Z</time></trkpt><trkpt lat="44.46768633380972" lon="9.920452682422036"><ele>1011.0</ele><time>2026-04-11T13:00:24Z</time></trkpt><trkpt lat="44.46752565727432" lon="9.920340297126268"><ele>1011.0</ele><time>2026-04-11T13:00:25Z</time></trkpt><trkpt lat="44.46733253935146" lon="9.920299188970775"><ele>1011.0</ele><time>2026-04-11T13:00:26Z</time></trkpt><trkpt lat="44.46712006354158" lon="9.92029461012297"><ele>1008.3333333333333</ele><time>2026-04-11T13:00:27Z</time></trkpt><trkpt lat="44.46691176918777" lon="9.920275645462443"><ele>1005.6666666666666</ele><time>2026-04-11T13:00:28Z</time></trkpt><trkpt lat="44.46670537696968" lon="9.920256813624519"><ele>1003.0</ele><time>2026-04-11T13:00:29Z</time></trkpt><trkpt lat="44.466501790548044" lon="9.92022735684691"><ele>1003.0</ele><time>2026-04-11T13:00:30Z</time></trkpt><trkpt lat="44.466286628638905" lon="9.92021337527785"><ele>1003.0</ele><time>2026-04-11T13:00:31Z</time></trkpt><trkpt lat="44.466076452713665" lon="9.920240885704633"><ele>1003.0</ele><time>2026-04-11T13:00:32Z</time></trkpt><trkpt lat="44.46586573748995" lon="9.920335005644946"><ele>1003.3333333333333</ele><time>2026-04-11T13:00:33Z</time></trkpt><trkpt lat="44.46566729540383" lon="9.920464263751773"><ele>1003.6666666666667</ele><time>2026-04-11T13:00:34Z</time></trkpt><trkpt lat="44.46547795388201" lon="9.920567241575256"><ele>1004.0</ele><time>2026-04-11T13:00:35Z</time></trkpt><trkpt lat="44.46529605573722" lon="9.920636328150911"><ele>1003.0</ele><time>2026-04-11T13:00:36Z</time></trkpt><trkpt lat="44.46514173080634" lon="9.920682489238141"><ele>1002.0</ele><time>2026-04-11T13:00:37Z</time></trkpt><trkpt lat="44.46498979986629" lon="9.92063718796142"><ele>1001.0</ele><time>2026-04-11T13:00:38Z</time></trkpt><trkpt lat="44.464840931248055" lon="9.920488831433337"><ele>1001.0</ele><time>2026-04-11T13:00:39Z</time></trkpt><trkpt lat="44.46466930728744" lon="9.920343109954509"><ele>1001.0</ele><time>2026-04-11T13:00:40Z</time></trkpt><trkpt lat="44.46449135900522" lon="9.920182057636172"><ele>1001.0</ele><time>2026-04-11T13:00:41Z</time></trkpt><trkpt lat="44.46431120669809" lon="9.920041332185969"><ele>1003.6666666666667</ele><time>2026-04-11T13:00:42Z</time></trkpt><trkpt lat="44.46413034427121" lon="9.919923286733738"><ele>1006.3333333333333</ele><time>2026-04-11T13:00:43Z</time></trkpt><trkpt lat="44.463954992000694" lon="9.919848471869521"><ele>1009.0</ele><time>2026-04-11T13:00:44Z</time></trkpt><trkpt lat="44.46378518521329" lon="9.919784378168197"><ele>1005.3333333333333</ele><time>2026-04-11T13:00:45Z</time></trkpt><trkpt lat="44.463647504854556" lon="9.91966546362288"><ele>1001.6666666666667</ele><time>2026-04-11T13:00:46Z</time></trkpt><trkpt lat="44.463529324504755" lon="9.919493936367958"><ele>998.0</ele><time>2026-04-11T13:00:47Z</time></trkpt><trkpt lat="44.46343118894818" lon="9.919295882105997"><ele>1001.5</ele><time>2026-04-11T13:00:48Z</time></trkpt><trkpt lat="44.463343993830954" lon="9.919149567770742"><ele>1005.0</ele><time>2026-04-11T13:00:49Z</time></trkpt><trkpt lat="44.463244249541646" lon="9.919069135942728"><ele>1008.5</ele><time>2026-04-11T13:00:50Z</time></trkpt><trkpt lat="44.46310736073909" lon="9.91908683121976"><ele>1012.0</ele><time>2026-04-11T13:00:51Z</time></trkpt><trkpt lat="44.4629752726088" lon="9.919186631374664"><ele>1012.0</ele><time>2026-04-11T13:00:52Z</time></trkpt><trkpt lat="44.46287220190114" lon="9.919368063772106"><ele>1012.0</ele><time>2026-04-11T13:00:53Z</time></trkpt><trkpt lat="44.4627863174115" lon="9.919574849558597"><ele>1012.0</ele><time>2026-04-11T13:00:54Z</time></trkpt><trkpt lat="44.4626632550362" lon="9.919776735791862"><ele>1012.0</ele><time>2026-04-11T13:00:55Z</time></trkpt><trkpt lat="44.462537309232744" lon="9.919974953798054"><ele>1012.0</ele><time>2026-04-11T13:00:56Z</time></trkpt><trkpt lat="44.46244367619289" lon="9.92019939880164"><ele>1012.0</ele><time>2026-04-11T13:00:57Z</time></trkpt><trkpt lat="44.46240501725521" lon="9.920485859246597"><ele>1008.6666666666666</ele><time>2026-04-11T13:00:58Z</time></trkpt><trkpt lat="44.46239004493185" lon="9.920773515589339"><ele>1005.3333333333333</ele><time>2026-04-11T13:00:59Z</time></trkpt><trkpt lat="44.462353315815236" lon="9.921028384094111"><ele>1002.0</ele><time>2026-04-11T13:01:00Z</time></trkpt><trkpt lat="44.46234028492366" lon="9.921265863838478"><ele>999.0</ele><time>2026-04-11T13:01:01Z</time></trkpt><trkpt lat="44.462285344294585" lon="9.921460358545637"><ele>996.0</ele><time>2026-04-11T13:01:02Z</time></trkpt><trkpt lat="44.46221531636446" lon="9.921586108278737"><ele>993.0</ele><time>2026-04-11T13:01:03Z</time></trkpt><trkpt lat="44.462121920125085" lon="9.921651709483923"><ele>990.0</ele><time>2026-04-11T13:01:04Z</time></trkpt><trkpt lat="44.461990618218884" lon="9.92160920319013"><ele>988.0</ele><time>2026-04-11T13:01:05Z</time></trkpt><trkpt lat="44.461860438351664" lon="9.921481005178494"><ele>986.0</ele><time>2026-04-11T13:01:06Z</time></trkpt><trkpt lat="44.46169783261815" lon="9.921359827027395"><ele>984.0</ele><time>2026-04-11T13:01:07Z</time></trkpt><trkpt lat="44.46156104551792" lon="9.921207643785841"><ele>984.0</ele><time>2026-04-11T13:01:08Z</time></trkpt><trkpt lat="44.46142809884329" lon="9.92106123688796"><ele>984.0</ele><time>2026-04-11T13:01:09Z</time></trkpt><trkpt lat="44.46129560381987" lon="9.92090037342136"><ele>984.0</ele><time>2026-04-11T13:01:10Z</time></trkpt><trkpt lat="44.461160734622105" lon="9.920751994106801"><ele>987.0</ele><time>2026-04-11T13:01:11Z</time></trkpt><trkpt lat="44.46099491134047" lon="9.920651096044681"><ele>990.0</ele><time>2026-04-11T13:01:12Z</time></trkpt><trkpt lat="44.46079193359141" lon="9.920612489970013"><ele>993.0</ele><time>2026-04-11T13:01:13Z</time></trkpt><trkpt lat="44.46058905652027" lon="9.920582912033641"><ele>995.0</ele><time>2026-04-11T13:01:14Z</time></trkpt><trkpt lat="44.46041023394845" lon="9.920555061815127"><ele>997.0</ele><time>2026-04-11T13:01:15Z</time></trkpt><trkpt lat="44.46024720651909" lon="9.92057597024748"><ele>999.0</ele><time>2026-04-11T13:01:16Z</time></trkpt><trkpt lat="44.460099694485464" lon="9.920695041215815"><ele>999.0</ele><time>2026-04-11T13:01:17Z</time></trkpt><trkpt lat="44.459976584870674" lon="9.920876131595492"><ele>999.0</ele><time>2026-04-11T13:01:18Z</time></trkpt><trkpt lat="44.45983675865706" lon="9.920982047070876"><ele>999.0</ele><time>2026-04-11T13:01:19Z</time></trkpt><trkpt lat="44.459663089188695" lon="9.921065402646011"><ele>990.3333333333333</ele><time>2026-04-11T13:01:20Z</time></trkpt><trkpt lat="44.45950116894578" lon="9.92112102942863"><ele>981.6666666666666</ele><time>2026-04-11T13:01:21Z</time></trkpt><trkpt lat="44.45935006040636" lon="9.921131491067042"><ele>973.0</ele><time>2026-04-11T13:01:22Z</time></trkpt><trkpt lat="44.459238280564676" lon="9.920945838619994"><ele>978.3333333333333</ele><time>2026-04-11T13:01:23Z</time></trkpt><trkpt lat="44.45916411354146" lon="9.920749885789421"><ele>983.6666666666667</ele><time>2026-04-11T13:01:24Z</time></trkpt><trkpt lat="44.45907556984721" lon="9.920527417156672"><ele>989.0</ele><time>2026-04-11T13:01:25Z</time></trkpt><trkpt lat="44.45897138154619" lon="9.920302305600824"><ele>989.0</ele><time>2026-04-11T13:01:26Z</time></trkpt><trkpt lat="44.45884060880361" lon="9.920086872465294"><ele>989.0</ele><time>2026-04-11T13:01:27Z</time></trkpt><trkpt lat="44.45871690828088" lon="9.919879230468332"><ele>989.0</ele><time>2026-04-11T13:01:28Z</time></trkpt><trkpt lat="44.4585999199246" lon="9.919706075627595"><ele>987.75</ele><time>2026-04-11T13:01:29Z</time></trkpt><trkpt lat="44.4584910962106" lon="9.919597374069909"><ele>986.5</ele><time>2026-04-11T13:01:30Z</time></trkpt><trkpt lat="44.458371368842904" lon="9.91958696515726"><ele>985.25</ele><time>2026-04-11T13:01:31Z</time></trkpt><trkpt lat="44.458229105370066" lon="9.919674421404642"><ele>984.0</ele><time>2026-04-11T13:01:32Z</time></trkpt><trkpt lat="44.45808788703026" lon="9.919813181892378"><ele>980.6666666666667</ele><time>2026-04-11T13:01:33Z</time></trkpt><trkpt lat="44.45792529954088" lon="9.919882889103825"><ele>977.3333333333334</ele><time>2026-04-11T13:01:34Z</time></trkpt><trkpt lat="44.45777295197573" lon="9.919794468433905"><ele>974.0</ele><time>2026-04-11T13:01:35Z</time></trkpt><trkpt lat="44.45767551296173" lon="9.919593804165016"><ele>974.0</ele><time>2026-04-11T13:01:36Z</time></trkpt><trkpt lat="44.457559700461594" lon="9.919393606751882"><ele>974.0</ele><time>2026-04-11T13:01:36.999Z</time></trkpt><trkpt lat="44.45743966368425" lon="9.919222445060399"><ele>974.0</ele><time>2026-04-11T13:01:37.999Z</time></trkpt><trkpt lat="44.457271369287206" lon="9.919128627437928"><ele>977.6666666666667</ele><time>2026-04-11T13:01:38.999Z</time></trkpt><trkpt lat="44.45707311505151" lon="9.919096098076247"><ele>981.3333333333333</ele><time>2026-04-11T13:01:39.999Z</time></trkpt><trkpt lat="44.45687342695568" lon="9.919072415898519"><ele>985.0</ele><time>2026-04-11T13:01:40.999Z</time></trkpt><trkpt lat="44.456683313173514" lon="9.918994176010813"><ele>985.0</ele><time>2026-04-11T13:01:41.999Z</time></trkpt><trkpt lat="44.456499162440494" lon="9.918933172443868"><ele>985.0</ele><time>2026-04-11T13:01:42.999Z</time></trkpt><trkpt lat="44.456302576301894" lon="9.91893788725372"><ele>985.0</ele><time>2026-04-11T13:01:43.999Z</time></trkpt><trkpt lat="44.45611226939734" lon="9.918972864746367"><ele>984.3333333333333</ele><time>2026-04-11T13:01:44.999Z</time></trkpt><trkpt lat="44.4559282385181" lon="9.919049523330187"><ele>983.6666666666667</ele><time>2026-04-11T13:01:45.999Z</time></trkpt><trkpt lat="44.45576619263253" lon="9.919163607068539"><ele>983.0</ele><time>2026-04-11T13:01:46.999Z</time></trkpt><trkpt lat="44.45562110640948" lon="9.919245736253513"><ele>983.0</ele><time>2026-04-11T13:01:47.999Z</time></trkpt><trkpt lat="44.45551547631154" lon="9.919165589596558"><ele>983.0</ele><time>2026-04-11T13:01:48.999Z</time></trkpt><trkpt lat="44.455447864576655" lon="9.919025618886447"><ele>983.0</ele><time>2026-04-11T13:01:49.999Z</time></trkpt><trkpt lat="44.455334446304896" lon="9.918853454858338"><ele>983.0</ele><time>2026-04-11T13:01:50.999Z</time></trkpt><trkpt lat="44.455221176997306" lon="9.918645871445747"><ele>986.3333333333334</ele><time>2026-04-11T13:01:51.999Z</time></trkpt><trkpt lat="44.4551041155748" lon="9.91844276840144"><ele>989.6666666666667</ele><time>2026-04-11T13:01:52.999Z</time></trkpt><trkpt lat="44.454964792761004" lon="9.918255384223231"><ele>993.0</ele><time>2026-04-11T13:01:53.999Z</time></trkpt><trkpt lat="44.4547896399265" lon="9.918105019155151"><ele>985.6666666666667</ele><time>2026-04-11T13:01:54.999Z</time></trkpt><trkpt lat="44.45459654092117" lon="9.917980781235126"><ele>978.3333333333334</ele><time>2026-04-11T13:01:55.999Z</time></trkpt><trkpt lat="44.45439762518102" lon="9.91788735952577"><ele>971.0</ele><time>2026-04-11T13:01:56.999Z</time></trkpt><trkpt lat="44.45421435888928" lon="9.917805060554016"><ele>971.0</ele><time>2026-04-11T13:01:57.999Z</time></trkpt><trkpt lat="44.45403206967739" lon="9.91775679112753"><ele>971.0</ele><time>2026-04-11T13:01:58.999Z</time></trkpt><trkpt lat="44.453838067950265" lon="9.917734279956177"><ele>971.0</ele><time>2026-04-11T13:01:59.999Z</time></trkpt><trkpt lat="44.45364071491469" lon="9.917748598947822"><ele>973.0</ele><time>2026-04-11T13:02:00.999Z</time></trkpt><trkpt lat="44.453449172205495" lon="9.917795526391396"><ele>975.0</ele><time>2026-04-11T13:02:01.999Z</time></trkpt><trkpt lat="44.45326565016944" lon="9.917895282093905"><ele>977.0</ele><time>2026-04-11T13:02:02.999Z</time></trkpt><trkpt lat="44.453110613075985" lon="9.918061417975352"><ele>977.0</ele><time>2026-04-11T13:02:03.999Z</time></trkpt><trkpt lat="44.45298208132464" lon="9.918269531890644"><ele>977.0</ele><time>2026-04-11T13:02:04.999Z</time></trkpt><trkpt lat="44.4528574761303" lon="9.918487600574728"><ele>977.0</ele><time>2026-04-11T13:02:05.999Z</time></trkpt><trkpt lat="44.452717361963074" lon="9.918651176749337"><ele>975.6666666666667</ele><time>2026-04-11T13:02:06.999Z</time></trkpt><trkpt lat="44.45254636514443" lon="9.91878464498747"><ele>974.3333333333333</ele><time>2026-04-11T13:02:07.999Z</time></trkpt><trkpt lat="44.4523587193937" lon="9.918852312932877"><ele>973.0</ele><time>2026-04-11T13:02:08.999Z</time></trkpt><trkpt lat="44.452168816782944" lon="9.91886680647137"><ele>972.6666666666666</ele><time>2026-04-11T13:02:09.999Z</time></trkpt><trkpt lat="44.451971280592886" lon="9.918878293557196"><ele>972.3333333333333</ele><time>2026-04-11T13:02:10.999Z</time></trkpt><trkpt lat="44.451788616161835" lon="9.918909158510644"><ele>972.0</ele><time>2026-04-11T13:02:11.999Z</time></trkpt><trkpt lat="44.451603856199476" lon="9.919020565041242"><ele>972.0</ele><time>2026-04-11T13:02:12.999Z</time></trkpt><trkpt lat="44.45142890259878" lon="9.919160545340736"><ele>972.0</ele><time>2026-04-11T13:02:13.999Z</time></trkpt><trkpt lat="44.45128688697805" lon="9.919330779265012"><ele>972.0</ele><time>2026-04-11T13:02:14.999Z</time></trkpt><trkpt lat="44.45116247051919" lon="9.919531790727586"><ele>971.25</ele><time>2026-04-11T13:02:15.999Z</time></trkpt><trkpt lat="44.45105386085095" lon="9.919714252989758"><ele>970.5</ele><time>2026-04-11T13:02:16.999Z</time></trkpt><trkpt lat="44.45095219807794" lon="9.919818926117932"><ele>969.75</ele><time>2026-04-11T13:02:17.999Z</time></trkpt><trkpt lat="44.45087803186969" lon="9.919869976349652"><ele>969.0</ele><time>2026-04-11T13:02:18.999Z</time></trkpt><trkpt lat="44.45080650529939" lon="9.919876894227102"><ele>969.0</ele><time>2026-04-11T13:02:19.999Z</time></trkpt><trkpt lat="44.45075108459294" lon="9.919730943018466"><ele>969.0</ele><time>2026-04-11T13:02:20.999Z</time></trkpt><trkpt lat="44.45076931130954" lon="9.91954007062255"><ele>969.0</ele><time>2026-04-11T13:02:21.999Z</time></trkpt><trkpt lat="44.4508979533891" lon="9.919411596923139"><ele>969.0</ele><time>2026-04-11T13:02:22.999Z</time></trkpt><trkpt lat="44.45104182530923" lon="9.91925622043589"><ele>970.0</ele><time>2026-04-11T13:02:23.999Z</time></trkpt><trkpt lat="44.45120806928309" lon="9.919119414911648"><ele>971.0</ele><time>2026-04-11T13:02:24.999Z</time></trkpt><trkpt lat="44.4513611155952" lon="9.91895607317279"><ele>972.0</ele><time>2026-04-11T13:02:25.999Z</time></trkpt><trkpt lat="44.451510748237794" lon="9.918764772014349"><ele>972.0</ele><time>2026-04-11T13:02:26.999Z</time></trkpt><trkpt lat="44.451654637964616" lon="9.918564384120026"><ele>972.0</ele><time>2026-04-11T13:02:27.999Z</time></trkpt><trkpt lat="44.45178482511807" lon="9.918380011243382"><ele>972.0</ele><time>2026-04-11T13:02:28.999Z</time></trkpt><trkpt lat="44.451897510292454" lon="9.91817750404935"><ele>966.3333333333333</ele><time>2026-04-11T13:02:30Z</time></trkpt><trkpt lat="44.45197574225985" lon="9.91792424382672"><ele>960.6666666666666</ele><time>2026-04-11T13:02:31Z</time></trkpt><trkpt lat="44.452021858143816" lon="9.917649053739353"><ele>955.0</ele><time>2026-04-11T13:02:32Z</time></trkpt><trkpt lat="44.4520425756975" lon="9.917377282582382"><ele>953.3333333333333</ele><time>2026-04-11T13:02:33Z</time></trkpt><trkpt lat="44.45211276578698" lon="9.917144207389638"><ele>951.6666666666667</ele><time>2026-04-11T13:02:34Z</time></trkpt><trkpt lat="44.45223563576859" lon="9.916930571849743"><ele>950.0</ele><time>2026-04-11T13:02:35Z</time></trkpt><trkpt lat="44.452364733141074" lon="9.916685649716085"><ele>950.0</ele><time>2026-04-11T13:02:36Z</time></trkpt><trkpt lat="44.45249993082901" lon="9.916491582425286"><ele>950.0</ele><time>2026-04-11T13:02:37Z</time></trkpt><trkpt lat="44.452606821413106" lon="9.916305161380237"><ele>950.0</ele><time>2026-04-11T13:02:38Z</time></trkpt><trkpt lat="44.452702867935486" lon="9.916143024865034"><ele>950.0</ele><time>2026-04-11T13:02:39Z</time></trkpt><trkpt lat="44.45279154649228" lon="9.916008069384434"><ele>950.0</ele><time>2026-04-11T13:02:40Z</time></trkpt><trkpt lat="44.452865476544744" lon="9.915880719754671"><ele>950.0</ele><time>2026-04-11T13:02:41Z</time></trkpt><trkpt lat="44.45293092388874" lon="9.915768490538703"><ele>950.0</ele><time>2026-04-11T13:02:42Z</time></trkpt><trkpt lat="44.45299391763139" lon="9.915679989291016"><ele>950.0</ele><time>2026-04-11T13:02:43Z</time></trkpt><trkpt lat="44.45303866392516" lon="9.915613987688555"><ele>951.2</ele><time>2026-04-11T13:02:44Z</time></trkpt><trkpt lat="44.453087190029386" lon="9.915526920585023"><ele>952.4</ele><time>2026-04-11T13:02:46Z</time></trkpt><trkpt lat="44.453146282515185" lon="9.915434863408292"><ele>953.5999999999999</ele><time>2026-04-11T13:02:49Z</time></trkpt><trkpt lat="44.45323340203555" lon="9.915305033608009"><ele>954.8</ele><time>2026-04-11T13:03:56.999Z</time></trkpt><trkpt lat="44.453298111961324" lon="9.915191001785304"><ele>956.0</ele><time>2026-04-11T13:03:57.999Z</time></trkpt><trkpt lat="44.45336214168769" lon="9.915067083474442"><ele>952.25</ele><time>2026-04-11T13:03:58.999Z</time></trkpt><trkpt lat="44.4534422016358" lon="9.91491969423864"><ele>948.5</ele><time>2026-04-11T13:03:59.999Z</time></trkpt><trkpt lat="44.453507512314005" lon="9.91474669086845"><ele>944.75</ele><time>2026-04-11T13:04:00.999Z</time></trkpt><trkpt lat="44.45354631028595" lon="9.91453475921864"><ele>941.0</ele><time>2026-04-11T13:04:01.999Z</time></trkpt><trkpt lat="44.453566737152855" lon="9.914285397385315"><ele>937.6666666666667</ele><time>2026-04-11T13:04:02.999Z</time></trkpt><trkpt lat="44.45357665217351" lon="9.914036420250714"><ele>934.3333333333333</ele><time>2026-04-11T13:04:03.999Z</time></trkpt><trkpt lat="44.45357429540632" lon="9.913788868451068"><ele>931.0</ele><time>2026-04-11T13:04:04.999Z</time></trkpt><trkpt lat="44.45357372839606" lon="9.913546010350307"><ele>929.0</ele><time>2026-04-11T13:04:05.999Z</time></trkpt><trkpt lat="44.453589737596246" lon="9.91329378972026"><ele>927.0</ele><time>2026-04-11T13:04:06.999Z</time></trkpt><trkpt lat="44.453601362210215" lon="9.913038612802307"><ele>925.0</ele><time>2026-04-11T13:04:07.999Z</time></trkpt><trkpt lat="44.45359939668931" lon="9.912797235431738"><ele>924.3333333333333</ele><time>2026-04-11T13:04:08.999Z</time></trkpt><trkpt lat="44.453557273533846" lon="9.912544092429458"><ele>923.6666666666667</ele><time>2026-04-11T13:04:09.999Z</time></trkpt><trkpt lat="44.45345611615824" lon="9.912259329870873"><ele>923.0</ele><time>2026-04-11T13:04:10.999Z</time></trkpt><trkpt lat="44.45334104567284" lon="9.91193969208429"><ele>925.5</ele><time>2026-04-11T13:04:11.999Z</time></trkpt><trkpt lat="44.453243287407645" lon="9.911600550962314"><ele>928.0</ele><time>2026-04-11T13:04:12.999Z</time></trkpt><trkpt lat="44.45312672809534" lon="9.911275201214117"><ele>928.0</ele><time>2026-04-11T13:04:13.999Z</time></trkpt><trkpt lat="44.452975811724684" lon="9.910963727809003"><ele>928.0</ele><time>2026-04-11T13:04:14.999Z</time></trkpt><trkpt lat="44.45281314467787" lon="9.91067190666029"><ele>917.0</ele><time>2026-04-11T13:04:15.999Z</time></trkpt><trkpt lat="44.45264632994469" lon="9.910403354829768"><ele>906.0</ele><time>2026-04-11T13:04:16.999Z</time></trkpt><trkpt lat="44.45248606521923" lon="9.910175430518496"><ele>907.6666666666667</ele><time>2026-04-11T13:04:17.999Z</time></trkpt><trkpt lat="44.45234289906601" lon="9.91002357078599"><ele>909.3333333333334</ele><time>2026-04-11T13:04:18.999Z</time></trkpt><trkpt lat="44.452265772060244" lon="9.909850533160567"><ele>911.0</ele><time>2026-04-11T13:04:19.999Z</time></trkpt><trkpt lat="44.45228764613466" lon="9.909662475569974"><ele>911.0</ele><time>2026-04-11T13:04:20.999Z</time></trkpt><trkpt lat="44.45235890075531" lon="9.909476209883096"><ele>911.0</ele><time>2026-04-11T13:04:21.999Z</time></trkpt><trkpt lat="44.45245341669349" lon="9.909260874269815"><ele>911.0</ele><time>2026-04-11T13:04:22.999Z</time></trkpt><trkpt lat="44.45250082584996" lon="9.90904888075899"><ele>909.6666666666667</ele><time>2026-04-11T13:04:23.999Z</time></trkpt><trkpt lat="44.45245612877302" lon="9.90883158221907"><ele>908.3333333333333</ele><time>2026-04-11T13:04:24.999Z</time></trkpt><trkpt lat="44.45231962360289" lon="9.908609569762982"><ele>907.0</ele><time>2026-04-11T13:04:25.999Z</time></trkpt><trkpt lat="44.45215584783381" lon="9.908353401588723"><ele>901.6666666666666</ele><time>2026-04-11T13:04:26.999Z</time></trkpt><trkpt lat="44.45200386066076" lon="9.908106122264748"><ele>896.3333333333333</ele><time>2026-04-11T13:04:27.999Z</time></trkpt><trkpt lat="44.45188182349448" lon="9.907920709310122"><ele>891.0</ele><time>2026-04-11T13:04:28.999Z</time></trkpt><trkpt lat="44.45175012728181" lon="9.907809553837552"><ele>891.0</ele><time>2026-04-11T13:04:29.999Z</time></trkpt><trkpt lat="44.45158864362065" lon="9.907793457372437"><ele>891.0</ele><time>2026-04-11T13:04:30.999Z</time></trkpt><trkpt lat="44.451401172366616" lon="9.907887075213177"><ele>891.0</ele><time>2026-04-11T13:04:31.999Z</time></trkpt><trkpt lat="44.451190335625924" lon="9.908050789560995"><ele>888.5</ele><time>2026-04-11T13:04:32.999Z</time></trkpt><trkpt lat="44.4509758665901" lon="9.908201109765178"><ele>886.0</ele><time>2026-04-11T13:04:33.999Z</time></trkpt><trkpt lat="44.45077916836534" lon="9.90832726675016"><ele>881.6666666666666</ele><time>2026-04-11T13:04:34.999Z</time></trkpt><trkpt lat="44.45060002686557" lon="9.908456958641205"><ele>877.3333333333333</ele><time>2026-04-11T13:04:36Z</time></trkpt><trkpt lat="44.450447271229216" lon="9.908620602246998"><ele>873.0</ele><time>2026-04-11T13:04:37Z</time></trkpt><trkpt lat="44.45032935339417" lon="9.908826431073672"><ele>871.5</ele><time>2026-04-11T13:04:38Z</time></trkpt><trkpt lat="44.45022832583053" lon="9.908999487989428"><ele>870.0</ele><time>2026-04-11T13:04:39Z</time></trkpt><trkpt lat="44.45012159822996" lon="9.909080583677992"><ele>868.5</ele><time>2026-04-11T13:04:40Z</time></trkpt><trkpt lat="44.44997343154584" lon="9.909012835190637"><ele>867.0</ele><time>2026-04-11T13:04:41Z</time></trkpt><trkpt lat="44.44977756532461" lon="9.908983336981445"><ele>863.0</ele><time>2026-04-11T13:04:42Z</time></trkpt><trkpt lat="44.449576978146254" lon="9.908939370293165"><ele>859.0</ele><time>2026-04-11T13:04:43Z</time></trkpt><trkpt lat="44.44940522564382" lon="9.908906384649482"><ele>855.0</ele><time>2026-04-11T13:04:44Z</time></trkpt><trkpt lat="44.449269178737374" lon="9.90887321187113"><ele>855.0</ele><time>2026-04-11T13:04:45Z</time></trkpt><trkpt lat="44.449191622235844" lon="9.908803253456899"><ele>855.0</ele><time>2026-04-11T13:04:46Z</time></trkpt><trkpt lat="44.44913678534948" lon="9.908647788816008"><ele>855.0</ele><time>2026-04-11T13:04:47Z</time></trkpt><trkpt lat="44.449127887378985" lon="9.908427791251357"><ele>855.0</ele><time>2026-04-11T13:04:48Z</time></trkpt><trkpt lat="44.449193145268616" lon="9.908254534079756"><ele>857.6666666666667</ele><time>2026-04-11T13:04:49Z</time></trkpt><trkpt lat="44.449294066908855" lon="9.908111972659972"><ele>860.3333333333334</ele><time>2026-04-11T13:04:50Z</time></trkpt><trkpt lat="44.44944746346739" lon="9.90803939807129"><ele>863.0</ele><time>2026-04-11T13:04:51Z</time></trkpt><trkpt lat="44.44957242349586" lon="9.907911944420515"><ele>861.6666666666667</ele><time>2026-04-11T13:04:52Z</time></trkpt><trkpt lat="44.44963584217055" lon="9.907672604513573"><ele>860.3333333333333</ele><time>2026-04-11T13:04:53Z</time></trkpt><trkpt lat="44.44966100917948" lon="9.907427254186668"><ele>859.0</ele><time>2026-04-11T13:04:54Z</time></trkpt><trkpt lat="44.44962419927902" lon="9.907235516409868"><ele>859.0</ele><time>2026-04-11T13:04:55Z</time></trkpt><trkpt lat="44.449548622740316" lon="9.907100236561657"><ele>859.0</ele><time>2026-04-11T13:04:56Z</time></trkpt><trkpt lat="44.449432121130016" lon="9.907035455031242"><ele>859.0</ele><time>2026-04-11T13:04:57Z</time></trkpt><trkpt lat="44.44928309516" lon="9.907068615621997"><ele>859.0</ele><time>2026-04-11T13:04:58Z</time></trkpt><trkpt lat="44.44914167881288" lon="9.907217885656031"><ele>859.0</ele><time>2026-04-11T13:04:59Z</time></trkpt><trkpt lat="44.44901821256362" lon="9.907401774587935"><ele>859.0</ele><time>2026-04-11T13:05:00Z</time></trkpt><trkpt lat="44.448918697936115" lon="9.907477331498116"><ele>859.0</ele><time>2026-04-11T13:05:01Z</time></trkpt><trkpt lat="44.44881787162068" lon="9.907381993752223"><ele>859.0</ele><time>2026-04-11T13:05:03Z</time></trkpt><trkpt lat="44.448856220115495" lon="9.907232532969596"><ele>859.0</ele><time>2026-04-11T13:05:04Z</time></trkpt><trkpt lat="44.44897598259804" lon="9.907099294729912"><ele>859.0</ele><time>2026-04-11T13:05:05Z</time></trkpt><trkpt lat="44.449105198010706" lon="9.906898153952948"><ele>859.0</ele><time>2026-04-11T13:05:06Z</time></trkpt><trkpt lat="44.44926034082753" lon="9.906756109783164"><ele>859.0</ele><time>2026-04-11T13:05:07Z</time></trkpt><trkpt lat="44.44942498286544" lon="9.906659433247171"><ele>859.0</ele><time>2026-04-11T13:05:08Z</time></trkpt><trkpt lat="44.44957577402107" lon="9.906566644440234"><ele>859.0</ele><time>2026-04-11T13:05:09Z</time></trkpt><trkpt lat="44.44966881120904" lon="9.906506249519763"><ele>859.0</ele><time>2026-04-11T13:05:10Z</time></trkpt><trkpt lat="44.44969149343007" lon="9.90640552697155"><ele>859.0</ele><time>2026-04-11T13:05:11Z</time></trkpt><trkpt lat="44.44965002402262" lon="9.906270402338139"><ele>859.0</ele><time>2026-04-11T13:05:12Z</time></trkpt><trkpt lat="44.449551112977744" lon="9.906238380774418"><ele>859.0</ele><time>2026-04-11T13:05:13Z</time></trkpt><trkpt lat="44.449441885348826" lon="9.9062831626171"><ele>859.0</ele><time>2026-04-11T13:05:14Z</time></trkpt><trkpt lat="44.44929086677557" lon="9.906388151099941"><ele>855.0</ele><time>2026-04-11T13:05:15Z</time></trkpt><trkpt lat="44.449144709862715" lon="9.906484549320176"><ele>851.0</ele><time>2026-04-11T13:05:16Z</time></trkpt><trkpt lat="44.449003260598026" lon="9.906573076605047"><ele>847.0</ele><time>2026-04-11T13:05:17Z</time></trkpt><trkpt lat="44.44886241297885" lon="9.906657023882667"><ele>844.6666666666666</ele><time>2026-04-11T13:05:18Z</time></trkpt><trkpt lat="44.44873422389708" lon="9.906737582662492"><ele>842.3333333333333</ele><time>2026-04-11T13:05:19Z</time></trkpt><trkpt lat="44.44860176310842" lon="9.906854925758125"><ele>840.0</ele><time>2026-04-11T13:05:20Z</time></trkpt><trkpt lat="44.44847296146626" lon="9.907009069361962"><ele>840.0</ele><time>2026-04-11T13:05:21Z</time></trkpt><trkpt lat="44.448368962531895" lon="9.907160057338881"><ele>840.0</ele><time>2026-04-11T13:05:22Z</time></trkpt><trkpt lat="44.448264300777154" lon="9.907309045330118"><ele>840.0</ele><time>2026-04-11T13:05:23Z</time></trkpt><trkpt lat="44.44818407234092" lon="9.907484081256955"><ele>840.0</ele><time>2026-04-11T13:05:24Z</time></trkpt><trkpt lat="44.448131159575766" lon="9.907713427054263"><ele>840.0</ele><time>2026-04-11T13:05:25Z</time></trkpt><trkpt lat="44.448048282478936" lon="9.907884056260757"><ele>840.0</ele><time>2026-04-11T13:05:26Z</time></trkpt><trkpt lat="44.44796300419636" lon="9.90804600395309"><ele>840.0</ele><time>2026-04-11T13:05:27Z</time></trkpt><trkpt lat="44.44783219602469" lon="9.908153788753722"><ele>840.0</ele><time>2026-04-11T13:05:28Z</time></trkpt><trkpt lat="44.44770382891368" lon="9.908266376865104"><ele>837.5</ele><time>2026-04-11T13:05:29Z</time></trkpt><trkpt lat="44.44758859782688" lon="9.908389820195366"><ele>835.0</ele><time>2026-04-11T13:05:30Z</time></trkpt><trkpt lat="44.44746046220097" lon="9.908475611437987"><ele>832.5</ele><time>2026-04-11T13:05:31Z</time></trkpt><trkpt lat="44.4473348631895" lon="9.908571826815095"><ele>830.0</ele><time>2026-04-11T13:05:32Z</time></trkpt><trkpt lat="44.4472085449596" lon="9.908654580239245"><ele>825.75</ele><time>2026-04-11T13:05:33Z</time></trkpt><trkpt lat="44.44708831746203" lon="9.90874573077678"><ele>821.5</ele><time>2026-04-11T13:05:34Z</time></trkpt><trkpt lat="44.44696631116148" lon="9.908790624919037"><ele>817.25</ele><time>2026-04-11T13:05:35Z</time></trkpt><trkpt lat="44.44682165332887" lon="9.908781369225386"><ele>813.0</ele><time>2026-04-11T13:05:36Z</time></trkpt><trkpt lat="44.44667576516854" lon="9.908683878495813"><ele>813.0</ele><time>2026-04-11T13:05:37Z</time></trkpt><trkpt lat="44.44652549941641" lon="9.908596817807846"><ele>813.0</ele><time>2026-04-11T13:05:38Z</time></trkpt><trkpt lat="44.44637074124215" lon="9.908563622628186"><ele>813.0</ele><time>2026-04-11T13:05:39Z</time></trkpt><trkpt lat="44.44621022477465" lon="9.908634529569982"><ele>810.3333333333333</ele><time>2026-04-11T13:05:40Z</time></trkpt><trkpt lat="44.44607735891585" lon="9.908790628527072"><ele>807.6666666666666</ele><time>2026-04-11T13:05:41Z</time></trkpt><trkpt lat="44.4459481355419" lon="9.908882660301408"><ele>805.0</ele><time>2026-04-11T13:05:42Z</time></trkpt><trkpt lat="44.44578434667486" lon="9.908822629218928"><ele>805.0</ele><time>2026-04-11T13:05:43Z</time></trkpt><trkpt lat="44.44562899858588" lon="9.908814476672873"><ele>805.0</ele><time>2026-04-11T13:05:44Z</time></trkpt><trkpt lat="44.44552035417933" lon="9.908759172656495"><ele>805.0</ele><time>2026-04-11T13:05:45Z</time></trkpt><trkpt lat="44.44543970893899" lon="9.908635251687684"><ele>805.0</ele><time>2026-04-11T13:05:46Z</time></trkpt><trkpt lat="44.44541729201862" lon="9.908414146798041"><ele>808.6666666666666</ele><time>2026-04-11T13:05:47Z</time></trkpt><trkpt lat="44.44543419163802" lon="9.908165208481842"><ele>812.3333333333333</ele><time>2026-04-11T13:05:48Z</time></trkpt><trkpt lat="44.44545290035561" lon="9.90789948271305"><ele>816.0</ele><time>2026-04-11T13:05:48.999Z</time></trkpt><trkpt lat="44.445464233376775" lon="9.90763689788882"><ele>814.3333333333333</ele><time>2026-04-11T13:05:49.999Z</time></trkpt><trkpt lat="44.445467803887674" lon="9.907379751180443"><ele>812.6666666666666</ele><time>2026-04-11T13:05:50.999Z</time></trkpt><trkpt lat="44.44546690269454" lon="9.907130282577656"><ele>811.0</ele><time>2026-04-11T13:05:51.999Z</time></trkpt><trkpt lat="44.44546926077998" lon="9.906904177648489"><ele>807.25</ele><time>2026-04-11T13:05:52.999Z</time></trkpt><trkpt lat="44.44549263651074" lon="9.906743496349362"><ele>803.5</ele><time>2026-04-11T13:05:53.999Z</time></trkpt><trkpt lat="44.44556815105981" lon="9.906647042962804"><ele>799.75</ele><time>2026-04-11T13:05:54.999Z</time></trkpt><trkpt lat="44.445710705881154" lon="9.906641229406047"><ele>796.0</ele><time>2026-04-11T13:05:55.999Z</time></trkpt><trkpt lat="44.445886368912134" lon="9.906640430387618"><ele>796.0</ele><time>2026-04-11T13:05:56.999Z</time></trkpt><trkpt lat="44.44606057154937" lon="9.90666561745956"><ele>796.0</ele><time>2026-04-11T13:05:57.999Z</time></trkpt><trkpt lat="44.446234561808794" lon="9.906680446971256"><ele>796.0</ele><time>2026-04-11T13:05:58.999Z</time></trkpt><trkpt lat="44.44640729023845" lon="9.906679475780855"><ele>796.1999999999999</ele><time>2026-04-11T13:05:59.999Z</time></trkpt><trkpt lat="44.44655410060379" lon="9.906680080226957"><ele>796.4</ele><time>2026-04-11T13:06:00.999Z</time></trkpt><trkpt lat="44.4466653665353" lon="9.906680509208284"><ele>796.6</ele><time>2026-04-11T13:06:01.999Z</time></trkpt><trkpt lat="44.446746727032405" lon="9.906642424156955"><ele>796.8</ele><time>2026-04-11T13:06:02.999Z</time></trkpt><trkpt lat="44.446780614129075" lon="9.906523827189876"><ele>797.0</ele><time>2026-04-11T13:06:03.999Z</time></trkpt><trkpt lat="44.44674399390886" lon="9.906377211538548"><ele>797.0</ele><time>2026-04-11T13:06:04.999Z</time></trkpt><trkpt lat="44.44663250294833" lon="9.906296183605873"><ele>797.0</ele><time>2026-04-11T13:06:05.999Z</time></trkpt><trkpt lat="44.44648452791351" lon="9.906274940715731"><ele>797.0</ele><time>2026-04-11T13:06:06.999Z</time></trkpt><trkpt lat="44.446298771438904" lon="9.906257577749841"><ele>796.6666666666667</ele><time>2026-04-11T13:06:07.999Z</time></trkpt><trkpt lat="44.44611804509745" lon="9.906212721654763"><ele>796.3333333333333</ele><time>2026-04-11T13:06:08.999Z</time></trkpt><trkpt lat="44.44593177296669" lon="9.906153129422785"><ele>796.0</ele><time>2026-04-11T13:06:09.999Z</time></trkpt><trkpt lat="44.445742300087474" lon="9.906083025345954"><ele>796.0</ele><time>2026-04-11T13:06:10.999Z</time></trkpt><trkpt lat="44.44554338083642" lon="9.906015366298575"><ele>796.0</ele><time>2026-04-11T13:06:11.999Z</time></trkpt><trkpt lat="44.44534282217529" lon="9.905957718572422"><ele>796.0</ele><time>2026-04-11T13:06:12.999Z</time></trkpt><trkpt lat="44.44515737502455" lon="9.905880709682744"><ele>788.6666666666666</ele><time>2026-04-11T13:06:13.999Z</time></trkpt><trkpt lat="44.444992817233796" lon="9.905760584982593"><ele>781.3333333333333</ele><time>2026-04-11T13:06:14.999Z</time></trkpt><trkpt lat="44.444860772266594" lon="9.905638439880747"><ele>774.0</ele><time>2026-04-11T13:06:15.999Z</time></trkpt><trkpt lat="44.444751901817774" lon="9.90558249875305"><ele>769.25</ele><time>2026-04-11T13:06:16.999Z</time></trkpt><trkpt lat="44.44462014357799" lon="9.90560518307363"><ele>764.5</ele><time>2026-04-11T13:06:17.999Z</time></trkpt><trkpt lat="44.44450480051841" lon="9.905713079049901"><ele>759.75</ele><time>2026-04-11T13:06:18.999Z</time></trkpt><trkpt lat="44.44441831835083" lon="9.905913276296612"><ele>755.0</ele><time>2026-04-11T13:06:19.999Z</time></trkpt><trkpt lat="44.44436680919552" lon="9.906146029913636"><ele>755.0</ele><time>2026-04-11T13:06:20.999Z</time></trkpt><trkpt lat="44.444333560825626" lon="9.906386990755001"><ele>755.0</ele><time>2026-04-11T13:06:21.999Z</time></trkpt><trkpt lat="44.444371054761326" lon="9.906605773102823"><ele>755.0</ele><time>2026-04-11T13:06:22.999Z</time></trkpt><trkpt lat="44.44445300606586" lon="9.906837462530499"><ele>755.3333333333333</ele><time>2026-04-11T13:06:23.999Z</time></trkpt><trkpt lat="44.44449324730223" lon="9.907055935289678"><ele>755.6666666666666</ele><time>2026-04-11T13:06:24.999Z</time></trkpt><trkpt lat="44.44446142284628" lon="9.907261605560862"><ele>756.0</ele><time>2026-04-11T13:06:25.999Z</time></trkpt><trkpt lat="44.44438318855845" lon="9.907485310522995"><ele>759.0</ele><time>2026-04-11T13:06:26.999Z</time></trkpt><trkpt lat="44.44425391921316" lon="9.90768952456508"><ele>762.0</ele><time>2026-04-11T13:06:27.999Z</time></trkpt><trkpt lat="44.44412496455844" lon="9.90789849973325"><ele>765.0</ele><time>2026-04-11T13:06:28.999Z</time></trkpt><trkpt lat="44.44400212846211" lon="9.908070969894165"><ele>765.0</ele><time>2026-04-11T13:06:29.999Z</time></trkpt><trkpt lat="44.44390600803233" lon="9.908258682901401"><ele>765.0</ele><time>2026-04-11T13:06:30.999Z</time></trkpt><trkpt lat="44.44386310374458" lon="9.908501563652619"><ele>765.0</ele><time>2026-04-11T13:06:31.999Z</time></trkpt><trkpt lat="44.443843189809016" lon="9.908772736536074"><ele>760.6666666666666</ele><time>2026-04-11T13:06:32.999Z</time></trkpt><trkpt lat="44.44377673543052" lon="9.909007119006063"><ele>756.3333333333333</ele><time>2026-04-11T13:06:33.999Z</time></trkpt><trkpt lat="44.44368405974751" lon="9.909213443945722"><ele>752.0</ele><time>2026-04-11T13:06:34.999Z</time></trkpt><trkpt lat="44.44357663511925" lon="9.90940894192466"><ele>752.0</ele><time>2026-04-11T13:06:35.999Z</time></trkpt><trkpt lat="44.44345329961895" lon="9.909582182885464"><ele>752.0</ele><time>2026-04-11T13:06:36.999Z</time></trkpt><trkpt lat="44.44331362072717" lon="9.90970668751946"><ele>752.0</ele><time>2026-04-11T13:06:37.999Z</time></trkpt><trkpt lat="44.443144438996804" lon="9.909767214587733"><ele>752.0</ele><time>2026-04-11T13:06:38.999Z</time></trkpt><trkpt lat="44.44296511176058" lon="9.909850764301728"><ele>752.0</ele><time>2026-04-11T13:06:39.999Z</time></trkpt><trkpt lat="44.44277277528319" lon="9.909902687548039"><ele>752.0</ele><time>2026-04-11T13:06:40.999Z</time></trkpt><trkpt lat="44.44258994635292" lon="9.909897261880856"><ele>747.6666666666666</ele><time>2026-04-11T13:06:42Z</time></trkpt><trkpt lat="44.44240986076344" lon="9.909836308367712"><ele>743.3333333333334</ele><time>2026-04-11T13:06:43Z</time></trkpt><trkpt lat="44.44225224246795" lon="9.90971918809117"><ele>739.0</ele><time>2026-04-11T13:06:44Z</time></trkpt><trkpt lat="44.44213573039975" lon="9.909549523823975"><ele>737.75</ele><time>2026-04-11T13:06:45Z</time></trkpt><trkpt lat="44.44204186897009" lon="9.909367077358949"><ele>736.5</ele><time>2026-04-11T13:06:46Z</time></trkpt><trkpt lat="44.44194538318952" lon="9.9092748502339"><ele>735.25</ele><time>2026-04-11T13:06:47Z</time></trkpt><trkpt lat="44.44183869794612" lon="9.909293205889734"><ele>734.0</ele><time>2026-04-11T13:06:48Z</time></trkpt><trkpt lat="44.441711824512986" lon="9.909398918223197"><ele>734.0</ele><time>2026-04-11T13:06:49Z</time></trkpt><trkpt lat="44.44157106792911" lon="9.90955563584103"><ele>734.0</ele><time>2026-04-11T13:06:50Z</time></trkpt><trkpt lat="44.44142372454736" lon="9.9097435775523"><ele>734.0</ele><time>2026-04-11T13:06:51Z</time></trkpt><trkpt lat="44.441277745540035" lon="9.909923315174348"><ele>732.3333333333333</ele><time>2026-04-11T13:06:52Z</time></trkpt><trkpt lat="44.441117713010456" lon="9.910073427077652"><ele>730.6666666666666</ele><time>2026-04-11T13:06:53Z</time></trkpt><trkpt lat="44.44093451560472" lon="9.91018026329098"><ele>729.0</ele><time>2026-04-11T13:06:54Z</time></trkpt><trkpt lat="44.4407156118889" lon="9.91027016212951"><ele>729.0</ele><time>2026-04-11T13:06:55Z</time></trkpt><trkpt lat="44.44049648554229" lon="9.91034261184742"><ele>729.0</ele><time>2026-04-11T13:06:56Z</time></trkpt><trkpt lat="44.44027393794888" lon="9.910402509987357"><ele>724.6666666666666</ele><time>2026-04-11T13:06:57Z</time></trkpt><trkpt lat="44.440064131593225" lon="9.91040882230964"><ele>720.3333333333333</ele><time>2026-04-11T13:06:58Z</time></trkpt><trkpt lat="44.439855618494775" lon="9.910436826806475"><ele>716.0</ele><time>2026-04-11T13:06:59Z</time></trkpt><trkpt lat="44.439663514485" lon="9.910433207040047"><ele>715.75</ele><time>2026-04-11T13:07:00Z</time></trkpt><trkpt lat="44.43951350367223" lon="9.910403231072186"><ele>715.5</ele><time>2026-04-11T13:07:01Z</time></trkpt><trkpt lat="44.43940255637825" lon="9.910317614627965"><ele>715.25</ele><time>2026-04-11T13:07:02Z</time></trkpt><trkpt lat="44.43936233140746" lon="9.910128046158814"><ele>715.0</ele><time>2026-04-11T13:07:03Z</time></trkpt><trkpt lat="44.43929234312843" lon="9.90995287307197"><ele>713.6666666666667</ele><time>2026-04-11T13:07:04Z</time></trkpt><trkpt lat="44.43920089659503" lon="9.909820047599274"><ele>712.3333333333334</ele><time>2026-04-11T13:07:05Z</time></trkpt><trkpt lat="44.43904895018816" lon="9.909763210922193"><ele>711.0</ele><time>2026-04-11T13:07:06Z</time></trkpt><trkpt lat="44.43886062354042" lon="9.909768909676227"><ele>711.3333333333334</ele><time>2026-04-11T13:07:07Z</time></trkpt><trkpt lat="44.438659199268116" lon="9.909799298477669"><ele>711.6666666666667</ele><time>2026-04-11T13:07:08Z</time></trkpt><trkpt lat="44.43844046357405" lon="9.90977914012607"><ele>712.0</ele><time>2026-04-11T13:07:09Z</time></trkpt><trkpt lat="44.43823357800449" lon="9.909717811045128"><ele>712.0</ele><time>2026-04-11T13:07:10Z</time></trkpt><trkpt lat="44.438025331520045" lon="9.909653363035007"><ele>712.0</ele><time>2026-04-11T13:07:11Z</time></trkpt><trkpt lat="44.43782628062347" lon="9.909614474831526"><ele>712.0</ele><time>2026-04-11T13:07:12Z</time></trkpt><trkpt lat="44.43764018016071" lon="9.909603644689899"><ele>710.6666666666667</ele><time>2026-04-11T13:07:13Z</time></trkpt><trkpt lat="44.43746062807874" lon="9.909651456210305"><ele>709.3333333333334</ele><time>2026-04-11T13:07:14Z</time></trkpt><trkpt lat="44.43729700590164" lon="9.90978265771442"><ele>708.0</ele><time>2026-04-11T13:07:15Z</time></trkpt><trkpt lat="44.43715205019752" lon="9.909996038493698"><ele>709.0</ele><time>2026-04-11T13:07:16Z</time></trkpt><trkpt lat="44.43702278955785" lon="9.910206441590626"><ele>710.0</ele><time>2026-04-11T13:07:17Z</time></trkpt><trkpt lat="44.43688437087532" lon="9.91036161537821"><ele>711.0</ele><time>2026-04-11T13:07:18Z</time></trkpt><trkpt lat="44.436701564256765" lon="9.910419083612677"><ele>711.0</ele><time>2026-04-11T13:07:19Z</time></trkpt><trkpt lat="44.43651341718286" lon="9.9103940186883"><ele>711.0</ele><time>2026-04-11T13:07:20Z</time></trkpt><trkpt lat="44.43631794317581" lon="9.910300192560161"><ele>711.0</ele><time>2026-04-11T13:07:21Z</time></trkpt><trkpt lat="44.436105399375165" lon="9.910184840370565"><ele>707.0</ele><time>2026-04-11T13:07:22Z</time></trkpt><trkpt lat="44.43590465578869" lon="9.91004127648944"><ele>703.0</ele><time>2026-04-11T13:07:23Z</time></trkpt><trkpt lat="44.43570127869695" lon="9.90991749910305"><ele>699.0</ele><time>2026-04-11T13:07:24Z</time></trkpt><trkpt lat="44.435499133228234" lon="9.909808783358441"><ele>699.3333333333334</ele><time>2026-04-11T13:07:25Z</time></trkpt><trkpt lat="44.43531945036708" lon="9.909701776572069"><ele>699.6666666666667</ele><time>2026-04-11T13:07:26Z</time></trkpt><trkpt lat="44.43517140157535" lon="9.909544285802104"><ele>700.0</ele><time>2026-04-11T13:07:27Z</time></trkpt><trkpt lat="44.43506762410686" lon="9.909345584119123"><ele>697.75</ele><time>2026-04-11T13:07:28Z</time></trkpt><trkpt lat="44.43499882422768" lon="9.90913618831264"><ele>695.5</ele><time>2026-04-11T13:07:29Z</time></trkpt><trkpt lat="44.43489926299226" lon="9.909006778665532"><ele>693.25</ele><time>2026-04-11T13:07:30Z</time></trkpt><trkpt lat="44.4347576574483" lon="9.908943952794182"><ele>691.0</ele><time>2026-04-11T13:07:31Z</time></trkpt><trkpt lat="44.43456888085632" lon="9.908949459190739"><ele>691.0</ele><time>2026-04-11T13:07:32Z</time></trkpt><trkpt lat="44.434364360110656" lon="9.908941216367786"><ele>691.0</ele><time>2026-04-11T13:07:33Z</time></trkpt><trkpt lat="44.434200724629115" lon="9.90887040490055"><ele>691.0</ele><time>2026-04-11T13:07:34Z</time></trkpt><trkpt lat="44.43405517370112" lon="9.908666968467882"><ele>691.0</ele><time>2026-04-11T13:07:35Z</time></trkpt><trkpt lat="44.433931533383664" lon="9.908421452678054"><ele>691.0</ele><time>2026-04-11T13:07:36Z</time></trkpt><trkpt lat="44.433802275621275" lon="9.908191279657624"><ele>691.0</ele><time>2026-04-11T13:07:37Z</time></trkpt><trkpt lat="44.43370603642283" lon="9.9079759000497"><ele>689.25</ele><time>2026-04-11T13:07:38Z</time></trkpt><trkpt lat="44.43360870947428" lon="9.907812947341988"><ele>687.5</ele><time>2026-04-11T13:07:39Z</time></trkpt><trkpt lat="44.433510502692265" lon="9.907734073304262"><ele>685.75</ele><time>2026-04-11T13:07:40Z</time></trkpt><trkpt lat="44.43339090322052" lon="9.90775238943043"><ele>684.0</ele><time>2026-04-11T13:07:41Z</time></trkpt><trkpt lat="44.43328234975873" lon="9.907870104336341"><ele>684.0</ele><time>2026-04-11T13:07:42Z</time></trkpt><trkpt lat="44.43319668812678" lon="9.908072858703045"><ele>684.0</ele><time>2026-04-11T13:07:43Z</time></trkpt><trkpt lat="44.433099467242705" lon="9.908268849178487"><ele>684.0</ele><time>2026-04-11T13:07:44Z</time></trkpt><trkpt lat="44.43295936003492" lon="9.908381562710876"><ele>683.0</ele><time>2026-04-11T13:07:45Z</time></trkpt><trkpt lat="44.43282011122981" lon="9.908378415728471"><ele>682.0</ele><time>2026-04-11T13:07:46Z</time></trkpt><trkpt lat="44.43268320549926" lon="9.908266627977397"><ele>681.0</ele><time>2026-04-11T13:07:47Z</time></trkpt><trkpt lat="44.43248309505154" lon="9.90816519411828"><ele>681.0</ele><time>2026-04-11T13:07:48Z</time></trkpt><trkpt lat="44.43231161483075" lon="9.908052040798843"><ele>681.0</ele><time>2026-04-11T13:07:49Z</time></trkpt><trkpt lat="44.432132874115894" lon="9.907973632659225"><ele>681.0</ele><time>2026-04-11T13:07:50Z</time></trkpt><trkpt lat="44.43191747550268" lon="9.907965527566006"><ele>676.0</ele><time>2026-04-11T13:07:51Z</time></trkpt><trkpt lat="44.43167969819135" lon="9.907983737983475"><ele>671.0</ele><time>2026-04-11T13:07:52Z</time></trkpt><trkpt lat="44.43145769117231" lon="9.907984804127457"><ele>672.3333333333333</ele><time>2026-04-11T13:07:53Z</time></trkpt><trkpt lat="44.431255740030046" lon="9.907976568295124"><ele>673.6666666666666</ele><time>2026-04-11T13:07:54Z</time></trkpt><trkpt lat="44.43106608980173" lon="9.907980727697279"><ele>675.0</ele><time>2026-04-11T13:07:55Z</time></trkpt><trkpt lat="44.430878816242085" lon="9.908028239984448"><ele>675.0</ele><time>2026-04-11T13:07:56Z</time></trkpt><trkpt lat="44.43069102352648" lon="9.908159264974751"><ele>675.0</ele><time>2026-04-11T13:07:57Z</time></trkpt><trkpt lat="44.43050641080111" lon="9.908345741037524"><ele>675.0</ele><time>2026-04-11T13:07:58Z</time></trkpt><trkpt lat="44.43032301529166" lon="9.90852088746004"><ele>670.6666666666666</ele><time>2026-04-11T13:07:58.999Z</time></trkpt><trkpt lat="44.43016113680005" lon="9.908666076709167"><ele>666.3333333333333</ele><time>2026-04-11T13:07:59.999Z</time></trkpt><trkpt lat="44.43001132777454" lon="9.90869302710875"><ele>662.0</ele><time>2026-04-11T13:08:00.999Z</time></trkpt><trkpt lat="44.429867035368154" lon="9.908676503571018"><ele>662.0</ele><time>2026-04-11T13:08:01.999Z</time></trkpt><trkpt lat="44.429747085956954" lon="9.908616985102585"><ele>662.0</ele><time>2026-04-11T13:08:02.999Z</time></trkpt><trkpt lat="44.42966734552397" lon="9.90847940360537"><ele>662.0</ele><time>2026-04-11T13:08:03.999Z</time></trkpt><trkpt lat="44.429541255656886" lon="9.908352699407592"><ele>662.0</ele><time>2026-04-11T13:08:04.999Z</time></trkpt><trkpt lat="44.42941391496004" lon="9.908300234106308"><ele>660.6666666666666</ele><time>2026-04-11T13:08:05.999Z</time></trkpt><trkpt lat="44.4292619535628" lon="9.908309550745043"><ele>659.3333333333334</ele><time>2026-04-11T13:08:06.999Z</time></trkpt><trkpt lat="44.42907379072511" lon="9.90838034064394"><ele>658.0</ele><time>2026-04-11T13:08:07.999Z</time></trkpt><trkpt lat="44.428857695095914" lon="9.908470417827798"><ele>657.6666666666667</ele><time>2026-04-11T13:08:08.999Z</time></trkpt><trkpt lat="44.428685414097814" lon="9.908461509543864"><ele>657.3333333333334</ele><time>2026-04-11T13:08:09.999Z</time></trkpt><trkpt lat="44.42853623797322" lon="9.90839581421945"><ele>657.0</ele><time>2026-04-11T13:08:10.999Z</time></trkpt><trkpt lat="44.428394380012605" lon="9.908306696659542"><ele>656.5</ele><time>2026-04-11T13:08:11.999Z</time></trkpt><trkpt lat="44.428085209121335" lon="9.90816966013462"><ele>656.0</ele><time>2026-04-11T13:08:12.999Z</time></trkpt><trkpt lat="44.42787844847629" lon="9.908042845991359"><ele>656.0</ele><time>2026-04-11T13:08:13.999Z</time></trkpt><trkpt lat="44.42765110763367" lon="9.907984733717454"><ele>656.0</ele><time>2026-04-11T13:08:14.999Z</time></trkpt><trkpt lat="44.427424450975536" lon="9.907911741157157"><ele>656.0</ele><time>2026-04-11T13:08:15.999Z</time></trkpt><trkpt lat="44.42720463791885" lon="9.907788927337236"><ele>656.0</ele><time>2026-04-11T13:08:16.999Z</time></trkpt><trkpt lat="44.42698669961085" lon="9.907679227684342"><ele>657.3333333333333</ele><time>2026-04-11T13:08:17.999Z</time></trkpt><trkpt lat="44.42678353941227" lon="9.907590291816708"><ele>658.6666666666666</ele><time>2026-04-11T13:08:18.999Z</time></trkpt><trkpt lat="44.42659738337874" lon="9.907544814890707"><ele>660.0</ele><time>2026-04-11T13:08:19.999Z</time></trkpt><trkpt lat="44.426418075001145" lon="9.907611739152276"><ele>653.75</ele><time>2026-04-11T13:08:20.999Z</time></trkpt><trkpt lat="44.42625406957831" lon="9.90773964869552"><ele>647.5</ele><time>2026-04-11T13:08:21.999Z</time></trkpt><trkpt lat="44.426138497108674" lon="9.907805796385478"><ele>641.25</ele><time>2026-04-11T13:08:22.999Z</time></trkpt><trkpt lat="44.426031213958474" lon="9.907748182409746"><ele>635.0</ele><time>2026-04-11T13:08:23.999Z</time></trkpt><trkpt lat="44.425966211559995" lon="9.90759206854461"><ele>639.3333333333333</ele><time>2026-04-11T13:08:24.999Z</time></trkpt><trkpt lat="44.42588722445959" lon="9.907380449337962"><ele>643.6666666666666</ele><time>2026-04-11T13:08:25.999Z</time></trkpt><trkpt lat="44.42580437058268" lon="9.907125281933943"><ele>648.0</ele><time>2026-04-11T13:08:26.999Z</time></trkpt><trkpt lat="44.42570194889953" lon="9.906881982710518"><ele>652.0</ele><time>2026-04-11T13:08:27.999Z</time></trkpt><trkpt lat="44.42557824923101" lon="9.906650065789226"><ele>656.0</ele><time>2026-04-11T13:08:28.999Z</time></trkpt><trkpt lat="44.42543300307703" lon="9.90644506279962"><ele>660.0</ele><time>2026-04-11T13:08:29.999Z</time></trkpt><trkpt lat="44.425304548426055" lon="9.906246409640977"><ele>657.3333333333334</ele><time>2026-04-11T13:08:30.999Z</time></trkpt><trkpt lat="44.425163866173236" lon="9.906081318153621"><ele>654.6666666666667</ele><time>2026-04-11T13:08:31.999Z</time></trkpt><trkpt lat="44.42498462673081" lon="9.905962056101941"><ele>652.0</ele><time>2026-04-11T13:08:32.999Z</time></trkpt><trkpt lat="44.42479312106789" lon="9.905864554072343"><ele>643.6666666666667</ele><time>2026-04-11T13:08:33.999Z</time></trkpt><trkpt lat="44.42464160506344" lon="9.90571811375735"><ele>635.3333333333334</ele><time>2026-04-11T13:08:34.999Z</time></trkpt><trkpt lat="44.424511207993426" lon="9.905521412498462"><ele>627.0</ele><time>2026-04-11T13:08:35.999Z</time></trkpt><trkpt lat="44.42438849537153" lon="9.905283021032286"><ele>631.3333333333334</ele><time>2026-04-11T13:08:36.999Z</time></trkpt><trkpt lat="44.42428034892867" lon="9.905017692569734"><ele>635.6666666666667</ele><time>2026-04-11T13:08:37.999Z</time></trkpt><trkpt lat="44.4242345863858" lon="9.904760018940387"><ele>640.0</ele><time>2026-04-11T13:08:38.999Z</time></trkpt><trkpt lat="44.42419010455425" lon="9.904524450201237"><ele>640.0</ele><time>2026-04-11T13:08:39.999Z</time></trkpt><trkpt lat="44.42412725544368" lon="9.904382532832232"><ele>640.0</ele><time>2026-04-11T13:08:40.999Z</time></trkpt><trkpt lat="44.42402213645194" lon="9.904249040944114"><ele>640.0</ele><time>2026-04-11T13:08:41.999Z</time></trkpt><trkpt lat="44.42384176188661" lon="9.90415634785869"><ele>638.3333333333334</ele><time>2026-04-11T13:08:42.999Z</time></trkpt><trkpt lat="44.423638543228705" lon="9.904055454778563"><ele>636.6666666666666</ele><time>2026-04-11T13:08:43.999Z</time></trkpt><trkpt lat="44.42342408344636" lon="9.903971420339014"><ele>635.0</ele><time>2026-04-11T13:08:44.999Z</time></trkpt><trkpt lat="44.42321831978314" lon="9.903946927877174"><ele>635.0</ele><time>2026-04-11T13:08:45.999Z</time></trkpt><trkpt lat="44.423023108837285" lon="9.903950323786567"><ele>635.0</ele><time>2026-04-11T13:08:46.999Z</time></trkpt><trkpt lat="44.4228390107473" lon="9.903982374770631"><ele>635.0</ele><time>2026-04-11T13:08:48Z</time></trkpt><trkpt lat="44.422672738864534" lon="9.904066067538599"><ele>633.6666666666666</ele><time>2026-04-11T13:08:49Z</time></trkpt><trkpt lat="44.42251543510436" lon="9.90424185827851"><ele>632.3333333333334</ele><time>2026-04-11T13:08:50Z</time></trkpt><trkpt lat="44.42237052137556" lon="9.904472972732458"><ele>631.0</ele><time>2026-04-11T13:08:51Z</time></trkpt><trkpt lat="44.42220471837845" lon="9.90465515612725"><ele>629.3333333333334</ele><time>2026-04-11T13:08:52Z</time></trkpt><trkpt lat="44.422003362535186" lon="9.904707089290685"><ele>627.6666666666666</ele><time>2026-04-11T13:08:53Z</time></trkpt><trkpt lat="44.421769703229" lon="9.90473576684935"><ele>626.0</ele><time>2026-04-11T13:08:54Z</time></trkpt><trkpt lat="44.42152490372461" lon="9.904769682908492"><ele>620.5</ele><time>2026-04-11T13:08:55Z</time></trkpt><trkpt lat="44.42128008072664" lon="9.904814690919963"><ele>615.0</ele><time>2026-04-11T13:08:56Z</time></trkpt><trkpt lat="44.42105389489687" lon="9.904885614312743"><ele>615.0</ele><time>2026-04-11T13:08:57Z</time></trkpt><trkpt lat="44.42086130501422" lon="9.904910071648798"><ele>615.0</ele><time>2026-04-11T13:08:58Z</time></trkpt><trkpt lat="44.42068575524286" lon="9.904879936137027"><ele>615.0</ele><time>2026-04-11T13:08:59Z</time></trkpt><trkpt lat="44.42052837892742" lon="9.904766229828818"><ele>614.3333333333334</ele><time>2026-04-11T13:09:00Z</time></trkpt><trkpt lat="44.42036008916809" lon="9.904593565476342"><ele>613.6666666666667</ele><time>2026-04-11T13:09:01Z</time></trkpt><trkpt lat="44.42021743109544" lon="9.904361590829316"><ele>613.0</ele><time>2026-04-11T13:09:02Z</time></trkpt><trkpt lat="44.42009706156822" lon="9.904110879455686"><ele>613.0</ele><time>2026-04-11T13:09:03Z</time></trkpt><trkpt lat="44.4199817070549" lon="9.903910134220133"><ele>613.0</ele><time>2026-04-11T13:09:04Z</time></trkpt><trkpt lat="44.41980039025137" lon="9.903764252860647"><ele>613.0</ele><time>2026-04-11T13:09:05Z</time></trkpt><trkpt lat="44.419600411941815" lon="9.903629651385222"><ele>609.3333333333334</ele><time>2026-04-11T13:09:06Z</time></trkpt><trkpt lat="44.41941089483691" lon="9.903466140722278"><ele>605.6666666666666</ele><time>2026-04-11T13:09:07Z</time></trkpt><trkpt lat="44.41925021663624" lon="9.90330085665892"><ele>602.0</ele><time>2026-04-11T13:09:08Z</time></trkpt><trkpt lat="44.41910335371778" lon="9.903157862148761"><ele>602.0</ele><time>2026-04-11T13:09:09Z</time></trkpt><trkpt lat="44.418948985741565" lon="9.903077374910103"><ele>602.0</ele><time>2026-04-11T13:09:10Z</time></trkpt><trkpt lat="44.418774867444405" lon="9.903114778702138"><ele>602.0</ele><time>2026-04-11T13:09:11Z</time></trkpt><trkpt lat="44.41858510904007" lon="9.90320804920604"><ele>600.6666666666666</ele><time>2026-04-11T13:09:12Z</time></trkpt><trkpt lat="44.41839745525797" lon="9.903292255300189"><ele>599.3333333333334</ele><time>2026-04-11T13:09:13Z</time></trkpt><trkpt lat="44.41822833607541" lon="9.903306813761736"><ele>598.0</ele><time>2026-04-11T13:09:14Z</time></trkpt><trkpt lat="44.418048825077456" lon="9.903261120468622"><ele>596.6666666666667</ele><time>2026-04-11T13:09:15Z</time></trkpt><trkpt lat="44.41784992524125" lon="9.903178607642339"><ele>595.3333333333334</ele><time>2026-04-11T13:09:16Z</time></trkpt><trkpt lat="44.417653762520864" lon="9.903101277293601"><ele>594.0</ele><time>2026-04-11T13:09:17Z</time></trkpt><trkpt lat="44.41748559483948" lon="9.902989425801502"><ele>594.0</ele><time>2026-04-11T13:09:18Z</time></trkpt><trkpt lat="44.417396046039116" lon="9.902790252743126"><ele>594.0</ele><time>2026-04-11T13:09:19Z</time></trkpt><trkpt lat="44.41727609928442" lon="9.902586003975365"><ele>594.0</ele><time>2026-04-11T13:09:20Z</time></trkpt><trkpt lat="44.417171367838705" lon="9.902398987347071"><ele>597.3333333333334</ele><time>2026-04-11T13:09:21Z</time></trkpt><trkpt lat="44.41701426155606" lon="9.902318589992161"><ele>600.6666666666667</ele><time>2026-04-11T13:09:22Z</time></trkpt><trkpt lat="44.41679857997721" lon="9.902305617613868"><ele>604.0</ele><time>2026-04-11T13:09:23Z</time></trkpt><trkpt lat="44.41657038367989" lon="9.902294575840157"><ele>604.0</ele><time>2026-04-11T13:09:24Z</time></trkpt><trkpt lat="44.41635473313392" lon="9.902262835207539"><ele>604.0</ele><time>2026-04-11T13:09:25Z</time></trkpt><trkpt lat="44.41614799231048" lon="9.902223958998194"><ele>604.0</ele><time>2026-04-11T13:09:26Z</time></trkpt><trkpt lat="44.41597213810557" lon="9.902171400658741"><ele>602.75</ele><time>2026-04-11T13:09:27Z</time></trkpt><trkpt lat="44.415817350129885" lon="9.902133064604422"><ele>601.5</ele><time>2026-04-11T13:09:28Z</time></trkpt><trkpt lat="44.41567665912172" lon="9.902090011074588"><ele>600.25</ele><time>2026-04-11T13:09:29Z</time></trkpt><trkpt lat="44.415604500587825" lon="9.901917395745732"><ele>599.0</ele><time>2026-04-11T13:09:30Z</time></trkpt><trkpt lat="44.41551583586376" lon="9.901699592701894"><ele>594.6666666666666</ele><time>2026-04-11T13:09:31Z</time></trkpt><trkpt lat="44.41543426994505" lon="9.901435930196168"><ele>590.3333333333334</ele><time>2026-04-11T13:09:32Z</time></trkpt><trkpt lat="44.415369900525256" lon="9.901158340593568"><ele>586.0</ele><time>2026-04-11T13:09:33Z</time></trkpt><trkpt lat="44.41526741264505" lon="9.900928162111578"><ele>593.0</ele><time>2026-04-11T13:09:34Z</time></trkpt><trkpt lat="44.41510099829694" lon="9.9007164310816"><ele>600.0</ele><time>2026-04-11T13:09:35Z</time></trkpt><trkpt lat="44.414953753223976" lon="9.90048004629729"><ele>607.0</ele><time>2026-04-11T13:09:36Z</time></trkpt><trkpt lat="44.41484409388854" lon="9.900208710827973"><ele>600.3333333333334</ele><time>2026-04-11T13:09:37Z</time></trkpt><trkpt lat="44.41474388255953" lon="9.8999542927512"><ele>593.6666666666666</ele><time>2026-04-11T13:09:38Z</time></trkpt><trkpt lat="44.41462026560783" lon="9.8997656010016"><ele>587.0</ele><time>2026-04-11T13:09:39Z</time></trkpt><trkpt lat="44.41452974125487" lon="9.899586083650906"><ele>587.0</ele><time>2026-04-11T13:09:40Z</time></trkpt><trkpt lat="44.41450080767622" lon="9.899336714607927"><ele>587.0</ele><time>2026-04-11T13:09:41Z</time></trkpt><trkpt lat="44.414476683074106" lon="9.899039282153925"><ele>587.0</ele><time>2026-04-11T13:09:42Z</time></trkpt><trkpt lat="44.41444141149416" lon="9.898735908661337"><ele>590.0</ele><time>2026-04-11T13:09:43Z</time></trkpt><trkpt lat="44.41439876777778" lon="9.898422847573958"><ele>593.0</ele><time>2026-04-11T13:09:44Z</time></trkpt><trkpt lat="44.41436295195054" lon="9.898129620766182"><ele>596.0</ele><time>2026-04-11T13:09:45Z</time></trkpt><trkpt lat="44.414319372984664" lon="9.897867390488482"><ele>599.6666666666666</ele><time>2026-04-11T13:09:46Z</time></trkpt><trkpt lat="44.4142294787731" lon="9.897620629105985"><ele>603.3333333333334</ele><time>2026-04-11T13:09:47Z</time></trkpt><trkpt lat="44.41408679984919" lon="9.89740681074977"><ele>607.0</ele><time>2026-04-11T13:09:48Z</time></trkpt><trkpt lat="44.413889958940274" lon="9.897270077900565"><ele>602.3333333333334</ele><time>2026-04-11T13:09:49Z</time></trkpt><trkpt lat="44.413683719042595" lon="9.897203786979476"><ele>597.6666666666666</ele><time>2026-04-11T13:09:50Z</time></trkpt><trkpt lat="44.41352229812583" lon="9.897120402654467"><ele>593.0</ele><time>2026-04-11T13:09:51Z</time></trkpt><trkpt lat="44.413405984326474" lon="9.896979838200222"><ele>599.3333333333333</ele><time>2026-04-11T13:09:52Z</time></trkpt><trkpt lat="44.41334327494038" lon="9.896752775089647"><ele>605.6666666666666</ele><time>2026-04-11T13:09:53Z</time></trkpt><trkpt lat="44.413284463117456" lon="9.89647181783813"><ele>612.0</ele><time>2026-04-11T13:09:54Z</time></trkpt><trkpt lat="44.41323314457005" lon="9.896162763551406"><ele>614.5</ele><time>2026-04-11T13:09:55Z</time></trkpt><trkpt lat="44.41319962299187" lon="9.895816848767948"><ele>617.0</ele><time>2026-04-11T13:09:56Z</time></trkpt><trkpt lat="44.413166772873396" lon="9.895467787225932"><ele>617.0</ele><time>2026-04-11T13:09:57Z</time></trkpt><trkpt lat="44.413128499881765" lon="9.895132250748864"><ele>617.0</ele><time>2026-04-11T13:09:58Z</time></trkpt><trkpt lat="44.41308006234256" lon="9.894835297056254"><ele>615.6666666666666</ele><time>2026-04-11T13:09:59Z</time></trkpt><trkpt lat="44.4130368932107" lon="9.894576859737613"><ele>614.3333333333334</ele><time>2026-04-11T13:10:00Z</time></trkpt><trkpt lat="44.41296863773044" lon="9.894360259595818"><ele>613.0</ele><time>2026-04-11T13:10:00.999Z</time></trkpt><trkpt lat="44.412847871841215" lon="9.894172884880055"><ele>613.0</ele><time>2026-04-11T13:10:01.999Z</time></trkpt><trkpt lat="44.41266176112781" lon="9.894020898425536"><ele>613.0</ele><time>2026-04-11T13:10:02.999Z</time></trkpt><trkpt lat="44.41248104471004" lon="9.893835153311406"><ele>613.0</ele><time>2026-04-11T13:10:03.999Z</time></trkpt><trkpt lat="44.4123457111713" lon="9.8935900556545"><ele>611.6666666666667</ele><time>2026-04-11T13:10:04.999Z</time></trkpt><trkpt lat="44.41221312797046" lon="9.893354829015646"><ele>610.3333333333334</ele><time>2026-04-11T13:10:05.999Z</time></trkpt><trkpt lat="44.412107273157396" lon="9.893108168294896"><ele>609.0</ele><time>2026-04-11T13:10:06.999Z</time></trkpt><trkpt lat="44.41201887012109" lon="9.89287108440037"><ele>609.0</ele><time>2026-04-11T13:10:07.999Z</time></trkpt><trkpt lat="44.41190146938829" lon="9.892667698427639"><ele>609.0</ele><time>2026-04-11T13:10:08.999Z</time></trkpt><trkpt lat="44.41174971662543" lon="9.892475965309709"><ele>609.0</ele><time>2026-04-11T13:10:09.999Z</time></trkpt><trkpt lat="44.41159668509924" lon="9.892297257690679"><ele>604.0</ele><time>2026-04-11T13:10:10.999Z</time></trkpt><trkpt lat="44.41141381819257" lon="9.892142616476058"><ele>599.0</ele><time>2026-04-11T13:10:11.999Z</time></trkpt><trkpt lat="44.41119537513323" lon="9.892040461744832"><ele>594.0</ele><time>2026-04-11T13:10:12.999Z</time></trkpt><trkpt lat="44.410974949259206" lon="9.8919348307247"><ele>592.5</ele><time>2026-04-11T13:10:13.999Z</time></trkpt><trkpt lat="44.41074619868736" lon="9.891805056231293"><ele>591.0</ele><time>2026-04-11T13:10:14.999Z</time></trkpt><trkpt lat="44.410487360855015" lon="9.891653706229967"><ele>583.0</ele><time>2026-04-11T13:10:15.999Z</time></trkpt><trkpt lat="44.41018729533283" lon="9.891473908762316"><ele>575.0</ele><time>2026-04-11T13:10:16.999Z</time></trkpt><trkpt lat="44.409919002681704" lon="9.89132068958528"><ele>575.0</ele><time>2026-04-11T13:10:17.999Z</time></trkpt><trkpt lat="44.40965945273108" lon="9.891157771742574"><ele>575.0</ele><time>2026-04-11T13:10:19.999Z</time></trkpt><trkpt lat="44.40946473730714" lon="9.891046781837401"><ele>570.6666666666666</ele><time>2026-04-11T13:10:20.999Z</time></trkpt><trkpt lat="44.40930269065554" lon="9.890906516675573"><ele>566.3333333333334</ele><time>2026-04-11T13:10:21.999Z</time></trkpt><trkpt lat="44.40920296171072" lon="9.89072647165992"><ele>562.0</ele><time>2026-04-11T13:10:22.999Z</time></trkpt><trkpt lat="44.40906920408089" lon="9.890484521228617"><ele>562.0</ele><time>2026-04-11T13:10:23.999Z</time></trkpt><trkpt lat="44.40895241070318" lon="9.89024608444525"><ele>562.0</ele><time>2026-04-11T13:10:24.999Z</time></trkpt><trkpt lat="44.408905058679615" lon="9.890045719402602"><ele>562.0</ele><time>2026-04-11T13:10:25.999Z</time></trkpt><trkpt lat="44.40891154866223" lon="9.889824675453537"><ele>563.3333333333334</ele><time>2026-04-11T13:10:26.999Z</time></trkpt><trkpt lat="44.40894233934302" lon="9.889577147099336"><ele>564.6666666666666</ele><time>2026-04-11T13:10:27.999Z</time></trkpt><trkpt lat="44.409032915270366" lon="9.889423475821241"><ele>566.0</ele><time>2026-04-11T13:10:28.999Z</time></trkpt><trkpt lat="44.40915498120367" lon="9.889193877973044"><ele>566.0</ele><time>2026-04-11T13:10:29.999Z</time></trkpt><trkpt lat="44.40929442571713" lon="9.888934745267163"><ele>566.0</ele><time>2026-04-11T13:10:30.999Z</time></trkpt><trkpt lat="44.40941071118231" lon="9.888706748408099"><ele>566.0</ele><time>2026-04-11T13:10:31.999Z</time></trkpt><trkpt lat="44.40948410168195" lon="9.888517790559623"><ele>564.4</ele><time>2026-04-11T13:10:32.999Z</time></trkpt><trkpt lat="44.40951015226521" lon="9.888364682184172"><ele>562.8</ele><time>2026-04-11T13:10:33.999Z</time></trkpt><trkpt lat="44.40948935340472" lon="9.888217478000039"><ele>561.1999999999999</ele><time>2026-04-11T13:10:34.999Z</time></trkpt><trkpt lat="44.409503922534" lon="9.888114026033362"><ele>559.6</ele><time>2026-04-11T13:10:35.999Z</time></trkpt><trkpt lat="44.40950596662708" lon="9.88796012150388"><ele>558.0</ele><time>2026-04-11T13:10:36.999Z</time></trkpt><trkpt lat="44.40907200423523" lon="9.887708498610658"><ele>561.6666666666666</ele><time>2026-04-11T13:10:37.999Z</time></trkpt><trkpt lat="44.408913389205566" lon="9.88753171909837"><ele>565.3333333333333</ele><time>2026-04-11T13:10:38.999Z</time></trkpt><trkpt lat="44.40872326999677" lon="9.887392819517567"><ele>569.0</ele><time>2026-04-11T13:10:39.999Z</time></trkpt><trkpt lat="44.40853491500748" lon="9.887249748340587"><ele>554.5</ele><time>2026-04-11T13:10:40.999Z</time></trkpt><trkpt lat="44.408354121691566" lon="9.887073825574246"><ele>540.0</ele><time>2026-04-11T13:10:41.999Z</time></trkpt><trkpt lat="44.40817697563285" lon="9.886865225434882"><ele>536.5</ele><time>2026-04-11T13:10:42.999Z</time></trkpt><trkpt lat="44.40800860927918" lon="9.886644002823271"><ele>533.0</ele><time>2026-04-11T13:10:43.999Z</time></trkpt><trkpt lat="44.40783577308053" lon="9.886450796764056"><ele>533.0</ele><time>2026-04-11T13:10:44.999Z</time></trkpt><trkpt lat="44.40765515659321" lon="9.886294203833081"><ele>533.0</ele><time>2026-04-11T13:10:45.999Z</time></trkpt><trkpt lat="44.40746830546145" lon="9.8861465443568"><ele>533.0</ele><time>2026-04-11T13:10:46.999Z</time></trkpt><trkpt lat="44.40725783979966" lon="9.886042312363479"><ele>536.5</ele><time>2026-04-11T13:10:47.999Z</time></trkpt><trkpt lat="44.407030026904835" lon="9.885969019746671"><ele>540.0</ele><time>2026-04-11T13:10:48.999Z</time></trkpt><trkpt lat="44.40681609859658" lon="9.885904986960105"><ele>540.0</ele><time>2026-04-11T13:10:49.999Z</time></trkpt><trkpt lat="44.40662636265726" lon="9.885815321967913"><ele>540.0</ele><time>2026-04-11T13:10:50.999Z</time></trkpt><trkpt lat="44.40644929933766" lon="9.885675477813713"><ele>540.0</ele><time>2026-04-11T13:10:51.999Z</time></trkpt><trkpt lat="44.40626727431192" lon="9.885515338163225"><ele>537.6666666666666</ele><time>2026-04-11T13:10:52.999Z</time></trkpt><trkpt lat="44.406082330575046" lon="9.885348779313997"><ele>535.3333333333333</ele><time>2026-04-11T13:10:54Z</time></trkpt><trkpt lat="44.405930419552384" lon="9.885180282589557"><ele>533.0</ele><time>2026-04-11T13:10:55Z</time></trkpt><trkpt lat="44.405824420975065" lon="9.884946783515982"><ele>533.0</ele><time>2026-04-11T13:10:56Z</time></trkpt><trkpt lat="44.40568352469389" lon="9.884695073323142"><ele>533.0</ele><time>2026-04-11T13:10:57Z</time></trkpt><trkpt lat="44.40552074892049" lon="9.884463937561307"><ele>529.0</ele><time>2026-04-11T13:10:58Z</time></trkpt><trkpt lat="44.40536213746135" lon="9.884229490948474"><ele>525.0</ele><time>2026-04-11T13:10:59Z</time></trkpt><trkpt lat="44.40517989601098" lon="9.884030092677365"><ele>525.0</ele><time>2026-04-11T13:11:00Z</time></trkpt><trkpt lat="44.40498516506629" lon="9.883863727857753"><ele>525.0</ele><time>2026-04-11T13:11:01Z</time></trkpt><trkpt lat="44.4048024205352" lon="9.883714721445767"><ele>525.0</ele><time>2026-04-11T13:11:02Z</time></trkpt><trkpt lat="44.40460401587719" lon="9.883597658824273"><ele>520.3333333333334</ele><time>2026-04-11T13:11:03Z</time></trkpt><trkpt lat="44.40441151693479" lon="9.883516132726024"><ele>515.6666666666667</ele><time>2026-04-11T13:11:04Z</time></trkpt><trkpt lat="44.404230675502085" lon="9.88343634614304"><ele>511.0</ele><time>2026-04-11T13:11:05Z</time></trkpt><trkpt lat="44.40406639076855" lon="9.883337749686543"><ele>511.0</ele><time>2026-04-11T13:11:06Z</time></trkpt><trkpt lat="44.4039196980532" lon="9.883253750130633"><ele>511.0</ele><time>2026-04-11T13:11:07Z</time></trkpt><trkpt lat="44.40380139483082" lon="9.883191738421004"><ele>511.0</ele><time>2026-04-11T13:11:08Z</time></trkpt><trkpt lat="44.403714174911386" lon="9.88315838505624"><ele>511.0</ele><time>2026-04-11T13:11:09Z</time></trkpt><trkpt lat="44.40365039869462" lon="9.8831817623532"><ele>511.0</ele><time>2026-04-11T13:11:10Z</time></trkpt><trkpt lat="44.40360939407626" lon="9.883290846071041"><ele>510.5</ele><time>2026-04-11T13:11:11Z</time></trkpt><trkpt lat="44.403627513371994" lon="9.883445699947433"><ele>510.0</ele><time>2026-04-11T13:11:12Z</time></trkpt><trkpt lat="44.40371728379463" lon="9.883569487576763"><ele>509.5</ele><time>2026-04-11T13:11:13Z</time></trkpt><trkpt lat="44.40386421858252" lon="9.883652920340953"><ele>509.0</ele><time>2026-04-11T13:11:14Z</time></trkpt><trkpt lat="44.40402593356567" lon="9.8837583817665"><ele>509.0</ele><time>2026-04-11T13:11:15Z</time></trkpt><trkpt lat="44.40418594787281" lon="9.883900390612109"><ele>509.0</ele><time>2026-04-11T13:11:16Z</time></trkpt><trkpt lat="44.4043264717046" lon="9.884115946625663"><ele>509.0</ele><time>2026-04-11T13:11:17Z</time></trkpt><trkpt lat="44.40446637142283" lon="9.884320208092946"><ele>510.0</ele><time>2026-04-11T13:11:18Z</time></trkpt><trkpt lat="44.4045930884364" lon="9.884515210970891"><ele>511.0</ele><time>2026-04-11T13:11:19Z</time></trkpt><trkpt lat="44.40470839697351" lon="9.884659753176395"><ele>512.0</ele><time>2026-04-11T13:11:20Z</time></trkpt><trkpt lat="44.40480868831929" lon="9.884756909996264"><ele>511.99999999999994</ele><time>2026-04-11T13:11:21Z</time></trkpt><trkpt lat="44.40487807233077" lon="9.884862159038263"><ele>512.0</ele><time>2026-04-11T13:11:22Z</time></trkpt><trkpt lat="44.40491797361662" lon="9.884959372287817"><ele>512.0</ele><time>2026-04-11T13:11:23Z</time></trkpt><trkpt lat="44.40489179215899" lon="9.885057156959098"><ele>512.0</ele><time>2026-04-11T13:11:24Z</time></trkpt><trkpt lat="44.40482511340395" lon="9.885128796502826"><ele>511.99999999999994</ele><time>2026-04-11T13:11:25Z</time></trkpt><trkpt lat="44.40471942294224" lon="9.88513518355775"><ele>512.0</ele><time>2026-04-11T13:11:26Z</time></trkpt><trkpt lat="44.40462314860309" lon="9.884997117062463"><ele>506.3333333333333</ele><time>2026-04-11T13:11:27Z</time></trkpt><trkpt lat="44.404467610965476" lon="9.884846911103134"><ele>500.66666666666663</ele><time>2026-04-11T13:11:28Z</time></trkpt><trkpt lat="44.40429551074566" lon="9.884695834291843"><ele>495.0</ele><time>2026-04-11T13:11:29Z</time></trkpt><trkpt lat="44.404108125338404" lon="9.884559879187387"><ele>495.0</ele><time>2026-04-11T13:11:30Z</time></trkpt><trkpt lat="44.40393624980365" lon="9.884404423291848"><ele>495.0</ele><time>2026-04-11T13:11:31Z</time></trkpt><trkpt lat="44.403781694590066" lon="9.884210407337205"><ele>495.0</ele><time>2026-04-11T13:11:32Z</time></trkpt><trkpt lat="44.403641466173454" lon="9.88404194117373"><ele>495.0</ele><time>2026-04-11T13:11:33Z</time></trkpt><trkpt lat="44.40345588830611" lon="9.883948654511185"><ele>495.0</ele><time>2026-04-11T13:11:34Z</time></trkpt><trkpt lat="44.403233920484745" lon="9.883917617565439"><ele>495.0</ele><time>2026-04-11T13:11:35Z</time></trkpt><trkpt lat="44.403032904723936" lon="9.883834910453775"><ele>490.66666666666663</ele><time>2026-04-11T13:11:36Z</time></trkpt><trkpt lat="44.40283057850944" lon="9.883765708920485"><ele>486.3333333333333</ele><time>2026-04-11T13:11:37Z</time></trkpt><trkpt lat="44.40263650260059" lon="9.883733714734282"><ele>482.0</ele><time>2026-04-11T13:11:38Z</time></trkpt><trkpt lat="44.40242546933514" lon="9.883778471256626"><ele>482.0</ele><time>2026-04-11T13:11:39Z</time></trkpt><trkpt lat="44.40223415530201" lon="9.883765586221848"><ele>482.0</ele><time>2026-04-11T13:11:40Z</time></trkpt><trkpt lat="44.40206297240787" lon="9.883661215204684"><ele>482.0</ele><time>2026-04-11T13:11:41Z</time></trkpt><trkpt lat="44.401905771488835" lon="9.883487171723932"><ele>481.3333333333333</ele><time>2026-04-11T13:11:42Z</time></trkpt><trkpt lat="44.401773656456314" lon="9.883246515691457"><ele>480.66666666666663</ele><time>2026-04-11T13:11:43Z</time></trkpt><trkpt lat="44.40166212058833" lon="9.883030641469272"><ele>480.0</ele><time>2026-04-11T13:11:44Z</time></trkpt><trkpt lat="44.401606434932944" lon="9.882853538422511"><ele>480.0</ele><time>2026-04-11T13:11:45Z</time></trkpt><trkpt lat="44.4015617178028" lon="9.882726720089678"><ele>480.0</ele><time>2026-04-11T13:11:46Z</time></trkpt><trkpt lat="44.40152600361985" lon="9.882638259987717"><ele>480.0</ele><time>2026-04-11T13:11:47Z</time></trkpt><trkpt lat="44.40145411269225" lon="9.882602409420816"><ele>480.0</ele><time>2026-04-11T13:11:48Z</time></trkpt><trkpt lat="44.40135743744371" lon="9.882651051749486"><ele>480.0</ele><time>2026-04-11T13:11:49Z</time></trkpt><trkpt lat="44.401287318456866" lon="9.882777006282726"><ele>480.0</ele><time>2026-04-11T13:11:50Z</time></trkpt><trkpt lat="44.40130645211507" lon="9.882960183736914"><ele>480.0</ele><time>2026-04-11T13:11:51Z</time></trkpt><trkpt lat="44.40140775916001" lon="9.883112687771602"><ele>480.0</ele><time>2026-04-11T13:11:52Z</time></trkpt><trkpt lat="44.40150664621715" lon="9.883284044458465"><ele>480.0</ele><time>2026-04-11T13:11:53Z</time></trkpt><trkpt lat="44.401610189209414" lon="9.883498734249377"><ele>476.0</ele><time>2026-04-11T13:11:54Z</time></trkpt><trkpt lat="44.4016971074234" lon="9.883750135090885"><ele>472.0</ele><time>2026-04-11T13:11:55Z</time></trkpt><trkpt lat="44.40178368752789" lon="9.883981921579636"><ele>468.0</ele><time>2026-04-11T13:11:56Z</time></trkpt><trkpt lat="44.401884870997435" lon="9.884201727888186"><ele>466.33333333333337</ele><time>2026-04-11T13:11:57Z</time></trkpt><trkpt lat="44.4020089717848" lon="9.884376756173006"><ele>464.6666666666667</ele><time>2026-04-11T13:11:58Z</time></trkpt><trkpt lat="44.402183901548746" lon="9.884509199278892"><ele>463.0</ele><time>2026-04-11T13:11:59Z</time></trkpt><trkpt lat="44.40238124586949" lon="9.884601686419593"><ele>463.0</ele><time>2026-04-11T13:12:00Z</time></trkpt><trkpt lat="44.40257416395062" lon="9.88468652169281"><ele>463.0</ele><time>2026-04-11T13:12:01Z</time></trkpt><trkpt lat="44.40276053677078" lon="9.884782844032156"><ele>463.0</ele><time>2026-04-11T13:12:02Z</time></trkpt><trkpt lat="44.402923766033716" lon="9.884938440940575"><ele>462.33333333333337</ele><time>2026-04-11T13:12:03Z</time></trkpt><trkpt lat="44.40307963175312" lon="9.885061864367168"><ele>461.66666666666663</ele><time>2026-04-11T13:12:04Z</time></trkpt><trkpt lat="44.40323032765923" lon="9.885166365061645"><ele>461.0</ele><time>2026-04-11T13:12:05Z</time></trkpt><trkpt lat="44.403336924576244" lon="9.885361865847873"><ele>461.0</ele><time>2026-04-11T13:12:06Z</time></trkpt><trkpt lat="44.40342437936519" lon="9.885629919164106"><ele>461.0</ele><time>2026-04-11T13:12:06.999Z</time></trkpt><trkpt lat="44.4035232028736" lon="9.885847544303056"><ele>461.0</ele><time>2026-04-11T13:12:07.999Z</time></trkpt><trkpt lat="44.40364193901344" lon="9.886016321125892"><ele>460.3333333333333</ele><time>2026-04-11T13:12:08.999Z</time></trkpt><trkpt lat="44.40381365250708" lon="9.886144938714628"><ele>459.66666666666663</ele><time>2026-04-11T13:12:09.999Z</time></trkpt><trkpt lat="44.40397833022264" lon="9.886256404759015"><ele>459.0</ele><time>2026-04-11T13:12:10.999Z</time></trkpt><trkpt lat="44.404111032974846" lon="9.88634131920998"><ele>459.0</ele><time>2026-04-11T13:12:11.999Z</time></trkpt><trkpt lat="44.40421002038935" lon="9.886419961200014"><ele>459.0</ele><time>2026-04-11T13:12:12.999Z</time></trkpt><trkpt lat="44.40428346222659" lon="9.886471955263845"><ele>459.0</ele><time>2026-04-11T13:12:13.999Z</time></trkpt><trkpt lat="44.404248292885626" lon="9.886628972408056"><ele>459.0</ele><time>2026-04-11T13:12:15.999Z</time></trkpt><trkpt lat="44.40415509056555" lon="9.88665240890644"><ele>459.0</ele><time>2026-04-11T13:12:16.999Z</time></trkpt><trkpt lat="44.40405010132311" lon="9.88655270190804"><ele>459.0</ele><time>2026-04-11T13:12:17.999Z</time></trkpt><trkpt lat="44.40390556162421" lon="9.886408102448089"><ele>459.0</ele><time>2026-04-11T13:12:18.999Z</time></trkpt><trkpt lat="44.40374258255388" lon="9.886273769653496"><ele>459.0</ele><time>2026-04-11T13:12:19.999Z</time></trkpt><trkpt lat="44.40356840139893" lon="9.886154546795463"><ele>459.66666666666663</ele><time>2026-04-11T13:12:20.999Z</time></trkpt><trkpt lat="44.403392419513004" lon="9.886017598386932"><ele>460.3333333333333</ele><time>2026-04-11T13:12:21.999Z</time></trkpt><trkpt lat="44.40321837154539" lon="9.885872988765438"><ele>461.0</ele><time>2026-04-11T13:12:22.999Z</time></trkpt><trkpt lat="44.40307390431085" lon="9.885656993323174"><ele>455.3333333333333</ele><time>2026-04-11T13:12:23.999Z</time></trkpt><trkpt lat="44.40292845763763" lon="9.8854687896009"><ele>449.66666666666663</ele><time>2026-04-11T13:12:24.999Z</time></trkpt><trkpt lat="44.40276336353762" lon="9.885314992091713"><ele>444.0</ele><time>2026-04-11T13:12:25.999Z</time></trkpt><trkpt lat="44.4025393951679" lon="9.88523195337366"><ele>444.0</ele><time>2026-04-11T13:12:26.999Z</time></trkpt><trkpt lat="44.40229087484406" lon="9.885186835748394"><ele>444.0</ele><time>2026-04-11T13:12:27.999Z</time></trkpt><trkpt lat="44.402028685041415" lon="9.885156406394632"><ele>446.0</ele><time>2026-04-11T13:12:28.999Z</time></trkpt><trkpt lat="44.4017728294822" lon="9.885116974141608"><ele>448.0</ele><time>2026-04-11T13:12:29.999Z</time></trkpt><trkpt lat="44.40147849257743" lon="9.885016969288381"><ele>435.5</ele><time>2026-04-11T13:12:30.999Z</time></trkpt><trkpt lat="44.40120194933313" lon="9.884886392564708"><ele>423.0</ele><time>2026-04-11T13:12:31.999Z</time></trkpt><trkpt lat="44.40099727126289" lon="9.884810465255429"><ele>423.0</ele><time>2026-04-11T13:12:33.999Z</time></trkpt><trkpt lat="44.40084285968357" lon="9.884695859641853"><ele>423.0</ele><time>2026-04-11T13:12:34.999Z</time></trkpt><trkpt lat="44.4007021898519" lon="9.884529415786481"><ele>423.0</ele><time>2026-04-11T13:12:35.999Z</time></trkpt><trkpt lat="44.400557134267785" lon="9.884371528498955"><ele>423.33333333333337</ele><time>2026-04-11T13:12:36.999Z</time></trkpt><trkpt lat="44.400390776703325" lon="9.884252445926018"><ele>423.6666666666667</ele><time>2026-04-11T13:12:37.999Z</time></trkpt><trkpt lat="44.40020350483768" lon="9.884173950882492"><ele>424.0</ele><time>2026-04-11T13:12:38.999Z</time></trkpt><trkpt lat="44.400029245173215" lon="9.88405368445167"><ele>424.0</ele><time>2026-04-11T13:12:39.999Z</time></trkpt><trkpt lat="44.39987107509588" lon="9.883877753225402"><ele>424.0</ele><time>2026-04-11T13:12:40.999Z</time></trkpt><trkpt lat="44.399688767406836" lon="9.883701937563906"><ele>424.0</ele><time>2026-04-11T13:12:41.999Z</time></trkpt><trkpt lat="44.39953558746282" lon="9.883517078869435"><ele>421.0</ele><time>2026-04-11T13:12:42.999Z</time></trkpt><trkpt lat="44.39942124812035" lon="9.883371251995786"><ele>418.0</ele><time>2026-04-11T13:12:43.999Z</time></trkpt><trkpt lat="44.39935955348325" lon="9.883237632300034"><ele>415.0</ele><time>2026-04-11T13:12:44.999Z</time></trkpt><trkpt lat="44.39937898648714" lon="9.883079514104024"><ele>412.0</ele><time>2026-04-11T13:12:45.999Z</time></trkpt><trkpt lat="44.399370282590844" lon="9.882841790277977"><ele>412.0</ele><time>2026-04-11T13:12:46.999Z</time></trkpt><trkpt lat="44.399316441138964" lon="9.882660655992682"><ele>412.0</ele><time>2026-04-11T13:12:47.999Z</time></trkpt><trkpt lat="44.39922990923885" lon="9.882512858711907"><ele>412.0</ele><time>2026-04-11T13:12:48.999Z</time></trkpt><trkpt lat="44.399057951317374" lon="9.882412722172228"><ele>415.0</ele><time>2026-04-11T13:12:49.999Z</time></trkpt><trkpt lat="44.398863294550715" lon="9.882350854364855"><ele>418.0</ele><time>2026-04-11T13:12:50.999Z</time></trkpt><trkpt lat="44.39871873868855" lon="9.882277135989328"><ele>421.0</ele><time>2026-04-11T13:12:51.999Z</time></trkpt><trkpt lat="44.3986705246814" lon="9.882085469288974"><ele>414.5</ele><time>2026-04-11T13:12:52.999Z</time></trkpt><trkpt lat="44.39858838834953" lon="9.881859813234831"><ele>408.0</ele><time>2026-04-11T13:12:53.999Z</time></trkpt><trkpt lat="44.39850805911532" lon="9.881666562531873"><ele>401.5</ele><time>2026-04-11T13:12:54.999Z</time></trkpt><trkpt lat="44.39845788344823" lon="9.881544666658378"><ele>395.0</ele><time>2026-04-11T13:12:55.999Z</time></trkpt><trkpt lat="44.39834264548539" lon="9.881578616791677"><ele>395.0</ele><time>2026-04-11T13:12:57.999Z</time></trkpt><trkpt lat="44.39830620155168" lon="9.881721016706292"><ele>395.0</ele><time>2026-04-11T13:12:58.999Z</time></trkpt><trkpt lat="44.39833860322319" lon="9.881927897120969"><ele>395.0</ele><time>2026-04-11T13:13:00Z</time></trkpt><trkpt lat="44.39842870178623" lon="9.882178737712383"><ele>393.66666666666663</ele><time>2026-04-11T13:13:01Z</time></trkpt><trkpt lat="44.398537735174564" lon="9.88241188625789"><ele>392.33333333333337</ele><time>2026-04-11T13:13:02Z</time></trkpt><trkpt lat="44.39866431081124" lon="9.882640050095661"><ele>391.0</ele><time>2026-04-11T13:13:03Z</time></trkpt><trkpt lat="44.39873273856894" lon="9.882883711830582"><ele>387.33333333333337</ele><time>2026-04-11T13:13:04Z</time></trkpt><trkpt lat="44.39873884362924" lon="9.883189668468276"><ele>383.6666666666667</ele><time>2026-04-11T13:13:05Z</time></trkpt><trkpt lat="44.398742286715105" lon="9.883421999665174"><ele>380.0</ele><time>2026-04-11T13:13:06Z</time></trkpt><trkpt lat="44.39876981883515" lon="9.883601854486194"><ele>373.5</ele><time>2026-04-11T13:13:07Z</time></trkpt><trkpt lat="44.3988184900123" lon="9.883931866029782"><ele>367.0</ele><time>2026-04-11T13:13:08Z</time></trkpt><trkpt lat="44.39896415498416" lon="9.88417960411362"><ele>370.66666666666663</ele><time>2026-04-11T13:13:09Z</time></trkpt><trkpt lat="44.3991497534442" lon="9.884377070626629"><ele>374.3333333333333</ele><time>2026-04-11T13:13:10Z</time></trkpt><trkpt lat="44.399270290022784" lon="9.884625368114664"><ele>378.0</ele><time>2026-04-11T13:13:11Z</time></trkpt><trkpt lat="44.39938933050511" lon="9.88488119356549"><ele>376.3333333333333</ele><time>2026-04-11T13:13:12Z</time></trkpt><trkpt lat="44.399503457713735" lon="9.885118569605334"><ele>374.66666666666663</ele><time>2026-04-11T13:13:13Z</time></trkpt><trkpt lat="44.39960977451319" lon="9.8853267965736"><ele>373.0</ele><time>2026-04-11T13:13:14Z</time></trkpt><trkpt lat="44.39970868013691" lon="9.885425321861316"><ele>373.0</ele><time>2026-04-11T13:13:15Z</time></trkpt><trkpt lat="44.399877606202764" lon="9.885489043101519"><ele>373.0</ele><time>2026-04-11T13:13:16Z</time></trkpt><trkpt lat="44.40008080522055" lon="9.885564024668206"><ele>373.0</ele><time>2026-04-11T13:13:17Z</time></trkpt><trkpt lat="44.40024534404715" lon="9.885741458310315"><ele>375.3333333333333</ele><time>2026-04-11T13:13:18Z</time></trkpt><trkpt lat="44.40037103251038" lon="9.885957639382017"><ele>377.6666666666667</ele><time>2026-04-11T13:13:19Z</time></trkpt><trkpt lat="44.40049807311376" lon="9.886217688323349"><ele>380.0</ele><time>2026-04-11T13:13:20Z</time></trkpt><trkpt lat="44.40054894958438" lon="9.886333250425523"><ele>380.0</ele><time>2026-04-11T13:13:21Z</time></trkpt><trkpt lat="44.40060558980732" lon="9.886524503981496"><ele>380.0</ele><time>2026-04-11T13:13:22Z</time></trkpt><trkpt lat="44.40063349204712" lon="9.886695602694632"><ele>380.0</ele><time>2026-04-11T13:13:23Z</time></trkpt><trkpt lat="44.400636685465386" lon="9.886873066506293"><ele>380.0</ele><time>2026-04-11T13:13:24Z</time></trkpt><trkpt lat="44.40064683093902" lon="9.887046282780684"><ele>376.5</ele><time>2026-04-11T13:13:25Z</time></trkpt><trkpt lat="44.40067624513931" lon="9.887201986223022"><ele>373.0</ele><time>2026-04-11T13:13:26Z</time></trkpt><trkpt lat="44.400697302196015" lon="9.887369502663049"><ele>369.5</ele><time>2026-04-11T13:13:27Z</time></trkpt><trkpt lat="44.4007845452049" lon="9.887551087126079"><ele>366.0</ele><time>2026-04-11T13:13:28Z</time></trkpt><trkpt lat="44.40094693710714" lon="9.887705484165657"><ele>366.5</ele><time>2026-04-11T13:13:29Z</time></trkpt><trkpt lat="44.4010839081791" lon="9.887843609060312"><ele>367.0</ele><time>2026-04-11T13:13:30Z</time></trkpt><trkpt lat="44.40118191312736" lon="9.88796117389596"><ele>367.5</ele><time>2026-04-11T13:13:31Z</time></trkpt><trkpt lat="44.40126972779339" lon="9.888053635628333"><ele>368.0</ele><time>2026-04-11T13:13:32Z</time></trkpt><trkpt lat="44.401335387397395" lon="9.888118709409822"><ele>368.0</ele><time>2026-04-11T13:13:33Z</time></trkpt><trkpt lat="44.401389922968995" lon="9.888220427302004"><ele>368.0</ele><time>2026-04-11T13:13:35Z</time></trkpt><trkpt lat="44.40134458366254" lon="9.888282781959285"><ele>368.0</ele><time>2026-04-11T13:13:36Z</time></trkpt><trkpt lat="44.4014471294032" lon="9.888368163874775"><ele>368.0</ele><time>2026-04-11T13:13:38Z</time></trkpt><trkpt lat="44.40153651132779" lon="9.888454959073977"><ele>368.0</ele><time>2026-04-11T13:13:40Z</time></trkpt><trkpt lat="44.401620758800014" lon="9.88853762517852"><ele>362.2</ele><time>2026-04-11T13:13:42Z</time></trkpt><trkpt lat="44.40169829794575" lon="9.888595102627052"><ele>356.4</ele><time>2026-04-11T13:13:46Z</time></trkpt><trkpt lat="44.401779234370615" lon="9.888624310832451"><ele>350.59999999999997</ele><time>2026-04-11T13:13:48Z</time></trkpt><trkpt lat="44.40169419194166" lon="9.888568119925552"><ele>344.79999999999995</ele><time>2026-04-11T13:16:44.999Z</time></trkpt><trkpt lat="44.40163247219475" lon="9.888587124830119"><ele>339.0</ele><time>2026-04-11T13:16:45.999Z</time></trkpt><trkpt lat="44.40152730399099" lon="9.888440125889055"><ele>340.6</ele><time>2026-04-11T13:16:47.999Z</time></trkpt><trkpt lat="44.40144099099133" lon="9.888349851298052"><ele>342.2</ele><time>2026-04-11T13:16:49.999Z</time></trkpt><trkpt lat="44.401387992643066" lon="9.888299908627195"><ele>343.8</ele><time>2026-04-11T13:16:50.999Z</time></trkpt><trkpt lat="44.401294009856265" lon="9.888299174653822"><ele>345.40000000000003</ele><time>2026-04-11T13:16:51.999Z</time></trkpt><trkpt lat="44.40118555656681" lon="9.888242415090728"><ele>347.0</ele><time>2026-04-11T13:16:52.999Z</time></trkpt><trkpt lat="44.40111047361494" lon="9.8881581373861"><ele>347.0</ele><time>2026-04-11T13:16:53.999Z</time></trkpt><trkpt lat="44.40100555816525" lon="9.88805822750159"><ele>347.0</ele><time>2026-04-11T13:16:54.999Z</time></trkpt><trkpt lat="44.40090893301486" lon="9.88796614075993"><ele>347.0</ele><time>2026-04-11T13:16:55.999Z</time></trkpt><trkpt lat="44.40084191436215" lon="9.887902465464663"><ele>347.0</ele><time>2026-04-11T13:16:56.999Z</time></trkpt><trkpt lat="44.40076939201654" lon="9.887834162761234"><ele>347.0</ele><time>2026-04-11T13:16:58.999Z</time></trkpt><trkpt lat="44.40046784958185" lon="9.887557786397542"><ele>343.5</ele><time>2026-04-11T13:16:59.999Z</time></trkpt><trkpt lat="44.4003763329586" lon="9.887430850857138"><ele>340.0</ele><time>2026-04-11T13:17:00.999Z</time></trkpt><trkpt lat="44.4003037059755" lon="9.887298126715228"><ele>336.5</ele><time>2026-04-11T13:17:01.999Z</time></trkpt><trkpt lat="44.4002634285301" lon="9.887147223722724"><ele>333.0</ele><time>2026-04-11T13:17:02.999Z</time></trkpt><trkpt lat="44.400227484064374" lon="9.886972226976365"><ele>333.0</ele><time>2026-04-11T13:17:03.999Z</time></trkpt><trkpt lat="44.40018296324182" lon="9.886777434449423"><ele>333.0</ele><time>2026-04-11T13:17:04.999Z</time></trkpt><trkpt lat="44.40011476771637" lon="9.88659465973777"><ele>333.0</ele><time>2026-04-11T13:17:05.999Z</time></trkpt><trkpt lat="44.40005019255869" lon="9.886417397082846"><ele>333.0</ele><time>2026-04-11T13:17:06.999Z</time></trkpt><trkpt lat="44.39997417569517" lon="9.886267824349313"><ele>336.25</ele><time>2026-04-11T13:17:07.999Z</time></trkpt><trkpt lat="44.399877417050405" lon="9.886155262021786"><ele>339.5</ele><time>2026-04-11T13:17:08.999Z</time></trkpt><trkpt lat="44.39974989506943" lon="9.886076601778628"><ele>342.75</ele><time>2026-04-11T13:17:09.999Z</time></trkpt><trkpt lat="44.39960959054558" lon="9.886046381216456"><ele>346.0</ele><time>2026-04-11T13:17:10.999Z</time></trkpt><trkpt lat="44.39945818757638" lon="9.886043686385824"><ele>345.75</ele><time>2026-04-11T13:17:12Z</time></trkpt><trkpt lat="44.399310200881594" lon="9.886026627031775"><ele>345.5</ele><time>2026-04-11T13:17:13Z</time></trkpt><trkpt lat="44.39917331341662" lon="9.885989517914956"><ele>345.25</ele><time>2026-04-11T13:17:14Z</time></trkpt><trkpt lat="44.39905838211637" lon="9.885908661977284"><ele>345.0</ele><time>2026-04-11T13:17:15Z</time></trkpt><trkpt lat="44.39899849522985" lon="9.885740455555126"><ele>345.0</ele><time>2026-04-11T13:17:16Z</time></trkpt><trkpt lat="44.39889173002899" lon="9.885638633795278"><ele>345.0</ele><time>2026-04-11T13:17:17Z</time></trkpt><trkpt lat="44.39875803903753" lon="9.885589236808556"><ele>345.0</ele><time>2026-04-11T13:17:18Z</time></trkpt><trkpt lat="44.39860603797611" lon="9.885590265651661"><ele>345.0</ele><time>2026-04-11T13:17:19Z</time></trkpt><trkpt lat="44.39845418335905" lon="9.885562846093874"><ele>340.75</ele><time>2026-04-11T13:17:20Z</time></trkpt><trkpt lat="44.3983181224314" lon="9.885495614130923"><ele>336.5</ele><time>2026-04-11T13:17:21Z</time></trkpt><trkpt lat="44.39818149458674" lon="9.885509925604243"><ele>332.25</ele><time>2026-04-11T13:17:22Z</time></trkpt><trkpt lat="44.39804563054562" lon="9.885583437020193"><ele>328.0</ele><time>2026-04-11T13:17:23Z</time></trkpt><trkpt lat="44.397920404673144" lon="9.8856382866126"><ele>324.25</ele><time>2026-04-11T13:17:24Z</time></trkpt><trkpt lat="44.397812849200555" lon="9.88560577825124"><ele>320.5</ele><time>2026-04-11T13:17:25Z</time></trkpt><trkpt lat="44.39774391801135" lon="9.885475045435632"><ele>316.75</ele><time>2026-04-11T13:17:26Z</time></trkpt><trkpt lat="44.39763804071391" lon="9.885341823363941"><ele>313.0</ele><time>2026-04-11T13:17:27Z</time></trkpt><trkpt lat="44.39753471210932" lon="9.885189210315549"><ele>317.0</ele><time>2026-04-11T13:17:28Z</time></trkpt><trkpt lat="44.397442190963694" lon="9.885016664768493"><ele>321.0</ele><time>2026-04-11T13:17:29Z</time></trkpt><trkpt lat="44.397343059177096" lon="9.884842908424181"><ele>325.0</ele><time>2026-04-11T13:17:30Z</time></trkpt><trkpt lat="44.397256078291115" lon="9.884659305063002"><ele>320.75</ele><time>2026-04-11T13:17:31Z</time></trkpt><trkpt lat="44.39716356115717" lon="9.884490737982075"><ele>316.5</ele><time>2026-04-11T13:17:32Z</time></trkpt><trkpt lat="44.39707329383343" lon="9.884326760304127"><ele>312.25</ele><time>2026-04-11T13:17:33Z</time></trkpt><trkpt lat="44.39699602903368" lon="9.884167101700692"><ele>308.0</ele><time>2026-04-11T13:17:34Z</time></trkpt><trkpt lat="44.3969207706344" lon="9.883997160122576"><ele>308.0</ele><time>2026-04-11T13:17:35Z</time></trkpt><trkpt lat="44.396856240006706" lon="9.883827080763576"><ele>308.0</ele><time>2026-04-11T13:17:36Z</time></trkpt><trkpt lat="44.396800666540656" lon="9.883637651674878"><ele>308.0</ele><time>2026-04-11T13:17:37Z</time></trkpt><trkpt lat="44.39674859343104" lon="9.88344417358447"><ele>308.0</ele><time>2026-04-11T13:17:38Z</time></trkpt><trkpt lat="44.396687400381" lon="9.8832740649812"><ele>310.5</ele><time>2026-04-11T13:17:39Z</time></trkpt><trkpt lat="44.39660608499952" lon="9.883122066843853"><ele>313.0</ele><time>2026-04-11T13:17:40Z</time></trkpt><trkpt lat="44.39649409183566" lon="9.883003620535556"><ele>315.5</ele><time>2026-04-11T13:17:41Z</time></trkpt><trkpt lat="44.39635827138182" lon="9.882907152673592"><ele>318.0</ele><time>2026-04-11T13:17:42Z</time></trkpt><trkpt lat="44.39621077241875" lon="9.882838438266154"><ele>310.6666666666667</ele><time>2026-04-11T13:17:43Z</time></trkpt><trkpt lat="44.396038466894865" lon="9.882793972892383"><ele>303.33333333333337</ele><time>2026-04-11T13:17:44Z</time></trkpt><trkpt lat="44.395872070993036" lon="9.882757372857434"><ele>296.0</ele><time>2026-04-11T13:17:45Z</time></trkpt><trkpt lat="44.39569116249032" lon="9.882708180296339"><ele>296.0</ele><time>2026-04-11T13:17:46Z</time></trkpt><trkpt lat="44.395527987967775" lon="9.88264995654414"><ele>296.0</ele><time>2026-04-11T13:17:47Z</time></trkpt><trkpt lat="44.39536000525699" lon="9.882590402131123"><ele>296.0</ele><time>2026-04-11T13:17:48Z</time></trkpt><trkpt lat="44.39520179044115" lon="9.882537531696414"><ele>297.6666666666667</ele><time>2026-04-11T13:17:49Z</time></trkpt><trkpt lat="44.39504285065997" lon="9.882507260893366"><ele>299.3333333333333</ele><time>2026-04-11T13:17:50Z</time></trkpt><trkpt lat="44.39487750279286" lon="9.882509703907656"><ele>301.0</ele><time>2026-04-11T13:17:51Z</time></trkpt><trkpt lat="44.39473814979368" lon="9.882532921073917"><ele>297.0</ele><time>2026-04-11T13:17:52Z</time></trkpt><trkpt lat="44.39459732466909" lon="9.882525154420266"><ele>293.0</ele><time>2026-04-11T13:17:53Z</time></trkpt><trkpt lat="44.39445794089691" lon="9.882483028792635"><ele>289.0</ele><time>2026-04-11T13:17:54Z</time></trkpt><trkpt lat="44.394318497795595" lon="9.882395908601804"><ele>285.0</ele><time>2026-04-11T13:17:55Z</time></trkpt><trkpt lat="44.39420781621188" lon="9.882240884780991"><ele>285.0</ele><time>2026-04-11T13:17:56Z</time></trkpt><trkpt lat="44.39408971186636" lon="9.882083152274268"><ele>285.0</ele><time>2026-04-11T13:17:57Z</time></trkpt><trkpt lat="44.39399332236634" lon="9.881901278816558"><ele>285.0</ele><time>2026-04-11T13:17:58Z</time></trkpt><trkpt lat="44.39388935083921" lon="9.881739393258055"><ele>284.75</ele><time>2026-04-11T13:17:59Z</time></trkpt><trkpt lat="44.39379792819604" lon="9.88158357816841"><ele>284.5</ele><time>2026-04-11T13:18:00Z</time></trkpt><trkpt lat="44.39370873742283" lon="9.881436351864684"><ele>284.25</ele><time>2026-04-11T13:18:01Z</time></trkpt><trkpt lat="44.3936209154808" lon="9.881321885550674"><ele>284.0</ele><time>2026-04-11T13:18:02Z</time></trkpt><trkpt lat="44.39352812376216" lon="9.881253178622073"><ele>284.0</ele><time>2026-04-11T13:18:03Z</time></trkpt><trkpt lat="44.393425474676256" lon="9.881223337343808"><ele>284.0</ele><time>2026-04-11T13:18:04Z</time></trkpt><trkpt lat="44.39331418425182" lon="9.881254499546229"><ele>284.0</ele><time>2026-04-11T13:18:05Z</time></trkpt><trkpt lat="44.39320968779642" lon="9.881330108411492"><ele>284.0</ele><time>2026-04-11T13:18:06Z</time></trkpt><trkpt lat="44.39312260375739" lon="9.881439198669293"><ele>284.0</ele><time>2026-04-11T13:18:07Z</time></trkpt><trkpt lat="44.393043892567704" lon="9.881540572936842"><ele>284.0</ele><time>2026-04-11T13:18:08Z</time></trkpt><trkpt lat="44.39295750517994" lon="9.881630635877674"><ele>284.0</ele><time>2026-04-11T13:18:09Z</time></trkpt><trkpt lat="44.39287246559235" lon="9.881713950631028"><ele>284.0</ele><time>2026-04-11T13:18:10Z</time></trkpt><trkpt lat="44.3927851604736" lon="9.881794514512842"><ele>284.0</ele><time>2026-04-11T13:18:11Z</time></trkpt><trkpt lat="44.39270289836421" lon="9.881871208545912"><ele>284.8</ele><time>2026-04-11T13:18:12Z</time></trkpt><trkpt lat="44.39262112635481" lon="9.881951038404798"><ele>285.59999999999997</ele><time>2026-04-11T13:18:13Z</time></trkpt><trkpt lat="44.392544553191385" lon="9.882031762525836"><ele>286.4</ele><time>2026-04-11T13:18:14Z</time></trkpt><trkpt lat="44.39246706018019" lon="9.882115354129821"><ele>287.2</ele><time>2026-04-11T13:18:15Z</time></trkpt><trkpt lat="44.39238942280883" lon="9.882197089494975"><ele>288.0</ele><time>2026-04-11T13:18:16Z</time></trkpt><trkpt lat="44.39230958754189" lon="9.882275323352644"><ele>288.0</ele><time>2026-04-11T13:18:17Z</time></trkpt><trkpt lat="44.392231853792005" lon="9.882357848378323"><ele>288.0</ele><time>2026-04-11T13:18:18Z</time></trkpt><trkpt lat="44.39215561438135" lon="9.882430047931543"><ele>288.0</ele><time>2026-04-11T13:18:18.999Z</time></trkpt><trkpt lat="44.39208922664098" lon="9.882504641412059"><ele>288.0</ele><time>2026-04-11T13:18:19.999Z</time></trkpt><trkpt lat="44.39201612158983" lon="9.88256711064151"><ele>288.0</ele><time>2026-04-11T13:18:20.999Z</time></trkpt><trkpt lat="44.39194809677157" lon="9.882635422077925"><ele>288.0</ele><time>2026-04-11T13:18:21.999Z</time></trkpt><trkpt lat="44.39187769652965" lon="9.882714523134776"><ele>286.8</ele><time>2026-04-11T13:18:22.999Z</time></trkpt><trkpt lat="44.39180682992688" lon="9.882791335919167"><ele>285.6</ele><time>2026-04-11T13:18:23.999Z</time></trkpt><trkpt lat="44.39172664446805" lon="9.882856578438753"><ele>284.4</ele><time>2026-04-11T13:18:24.999Z</time></trkpt><trkpt lat="44.391650193212364" lon="9.882927303629916"><ele>283.2</ele><time>2026-04-11T13:18:25.999Z</time></trkpt><trkpt lat="44.391583887608114" lon="9.883001423053013"><ele>282.0</ele><time>2026-04-11T13:18:26.999Z</time></trkpt><trkpt lat="44.391501531712265" lon="9.883081391132224"><ele>282.0</ele><time>2026-04-11T13:18:27.999Z</time></trkpt><trkpt lat="44.39141447125065" lon="9.883168586736302"><ele>282.0</ele><time>2026-04-11T13:18:28.999Z</time></trkpt><trkpt lat="44.39133422375809" lon="9.883248822542615"><ele>282.0</ele><time>2026-04-11T13:18:29.999Z</time></trkpt><trkpt lat="44.3912479043142" lon="9.88332810964738"><ele>282.0</ele><time>2026-04-11T13:18:30.999Z</time></trkpt><trkpt lat="44.391164924448525" lon="9.883415081930282"><ele>282.0</ele><time>2026-04-11T13:18:31.999Z</time></trkpt><trkpt lat="44.39107840341668" lon="9.883499373701305"><ele>281.0</ele><time>2026-04-11T13:18:32.999Z</time></trkpt><trkpt lat="44.390993980319664" lon="9.883585426717975"><ele>280.0</ele><time>2026-04-11T13:18:33.999Z</time></trkpt><trkpt lat="44.390911040719025" lon="9.883669078349223"><ele>279.0</ele><time>2026-04-11T13:18:34.999Z</time></trkpt><trkpt lat="44.39082079781047" lon="9.883751877365851"><ele>278.0</ele><time>2026-04-11T13:18:35.999Z</time></trkpt><trkpt lat="44.39073501382248" lon="9.883823889212186"><ele>277.0</ele><time>2026-04-11T13:18:36.999Z</time></trkpt><trkpt lat="44.39064007373902" lon="9.883898678384904"><ele>277.0</ele><time>2026-04-11T13:18:37.999Z</time></trkpt><trkpt lat="44.39054031722845" lon="9.883966859658052"><ele>277.0</ele><time>2026-04-11T13:18:38.999Z</time></trkpt><trkpt lat="44.390443330864535" lon="9.884033050575443"><ele>277.0</ele><time>2026-04-11T13:18:39.999Z</time></trkpt><trkpt lat="44.39033912108917" lon="9.884092650236022"><ele>277.0</ele><time>2026-04-11T13:18:40.999Z</time></trkpt><trkpt lat="44.39023399598713" lon="9.884148288576345"><ele>277.0</ele><time>2026-04-11T13:18:41.999Z</time></trkpt><trkpt lat="44.390127246369985" lon="9.884194865167881"><ele>277.0</ele><time>2026-04-11T13:18:42.999Z</time></trkpt><trkpt lat="44.390018638994675" lon="9.884238174899995"><ele>277.0</ele><time>2026-04-11T13:18:43.999Z</time></trkpt><trkpt lat="44.389907714506435" lon="9.884274726052833"><ele>277.0</ele><time>2026-04-11T13:18:44.999Z</time></trkpt><trkpt lat="44.38979672882179" lon="9.884306873680972"><ele>277.0</ele><time>2026-04-11T13:18:45.999Z</time></trkpt><trkpt lat="44.38968391237635" lon="9.884337381547583"><ele>274.0</ele><time>2026-04-11T13:18:46.999Z</time></trkpt><trkpt lat="44.38957026786527" lon="9.884360428892991"><ele>271.0</ele><time>2026-04-11T13:18:47.999Z</time></trkpt><trkpt lat="44.38945690534348" lon="9.884373526444685"><ele>268.0</ele><time>2026-04-11T13:18:48.999Z</time></trkpt><trkpt lat="44.389339301126064" lon="9.88437978236603"><ele>265.0</ele><time>2026-04-11T13:18:49.999Z</time></trkpt><trkpt lat="44.38922625748709" lon="9.884376203643573"><ele>265.0</ele><time>2026-04-11T13:18:50.999Z</time></trkpt><trkpt lat="44.38910915697582" lon="9.884370008009105"><ele>265.0</ele><time>2026-04-11T13:18:51.999Z</time></trkpt><trkpt lat="44.388996099839744" lon="9.884359556553944"><ele>265.0</ele><time>2026-04-11T13:18:52.999Z</time></trkpt><trkpt lat="44.388883041068176" lon="9.884346426683306"><ele>265.0</ele><time>2026-04-11T13:18:53.999Z</time></trkpt><trkpt lat="44.38876821429013" lon="9.884330284958455"><ele>265.0</ele><time>2026-04-11T13:18:54.999Z</time></trkpt><trkpt lat="44.388650358544936" lon="9.884318320974833"><ele>265.0</ele><time>2026-04-11T13:18:55.999Z</time></trkpt><trkpt lat="44.38853707958588" lon="9.884293114905928"><ele>265.0</ele><time>2026-04-11T13:18:56.999Z</time></trkpt><trkpt lat="44.38842339031515" lon="9.884271228234473"><ele>265.0</ele><time>2026-04-11T13:18:57.999Z</time></trkpt><trkpt lat="44.38830881846764" lon="9.884256269575888"><ele>265.0</ele><time>2026-04-11T13:18:58.999Z</time></trkpt><trkpt lat="44.38819625351779" lon="9.884237483956195"><ele>265.0</ele><time>2026-04-11T13:18:59.999Z</time></trkpt><trkpt lat="44.38808107023404" lon="9.884221049223434"><ele>265.0</ele><time>2026-04-11T13:19:00.999Z</time></trkpt><trkpt lat="44.387975370559104" lon="9.884208842513809"><ele>265.0</ele><time>2026-04-11T13:19:01.999Z</time></trkpt><trkpt lat="44.387877092358906" lon="9.88418869531941"><ele>265.0</ele><time>2026-04-11T13:19:02.999Z</time></trkpt><trkpt lat="44.38778324144023" lon="9.884170132682947"><ele>265.0</ele><time>2026-04-11T13:19:03.999Z</time></trkpt><trkpt lat="44.387696489064716" lon="9.884153811134828"><ele>265.0</ele><time>2026-04-11T13:19:04.999Z</time></trkpt><trkpt lat="44.38761141063515" lon="9.88414008339376"><ele>265.0</ele><time>2026-04-11T13:19:05.999Z</time></trkpt><trkpt lat="44.387541761807995" lon="9.884127405525645"><ele>265.0</ele><time>2026-04-11T13:19:06.999Z</time></trkpt><trkpt lat="44.38747402444221" lon="9.884119483572581"><ele>265.0</ele><time>2026-04-11T13:19:07.999Z</time></trkpt><trkpt lat="44.387404537182185" lon="9.884104402477451"><ele>265.0</ele><time>2026-04-11T13:19:08.999Z</time></trkpt><trkpt lat="44.387303613035996" lon="9.884063812715626"><ele>265.0</ele><time>2026-04-11T13:19:10.999Z</time></trkpt><trkpt lat="44.3872509803256" lon="9.884001454390573"><ele>265.0</ele><time>2026-04-11T13:19:12.999Z</time></trkpt><trkpt lat="44.387144660975814" lon="9.883995572840139"><ele>265.0</ele><time>2026-04-11T13:19:15.999Z</time></trkpt><trkpt lat="44.38707918148552" lon="9.883985812896553"><ele>265.0</ele><time>2026-04-11T13:19:18Z</time></trkpt><trkpt lat="44.386998040759416" lon="9.883973313491001"><ele>265.0</ele><time>2026-04-11T13:19:21Z</time></trkpt><trkpt lat="44.38691058877838" lon="9.884042460702382"><ele>265.0</ele><time>2026-04-11T13:21:35Z</time></trkpt><trkpt lat="44.38682129222081" lon="9.884059490133271"><ele>264.2</ele><time>2026-04-11T13:21:36Z</time></trkpt><trkpt lat="44.386738694751976" lon="9.884027919019479"><ele>263.4</ele><time>2026-04-11T13:21:37Z</time></trkpt><trkpt lat="44.38666418575157" lon="9.884028999482458"><ele>262.6</ele><time>2026-04-11T13:21:38Z</time></trkpt><trkpt lat="44.386569085299485" lon="9.88401957829843"><ele>261.8</ele><time>2026-04-11T13:21:39Z</time></trkpt><trkpt lat="44.38645892053426" lon="9.883987160090252"><ele>261.0</ele><time>2026-04-11T13:21:40Z</time></trkpt><trkpt lat="44.386347790321096" lon="9.88397096354273"><ele>260.25</ele><time>2026-04-11T13:21:41Z</time></trkpt><trkpt lat="44.386236963809935" lon="9.883954806682553"><ele>259.5</ele><time>2026-04-11T13:21:42Z</time></trkpt><trkpt lat="44.386116445312354" lon="9.883950897053248"><ele>258.75</ele><time>2026-04-11T13:21:43Z</time></trkpt><trkpt lat="44.38598835439451" lon="9.883930414672204"><ele>258.0</ele><time>2026-04-11T13:21:44Z</time></trkpt><trkpt lat="44.38585994827318" lon="9.88390666734393"><ele>258.0</ele><time>2026-04-11T13:21:45Z</time></trkpt><trkpt lat="44.385729068175486" lon="9.88388784920996"><ele>258.0</ele><time>2026-04-11T13:21:46Z</time></trkpt><trkpt lat="44.385606640103205" lon="9.8838714641775"><ele>258.0</ele><time>2026-04-11T13:21:47Z</time></trkpt><trkpt lat="44.38548767663225" lon="9.883855242708119"><ele>258.0</ele><time>2026-04-11T13:21:48Z</time></trkpt><trkpt lat="44.385347524244104" lon="9.88381910870867"><ele>257.3333333333333</ele><time>2026-04-11T13:21:49Z</time></trkpt><trkpt lat="44.38519839331487" lon="9.883794724108721"><ele>256.66666666666663</ele><time>2026-04-11T13:21:50Z</time></trkpt><trkpt lat="44.38504223302147" lon="9.883766422742678"><ele>256.0</ele><time>2026-04-11T13:21:51Z</time></trkpt><trkpt lat="44.38487911721716" lon="9.88374299837653"><ele>256.0</ele><time>2026-04-11T13:21:52Z</time></trkpt><trkpt lat="44.3847043802678" lon="9.883720846648172"><ele>256.0</ele><time>2026-04-11T13:21:53Z</time></trkpt><trkpt lat="44.384531203664984" lon="9.883696350660356"><ele>256.0</ele><time>2026-04-11T13:21:54Z</time></trkpt><trkpt lat="44.38435263991886" lon="9.883675119763609"><ele>255.0</ele><time>2026-04-11T13:21:55Z</time></trkpt><trkpt lat="44.38417904741853" lon="9.883655305880907"><ele>254.0</ele><time>2026-04-11T13:21:56Z</time></trkpt><trkpt lat="44.38400519758446" lon="9.883649670431534"><ele>253.0</ele><time>2026-04-11T13:21:57Z</time></trkpt><trkpt lat="44.38383116538193" lon="9.883654995440923"><ele>251.66666666666666</ele><time>2026-04-11T13:21:58Z</time></trkpt><trkpt lat="44.38365660406681" lon="9.883676765482605"><ele>250.33333333333331</ele><time>2026-04-11T13:21:59Z</time></trkpt><trkpt lat="44.383479631051394" lon="9.883701592073205"><ele>249.0</ele><time>2026-04-11T13:22:00Z</time></trkpt><trkpt lat="44.38329886774389" lon="9.883729848656724"><ele>249.0</ele><time>2026-04-11T13:22:01Z</time></trkpt><trkpt lat="44.383123736330425" lon="9.883758158251114"><ele>249.0</ele><time>2026-04-11T13:22:02Z</time></trkpt><trkpt lat="44.3829605388292" lon="9.883783382822175"><ele>249.0</ele><time>2026-04-11T13:22:03Z</time></trkpt><trkpt lat="44.382813021533465" lon="9.883813314729096"><ele>249.0</ele><time>2026-04-11T13:22:04Z</time></trkpt><trkpt lat="44.382676811598934" lon="9.883854203801215"><ele>249.0</ele><time>2026-04-11T13:22:05Z</time></trkpt><trkpt lat="44.382551222882384" lon="9.88394075385736"><ele>249.0</ele><time>2026-04-11T13:22:06Z</time></trkpt><trkpt lat="44.38243635037409" lon="9.88408148449428"><ele>249.0</ele><time>2026-04-11T13:22:07Z</time></trkpt><trkpt lat="44.38230805131121" lon="9.884227295487909"><ele>252.66666666666669</ele><time>2026-04-11T13:22:08Z</time></trkpt><trkpt lat="44.38217986065178" lon="9.884377132920154"><ele>256.33333333333337</ele><time>2026-04-11T13:22:09Z</time></trkpt><trkpt lat="44.382055990753216" lon="9.884517991103522"><ele>260.0</ele><time>2026-04-11T13:22:10Z</time></trkpt><trkpt lat="44.38191723114921" lon="9.884627865269081"><ele>260.0</ele><time>2026-04-11T13:22:11Z</time></trkpt><trkpt lat="44.38176264602381" lon="9.884673509991998"><ele>260.0</ele><time>2026-04-11T13:22:12Z</time></trkpt><trkpt lat="44.38160437250739" lon="9.884700059753623"><ele>260.0</ele><time>2026-04-11T13:22:13Z</time></trkpt><trkpt lat="44.38144183062775" lon="9.884703403907618"><ele>261.33333333333337</ele><time>2026-04-11T13:22:14Z</time></trkpt><trkpt lat="44.381278996962905" lon="9.884660407773586"><ele>262.6666666666667</ele><time>2026-04-11T13:22:15Z</time></trkpt><trkpt lat="44.38113605619874" lon="9.88457651692621"><ele>264.0</ele><time>2026-04-11T13:22:16Z</time></trkpt><trkpt lat="44.38099134872151" lon="9.884496177655032"><ele>264.0</ele><time>2026-04-11T13:22:17Z</time></trkpt><trkpt lat="44.38085033622829" lon="9.884412060485124"><ele>264.0</ele><time>2026-04-11T13:22:18Z</time></trkpt><trkpt lat="44.38070692433685" lon="9.884322849637158"><ele>264.0</ele><time>2026-04-11T13:22:19Z</time></trkpt><trkpt lat="44.3805617845693" lon="9.88423256391807"><ele>243.0</ele><time>2026-04-11T13:22:20.011Z</time></trkpt><trkpt lat="44.379526529791825" lon="9.88404815663929"><ele>243.0</ele><time>2026-04-11T13:22:24Z</time></trkpt><trkpt lat="44.37930678645317" lon="9.884146679392888"><ele>243.0</ele><time>2026-04-11T13:22:25Z</time></trkpt><trkpt lat="44.37916166161026" lon="9.884226751489937"><ele>243.0</ele><time>2026-04-11T13:22:26Z</time></trkpt><trkpt lat="44.37902605454555" lon="9.884300309968602"><ele>244.25</ele><time>2026-04-11T13:22:27Z</time></trkpt><trkpt lat="44.378907387561256" lon="9.884360656063564"><ele>245.5</ele><time>2026-04-11T13:22:28Z</time></trkpt><trkpt lat="44.37880893400813" lon="9.884433196187077"><ele>246.75</ele><time>2026-04-11T13:22:29Z</time></trkpt><trkpt lat="44.3786893174987" lon="9.884471257969352"><ele>248.0</ele><time>2026-04-11T13:22:30Z</time></trkpt><trkpt lat="44.37859917471084" lon="9.884514756196788"><ele>248.0</ele><time>2026-04-11T13:22:31Z</time></trkpt><trkpt lat="44.37851374149491" lon="9.884554292319626"><ele>248.0</ele><time>2026-04-11T13:22:31.999Z</time></trkpt><trkpt lat="44.378424987878006" lon="9.884584626568337"><ele>248.0</ele><time>2026-04-11T13:22:32.999Z</time></trkpt><trkpt lat="44.37831940344988" lon="9.88462382049846"><ele>248.0</ele><time>2026-04-11T13:22:33.999Z</time></trkpt><trkpt lat="44.37820556524578" lon="9.884673186144607"><ele>248.0</ele><time>2026-04-11T13:22:34.999Z</time></trkpt><trkpt lat="44.378089463823166" lon="9.884714791261718"><ele>247.0</ele><time>2026-04-11T13:22:35.999Z</time></trkpt><trkpt lat="44.37797546928158" lon="9.88476083037784"><ele>246.0</ele><time>2026-04-11T13:22:36.999Z</time></trkpt><trkpt lat="44.37786494616259" lon="9.884804496563582"><ele>245.0</ele><time>2026-04-11T13:22:37.999Z</time></trkpt><trkpt lat="44.37775442451226" lon="9.884842675916795"><ele>244.0</ele><time>2026-04-11T13:22:38.999Z</time></trkpt><trkpt lat="44.377640607286736" lon="9.884888561005983"><ele>244.0</ele><time>2026-04-11T13:22:39.999Z</time></trkpt><trkpt lat="44.37752530903838" lon="9.884925527418691"><ele>243.99999999999997</ele><time>2026-04-11T13:22:40.999Z</time></trkpt><trkpt lat="44.377416401820675" lon="9.88496735247001"><ele>243.99999999999997</ele><time>2026-04-11T13:22:41.999Z</time></trkpt><trkpt lat="44.37730286752905" lon="9.885013184916307"><ele>244.0</ele><time>2026-04-11T13:22:42.999Z</time></trkpt><trkpt lat="44.37721196499971" lon="9.885048728002795"><ele>244.0</ele><time>2026-04-11T13:22:43.999Z</time></trkpt><trkpt lat="44.37710772652067" lon="9.885082039990674"><ele>243.0</ele><time>2026-04-11T13:22:44.999Z</time></trkpt><trkpt lat="44.37700367447942" lon="9.885097806407533"><ele>241.99999999999997</ele><time>2026-04-11T13:22:45.999Z</time></trkpt><trkpt lat="44.3768939429755" lon="9.88510377221355"><ele>240.99999999999997</ele><time>2026-04-11T13:22:46.999Z</time></trkpt><trkpt lat="44.37679322672233" lon="9.885102526486282"><ele>240.0</ele><time>2026-04-11T13:22:47.999Z</time></trkpt><trkpt lat="44.3767164873288" lon="9.885097786994038"><ele>239.0</ele><time>2026-04-11T13:22:48.999Z</time></trkpt><trkpt lat="44.376646574149206" lon="9.884985017903595"><ele>239.0</ele><time>2026-04-11T13:22:50.999Z</time></trkpt><trkpt lat="44.376621941200845" lon="9.884882385030085"><ele>238.99999999999997</ele><time>2026-04-11T13:22:51.999Z</time></trkpt><trkpt lat="44.37660034362014" lon="9.884759836614718"><ele>238.99999999999997</ele><time>2026-04-11T13:22:52.999Z</time></trkpt><trkpt lat="44.376586259284984" lon="9.884625629795437"><ele>239.0</ele><time>2026-04-11T13:22:53.999Z</time></trkpt><trkpt lat="44.376566087549094" lon="9.884488933205873"><ele>239.0</ele><time>2026-04-11T13:22:54.999Z</time></trkpt><trkpt lat="44.37654192185636" lon="9.88434801527017"><ele>239.6</ele><time>2026-04-11T13:22:55.999Z</time></trkpt><trkpt lat="44.376515717627385" lon="9.884206257910686"><ele>240.2</ele><time>2026-04-11T13:22:56.999Z</time></trkpt><trkpt lat="44.37649121511165" lon="9.884078142685345"><ele>240.79999999999998</ele><time>2026-04-11T13:22:57.999Z</time></trkpt><trkpt lat="44.37646603896499" lon="9.883944305527065"><ele>241.39999999999998</ele><time>2026-04-11T13:22:58.999Z</time></trkpt><trkpt lat="44.37644892778285" lon="9.883822220299294"><ele>242.0</ele><time>2026-04-11T13:22:59.999Z</time></trkpt><trkpt lat="44.3764340796852" lon="9.883699916097976"><ele>242.00000000000003</ele><time>2026-04-11T13:23:01.999Z</time></trkpt><trkpt lat="44.37642987883923" lon="9.883578613812043"><ele>242.0</ele><time>2026-04-11T13:23:06.999Z</time></trkpt><trkpt lat="44.376409348637246" lon="9.883434519582366"><ele>242.0</ele><time>2026-04-11T13:23:08.999Z</time></trkpt><trkpt lat="44.376385155617136" lon="9.883329022279177"><ele>242.0</ele><time>2026-04-11T13:23:09.999Z</time></trkpt><trkpt lat="44.37636509007583" lon="9.883235380024084"><ele>242.00000000000003</ele><time>2026-04-11T13:23:10.999Z</time></trkpt><trkpt lat="44.376341689388084" lon="9.883123245387376"><ele>242.0</ele><time>2026-04-11T13:23:11.999Z</time></trkpt><trkpt lat="44.37632345217104" lon="9.88301124932337"><ele>241.33333333333334</ele><time>2026-04-11T13:23:12.999Z</time></trkpt><trkpt lat="44.3763041391191" lon="9.88289916961885"><ele>240.66666666666669</ele><time>2026-04-11T13:23:13.999Z</time></trkpt><trkpt lat="44.37628519331255" lon="9.882814301172742"><ele>240.0</ele><time>2026-04-11T13:23:14.999Z</time></trkpt><trkpt lat="44.376258564286694" lon="9.882631030006044"><ele>239.33333333333331</ele><time>2026-04-11T13:23:16.999Z</time></trkpt><trkpt lat="44.37624084743214" lon="9.882516639370007"><ele>238.66666666666666</ele><time>2026-04-11T13:23:17.999Z</time></trkpt><trkpt lat="44.3762240135696" lon="9.882403634607826"><ele>238.0</ele><time>2026-04-11T13:23:18.999Z</time></trkpt><trkpt lat="44.376205980546196" lon="9.882291722823274"><ele>237.66666666666666</ele><time>2026-04-11T13:23:19.999Z</time></trkpt><trkpt lat="44.37618758883688" lon="9.882175504957342"><ele>237.33333333333331</ele><time>2026-04-11T13:23:20.999Z</time></trkpt><trkpt lat="44.37617199259527" lon="9.882065555621212"><ele>237.0</ele><time>2026-04-11T13:23:21.999Z</time></trkpt><trkpt lat="44.37615170219009" lon="9.881941280017838"><ele>236.66666666666669</ele><time>2026-04-11T13:23:22.999Z</time></trkpt><trkpt lat="44.37613407551694" lon="9.881827612710351"><ele>236.33333333333334</ele><time>2026-04-11T13:23:23.999Z</time></trkpt><trkpt lat="44.376116772379405" lon="9.881712732064429"><ele>236.0</ele><time>2026-04-11T13:23:24.999Z</time></trkpt><trkpt lat="44.376099806351775" lon="9.88159163004668"><ele>237.60000000000002</ele><time>2026-04-11T13:23:25.999Z</time></trkpt><trkpt lat="44.376078163152336" lon="9.881465637879085"><ele>239.20000000000002</ele><time>2026-04-11T13:23:26.999Z</time></trkpt><trkpt lat="44.37605519041995" lon="9.881337293211631"><ele>240.79999999999998</ele><time>2026-04-11T13:23:27.999Z</time></trkpt><trkpt lat="44.37603204008263" lon="9.881207717817407"><ele>242.39999999999998</ele><time>2026-04-11T13:23:28.999Z</time></trkpt><trkpt lat="44.37600815094205" lon="9.881082097376648"><ele>244.0</ele><time>2026-04-11T13:23:30Z</time></trkpt><trkpt lat="44.375989977122344" lon="9.88096187328059"><ele>244.49999999999997</ele><time>2026-04-11T13:23:31Z</time></trkpt><trkpt lat="44.37597702198469" lon="9.880841878609745"><ele>245.0</ele><time>2026-04-11T13:23:32Z</time></trkpt><trkpt lat="44.37596503452119" lon="9.88073281544588"><ele>245.5</ele><time>2026-04-11T13:23:33Z</time></trkpt><trkpt lat="44.375944882635515" lon="9.880621904102137"><ele>246.0</ele><time>2026-04-11T13:23:34Z</time></trkpt><trkpt lat="44.37592060645431" lon="9.88051205251826"><ele>246.49999999999997</ele><time>2026-04-11T13:23:35Z</time></trkpt><trkpt lat="44.375909921062416" lon="9.880408358415995"><ele>247.0</ele><time>2026-04-11T13:23:36Z</time></trkpt><trkpt lat="44.37588498285741" lon="9.880287831944687"><ele>246.99999999999997</ele><time>2026-04-11T13:23:37Z</time></trkpt><trkpt lat="44.375860800313106" lon="9.880170736802011"><ele>247.0</ele><time>2026-04-11T13:23:38Z</time></trkpt><trkpt lat="44.37584294313697" lon="9.880044420375295"><ele>247.0</ele><time>2026-04-11T13:23:39Z</time></trkpt><trkpt lat="44.37582906192939" lon="9.879926783226535"><ele>247.0</ele><time>2026-04-11T13:23:40Z</time></trkpt><trkpt lat="44.37581212514407" lon="9.879806146376295"><ele>246.99999999999997</ele><time>2026-04-11T13:23:41Z</time></trkpt><trkpt lat="44.37578955104311" lon="9.879681920643755"><ele>247.0</ele><time>2026-04-11T13:23:42Z</time></trkpt><trkpt lat="44.375767590773286" lon="9.879561152935866"><ele>246.99999999999997</ele><time>2026-04-11T13:23:43Z</time></trkpt><trkpt lat="44.375750384436" lon="9.879442631724801"><ele>247.0</ele><time>2026-04-11T13:23:44Z</time></trkpt><trkpt lat="44.37573145291166" lon="9.879324577930397"><ele>247.0</ele><time>2026-04-11T13:23:45Z</time></trkpt><trkpt lat="44.375712995596736" lon="9.879206293315091"><ele>247.0</ele><time>2026-04-11T13:23:46Z</time></trkpt><trkpt lat="44.37569697450781" lon="9.87909498832794"><ele>246.99999999999997</ele><time>2026-04-11T13:23:47Z</time></trkpt><trkpt lat="44.37568018042153" lon="9.87898418377301"><ele>247.0</ele><time>2026-04-11T13:23:48Z</time></trkpt><trkpt lat="44.37566604773831" lon="9.878860964479058"><ele>246.99999999999997</ele><time>2026-04-11T13:23:49Z</time></trkpt><trkpt lat="44.3756525822396" lon="9.87875143553313"><ele>247.0</ele><time>2026-04-11T13:23:50Z</time></trkpt><trkpt lat="44.37563393265187" lon="9.878636797627928"><ele>247.0</ele><time>2026-04-11T13:23:51Z</time></trkpt><trkpt lat="44.37560882511507" lon="9.878508793935183"><ele>247.0</ele><time>2026-04-11T13:23:52Z</time></trkpt><trkpt lat="44.37558487587683" lon="9.878379208975227"><ele>246.99999999999997</ele><time>2026-04-11T13:23:53Z</time></trkpt><trkpt lat="44.37556267987497" lon="9.878257793947501"><ele>247.0</ele><time>2026-04-11T13:23:54Z</time></trkpt><trkpt lat="44.37553809245894" lon="9.878133866752602"><ele>247.0</ele><time>2026-04-11T13:23:55Z</time></trkpt><trkpt lat="44.3755183834111" lon="9.878014749031767"><ele>247.0</ele><time>2026-04-11T13:23:56Z</time></trkpt><trkpt lat="44.37550064057611" lon="9.877909317932692"><ele>247.0</ele><time>2026-04-11T13:23:57Z</time></trkpt><trkpt lat="44.37548550781034" lon="9.877797713819472"><ele>247.0</ele><time>2026-04-11T13:23:58Z</time></trkpt><trkpt lat="44.375464194642845" lon="9.877659251761518"><ele>247.0</ele><time>2026-04-11T13:23:59Z</time></trkpt><trkpt lat="44.37543938546567" lon="9.877493811085065"><ele>247.25</ele><time>2026-04-11T13:24:00Z</time></trkpt><trkpt lat="44.37541395265516" lon="9.87731779173115"><ele>247.5</ele><time>2026-04-11T13:24:01Z</time></trkpt><trkpt lat="44.375389260938285" lon="9.87714972992461"><ele>247.75</ele><time>2026-04-11T13:24:02Z</time></trkpt><trkpt lat="44.37535927513386" lon="9.876972053365801"><ele>248.0</ele><time>2026-04-11T13:24:03Z</time></trkpt><trkpt lat="44.375328881830306" lon="9.876787050282072"><ele>248.0</ele><time>2026-04-11T13:24:04Z</time></trkpt><trkpt lat="44.375300227768236" lon="9.876595784871439"><ele>248.0</ele><time>2026-04-11T13:24:05Z</time></trkpt><trkpt lat="44.37526922736365" lon="9.87640611726936"><ele>248.0</ele><time>2026-04-11T13:24:06Z</time></trkpt><trkpt lat="44.37524151801143" lon="9.876217780280392"><ele>248.0</ele><time>2026-04-11T13:24:07Z</time></trkpt><trkpt lat="44.37521094207406" lon="9.876029065364609"><ele>248.5</ele><time>2026-04-11T13:24:08Z</time></trkpt><trkpt lat="44.375177695681074" lon="9.875840277488315"><ele>249.0</ele><time>2026-04-11T13:24:09Z</time></trkpt><trkpt lat="44.37514905069284" lon="9.875655803370817"><ele>249.5</ele><time>2026-04-11T13:24:10Z</time></trkpt><trkpt lat="44.37511892930184" lon="9.8754818966196"><ele>250.0</ele><time>2026-04-11T13:24:11Z</time></trkpt><trkpt lat="44.375093995118036" lon="9.875319285714266"><ele>250.0</ele><time>2026-04-11T13:24:12Z</time></trkpt><trkpt lat="44.37507044957663" lon="9.875158769620962"><ele>250.0</ele><time>2026-04-11T13:24:13Z</time></trkpt><trkpt lat="44.375044692831885" lon="9.87499252572792"><ele>250.0</ele><time>2026-04-11T13:24:14Z</time></trkpt><trkpt lat="44.375017874895" lon="9.874821417497309"><ele>250.0</ele><time>2026-04-11T13:24:15Z</time></trkpt><trkpt lat="44.374992669383424" lon="9.87466298457194"><ele>250.4</ele><time>2026-04-11T13:24:16Z</time></trkpt><trkpt lat="44.37497234417724" lon="9.874511830309322"><ele>250.8</ele><time>2026-04-11T13:24:17Z</time></trkpt><trkpt lat="44.37494892792658" lon="9.874374308402043"><ele>251.2</ele><time>2026-04-11T13:24:18Z</time></trkpt><trkpt lat="44.374928953338" lon="9.874269791758797"><ele>251.6</ele><time>2026-04-11T13:24:19Z</time></trkpt><trkpt lat="44.374915335620855" lon="9.87417854015355"><ele>252.0</ele><time>2026-04-11T13:24:20Z</time></trkpt><trkpt lat="44.374947902301955" lon="9.87402891966867"><ele>252.33333333333334</ele><time>2026-04-11T13:24:22Z</time></trkpt><trkpt lat="44.37496882915306" lon="9.873942806540489"><ele>252.66666666666669</ele><time>2026-04-11T13:24:23Z</time></trkpt><trkpt lat="44.37489244472381" lon="9.873812467338544"><ele>253.0</ele><time>2026-04-11T13:24:25Z</time></trkpt><trkpt lat="44.374837233745254" lon="9.87376450054475"><ele>253.33333333333334</ele><time>2026-04-11T13:24:26Z</time></trkpt><trkpt lat="44.3747669279564" lon="9.873683963081687"><ele>253.66666666666669</ele><time>2026-04-11T13:24:27Z</time></trkpt><trkpt lat="44.374694967459575" lon="9.873578748298334"><ele>254.0</ele><time>2026-04-11T13:24:28Z</time></trkpt><trkpt lat="44.374616142563" lon="9.873466227270224"><ele>255.0</ele><time>2026-04-11T13:24:29Z</time></trkpt><trkpt lat="44.374534318805075" lon="9.873351765395272"><ele>255.99999999999997</ele><time>2026-04-11T13:24:30Z</time></trkpt><trkpt lat="44.37445024730162" lon="9.87324686775473"><ele>257.0</ele><time>2026-04-11T13:24:31Z</time></trkpt><trkpt lat="44.3743675559926" lon="9.873159178981165"><ele>258.0</ele><time>2026-04-11T13:24:32Z</time></trkpt><trkpt lat="44.37427571657573" lon="9.873104996434593"><ele>259.0</ele><time>2026-04-11T13:24:33Z</time></trkpt><trkpt lat="44.374169063137494" lon="9.873117775178185"><ele>259.0</ele><time>2026-04-11T13:24:34Z</time></trkpt><trkpt lat="44.37405195013036" lon="9.873209627152095"><ele>259.0</ele><time>2026-04-11T13:24:35Z</time></trkpt><trkpt lat="44.373931559898885" lon="9.87333460601789"><ele>259.0</ele><time>2026-04-11T13:24:36Z</time></trkpt><trkpt lat="44.37382638453842" lon="9.873498142700589"><ele>259.0</ele><time>2026-04-11T13:24:37Z</time></trkpt><trkpt lat="44.373719283542925" lon="9.873664274210645"><ele>260.0</ele><time>2026-04-11T13:24:37.999Z</time></trkpt><trkpt lat="44.37360465725621" lon="9.873811827633586"><ele>261.0</ele><time>2026-04-11T13:24:38.999Z</time></trkpt><trkpt lat="44.373516132592606" lon="9.873937448643668"><ele>262.0</ele><time>2026-04-11T13:24:39.999Z</time></trkpt><trkpt lat="44.3734316751562" lon="9.87403510385876"><ele>263.0</ele><time>2026-04-11T13:24:40.999Z</time></trkpt><trkpt lat="44.37335518805138" lon="9.874066648932988"><ele>263.0</ele><time>2026-04-11T13:24:41.999Z</time></trkpt><trkpt lat="44.37327323404475" lon="9.874023998722953"><ele>263.0</ele><time>2026-04-11T13:24:42.999Z</time></trkpt><trkpt lat="44.37321694806109" lon="9.873903666436147"><ele>263.0</ele><time>2026-04-11T13:24:43.999Z</time></trkpt><trkpt lat="44.3732163915888" lon="9.873756282527651"><ele>263.0</ele><time>2026-04-11T13:24:44.999Z</time></trkpt><trkpt lat="44.37330142173582" lon="9.87359312777856"><ele>263.0</ele><time>2026-04-11T13:24:45.999Z</time></trkpt><trkpt lat="44.37337755469156" lon="9.873382075890968"><ele>265.0</ele><time>2026-04-11T13:24:46.999Z</time></trkpt><trkpt lat="44.37347112731663" lon="9.87316252143605"><ele>267.0</ele><time>2026-04-11T13:24:47.999Z</time></trkpt><trkpt lat="44.373567716925415" lon="9.872935602440066"><ele>269.0</ele><time>2026-04-11T13:24:48.999Z</time></trkpt><trkpt lat="44.37366150780578" lon="9.872691081274713"><ele>272.33333333333337</ele><time>2026-04-11T13:24:49.999Z</time></trkpt><trkpt lat="44.37373897684292" lon="9.87244240896374"><ele>275.6666666666667</ele><time>2026-04-11T13:24:50.999Z</time></trkpt><trkpt lat="44.3737787525238" lon="9.872187205022373"><ele>279.0</ele><time>2026-04-11T13:24:51.999Z</time></trkpt><trkpt lat="44.373772999521535" lon="9.871892993231949"><ele>281.6666666666667</ele><time>2026-04-11T13:24:52.999Z</time></trkpt><trkpt lat="44.3737552779105" lon="9.871593990168094"><ele>284.33333333333337</ele><time>2026-04-11T13:24:53.999Z</time></trkpt><trkpt lat="44.373740107134246" lon="9.871321716200779"><ele>287.0</ele><time>2026-04-11T13:24:54.999Z</time></trkpt><trkpt lat="44.37375109517535" lon="9.871058558279055"><ele>289.0</ele><time>2026-04-11T13:24:55.999Z</time></trkpt><trkpt lat="44.37374736640809" lon="9.8708093198436"><ele>291.0</ele><time>2026-04-11T13:24:56.999Z</time></trkpt><trkpt lat="44.373729749954016" lon="9.870571635312624"><ele>293.0</ele><time>2026-04-11T13:24:57.999Z</time></trkpt><trkpt lat="44.373729340289565" lon="9.870348775499094"><ele>293.0</ele><time>2026-04-11T13:24:58.999Z</time></trkpt><trkpt lat="44.37374739692055" lon="9.870129024687197"><ele>293.0</ele><time>2026-04-11T13:24:59.999Z</time></trkpt><trkpt lat="44.37377697495822" lon="9.869945170134164"><ele>293.0</ele><time>2026-04-11T13:25:00.999Z</time></trkpt><trkpt lat="44.37382916609408" lon="9.869740642857831"><ele>293.0</ele><time>2026-04-11T13:25:01.999Z</time></trkpt><trkpt lat="44.37390529994658" lon="9.869507272658467"><ele>295.33333333333337</ele><time>2026-04-11T13:25:02.999Z</time></trkpt><trkpt lat="44.37398272408614" lon="9.869277797902646"><ele>297.6666666666667</ele><time>2026-04-11T13:25:03.999Z</time></trkpt><trkpt lat="44.37405595993483" lon="9.869020327078365"><ele>300.0</ele><time>2026-04-11T13:25:04.999Z</time></trkpt><trkpt lat="44.37413920505601" lon="9.868761462477465"><ele>300.6666666666667</ele><time>2026-04-11T13:25:05.999Z</time></trkpt><trkpt lat="44.37422393822372" lon="9.868516367459305"><ele>301.33333333333337</ele><time>2026-04-11T13:25:06.999Z</time></trkpt><trkpt lat="44.37430788780584" lon="9.868261478331696"><ele>302.0</ele><time>2026-04-11T13:25:07.999Z</time></trkpt><trkpt lat="44.37439229567035" lon="9.868003512358413"><ele>302.0</ele><time>2026-04-11T13:25:08.999Z</time></trkpt><trkpt lat="44.37447491967317" lon="9.867742507709414"><ele>302.0</ele><time>2026-04-11T13:25:09.999Z</time></trkpt><trkpt lat="44.37455366515504" lon="9.867486021825634"><ele>302.0</ele><time>2026-04-11T13:25:10.999Z</time></trkpt><trkpt lat="44.37463466881626" lon="9.867227524278283"><ele>305.33333333333337</ele><time>2026-04-11T13:25:11.999Z</time></trkpt><trkpt lat="44.37471652534066" lon="9.866976101015497"><ele>308.6666666666667</ele><time>2026-04-11T13:25:12.999Z</time></trkpt><trkpt lat="44.37480147523419" lon="9.866733365106601"><ele>312.0</ele><time>2026-04-11T13:25:13.999Z</time></trkpt><trkpt lat="44.374879767217614" lon="9.866533201314185"><ele>313.3333333333333</ele><time>2026-04-11T13:25:14.999Z</time></trkpt><trkpt lat="44.37491770347802" lon="9.866331342463186"><ele>314.66666666666663</ele><time>2026-04-11T13:25:15.999Z</time></trkpt><trkpt lat="44.37491620197833" lon="9.866099249853669"><ele>316.0</ele><time>2026-04-11T13:25:16.999Z</time></trkpt><trkpt lat="44.374879876347975" lon="9.865864208742936"><ele>317.66666666666663</ele><time>2026-04-11T13:25:17.999Z</time></trkpt><trkpt lat="44.374785224180705" lon="9.865642026804684"><ele>319.3333333333333</ele><time>2026-04-11T13:25:18.999Z</time></trkpt><trkpt lat="44.37468071156972" lon="9.865422796636606"><ele>321.0</ele><time>2026-04-11T13:25:19.999Z</time></trkpt><trkpt lat="44.374568923155636" lon="9.865192004581484"><ele>321.6666666666667</ele><time>2026-04-11T13:25:20.999Z</time></trkpt><trkpt lat="44.374458369532356" lon="9.864960509816592"><ele>322.33333333333337</ele><time>2026-04-11T13:25:21.999Z</time></trkpt><trkpt lat="44.37436397987238" lon="9.864739225182872"><ele>323.0</ele><time>2026-04-11T13:25:22.999Z</time></trkpt><trkpt lat="44.37427007863081" lon="9.864578895565728"><ele>323.0</ele><time>2026-04-11T13:25:23.999Z</time></trkpt><trkpt lat="44.374192255789595" lon="9.864446649441433"><ele>323.0</ele><time>2026-04-11T13:25:24.999Z</time></trkpt><trkpt lat="44.37406724626613" lon="9.864366030763744"><ele>323.0</ele><time>2026-04-11T13:25:25.999Z</time></trkpt><trkpt lat="44.37394809982979" lon="9.864381373461109"><ele>323.0</ele><time>2026-04-11T13:25:26.999Z</time></trkpt><trkpt lat="44.373819240103415" lon="9.864459959990732"><ele>324.75</ele><time>2026-04-11T13:25:27.999Z</time></trkpt><trkpt lat="44.3737185808663" lon="9.864607939643225"><ele>326.5</ele><time>2026-04-11T13:25:28.999Z</time></trkpt><trkpt lat="44.37367347527822" lon="9.864763559256986"><ele>328.25</ele><time>2026-04-11T13:25:29.999Z</time></trkpt><trkpt lat="44.37372257669759" lon="9.864950113403573"><ele>330.0</ele><time>2026-04-11T13:25:30.999Z</time></trkpt><trkpt lat="44.37374692632669" lon="9.865160083493263"><ele>331.0</ele><time>2026-04-11T13:25:31.999Z</time></trkpt><trkpt lat="44.373792210166236" lon="9.865387998827124"><ele>332.0</ele><time>2026-04-11T13:25:32.999Z</time></trkpt><trkpt lat="44.37383094298587" lon="9.865630239227592"><ele>333.0</ele><time>2026-04-11T13:25:33.999Z</time></trkpt><trkpt lat="44.373874655415825" lon="9.865840242859349"><ele>333.2</ele><time>2026-04-11T13:25:34.999Z</time></trkpt><trkpt lat="44.37389557028815" lon="9.866022976272948"><ele>333.4</ele><time>2026-04-11T13:25:36Z</time></trkpt><trkpt lat="44.373877950960186" lon="9.86616513621389"><ele>333.59999999999997</ele><time>2026-04-11T13:25:37Z</time></trkpt><trkpt lat="44.37381718405752" lon="9.86626121208829"><ele>333.79999999999995</ele><time>2026-04-11T13:25:38Z</time></trkpt><trkpt lat="44.373727805210834" lon="9.866276992176953"><ele>334.0</ele><time>2026-04-11T13:25:39Z</time></trkpt><trkpt lat="44.37363845377704" lon="9.866213777352545"><ele>334.0</ele><time>2026-04-11T13:25:40Z</time></trkpt><trkpt lat="44.373602045264896" lon="9.866040326390763"><ele>334.0</ele><time>2026-04-11T13:25:41Z</time></trkpt><trkpt lat="44.37358571284923" lon="9.865842356759714"><ele>334.0</ele><time>2026-04-11T13:25:42Z</time></trkpt><trkpt lat="44.37354356118037" lon="9.865594474150848"><ele>333.75</ele><time>2026-04-11T13:25:43Z</time></trkpt><trkpt lat="44.37352483298111" lon="9.865369653255485"><ele>333.5</ele><time>2026-04-11T13:25:44Z</time></trkpt><trkpt lat="44.37348990423025" lon="9.865154926163527"><ele>333.25</ele><time>2026-04-11T13:25:45Z</time></trkpt><trkpt lat="44.37344444268099" lon="9.86498661462813"><ele>333.0</ele><time>2026-04-11T13:25:46Z</time></trkpt><trkpt lat="44.37336727574614" lon="9.864874318192571"><ele>332.25</ele><time>2026-04-11T13:25:47Z</time></trkpt><trkpt lat="44.37325157979388" lon="9.864814475985039"><ele>331.5</ele><time>2026-04-11T13:25:48Z</time></trkpt><trkpt lat="44.37312170589697" lon="9.86484505824479"><ele>330.75</ele><time>2026-04-11T13:25:49Z</time></trkpt><trkpt lat="44.37301712889218" lon="9.864957039245061"><ele>330.0</ele><time>2026-04-11T13:25:50Z</time></trkpt><trkpt lat="44.37295304062118" lon="9.865149296927147"><ele>334.3333333333333</ele><time>2026-04-11T13:25:51Z</time></trkpt><trkpt lat="44.372924852998814" lon="9.86537251605286"><ele>338.66666666666663</ele><time>2026-04-11T13:25:52Z</time></trkpt><trkpt lat="44.37291902851151" lon="9.865632217659527"><ele>343.0</ele><time>2026-04-11T13:25:53Z</time></trkpt><trkpt lat="44.372860770380726" lon="9.865873974056825"><ele>341.25</ele><time>2026-04-11T13:25:54Z</time></trkpt><trkpt lat="44.37283132892729" lon="9.866102405069755"><ele>339.5</ele><time>2026-04-11T13:25:55Z</time></trkpt><trkpt lat="44.372764215111864" lon="9.866253012147025"><ele>337.75</ele><time>2026-04-11T13:25:56Z</time></trkpt><trkpt lat="44.37271148023567" lon="9.866339771023137"><ele>336.0</ele><time>2026-04-11T13:25:57Z</time></trkpt><trkpt lat="44.37259966062461" lon="9.866328187846827"><ele>336.0</ele><time>2026-04-11T13:25:58Z</time></trkpt><trkpt lat="44.372459459407985" lon="9.8663462319953"><ele>336.0</ele><time>2026-04-11T13:25:59Z</time></trkpt><trkpt lat="44.3723004981083" lon="9.866294793317756"><ele>336.0</ele><time>2026-04-11T13:26:00Z</time></trkpt><trkpt lat="44.372180343577604" lon="9.866205447295417"><ele>336.0</ele><time>2026-04-11T13:26:01Z</time></trkpt><trkpt lat="44.37210285829289" lon="9.866038056880802"><ele>340.0</ele><time>2026-04-11T13:26:02Z</time></trkpt><trkpt lat="44.372007814190475" lon="9.865851630114669"><ele>344.0</ele><time>2026-04-11T13:26:03Z</time></trkpt><trkpt lat="44.371931708064224" lon="9.865615103931098"><ele>348.0</ele><time>2026-04-11T13:26:04Z</time></trkpt><trkpt lat="44.37186487606239" lon="9.86540414531911"><ele>348.0</ele><time>2026-04-11T13:26:05Z</time></trkpt><trkpt lat="44.37181007790806" lon="9.865212392879627"><ele>348.0</ele><time>2026-04-11T13:26:06Z</time></trkpt><trkpt lat="44.3717635260472" lon="9.865069679086362"><ele>348.0</ele><time>2026-04-11T13:26:07Z</time></trkpt><trkpt lat="44.371725693066296" lon="9.864946021871914"><ele>348.0</ele><time>2026-04-11T13:26:08Z</time></trkpt><trkpt lat="44.37168815731244" lon="9.8648498204538"><ele>348.0</ele><time>2026-04-11T13:26:09Z</time></trkpt><trkpt lat="44.37163061530792" lon="9.864774973337438"><ele>351.25</ele><time>2026-04-11T13:26:10Z</time></trkpt><trkpt lat="44.37153544951966" lon="9.864747760720604"><ele>354.5</ele><time>2026-04-11T13:26:11Z</time></trkpt><trkpt lat="44.37142964665209" lon="9.864765608289257"><ele>357.75</ele><time>2026-04-11T13:26:12Z</time></trkpt><trkpt lat="44.37132808024612" lon="9.864868346451326"><ele>361.0</ele><time>2026-04-11T13:26:13Z</time></trkpt><trkpt lat="44.37122710971493" lon="9.865048183522829"><ele>358.25</ele><time>2026-04-11T13:26:14Z</time></trkpt><trkpt lat="44.37109200418743" lon="9.865248582896175"><ele>355.5</ele><time>2026-04-11T13:26:15Z</time></trkpt><trkpt lat="44.370972316160376" lon="9.865356024854886"><ele>352.75</ele><time>2026-04-11T13:26:16Z</time></trkpt><trkpt lat="44.370879178807584" lon="9.865382055474566"><ele>350.0</ele><time>2026-04-11T13:26:17Z</time></trkpt><trkpt lat="44.37077824102084" lon="9.865264880722176"><ele>350.0</ele><time>2026-04-11T13:26:18Z</time></trkpt><trkpt lat="44.37065870105602" lon="9.865153046509855"><ele>350.0</ele><time>2026-04-11T13:26:19Z</time></trkpt><trkpt lat="44.3705549160824" lon="9.865013471045984"><ele>350.0</ele><time>2026-04-11T13:26:20Z</time></trkpt><trkpt lat="44.37047993885837" lon="9.864796174398661"><ele>351.5</ele><time>2026-04-11T13:26:21Z</time></trkpt><trkpt lat="44.37040664538395" lon="9.864632920574026"><ele>353.0</ele><time>2026-04-11T13:26:22Z</time></trkpt><trkpt lat="44.37036581827801" lon="9.864475733216162"><ele>354.5</ele><time>2026-04-11T13:26:23Z</time></trkpt><trkpt lat="44.37037035783158" lon="9.864357070697793"><ele>356.0</ele><time>2026-04-11T13:26:24Z</time></trkpt><trkpt lat="44.370428139586345" lon="9.864216159117412"><ele>356.0</ele><time>2026-04-11T13:26:25Z</time></trkpt><trkpt lat="44.370479509443854" lon="9.86406501097509"><ele>356.0</ele><time>2026-04-11T13:26:26Z</time></trkpt><trkpt lat="44.37047636866904" lon="9.863922994179216"><ele>356.0</ele><time>2026-04-11T13:26:27Z</time></trkpt><trkpt lat="44.3703960582892" lon="9.86378491657709"><ele>356.0</ele><time>2026-04-11T13:26:28Z</time></trkpt><trkpt lat="44.37026840248854" lon="9.86365985696273"><ele>356.0</ele><time>2026-04-11T13:26:29Z</time></trkpt><trkpt lat="44.37019128509996" lon="9.863545541073714"><ele>356.0</ele><time>2026-04-11T13:26:30Z</time></trkpt><trkpt lat="44.37021945347326" lon="9.863423294993309"><ele>356.0</ele><time>2026-04-11T13:26:31Z</time></trkpt><trkpt lat="44.37023413426063" lon="9.863246037425405"><ele>356.0</ele><time>2026-04-11T13:26:32Z</time></trkpt><trkpt lat="44.370230332450184" lon="9.863004408102832"><ele>359.33333333333337</ele><time>2026-04-11T13:26:33Z</time></trkpt><trkpt lat="44.370192564963745" lon="9.862740955416482"><ele>362.6666666666667</ele><time>2026-04-11T13:26:34Z</time></trkpt><trkpt lat="44.37015900941495" lon="9.862471562537516"><ele>366.0</ele><time>2026-04-11T13:26:35Z</time></trkpt><trkpt lat="44.37014066961275" lon="9.862184253126156"><ele>368.0</ele><time>2026-04-11T13:26:36Z</time></trkpt><trkpt lat="44.37011637252176" lon="9.861934939949313"><ele>370.0</ele><time>2026-04-11T13:26:37Z</time></trkpt><trkpt lat="44.37007412936886" lon="9.861716213669233"><ele>372.0</ele><time>2026-04-11T13:26:38Z</time></trkpt><trkpt lat="44.3699946105415" lon="9.86152602671519"><ele>375.0</ele><time>2026-04-11T13:26:39Z</time></trkpt><trkpt lat="44.36989225266588" lon="9.861377308936737"><ele>378.0</ele><time>2026-04-11T13:26:40Z</time></trkpt><trkpt lat="44.369755491518724" lon="9.861249206164075"><ele>381.0</ele><time>2026-04-11T13:26:41Z</time></trkpt><trkpt lat="44.36958468024905" lon="9.861173165949412"><ele>381.6666666666667</ele><time>2026-04-11T13:26:42Z</time></trkpt><trkpt lat="44.36942860320187" lon="9.861154969411908"><ele>382.33333333333337</ele><time>2026-04-11T13:26:43Z</time></trkpt><trkpt lat="44.36927532010398" lon="9.861204439815321"><ele>383.0</ele><time>2026-04-11T13:26:44Z</time></trkpt><trkpt lat="44.3691089531609" lon="9.861318648804069"><ele>383.0</ele><time>2026-04-11T13:26:44.999Z</time></trkpt><trkpt lat="44.36895733441161" lon="9.861483043847148"><ele>383.0</ele><time>2026-04-11T13:26:45.999Z</time></trkpt><trkpt lat="44.368777673198046" lon="9.861673814580119"><ele>383.0</ele><time>2026-04-11T13:26:46.999Z</time></trkpt><trkpt lat="44.368600388394924" lon="9.861842937038935"><ele>384.33333333333337</ele><time>2026-04-11T13:26:47.999Z</time></trkpt><trkpt lat="44.368421483546726" lon="9.862009950581754"><ele>385.6666666666667</ele><time>2026-04-11T13:26:48.999Z</time></trkpt><trkpt lat="44.36826365266821" lon="9.862152944331138"><ele>387.0</ele><time>2026-04-11T13:26:49.999Z</time></trkpt><trkpt lat="44.368121680606386" lon="9.862280415925774"><ele>387.5</ele><time>2026-04-11T13:26:50.999Z</time></trkpt><trkpt lat="44.36800984572105" lon="9.8624290558674"><ele>388.0</ele><time>2026-04-11T13:26:51.999Z</time></trkpt><trkpt lat="44.36794867709572" lon="9.862595355219396"><ele>388.5</ele><time>2026-04-11T13:26:52.999Z</time></trkpt><trkpt lat="44.36792096697245" lon="9.862798918393922"><ele>389.0</ele><time>2026-04-11T13:26:53.999Z</time></trkpt><trkpt lat="44.367865308988826" lon="9.86292183413871"><ele>389.0</ele><time>2026-04-11T13:26:54.999Z</time></trkpt><trkpt lat="44.36779321580974" lon="9.862914108800322"><ele>389.0</ele><time>2026-04-11T13:26:55.999Z</time></trkpt><trkpt lat="44.367721339731766" lon="9.862748205014006"><ele>389.0</ele><time>2026-04-11T13:26:57.999Z</time></trkpt><trkpt lat="44.36777007325408" lon="9.862607069885733"><ele>389.0</ele><time>2026-04-11T13:26:58.999Z</time></trkpt><trkpt lat="44.367878909228764" lon="9.862471265914007"><ele>388.3333333333333</ele><time>2026-04-11T13:26:59.999Z</time></trkpt><trkpt lat="44.36800367907572" lon="9.862267330249209"><ele>387.66666666666663</ele><time>2026-04-11T13:27:00.999Z</time></trkpt><trkpt lat="44.36815083909756" lon="9.862021008740316"><ele>387.0</ele><time>2026-04-11T13:27:01.999Z</time></trkpt><trkpt lat="44.36826271867348" lon="9.861813475064798"><ele>389.66666666666663</ele><time>2026-04-11T13:27:02.999Z</time></trkpt><trkpt lat="44.36836132247928" lon="9.861624376590628"><ele>392.3333333333333</ele><time>2026-04-11T13:27:03.999Z</time></trkpt><trkpt lat="44.368423842720134" lon="9.861394329261802"><ele>395.0</ele><time>2026-04-11T13:27:04.999Z</time></trkpt><trkpt lat="44.36847679232854" lon="9.86112372667061"><ele>396.0</ele><time>2026-04-11T13:27:05.999Z</time></trkpt><trkpt lat="44.368525521346434" lon="9.860824223499003"><ele>397.0</ele><time>2026-04-11T13:27:06.999Z</time></trkpt><trkpt lat="44.36859313434569" lon="9.860519178081727"><ele>398.0</ele><time>2026-04-11T13:27:07.999Z</time></trkpt><trkpt lat="44.36866732205847" lon="9.860206997086001"><ele>396.0</ele><time>2026-04-11T13:27:08.999Z</time></trkpt><trkpt lat="44.36873769759723" lon="9.859910391806537"><ele>394.0</ele><time>2026-04-11T13:27:09.999Z</time></trkpt><trkpt lat="44.36880085982223" lon="9.859645169818101"><ele>392.0</ele><time>2026-04-11T13:27:10.999Z</time></trkpt><trkpt lat="44.36886544977492" lon="9.859421250372097"><ele>397.66666666666663</ele><time>2026-04-11T13:27:11.999Z</time></trkpt><trkpt lat="44.36896417780221" lon="9.859250296791977"><ele>403.33333333333337</ele><time>2026-04-11T13:27:12.999Z</time></trkpt><trkpt lat="44.36906644326589" lon="9.859074593466774"><ele>409.0</ele><time>2026-04-11T13:27:13.999Z</time></trkpt><trkpt lat="44.36916779795097" lon="9.858936808075194"><ele>409.0</ele><time>2026-04-11T13:27:14.999Z</time></trkpt><trkpt lat="44.36930060675217" lon="9.858792813487382"><ele>409.0</ele><time>2026-04-11T13:27:15.999Z</time></trkpt><trkpt lat="44.36943542477812" lon="9.858630908263356"><ele>409.0</ele><time>2026-04-11T13:27:16.999Z</time></trkpt><trkpt lat="44.36958071808419" lon="9.858488169139239"><ele>413.33333333333337</ele><time>2026-04-11T13:27:17.999Z</time></trkpt><trkpt lat="44.36970891399563" lon="9.858334316765273"><ele>417.66666666666663</ele><time>2026-04-11T13:27:18.999Z</time></trkpt><trkpt lat="44.369820876070136" lon="9.858149591002057"><ele>422.0</ele><time>2026-04-11T13:27:19.999Z</time></trkpt><trkpt lat="44.36992688749389" lon="9.857928244458135"><ele>422.0</ele><time>2026-04-11T13:27:20.999Z</time></trkpt><trkpt lat="44.37005739968792" lon="9.85772922101582"><ele>422.0</ele><time>2026-04-11T13:27:21.999Z</time></trkpt><trkpt lat="44.37019543086046" lon="9.857526020716346"><ele>422.0</ele><time>2026-04-11T13:27:22.999Z</time></trkpt><trkpt lat="44.37032632448943" lon="9.857302353409187"><ele>424.0</ele><time>2026-04-11T13:27:23.999Z</time></trkpt><trkpt lat="44.37046897986088" lon="9.857096243627481"><ele>426.0</ele><time>2026-04-11T13:27:24.999Z</time></trkpt><trkpt lat="44.370616418396004" lon="9.856879977136781"><ele>428.0</ele><time>2026-04-11T13:27:25.999Z</time></trkpt><trkpt lat="44.37074648117007" lon="9.856682884045597"><ele>428.0</ele><time>2026-04-11T13:27:26.999Z</time></trkpt><trkpt lat="44.37086069602409" lon="9.85649280828912"><ele>428.0</ele><time>2026-04-11T13:27:27.999Z</time></trkpt><trkpt lat="44.37094268570924" lon="9.85631093408748"><ele>428.0</ele><time>2026-04-11T13:27:28.999Z</time></trkpt><trkpt lat="44.37099543674652" lon="9.856065448101166"><ele>426.66666666666663</ele><time>2026-04-11T13:27:29.999Z</time></trkpt><trkpt lat="44.37103582060307" lon="9.85579968264952"><ele>425.33333333333337</ele><time>2026-04-11T13:27:30.999Z</time></trkpt><trkpt lat="44.37107557008965" lon="9.855517146306443"><ele>424.0</ele><time>2026-04-11T13:27:31.999Z</time></trkpt><trkpt lat="44.37112624852462" lon="9.855256789052223"><ele>423.5</ele><time>2026-04-11T13:27:32.999Z</time></trkpt><trkpt lat="44.37120064162028" lon="9.855069408982258"><ele>423.0</ele><time>2026-04-11T13:27:33.999Z</time></trkpt><trkpt lat="44.37127565160023" lon="9.854942246382938"><ele>422.5</ele><time>2026-04-11T13:27:34.999Z</time></trkpt><trkpt lat="44.371366478889804" lon="9.854837535690514"><ele>422.0</ele><time>2026-04-11T13:27:35.999Z</time></trkpt><trkpt lat="44.3714853262137" lon="9.854748982976314"><ele>430.3333333333333</ele><time>2026-04-11T13:27:36.999Z</time></trkpt><trkpt lat="44.371627602726626" lon="9.854658441514848"><ele>438.66666666666663</ele><time>2026-04-11T13:27:37.999Z</time></trkpt><trkpt lat="44.37178397691784" lon="9.854536432774584"><ele>447.0</ele><time>2026-04-11T13:27:38.999Z</time></trkpt><trkpt lat="44.3719505097493" lon="9.854430772986385"><ele>447.0</ele><time>2026-04-11T13:27:39.999Z</time></trkpt><trkpt lat="44.37210705384965" lon="9.854335988788902"><ele>447.0</ele><time>2026-04-11T13:27:40.999Z</time></trkpt><trkpt lat="44.372228816756255" lon="9.854262428396995"><ele>447.0</ele><time>2026-04-11T13:27:42Z</time></trkpt><trkpt lat="44.37234978392164" lon="9.85416370441131"><ele>447.0</ele><time>2026-04-11T13:27:43Z</time></trkpt><trkpt lat="44.37242326016856" lon="9.854023287031104"><ele>447.6</ele><time>2026-04-11T13:27:44Z</time></trkpt><trkpt lat="44.372464658916776" lon="9.853874698111316"><ele>448.20000000000005</ele><time>2026-04-11T13:27:45Z</time></trkpt><trkpt lat="44.372469933034125" lon="9.853721181676224"><ele>448.8</ele><time>2026-04-11T13:27:46Z</time></trkpt><trkpt lat="44.37244415711837" lon="9.853597791172282"><ele>449.4</ele><time>2026-04-11T13:27:47Z</time></trkpt><trkpt lat="44.37241782220832" lon="9.853497015717501"><ele>450.0</ele><time>2026-04-11T13:27:48Z</time></trkpt><trkpt lat="44.37236183292284" lon="9.85338565384729"><ele>450.0</ele><time>2026-04-11T13:27:49Z</time></trkpt><trkpt lat="44.3723055845521" lon="9.853250521096786"><ele>450.0</ele><time>2026-04-11T13:27:50Z</time></trkpt><trkpt lat="44.372240509681646" lon="9.853079218910425"><ele>450.0</ele><time>2026-04-11T13:27:51Z</time></trkpt><trkpt lat="44.37216888061707" lon="9.852901260064876"><ele>450.0</ele><time>2026-04-11T13:27:52Z</time></trkpt><trkpt lat="44.37208571680238" lon="9.852713619615779"><ele>447.66666666666663</ele><time>2026-04-11T13:27:53Z</time></trkpt><trkpt lat="44.37200027118622" lon="9.852512246487818"><ele>445.3333333333333</ele><time>2026-04-11T13:27:54Z</time></trkpt><trkpt lat="44.37191903135504" lon="9.85230467834585"><ele>443.0</ele><time>2026-04-11T13:27:55Z</time></trkpt><trkpt lat="44.37184975255445" lon="9.852122771155353"><ele>443.0</ele><time>2026-04-11T13:27:56Z</time></trkpt><trkpt lat="44.37180939789344" lon="9.851961359555098"><ele>443.0</ele><time>2026-04-11T13:27:57Z</time></trkpt><trkpt lat="44.37183701725735" lon="9.851810466348388"><ele>443.0</ele><time>2026-04-11T13:27:58Z</time></trkpt><trkpt lat="44.37187980850166" lon="9.851663026178999"><ele>443.0</ele><time>2026-04-11T13:27:59Z</time></trkpt><trkpt lat="44.371970189043765" lon="9.851523929329126"><ele>442.3333333333333</ele><time>2026-04-11T13:28:00Z</time></trkpt><trkpt lat="44.37206914516353" lon="9.851337855425058"><ele>441.66666666666663</ele><time>2026-04-11T13:28:01Z</time></trkpt><trkpt lat="44.372177445405605" lon="9.851137539908576"><ele>441.0</ele><time>2026-04-11T13:28:02Z</time></trkpt><trkpt lat="44.372276050578336" lon="9.850938491032858"><ele>447.66666666666663</ele><time>2026-04-11T13:28:03Z</time></trkpt><trkpt lat="44.372376177125325" lon="9.850733353114013"><ele>454.3333333333333</ele><time>2026-04-11T13:28:04Z</time></trkpt><trkpt lat="44.372478607878186" lon="9.85052374018306"><ele>461.0</ele><time>2026-04-11T13:28:05Z</time></trkpt><trkpt lat="44.37258146779643" lon="9.85031926392068"><ele>461.0</ele><time>2026-04-11T13:28:06Z</time></trkpt><trkpt lat="44.372680239744625" lon="9.850150322042836"><ele>461.0</ele><time>2026-04-11T13:28:07Z</time></trkpt><trkpt lat="44.37274740397533" lon="9.850010875527827"><ele>461.0</ele><time>2026-04-11T13:28:08Z</time></trkpt><trkpt lat="44.372815513802195" lon="9.849884933291971"><ele>461.0</ele><time>2026-04-11T13:28:09Z</time></trkpt><trkpt lat="44.37289663865149" lon="9.849785498023694"><ele>464.25</ele><time>2026-04-11T13:28:10Z</time></trkpt><trkpt lat="44.37304916879909" lon="9.849722996614565"><ele>467.5</ele><time>2026-04-11T13:28:11Z</time></trkpt><trkpt lat="44.3731715647226" lon="9.849627704205497"><ele>470.75</ele><time>2026-04-11T13:28:12Z</time></trkpt><trkpt lat="44.37326056268348" lon="9.849552436753264"><ele>474.0</ele><time>2026-04-11T13:28:13Z</time></trkpt><trkpt lat="44.37328742822583" lon="9.849411913685303"><ele>475.0</ele><time>2026-04-11T13:28:14Z</time></trkpt><trkpt lat="44.37330240405964" lon="9.849278414291371"><ele>476.0</ele><time>2026-04-11T13:28:15Z</time></trkpt><trkpt lat="44.37324520277852" lon="9.84915802270385"><ele>477.0</ele><time>2026-04-11T13:28:16Z</time></trkpt><trkpt lat="44.373127589027426" lon="9.849051025582384"><ele>478.0</ele><time>2026-04-11T13:28:17Z</time></trkpt><trkpt lat="44.37298664836538" lon="9.848935764068163"><ele>475.75</ele><time>2026-04-11T13:28:18Z</time></trkpt><trkpt lat="44.372861213090275" lon="9.848791474011641"><ele>473.5</ele><time>2026-04-11T13:28:19Z</time></trkpt><trkpt lat="44.37276870212718" lon="9.848639153945408"><ele>471.25</ele><time>2026-04-11T13:28:20Z</time></trkpt><trkpt lat="44.37268867678215" lon="9.848507364817447"><ele>469.0</ele><time>2026-04-11T13:28:21Z</time></trkpt><trkpt lat="44.37256049918623" lon="9.848448089280087"><ele>469.0</ele><time>2026-04-11T13:28:22Z</time></trkpt><trkpt lat="44.37240758125878" lon="9.848427742952273"><ele>469.0</ele><time>2026-04-11T13:28:23Z</time></trkpt><trkpt lat="44.37226336664999" lon="9.848330896605319"><ele>469.0</ele><time>2026-04-11T13:28:24Z</time></trkpt><trkpt lat="44.37215123583206" lon="9.848221295093047"><ele>468.25</ele><time>2026-04-11T13:28:25Z</time></trkpt><trkpt lat="44.37207914944959" lon="9.848065939868102"><ele>467.5</ele><time>2026-04-11T13:28:26Z</time></trkpt><trkpt lat="44.37201956196244" lon="9.847889849121016"><ele>466.75</ele><time>2026-04-11T13:28:27Z</time></trkpt><trkpt lat="44.37197998495679" lon="9.847699976840877"><ele>466.0</ele><time>2026-04-11T13:28:28Z</time></trkpt><trkpt lat="44.37192009319773" lon="9.847557021718318"><ele>466.0</ele><time>2026-04-11T13:28:29Z</time></trkpt><trkpt lat="44.37182110788457" lon="9.847483826641582"><ele>466.0</ele><time>2026-04-11T13:28:30Z</time></trkpt><trkpt lat="44.37166276689176" lon="9.847477785099494"><ele>466.0</ele><time>2026-04-11T13:28:31Z</time></trkpt><trkpt lat="44.371534849261145" lon="9.847457363598483"><ele>466.0</ele><time>2026-04-11T13:28:32Z</time></trkpt><trkpt lat="44.37144718903603" lon="9.847422592180163"><ele>466.0</ele><time>2026-04-11T13:28:33Z</time></trkpt><trkpt lat="44.371383873318834" lon="9.847352734893171"><ele>466.0</ele><time>2026-04-11T13:28:34Z</time></trkpt><trkpt lat="44.371387410656006" lon="9.847198403035517"><ele>466.0</ele><time>2026-04-11T13:28:35Z</time></trkpt><trkpt lat="44.371442937381936" lon="9.847066754107816"><ele>466.0</ele><time>2026-04-11T13:28:36Z</time></trkpt><trkpt lat="44.37152265704745" lon="9.846985847272856"><ele>466.0</ele><time>2026-04-11T13:28:37Z</time></trkpt><trkpt lat="44.37163128349541" lon="9.846888306792565"><ele>464.33333333333337</ele><time>2026-04-11T13:28:38Z</time></trkpt><trkpt lat="44.37175873023786" lon="9.84675133121848"><ele>462.66666666666663</ele><time>2026-04-11T13:28:39Z</time></trkpt><trkpt lat="44.371891722175214" lon="9.846599116488145"><ele>461.0</ele><time>2026-04-11T13:28:40Z</time></trkpt><trkpt lat="44.372007694969" lon="9.846459025417753"><ele>461.0</ele><time>2026-04-11T13:28:41Z</time></trkpt><trkpt lat="44.372099868868034" lon="9.846348325171391"><ele>461.0</ele><time>2026-04-11T13:28:42Z</time></trkpt><trkpt lat="44.37211996387898" lon="9.846223865523488"><ele>461.0</ele><time>2026-04-11T13:28:43Z</time></trkpt><trkpt lat="44.372068590471414" lon="9.846090418025545"><ele>461.0</ele><time>2026-04-11T13:28:44Z</time></trkpt><trkpt lat="44.371980076369134" lon="9.845897000936612"><ele>459.75</ele><time>2026-04-11T13:28:45Z</time></trkpt><trkpt lat="44.3719028015882" lon="9.845697392128304"><ele>458.5</ele><time>2026-04-11T13:28:46Z</time></trkpt><trkpt lat="44.371865847404514" lon="9.845519278446954"><ele>457.25</ele><time>2026-04-11T13:28:47Z</time></trkpt><trkpt lat="44.371872289906236" lon="9.845381447717049"><ele>456.0</ele><time>2026-04-11T13:28:47.999Z</time></trkpt><trkpt lat="44.37193936214199" lon="9.84526061441603"><ele>456.0</ele><time>2026-04-11T13:28:48.999Z</time></trkpt><trkpt lat="44.37207833603006" lon="9.84516412762453"><ele>456.0</ele><time>2026-04-11T13:28:49.999Z</time></trkpt><trkpt lat="44.37223274055467" lon="9.845005527543398"><ele>456.0</ele><time>2026-04-11T13:28:50.999Z</time></trkpt><trkpt lat="44.37239877737064" lon="9.84486869628166"><ele>465.66666666666663</ele><time>2026-04-11T13:28:51.999Z</time></trkpt><trkpt lat="44.37257140414358" lon="9.844719505219494"><ele>475.3333333333333</ele><time>2026-04-11T13:28:52.999Z</time></trkpt><trkpt lat="44.372739384993466" lon="9.844572262355685"><ele>485.0</ele><time>2026-04-11T13:28:53.999Z</time></trkpt><trkpt lat="44.372885242138004" lon="9.84446465401726"><ele>485.0</ele><time>2026-04-11T13:28:54.999Z</time></trkpt><trkpt lat="44.37296965152402" lon="9.844385208672591"><ele>485.0</ele><time>2026-04-11T13:28:55.999Z</time></trkpt><trkpt lat="44.37301320848903" lon="9.844227373721719"><ele>485.0</ele><time>2026-04-11T13:28:57.999Z</time></trkpt><trkpt lat="44.37301612158241" lon="9.844062070483846"><ele>485.0</ele><time>2026-04-11T13:28:58.999Z</time></trkpt><trkpt lat="44.37296896999989" lon="9.843856274946436"><ele>487.25</ele><time>2026-04-11T13:28:59.999Z</time></trkpt><trkpt lat="44.372906015769345" lon="9.843639780777986"><ele>489.5</ele><time>2026-04-11T13:29:00.999Z</time></trkpt><trkpt lat="44.37292014749325" lon="9.843475088524668"><ele>491.75</ele><time>2026-04-11T13:29:01.999Z</time></trkpt><trkpt lat="44.3729681935271" lon="9.843376570459027"><ele>494.0</ele><time>2026-04-11T13:29:02.999Z</time></trkpt><trkpt lat="44.373046016432504" lon="9.843276655630687"><ele>494.0</ele><time>2026-04-11T13:29:03.999Z</time></trkpt><trkpt lat="44.37313334589662" lon="9.843118074827334"><ele>494.0</ele><time>2026-04-11T13:29:04.999Z</time></trkpt><trkpt lat="44.37322595475046" lon="9.842956476485641"><ele>494.0</ele><time>2026-04-11T13:29:05.999Z</time></trkpt><trkpt lat="44.3733031918779" lon="9.84281767572505"><ele>494.0</ele><time>2026-04-11T13:29:06.999Z</time></trkpt><trkpt lat="44.37333012822067" lon="9.842716936968472"><ele>494.75</ele><time>2026-04-11T13:29:07.999Z</time></trkpt><trkpt lat="44.373296082054765" lon="9.842608217020514"><ele>495.5</ele><time>2026-04-11T13:29:08.999Z</time></trkpt><trkpt lat="44.373210513899686" lon="9.84248848055052"><ele>496.25</ele><time>2026-04-11T13:29:09.999Z</time></trkpt><trkpt lat="44.373065069363946" lon="9.842387948340676"><ele>497.0</ele><time>2026-04-11T13:29:10.999Z</time></trkpt><trkpt lat="44.37290754193868" lon="9.842285051730556"><ele>486.0</ele><time>2026-04-11T13:29:11.999Z</time></trkpt><trkpt lat="44.372765659673846" lon="9.842142994149865"><ele>475.0</ele><time>2026-04-11T13:29:12.999Z</time></trkpt><trkpt lat="44.372621577374225" lon="9.842027884309024"><ele>464.0</ele><time>2026-04-11T13:29:13.999Z</time></trkpt><trkpt lat="44.372504485362185" lon="9.841911375524163"><ele>465.66666666666663</ele><time>2026-04-11T13:29:14.999Z</time></trkpt><trkpt lat="44.37241006739833" lon="9.841753348414542"><ele>467.33333333333337</ele><time>2026-04-11T13:29:15.999Z</time></trkpt><trkpt lat="44.37228082570671" lon="9.841612313778764"><ele>469.0</ele><time>2026-04-11T13:29:16.999Z</time></trkpt><trkpt lat="44.37216684308559" lon="9.841473150218775"><ele>469.0</ele><time>2026-04-11T13:29:17.999Z</time></trkpt><trkpt lat="44.37205300169996" lon="9.841359141057232"><ele>469.0</ele><time>2026-04-11T13:29:18.999Z</time></trkpt><trkpt lat="44.3719494948146" lon="9.841261740909571"><ele>469.0</ele><time>2026-04-11T13:29:19.999Z</time></trkpt><trkpt lat="44.37186929502536" lon="9.841138367717255"><ele>469.0</ele><time>2026-04-11T13:29:20.999Z</time></trkpt><trkpt lat="44.37177117042067" lon="9.841008532805962"><ele>474.0</ele><time>2026-04-11T13:29:21.999Z</time></trkpt><trkpt lat="44.371725143599264" lon="9.840805611271547"><ele>479.0</ele><time>2026-04-11T13:29:22.999Z</time></trkpt><trkpt lat="44.37166040993115" lon="9.840573793762875"><ele>484.0</ele><time>2026-04-11T13:29:23.999Z</time></trkpt><trkpt lat="44.37158983907087" lon="9.840342694695659"><ele>488.6666666666667</ele><time>2026-04-11T13:29:24.999Z</time></trkpt><trkpt lat="44.37148515661103" lon="9.840116328868914"><ele>493.33333333333337</ele><time>2026-04-11T13:29:25.999Z</time></trkpt><trkpt lat="44.37136116014818" lon="9.839921210328281"><ele>498.0</ele><time>2026-04-11T13:29:26.999Z</time></trkpt><trkpt lat="44.37125837153389" lon="9.839743543482994"><ele>497.79999999999995</ele><time>2026-04-11T13:29:27.999Z</time></trkpt><trkpt lat="44.371214080650596" lon="9.839604518585013"><ele>497.59999999999997</ele><time>2026-04-11T13:29:28.999Z</time></trkpt><trkpt lat="44.37118645794206" lon="9.839497501961752"><ele>497.40000000000003</ele><time>2026-04-11T13:29:29.999Z</time></trkpt><trkpt lat="44.371234084766726" lon="9.839390854416097"><ele>497.20000000000005</ele><time>2026-04-11T13:29:30.999Z</time></trkpt><trkpt lat="44.37133654438308" lon="9.839302752371678"><ele>497.0</ele><time>2026-04-11T13:29:31.999Z</time></trkpt><trkpt lat="44.37143415727756" lon="9.839178033489947"><ele>497.0</ele><time>2026-04-11T13:29:32.999Z</time></trkpt><trkpt lat="44.37156178084551" lon="9.839046852774217"><ele>497.0</ele><time>2026-04-11T13:29:33.999Z</time></trkpt><trkpt lat="44.3717082508112" lon="9.838891172436306"><ele>497.0</ele><time>2026-04-11T13:29:34.999Z</time></trkpt><trkpt lat="44.37185860813953" lon="9.83875882769067"><ele>497.0</ele><time>2026-04-11T13:29:35.999Z</time></trkpt><trkpt lat="44.3720039945755" lon="9.838676047946974"><ele>497.0</ele><time>2026-04-11T13:29:36.999Z</time></trkpt><trkpt lat="44.37210419153177" lon="9.838542129063997"><ele>497.0</ele><time>2026-04-11T13:29:37.999Z</time></trkpt><trkpt lat="44.372172967396416" lon="9.838353420918061"><ele>497.0</ele><time>2026-04-11T13:29:38.999Z</time></trkpt><trkpt lat="44.372263610353556" lon="9.838137053049714"><ele>497.3333333333333</ele><time>2026-04-11T13:29:39.999Z</time></trkpt><trkpt lat="44.372365738702406" lon="9.837906464035772"><ele>497.66666666666663</ele><time>2026-04-11T13:29:40.999Z</time></trkpt><trkpt lat="44.37248650126587" lon="9.837694482463478"><ele>498.0</ele><time>2026-04-11T13:29:41.999Z</time></trkpt><trkpt lat="44.3726004763512" lon="9.837503474522125"><ele>498.0</ele><time>2026-04-11T13:29:42.999Z</time></trkpt><trkpt lat="44.37268261179219" lon="9.837364849143931"><ele>498.0</ele><time>2026-04-11T13:29:43.999Z</time></trkpt><trkpt lat="44.37272023772315" lon="9.837248907480895"><ele>498.0</ele><time>2026-04-11T13:29:44.999Z</time></trkpt><trkpt lat="44.37271336930924" lon="9.837108955120932"><ele>498.0</ele><time>2026-04-11T13:29:45.999Z</time></trkpt><trkpt lat="44.37264671205689" lon="9.836952007356512"><ele>498.33333333333337</ele><time>2026-04-11T13:29:46.999Z</time></trkpt><trkpt lat="44.37252192584904" lon="9.836781361355785"><ele>498.6666666666667</ele><time>2026-04-11T13:29:48Z</time></trkpt><trkpt lat="44.37244696548938" lon="9.836574337234964"><ele>499.0</ele><time>2026-04-11T13:29:49Z</time></trkpt><trkpt lat="44.37239195182666" lon="9.836398247426244"><ele>499.0</ele><time>2026-04-11T13:29:50Z</time></trkpt><trkpt lat="44.372378651543734" lon="9.836244254940508"><ele>499.0</ele><time>2026-04-11T13:29:51Z</time></trkpt><trkpt lat="44.372398408719775" lon="9.836082745422505"><ele>499.0</ele><time>2026-04-11T13:29:52Z</time></trkpt><trkpt lat="44.37245368854404" lon="9.835893093829798"><ele>499.0</ele><time>2026-04-11T13:29:53Z</time></trkpt><trkpt lat="44.37249078343429" lon="9.835689259196208"><ele>499.6666666666667</ele><time>2026-04-11T13:29:54Z</time></trkpt><trkpt lat="44.37253330970828" lon="9.835502777161823"><ele>500.33333333333337</ele><time>2026-04-11T13:29:55Z</time></trkpt><trkpt lat="44.37250733512431" lon="9.835282782908333"><ele>501.0</ele><time>2026-04-11T13:29:56Z</time></trkpt><trkpt lat="44.372451334658564" lon="9.83502047978983"><ele>501.0</ele><time>2026-04-11T13:29:57Z</time></trkpt><trkpt lat="44.37240686881203" lon="9.83475850957181"><ele>501.0</ele><time>2026-04-11T13:29:58Z</time></trkpt><trkpt lat="44.37237034761006" lon="9.834488761270677"><ele>501.0</ele><time>2026-04-11T13:29:59Z</time></trkpt><trkpt lat="44.37233186449929" lon="9.834237934285882"><ele>505.0</ele><time>2026-04-11T13:30:00Z</time></trkpt><trkpt lat="44.372290504184626" lon="9.83403483032008"><ele>509.0</ele><time>2026-04-11T13:30:01Z</time></trkpt><trkpt lat="44.3722266064989" lon="9.833889704490113"><ele>513.0</ele><time>2026-04-11T13:30:02Z</time></trkpt><trkpt lat="44.37213274602929" lon="9.833792018651762"><ele>517.0</ele><time>2026-04-11T13:30:03Z</time></trkpt><trkpt lat="44.37199565801913" lon="9.833719575970091"><ele>516.3333333333334</ele><time>2026-04-11T13:30:04Z</time></trkpt><trkpt lat="44.37183056110989" lon="9.833644124490005"><ele>515.6666666666666</ele><time>2026-04-11T13:30:05Z</time></trkpt><trkpt lat="44.37167061516271" lon="9.83355785690676"><ele>515.0</ele><time>2026-04-11T13:30:06Z</time></trkpt><trkpt lat="44.37150916578702" lon="9.833459168664517"><ele>505.5</ele><time>2026-04-11T13:30:07Z</time></trkpt><trkpt lat="44.371352982934006" lon="9.833381586858449"><ele>496.0</ele><time>2026-04-11T13:30:08Z</time></trkpt><trkpt lat="44.37121514759146" lon="9.833314642351313"><ele>486.5</ele><time>2026-04-11T13:30:09Z</time></trkpt><trkpt lat="44.37111672640639" lon="9.833242183737692"><ele>477.0</ele><time>2026-04-11T13:30:10Z</time></trkpt><trkpt lat="44.37107643426851" lon="9.833094161591257"><ele>477.0</ele><time>2026-04-11T13:30:11Z</time></trkpt><trkpt lat="44.37105140394851" lon="9.83292001957318"><ele>477.0</ele><time>2026-04-11T13:30:12Z</time></trkpt><trkpt lat="44.37097666408009" lon="9.832707660033599"><ele>477.0</ele><time>2026-04-11T13:30:13Z</time></trkpt><trkpt lat="44.37087572406749" lon="9.832567589140185"><ele>477.0</ele><time>2026-04-11T13:30:14Z</time></trkpt><trkpt lat="44.370719640534666" lon="9.8324812156467"><ele>474.0</ele><time>2026-04-11T13:30:15Z</time></trkpt><trkpt lat="44.37056527322205" lon="9.832412131910528"><ele>471.0</ele><time>2026-04-11T13:30:16Z</time></trkpt><trkpt lat="44.370465270959116" lon="9.832276508511193"><ele>468.0</ele><time>2026-04-11T13:30:17Z</time></trkpt><trkpt lat="44.37033674079833" lon="9.832112365027747"><ele>468.0</ele><time>2026-04-11T13:30:18Z</time></trkpt><trkpt lat="44.37020444141781" lon="9.831934203514626"><ele>468.0</ele><time>2026-04-11T13:30:19Z</time></trkpt><trkpt lat="44.37007878441467" lon="9.831786587006928"><ele>468.0</ele><time>2026-04-11T13:30:20Z</time></trkpt><trkpt lat="44.37000686428989" lon="9.831620874865578"><ele>478.33333333333337</ele><time>2026-04-11T13:30:21Z</time></trkpt><trkpt lat="44.36994739895583" lon="9.831439626860718"><ele>488.6666666666667</ele><time>2026-04-11T13:30:22Z</time></trkpt><trkpt lat="44.36992917387068" lon="9.831204279007226"><ele>499.0</ele><time>2026-04-11T13:30:23Z</time></trkpt><trkpt lat="44.36994130169734" lon="9.830955917540514"><ele>504.5</ele><time>2026-04-11T13:30:24Z</time></trkpt><trkpt lat="44.36994907892799" lon="9.830728678235905"><ele>510.0</ele><time>2026-04-11T13:30:25Z</time></trkpt><trkpt lat="44.369966177376924" lon="9.830551060163927"><ele>515.5</ele><time>2026-04-11T13:30:26Z</time></trkpt><trkpt lat="44.369934879095226" lon="9.830376990560996"><ele>521.0</ele><time>2026-04-11T13:30:27Z</time></trkpt><trkpt lat="44.36983259482471" lon="9.830217489434386"><ele>525.75</ele><time>2026-04-11T13:30:28Z</time></trkpt><trkpt lat="44.36969384064631" lon="9.830122432109071"><ele>530.5</ele><time>2026-04-11T13:30:29Z</time></trkpt><trkpt lat="44.369611686080425" lon="9.830008958901713"><ele>535.25</ele><time>2026-04-11T13:30:30Z</time></trkpt><trkpt lat="44.369592597520224" lon="9.8298883453389"><ele>540.0</ele><time>2026-04-11T13:30:31Z</time></trkpt><trkpt lat="44.36960942910291" lon="9.829727539207637"><ele>534.25</ele><time>2026-04-11T13:30:32Z</time></trkpt><trkpt lat="44.369656059101395" lon="9.829544855719195"><ele>528.5</ele><time>2026-04-11T13:30:33Z</time></trkpt><trkpt lat="44.36966760199558" lon="9.829391917187792"><ele>522.75</ele><time>2026-04-11T13:30:34Z</time></trkpt><trkpt lat="44.369617317495646" lon="9.829292572046535"><ele>517.0</ele><time>2026-04-11T13:30:35Z</time></trkpt><trkpt lat="44.36949984484595" lon="9.8291875791212"><ele>517.0</ele><time>2026-04-11T13:30:36Z</time></trkpt><trkpt lat="44.369345436928285" lon="9.829125309812051"><ele>517.0</ele><time>2026-04-11T13:30:37Z</time></trkpt><trkpt lat="44.36918261581194" lon="9.829152745055717"><ele>517.0</ele><time>2026-04-11T13:30:38Z</time></trkpt><trkpt lat="44.369075893616476" lon="9.829130415351601"><ele>517.0</ele><time>2026-04-11T13:30:39Z</time></trkpt><trkpt lat="44.3690070666957" lon="9.829040803647754"><ele>517.0</ele><time>2026-04-11T13:30:40Z</time></trkpt><trkpt lat="44.36898311324457" lon="9.828870099972168"><ele>517.0</ele><time>2026-04-11T13:30:41Z</time></trkpt><trkpt lat="44.368952309063154" lon="9.828680612980232"><ele>517.0</ele><time>2026-04-11T13:30:42Z</time></trkpt><trkpt lat="44.36887974876004" lon="9.82848016579092"><ele>517.0</ele><time>2026-04-11T13:30:43Z</time></trkpt><trkpt lat="44.36877700780471" lon="9.828334758493469"><ele>515.0</ele><time>2026-04-11T13:30:44Z</time></trkpt><trkpt lat="44.368638614531896" lon="9.828271250639819"><ele>513.0</ele><time>2026-04-11T13:30:45Z</time></trkpt><trkpt lat="44.368457401970836" lon="9.82824243448698"><ele>511.0</ele><time>2026-04-11T13:30:46Z</time></trkpt><trkpt lat="44.36829452426819" lon="9.828199400442594"><ele>511.0</ele><time>2026-04-11T13:30:47Z</time></trkpt><trkpt lat="44.36817599467985" lon="9.828096327749508"><ele>511.0</ele><time>2026-04-11T13:30:48Z</time></trkpt><trkpt lat="44.36807532381758" lon="9.827958842199278"><ele>511.0</ele><time>2026-04-11T13:30:49Z</time></trkpt><trkpt lat="44.36794927777867" lon="9.827762215590397"><ele>514.3333333333334</ele><time>2026-04-11T13:30:50Z</time></trkpt><trkpt lat="44.367818982649844" lon="9.827570955720235"><ele>517.6666666666666</ele><time>2026-04-11T13:30:51Z</time></trkpt><trkpt lat="44.36769055799717" lon="9.827397704739674"><ele>521.0</ele><time>2026-04-11T13:30:52Z</time></trkpt><trkpt lat="44.36753588768379" lon="9.827266152747672"><ele>521.0</ele><time>2026-04-11T13:30:53Z</time></trkpt><trkpt lat="44.36737380296575" lon="9.827161166963172"><ele>521.0</ele><time>2026-04-11T13:30:54Z</time></trkpt><trkpt lat="44.3672341470725" lon="9.827067842922073"><ele>521.0</ele><time>2026-04-11T13:30:54.999Z</time></trkpt><trkpt lat="44.36712907482268" lon="9.82695768192559"><ele>513.25</ele><time>2026-04-11T13:30:55.999Z</time></trkpt><trkpt lat="44.367030662740476" lon="9.826873303412082"><ele>505.5</ele><time>2026-04-11T13:30:56.999Z</time></trkpt><trkpt lat="44.36700919263443" lon="9.826739019740044"><ele>497.75</ele><time>2026-04-11T13:30:57.999Z</time></trkpt><trkpt lat="44.36702252761828" lon="9.826540213503408"><ele>490.0</ele><time>2026-04-11T13:30:58.999Z</time></trkpt><trkpt lat="44.36710650437795" lon="9.826364957459433"><ele>490.0</ele><time>2026-04-11T13:30:59.999Z</time></trkpt><trkpt lat="44.36713199796394" lon="9.826162823155974"><ele>490.0</ele><time>2026-04-11T13:31:00.999Z</time></trkpt><trkpt lat="44.367126974836346" lon="9.825913494961586"><ele>490.0</ele><time>2026-04-11T13:31:01.999Z</time></trkpt><trkpt lat="44.367125490654004" lon="9.825702702608444"><ele>493.0</ele><time>2026-04-11T13:31:02.999Z</time></trkpt><trkpt lat="44.367113581281295" lon="9.825542261761916"><ele>496.0</ele><time>2026-04-11T13:31:03.999Z</time></trkpt><trkpt lat="44.36704149671583" lon="9.825420823625862"><ele>499.0</ele><time>2026-04-11T13:31:04.999Z</time></trkpt><trkpt lat="44.36691425249864" lon="9.825316690610194"><ele>502.0</ele><time>2026-04-11T13:31:05.999Z</time></trkpt><trkpt lat="44.36680786540688" lon="9.825146230973932"><ele>509.6666666666667</ele><time>2026-04-11T13:31:06.999Z</time></trkpt><trkpt lat="44.366733072479924" lon="9.824949819297018"><ele>517.3333333333334</ele><time>2026-04-11T13:31:07.999Z</time></trkpt><trkpt lat="44.366700814514424" lon="9.824760723332522"><ele>525.0</ele><time>2026-04-11T13:31:08.999Z</time></trkpt><trkpt lat="44.366659693369506" lon="9.824532184135897"><ele>527.6666666666666</ele><time>2026-04-11T13:31:09.999Z</time></trkpt><trkpt lat="44.366654585948545" lon="9.824269331295621"><ele>530.3333333333333</ele><time>2026-04-11T13:31:10.999Z</time></trkpt><trkpt lat="44.36664308750377" lon="9.824006880833329"><ele>533.0</ele><time>2026-04-11T13:31:11.999Z</time></trkpt><trkpt lat="44.36663873902903" lon="9.82375954707241"><ele>533.0</ele><time>2026-04-11T13:31:12.999Z</time></trkpt><trkpt lat="44.36665640808588" lon="9.823549165097184"><ele>533.0</ele><time>2026-04-11T13:31:13.999Z</time></trkpt><trkpt lat="44.36670534784964" lon="9.823331848794112"><ele>533.0</ele><time>2026-04-11T13:31:14.999Z</time></trkpt><trkpt lat="44.366782191558876" lon="9.82313914836349"><ele>531.0</ele><time>2026-04-11T13:31:15.999Z</time></trkpt><trkpt lat="44.36687666671131" lon="9.822991846444062"><ele>529.0</ele><time>2026-04-11T13:31:16.999Z</time></trkpt><trkpt lat="44.36700204138005" lon="9.8228538507079"><ele>527.0</ele><time>2026-04-11T13:31:17.999Z</time></trkpt><trkpt lat="44.3671430710311" lon="9.82276246294767"><ele>530.2</ele><time>2026-04-11T13:31:18.999Z</time></trkpt><trkpt lat="44.36724553018792" lon="9.82268058914509"><ele>533.4000000000001</ele><time>2026-04-11T13:31:19.999Z</time></trkpt><trkpt lat="44.36732865973044" lon="9.82263902209869"><ele>536.5999999999999</ele><time>2026-04-11T13:31:20.999Z</time></trkpt><trkpt lat="44.367406890111866" lon="9.822608670076947"><ele>539.8</ele><time>2026-04-11T13:31:21.999Z</time></trkpt><trkpt lat="44.36746265229313" lon="9.822564365449628"><ele>543.0</ele><time>2026-04-11T13:31:22.999Z</time></trkpt><trkpt lat="44.367586211473004" lon="9.822452122419406"><ele>543.0</ele><time>2026-04-11T13:31:24.999Z</time></trkpt><trkpt lat="44.367595880555136" lon="9.822224492137389"><ele>543.0</ele><time>2026-04-11T13:31:25.999Z</time></trkpt><trkpt lat="44.36766263002986" lon="9.82203833494365"><ele>543.0</ele><time>2026-04-11T13:31:26.999Z</time></trkpt><trkpt lat="44.36772386401389" lon="9.821922086074926"><ele>543.0</ele><time>2026-04-11T13:31:27.999Z</time></trkpt><trkpt lat="44.367772596093324" lon="9.821788981316786"><ele>543.0</ele><time>2026-04-11T13:31:28.999Z</time></trkpt><trkpt lat="44.36781602263035" lon="9.821690086449443"><ele>543.0</ele><time>2026-04-11T13:31:29.999Z</time></trkpt><trkpt lat="44.36782490722378" lon="9.821577355539437"><ele>543.0</ele><time>2026-04-11T13:31:30.999Z</time></trkpt><trkpt lat="44.36780767755786" lon="9.821469897475216"><ele>543.0</ele><time>2026-04-11T13:31:31.999Z</time></trkpt><trkpt lat="44.367745334894906" lon="9.821386531900984"><ele>543.0</ele><time>2026-04-11T13:31:32.999Z</time></trkpt><trkpt lat="44.36765424269877" lon="9.821304620389565"><ele>543.0</ele><time>2026-04-11T13:31:33.999Z</time></trkpt><trkpt lat="44.36750027159177" lon="9.821346416152243"><ele>543.0</ele><time>2026-04-11T13:31:34.999Z</time></trkpt><trkpt lat="44.36734587115396" lon="9.82141801204991"><ele>543.0</ele><time>2026-04-11T13:31:35.999Z</time></trkpt><trkpt lat="44.367192032938235" lon="9.821464357126443"><ele>543.0</ele><time>2026-04-11T13:31:36.999Z</time></trkpt><trkpt lat="44.36703067554108" lon="9.821448372686692"><ele>539.3333333333334</ele><time>2026-04-11T13:31:37.999Z</time></trkpt><trkpt lat="44.36690114892522" lon="9.821368192401096"><ele>535.6666666666667</ele><time>2026-04-11T13:31:38.999Z</time></trkpt><trkpt lat="44.36675570994253" lon="9.821256811663504"><ele>532.0</ele><time>2026-04-11T13:31:39.999Z</time></trkpt><trkpt lat="44.36656975921804" lon="9.821152368955937"><ele>532.0</ele><time>2026-04-11T13:31:40.999Z</time></trkpt><trkpt lat="44.366392082901335" lon="9.821066674390083"><ele>532.0</ele><time>2026-04-11T13:31:41.999Z</time></trkpt><trkpt lat="44.36622190928332" lon="9.821028270966437"><ele>532.0</ele><time>2026-04-11T13:31:42.999Z</time></trkpt><trkpt lat="44.366085552983" lon="9.821003406401394"><ele>534.75</ele><time>2026-04-11T13:31:43.999Z</time></trkpt><trkpt lat="44.36598170996634" lon="9.820908337544207"><ele>537.5</ele><time>2026-04-11T13:31:44.999Z</time></trkpt><trkpt lat="44.36589157947541" lon="9.820759139821835"><ele>540.25</ele><time>2026-04-11T13:31:45.999Z</time></trkpt><trkpt lat="44.365775692721066" lon="9.820573953545109"><ele>543.0</ele><time>2026-04-11T13:31:46.999Z</time></trkpt><trkpt lat="44.36568755581771" lon="9.820360976838675"><ele>543.0</ele><time>2026-04-11T13:31:47.999Z</time></trkpt><trkpt lat="44.365597867820526" lon="9.820189776911134"><ele>543.0</ele><time>2026-04-11T13:31:48.999Z</time></trkpt><trkpt lat="44.36549775995364" lon="9.820085592867281"><ele>543.0</ele><time>2026-04-11T13:31:49.999Z</time></trkpt><trkpt lat="44.365349983752004" lon="9.820042377241874"><ele>543.0</ele><time>2026-04-11T13:31:50.999Z</time></trkpt><trkpt lat="44.3651769575765" lon="9.820072065556703"><ele>544.0</ele><time>2026-04-11T13:31:51.999Z</time></trkpt><trkpt lat="44.36504128824582" lon="9.820088396137194"><ele>545.0</ele><time>2026-04-11T13:31:52.999Z</time></trkpt><trkpt lat="44.364943306670845" lon="9.820027731401456"><ele>546.0</ele><time>2026-04-11T13:31:54Z</time></trkpt><trkpt lat="44.36489822164842" lon="9.819919628389112"><ele>547.0</ele><time>2026-04-11T13:31:55Z</time></trkpt><trkpt lat="44.36491677108612" lon="9.819749775471424"><ele>547.0</ele><time>2026-04-11T13:31:56Z</time></trkpt><trkpt lat="44.36496486477059" lon="9.819535197264013"><ele>547.0</ele><time>2026-04-11T13:31:57Z</time></trkpt><trkpt lat="44.36500713851139" lon="9.819291202067166"><ele>547.0</ele><time>2026-04-11T13:31:58Z</time></trkpt><trkpt lat="44.36500180949677" lon="9.819045074586024"><ele>549.6666666666667</ele><time>2026-04-11T13:31:59Z</time></trkpt><trkpt lat="44.36495523492011" lon="9.818770407904545"><ele>552.3333333333334</ele><time>2026-04-11T13:32:00Z</time></trkpt><trkpt lat="44.36492546090802" lon="9.81850773609242"><ele>555.0</ele><time>2026-04-11T13:32:01Z</time></trkpt><trkpt lat="44.364910035497886" lon="9.818275153176465"><ele>557.25</ele><time>2026-04-11T13:32:02Z</time></trkpt><trkpt lat="44.36485015035379" lon="9.818073685341554"><ele>559.5</ele><time>2026-04-11T13:32:03Z</time></trkpt><trkpt lat="44.364788102500796" lon="9.817895891688824"><ele>561.75</ele><time>2026-04-11T13:32:04Z</time></trkpt><trkpt lat="44.36476139872613" lon="9.817688451710238"><ele>564.0</ele><time>2026-04-11T13:32:05Z</time></trkpt><trkpt lat="44.36475857063826" lon="9.817449031194535"><ele>565.6666666666666</ele><time>2026-04-11T13:32:06Z</time></trkpt><trkpt lat="44.3647524622513" lon="9.817194533688472"><ele>567.3333333333333</ele><time>2026-04-11T13:32:07Z</time></trkpt><trkpt lat="44.364733716378495" lon="9.816945187203071"><ele>569.0</ele><time>2026-04-11T13:32:08Z</time></trkpt><trkpt lat="44.36469380478923" lon="9.816721094566693"><ele>568.0</ele><time>2026-04-11T13:32:09Z</time></trkpt><trkpt lat="44.36467058978964" lon="9.816500712382446"><ele>567.0</ele><time>2026-04-11T13:32:10Z</time></trkpt><trkpt lat="44.36470837563259" lon="9.816309299243748"><ele>566.0</ele><time>2026-04-11T13:32:11Z</time></trkpt><trkpt lat="44.36479637755195" lon="9.816136148186255"><ele>563.3333333333333</ele><time>2026-04-11T13:32:12Z</time></trkpt><trkpt lat="44.36488912499613" lon="9.815923156138552"><ele>560.6666666666666</ele><time>2026-04-11T13:32:13Z</time></trkpt><trkpt lat="44.36497277004059" lon="9.815733866750513"><ele>558.0</ele><time>2026-04-11T13:32:14Z</time></trkpt><trkpt lat="44.364994954766004" lon="9.815558671659492"><ele>558.0</ele><time>2026-04-11T13:32:15Z</time></trkpt><trkpt lat="44.36497232189675" lon="9.815345037411813"><ele>558.0</ele><time>2026-04-11T13:32:16Z</time></trkpt><trkpt lat="44.36495211649566" lon="9.815036537096274"><ele>558.0</ele><time>2026-04-11T13:32:17Z</time></trkpt><trkpt lat="44.36489048834967" lon="9.81481046896789"><ele>558.0</ele><time>2026-04-11T13:32:18Z</time></trkpt><trkpt lat="44.36486603366467" lon="9.814577075160171"><ele>558.0</ele><time>2026-04-11T13:32:19Z</time></trkpt><trkpt lat="44.364852919286754" lon="9.814355891785668"><ele>558.0</ele><time>2026-04-11T13:32:20Z</time></trkpt><trkpt lat="44.36484840353917" lon="9.814162573617823"><ele>558.0</ele><time>2026-04-11T13:32:21Z</time></trkpt><trkpt lat="44.36488715374612" lon="9.813970283935681"><ele>558.0</ele><time>2026-04-11T13:32:22Z</time></trkpt><trkpt lat="44.36494487504104" lon="9.813770806550068"><ele>558.0</ele><time>2026-04-11T13:32:23Z</time></trkpt><trkpt lat="44.36500203181379" lon="9.813556656406687"><ele>555.6666666666666</ele><time>2026-04-11T13:32:24Z</time></trkpt><trkpt lat="44.36506630361869" lon="9.813333659030645"><ele>553.3333333333333</ele><time>2026-04-11T13:32:25Z</time></trkpt><trkpt lat="44.3651181913908" lon="9.813139507429678"><ele>551.0</ele><time>2026-04-11T13:32:26Z</time></trkpt><trkpt lat="44.36517115348404" lon="9.812957124791213"><ele>551.0</ele><time>2026-04-11T13:32:27Z</time></trkpt><trkpt lat="44.365200151672376" lon="9.812820170924256"><ele>551.0</ele><time>2026-04-11T13:32:28Z</time></trkpt><trkpt lat="44.36519242459569" lon="9.812729476743133"><ele>551.0</ele><time>2026-04-11T13:32:29Z</time></trkpt><trkpt lat="44.365117880639545" lon="9.812642860779233"><ele>551.0</ele><time>2026-04-11T13:32:30Z</time></trkpt><trkpt lat="44.36498982674221" lon="9.812553560910583"><ele>551.0</ele><time>2026-04-11T13:32:31Z</time></trkpt><trkpt lat="44.364861621843296" lon="9.812484463749506"><ele>553.0</ele><time>2026-04-11T13:32:32Z</time></trkpt><trkpt lat="44.364768102054015" lon="9.812477122392794"><ele>555.0</ele><time>2026-04-11T13:32:33Z</time></trkpt><trkpt lat="44.36469356516638" lon="9.812569208067902"><ele>557.0</ele><time>2026-04-11T13:32:34Z</time></trkpt><trkpt lat="44.364599507265446" lon="9.812734773726406"><ele>559.0</ele><time>2026-04-11T13:32:35Z</time></trkpt><trkpt lat="44.36448694426598" lon="9.81292374619966"><ele>564.0</ele><time>2026-04-11T13:32:36Z</time></trkpt><trkpt lat="44.364368244302696" lon="9.813095150200432"><ele>569.0</ele><time>2026-04-11T13:32:37Z</time></trkpt><trkpt lat="44.364279612273066" lon="9.813254492495902"><ele>574.0</ele><time>2026-04-11T13:32:38Z</time></trkpt><trkpt lat="44.36423617764819" lon="9.813442591942124"><ele>566.75</ele><time>2026-04-11T13:32:39Z</time></trkpt><trkpt lat="44.36420246723674" lon="9.813621808112488"><ele>559.5</ele><time>2026-04-11T13:32:40Z</time></trkpt><trkpt lat="44.36410553431612" lon="9.813753776923532"><ele>552.25</ele><time>2026-04-11T13:32:41Z</time></trkpt><trkpt lat="44.364011086804084" lon="9.813871451184223"><ele>545.0</ele><time>2026-04-11T13:32:42Z</time></trkpt><trkpt lat="44.36389348238818" lon="9.813970515398767"><ele>552.6666666666666</ele><time>2026-04-11T13:32:43Z</time></trkpt><trkpt lat="44.363753724275284" lon="9.814040191372607"><ele>560.3333333333334</ele><time>2026-04-11T13:32:44Z</time></trkpt><trkpt lat="44.363580845686286" lon="9.814096009639023"><ele>568.0</ele><time>2026-04-11T13:32:45Z</time></trkpt><trkpt lat="44.363409959033625" lon="9.814178866095624"><ele>568.0</ele><time>2026-04-11T13:32:46Z</time></trkpt><trkpt lat="44.36324189259816" lon="9.814275370252632"><ele>568.0</ele><time>2026-04-11T13:32:47Z</time></trkpt><trkpt lat="44.363059420563935" lon="9.814436636907917"><ele>568.0</ele><time>2026-04-11T13:32:48Z</time></trkpt><trkpt lat="44.36287472718382" lon="9.814617744705833"><ele>566.0</ele><time>2026-04-11T13:32:49Z</time></trkpt><trkpt lat="44.36269736114717" lon="9.814778976942728"><ele>564.0</ele><time>2026-04-11T13:32:50Z</time></trkpt><trkpt lat="44.36251706009058" lon="9.814911493120306"><ele>562.0</ele><time>2026-04-11T13:32:51Z</time></trkpt><trkpt lat="44.362377495923575" lon="9.81507104793082"><ele>561.3333333333334</ele><time>2026-04-11T13:32:52Z</time></trkpt><trkpt lat="44.36224870111103" lon="9.815227685834182"><ele>560.6666666666666</ele><time>2026-04-11T13:32:53Z</time></trkpt><trkpt lat="44.36215476494829" lon="9.81542397104029"><ele>560.0</ele><time>2026-04-11T13:32:54Z</time></trkpt><trkpt lat="44.36208810825012" lon="9.81564103868898"><ele>560.0</ele><time>2026-04-11T13:32:55Z</time></trkpt><trkpt lat="44.36200473248072" lon="9.815783537937207"><ele>560.0</ele><time>2026-04-11T13:32:56Z</time></trkpt><trkpt lat="44.36190873806679" lon="9.815903611620483"><ele>560.0</ele><time>2026-04-11T13:32:57Z</time></trkpt><trkpt lat="44.361769267881165" lon="9.815998748454927"><ele>560.0</ele><time>2026-04-11T13:32:58Z</time></trkpt><trkpt lat="44.36164257493376" lon="9.816068559630217"><ele>554.75</ele><time>2026-04-11T13:32:59Z</time></trkpt><trkpt lat="44.36154548828707" lon="9.816064542463518"><ele>549.5</ele><time>2026-04-11T13:33:00Z</time></trkpt><trkpt lat="44.361440515517856" lon="9.816041963902945"><ele>544.25</ele><time>2026-04-11T13:33:00.999Z</time></trkpt><trkpt lat="44.36132747615969" lon="9.815903705762528"><ele>539.0</ele><time>2026-04-11T13:33:01.999Z</time></trkpt><trkpt lat="44.36116644057579" lon="9.81573837143255"><ele>539.0</ele><time>2026-04-11T13:33:02.999Z</time></trkpt><trkpt lat="44.360995414833994" lon="9.81559179129589"><ele>539.0</ele><time>2026-04-11T13:33:03.999Z</time></trkpt><trkpt lat="44.360839998045165" lon="9.8154282737824"><ele>539.0</ele><time>2026-04-11T13:33:04.999Z</time></trkpt><trkpt lat="44.36069294456828" lon="9.815300114042127"><ele>539.0</ele><time>2026-04-11T13:33:05.999Z</time></trkpt><trkpt lat="44.36055645740647" lon="9.81524537701177"><ele>539.0</ele><time>2026-04-11T13:33:06.999Z</time></trkpt><trkpt lat="44.360444503520156" lon="9.815207765581095"><ele>539.0</ele><time>2026-04-11T13:33:07.999Z</time></trkpt><trkpt lat="44.36036642998708" lon="9.815119268874716"><ele>539.0</ele><time>2026-04-11T13:33:08.999Z</time></trkpt><trkpt lat="44.36036535246441" lon="9.814933002072623"><ele>542.25</ele><time>2026-04-11T13:33:09.999Z</time></trkpt><trkpt lat="44.36029536050384" lon="9.814780315198941"><ele>545.5</ele><time>2026-04-11T13:33:10.999Z</time></trkpt><trkpt lat="44.36021168798861" lon="9.814656593483464"><ele>548.75</ele><time>2026-04-11T13:33:11.999Z</time></trkpt><trkpt lat="44.36007479495484" lon="9.81453107353377"><ele>552.0</ele><time>2026-04-11T13:33:12.999Z</time></trkpt><trkpt lat="44.3599152402678" lon="9.814525552156873"><ele>552.0</ele><time>2026-04-11T13:33:13.999Z</time></trkpt><trkpt lat="44.35975244488396" lon="9.814576212202255"><ele>552.0</ele><time>2026-04-11T13:33:14.999Z</time></trkpt><trkpt lat="44.35961691126595" lon="9.814560718987073"><ele>552.0</ele><time>2026-04-11T13:33:15.999Z</time></trkpt><trkpt lat="44.359468629251666" lon="9.81450981174388"><ele>555.5</ele><time>2026-04-11T13:33:16.999Z</time></trkpt><trkpt lat="44.35930053055699" lon="9.81445197758749"><ele>559.0</ele><time>2026-04-11T13:33:17.999Z</time></trkpt><trkpt lat="44.35916475004078" lon="9.814399086203695"><ele>562.5</ele><time>2026-04-11T13:33:18.999Z</time></trkpt><trkpt lat="44.359058123604804" lon="9.81431093456838"><ele>566.0</ele><time>2026-04-11T13:33:19.999Z</time></trkpt><trkpt lat="44.358970757218025" lon="9.814158572120048"><ele>549.0</ele><time>2026-04-11T13:33:20.999Z</time></trkpt><trkpt lat="44.35884156677915" lon="9.813988801309925"><ele>532.0</ele><time>2026-04-11T13:33:21.999Z</time></trkpt><trkpt lat="44.35874069156162" lon="9.81381917057666"><ele>515.0</ele><time>2026-04-11T13:33:22.999Z</time></trkpt><trkpt lat="44.35867797391397" lon="9.813678967276022"><ele>515.0</ele><time>2026-04-11T13:33:23.999Z</time></trkpt><trkpt lat="44.358657630398376" lon="9.813550999214756"><ele>515.0</ele><time>2026-04-11T13:33:24.999Z</time></trkpt><trkpt lat="44.35870221292573" lon="9.813446688713931"><ele>515.0</ele><time>2026-04-11T13:33:25.999Z</time></trkpt><trkpt lat="44.358764518551865" lon="9.813295869758264"><ele>515.0</ele><time>2026-04-11T13:33:26.999Z</time></trkpt><trkpt lat="44.35883923824519" lon="9.813111941011844"><ele>535.6666666666666</ele><time>2026-04-11T13:33:27.999Z</time></trkpt><trkpt lat="44.35891979206132" lon="9.812891352661092"><ele>556.3333333333334</ele><time>2026-04-11T13:33:28.999Z</time></trkpt><trkpt lat="44.35898535833117" lon="9.812693310505901"><ele>577.0</ele><time>2026-04-11T13:33:29.999Z</time></trkpt><trkpt lat="44.35901275127801" lon="9.812516277745491"><ele>577.0</ele><time>2026-04-11T13:33:30.999Z</time></trkpt><trkpt lat="44.358990618780766" lon="9.812281548421634"><ele>577.0</ele><time>2026-04-11T13:33:31.999Z</time></trkpt><trkpt lat="44.358929708409754" lon="9.812032316640106"><ele>577.0</ele><time>2026-04-11T13:33:32.999Z</time></trkpt><trkpt lat="44.358854263138575" lon="9.811767657731378"><ele>559.6666666666667</ele><time>2026-04-11T13:33:33.999Z</time></trkpt><trkpt lat="44.35877967823038" lon="9.811516223684295"><ele>542.3333333333334</ele><time>2026-04-11T13:33:34.999Z</time></trkpt><trkpt lat="44.35871083351638" lon="9.811291729188474"><ele>525.0</ele><time>2026-04-11T13:33:35.999Z</time></trkpt><trkpt lat="44.35862066013472" lon="9.81111661355917"><ele>527.2</ele><time>2026-04-11T13:33:36.999Z</time></trkpt><trkpt lat="44.358566224722615" lon="9.81096836933713"><ele>529.4</ele><time>2026-04-11T13:33:37.999Z</time></trkpt><trkpt lat="44.35853768254197" lon="9.810835710802486"><ele>531.6</ele><time>2026-04-11T13:33:38.999Z</time></trkpt><trkpt lat="44.3585668737516" lon="9.8106861331436"><ele>533.8</ele><time>2026-04-11T13:33:39.999Z</time></trkpt><trkpt lat="44.358626772516836" lon="9.810542703479953"><ele>536.0</ele><time>2026-04-11T13:33:40.999Z</time></trkpt><trkpt lat="44.3587170695937" lon="9.810383839709793"><ele>536.0</ele><time>2026-04-11T13:33:41.999Z</time></trkpt><trkpt lat="44.35881170917317" lon="9.810187263960938"><ele>536.0</ele><time>2026-04-11T13:33:42.999Z</time></trkpt><trkpt lat="44.358899754501245" lon="9.810059387804063"><ele>536.0</ele><time>2026-04-11T13:33:43.999Z</time></trkpt><trkpt lat="44.35895262613376" lon="9.809926482429134"><ele>536.0</ele><time>2026-04-11T13:33:44.999Z</time></trkpt><trkpt lat="44.3589468443985" lon="9.809797184857237"><ele>537.0</ele><time>2026-04-11T13:33:45.999Z</time></trkpt><trkpt lat="44.35885580031355" lon="9.809677487214724"><ele>538.0</ele><time>2026-04-11T13:33:46.999Z</time></trkpt><trkpt lat="44.358727809996374" lon="9.809595352564354"><ele>539.0</ele><time>2026-04-11T13:33:47.999Z</time></trkpt><trkpt lat="44.358574671160746" lon="9.809473972966014"><ele>540.0</ele><time>2026-04-11T13:33:48.999Z</time></trkpt><trkpt lat="44.35842153069991" lon="9.809364780634278"><ele>542.6</ele><time>2026-04-11T13:33:49.999Z</time></trkpt><trkpt lat="44.358301991498415" lon="9.80927167195844"><ele>545.2</ele><time>2026-04-11T13:33:50.999Z</time></trkpt><trkpt lat="44.35823126288995" lon="9.809177557323428"><ele>547.8</ele><time>2026-04-11T13:33:51.999Z</time></trkpt><trkpt lat="44.35821732886078" lon="9.809065595472836"><ele>550.4</ele><time>2026-04-11T13:33:52.999Z</time></trkpt><trkpt lat="44.35827387417623" lon="9.808914057678598"><ele>553.0</ele><time>2026-04-11T13:33:53.999Z</time></trkpt><trkpt lat="44.358354400356745" lon="9.808713287928217"><ele>553.0</ele><time>2026-04-11T13:33:54.999Z</time></trkpt><trkpt lat="44.358417412573004" lon="9.808517215721334"><ele>553.0</ele><time>2026-04-11T13:33:55.999Z</time></trkpt><trkpt lat="44.3584751756615" lon="9.808380620595154"><ele>553.0</ele><time>2026-04-11T13:33:56.999Z</time></trkpt><trkpt lat="44.35847183707538" lon="9.808245546932403"><ele>553.0</ele><time>2026-04-11T13:33:57.999Z</time></trkpt><trkpt lat="44.358392144836124" lon="9.808109017646911"><ele>556.0</ele><time>2026-04-11T13:33:58.999Z</time></trkpt><trkpt lat="44.35825030276769" lon="9.807967523324317"><ele>559.0</ele><time>2026-04-11T13:34:00Z</time></trkpt><trkpt lat="44.358154614614264" lon="9.807788008051409"><ele>562.0</ele><time>2026-04-11T13:34:01Z</time></trkpt><trkpt lat="44.35811012218037" lon="9.807603609138328"><ele>569.6666666666667</ele><time>2026-04-11T13:34:02Z</time></trkpt><trkpt lat="44.358035731369235" lon="9.807432266089494"><ele>577.3333333333334</ele><time>2026-04-11T13:34:03Z</time></trkpt><trkpt lat="44.35793597427013" lon="9.807281907488324"><ele>585.0</ele><time>2026-04-11T13:34:04Z</time></trkpt><trkpt lat="44.35779096176135" lon="9.807172476653516"><ele>576.75</ele><time>2026-04-11T13:34:05Z</time></trkpt><trkpt lat="44.357674568685994" lon="9.807067990690992"><ele>568.5</ele><time>2026-04-11T13:34:06Z</time></trkpt><trkpt lat="44.35761780894046" lon="9.80692427687214"><ele>560.25</ele><time>2026-04-11T13:34:07Z</time></trkpt><trkpt lat="44.357632572909054" lon="9.80671579887973"><ele>552.0</ele><time>2026-04-11T13:34:08Z</time></trkpt><trkpt lat="44.35756050838347" lon="9.806555781351054"><ele>552.0</ele><time>2026-04-11T13:34:09Z</time></trkpt><trkpt lat="44.357461472910195" lon="9.806415012214986"><ele>552.0</ele><time>2026-04-11T13:34:10Z</time></trkpt><trkpt lat="44.357438556960865" lon="9.806272529214993"><ele>552.0</ele><time>2026-04-11T13:34:11Z</time></trkpt><trkpt lat="44.357471616848976" lon="9.806103055046908"><ele>552.0</ele><time>2026-04-11T13:34:12Z</time></trkpt><trkpt lat="44.35752025995263" lon="9.805904352184431"><ele>552.6666666666666</ele><time>2026-04-11T13:34:13Z</time></trkpt><trkpt lat="44.35759520523555" lon="9.805711401308459"><ele>553.3333333333333</ele><time>2026-04-11T13:34:14Z</time></trkpt><trkpt lat="44.35766208437767" lon="9.805484948176368"><ele>554.0</ele><time>2026-04-11T13:34:15Z</time></trkpt><trkpt lat="44.35773318103349" lon="9.80526605928112"><ele>554.5</ele><time>2026-04-11T13:34:16Z</time></trkpt><trkpt lat="44.35780394639375" lon="9.805072543841607"><ele>555.0</ele><time>2026-04-11T13:34:17Z</time></trkpt><trkpt lat="44.35790202790539" lon="9.804919247902609"><ele>555.5</ele><time>2026-04-11T13:34:18Z</time></trkpt><trkpt lat="44.357968857624606" lon="9.804805474879823"><ele>556.0</ele><time>2026-04-11T13:34:19Z</time></trkpt><trkpt lat="44.357973797634784" lon="9.804664644641605"><ele>556.0</ele><time>2026-04-11T13:34:20Z</time></trkpt><trkpt lat="44.35792456057988" lon="9.804509906836921"><ele>556.0</ele><time>2026-04-11T13:34:21Z</time></trkpt><trkpt lat="44.357792357943104" lon="9.804393873995018"><ele>556.0</ele><time>2026-04-11T13:34:22Z</time></trkpt><trkpt lat="44.35762306547817" lon="9.80430769115083"><ele>559.5</ele><time>2026-04-11T13:34:23Z</time></trkpt><trkpt lat="44.35743972900978" lon="9.80428258457444"><ele>563.0</ele><time>2026-04-11T13:34:24Z</time></trkpt><trkpt lat="44.35732133943227" lon="9.804215665748998"><ele>566.5</ele><time>2026-04-11T13:34:25Z</time></trkpt><trkpt lat="44.357260556973024" lon="9.804152983987892"><ele>570.0</ele><time>2026-04-11T13:34:26Z</time></trkpt><trkpt lat="44.357242867853564" lon="9.8040082318446"><ele>570.0</ele><time>2026-04-11T13:34:27Z</time></trkpt><trkpt lat="44.357269507097264" lon="9.80383135478869"><ele>570.0</ele><time>2026-04-11T13:34:28Z</time></trkpt><trkpt lat="44.35723152868517" lon="9.803653712117988"><ele>570.0</ele><time>2026-04-11T13:34:29Z</time></trkpt><trkpt lat="44.357168618014704" lon="9.803511704878943"><ele>570.0</ele><time>2026-04-11T13:34:30Z</time></trkpt><trkpt lat="44.35703444442925" lon="9.803407836433143"><ele>571.5</ele><time>2026-04-11T13:34:31Z</time></trkpt><trkpt lat="44.35691186219637" lon="9.803341072604558"><ele>573.0</ele><time>2026-04-11T13:34:32Z</time></trkpt><trkpt lat="44.35678592468229" lon="9.803364518886115"><ele>574.5</ele><time>2026-04-11T13:34:33Z</time></trkpt><trkpt lat="44.356629920731606" lon="9.803494855253675"><ele>576.0</ele><time>2026-04-11T13:34:34Z</time></trkpt><trkpt lat="44.35644191613169" lon="9.803631704573691"><ele>575.5</ele><time>2026-04-11T13:34:35Z</time></trkpt><trkpt lat="44.35625266714608" lon="9.803801986960876"><ele>575.0</ele><time>2026-04-11T13:34:36Z</time></trkpt><trkpt lat="44.356067829187346" lon="9.804000656684211"><ele>575.0</ele><time>2026-04-11T13:34:37Z</time></trkpt><trkpt lat="44.35592156274991" lon="9.804200558741664"><ele>575.0</ele><time>2026-04-11T13:34:38Z</time></trkpt><trkpt lat="44.35582924714057" lon="9.80440958820379"><ele>575.0</ele><time>2026-04-11T13:34:39Z</time></trkpt><trkpt lat="44.35577420369523" lon="9.804622449741652"><ele>569.5</ele><time>2026-04-11T13:34:40Z</time></trkpt><trkpt lat="44.35570333774192" lon="9.804760966726922"><ele>564.0</ele><time>2026-04-11T13:34:41Z</time></trkpt><trkpt lat="44.35556484271178" lon="9.804795132094084"><ele>558.5</ele><time>2026-04-11T13:34:43Z</time></trkpt><trkpt lat="44.35543708860813" lon="9.804734954155037"><ele>553.0</ele><time>2026-04-11T13:34:44Z</time></trkpt><trkpt lat="44.35528269517358" lon="9.804679826015338"><ele>549.6666666666667</ele><time>2026-04-11T13:34:45Z</time></trkpt><trkpt lat="44.355175197509276" lon="9.804610862621445"><ele>546.3333333333334</ele><time>2026-04-11T13:34:46Z</time></trkpt><trkpt lat="44.35509257707823" lon="9.804434944028134"><ele>543.0</ele><time>2026-04-11T13:34:47Z</time></trkpt><trkpt lat="44.354968009987914" lon="9.804250716482862"><ele>546.3333333333334</ele><time>2026-04-11T13:34:48Z</time></trkpt><trkpt lat="44.35484458422784" lon="9.804105131108338"><ele>549.6666666666667</ele><time>2026-04-11T13:34:49Z</time></trkpt><trkpt lat="44.35466910928317" lon="9.80403297853295"><ele>553.0</ele><time>2026-04-11T13:34:50Z</time></trkpt><trkpt lat="44.354495264079574" lon="9.804000762694754"><ele>553.0</ele><time>2026-04-11T13:34:51Z</time></trkpt><trkpt lat="44.35435216556859" lon="9.803899230142097"><ele>553.0</ele><time>2026-04-11T13:34:52Z</time></trkpt><trkpt lat="44.354195395877696" lon="9.803757141794595"><ele>553.0</ele><time>2026-04-11T13:34:53Z</time></trkpt><trkpt lat="44.35403094395942" lon="9.803560057436174"><ele>561.3333333333334</ele><time>2026-04-11T13:34:54Z</time></trkpt><trkpt lat="44.35387003526892" lon="9.803391594031524"><ele>569.6666666666666</ele><time>2026-04-11T13:34:55Z</time></trkpt><trkpt lat="44.35369721867066" lon="9.803246104842207"><ele>578.0</ele><time>2026-04-11T13:34:56Z</time></trkpt><trkpt lat="44.35355490859645" lon="9.803137415403718"><ele>578.0</ele><time>2026-04-11T13:34:57Z</time></trkpt><trkpt lat="44.353456536871676" lon="9.803094168899179"><ele>578.0</ele><time>2026-04-11T13:34:58Z</time></trkpt><trkpt lat="44.353367417509965" lon="9.803113967576053"><ele>578.0</ele><time>2026-04-11T13:34:59Z</time></trkpt><trkpt lat="44.35327106412873" lon="9.80324683153292"><ele>578.0</ele><time>2026-04-11T13:35:00Z</time></trkpt><trkpt lat="44.353148197408764" lon="9.803387430683989"><ele>569.25</ele><time>2026-04-11T13:35:01Z</time></trkpt><trkpt lat="44.353007237287564" lon="9.803426348677654"><ele>560.5</ele><time>2026-04-11T13:35:02Z</time></trkpt><trkpt lat="44.35290132827277" lon="9.803380903050193"><ele>551.75</ele><time>2026-04-11T13:35:03Z</time></trkpt><trkpt lat="44.35285647271928" lon="9.803227475616152"><ele>543.0</ele><time>2026-04-11T13:35:04Z</time></trkpt><trkpt lat="44.35285017789533" lon="9.803029794680777"><ele>543.0</ele><time>2026-04-11T13:35:05Z</time></trkpt><trkpt lat="44.352804084221994" lon="9.802842849502793"><ele>543.0</ele><time>2026-04-11T13:35:05.999Z</time></trkpt><trkpt lat="44.3527238763205" lon="9.80266450250985"><ele>543.0</ele><time>2026-04-11T13:35:06.999Z</time></trkpt><trkpt lat="44.35265881984422" lon="9.802471616143805"><ele>543.0</ele><time>2026-04-11T13:35:07.999Z</time></trkpt><trkpt lat="44.35265500015087" lon="9.802234666890568"><ele>552.0</ele><time>2026-04-11T13:35:08.999Z</time></trkpt><trkpt lat="44.352680126319086" lon="9.801973958614973"><ele>561.0</ele><time>2026-04-11T13:35:09.999Z</time></trkpt><trkpt lat="44.35268235026195" lon="9.801762239778991"><ele>570.0</ele><time>2026-04-11T13:35:10.999Z</time></trkpt><trkpt lat="44.352618879545304" lon="9.801588453346534"><ele>575.6666666666666</ele><time>2026-04-11T13:35:11.999Z</time></trkpt><trkpt lat="44.352478924445954" lon="9.80142686525683"><ele>581.3333333333333</ele><time>2026-04-11T13:35:12.999Z</time></trkpt><trkpt lat="44.352298979397666" lon="9.801314687680078"><ele>587.0</ele><time>2026-04-11T13:35:13.999Z</time></trkpt><trkpt lat="44.35209846583546" lon="9.801223521298631"><ele>584.0</ele><time>2026-04-11T13:35:14.999Z</time></trkpt><trkpt lat="44.351939038624046" lon="9.80111867478266"><ele>581.0</ele><time>2026-04-11T13:35:15.999Z</time></trkpt><trkpt lat="44.35184828755131" lon="9.800979819821162"><ele>578.0</ele><time>2026-04-11T13:35:16.999Z</time></trkpt><trkpt lat="44.35177892184277" lon="9.800787608430326"><ele>578.0</ele><time>2026-04-11T13:35:17.999Z</time></trkpt><trkpt lat="44.3517251514249" lon="9.800547129149935"><ele>578.0</ele><time>2026-04-11T13:35:18.999Z</time></trkpt><trkpt lat="44.35171242149555" lon="9.800318757685226"><ele>578.0</ele><time>2026-04-11T13:35:19.999Z</time></trkpt><trkpt lat="44.351756609321185" lon="9.800121493165916"><ele>581.25</ele><time>2026-04-11T13:35:20.999Z</time></trkpt><trkpt lat="44.3518271130117" lon="9.79995050639506"><ele>584.5</ele><time>2026-04-11T13:35:21.999Z</time></trkpt><trkpt lat="44.351868254015855" lon="9.799813719906522"><ele>587.75</ele><time>2026-04-11T13:35:22.999Z</time></trkpt><trkpt lat="44.35183704242133" lon="9.799668428414424"><ele>591.0</ele><time>2026-04-11T13:35:23.999Z</time></trkpt><trkpt lat="44.35174191595314" lon="9.799549547399101"><ele>591.0</ele><time>2026-04-11T13:35:24.999Z</time></trkpt><trkpt lat="44.35157628930691" lon="9.79946299086115"><ele>591.0</ele><time>2026-04-11T13:35:25.999Z</time></trkpt><trkpt lat="44.35146179542447" lon="9.799342395625514"><ele>591.0</ele><time>2026-04-11T13:35:26.999Z</time></trkpt><trkpt lat="44.35138594205033" lon="9.799240767750021"><ele>591.0</ele><time>2026-04-11T13:35:27.999Z</time></trkpt><trkpt lat="44.35137840923947" lon="9.799078838027507"><ele>593.75</ele><time>2026-04-11T13:35:28.999Z</time></trkpt><trkpt lat="44.3514105950867" lon="9.798896367307467"><ele>596.5</ele><time>2026-04-11T13:35:29.999Z</time></trkpt><trkpt lat="44.35141423328095" lon="9.798669007637628"><ele>599.25</ele><time>2026-04-11T13:35:30.999Z</time></trkpt><trkpt lat="44.35138921982343" lon="9.798460432274203"><ele>602.0</ele><time>2026-04-11T13:35:31.999Z</time></trkpt><trkpt lat="44.351326819270135" lon="9.798271639905401"><ele>603.3333333333333</ele><time>2026-04-11T13:35:32.999Z</time></trkpt><trkpt lat="44.35132748719977" lon="9.79809950759169"><ele>604.6666666666666</ele><time>2026-04-11T13:35:33.999Z</time></trkpt><trkpt lat="44.35138028912731" lon="9.797909685684115"><ele>606.0</ele><time>2026-04-11T13:35:34.999Z</time></trkpt><trkpt lat="44.35143670190688" lon="9.797666127321891"><ele>606.0</ele><time>2026-04-11T13:35:35.999Z</time></trkpt><trkpt lat="44.35151938245226" lon="9.797422014147555"><ele>606.0</ele><time>2026-04-11T13:35:36.999Z</time></trkpt><trkpt lat="44.35158181017679" lon="9.797182052899569"><ele>606.0</ele><time>2026-04-11T13:35:37.999Z</time></trkpt><trkpt lat="44.351672863019324" lon="9.797007344875402"><ele>606.0</ele><time>2026-04-11T13:35:38.999Z</time></trkpt><trkpt lat="44.35176357822727" lon="9.79686897766321"><ele>606.0</ele><time>2026-04-11T13:35:39.999Z</time></trkpt><trkpt lat="44.35188661454459" lon="9.796758202496683"><ele>606.0</ele><time>2026-04-11T13:35:40.999Z</time></trkpt><trkpt lat="44.35198825269878" lon="9.796625668527671"><ele>606.0</ele><time>2026-04-11T13:35:41.999Z</time></trkpt><trkpt lat="44.35204616641831" lon="9.796490334415388"><ele>602.0</ele><time>2026-04-11T13:35:42.999Z</time></trkpt><trkpt lat="44.35203679961657" lon="9.796323686257503"><ele>598.0</ele><time>2026-04-11T13:35:43.999Z</time></trkpt><trkpt lat="44.35201055416063" lon="9.796109026144938"><ele>594.0</ele><time>2026-04-11T13:35:44.999Z</time></trkpt><trkpt lat="44.35190642064903" lon="9.795942129318853"><ele>590.0</ele><time>2026-04-11T13:35:45.999Z</time></trkpt><trkpt lat="44.35182677299314" lon="9.795804544200319"><ele>589.0</ele><time>2026-04-11T13:35:46.999Z</time></trkpt><trkpt lat="44.351814815065886" lon="9.795658327783741"><ele>588.0</ele><time>2026-04-11T13:35:47.999Z</time></trkpt><trkpt lat="44.35186361199402" lon="9.795468190902175"><ele>587.0</ele><time>2026-04-11T13:35:48.999Z</time></trkpt><trkpt lat="44.351863004656586" lon="9.795255562362586"><ele>586.0</ele><time>2026-04-11T13:35:49.999Z</time></trkpt><trkpt lat="44.351840387577894" lon="9.795038452857822"><ele>585.0</ele><time>2026-04-11T13:35:50.999Z</time></trkpt><trkpt lat="44.351831810777966" lon="9.794850877682746"><ele>584.0</ele><time>2026-04-11T13:35:51.999Z</time></trkpt><trkpt lat="44.351878410734905" lon="9.794659749293928"><ele>583.0</ele><time>2026-04-11T13:35:52.999Z</time></trkpt><trkpt lat="44.35194870507048" lon="9.79451486714005"><ele>582.0</ele><time>2026-04-11T13:35:53.999Z</time></trkpt><trkpt lat="44.35206139521269" lon="9.794414098584971"><ele>579.25</ele><time>2026-04-11T13:35:54.999Z</time></trkpt><trkpt lat="44.35219352719125" lon="9.79427266639805"><ele>576.5</ele><time>2026-04-11T13:35:55.999Z</time></trkpt><trkpt lat="44.352307719034854" lon="9.794136404652825"><ele>573.75</ele><time>2026-04-11T13:35:56.999Z</time></trkpt><trkpt lat="44.35238785010502" lon="9.794020058701435"><ele>571.0</ele><time>2026-04-11T13:35:57.999Z</time></trkpt><trkpt lat="44.352426385246396" lon="9.793895646307092"><ele>571.75</ele><time>2026-04-11T13:35:58.999Z</time></trkpt><trkpt lat="44.352396915476476" lon="9.793744210093617"><ele>572.5</ele><time>2026-04-11T13:35:59.999Z</time></trkpt><trkpt lat="44.35231772848995" lon="9.79356352958221"><ele>573.25</ele><time>2026-04-11T13:36:00.999Z</time></trkpt><trkpt lat="44.35219113492829" lon="9.793380273918219"><ele>574.0</ele><time>2026-04-11T13:36:01.999Z</time></trkpt><trkpt lat="44.352096507736675" lon="9.793185808065013"><ele>574.0</ele><time>2026-04-11T13:36:02.999Z</time></trkpt><trkpt lat="44.352012980561035" lon="9.793034098145846"><ele>574.0</ele><time>2026-04-11T13:36:03.999Z</time></trkpt><trkpt lat="44.35199048700033" lon="9.792895939145732"><ele>574.0</ele><time>2026-04-11T13:36:04.999Z</time></trkpt><trkpt lat="44.352038350982355" lon="9.792750914253656"><ele>574.0</ele><time>2026-04-11T13:36:06Z</time></trkpt><trkpt lat="44.35209603499659" lon="9.792579516985336"><ele>575.6666666666667</ele><time>2026-04-11T13:36:07Z</time></trkpt><trkpt lat="44.35217980830266" lon="9.792373460395584"><ele>577.3333333333334</ele><time>2026-04-11T13:36:08Z</time></trkpt><trkpt lat="44.35223703324069" lon="9.792161280373326"><ele>579.0</ele><time>2026-04-11T13:36:09Z</time></trkpt><trkpt lat="44.35226756924408" lon="9.79196759822419"><ele>597.0</ele><time>2026-04-11T13:36:10Z</time></trkpt><trkpt lat="44.3522354461765" lon="9.791734899254038"><ele>615.0</ele><time>2026-04-11T13:36:11Z</time></trkpt><trkpt lat="44.352238658738806" lon="9.791507652831367"><ele>633.0</ele><time>2026-04-11T13:36:12Z</time></trkpt><trkpt lat="44.35224791878271" lon="9.791275621500697"><ele>633.0</ele><time>2026-04-11T13:36:13Z</time></trkpt><trkpt lat="44.35225332971095" lon="9.791083378893473"><ele>633.0</ele><time>2026-04-11T13:36:14Z</time></trkpt><trkpt lat="44.35228691840244" lon="9.790924562743427"><ele>633.0</ele><time>2026-04-11T13:36:15Z</time></trkpt><trkpt lat="44.352344810526084" lon="9.790819816911933"><ele>633.0</ele><time>2026-04-11T13:36:16Z</time></trkpt><trkpt lat="44.3524279605113" lon="9.79071332742364"><ele>627.6666666666666</ele><time>2026-04-11T13:36:17Z</time></trkpt><trkpt lat="44.35261301284163" lon="9.790566061910983"><ele>622.3333333333333</ele><time>2026-04-11T13:36:18Z</time></trkpt><trkpt lat="44.352759531849344" lon="9.790410589701816"><ele>617.0</ele><time>2026-04-11T13:36:19Z</time></trkpt><trkpt lat="44.3529354634645" lon="9.790271459938054"><ele>620.3333333333333</ele><time>2026-04-11T13:36:20Z</time></trkpt><trkpt lat="44.35308973652171" lon="9.790088946385096"><ele>623.6666666666666</ele><time>2026-04-11T13:36:21Z</time></trkpt><trkpt lat="44.35322056330459" lon="9.789921947459087"><ele>627.0</ele><time>2026-04-11T13:36:22Z</time></trkpt><trkpt lat="44.3533496777233" lon="9.789818115748584"><ele>627.0</ele><time>2026-04-11T13:36:23Z</time></trkpt><trkpt lat="44.353485050809546" lon="9.78974213773503"><ele>627.0</ele><time>2026-04-11T13:36:24Z</time></trkpt><trkpt lat="44.35363272833143" lon="9.789669040772962"><ele>627.0</ele><time>2026-04-11T13:36:25Z</time></trkpt><trkpt lat="44.35370375469626" lon="9.789604012458211"><ele>627.0</ele><time>2026-04-11T13:36:26Z</time></trkpt><trkpt lat="44.35376793051478" lon="9.789525981786014"><ele>627.0</ele><time>2026-04-11T13:36:27Z</time></trkpt><trkpt lat="44.3537718752584" lon="9.789364926384089"><ele>627.0</ele><time>2026-04-11T13:36:28Z</time></trkpt><trkpt lat="44.3537385172811" lon="9.789151603079965"><ele>627.0</ele><time>2026-04-11T13:36:29Z</time></trkpt><trkpt lat="44.35370646988228" lon="9.78900187419953"><ele>627.0</ele><time>2026-04-11T13:36:30Z</time></trkpt><trkpt lat="44.35364215174131" lon="9.788926248579793"><ele>626.25</ele><time>2026-04-11T13:36:31Z</time></trkpt><trkpt lat="44.353550722396584" lon="9.78890472762916"><ele>625.5</ele><time>2026-04-11T13:36:32Z</time></trkpt><trkpt lat="44.353440098063295" lon="9.788922969172024"><ele>624.75</ele><time>2026-04-11T13:36:33Z</time></trkpt><trkpt lat="44.35328966154126" lon="9.788998988426416"><ele>624.0</ele><time>2026-04-11T13:36:34Z</time></trkpt><trkpt lat="44.35312025535964" lon="9.789066357705796"><ele>628.0</ele><time>2026-04-11T13:36:35Z</time></trkpt><trkpt lat="44.35294540144558" lon="9.789125444974085"><ele>632.0</ele><time>2026-04-11T13:36:36Z</time></trkpt><trkpt lat="44.35278573075527" lon="9.789168530652821"><ele>636.0</ele><time>2026-04-11T13:36:37Z</time></trkpt><trkpt lat="44.35262697246648" lon="9.789168470876508"><ele>636.0</ele><time>2026-04-11T13:36:38Z</time></trkpt><trkpt lat="44.35245929279299" lon="9.78915272658029"><ele>636.0</ele><time>2026-04-11T13:36:39Z</time></trkpt><trkpt lat="44.352296396785626" lon="9.789118281445663"><ele>636.0</ele><time>2026-04-11T13:36:40Z</time></trkpt><trkpt lat="44.352126573761595" lon="9.789112140724766"><ele>642.3333333333334</ele><time>2026-04-11T13:36:41Z</time></trkpt><trkpt lat="44.35196285218867" lon="9.789132925453668"><ele>648.6666666666667</ele><time>2026-04-11T13:36:42Z</time></trkpt><trkpt lat="44.35179833027926" lon="9.789172168314781"><ele>655.0</ele><time>2026-04-11T13:36:43Z</time></trkpt><trkpt lat="44.35163858495927" lon="9.789208008846922"><ele>655.0</ele><time>2026-04-11T13:36:44Z</time></trkpt><trkpt lat="44.35148693214847" lon="9.789253520777553"><ele>655.0</ele><time>2026-04-11T13:36:45Z</time></trkpt><trkpt lat="44.35136720512741" lon="9.789330688870638"><ele>655.0</ele><time>2026-04-11T13:36:46Z</time></trkpt><trkpt lat="44.35127869548312" lon="9.789469412060603"><ele>655.0</ele><time>2026-04-11T13:36:47Z</time></trkpt><trkpt lat="44.35122482293543" lon="9.789661904323935"><ele>650.5</ele><time>2026-04-11T13:36:48Z</time></trkpt><trkpt lat="44.35117149503949" lon="9.789798599337397"><ele>646.0</ele><time>2026-04-11T13:36:49Z</time></trkpt><trkpt lat="44.3510822523504" lon="9.789855344766943"><ele>641.5</ele><time>2026-04-11T13:36:50Z</time></trkpt><trkpt lat="44.35095282394395" lon="9.789855195192116"><ele>637.0</ele><time>2026-04-11T13:36:51Z</time></trkpt><trkpt lat="44.350835836896394" lon="9.789840309225694"><ele>637.0</ele><time>2026-04-11T13:36:52Z</time></trkpt><trkpt lat="44.350743922795715" lon="9.7897756852272"><ele>637.0</ele><time>2026-04-11T13:36:53Z</time></trkpt><trkpt lat="44.35071361397344" lon="9.789594093934383"><ele>637.0</ele><time>2026-04-11T13:36:54Z</time></trkpt><trkpt lat="44.350637533424" lon="9.789404146217933"><ele>637.0</ele><time>2026-04-11T13:36:55Z</time></trkpt><trkpt lat="44.35055983221902" lon="9.789215903882205"><ele>627.6666666666667</ele><time>2026-04-11T13:36:56Z</time></trkpt><trkpt lat="44.350537496733594" lon="9.789013452193826"><ele>618.3333333333334</ele><time>2026-04-11T13:36:57Z</time></trkpt><trkpt lat="44.35048965633525" lon="9.788757559377547"><ele>609.0</ele><time>2026-04-11T13:36:58Z</time></trkpt><trkpt lat="44.35043924703028" lon="9.788514864533694"><ele>616.0</ele><time>2026-04-11T13:36:59Z</time></trkpt><trkpt lat="44.35036525726803" lon="9.788270455297214"><ele>623.0</ele><time>2026-04-11T13:37:00Z</time></trkpt><trkpt lat="44.350296632792634" lon="9.78806069345922"><ele>630.0</ele><time>2026-04-11T13:37:01Z</time></trkpt><trkpt lat="44.35024425470272" lon="9.787875881560746"><ele>634.3333333333334</ele><time>2026-04-11T13:37:02Z</time></trkpt><trkpt lat="44.35025023531398" lon="9.78766865001316"><ele>638.6666666666667</ele><time>2026-04-11T13:37:03Z</time></trkpt><trkpt lat="44.350231495383944" lon="9.787427801382435"><ele>643.0</ele><time>2026-04-11T13:37:04Z</time></trkpt><trkpt lat="44.350205492583534" lon="9.787206364778756"><ele>643.0</ele><time>2026-04-11T13:37:05Z</time></trkpt><trkpt lat="44.35013750959503" lon="9.786978274288696"><ele>643.0</ele><time>2026-04-11T13:37:06Z</time></trkpt><trkpt lat="44.35002636342862" lon="9.786760507231634"><ele>643.0</ele><time>2026-04-11T13:37:07Z</time></trkpt><trkpt lat="44.34992115233803" lon="9.78662064149082"><ele>646.5</ele><time>2026-04-11T13:37:08Z</time></trkpt><trkpt lat="44.34988433274809" lon="9.786491559587985"><ele>650.0</ele><time>2026-04-11T13:37:09Z</time></trkpt><trkpt lat="44.349872716962466" lon="9.786378510332128"><ele>653.5</ele><time>2026-04-11T13:37:10Z</time></trkpt><trkpt lat="44.34995577757744" lon="9.786227050381983"><ele>657.0</ele><time>2026-04-11T13:37:11Z</time></trkpt><trkpt lat="44.350034720330186" lon="9.78602884938551"><ele>657.3333333333334</ele><time>2026-04-11T13:37:12Z</time></trkpt><trkpt lat="44.350086758290445" lon="9.785817763092648"><ele>657.6666666666667</ele><time>2026-04-11T13:37:13Z</time></trkpt><trkpt lat="44.35009786516105" lon="9.785592785912778"><ele>658.0</ele><time>2026-04-11T13:37:14Z</time></trkpt><trkpt lat="44.35014034598548" lon="9.78540595376965"><ele>658.0</ele><time>2026-04-11T13:37:15Z</time></trkpt><trkpt lat="44.35018374933767" lon="9.785240079342048"><ele>658.0</ele><time>2026-04-11T13:37:15.999Z</time></trkpt><trkpt lat="44.35019736762001" lon="9.785121484435233"><ele>658.0</ele><time>2026-04-11T13:37:16.999Z</time></trkpt><trkpt lat="44.350134970584044" lon="9.78502094435088"><ele>658.0</ele><time>2026-04-11T13:37:17.999Z</time></trkpt><trkpt lat="44.34999855065987" lon="9.784951511981527"><ele>662.0</ele><time>2026-04-11T13:37:18.999Z</time></trkpt><trkpt lat="44.34987489688759" lon="9.78482962027675"><ele>666.0</ele><time>2026-04-11T13:37:19.999Z</time></trkpt><trkpt lat="44.34974742782923" lon="9.78467288819759"><ele>670.0</ele><time>2026-04-11T13:37:20.999Z</time></trkpt><trkpt lat="44.349610393137304" lon="9.784603758825078"><ele>664.0</ele><time>2026-04-11T13:37:21.999Z</time></trkpt><trkpt lat="44.34951866979122" lon="9.784520171603052"><ele>658.0</ele><time>2026-04-11T13:37:22.999Z</time></trkpt><trkpt lat="44.34946092373915" lon="9.784422523082421"><ele>652.0</ele><time>2026-04-11T13:37:23.999Z</time></trkpt><trkpt lat="44.349486420965235" lon="9.784280039603043"><ele>646.0</ele><time>2026-04-11T13:37:24.999Z</time></trkpt><trkpt lat="44.349514698256996" lon="9.784105670055233"><ele>640.0</ele><time>2026-04-11T13:37:25.999Z</time></trkpt><trkpt lat="44.34949126844968" lon="9.783920342645635"><ele>640.0</ele><time>2026-04-11T13:37:26.999Z</time></trkpt><trkpt lat="44.349502755553914" lon="9.783775287141756"><ele>640.0</ele><time>2026-04-11T13:37:27.999Z</time></trkpt><trkpt lat="44.3495690057157" lon="9.783670224267293"><ele>640.0</ele><time>2026-04-11T13:37:28.999Z</time></trkpt><trkpt lat="44.349672274652576" lon="9.783549383410556"><ele>640.0</ele><time>2026-04-11T13:37:29.999Z</time></trkpt><trkpt lat="44.349805032096874" lon="9.783429271082111"><ele>653.0</ele><time>2026-04-11T13:37:30.999Z</time></trkpt><trkpt lat="44.34990160094428" lon="9.78330490047558"><ele>666.0</ele><time>2026-04-11T13:37:31.999Z</time></trkpt><trkpt lat="44.349954647781495" lon="9.783185104301706"><ele>679.0</ele><time>2026-04-11T13:37:32.999Z</time></trkpt><trkpt lat="44.34993887050528" lon="9.782988255994455"><ele>692.0</ele><time>2026-04-11T13:37:33.999Z</time></trkpt><trkpt lat="44.349863853102754" lon="9.782786586795332"><ele>688.25</ele><time>2026-04-11T13:37:34.999Z</time></trkpt><trkpt lat="44.349849288216824" lon="9.782589486853057"><ele>684.5</ele><time>2026-04-11T13:37:35.999Z</time></trkpt><trkpt lat="44.34987692873817" lon="9.782421531673444"><ele>680.75</ele><time>2026-04-11T13:37:36.999Z</time></trkpt><trkpt lat="44.34994947361649" lon="9.782215873503553"><ele>677.0</ele><time>2026-04-11T13:37:37.999Z</time></trkpt><trkpt lat="44.35000461435545" lon="9.78198311186413"><ele>675.0</ele><time>2026-04-11T13:37:38.999Z</time></trkpt><trkpt lat="44.35005507006382" lon="9.781778182079272"><ele>673.0</ele><time>2026-04-11T13:37:39.999Z</time></trkpt><trkpt lat="44.35004166359635" lon="9.781554888207237"><ele>671.0</ele><time>2026-04-11T13:37:40.999Z</time></trkpt><trkpt lat="44.34999609922219" lon="9.78133663322023"><ele>671.0</ele><time>2026-04-11T13:37:41.999Z</time></trkpt><trkpt lat="44.34994196875474" lon="9.781175076150298"><ele>671.0</ele><time>2026-04-11T13:37:42.999Z</time></trkpt><trkpt lat="44.34983546646548" lon="9.781081641952216"><ele>671.0</ele><time>2026-04-11T13:37:43.999Z</time></trkpt><trkpt lat="44.34973875743498" lon="9.781019175786565"><ele>671.0</ele><time>2026-04-11T13:37:44.999Z</time></trkpt><trkpt lat="44.34970356929646" lon="9.780883104460314"><ele>674.25</ele><time>2026-04-11T13:37:45.999Z</time></trkpt><trkpt lat="44.349748143913175" lon="9.780678920906704"><ele>677.5</ele><time>2026-04-11T13:37:46.999Z</time></trkpt><trkpt lat="44.349746054480846" lon="9.780473774151984"><ele>680.75</ele><time>2026-04-11T13:37:47.999Z</time></trkpt><trkpt lat="44.349742577230195" lon="9.78033021205211"><ele>684.0</ele><time>2026-04-11T13:37:48.999Z</time></trkpt><trkpt lat="44.34966289734189" lon="9.780227879906068"><ele>676.0</ele><time>2026-04-11T13:37:49.999Z</time></trkpt><trkpt lat="44.349530678574304" lon="9.780192569124665"><ele>668.0</ele><time>2026-04-11T13:37:50.999Z</time></trkpt><trkpt lat="44.34937613394495" lon="9.780185967791866"><ele>660.0</ele><time>2026-04-11T13:37:51.999Z</time></trkpt><trkpt lat="44.34928459544216" lon="9.780123336694897"><ele>652.0</ele><time>2026-04-11T13:37:52.999Z</time></trkpt><trkpt lat="44.34925674016536" lon="9.779989054833296"><ele>652.0</ele><time>2026-04-11T13:37:53.999Z</time></trkpt><trkpt lat="44.349248008022116" lon="9.779838024928427"><ele>652.0</ele><time>2026-04-11T13:37:54.999Z</time></trkpt><trkpt lat="44.349276831883806" lon="9.779613192481316"><ele>652.0</ele><time>2026-04-11T13:37:55.999Z</time></trkpt><trkpt lat="44.349283556382915" lon="9.77936601972177"><ele>652.0</ele><time>2026-04-11T13:37:56.999Z</time></trkpt><trkpt lat="44.34926402322845" lon="9.779145110055719"><ele>658.0</ele><time>2026-04-11T13:37:57.999Z</time></trkpt><trkpt lat="44.349189685232744" lon="9.778958025163487"><ele>664.0</ele><time>2026-04-11T13:37:58.999Z</time></trkpt><trkpt lat="44.34905218681311" lon="9.778796574479198"><ele>670.0</ele><time>2026-04-11T13:37:59.999Z</time></trkpt><trkpt lat="44.348924707298934" lon="9.778592621581776"><ele>657.3333333333334</ele><time>2026-04-11T13:38:00.999Z</time></trkpt><trkpt lat="44.34882282894894" lon="9.778396210546257"><ele>644.6666666666666</ele><time>2026-04-11T13:38:01.999Z</time></trkpt><trkpt lat="44.348721154134786" lon="9.77820199453984"><ele>632.0</ele><time>2026-04-11T13:38:02.999Z</time></trkpt><trkpt lat="44.3486109949754" lon="9.778074575470686"><ele>632.0</ele><time>2026-04-11T13:38:03.999Z</time></trkpt><trkpt lat="44.34859121557979" lon="9.777916641936589"><ele>632.0</ele><time>2026-04-11T13:38:04.999Z</time></trkpt><trkpt lat="44.348599532843785" lon="9.777769761288813"><ele>632.0</ele><time>2026-04-11T13:38:05.999Z</time></trkpt><trkpt lat="44.34858890766717" lon="9.77752363099231"><ele>632.0</ele><time>2026-04-11T13:38:06.999Z</time></trkpt><trkpt lat="44.34853796127616" lon="9.777262597001846"><ele>636.0</ele><time>2026-04-11T13:38:07.999Z</time></trkpt><trkpt lat="44.34849920273041" lon="9.777008358060817"><ele>640.0</ele><time>2026-04-11T13:38:08.999Z</time></trkpt><trkpt lat="44.34851666516103" lon="9.776774198133495"><ele>644.0</ele><time>2026-04-11T13:38:09.999Z</time></trkpt><trkpt lat="44.348510723643294" lon="9.776577569364756"><ele>644.0</ele><time>2026-04-11T13:38:10.999Z</time></trkpt><trkpt lat="44.34852755665187" lon="9.776450125227521"><ele>644.0</ele><time>2026-04-11T13:38:12Z</time></trkpt><trkpt lat="44.34858867538922" lon="9.77634774500441"><ele>644.0</ele><time>2026-04-11T13:38:13Z</time></trkpt><trkpt lat="44.34872324167516" lon="9.77627060282805"><ele>644.0</ele><time>2026-04-11T13:38:14Z</time></trkpt><trkpt lat="44.348883858267385" lon="9.776167916276435"><ele>646.0</ele><time>2026-04-11T13:38:15Z</time></trkpt><trkpt lat="44.349058375825784" lon="9.776052938029434"><ele>648.0</ele><time>2026-04-11T13:38:16Z</time></trkpt><trkpt lat="44.349235199192655" lon="9.775976456311573"><ele>650.0</ele><time>2026-04-11T13:38:17Z</time></trkpt><trkpt lat="44.349386765930994" lon="9.775911259019306"><ele>650.0</ele><time>2026-04-11T13:38:18Z</time></trkpt><trkpt lat="44.34952884802439" lon="9.7757892302251"><ele>650.0</ele><time>2026-04-11T13:38:19Z</time></trkpt><trkpt lat="44.349670978416825" lon="9.775623995354378"><ele>650.0</ele><time>2026-04-11T13:38:20Z</time></trkpt><trkpt lat="44.34981815593216" lon="9.775460790305809"><ele>647.0</ele><time>2026-04-11T13:38:21Z</time></trkpt><trkpt lat="44.349961343249966" lon="9.775324406192897"><ele>644.0</ele><time>2026-04-11T13:38:22Z</time></trkpt><trkpt lat="44.350109872663936" lon="9.775239321281813"><ele>641.0</ele><time>2026-04-11T13:38:23Z</time></trkpt><trkpt lat="44.35022957881862" lon="9.775098814642"><ele>641.0</ele><time>2026-04-11T13:38:24Z</time></trkpt><trkpt lat="44.350355765129564" lon="9.774912324423482"><ele>641.0</ele><time>2026-04-11T13:38:25Z</time></trkpt><trkpt lat="44.35046888771602" lon="9.774750365699386"><ele>641.0</ele><time>2026-04-11T13:38:26Z</time></trkpt><trkpt lat="44.350572321236676" lon="9.774630932421458"><ele>648.0</ele><time>2026-04-11T13:38:27Z</time></trkpt><trkpt lat="44.35069609792987" lon="9.774624869170863"><ele>655.0</ele><time>2026-04-11T13:38:28Z</time></trkpt><trkpt lat="44.35085257823246" lon="9.774566687647992"><ele>662.0</ele><time>2026-04-11T13:38:29Z</time></trkpt><trkpt lat="44.351001029736615" lon="9.774497854211456"><ele>669.0</ele><time>2026-04-11T13:38:30Z</time></trkpt><trkpt lat="44.351114173036336" lon="9.774442938633372"><ele>669.0</ele><time>2026-04-11T13:38:31Z</time></trkpt><trkpt lat="44.3512130891212" lon="9.774380552188077"><ele>669.0</ele><time>2026-04-11T13:38:32Z</time></trkpt><trkpt lat="44.35124698273787" lon="9.77420639776154"><ele>669.0</ele><time>2026-04-11T13:38:33Z</time></trkpt><trkpt lat="44.351234654915864" lon="9.774030785968172"><ele>669.0</ele><time>2026-04-11T13:38:34Z</time></trkpt><trkpt lat="44.351188447889" lon="9.773843894268026"><ele>662.4000000000001</ele><time>2026-04-11T13:38:35Z</time></trkpt><trkpt lat="44.35114369970217" lon="9.773637433170197"><ele>655.8000000000001</ele><time>2026-04-11T13:38:36Z</time></trkpt><trkpt lat="44.35111723679573" lon="9.773489769813237"><ele>649.2</ele><time>2026-04-11T13:38:37Z</time></trkpt><trkpt lat="44.3511458748526" lon="9.77340466490947"><ele>642.6</ele><time>2026-04-11T13:38:38Z</time></trkpt><trkpt lat="44.35119540237743" lon="9.77330765696388"><ele>636.0</ele><time>2026-04-11T13:38:39Z</time></trkpt><trkpt lat="44.35132725129756" lon="9.773250961216382"><ele>638.0</ele><time>2026-04-11T13:38:40Z</time></trkpt><trkpt lat="44.35148450200241" lon="9.77322664337888"><ele>640.0</ele><time>2026-04-11T13:38:41Z</time></trkpt><trkpt lat="44.35162970704469" lon="9.773204070744839"><ele>642.0</ele><time>2026-04-11T13:38:42Z</time></trkpt><trkpt lat="44.351752123523454" lon="9.773150409392578"><ele>644.0</ele><time>2026-04-11T13:38:43Z</time></trkpt><trkpt lat="44.351847091720934" lon="9.772992965209456"><ele>644.0</ele><time>2026-04-11T13:38:44Z</time></trkpt><trkpt lat="44.35191031984005" lon="9.772792437200554"><ele>644.0</ele><time>2026-04-11T13:38:45Z</time></trkpt><trkpt lat="44.35197863959238" lon="9.772611139660837"><ele>644.0</ele><time>2026-04-11T13:38:46Z</time></trkpt><trkpt lat="44.35205547044416" lon="9.772439563298564"><ele>644.0</ele><time>2026-04-11T13:38:47Z</time></trkpt><trkpt lat="44.35211119867814" lon="9.772262346523494"><ele>638.75</ele><time>2026-04-11T13:38:48Z</time></trkpt><trkpt lat="44.35213181402722" lon="9.772054861587806"><ele>633.5</ele><time>2026-04-11T13:38:49Z</time></trkpt><trkpt lat="44.35211417489614" lon="9.771838207769239"><ele>628.25</ele><time>2026-04-11T13:38:50Z</time></trkpt><trkpt lat="44.35210662903208" lon="9.771640253825769"><ele>623.0</ele><time>2026-04-11T13:38:51Z</time></trkpt><trkpt lat="44.35211751946259" lon="9.771454752914487"><ele>623.0</ele><time>2026-04-11T13:38:52Z</time></trkpt><trkpt lat="44.352111186330134" lon="9.771269305386566"><ele>623.0</ele><time>2026-04-11T13:38:53Z</time></trkpt><trkpt lat="44.35210577674465" lon="9.77110140484889"><ele>623.0</ele><time>2026-04-11T13:38:54Z</time></trkpt><trkpt lat="44.35209752763062" lon="9.770940822688386"><ele>623.0</ele><time>2026-04-11T13:38:55Z</time></trkpt><trkpt lat="44.35207729763346" lon="9.770778349310545"><ele>623.0</ele><time>2026-04-11T13:38:56Z</time></trkpt><trkpt lat="44.35198557634666" lon="9.770648790027455"><ele>623.0</ele><time>2026-04-11T13:38:57Z</time></trkpt><trkpt lat="44.35193000518611" lon="9.770523453351267"><ele>623.0</ele><time>2026-04-11T13:38:58Z</time></trkpt><trkpt lat="44.35187732004844" lon="9.77041703037794"><ele>623.0</ele><time>2026-04-11T13:38:59Z</time></trkpt><trkpt lat="44.35180046179923" lon="9.770356775400085"><ele>623.0</ele><time>2026-04-11T13:39:00Z</time></trkpt><trkpt lat="44.35171777077844" lon="9.770345012662107"><ele>623.0</ele><time>2026-04-11T13:39:01Z</time></trkpt><trkpt lat="44.3516281069242" lon="9.770404667746556"><ele>623.0</ele><time>2026-04-11T13:39:02Z</time></trkpt><trkpt lat="44.35155662482068" lon="9.770506553504443"><ele>623.0</ele><time>2026-04-11T13:39:03Z</time></trkpt><trkpt lat="44.35148949148356" lon="9.770618597953153"><ele>623.0</ele><time>2026-04-11T13:39:04Z</time></trkpt><trkpt lat="44.35142079130235" lon="9.770712224533902"><ele>623.0</ele><time>2026-04-11T13:39:05Z</time></trkpt><trkpt lat="44.351333834805615" lon="9.77080668321068"><ele>627.0</ele><time>2026-04-11T13:39:06Z</time></trkpt><trkpt lat="44.35125347450873" lon="9.770869268763244"><ele>631.0</ele><time>2026-04-11T13:39:07Z</time></trkpt><trkpt lat="44.351169838484196" lon="9.770920555744585"><ele>635.0</ele><time>2026-04-11T13:39:08Z</time></trkpt><trkpt lat="44.35107639454561" lon="9.770947821167818"><ele>639.0</ele><time>2026-04-11T13:39:09Z</time></trkpt><trkpt lat="44.35097640988155" lon="9.770911802553247"><ele>643.0</ele><time>2026-04-11T13:39:10Z</time></trkpt><trkpt lat="44.35087971277664" lon="9.770930781565452"><ele>643.0</ele><time>2026-04-11T13:39:11Z</time></trkpt><trkpt lat="44.350781404504524" lon="9.770925902428894"><ele>643.0</ele><time>2026-04-11T13:39:12Z</time></trkpt><trkpt lat="44.35068923511276" lon="9.770958801066186"><ele>643.0</ele><time>2026-04-11T13:39:13Z</time></trkpt><trkpt lat="44.35060200892875" lon="9.771021352925613"><ele>643.0</ele><time>2026-04-11T13:39:14Z</time></trkpt><trkpt lat="44.350512944765974" lon="9.771093662491715"><ele>643.0</ele><time>2026-04-11T13:39:15Z</time></trkpt><trkpt lat="44.35041489912609" lon="9.771149881469857"><ele>640.6</ele><time>2026-04-11T13:39:16Z</time></trkpt><trkpt lat="44.35031122542969" lon="9.771183510998352"><ele>638.1999999999999</ele><time>2026-04-11T13:39:17Z</time></trkpt><trkpt lat="44.350209686365666" lon="9.771214241901927"><ele>635.8</ele><time>2026-04-11T13:39:18Z</time></trkpt><trkpt lat="44.35011760067642" lon="9.771230933437693"><ele>633.4</ele><time>2026-04-11T13:39:19Z</time></trkpt><trkpt lat="44.35003424813555" lon="9.771257999208466"><ele>631.0</ele><time>2026-04-11T13:39:20Z</time></trkpt><trkpt lat="44.349951462008" lon="9.771290187091132"><ele>631.0</ele><time>2026-04-11T13:39:20.999Z</time></trkpt><trkpt lat="44.34986741479963" lon="9.771311862785518"><ele>631.0</ele><time>2026-04-11T13:39:21.999Z</time></trkpt><trkpt lat="44.34977384834468" lon="9.771296998701072"><ele>631.0</ele><time>2026-04-11T13:39:22.999Z</time></trkpt><trkpt lat="44.3496772707951" lon="9.771283643135744"><ele>631.0</ele><time>2026-04-11T13:39:23.999Z</time></trkpt><trkpt lat="44.34957268464589" lon="9.771269074773489"><ele>631.0</ele><time>2026-04-11T13:39:24.999Z</time></trkpt><trkpt lat="44.34946873807309" lon="9.771259009877024"><ele>631.8</ele><time>2026-04-11T13:39:25.999Z</time></trkpt><trkpt lat="44.349367420467026" lon="9.771245444572395"><ele>632.6</ele><time>2026-04-11T13:39:26.999Z</time></trkpt><trkpt lat="44.34926487277625" lon="9.77124205704776"><ele>633.4</ele><time>2026-04-11T13:39:27.999Z</time></trkpt><trkpt lat="44.349168835570815" lon="9.77124834523311"><ele>634.2</ele><time>2026-04-11T13:39:28.999Z</time></trkpt><trkpt lat="44.349085414427535" lon="9.77128725686606"><ele>635.0</ele><time>2026-04-11T13:39:29.999Z</time></trkpt><trkpt lat="44.34900707799645" lon="9.77135286397175"><ele>635.0</ele><time>2026-04-11T13:39:30.999Z</time></trkpt><trkpt lat="44.348935678229495" lon="9.771364998071157"><ele>635.0</ele><time>2026-04-11T13:39:31.999Z</time></trkpt><trkpt lat="44.348872152580114" lon="9.771373393116459"><ele>635.0</ele><time>2026-04-11T13:39:32.999Z</time></trkpt><trkpt lat="44.34880571330371" lon="9.771371652651737"><ele>635.0</ele><time>2026-04-11T13:39:33.999Z</time></trkpt><trkpt lat="44.348746440838596" lon="9.771293120819683"><ele>635.0</ele><time>2026-04-11T13:39:34.999Z</time></trkpt><trkpt lat="44.348726746124385" lon="9.771164521304366"><ele>635.0</ele><time>2026-04-11T13:39:35.999Z</time></trkpt><trkpt lat="44.34876609366776" lon="9.771028181846209"><ele>633.8</ele><time>2026-04-11T13:39:36.999Z</time></trkpt><trkpt lat="44.348800599781804" lon="9.770896667880956"><ele>632.6</ele><time>2026-04-11T13:39:37.999Z</time></trkpt><trkpt lat="44.34887171984759" lon="9.770806670422402"><ele>631.4</ele><time>2026-04-11T13:39:38.999Z</time></trkpt><trkpt lat="44.348933435209794" lon="9.770704957762373"><ele>630.2</ele><time>2026-04-11T13:39:39.999Z</time></trkpt><trkpt lat="44.34902247264862" lon="9.770622811057285"><ele>629.0</ele><time>2026-04-11T13:39:40.999Z</time></trkpt><trkpt lat="44.34911283951402" lon="9.770548043525373"><ele>631.75</ele><time>2026-04-11T13:39:41.999Z</time></trkpt><trkpt lat="44.349198563832715" lon="9.770448746475305"><ele>634.5</ele><time>2026-04-11T13:39:42.999Z</time></trkpt><trkpt lat="44.34927226758456" lon="9.770336715427902"><ele>637.25</ele><time>2026-04-11T13:39:43.999Z</time></trkpt><trkpt lat="44.349322149323505" lon="9.770195192351851"><ele>640.0</ele><time>2026-04-11T13:39:44.999Z</time></trkpt><trkpt lat="44.349359702173146" lon="9.770038663355477"><ele>640.0</ele><time>2026-04-11T13:39:45.999Z</time></trkpt><trkpt lat="44.349410554972586" lon="9.769898528682086"><ele>640.0</ele><time>2026-04-11T13:39:46.999Z</time></trkpt><trkpt lat="44.34946587278977" lon="9.769764513284358"><ele>640.0</ele><time>2026-04-11T13:39:47.999Z</time></trkpt><trkpt lat="44.349517693869494" lon="9.769635271669344"><ele>640.0</ele><time>2026-04-11T13:39:48.999Z</time></trkpt><trkpt lat="44.34956386316727" lon="9.769503625740539"><ele>640.0</ele><time>2026-04-11T13:39:49.999Z</time></trkpt><trkpt lat="44.349612287316845" lon="9.769357878647217"><ele>640.0</ele><time>2026-04-11T13:39:50.999Z</time></trkpt><trkpt lat="44.34967589355377" lon="9.769248979443974"><ele>640.0</ele><time>2026-04-11T13:39:51.999Z</time></trkpt><trkpt lat="44.34973501163446" lon="9.769138056043039"><ele>640.0</ele><time>2026-04-11T13:39:52.999Z</time></trkpt><trkpt lat="44.34981293261547" lon="9.769058173962266"><ele>640.0</ele><time>2026-04-11T13:39:53.999Z</time></trkpt><trkpt lat="44.34989129114575" lon="9.76896222124214"><ele>640.0</ele><time>2026-04-11T13:39:54.999Z</time></trkpt><trkpt lat="44.34994986455806" lon="9.768859020896452"><ele>642.8</ele><time>2026-04-11T13:39:55.999Z</time></trkpt><trkpt lat="44.349962268746935" lon="9.768715934842941"><ele>645.6</ele><time>2026-04-11T13:39:56.999Z</time></trkpt><trkpt lat="44.34995013304249" lon="9.768564559800549"><ele>648.4000000000001</ele><time>2026-04-11T13:39:57.999Z</time></trkpt><trkpt lat="44.34988599416853" lon="9.768420636845244"><ele>651.2</ele><time>2026-04-11T13:39:58.999Z</time></trkpt><trkpt lat="44.349840686095696" lon="9.768290154820335"><ele>654.0</ele><time>2026-04-11T13:39:59.999Z</time></trkpt><trkpt lat="44.34979797388913" lon="9.76816013836989"><ele>654.0</ele><time>2026-04-11T13:40:00.999Z</time></trkpt><trkpt lat="44.34980721035137" lon="9.768010059286354"><ele>654.0</ele><time>2026-04-11T13:40:01.999Z</time></trkpt><trkpt lat="44.34977343899118" lon="9.767901509073099"><ele>654.0</ele><time>2026-04-11T13:40:02.999Z</time></trkpt><trkpt lat="44.34975904220912" lon="9.767797690197325"><ele>654.0</ele><time>2026-04-11T13:40:03.999Z</time></trkpt><trkpt lat="44.3496816043763" lon="9.767728243526983"><ele>654.0</ele><time>2026-04-11T13:40:04.999Z</time></trkpt><trkpt lat="44.34957631281369" lon="9.767737264165834"><ele>655.2</ele><time>2026-04-11T13:40:05.999Z</time></trkpt><trkpt lat="44.3494731866442" lon="9.767713599016812"><ele>656.4000000000001</ele><time>2026-04-11T13:40:06.999Z</time></trkpt><trkpt lat="44.34936166241727" lon="9.767716926071758"><ele>657.6</ele><time>2026-04-11T13:40:07.999Z</time></trkpt><trkpt lat="44.34925726062333" lon="9.767744167625407"><ele>658.8</ele><time>2026-04-11T13:40:08.999Z</time></trkpt><trkpt lat="44.349140852470214" lon="9.767700696881171"><ele>660.0</ele><time>2026-04-11T13:40:09.999Z</time></trkpt><trkpt lat="44.34902358694637" lon="9.767661698039928"><ele>660.0</ele><time>2026-04-11T13:40:10.999Z</time></trkpt><trkpt lat="44.348899909092346" lon="9.767616432818711"><ele>660.0</ele><time>2026-04-11T13:40:11.999Z</time></trkpt><trkpt lat="44.348777561129715" lon="9.767611943165624"><ele>660.0</ele><time>2026-04-11T13:40:12.999Z</time></trkpt><trkpt lat="44.348661858470415" lon="9.767569525731808"><ele>660.0</ele><time>2026-04-11T13:40:13.999Z</time></trkpt><trkpt lat="44.34853813115167" lon="9.76754233881086"><ele>659.0</ele><time>2026-04-11T13:40:14.999Z</time></trkpt><trkpt lat="44.34841847718319" lon="9.767498650214604"><ele>658.0</ele><time>2026-04-11T13:40:15.999Z</time></trkpt><trkpt lat="44.348317851220266" lon="9.767457544696892"><ele>657.0</ele><time>2026-04-11T13:40:16.999Z</time></trkpt><trkpt lat="44.34822772015533" lon="9.767388838344932"><ele>656.0</ele><time>2026-04-11T13:40:18Z</time></trkpt><trkpt lat="44.34813502091369" lon="9.767293869401742"><ele>655.0</ele><time>2026-04-11T13:40:19Z</time></trkpt><trkpt lat="44.34806323238913" lon="9.767163872311055"><ele>653.25</ele><time>2026-04-11T13:40:20Z</time></trkpt><trkpt lat="44.34800277832194" lon="9.767015699393"><ele>651.5</ele><time>2026-04-11T13:40:21Z</time></trkpt><trkpt lat="44.34796666343082" lon="9.76685047652209"><ele>649.75</ele><time>2026-04-11T13:40:22Z</time></trkpt><trkpt lat="44.34797002344714" lon="9.766661805382602"><ele>648.0</ele><time>2026-04-11T13:40:23Z</time></trkpt><trkpt lat="44.3479641472561" lon="9.766460173007664"><ele>648.0</ele><time>2026-04-11T13:40:24Z</time></trkpt><trkpt lat="44.34798730925916" lon="9.766272435325693"><ele>648.0</ele><time>2026-04-11T13:40:25Z</time></trkpt><trkpt lat="44.34800396938311" lon="9.766124220228642"><ele>648.0</ele><time>2026-04-11T13:40:26Z</time></trkpt><trkpt lat="44.348010816656064" lon="9.766002336375264"><ele>648.0</ele><time>2026-04-11T13:40:27Z</time></trkpt><trkpt lat="44.34800343038025" lon="9.76579410881274"><ele>649.5</ele><time>2026-04-11T13:40:29Z</time></trkpt><trkpt lat="44.347999022747786" lon="9.765643686283267"><ele>651.0</ele><time>2026-04-11T13:40:30Z</time></trkpt><trkpt lat="44.347992979922715" lon="9.765456793839704"><ele>652.5</ele><time>2026-04-11T13:40:31Z</time></trkpt><trkpt lat="44.347990497024234" lon="9.765263885199893"><ele>654.0</ele><time>2026-04-11T13:40:32Z</time></trkpt><trkpt lat="44.347947721463285" lon="9.765062614355967"><ele>656.3333333333334</ele><time>2026-04-11T13:40:33Z</time></trkpt><trkpt lat="44.347930258096966" lon="9.764855380350966"><ele>658.6666666666667</ele><time>2026-04-11T13:40:34Z</time></trkpt><trkpt lat="44.34793379185091" lon="9.764633177765072"><ele>661.0</ele><time>2026-04-11T13:40:35Z</time></trkpt><trkpt lat="44.34792058917577" lon="9.764403224712781"><ele>661.5</ele><time>2026-04-11T13:40:36Z</time></trkpt><trkpt lat="44.34792824506319" lon="9.764168464434892"><ele>662.0</ele><time>2026-04-11T13:40:37Z</time></trkpt><trkpt lat="44.34792506720783" lon="9.764028278000461"><ele>662.5</ele><time>2026-04-11T13:40:38Z</time></trkpt><trkpt lat="44.34800418920617" lon="9.763878325333062"><ele>663.0</ele><time>2026-04-11T13:40:39Z</time></trkpt><trkpt lat="44.34807983786201" lon="9.76372519075719"><ele>665.75</ele><time>2026-04-11T13:40:40Z</time></trkpt><trkpt lat="44.3481617749593" lon="9.763591457956746"><ele>668.5</ele><time>2026-04-11T13:40:41Z</time></trkpt><trkpt lat="44.348268329298364" lon="9.763498961131315"><ele>671.25</ele><time>2026-04-11T13:40:42Z</time></trkpt><trkpt lat="44.34838658959656" lon="9.763369481796355"><ele>674.0</ele><time>2026-04-11T13:40:43Z</time></trkpt><trkpt lat="44.348508684202386" lon="9.76324702979739"><ele>674.0</ele><time>2026-04-11T13:40:44Z</time></trkpt><trkpt lat="44.348628328391584" lon="9.763137175401978"><ele>674.0</ele><time>2026-04-11T13:40:45Z</time></trkpt><trkpt lat="44.34874399042995" lon="9.763050265690026"><ele>674.0</ele><time>2026-04-11T13:40:46Z</time></trkpt><trkpt lat="44.34885876386504" lon="9.762973168812389"><ele>674.0</ele><time>2026-04-11T13:40:47Z</time></trkpt><trkpt lat="44.348962292996774" lon="9.762878789729697"><ele>674.25</ele><time>2026-04-11T13:40:48Z</time></trkpt><trkpt lat="44.34907254847438" lon="9.762754592390323"><ele>674.5</ele><time>2026-04-11T13:40:49Z</time></trkpt><trkpt lat="44.34915373201132" lon="9.762603533418037"><ele>674.75</ele><time>2026-04-11T13:40:50Z</time></trkpt><trkpt lat="44.3492060475289" lon="9.762434693116324"><ele>675.0</ele><time>2026-04-11T13:40:51Z</time></trkpt><trkpt lat="44.34923080982587" lon="9.762279969340687"><ele>675.0</ele><time>2026-04-11T13:40:52Z</time></trkpt><trkpt lat="44.34923072768178" lon="9.762111328575694"><ele>675.0</ele><time>2026-04-11T13:40:53Z</time></trkpt><trkpt lat="44.34921126569558" lon="9.76192277524109"><ele>675.0</ele><time>2026-04-11T13:40:54Z</time></trkpt><trkpt lat="44.34917390995529" lon="9.76171685271511"><ele>675.0</ele><time>2026-04-11T13:40:55Z</time></trkpt><trkpt lat="44.34911383044209" lon="9.761514665730465"><ele>675.0</ele><time>2026-04-11T13:40:56Z</time></trkpt><trkpt lat="44.349038465626265" lon="9.761325253382585"><ele>675.0</ele><time>2026-04-11T13:40:57Z</time></trkpt><trkpt lat="44.349012211903265" lon="9.76113954402503"><ele>675.0</ele><time>2026-04-11T13:40:58Z</time></trkpt><trkpt lat="44.348995480936736" lon="9.760941107267646"><ele>675.0</ele><time>2026-04-11T13:40:59Z</time></trkpt><trkpt lat="44.34898967656133" lon="9.760719943577948"><ele>676.5</ele><time>2026-04-11T13:41:00Z</time></trkpt><trkpt lat="44.34898828214219" lon="9.760504634214053"><ele>678.0</ele><time>2026-04-11T13:41:01Z</time></trkpt><trkpt lat="44.3489734662008" lon="9.760298245220431"><ele>679.5</ele><time>2026-04-11T13:41:02Z</time></trkpt><trkpt lat="44.34899811104658" lon="9.760098312567484"><ele>681.0</ele><time>2026-04-11T13:41:03Z</time></trkpt><trkpt lat="44.34897818419771" lon="9.759923978815422"><ele>681.75</ele><time>2026-04-11T13:41:04Z</time></trkpt><trkpt lat="44.348948486451235" lon="9.75977829626379"><ele>682.5</ele><time>2026-04-11T13:41:05Z</time></trkpt><trkpt lat="44.34884722973769" lon="9.759652757406323"><ele>683.25</ele><time>2026-04-11T13:41:06Z</time></trkpt><trkpt lat="44.348695778418104" lon="9.759551521663997"><ele>684.0</ele><time>2026-04-11T13:41:07Z</time></trkpt><trkpt lat="44.34853155517357" lon="9.759471820228013"><ele>682.0</ele><time>2026-04-11T13:41:08Z</time></trkpt><trkpt lat="44.34839103638208" lon="9.75939060927682"><ele>680.0</ele><time>2026-04-11T13:41:09Z</time></trkpt><trkpt lat="44.348290610734296" lon="9.759278758646033"><ele>678.0</ele><time>2026-04-11T13:41:10Z</time></trkpt><trkpt lat="44.348120573604035" lon="9.759155995249602"><ele>668.6666666666666</ele><time>2026-04-11T13:41:11Z</time></trkpt><trkpt lat="44.347960935860996" lon="9.758990890384466"><ele>659.3333333333333</ele><time>2026-04-11T13:41:12Z</time></trkpt><trkpt lat="44.34786580080147" lon="9.75879980216189"><ele>650.0</ele><time>2026-04-11T13:41:13Z</time></trkpt><trkpt lat="44.34789169338523" lon="9.758660504629676"><ele>648.25</ele><time>2026-04-11T13:41:15Z</time></trkpt><trkpt lat="44.34791226488493" lon="9.75850478522882"><ele>646.5</ele><time>2026-04-11T13:41:16Z</time></trkpt><trkpt lat="44.34793224897531" lon="9.75831040390012"><ele>644.75</ele><time>2026-04-11T13:41:17Z</time></trkpt><trkpt lat="44.34795290940251" lon="9.758109443384535"><ele>643.0</ele><time>2026-04-11T13:41:18Z</time></trkpt><trkpt lat="44.34797411184904" lon="9.757908308505444"><ele>643.0</ele><time>2026-04-11T13:41:19Z</time></trkpt><trkpt lat="44.34799544436541" lon="9.757709413759082"><ele>643.0</ele><time>2026-04-11T13:41:20Z</time></trkpt><trkpt lat="44.348030813537775" lon="9.757524812786407"><ele>643.0</ele><time>2026-04-11T13:41:21Z</time></trkpt><trkpt lat="44.34809370654179" lon="9.757368737661679"><ele>643.0</ele><time>2026-04-11T13:41:22Z</time></trkpt><trkpt lat="44.34816895245629" lon="9.757219096513028"><ele>647.5</ele><time>2026-04-11T13:41:23Z</time></trkpt><trkpt lat="44.34823570889833" lon="9.757047169512655"><ele>652.0</ele><time>2026-04-11T13:41:24Z</time></trkpt><trkpt lat="44.34826021957992" lon="9.756852730389351"><ele>656.5</ele><time>2026-04-11T13:41:25Z</time></trkpt><trkpt lat="44.348284835678605" lon="9.756654284582712"><ele>661.0</ele><time>2026-04-11T13:41:26Z</time></trkpt><trkpt lat="44.34829547128409" lon="9.756452864517401"><ele>661.0</ele><time>2026-04-11T13:41:26.999Z</time></trkpt><trkpt lat="44.348306569930195" lon="9.756252794029374"><ele>661.0</ele><time>2026-04-11T13:41:27.999Z</time></trkpt><trkpt lat="44.34833188049859" lon="9.756051585092282"><ele>661.0</ele><time>2026-04-11T13:41:28.999Z</time></trkpt><trkpt lat="44.348356344357626" lon="9.75585069248086"><ele>661.0</ele><time>2026-04-11T13:41:29.999Z</time></trkpt><trkpt lat="44.34837807117693" lon="9.755663153174462"><ele>660.0</ele><time>2026-04-11T13:41:30.999Z</time></trkpt><trkpt lat="44.348381730973294" lon="9.75550795302963"><ele>659.0</ele><time>2026-04-11T13:41:31.999Z</time></trkpt><trkpt lat="44.34837926791639" lon="9.755382680063747"><ele>658.0</ele><time>2026-04-11T13:41:32.999Z</time></trkpt><trkpt lat="44.348329820461714" lon="9.755290461295797"><ele>657.0</ele><time>2026-04-11T13:41:33.999Z</time></trkpt><trkpt lat="44.34827898728066" lon="9.755207175555517"><ele>656.0</ele><time>2026-04-11T13:41:34.999Z</time></trkpt><trkpt lat="44.348196287637876" lon="9.755171020672961"><ele>655.0</ele><time>2026-04-11T13:41:35.999Z</time></trkpt><trkpt lat="44.34810288804053" lon="9.755192436836989"><ele>656.5</ele><time>2026-04-11T13:41:36.999Z</time></trkpt><trkpt lat="44.34802906414232" lon="9.755302447804121"><ele>658.0</ele><time>2026-04-11T13:41:37.999Z</time></trkpt><trkpt lat="44.347974458318085" lon="9.755465772462639"><ele>659.5</ele><time>2026-04-11T13:41:38.999Z</time></trkpt><trkpt lat="44.34790123844032" lon="9.75564106945601"><ele>661.0</ele><time>2026-04-11T13:41:39.999Z</time></trkpt><trkpt lat="44.34778401002279" lon="9.755743996947066"><ele>661.0</ele><time>2026-04-11T13:41:40.999Z</time></trkpt><trkpt lat="44.34765643959737" lon="9.755760286592324"><ele>661.0</ele><time>2026-04-11T13:41:41.999Z</time></trkpt><trkpt lat="44.3475055761411" lon="9.755803209373504"><ele>661.0</ele><time>2026-04-11T13:41:42.999Z</time></trkpt><trkpt lat="44.34734331758266" lon="9.755910036598126"><ele>661.0</ele><time>2026-04-11T13:41:43.999Z</time></trkpt><trkpt lat="44.347232320225025" lon="9.756062935141383"><ele>661.0</ele><time>2026-04-11T13:41:44.999Z</time></trkpt><trkpt lat="44.34717422763928" lon="9.756236096054895"><ele>661.0</ele><time>2026-04-11T13:41:45.999Z</time></trkpt><trkpt lat="44.34718117120939" lon="9.756439440578559"><ele>661.0</ele><time>2026-04-11T13:41:46.999Z</time></trkpt><trkpt lat="44.34720479038956" lon="9.75667111510422"><ele>654.75</ele><time>2026-04-11T13:41:47.999Z</time></trkpt><trkpt lat="44.347205918431676" lon="9.756871513302197"><ele>648.5</ele><time>2026-04-11T13:41:48.999Z</time></trkpt><trkpt lat="44.34712555206389" lon="9.756998609801846"><ele>642.25</ele><time>2026-04-11T13:41:49.999Z</time></trkpt><trkpt lat="44.34700591845148" lon="9.757045767462834"><ele>636.0</ele><time>2026-04-11T13:41:50.999Z</time></trkpt><trkpt lat="44.34689966427932" lon="9.756987434488545"><ele>636.0</ele><time>2026-04-11T13:41:51.999Z</time></trkpt><trkpt lat="44.34678328721702" lon="9.756915165113794"><ele>636.0</ele><time>2026-04-11T13:41:52.999Z</time></trkpt><trkpt lat="44.34664681192637" lon="9.756874480579873"><ele>636.0</ele><time>2026-04-11T13:41:53.999Z</time></trkpt><trkpt lat="44.3464995223967" lon="9.756873934919316"><ele>636.0</ele><time>2026-04-11T13:41:54.999Z</time></trkpt><trkpt lat="44.3463641312185" lon="9.756893439425099"><ele>642.0</ele><time>2026-04-11T13:41:55.999Z</time></trkpt><trkpt lat="44.346238652160096" lon="9.756863329586778"><ele>648.0</ele><time>2026-04-11T13:41:56.999Z</time></trkpt><trkpt lat="44.34610955319065" lon="9.756748171622672"><ele>654.0</ele><time>2026-04-11T13:41:57.999Z</time></trkpt><trkpt lat="44.345951639621646" lon="9.756660071880184"><ele>654.0</ele><time>2026-04-11T13:41:58.999Z</time></trkpt><trkpt lat="44.34579540134236" lon="9.756552106319921"><ele>654.0</ele><time>2026-04-11T13:41:59.999Z</time></trkpt><trkpt lat="44.34566308202368" lon="9.756461758847182"><ele>654.0</ele><time>2026-04-11T13:42:00.999Z</time></trkpt><trkpt lat="44.345529633537936" lon="9.756390498050326"><ele>654.5</ele><time>2026-04-11T13:42:01.999Z</time></trkpt><trkpt lat="44.34540119812164" lon="9.756346159480204"><ele>655.0</ele><time>2026-04-11T13:42:02.999Z</time></trkpt><trkpt lat="44.345280229634625" lon="9.756359349049077"><ele>655.5</ele><time>2026-04-11T13:42:03.999Z</time></trkpt><trkpt lat="44.345167122691926" lon="9.756454411274634"><ele>656.0</ele><time>2026-04-11T13:42:04.999Z</time></trkpt><trkpt lat="44.34505035248106" lon="9.756587339778271"><ele>656.0</ele><time>2026-04-11T13:42:05.999Z</time></trkpt><trkpt lat="44.34492561311546" lon="9.756736361432088"><ele>656.0</ele><time>2026-04-11T13:42:06.999Z</time></trkpt><trkpt lat="44.34479864970835" lon="9.75686313673663"><ele>656.0</ele><time>2026-04-11T13:42:07.999Z</time></trkpt><trkpt lat="44.3446544578879" lon="9.756959894792521"><ele>656.5</ele><time>2026-04-11T13:42:08.999Z</time></trkpt><trkpt lat="44.34451044067948" lon="9.757020207690424"><ele>657.0</ele><time>2026-04-11T13:42:09.999Z</time></trkpt><trkpt lat="44.3443669048908" lon="9.75704834032107"><ele>657.5</ele><time>2026-04-11T13:42:10.999Z</time></trkpt><trkpt lat="44.34423104027326" lon="9.757057215034626"><ele>658.0</ele><time>2026-04-11T13:42:11.999Z</time></trkpt><trkpt lat="44.34411473714074" lon="9.75706683077251"><ele>658.0</ele><time>2026-04-11T13:42:12.999Z</time></trkpt><trkpt lat="44.34399234755886" lon="9.757130668523223"><ele>658.0</ele><time>2026-04-11T13:42:13.999Z</time></trkpt><trkpt lat="44.34388781255645" lon="9.757255277107216"><ele>658.0</ele><time>2026-04-11T13:42:14.999Z</time></trkpt><trkpt lat="44.343797019249195" lon="9.757419074866924"><ele>658.0</ele><time>2026-04-11T13:42:15.999Z</time></trkpt><trkpt lat="44.343702757526735" lon="9.75756771630571"><ele>658.75</ele><time>2026-04-11T13:42:16.999Z</time></trkpt><trkpt lat="44.34361279483956" lon="9.757694892721055"><ele>659.5</ele><time>2026-04-11T13:42:17.999Z</time></trkpt><trkpt lat="44.343528919681106" lon="9.757817437816916"><ele>660.25</ele><time>2026-04-11T13:42:18.999Z</time></trkpt><trkpt lat="44.34344058887932" lon="9.757928899236141"><ele>661.0</ele><time>2026-04-11T13:42:19.999Z</time></trkpt><trkpt lat="44.343337955613634" lon="9.75803490772107"><ele>661.0</ele><time>2026-04-11T13:42:20.999Z</time></trkpt><trkpt lat="44.34322478324127" lon="9.758129675478079"><ele>661.0</ele><time>2026-04-11T13:42:21.999Z</time></trkpt><trkpt lat="44.34310460513009" lon="9.758225401923134"><ele>661.0</ele><time>2026-04-11T13:42:22.999Z</time></trkpt><trkpt lat="44.34298383510804" lon="9.758325020685112"><ele>661.0</ele><time>2026-04-11T13:42:24Z</time></trkpt><trkpt lat="44.34286113703627" lon="9.758430761078513"><ele>661.75</ele><time>2026-04-11T13:42:25Z</time></trkpt><trkpt lat="44.342739129106555" lon="9.758534588803416"><ele>662.5</ele><time>2026-04-11T13:42:26Z</time></trkpt><trkpt lat="44.34262000657331" lon="9.758638926085423"><ele>663.25</ele><time>2026-04-11T13:42:27Z</time></trkpt><trkpt lat="44.34249926659209" lon="9.758745708502946"><ele>664.0</ele><time>2026-04-11T13:42:28Z</time></trkpt><trkpt lat="44.3423809228536" lon="9.758857384439052"><ele>664.0</ele><time>2026-04-11T13:42:29Z</time></trkpt><trkpt lat="44.34226365821537" lon="9.75897222861699"><ele>664.0</ele><time>2026-04-11T13:42:30Z</time></trkpt><trkpt lat="44.3421401416009" lon="9.75908212139035"><ele>664.0</ele><time>2026-04-11T13:42:31Z</time></trkpt><trkpt lat="44.34202619395083" lon="9.759172581877083"><ele>664.0</ele><time>2026-04-11T13:42:32Z</time></trkpt><trkpt lat="44.34193302925426" lon="9.75925368826725"><ele>665.2</ele><time>2026-04-11T13:42:33Z</time></trkpt><trkpt lat="44.341853907452425" lon="9.759325330721072"><ele>666.4000000000001</ele><time>2026-04-11T13:42:34Z</time></trkpt><trkpt lat="44.341731803121334" lon="9.759371091655787"><ele>667.6</ele><time>2026-04-11T13:42:36Z</time></trkpt><trkpt lat="44.34166605787565" lon="9.759367458803561"><ele>668.8</ele><time>2026-04-11T13:42:37Z</time></trkpt><trkpt lat="44.34153197726312" lon="9.759386283004243"><ele>670.0</ele><time>2026-04-11T13:42:39Z</time></trkpt><trkpt lat="44.341440835884335" lon="9.75939871775156"><ele>671.6666666666667</ele><time>2026-04-11T13:42:40Z</time></trkpt><trkpt lat="44.341349630370196" lon="9.759431899684976"><ele>673.3333333333334</ele><time>2026-04-11T13:42:41Z</time></trkpt><trkpt lat="44.34128299968147" lon="9.759512007790276"><ele>675.0</ele><time>2026-04-11T13:42:42Z</time></trkpt><trkpt lat="44.34124331151197" lon="9.759628688886963"><ele>676.6666666666666</ele><time>2026-04-11T13:42:43Z</time></trkpt><trkpt lat="44.34118955988939" lon="9.759684908115467"><ele>678.3333333333333</ele><time>2026-04-11T13:42:44Z</time></trkpt><trkpt lat="44.34110780840428" lon="9.759686044962274"><ele>680.0</ele><time>2026-04-11T13:42:46Z</time></trkpt><trkpt lat="44.34107416653535" lon="9.75960821369385"><ele>680.0</ele><time>2026-04-11T13:42:48Z</time></trkpt><trkpt lat="44.341115282497306" lon="9.759523267686046"><ele>680.0</ele><time>2026-04-11T13:42:50Z</time></trkpt><trkpt lat="44.34113361306655" lon="9.759403053942341"><ele>680.0</ele><time>2026-04-11T13:42:51Z</time></trkpt><trkpt lat="44.341178037259816" lon="9.75923969818928"><ele>680.0</ele><time>2026-04-11T13:42:52Z</time></trkpt><trkpt lat="44.34121464225752" lon="9.759076240905504"><ele>680.0</ele><time>2026-04-11T13:42:53Z</time></trkpt><trkpt lat="44.341263863114" lon="9.758881053122213"><ele>680.0</ele><time>2026-04-11T13:42:54Z</time></trkpt><trkpt lat="44.34132020220911" lon="9.758685953887515"><ele>680.0</ele><time>2026-04-11T13:42:55Z</time></trkpt><trkpt lat="44.341407746295424" lon="9.758532840634308"><ele>680.0</ele><time>2026-04-11T13:42:56Z</time></trkpt><trkpt lat="44.3415140598429" lon="9.758374060469745"><ele>680.0</ele><time>2026-04-11T13:42:57Z</time></trkpt><trkpt lat="44.341603315352636" lon="9.758203500505832"><ele>680.0</ele><time>2026-04-11T13:42:58Z</time></trkpt><trkpt lat="44.34168755223864" lon="9.758020520595972"><ele>680.0</ele><time>2026-04-11T13:42:59Z</time></trkpt><trkpt lat="44.34173620535207" lon="9.757817154751855"><ele>680.0</ele><time>2026-04-11T13:43:00Z</time></trkpt><trkpt lat="44.341770137893405" lon="9.757599599321491"><ele>683.0</ele><time>2026-04-11T13:43:01Z</time></trkpt><trkpt lat="44.341852320184664" lon="9.757417239804795"><ele>686.0</ele><time>2026-04-11T13:43:02Z</time></trkpt><trkpt lat="44.34193528312893" lon="9.757236847615923"><ele>689.0</ele><time>2026-04-11T13:43:03Z</time></trkpt><trkpt lat="44.34204288301056" lon="9.757056019155515"><ele>689.0</ele><time>2026-04-11T13:43:04Z</time></trkpt><trkpt lat="44.342148697693105" lon="9.756919295130883"><ele>689.0</ele><time>2026-04-11T13:43:05Z</time></trkpt><trkpt lat="44.34225693799797" lon="9.756765270120265"><ele>689.0</ele><time>2026-04-11T13:43:06Z</time></trkpt><trkpt lat="44.342339181542" lon="9.756565461457766"><ele>687.6666666666666</ele><time>2026-04-11T13:43:07Z</time></trkpt><trkpt lat="44.34242526081148" lon="9.75635925070886"><ele>686.3333333333334</ele><time>2026-04-11T13:43:08Z</time></trkpt><trkpt lat="44.34250138327882" lon="9.75616965840745"><ele>685.0</ele><time>2026-04-11T13:43:09Z</time></trkpt><trkpt lat="44.342600198300396" lon="9.755968764264086"><ele>687.25</ele><time>2026-04-11T13:43:10Z</time></trkpt><trkpt lat="44.342700357463556" lon="9.7557965823363"><ele>689.5</ele><time>2026-04-11T13:43:11Z</time></trkpt><trkpt lat="44.342765991127436" lon="9.755656040985022"><ele>691.75</ele><time>2026-04-11T13:43:12Z</time></trkpt><trkpt lat="44.342804029093074" lon="9.755499479606518"><ele>694.0</ele><time>2026-04-11T13:43:13Z</time></trkpt><trkpt lat="44.342808329549925" lon="9.75530519486643"><ele>697.3333333333334</ele><time>2026-04-11T13:43:14Z</time></trkpt><trkpt lat="44.34276597698939" lon="9.755083053008786"><ele>700.6666666666666</ele><time>2026-04-11T13:43:15Z</time></trkpt><trkpt lat="44.342737450339925" lon="9.754861240260514"><ele>704.0</ele><time>2026-04-11T13:43:16Z</time></trkpt><trkpt lat="44.342736819412465" lon="9.754652303083958"><ele>704.0</ele><time>2026-04-11T13:43:17Z</time></trkpt><trkpt lat="44.342681880681994" lon="9.754469940087304"><ele>704.0</ele><time>2026-04-11T13:43:18Z</time></trkpt><trkpt lat="44.3426222963781" lon="9.754310827969514"><ele>704.0</ele><time>2026-04-11T13:43:19Z</time></trkpt><trkpt lat="44.34261379832576" lon="9.754174660790138"><ele>704.0</ele><time>2026-04-11T13:43:20Z</time></trkpt><trkpt lat="44.342622467153156" lon="9.754075922638712"><ele>704.0</ele><time>2026-04-11T13:43:21Z</time></trkpt><trkpt lat="44.342711793275434" lon="9.754016339930317"><ele>705.0</ele><time>2026-04-11T13:43:22Z</time></trkpt><trkpt lat="44.34284435391846" lon="9.75404148510589"><ele>706.0</ele><time>2026-04-11T13:43:23Z</time></trkpt><trkpt lat="44.342997094871784" lon="9.754094682001686"><ele>707.0</ele><time>2026-04-11T13:43:24Z</time></trkpt><trkpt lat="44.343149710112115" lon="9.754141069168778"><ele>708.0</ele><time>2026-04-11T13:43:25Z</time></trkpt><trkpt lat="44.343313247248254" lon="9.754188272665504"><ele>708.0</ele><time>2026-04-11T13:43:26Z</time></trkpt><trkpt lat="44.343476096269185" lon="9.754200736494296"><ele>708.0</ele><time>2026-04-11T13:43:27Z</time></trkpt><trkpt lat="44.34359762545593" lon="9.754174725941326"><ele>708.0</ele><time>2026-04-11T13:43:28Z</time></trkpt><trkpt lat="44.34370473778764" lon="9.754086033130996"><ele>708.0</ele><time>2026-04-11T13:43:29Z</time></trkpt><trkpt lat="44.343815937022185" lon="9.75392842949112"><ele>712.0</ele><time>2026-04-11T13:43:30Z</time></trkpt><trkpt lat="44.34394060301372" lon="9.75374490456049"><ele>716.0</ele><time>2026-04-11T13:43:31Z</time></trkpt><trkpt lat="44.344081474318145" lon="9.753541324489092"><ele>720.0</ele><time>2026-04-11T13:43:32Z</time></trkpt><trkpt lat="44.34421781030463" lon="9.753319157078437"><ele>720.0</ele><time>2026-04-11T13:43:32.999Z</time></trkpt><trkpt lat="44.344344301484554" lon="9.753084273606193"><ele>720.0</ele><time>2026-04-11T13:43:33.999Z</time></trkpt><trkpt lat="44.34445719680285" lon="9.752860054771492"><ele>720.0</ele><time>2026-04-11T13:43:34.999Z</time></trkpt><trkpt lat="44.34458560642047" lon="9.752679690965742"><ele>718.5</ele><time>2026-04-11T13:43:35.999Z</time></trkpt><trkpt lat="44.3446826426442" lon="9.752522428896512"><ele>717.0</ele><time>2026-04-11T13:43:36.999Z</time></trkpt><trkpt lat="44.34472695879108" lon="9.752392680510804"><ele>715.5</ele><time>2026-04-11T13:43:37.999Z</time></trkpt><trkpt lat="44.344766032649105" lon="9.75225191194893"><ele>714.0</ele><time>2026-04-11T13:43:38.999Z</time></trkpt><trkpt lat="44.344758511397764" lon="9.752078959121498"><ele>714.0</ele><time>2026-04-11T13:43:39.999Z</time></trkpt><trkpt lat="44.34477530410889" lon="9.751914264870766"><ele>714.0</ele><time>2026-04-11T13:43:40.999Z</time></trkpt><trkpt lat="44.34482771099882" lon="9.751802205464164"><ele>714.0</ele><time>2026-04-11T13:43:41.999Z</time></trkpt><trkpt lat="44.3449089646061" lon="9.751732931604808"><ele>714.0</ele><time>2026-04-11T13:43:42.999Z</time></trkpt><trkpt lat="44.34500316000281" lon="9.751755176943282"><ele>714.0</ele><time>2026-04-11T13:43:43.999Z</time></trkpt><trkpt lat="44.34512782053066" lon="9.75175199847155"><ele>717.25</ele><time>2026-04-11T13:43:44.999Z</time></trkpt><trkpt lat="44.345267823608346" lon="9.751735634191219"><ele>720.5</ele><time>2026-04-11T13:43:45.999Z</time></trkpt><trkpt lat="44.34539450656187" lon="9.751739132896112"><ele>723.75</ele><time>2026-04-11T13:43:46.999Z</time></trkpt><trkpt lat="44.34548254896832" lon="9.751726810879033"><ele>727.0</ele><time>2026-04-11T13:43:47.999Z</time></trkpt><trkpt lat="44.34560104675112" lon="9.751627444876872"><ele>727.2</ele><time>2026-04-11T13:43:49.999Z</time></trkpt><trkpt lat="44.3456213083714" lon="9.75148141460217"><ele>727.4000000000001</ele><time>2026-04-11T13:43:50.999Z</time></trkpt><trkpt lat="44.3456458683838" lon="9.75133559518651"><ele>727.5999999999999</ele><time>2026-04-11T13:43:51.999Z</time></trkpt><trkpt lat="44.34566695993602" lon="9.751184918469491"><ele>727.8</ele><time>2026-04-11T13:43:52.999Z</time></trkpt><trkpt lat="44.34567373554925" lon="9.751035644774596"><ele>728.0</ele><time>2026-04-11T13:43:53.999Z</time></trkpt><trkpt lat="44.34567419600553" lon="9.750870278559638"><ele>726.0</ele><time>2026-04-11T13:43:54.999Z</time></trkpt><trkpt lat="44.34565515348753" lon="9.750673771683408"><ele>724.0</ele><time>2026-04-11T13:43:55.999Z</time></trkpt><trkpt lat="44.34561681530896" lon="9.750467663750529"><ele>722.0</ele><time>2026-04-11T13:43:56.999Z</time></trkpt><trkpt lat="44.345567853644354" lon="9.750251075699273"><ele>726.3333333333333</ele><time>2026-04-11T13:43:57.999Z</time></trkpt><trkpt lat="44.3455131645814" lon="9.75003734650437"><ele>730.6666666666666</ele><time>2026-04-11T13:43:58.999Z</time></trkpt><trkpt lat="44.34545428630802" lon="9.749828786353962"><ele>735.0</ele><time>2026-04-11T13:43:59.999Z</time></trkpt><trkpt lat="44.34541338854347" lon="9.749626454339927"><ele>735.0</ele><time>2026-04-11T13:44:00.999Z</time></trkpt><trkpt lat="44.34534309263538" lon="9.749427262823575"><ele>735.0</ele><time>2026-04-11T13:44:01.999Z</time></trkpt><trkpt lat="44.34533149841394" lon="9.749269055488206"><ele>735.0</ele><time>2026-04-11T13:44:02.999Z</time></trkpt><trkpt lat="44.345325445403574" lon="9.749146156906768"><ele>735.0</ele><time>2026-04-11T13:44:03.999Z</time></trkpt><trkpt lat="44.34529701166439" lon="9.748905511142349"><ele>735.5</ele><time>2026-04-11T13:44:04.999Z</time></trkpt><trkpt lat="44.34536305631132" lon="9.748783241480902"><ele>736.0</ele><time>2026-04-11T13:44:05.999Z</time></trkpt><trkpt lat="44.34544701009992" lon="9.748615368787748"><ele>736.5</ele><time>2026-04-11T13:44:06.999Z</time></trkpt><trkpt lat="44.345512746193535" lon="9.74845499776401"><ele>737.0</ele><time>2026-04-11T13:44:07.999Z</time></trkpt><trkpt lat="44.34550569208027" lon="9.748305903257108"><ele>736.0</ele><time>2026-04-11T13:44:08.999Z</time></trkpt><trkpt lat="44.34547682247282" lon="9.748166204412716"><ele>735.0</ele><time>2026-04-11T13:44:09.999Z</time></trkpt><trkpt lat="44.34539304284465" lon="9.748016443911002"><ele>734.0</ele><time>2026-04-11T13:44:10.999Z</time></trkpt><trkpt lat="44.34528512681293" lon="9.747865856760482"><ele>733.0</ele><time>2026-04-11T13:44:11.999Z</time></trkpt><trkpt lat="44.34517703348498" lon="9.747695402889542"><ele>733.0</ele><time>2026-04-11T13:44:12.999Z</time></trkpt><trkpt lat="44.345110552345574" lon="9.747536572526142"><ele>733.0</ele><time>2026-04-11T13:44:13.999Z</time></trkpt><trkpt lat="44.34509390220821" lon="9.747374678132974"><ele>733.0</ele><time>2026-04-11T13:44:14.999Z</time></trkpt><trkpt lat="44.34509517579201" lon="9.747170873422004"><ele>733.0</ele><time>2026-04-11T13:44:15.999Z</time></trkpt><trkpt lat="44.34505117938468" lon="9.746968136477962"><ele>733.3333333333334</ele><time>2026-04-11T13:44:16.999Z</time></trkpt><trkpt lat="44.3450002898122" lon="9.74675792431967"><ele>733.6666666666666</ele><time>2026-04-11T13:44:17.999Z</time></trkpt><trkpt lat="44.344943015132834" lon="9.746547007303715"><ele>734.0</ele><time>2026-04-11T13:44:18.999Z</time></trkpt><trkpt lat="44.34488666198811" lon="9.746337035232091"><ele>734.0</ele><time>2026-04-11T13:44:19.999Z</time></trkpt><trkpt lat="44.344829462553335" lon="9.74612996457967"><ele>734.0</ele><time>2026-04-11T13:44:20.999Z</time></trkpt><trkpt lat="44.34477993024051" lon="9.745935965779134"><ele>734.0</ele><time>2026-04-11T13:44:21.999Z</time></trkpt><trkpt lat="44.34473235824652" lon="9.745750254170224"><ele>734.0</ele><time>2026-04-11T13:44:22.999Z</time></trkpt><trkpt lat="44.34468022646912" lon="9.745564775789168"><ele>739.0</ele><time>2026-04-11T13:44:23.999Z</time></trkpt><trkpt lat="44.34462762776799" lon="9.74538287755278"><ele>744.0</ele><time>2026-04-11T13:44:24.999Z</time></trkpt><trkpt lat="44.34459695781563" lon="9.745197338233234"><ele>749.0</ele><time>2026-04-11T13:44:25.999Z</time></trkpt><trkpt lat="44.34455285083882" lon="9.745017975290203"><ele>754.0</ele><time>2026-04-11T13:44:26.999Z</time></trkpt><trkpt lat="44.34450748665197" lon="9.744844986601134"><ele>754.6</ele><time>2026-04-11T13:44:27.999Z</time></trkpt><trkpt lat="44.3444699287094" lon="9.744685514541064"><ele>755.2</ele><time>2026-04-11T13:44:28.999Z</time></trkpt><trkpt lat="44.34444685789649" lon="9.74454463654054"><ele>755.8000000000001</ele><time>2026-04-11T13:44:30Z</time></trkpt><trkpt lat="44.344461417065354" lon="9.744432101065275"><ele>756.4000000000001</ele><time>2026-04-11T13:44:31Z</time></trkpt><trkpt lat="44.344518784490724" lon="9.744336908421403"><ele>757.0</ele><time>2026-04-11T13:44:32Z</time></trkpt><trkpt lat="44.344624869641365" lon="9.74428380120171"><ele>753.0</ele><time>2026-04-11T13:44:33Z</time></trkpt><trkpt lat="44.34473970116492" lon="9.744179476250043"><ele>749.0</ele><time>2026-04-11T13:44:34Z</time></trkpt><trkpt lat="44.344859008464894" lon="9.744097406781721"><ele>745.0</ele><time>2026-04-11T13:44:35Z</time></trkpt><trkpt lat="44.34495641420751" lon="9.744002599609578"><ele>741.0</ele><time>2026-04-11T13:44:36Z</time></trkpt><trkpt lat="44.34501948775514" lon="9.743871262012954"><ele>741.0</ele><time>2026-04-11T13:44:37Z</time></trkpt><trkpt lat="44.34503824032174" lon="9.74373979634282"><ele>741.0</ele><time>2026-04-11T13:44:38Z</time></trkpt><trkpt lat="44.34500769528596" lon="9.743616196865982"><ele>741.0</ele><time>2026-04-11T13:44:39Z</time></trkpt><trkpt lat="44.34492714158071" lon="9.743508681563691"><ele>741.0</ele><time>2026-04-11T13:44:40Z</time></trkpt><trkpt lat="44.344814743900976" lon="9.743375874569898"><ele>741.0</ele><time>2026-04-11T13:44:41Z</time></trkpt><trkpt lat="44.3447152365591" lon="9.743237315638657"><ele>746.3333333333334</ele><time>2026-04-11T13:44:42Z</time></trkpt><trkpt lat="44.3446318318831" lon="9.743058065923696"><ele>751.6666666666667</ele><time>2026-04-11T13:44:43Z</time></trkpt><trkpt lat="44.34457652056502" lon="9.742859834757262"><ele>757.0</ele><time>2026-04-11T13:44:44Z</time></trkpt><trkpt lat="44.34452547123288" lon="9.742647356119559"><ele>757.25</ele><time>2026-04-11T13:44:45Z</time></trkpt><trkpt lat="44.34446124735535" lon="9.742474161747081"><ele>757.5</ele><time>2026-04-11T13:44:46Z</time></trkpt><trkpt lat="44.34439268772372" lon="9.742344950547025"><ele>757.75</ele><time>2026-04-11T13:44:47Z</time></trkpt><trkpt lat="44.34429364381632" lon="9.742271551483926"><ele>758.0</ele><time>2026-04-11T13:44:48Z</time></trkpt><trkpt lat="44.34415806121231" lon="9.742240898551135"><ele>758.0</ele><time>2026-04-11T13:44:49Z</time></trkpt><trkpt lat="44.3440115717797" lon="9.742238630867643"><ele>758.0</ele><time>2026-04-11T13:44:50Z</time></trkpt><trkpt lat="44.34386754936685" lon="9.742235939115501"><ele>758.0</ele><time>2026-04-11T13:44:51Z</time></trkpt><trkpt lat="44.34374666367641" lon="9.742236834341236"><ele>758.0</ele><time>2026-04-11T13:44:52Z</time></trkpt><trkpt lat="44.343667305259736" lon="9.742246609834044"><ele>759.0</ele><time>2026-04-11T13:44:53Z</time></trkpt><trkpt lat="44.34357737007571" lon="9.742345745194058"><ele>760.0</ele><time>2026-04-11T13:44:55Z</time></trkpt><trkpt lat="44.34351515720516" lon="9.742487353335507"><ele>761.0</ele><time>2026-04-11T13:44:57Z</time></trkpt><trkpt lat="44.34346858491073" lon="9.742569285920533"><ele>762.0</ele><time>2026-04-11T13:44:58Z</time></trkpt><trkpt lat="44.34339998743681" lon="9.742678916806545"><ele>763.0</ele><time>2026-04-11T13:44:59Z</time></trkpt><trkpt lat="44.34332962969337" lon="9.742790174720596"><ele>764.0</ele><time>2026-04-11T13:45:00Z</time></trkpt><trkpt lat="44.34325710257326" lon="9.742916724144425"><ele>765.0</ele><time>2026-04-11T13:45:01Z</time></trkpt><trkpt lat="44.34317489712571" lon="9.74305866713246"><ele>766.0</ele><time>2026-04-11T13:45:02Z</time></trkpt><trkpt lat="44.34308957089471" lon="9.743173791077348"><ele>767.0</ele><time>2026-04-11T13:45:03Z</time></trkpt><trkpt lat="44.34299102851308" lon="9.743245998885353"><ele>768.25</ele><time>2026-04-11T13:45:04Z</time></trkpt><trkpt lat="44.342873333221924" lon="9.743192220772825"><ele>769.5</ele><time>2026-04-11T13:45:05Z</time></trkpt><trkpt lat="44.34274393759093" lon="9.743118102759523"><ele>770.75</ele><time>2026-04-11T13:45:06Z</time></trkpt><trkpt lat="44.34260206934428" lon="9.743051249820741"><ele>772.0</ele><time>2026-04-11T13:45:07Z</time></trkpt><trkpt lat="44.34248838276138" lon="9.74299019870176"><ele>772.0</ele><time>2026-04-11T13:45:08Z</time></trkpt><trkpt lat="44.34238107026203" lon="9.742992883039156"><ele>772.0</ele><time>2026-04-11T13:45:09Z</time></trkpt><trkpt lat="44.34231398546604" lon="9.743038530769738"><ele>772.0</ele><time>2026-04-11T13:45:10Z</time></trkpt><trkpt lat="44.34223221974812" lon="9.743161110953263"><ele>772.0</ele><time>2026-04-11T13:45:11Z</time></trkpt><trkpt lat="44.342146332741834" lon="9.743350280352233"><ele>773.0</ele><time>2026-04-11T13:45:12Z</time></trkpt><trkpt lat="44.342061980385566" lon="9.743547098353062"><ele>774.0</ele><time>2026-04-11T13:45:13Z</time></trkpt><trkpt lat="44.341976017670305" lon="9.74372178028063"><ele>775.0</ele><time>2026-04-11T13:45:14Z</time></trkpt><trkpt lat="44.341895331432916" lon="9.74387279357031"><ele>777.75</ele><time>2026-04-11T13:45:15Z</time></trkpt><trkpt lat="44.341790114677536" lon="9.743947785471388"><ele>780.5</ele><time>2026-04-11T13:45:16Z</time></trkpt><trkpt lat="44.341672398670916" lon="9.743967832416041"><ele>783.25</ele><time>2026-04-11T13:45:17Z</time></trkpt><trkpt lat="44.341539019938345" lon="9.743980703010056"><ele>786.0</ele><time>2026-04-11T13:45:18Z</time></trkpt><trkpt lat="44.34142557595204" lon="9.74392942861616"><ele>788.75</ele><time>2026-04-11T13:45:19Z</time></trkpt><trkpt lat="44.34134913672474" lon="9.743832641584062"><ele>791.5</ele><time>2026-04-11T13:45:20Z</time></trkpt><trkpt lat="44.341275686376626" lon="9.743685144781926"><ele>794.25</ele><time>2026-04-11T13:45:21Z</time></trkpt><trkpt lat="44.34117820388758" lon="9.743524190035544"><ele>797.0</ele><time>2026-04-11T13:45:22Z</time></trkpt><trkpt lat="44.341059726213906" lon="9.743394988664624"><ele>797.0</ele><time>2026-04-11T13:45:23Z</time></trkpt><trkpt lat="44.34094635199303" lon="9.743272207587593"><ele>797.0</ele><time>2026-04-11T13:45:24Z</time></trkpt><trkpt lat="44.34087952866009" lon="9.74313082377734"><ele>797.0</ele><time>2026-04-11T13:45:25Z</time></trkpt><trkpt lat="44.340851237216185" lon="9.743010160099452"><ele>797.0</ele><time>2026-04-11T13:45:26Z</time></trkpt><trkpt lat="44.34089341871831" lon="9.742863008095949"><ele>797.25</ele><time>2026-04-11T13:45:27Z</time></trkpt><trkpt lat="44.34092362190579" lon="9.742662417703828"><ele>797.5</ele><time>2026-04-11T13:45:28Z</time></trkpt><trkpt lat="44.34094918867713" lon="9.74245217568238"><ele>797.75</ele><time>2026-04-11T13:45:29Z</time></trkpt><trkpt lat="44.340979917240446" lon="9.742255292704309"><ele>798.0</ele><time>2026-04-11T13:45:30Z</time></trkpt><trkpt lat="44.34099099263157" lon="9.742095582186396"><ele>798.0</ele><time>2026-04-11T13:45:31Z</time></trkpt><trkpt lat="44.34095823638698" lon="9.741971371813058"><ele>798.0</ele><time>2026-04-11T13:45:32Z</time></trkpt><trkpt lat="44.34087384649016" lon="9.741854689384386"><ele>798.0</ele><time>2026-04-11T13:45:33Z</time></trkpt><trkpt lat="44.34077794479923" lon="9.741750484993275"><ele>798.0</ele><time>2026-04-11T13:45:34Z</time></trkpt><trkpt lat="44.3406660453306" lon="9.74166230267579"><ele>797.5</ele><time>2026-04-11T13:45:35Z</time></trkpt><trkpt lat="44.34055808508678" lon="9.741559819261585"><ele>797.0</ele><time>2026-04-11T13:45:36Z</time></trkpt><trkpt lat="44.340450631880046" lon="9.74146169592524"><ele>796.5</ele><time>2026-04-11T13:45:37Z</time></trkpt><trkpt lat="44.340344016234255" lon="9.741361453190088"><ele>796.0</ele><time>2026-04-11T13:45:37.999Z</time></trkpt><trkpt lat="44.34025489310245" lon="9.741295159399243"><ele>797.9999999999999</ele><time>2026-04-11T13:45:38.999Z</time></trkpt><trkpt lat="44.34018026400931" lon="9.74127331202468"><ele>800.0</ele><time>2026-04-11T13:45:39.999Z</time></trkpt><trkpt lat="44.34011387013331" lon="9.741302019338498"><ele>802.0</ele><time>2026-04-11T13:45:40.999Z</time></trkpt><trkpt lat="44.34001624108287" lon="9.741406708361703"><ele>804.0</ele><time>2026-04-11T13:45:42.999Z</time></trkpt><trkpt lat="44.339977727730215" lon="9.741484569686424"><ele>805.9999999999999</ele><time>2026-04-11T13:45:43.999Z</time></trkpt><trkpt lat="44.3399329562034" lon="9.741580066700132"><ele>808.0</ele><time>2026-04-11T13:45:44.999Z</time></trkpt><trkpt lat="44.33987826453642" lon="9.741688684591736"><ele>808.0</ele><time>2026-04-11T13:45:45.999Z</time></trkpt><trkpt lat="44.33979467136759" lon="9.7417991923828"><ele>808.0</ele><time>2026-04-11T13:45:46.999Z</time></trkpt><trkpt lat="44.33968022277895" lon="9.741886098059734"><ele>808.0</ele><time>2026-04-11T13:45:47.999Z</time></trkpt><trkpt lat="44.33955312140172" lon="9.741953108641995"><ele>808.0</ele><time>2026-04-11T13:45:48.999Z</time></trkpt><trkpt lat="44.33942559215246" lon="9.742060786976547"><ele>810.0</ele><time>2026-04-11T13:45:49.999Z</time></trkpt><trkpt lat="44.33931965781661" lon="9.742224272965942"><ele>812.0</ele><time>2026-04-11T13:45:50.999Z</time></trkpt><trkpt lat="44.33921780205963" lon="9.742389199197731"><ele>814.0</ele><time>2026-04-11T13:45:51.999Z</time></trkpt><trkpt lat="44.33910501324965" lon="9.74255521435432"><ele>814.0</ele><time>2026-04-11T13:45:52.999Z</time></trkpt><trkpt lat="44.33899631759963" lon="9.74269747508983"><ele>814.0</ele><time>2026-04-11T13:45:53.999Z</time></trkpt><trkpt lat="44.33890049405384" lon="9.742807546864208"><ele>814.0</ele><time>2026-04-11T13:45:54.999Z</time></trkpt><trkpt lat="44.338817995104854" lon="9.742847324914374"><ele>814.0</ele><time>2026-04-11T13:45:55.999Z</time></trkpt><trkpt lat="44.33871542012242" lon="9.742796605055162"><ele>815.0</ele><time>2026-04-11T13:45:56.999Z</time></trkpt><trkpt lat="44.338625266446186" lon="9.7426727145216"><ele>816.0</ele><time>2026-04-11T13:45:57.999Z</time></trkpt><trkpt lat="44.33850792109378" lon="9.742585319650999"><ele>817.0</ele><time>2026-04-11T13:45:58.999Z</time></trkpt><trkpt lat="44.3384187125823" lon="9.742540507557402"><ele>818.0</ele><time>2026-04-11T13:45:59.999Z</time></trkpt><trkpt lat="44.338312180980736" lon="9.742570831057883"><ele>818.0</ele><time>2026-04-11T13:46:00.999Z</time></trkpt><trkpt lat="44.33820779099142" lon="9.742644316619803"><ele>818.0</ele><time>2026-04-11T13:46:01.999Z</time></trkpt><trkpt lat="44.338081984957576" lon="9.742738946423675"><ele>818.0</ele><time>2026-04-11T13:46:02.999Z</time></trkpt><trkpt lat="44.33794853096132" lon="9.742816668219705"><ele>818.0</ele><time>2026-04-11T13:46:03.999Z</time></trkpt><trkpt lat="44.33781666243293" lon="9.742867223613223"><ele>822.5</ele><time>2026-04-11T13:46:04.999Z</time></trkpt><trkpt lat="44.337685108871256" lon="9.742840479240362"><ele>827.0</ele><time>2026-04-11T13:46:05.999Z</time></trkpt><trkpt lat="44.3375459930144" lon="9.742866177578158"><ele>831.5</ele><time>2026-04-11T13:46:06.999Z</time></trkpt><trkpt lat="44.337459172348325" lon="9.742824425108935"><ele>836.0</ele><time>2026-04-11T13:46:07.999Z</time></trkpt><trkpt lat="44.337364563003185" lon="9.74281602578992"><ele>836.0</ele><time>2026-04-11T13:46:08.999Z</time></trkpt><trkpt lat="44.33724694230611" lon="9.742780867603859"><ele>836.0</ele><time>2026-04-11T13:46:09.999Z</time></trkpt><trkpt lat="44.33711846359734" lon="9.742745078926596"><ele>836.0</ele><time>2026-04-11T13:46:10.999Z</time></trkpt><trkpt lat="44.337013155889345" lon="9.74268937673453"><ele>836.0</ele><time>2026-04-11T13:46:11.999Z</time></trkpt><trkpt lat="44.33692198980291" lon="9.742652807351911"><ele>839.5</ele><time>2026-04-11T13:46:12.999Z</time></trkpt><trkpt lat="44.33687902876094" lon="9.742542135167973"><ele>843.0</ele><time>2026-04-11T13:46:13.999Z</time></trkpt><trkpt lat="44.3369031663715" lon="9.742368336737718"><ele>846.5</ele><time>2026-04-11T13:46:14.999Z</time></trkpt><trkpt lat="44.33694664690786" lon="9.74218846415938"><ele>850.0</ele><time>2026-04-11T13:46:15.999Z</time></trkpt><trkpt lat="44.336979257333866" lon="9.741986001814256"><ele>849.4</ele><time>2026-04-11T13:46:16.999Z</time></trkpt><trkpt lat="44.336997546854924" lon="9.741790364845142"><ele>848.8</ele><time>2026-04-11T13:46:17.999Z</time></trkpt><trkpt lat="44.33700320896326" lon="9.741643031634707"><ele>848.2</ele><time>2026-04-11T13:46:18.999Z</time></trkpt><trkpt lat="44.33696373552635" lon="9.741549106990407"><ele>847.6</ele><time>2026-04-11T13:46:19.999Z</time></trkpt><trkpt lat="44.336879720801754" lon="9.741453665500147"><ele>847.0</ele><time>2026-04-11T13:46:20.999Z</time></trkpt><trkpt lat="44.33675978847184" lon="9.741348008607181"><ele>847.0</ele><time>2026-04-11T13:46:21.999Z</time></trkpt><trkpt lat="44.33671339307695" lon="9.741212611190209"><ele>847.0</ele><time>2026-04-11T13:46:22.999Z</time></trkpt><trkpt lat="44.33671260188913" lon="9.741062667580488"><ele>847.0</ele><time>2026-04-11T13:46:23.999Z</time></trkpt><trkpt lat="44.33672167961243" lon="9.740873575890692"><ele>847.0</ele><time>2026-04-11T13:46:24.999Z</time></trkpt><trkpt lat="44.33669695090114" lon="9.74074546972646"><ele>847.0</ele><time>2026-04-11T13:46:25.999Z</time></trkpt><trkpt lat="44.33663603259655" lon="9.740678727905573"><ele>847.75</ele><time>2026-04-11T13:46:26.999Z</time></trkpt><trkpt lat="44.336541264997265" lon="9.740648908887625"><ele>848.5</ele><time>2026-04-11T13:46:27.999Z</time></trkpt><trkpt lat="44.33642004624028" lon="9.740692599018029"><ele>849.25</ele><time>2026-04-11T13:46:28.999Z</time></trkpt><trkpt lat="44.336277324462834" lon="9.740756811584301"><ele>850.0</ele><time>2026-04-11T13:46:29.999Z</time></trkpt><trkpt lat="44.336122384710094" lon="9.740817376279244"><ele>850.0</ele><time>2026-04-11T13:46:30.999Z</time></trkpt><trkpt lat="44.33597756100797" lon="9.740856976207256"><ele>850.0</ele><time>2026-04-11T13:46:31.999Z</time></trkpt><trkpt lat="44.335841049390815" lon="9.740920663578747"><ele>850.0</ele><time>2026-04-11T13:46:32.999Z</time></trkpt><trkpt lat="44.335711972147784" lon="9.741010767497372"><ele>850.0</ele><time>2026-04-11T13:46:33.999Z</time></trkpt><trkpt lat="44.33559089036676" lon="9.741103310464617"><ele>856.75</ele><time>2026-04-11T13:46:34.999Z</time></trkpt><trkpt lat="44.33547893988547" lon="9.74116892637632"><ele>863.5</ele><time>2026-04-11T13:46:36Z</time></trkpt><trkpt lat="44.33537010468303" lon="9.741199030886099"><ele>870.25</ele><time>2026-04-11T13:46:37Z</time></trkpt><trkpt lat="44.33527796458601" lon="9.741164240017731"><ele>877.0</ele><time>2026-04-11T13:46:38Z</time></trkpt><trkpt lat="44.335099695051696" lon="9.741080722476722"><ele>874.75</ele><time>2026-04-11T13:46:39Z</time></trkpt><trkpt lat="44.334959094100185" lon="9.741034095459794"><ele>872.5</ele><time>2026-04-11T13:46:40Z</time></trkpt><trkpt lat="44.33482594930529" lon="9.74098249512348"><ele>870.25</ele><time>2026-04-11T13:46:41Z</time></trkpt><trkpt lat="44.334691663135224" lon="9.740970173126728"><ele>868.0</ele><time>2026-04-11T13:46:42Z</time></trkpt><trkpt lat="44.33455099840701" lon="9.74097467955829"><ele>868.0</ele><time>2026-04-11T13:46:43Z</time></trkpt><trkpt lat="44.33442467232695" lon="9.740985233133499"><ele>868.0</ele><time>2026-04-11T13:46:44Z</time></trkpt><trkpt lat="44.334298657755674" lon="9.741008696478199"><ele>868.0</ele><time>2026-04-11T13:46:45Z</time></trkpt><trkpt lat="44.33417196885384" lon="9.741044307795642"><ele>868.0</ele><time>2026-04-11T13:46:46Z</time></trkpt><trkpt lat="44.33406629441239" lon="9.741088744375148"><ele>867.9999999999999</ele><time>2026-04-11T13:46:47Z</time></trkpt><trkpt lat="44.333982586192654" lon="9.741099557846544"><ele>868.0</ele><time>2026-04-11T13:46:48Z</time></trkpt><trkpt lat="44.333927646679285" lon="9.741024701426216"><ele>868.0</ele><time>2026-04-11T13:46:49Z</time></trkpt><trkpt lat="44.333875967582635" lon="9.740856783183782"><ele>868.0</ele><time>2026-04-11T13:46:51Z</time></trkpt><trkpt lat="44.3338555233003" lon="9.740755528199875"><ele>867.9999999999999</ele><time>2026-04-11T13:46:52Z</time></trkpt><trkpt lat="44.33381536785521" lon="9.740674923489873"><ele>868.0</ele><time>2026-04-11T13:46:53Z</time></trkpt><trkpt lat="44.33375222115777" lon="9.740617639532427"><ele>869.4999999999999</ele><time>2026-04-11T13:46:54Z</time></trkpt><trkpt lat="44.333671770828126" lon="9.740595284656635"><ele>871.0</ele><time>2026-04-11T13:46:55Z</time></trkpt><trkpt lat="44.333587051705734" lon="9.74055366974433"><ele>872.5</ele><time>2026-04-11T13:46:56Z</time></trkpt><trkpt lat="44.3335048155645" lon="9.740497502842624"><ele>874.0</ele><time>2026-04-11T13:46:57Z</time></trkpt><trkpt lat="44.33343612673189" lon="9.740405133973713"><ele>875.4999999999999</ele><time>2026-04-11T13:46:58Z</time></trkpt><trkpt lat="44.33338935793796" lon="9.740301673171013"><ele>877.0</ele><time>2026-04-11T13:46:59Z</time></trkpt><trkpt lat="44.33335715950711" lon="9.740198457979231"><ele>877.0</ele><time>2026-04-11T13:47:00Z</time></trkpt><trkpt lat="44.33342614602322" lon="9.740072565746914"><ele>877.0</ele><time>2026-04-11T13:47:01Z</time></trkpt><trkpt lat="44.33346554742666" lon="9.739912248258419"><ele>877.0</ele><time>2026-04-11T13:47:02Z</time></trkpt><trkpt lat="44.33346805813255" lon="9.739801292830933"><ele>877.0</ele><time>2026-04-11T13:47:03Z</time></trkpt><trkpt lat="44.33345020470772" lon="9.739687502737969"><ele>877.0</ele><time>2026-04-11T13:47:04Z</time></trkpt><trkpt lat="44.333382775849195" lon="9.73956811857907"><ele>877.0</ele><time>2026-04-11T13:47:05Z</time></trkpt><trkpt lat="44.33328040882579" lon="9.739482278255"><ele>877.0</ele><time>2026-04-11T13:47:06Z</time></trkpt><trkpt lat="44.33316786312865" lon="9.739423599117288"><ele>877.0</ele><time>2026-04-11T13:47:07Z</time></trkpt><trkpt lat="44.33306843019237" lon="9.739360922411617"><ele>877.0</ele><time>2026-04-11T13:47:08Z</time></trkpt><trkpt lat="44.332970713435564" lon="9.739316526260115"><ele>880.6</ele><time>2026-04-11T13:47:09Z</time></trkpt><trkpt lat="44.33286788947435" lon="9.73931748363371"><ele>884.2</ele><time>2026-04-11T13:47:10Z</time></trkpt><trkpt lat="44.33275883465848" lon="9.7393737855084"><ele>887.8</ele><time>2026-04-11T13:47:11Z</time></trkpt><trkpt lat="44.33265193539719" lon="9.739444699863126"><ele>891.4</ele><time>2026-04-11T13:47:12Z</time></trkpt><trkpt lat="44.33257810839178" lon="9.739459996449392"><ele>895.0</ele><time>2026-04-11T13:47:13Z</time></trkpt><trkpt lat="44.33249169552955" lon="9.73943050166967"><ele>895.2</ele><time>2026-04-11T13:47:14Z</time></trkpt><trkpt lat="44.33241804216203" lon="9.739332972280655"><ele>895.4</ele><time>2026-04-11T13:47:15Z</time></trkpt><trkpt lat="44.33239503059972" lon="9.739191021765125"><ele>895.5999999999999</ele><time>2026-04-11T13:47:16Z</time></trkpt><trkpt lat="44.33239290955894" lon="9.739055893371582"><ele>895.8</ele><time>2026-04-11T13:47:17Z</time></trkpt><trkpt lat="44.33247754270354" lon="9.738948062614842"><ele>896.0</ele><time>2026-04-11T13:47:18Z</time></trkpt><trkpt lat="44.3325775424442" lon="9.738865672743659"><ele>896.0</ele><time>2026-04-11T13:47:19Z</time></trkpt><trkpt lat="44.33268822698944" lon="9.738769983427714"><ele>896.0</ele><time>2026-04-11T13:47:20Z</time></trkpt><trkpt lat="44.332781321604116" lon="9.73865634290589"><ele>896.0</ele><time>2026-04-11T13:47:21Z</time></trkpt><trkpt lat="44.332878535749806" lon="9.738569023884848"><ele>896.0</ele><time>2026-04-11T13:47:22Z</time></trkpt><trkpt lat="44.33297811766973" lon="9.738504897903688"><ele>897.0</ele><time>2026-04-11T13:47:23Z</time></trkpt><trkpt lat="44.33309752974256" lon="9.738463993369152"><ele>898.0</ele><time>2026-04-11T13:47:24Z</time></trkpt><trkpt lat="44.33322979375094" lon="9.738437466666888"><ele>899.0</ele><time>2026-04-11T13:47:25Z</time></trkpt><trkpt lat="44.33334009148672" lon="9.738403217561313"><ele>900.0</ele><time>2026-04-11T13:47:26Z</time></trkpt><trkpt lat="44.333435107538484" lon="9.738350145584151"><ele>900.0</ele><time>2026-04-11T13:47:27Z</time></trkpt><trkpt lat="44.333505115058784" lon="9.738244782139951"><ele>900.0</ele><time>2026-04-11T13:47:28Z</time></trkpt><trkpt lat="44.33352921068877" lon="9.738087238944106"><ele>900.0</ele><time>2026-04-11T13:47:29Z</time></trkpt><trkpt lat="44.33347006985934" lon="9.737916314354647"><ele>900.0</ele><time>2026-04-11T13:47:30Z</time></trkpt><trkpt lat="44.333463542426394" lon="9.737786292011023"><ele>900.0</ele><time>2026-04-11T13:47:31Z</time></trkpt><trkpt lat="44.33351721456139" lon="9.737698429268569"><ele>901.0</ele><time>2026-04-11T13:47:32Z</time></trkpt><trkpt lat="44.333594022922156" lon="9.737636602122498"><ele>902.0</ele><time>2026-04-11T13:47:33Z</time></trkpt><trkpt lat="44.33370335893895" lon="9.73760836409265"><ele>903.0</ele><time>2026-04-11T13:47:34Z</time></trkpt><trkpt lat="44.333835044168715" lon="9.73758466254645"><ele>904.0</ele><time>2026-04-11T13:47:35Z</time></trkpt><trkpt lat="44.33395828265814" lon="9.737545153180488"><ele>903.9999999999999</ele><time>2026-04-11T13:47:36Z</time></trkpt><trkpt lat="44.334073734880526" lon="9.737485979353453"><ele>904.0</ele><time>2026-04-11T13:47:37Z</time></trkpt><trkpt lat="44.33417956166157" lon="9.737430390419647"><ele>904.0</ele><time>2026-04-11T13:47:38Z</time></trkpt><trkpt lat="44.334241938278105" lon="9.737400118611479"><ele>904.0</ele><time>2026-04-11T13:47:39Z</time></trkpt><trkpt lat="44.3342830456812" lon="9.737333373767626"><ele>903.9999999999999</ele><time>2026-04-11T13:47:40Z</time></trkpt><trkpt lat="44.33430332862596" lon="9.737230601626433"><ele>904.0</ele><time>2026-04-11T13:47:41Z</time></trkpt><trkpt lat="44.33432661817589" lon="9.73706869279891"><ele>903.9999999999999</ele><time>2026-04-11T13:47:41.999Z</time></trkpt><trkpt lat="44.334330070425935" lon="9.736935759725295"><ele>904.0</ele><time>2026-04-11T13:47:42.999Z</time></trkpt><trkpt lat="44.33433722196373" lon="9.736828240839415"><ele>904.0</ele><time>2026-04-11T13:47:43.999Z</time></trkpt><trkpt lat="44.33436112997714" lon="9.73671872109351"><ele>904.0</ele><time>2026-04-11T13:47:44.999Z</time></trkpt><trkpt lat="44.334419241430865" lon="9.736640403489131"><ele>903.9999999999999</ele><time>2026-04-11T13:47:45.999Z</time></trkpt><trkpt lat="44.33451331747541" lon="9.736584622512952"><ele>904.0</ele><time>2026-04-11T13:47:46.999Z</time></trkpt><trkpt lat="44.33463479916976" lon="9.736617196170595"><ele>903.2</ele><time>2026-04-11T13:47:47.999Z</time></trkpt><trkpt lat="44.334719772413024" lon="9.736587513407862"><ele>902.4000000000001</ele><time>2026-04-11T13:47:48.999Z</time></trkpt><trkpt lat="44.33478784172263" lon="9.73654711362808"><ele>901.6</ele><time>2026-04-11T13:47:49.999Z</time></trkpt><trkpt lat="44.3348303416264" lon="9.736446680348013"><ele>900.8</ele><time>2026-04-11T13:47:50.999Z</time></trkpt><trkpt lat="44.33484525471347" lon="9.736307925151255"><ele>900.0</ele><time>2026-04-11T13:47:51.999Z</time></trkpt><trkpt lat="44.33481927728663" lon="9.73616329937736"><ele>900.0</ele><time>2026-04-11T13:47:52.999Z</time></trkpt><trkpt lat="44.334752412416336" lon="9.736057294086121"><ele>900.0</ele><time>2026-04-11T13:47:53.999Z</time></trkpt><trkpt lat="44.33468443854505" lon="9.735978839176221"><ele>900.0</ele><time>2026-04-11T13:47:54.999Z</time></trkpt><trkpt lat="44.334614981348146" lon="9.735930491907585"><ele>900.0</ele><time>2026-04-11T13:47:55.999Z</time></trkpt><trkpt lat="44.33453577956774" lon="9.73585946409657"><ele>900.0</ele><time>2026-04-11T13:47:57.999Z</time></trkpt><trkpt lat="44.33445419035546" lon="9.735763287562325"><ele>907.1666666666666</ele><time>2026-04-11T13:47:59.999Z</time></trkpt><trkpt lat="44.334370848083964" lon="9.735692611175882"><ele>914.3333333333333</ele><time>2026-04-11T13:48:01.999Z</time></trkpt><trkpt lat="44.33433536668663" lon="9.735590835123073"><ele>921.5</ele><time>2026-04-11T13:48:02.999Z</time></trkpt><trkpt lat="44.33428286366884" lon="9.735492193281091"><ele>928.6666666666666</ele><time>2026-04-11T13:48:03.999Z</time></trkpt><trkpt lat="44.334249755368994" lon="9.735386673198605"><ele>935.8333333333333</ele><time>2026-04-11T13:48:04.999Z</time></trkpt><trkpt lat="44.33423424564353" lon="9.735283141203263"><ele>943.0</ele><time>2026-04-11T13:48:05.999Z</time></trkpt><trkpt lat="44.33420265769145" lon="9.735146462115475"><ele>943.4999999999999</ele><time>2026-04-11T13:48:07.999Z</time></trkpt><trkpt lat="44.334194292540154" lon="9.735054048945686"><ele>944.0</ele><time>2026-04-11T13:48:12.999Z</time></trkpt><trkpt lat="44.334210865093574" lon="9.734968925444543"><ele>944.5</ele><time>2026-04-11T13:48:42Z</time></trkpt><trkpt lat="44.33424834506904" lon="9.734869199763214"><ele>945.0</ele><time>2026-04-11T13:48:43Z</time></trkpt><trkpt lat="44.33432066848479" lon="9.73479954771489"><ele>945.4999999999999</ele><time>2026-04-11T13:48:44Z</time></trkpt><trkpt lat="44.33441515426473" lon="9.734743459466436"><ele>946.0</ele><time>2026-04-11T13:48:45Z</time></trkpt><trkpt lat="44.33448899251098" lon="9.73470082748791"><ele>946.0</ele><time>2026-04-11T13:48:46Z</time></trkpt><trkpt lat="44.33455309983265" lon="9.734669647207625"><ele>946.0</ele><time>2026-04-11T13:48:47Z</time></trkpt><trkpt lat="44.33464708564868" lon="9.734611727926994"><ele>946.0</ele><time>2026-04-11T13:48:49Z</time></trkpt><trkpt lat="44.33502212263573" lon="9.734312839902087"><ele>944.5</ele><time>2026-04-11T13:48:51Z</time></trkpt><trkpt lat="44.335119589842286" lon="9.734204828098129"><ele>943.0</ele><time>2026-04-11T13:48:52Z</time></trkpt><trkpt lat="44.33521290677895" lon="9.73408189438063"><ele>941.5</ele><time>2026-04-11T13:48:53Z</time></trkpt><trkpt lat="44.33530211352857" lon="9.733958571662727"><ele>940.0</ele><time>2026-04-11T13:48:54Z</time></trkpt><trkpt lat="44.33537976773105" lon="9.733846336889439"><ele>940.0</ele><time>2026-04-11T13:48:55Z</time></trkpt><trkpt lat="44.33543633156375" lon="9.733748731630772"><ele>940.0</ele><time>2026-04-11T13:48:56Z</time></trkpt><trkpt lat="44.33546028022868" lon="9.733659564861789"><ele>940.0</ele><time>2026-04-11T13:48:57Z</time></trkpt><trkpt lat="44.33545232674934" lon="9.733553092662035"><ele>940.0</ele><time>2026-04-11T13:48:58Z</time></trkpt><trkpt lat="44.335382769041" lon="9.733432674312542"><ele>940.0</ele><time>2026-04-11T13:48:59Z</time></trkpt><trkpt lat="44.335321144587574" lon="9.733285639517305"><ele>943.4</ele><time>2026-04-11T13:49:00Z</time></trkpt><trkpt lat="44.33525918322675" lon="9.733143301925683"><ele>946.8</ele><time>2026-04-11T13:49:01Z</time></trkpt><trkpt lat="44.33520598849768" lon="9.733002184233053"><ele>950.2</ele><time>2026-04-11T13:49:02Z</time></trkpt><trkpt lat="44.33517314720651" lon="9.732858994346778"><ele>953.6</ele><time>2026-04-11T13:49:03Z</time></trkpt><trkpt lat="44.33516313072279" lon="9.732717494896061"><ele>957.0</ele><time>2026-04-11T13:49:04Z</time></trkpt><trkpt lat="44.33520272167521" lon="9.732571983610864"><ele>957.0</ele><time>2026-04-11T13:49:05Z</time></trkpt><trkpt lat="44.3352094042322" lon="9.732425856461939"><ele>957.0</ele><time>2026-04-11T13:49:06Z</time></trkpt><trkpt lat="44.33521253034829" lon="9.732306165548431"><ele>957.0</ele><time>2026-04-11T13:49:07Z</time></trkpt><trkpt lat="44.33519332858325" lon="9.732189839246471"><ele>957.0</ele><time>2026-04-11T13:49:08Z</time></trkpt><trkpt lat="44.335137193647675" lon="9.732074951881822"><ele>957.0</ele><time>2026-04-11T13:49:09Z</time></trkpt><trkpt lat="44.33505163020182" lon="9.73197547855859"><ele>957.0</ele><time>2026-04-11T13:49:10Z</time></trkpt><trkpt lat="44.33493676562855" lon="9.731923311274569"><ele>957.0</ele><time>2026-04-11T13:49:11Z</time></trkpt><trkpt lat="44.334846352929574" lon="9.731884470446083"><ele>957.0</ele><time>2026-04-11T13:49:12Z</time></trkpt><trkpt lat="44.33474115727848" lon="9.731843572001651"><ele>957.0</ele><time>2026-04-11T13:49:13Z</time></trkpt><trkpt lat="44.334631205851615" lon="9.731834397159366"><ele>957.0</ele><time>2026-04-11T13:49:14Z</time></trkpt><trkpt lat="44.33450997245933" lon="9.731819006435568"><ele>957.2</ele><time>2026-04-11T13:49:15Z</time></trkpt><trkpt lat="44.33439609639461" lon="9.731791233623632"><ele>957.4000000000001</ele><time>2026-04-11T13:49:16Z</time></trkpt><trkpt lat="44.33428872095303" lon="9.731764123125917"><ele>957.5999999999999</ele><time>2026-04-11T13:49:17Z</time></trkpt><trkpt lat="44.334181049118065" lon="9.731755137883008"><ele>957.8</ele><time>2026-04-11T13:49:18Z</time></trkpt><trkpt lat="44.334070762722284" lon="9.731760752265819"><ele>958.0</ele><time>2026-04-11T13:49:19Z</time></trkpt><trkpt lat="44.33394908822715" lon="9.73180681153304"><ele>960.4</ele><time>2026-04-11T13:49:20Z</time></trkpt><trkpt lat="44.333829635553826" lon="9.731857132854934"><ele>962.8</ele><time>2026-04-11T13:49:21Z</time></trkpt><trkpt lat="44.33372002597833" lon="9.731893518387883"><ele>965.2</ele><time>2026-04-11T13:49:22Z</time></trkpt><trkpt lat="44.333623438358906" lon="9.731925627334773"><ele>967.6</ele><time>2026-04-11T13:49:23Z</time></trkpt><trkpt lat="44.333530182000146" lon="9.73195036710046"><ele>970.0</ele><time>2026-04-11T13:49:24Z</time></trkpt><trkpt lat="44.333457909790816" lon="9.731975385990667"><ele>970.0</ele><time>2026-04-11T13:49:25Z</time></trkpt><trkpt lat="44.33333205300436" lon="9.731951584211748"><ele>970.0</ele><time>2026-04-11T13:49:27Z</time></trkpt><trkpt lat="44.33326312169371" lon="9.731874180399503"><ele>970.0</ele><time>2026-04-11T13:49:28Z</time></trkpt><trkpt lat="44.33319645911954" lon="9.731758403862248"><ele>970.0</ele><time>2026-04-11T13:49:29Z</time></trkpt><trkpt lat="44.333128987563185" lon="9.731639148932512"><ele>970.0</ele><time>2026-04-11T13:49:30Z</time></trkpt><trkpt lat="44.33305396389617" lon="9.731520626476252"><ele>974.6</ele><time>2026-04-11T13:49:31Z</time></trkpt><trkpt lat="44.332980726445754" lon="9.73141395625173"><ele>979.2</ele><time>2026-04-11T13:49:32Z</time></trkpt><trkpt lat="44.332912576066754" lon="9.731314636760906"><ele>983.8</ele><time>2026-04-11T13:49:33Z</time></trkpt><trkpt lat="44.33281651229903" lon="9.731232611302254"><ele>988.4</ele><time>2026-04-11T13:49:34Z</time></trkpt><trkpt lat="44.332722524037194" lon="9.731174335094806"><ele>993.0</ele><time>2026-04-11T13:49:35Z</time></trkpt><trkpt lat="44.33261705175953" lon="9.73116607977608"><ele>993.0</ele><time>2026-04-11T13:49:36Z</time></trkpt><trkpt lat="44.33250828135881" lon="9.731190533364565"><ele>993.0</ele><time>2026-04-11T13:49:37Z</time></trkpt><trkpt lat="44.33240080604003" lon="9.731227632075685"><ele>993.0</ele><time>2026-04-11T13:49:38Z</time></trkpt><trkpt lat="44.33230370858321" lon="9.73125563341757"><ele>993.0</ele><time>2026-04-11T13:49:39Z</time></trkpt><trkpt lat="44.33220771049748" lon="9.731269321695036"><ele>993.0</ele><time>2026-04-11T13:49:40Z</time></trkpt><trkpt lat="44.33211165829171" lon="9.731231732427176"><ele>992.0</ele><time>2026-04-11T13:49:41Z</time></trkpt><trkpt lat="44.33204189448525" lon="9.731118460036969"><ele>991.0</ele><time>2026-04-11T13:49:42Z</time></trkpt><trkpt lat="44.33196013494976" lon="9.73102922881827"><ele>990.0</ele><time>2026-04-11T13:49:43Z</time></trkpt><trkpt lat="44.331888132652715" lon="9.730941839919382"><ele>989.0</ele><time>2026-04-11T13:49:44Z</time></trkpt><trkpt lat="44.331825210241824" lon="9.730868737658994"><ele>988.0</ele><time>2026-04-11T13:49:45Z</time></trkpt><trkpt lat="44.33175669039391" lon="9.73081441868519"><ele>987.9999999999999</ele><time>2026-04-11T13:49:46Z</time></trkpt><trkpt lat="44.33168533579753" lon="9.730780491295109"><ele>988.0</ele><time>2026-04-11T13:49:47Z</time></trkpt><trkpt lat="44.331603106751366" lon="9.730751727001309"><ele>988.0</ele><time>2026-04-11T13:49:48Z</time></trkpt><trkpt lat="44.33152388255563" lon="9.730722879979854"><ele>988.0</ele><time>2026-04-11T13:49:49Z</time></trkpt><trkpt lat="44.33144140955318" lon="9.730702588276621"><ele>987.9999999999999</ele><time>2026-04-11T13:49:50Z</time></trkpt><trkpt lat="44.331359498980724" lon="9.730681953087823"><ele>988.0</ele><time>2026-04-11T13:49:51Z</time></trkpt><trkpt lat="44.331277855188446" lon="9.7306625824105"><ele>989.4999999999999</ele><time>2026-04-11T13:49:51.999Z</time></trkpt><trkpt lat="44.331205303681486" lon="9.730649507957503"><ele>991.0</ele><time>2026-04-11T13:49:52.999Z</time></trkpt><trkpt lat="44.3311269239836" lon="9.730634692090593"><ele>992.5</ele><time>2026-04-11T13:49:53.999Z</time></trkpt><trkpt lat="44.33104565539151" lon="9.730598859687245"><ele>994.0</ele><time>2026-04-11T13:49:54.999Z</time></trkpt><trkpt lat="44.33095838762494" lon="9.73057512252747"><ele>995.4999999999999</ele><time>2026-04-11T13:49:55.999Z</time></trkpt><trkpt lat="44.3308766125154" lon="9.730562285449135"><ele>997.0</ele><time>2026-04-11T13:49:56.999Z</time></trkpt><trkpt lat="44.330794648915045" lon="9.730572276748644"><ele>997.0</ele><time>2026-04-11T13:49:57.999Z</time></trkpt><trkpt lat="44.330716192724594" lon="9.730623684644158"><ele>997.0</ele><time>2026-04-11T13:49:58.999Z</time></trkpt><trkpt lat="44.33062791741435" lon="9.730695379956432"><ele>997.0</ele><time>2026-04-11T13:49:59.999Z</time></trkpt><trkpt lat="44.33052472309347" lon="9.730777693979137"><ele>997.0</ele><time>2026-04-11T13:50:00.999Z</time></trkpt><trkpt lat="44.33041101146315" lon="9.730851843786441"><ele>997.0</ele><time>2026-04-11T13:50:01.999Z</time></trkpt><trkpt lat="44.33030292366003" lon="9.7309156738202"><ele>998.4999999999999</ele><time>2026-04-11T13:50:02.999Z</time></trkpt><trkpt lat="44.330215995517" lon="9.730966082210362"><ele>1000.0</ele><time>2026-04-11T13:50:03.999Z</time></trkpt><trkpt lat="44.33014313222327" lon="9.730915784889804"><ele>1001.5</ele><time>2026-04-11T13:50:04.999Z</time></trkpt><trkpt lat="44.33008824310538" lon="9.730853799679917"><ele>1003.0</ele><time>2026-04-11T13:50:05.999Z</time></trkpt><trkpt lat="44.330061458354386" lon="9.73074351545288"><ele>1004.4999999999999</ele><time>2026-04-11T13:50:06.999Z</time></trkpt><trkpt lat="44.3300750143748" lon="9.73060934284981"><ele>1006.0</ele><time>2026-04-11T13:50:07.999Z</time></trkpt><trkpt lat="44.33009301109383" lon="9.73042562706843"><ele>1006.0</ele><time>2026-04-11T13:50:08.999Z</time></trkpt><trkpt lat="44.33012463889054" lon="9.73024799476707"><ele>1006.0</ele><time>2026-04-11T13:50:09.999Z</time></trkpt><trkpt lat="44.33014765352769" lon="9.730084508043332"><ele>1006.0</ele><time>2026-04-11T13:50:10.999Z</time></trkpt><trkpt lat="44.330168120553495" lon="9.729963212402708"><ele>1006.0</ele><time>2026-04-11T13:50:11.999Z</time></trkpt><trkpt lat="44.330190388520755" lon="9.729730906063887"><ele>1006.25</ele><time>2026-04-11T13:50:12.999Z</time></trkpt><trkpt lat="44.33018771861204" lon="9.729530476639997"><ele>1006.5</ele><time>2026-04-11T13:50:13.999Z</time></trkpt><trkpt lat="44.33018750720894" lon="9.729326896647773"><ele>1006.75</ele><time>2026-04-11T13:50:14.999Z</time></trkpt><trkpt lat="44.33019569273484" lon="9.72915458715434"><ele>1007.0</ele><time>2026-04-11T13:50:15.999Z</time></trkpt><trkpt lat="44.330220890153385" lon="9.72901799201824"><ele>1007.8</ele><time>2026-04-11T13:50:16.999Z</time></trkpt><trkpt lat="44.33026206893311" lon="9.728879991558486"><ele>1008.6</ele><time>2026-04-11T13:50:17.999Z</time></trkpt><trkpt lat="44.33031221836673" lon="9.728727317854547"><ele>1009.3999999999999</ele><time>2026-04-11T13:50:18.999Z</time></trkpt><trkpt lat="44.33033133628159" lon="9.728598302147207"><ele>1010.1999999999999</ele><time>2026-04-11T13:50:19.999Z</time></trkpt><trkpt lat="44.33034752820782" lon="9.728488135827675"><ele>1011.0</ele><time>2026-04-11T13:50:20.999Z</time></trkpt><trkpt lat="44.3303306925572" lon="9.728377433517041"><ele>1011.0</ele><time>2026-04-11T13:50:21.999Z</time></trkpt><trkpt lat="44.33026715361644" lon="9.728297156391465"><ele>1010.9999999999999</ele><time>2026-04-11T13:50:22.999Z</time></trkpt><trkpt lat="44.330173863424534" lon="9.728276284118543"><ele>1010.9999999999999</ele><time>2026-04-11T13:50:23.999Z</time></trkpt><trkpt lat="44.33007032001629" lon="9.728338446748353"><ele>1011.0</ele><time>2026-04-11T13:50:24.999Z</time></trkpt><trkpt lat="44.33001857144449" lon="9.72846826688153"><ele>1011.0</ele><time>2026-04-11T13:50:25.999Z</time></trkpt><trkpt lat="44.3300142013915" lon="9.728613122800166"><ele>1011.0</ele><time>2026-04-11T13:50:39.999Z</time></trkpt><trkpt lat="44.330010700500594" lon="9.728712111586043"><ele>1010.9999999999999</ele><time>2026-04-11T13:50:40.999Z</time></trkpt><trkpt lat="44.329994425918805" lon="9.728850059077594"><ele>1010.9999999999999</ele><time>2026-04-11T13:50:41.999Z</time></trkpt><trkpt lat="44.32996566970027" lon="9.728997094644313"><ele>1011.0</ele><time>2026-04-11T13:50:42.999Z</time></trkpt><trkpt lat="44.32993730416266" lon="9.729165454241866"><ele>1011.0</ele><time>2026-04-11T13:50:43.999Z</time></trkpt><trkpt lat="44.329911373594804" lon="9.729341560222151"><ele>1010.0</ele><time>2026-04-11T13:50:44.999Z</time></trkpt><trkpt lat="44.32985644388908" lon="9.729466624760063"><ele>1009.0</ele><time>2026-04-11T13:50:45.999Z</time></trkpt><trkpt lat="44.32977268696645" lon="9.729564431719266"><ele>1008.0</ele><time>2026-04-11T13:50:46.999Z</time></trkpt><trkpt lat="44.329662653498936" lon="9.72966621675062"><ele>1007.0</ele><time>2026-04-11T13:50:48Z</time></trkpt><trkpt lat="44.3295261473327" lon="9.729766815756347"><ele>1012.6</ele><time>2026-04-11T13:50:49Z</time></trkpt><trkpt lat="44.329447336788846" lon="9.729850553986292"><ele>1018.2</ele><time>2026-04-11T13:50:50Z</time></trkpt><trkpt lat="44.32939030486724" lon="9.72996948427646"><ele>1023.8</ele><time>2026-04-11T13:50:51Z</time></trkpt><trkpt lat="44.32938919176915" lon="9.730123484697314"><ele>1029.4</ele><time>2026-04-11T13:50:52Z</time></trkpt><trkpt lat="44.329417899999264" lon="9.730283701758918"><ele>1035.0</ele><time>2026-04-11T13:50:53Z</time></trkpt><trkpt lat="44.329410125475086" lon="9.730419355640752"><ele>1035.0</ele><time>2026-04-11T13:50:54Z</time></trkpt><trkpt lat="44.329342601713584" lon="9.730521269476952"><ele>1035.0</ele><time>2026-04-11T13:50:55Z</time></trkpt><trkpt lat="44.329244028935406" lon="9.730594596416829"><ele>1035.0</ele><time>2026-04-11T13:50:56Z</time></trkpt><trkpt lat="44.32916644550308" lon="9.730686977505083"><ele>1035.0</ele><time>2026-04-11T13:50:57Z</time></trkpt><trkpt lat="44.329136587275954" lon="9.730844266039517"><ele>1035.0</ele><time>2026-04-11T13:50:58Z</time></trkpt><trkpt lat="44.32915734284728" lon="9.731037085590467"><ele>1034.25</ele><time>2026-04-11T13:50:59Z</time></trkpt><trkpt lat="44.32918036494482" lon="9.731205534804689"><ele>1033.5</ele><time>2026-04-11T13:51:00Z</time></trkpt><trkpt lat="44.329168439993595" lon="9.73135113857837"><ele>1032.75</ele><time>2026-04-11T13:51:01Z</time></trkpt><trkpt lat="44.32911665919511" lon="9.731504702762262"><ele>1032.0</ele><time>2026-04-11T13:51:02Z</time></trkpt><trkpt lat="44.329046225839875" lon="9.731647655086032"><ele>1032.0</ele><time>2026-04-11T13:51:03Z</time></trkpt><trkpt lat="44.32898558347338" lon="9.731791823632287"><ele>1032.0</ele><time>2026-04-11T13:51:04Z</time></trkpt><trkpt lat="44.32896208809667" lon="9.731949301533843"><ele>1032.0</ele><time>2026-04-11T13:51:05Z</time></trkpt><trkpt lat="44.32899007644051" lon="9.732114672462995"><ele>1032.0</ele><time>2026-04-11T13:51:06Z</time></trkpt><trkpt lat="44.329055328906904" lon="9.732258283212456"><ele>1033.0</ele><time>2026-04-11T13:51:07Z</time></trkpt><trkpt lat="44.32911343553686" lon="9.732383001324763"><ele>1034.0</ele><time>2026-04-11T13:51:08Z</time></trkpt><trkpt lat="44.32912098053088" lon="9.732486815627405"><ele>1035.0</ele><time>2026-04-11T13:51:09Z</time></trkpt><trkpt lat="44.329092633141244" lon="9.732591494970368"><ele>1036.0</ele><time>2026-04-11T13:51:10Z</time></trkpt><trkpt lat="44.32904194834008" lon="9.732680545639298"><ele>1037.0</ele><time>2026-04-11T13:51:11Z</time></trkpt><trkpt lat="44.328985662439116" lon="9.732776006371248"><ele>1038.0</ele><time>2026-04-11T13:51:12Z</time></trkpt><trkpt lat="44.3289316095601" lon="9.732869276143767"><ele>1038.6666666666667</ele><time>2026-04-11T13:51:13Z</time></trkpt><trkpt lat="44.32889262352321" lon="9.732958279679615"><ele>1039.3333333333333</ele><time>2026-04-11T13:51:14Z</time></trkpt><trkpt lat="44.32883140225721" lon="9.733096640018859"><ele>1040.0</ele><time>2026-04-11T13:51:16Z</time></trkpt><trkpt lat="44.3287780863621" lon="9.733186401484131"><ele>1040.6666666666665</ele><time>2026-04-11T13:51:18Z</time></trkpt><trkpt lat="44.328737366736355" lon="9.733283447455305"><ele>1041.3333333333333</ele><time>2026-04-11T13:51:22Z</time></trkpt><trkpt lat="44.32868792772999" lon="9.73338574035094"><ele>1042.0</ele><time>2026-04-11T13:51:25Z</time></trkpt><trkpt lat="44.32865041150255" lon="9.733481716241005"><ele>1042.1666666666665</ele><time>2026-04-11T13:51:28Z</time></trkpt><trkpt lat="44.328588935759456" lon="9.733525316178676"><ele>1042.3333333333333</ele><time>2026-04-11T13:51:30Z</time></trkpt><trkpt lat="44.32852250340887" lon="9.733561515970017"><ele>1042.5</ele><time>2026-04-11T13:51:33Z</time></trkpt><trkpt lat="44.328456820238635" lon="9.73356497013366"><ele>1042.6666666666667</ele><time>2026-04-11T13:51:35Z</time></trkpt><trkpt lat="44.32837172097942" lon="9.733569685046138"><ele>1042.8333333333335</ele><time>2026-04-11T13:51:37Z</time></trkpt><trkpt lat="44.32829198946327" lon="9.733560460006505"><ele>1043.0</ele><time>2026-04-11T13:51:39Z</time></trkpt><trkpt lat="44.32820141122932" lon="9.733548991620243"><ele>1043.0</ele><time>2026-04-11T13:51:41Z</time></trkpt><trkpt lat="44.32811892795187" lon="9.733507604002705"><ele>1043.0</ele><time>2026-04-11T13:51:43Z</time></trkpt><trkpt lat="44.32806238965344" lon="9.733468714111671"><ele>1043.0</ele><time>2026-04-11T13:51:45Z</time></trkpt><trkpt lat="44.327996972611" lon="9.733432988943957"><ele>1043.0</ele><time>2026-04-11T13:52:32.999Z</time></trkpt><trkpt lat="44.32789808372471" lon="9.73340474465433"><ele>1043.0</ele><time>2026-04-11T13:54:07Z</time></trkpt><trkpt lat="44.32788586607121" lon="9.733505416979304"><ele>1043.0</ele><time>2026-04-11T13:54:09.999Z</time></trkpt><trkpt lat="44.327964126687235" lon="9.73350741028326"><ele>1043.0</ele><time>2026-04-11T13:54:11.999Z</time></trkpt><trkpt lat="44.328096975921014" lon="9.733523457309243"><ele>1043.0</ele><time>2026-04-11T13:54:13.999Z</time></trkpt><trkpt lat="44.328175298476424" lon="9.733580154858373"><ele>1043.0</ele><time>2026-04-11T13:54:14.999Z</time></trkpt><trkpt lat="44.32825241829544" lon="9.733611144895837"><ele>1043.0</ele><time>2026-04-11T13:54:15.999Z</time></trkpt><trkpt lat="44.328369573928796" lon="9.73359058755746"><ele>1043.0</ele><time>2026-04-11T13:54:17.999Z</time></trkpt><trkpt lat="44.32843375046693" lon="9.733617125256886"><ele>1043.0</ele><time>2026-04-11T13:54:18.999Z</time></trkpt><trkpt lat="44.3285298670397" lon="9.733618890286124"><ele>1043.0</ele><time>2026-04-11T13:54:20.999Z</time></trkpt><trkpt lat="44.328597456116704" lon="9.73356583363299"><ele>1043.0</ele><time>2026-04-11T13:54:22.999Z</time></trkpt><trkpt lat="44.32866062439116" lon="9.733502515338625"><ele>1043.0</ele><time>2026-04-11T13:54:35.999Z</time></trkpt><trkpt lat="44.32873671267059" lon="9.733410009678083"><ele>1043.0</ele><time>2026-04-11T13:54:38.999Z</time></trkpt><trkpt lat="44.32878213725102" lon="9.733333417011114"><ele>1043.0</ele><time>2026-04-11T13:54:40.999Z</time></trkpt><trkpt lat="44.32880427087113" lon="9.733234894472211"><ele>1043.0</ele><time>2026-04-11T13:54:42.999Z</time></trkpt><trkpt lat="44.32887146898591" lon="9.733196135044647"><ele>1043.0</ele><time>2026-04-11T13:54:45.999Z</time></trkpt><trkpt lat="44.32889361616961" lon="9.733108043390699"><ele>1043.0</ele><time>2026-04-11T14:04:03Z</time></trkpt><trkpt lat="44.328868089262315" lon="9.732995909649446"><ele>1043.0</ele><time>2026-04-11T14:04:06Z</time></trkpt><trkpt lat="44.328946246713954" lon="9.732903248668682"><ele>1043.0</ele><time>2026-04-11T14:04:08Z</time></trkpt><trkpt lat="44.329010592268894" lon="9.732771608310369"><ele>1043.0</ele><time>2026-04-11T14:04:10Z</time></trkpt><trkpt lat="44.32908127932124" lon="9.73262617490625"><ele>1042.1666666666667</ele><time>2026-04-11T14:04:12Z</time></trkpt><trkpt lat="44.32912676177846" lon="9.732555328267726"><ele>1041.3333333333335</ele><time>2026-04-11T14:04:13Z</time></trkpt><trkpt lat="44.329147074940316" lon="9.732469256798613"><ele>1040.5</ele><time>2026-04-11T14:04:14Z</time></trkpt><trkpt lat="44.32915308518476" lon="9.732375087988276"><ele>1039.6666666666667</ele><time>2026-04-11T14:04:15Z</time></trkpt><trkpt lat="44.329127108304256" lon="9.73227517930476"><ele>1038.8333333333333</ele><time>2026-04-11T14:04:16Z</time></trkpt><trkpt lat="44.329062924562436" lon="9.732187817566833"><ele>1038.0</ele><time>2026-04-11T14:04:17Z</time></trkpt><trkpt lat="44.32903499082989" lon="9.732054151577616"><ele>1038.0</ele><time>2026-04-11T14:04:18Z</time></trkpt><trkpt lat="44.32901924287211" lon="9.731932218951426"><ele>1038.0</ele><time>2026-04-11T14:04:19Z</time></trkpt><trkpt lat="44.329028164419405" lon="9.731805969704173"><ele>1038.0</ele><time>2026-04-11T14:04:20Z</time></trkpt><trkpt lat="44.32907813329875" lon="9.731659379459613"><ele>1038.0</ele><time>2026-04-11T14:04:21Z</time></trkpt><trkpt lat="44.32914258046302" lon="9.73150682526197"><ele>1038.0</ele><time>2026-04-11T14:04:22Z</time></trkpt><trkpt lat="44.329187369559804" lon="9.731359563664565"><ele>1037.4</ele><time>2026-04-11T14:04:23Z</time></trkpt><trkpt lat="44.32921886700158" lon="9.731221842686134"><ele>1036.8</ele><time>2026-04-11T14:04:24Z</time></trkpt><trkpt lat="44.329214822403834" lon="9.731082063706737"><ele>1036.2</ele><time>2026-04-11T14:04:25Z</time></trkpt><trkpt lat="44.32919179676531" lon="9.730932148016604"><ele>1035.6</ele><time>2026-04-11T14:04:26Z</time></trkpt><trkpt lat="44.329183335374836" lon="9.730789603836273"><ele>1035.0</ele><time>2026-04-11T14:04:27Z</time></trkpt><trkpt lat="44.32920921390016" lon="9.73065153070389"><ele>1035.0</ele><time>2026-04-11T14:04:28Z</time></trkpt><trkpt lat="44.32929722394399" lon="9.730550844449336"><ele>1035.0</ele><time>2026-04-11T14:04:29Z</time></trkpt><trkpt lat="44.32940205299716" lon="9.7304702000562"><ele>1035.0</ele><time>2026-04-11T14:04:30Z</time></trkpt><trkpt lat="44.32945858914317" lon="9.730353336504887"><ele>1035.0</ele><time>2026-04-11T14:04:31Z</time></trkpt><trkpt lat="44.32946714991078" lon="9.730223991158706"><ele>1035.0</ele><time>2026-04-11T14:04:32Z</time></trkpt><trkpt lat="44.32944527120191" lon="9.730076867636278"><ele>1035.4</ele><time>2026-04-11T14:04:33Z</time></trkpt><trkpt lat="44.329448629398726" lon="9.729946690893177"><ele>1035.8</ele><time>2026-04-11T14:04:34Z</time></trkpt><trkpt lat="44.32951582571817" lon="9.7298341231934"><ele>1036.2</ele><time>2026-04-11T14:04:35Z</time></trkpt><trkpt lat="44.329612536125815" lon="9.729763971760983"><ele>1036.6</ele><time>2026-04-11T14:04:36Z</time></trkpt><trkpt lat="44.32971323525273" lon="9.729653883779354"><ele>1037.0</ele><time>2026-04-11T14:04:37Z</time></trkpt><trkpt lat="44.329809429176166" lon="9.729573420837982"><ele>1031.8</ele><time>2026-04-11T14:04:38Z</time></trkpt><trkpt lat="44.32988675820305" lon="9.729477085579513"><ele>1026.6</ele><time>2026-04-11T14:04:39Z</time></trkpt><trkpt lat="44.32994084993334" lon="9.729354725980896"><ele>1021.3999999999999</ele><time>2026-04-11T14:04:40Z</time></trkpt><trkpt lat="44.32996722919913" lon="9.729200766616362"><ele>1016.1999999999999</ele><time>2026-04-11T14:04:41Z</time></trkpt><trkpt lat="44.32998192447013" lon="9.729032952195677"><ele>1011.0</ele><time>2026-04-11T14:04:42Z</time></trkpt><trkpt lat="44.33000130972258" lon="9.728866200207712"><ele>1011.0</ele><time>2026-04-11T14:04:43Z</time></trkpt><trkpt lat="44.33002472801618" lon="9.728711232232017"><ele>1010.9999999999999</ele><time>2026-04-11T14:04:44Z</time></trkpt><trkpt lat="44.3300436190042" lon="9.728567458231012"><ele>1010.9999999999999</ele><time>2026-04-11T14:04:45Z</time></trkpt><trkpt lat="44.33005950186148" lon="9.728447431812514"><ele>1011.0</ele><time>2026-04-11T14:04:46Z</time></trkpt><trkpt lat="44.3301209279569" lon="9.728370109060048"><ele>1011.0</ele><time>2026-04-11T14:04:46.999Z</time></trkpt><trkpt lat="44.33022070620332" lon="9.728338625501541"><ele>1011.0</ele><time>2026-04-11T14:04:47.999Z</time></trkpt><trkpt lat="44.33031006133613" lon="9.7284024040518"><ele>1010.9999999999999</ele><time>2026-04-11T14:04:48.999Z</time></trkpt><trkpt lat="44.33034424998454" lon="9.728531161106908"><ele>1010.9999999999999</ele><time>2026-04-11T14:04:49.999Z</time></trkpt><trkpt lat="44.330302930124304" lon="9.728690148705807"><ele>1011.0</ele><time>2026-04-11T14:04:50.999Z</time></trkpt><trkpt lat="44.33025916189424" lon="9.72883123287228"><ele>1011.0</ele><time>2026-04-11T14:04:51.999Z</time></trkpt><trkpt lat="44.330203061336924" lon="9.728964683716898"><ele>1011.0</ele><time>2026-04-11T14:04:52.999Z</time></trkpt><trkpt lat="44.33016886408493" lon="9.729108779541887"><ele>1010.9999999999999</ele><time>2026-04-11T14:04:53.999Z</time></trkpt><trkpt lat="44.330153852811286" lon="9.729258880627237"><ele>1010.9999999999999</ele><time>2026-04-11T14:04:54.999Z</time></trkpt><trkpt lat="44.330161586711895" lon="9.729420569673598"><ele>1011.0</ele><time>2026-04-11T14:04:55.999Z</time></trkpt><trkpt lat="44.33016858358015" lon="9.729583243151389"><ele>1011.0</ele><time>2026-04-11T14:04:56.999Z</time></trkpt><trkpt lat="44.33016703704188" lon="9.729747210711837"><ele>1010.0</ele><time>2026-04-11T14:04:57.999Z</time></trkpt><trkpt lat="44.33015491247002" lon="9.729898949219749"><ele>1009.0</ele><time>2026-04-11T14:04:58.999Z</time></trkpt><trkpt lat="44.330137422849326" lon="9.730045597851335"><ele>1008.0</ele><time>2026-04-11T14:04:59.999Z</time></trkpt><trkpt lat="44.33011156497349" lon="9.73020328691939"><ele>1007.0</ele><time>2026-04-11T14:05:00.999Z</time></trkpt><trkpt lat="44.33008431263388" lon="9.730367497555529"><ele>1006.8</ele><time>2026-04-11T14:05:01.999Z</time></trkpt><trkpt lat="44.33006203830105" lon="9.730526205739793"><ele>1006.6</ele><time>2026-04-11T14:05:02.999Z</time></trkpt><trkpt lat="44.330048150484764" lon="9.730673144162372"><ele>1006.3999999999999</ele><time>2026-04-11T14:05:03.999Z</time></trkpt><trkpt lat="44.33004405836581" lon="9.730809251383588"><ele>1006.1999999999999</ele><time>2026-04-11T14:05:04.999Z</time></trkpt><trkpt lat="44.33008644422982" lon="9.730908171624538"><ele>1006.0</ele><time>2026-04-11T14:05:05.999Z</time></trkpt><trkpt lat="44.33016072880745" lon="9.730960152601131"><ele>1006.0</ele><time>2026-04-11T14:05:06.999Z</time></trkpt><trkpt lat="44.330256176677054" lon="9.731002087247468"><ele>1006.0</ele><time>2026-04-11T14:05:07.999Z</time></trkpt><trkpt lat="44.33037097919067" lon="9.730928905464774"><ele>1006.0</ele><time>2026-04-11T14:05:08.999Z</time></trkpt><trkpt lat="44.33048558853645" lon="9.730838975770391"><ele>1006.0</ele><time>2026-04-11T14:05:09.999Z</time></trkpt><trkpt lat="44.33059656239552" lon="9.730748946498554"><ele>1003.75</ele><time>2026-04-11T14:05:10.999Z</time></trkpt><trkpt lat="44.330704742470466" lon="9.730666471533452"><ele>1001.5</ele><time>2026-04-11T14:05:11.999Z</time></trkpt><trkpt lat="44.33081387671398" lon="9.730622691943342"><ele>999.25</ele><time>2026-04-11T14:05:12.999Z</time></trkpt><trkpt lat="44.330915252897846" lon="9.73059471912823"><ele>997.0</ele><time>2026-04-11T14:05:13.999Z</time></trkpt><trkpt lat="44.3310191659901" lon="9.730644807528973"><ele>997.0</ele><time>2026-04-11T14:05:14.999Z</time></trkpt><trkpt lat="44.331143133458255" lon="9.730663579013914"><ele>997.0</ele><time>2026-04-11T14:05:15.999Z</time></trkpt><trkpt lat="44.33127542497945" lon="9.730680246992158"><ele>997.0</ele><time>2026-04-11T14:05:16.999Z</time></trkpt><trkpt lat="44.33138706413348" lon="9.730711290248637"><ele>997.0</ele><time>2026-04-11T14:05:17.999Z</time></trkpt><trkpt lat="44.33149824877568" lon="9.730765034993306"><ele>994.75</ele><time>2026-04-11T14:05:18.999Z</time></trkpt><trkpt lat="44.33160619672443" lon="9.730808697112854"><ele>992.5</ele><time>2026-04-11T14:05:19.999Z</time></trkpt><trkpt lat="44.33172154976817" lon="9.73084289073059"><ele>990.25</ele><time>2026-04-11T14:05:20.999Z</time></trkpt><trkpt lat="44.331815290000264" lon="9.730931480937773"><ele>988.0</ele><time>2026-04-11T14:05:21.999Z</time></trkpt><trkpt lat="44.33190094929835" lon="9.731021829106696"><ele>989.0</ele><time>2026-04-11T14:05:22.999Z</time></trkpt><trkpt lat="44.33199880309399" lon="9.731112335970876"><ele>990.0</ele><time>2026-04-11T14:05:23.999Z</time></trkpt><trkpt lat="44.33208417785763" lon="9.731214829865785"><ele>991.0</ele><time>2026-04-11T14:05:24.999Z</time></trkpt><trkpt lat="44.33217643277409" lon="9.731296121098143"><ele>992.0</ele><time>2026-04-11T14:05:25.999Z</time></trkpt><trkpt lat="44.33228013626236" lon="9.731312437658652"><ele>993.0</ele><time>2026-04-11T14:05:26.999Z</time></trkpt><trkpt lat="44.33239239960202" lon="9.731274874121237"><ele>993.0</ele><time>2026-04-11T14:05:27.999Z</time></trkpt><trkpt lat="44.332505582057195" lon="9.731251456258027"><ele>993.0</ele><time>2026-04-11T14:05:28.999Z</time></trkpt><trkpt lat="44.33260921367198" lon="9.73121882754036"><ele>993.0</ele><time>2026-04-11T14:05:30Z</time></trkpt><trkpt lat="44.33271271322528" lon="9.73121500557763"><ele>993.0</ele><time>2026-04-11T14:05:31Z</time></trkpt><trkpt lat="44.332801888928365" lon="9.731272621178611"><ele>993.0</ele><time>2026-04-11T14:05:32Z</time></trkpt><trkpt lat="44.33289182384072" lon="9.731359461793097"><ele>993.0</ele><time>2026-04-11T14:05:33Z</time></trkpt><trkpt lat="44.33297823276915" lon="9.731476731771178"><ele>993.0</ele><time>2026-04-11T14:05:34Z</time></trkpt><trkpt lat="44.3330509895752" lon="9.731592009691004"><ele>993.0</ele><time>2026-04-11T14:05:35Z</time></trkpt><trkpt lat="44.333138253509745" lon="9.731708868732024"><ele>993.0</ele><time>2026-04-11T14:05:36Z</time></trkpt><trkpt lat="44.33321628436135" lon="9.73182845608263"><ele>992.8</ele><time>2026-04-11T14:05:37Z</time></trkpt><trkpt lat="44.333289096896095" lon="9.73193953380054"><ele>992.5999999999999</ele><time>2026-04-11T14:05:38Z</time></trkpt><trkpt lat="44.33337819792276" lon="9.732016757678634"><ele>992.4000000000001</ele><time>2026-04-11T14:05:39Z</time></trkpt><trkpt lat="44.333479236007605" lon="9.732023335161411"><ele>992.2</ele><time>2026-04-11T14:05:40Z</time></trkpt><trkpt lat="44.33359344733963" lon="9.731970437157628"><ele>992.0</ele><time>2026-04-11T14:05:41Z</time></trkpt><trkpt lat="44.33371407000478" lon="9.731953515950446"><ele>992.0</ele><time>2026-04-11T14:05:42Z</time></trkpt><trkpt lat="44.333824372294295" lon="9.731899950013227"><ele>992.0</ele><time>2026-04-11T14:05:43Z</time></trkpt><trkpt lat="44.33393818199458" lon="9.73188066471323"><ele>992.0</ele><time>2026-04-11T14:05:44Z</time></trkpt><trkpt lat="44.33403977838954" lon="9.731843023401696"><ele>992.0</ele><time>2026-04-11T14:05:45Z</time></trkpt><trkpt lat="44.334140336710725" lon="9.73183291655585"><ele>992.0</ele><time>2026-04-11T14:05:46Z</time></trkpt><trkpt lat="44.33424281024163" lon="9.73183016982192"><ele>990.75</ele><time>2026-04-11T14:05:47Z</time></trkpt><trkpt lat="44.334349174271544" lon="9.73184895869566"><ele>989.5</ele><time>2026-04-11T14:05:48Z</time></trkpt><trkpt lat="44.33447096346037" lon="9.731857127271903"><ele>988.25</ele><time>2026-04-11T14:05:49Z</time></trkpt><trkpt lat="44.33458427845385" lon="9.73188195232312"><ele>987.0</ele><time>2026-04-11T14:05:50Z</time></trkpt><trkpt lat="44.334690849577434" lon="9.731917319206135"><ele>979.5</ele><time>2026-04-11T14:05:51Z</time></trkpt><trkpt lat="44.33480894619277" lon="9.731933471498634"><ele>972.0</ele><time>2026-04-11T14:05:52Z</time></trkpt><trkpt lat="44.334923094513925" lon="9.73196727919711"><ele>964.5</ele><time>2026-04-11T14:05:53Z</time></trkpt><trkpt lat="44.33500946840944" lon="9.732053744097655"><ele>957.0</ele><time>2026-04-11T14:05:54Z</time></trkpt><trkpt lat="44.335100702923064" lon="9.732147113655465"><ele>957.0</ele><time>2026-04-11T14:05:55Z</time></trkpt><trkpt lat="44.33517099568886" lon="9.732259707275126"><ele>957.0</ele><time>2026-04-11T14:05:56Z</time></trkpt><trkpt lat="44.33519518138412" lon="9.73237628545557"><ele>957.0</ele><time>2026-04-11T14:05:57Z</time></trkpt><trkpt lat="44.3351836536246" lon="9.732496298666701"><ele>957.0</ele><time>2026-04-11T14:05:58Z</time></trkpt><trkpt lat="44.3351668451561" lon="9.732652257851855"><ele>957.0</ele><time>2026-04-11T14:05:59Z</time></trkpt><trkpt lat="44.33514170342669" lon="9.732811292051855"><ele>957.75</ele><time>2026-04-11T14:06:00Z</time></trkpt><trkpt lat="44.33515152279679" lon="9.73295728036191"><ele>958.5</ele><time>2026-04-11T14:06:01Z</time></trkpt><trkpt lat="44.33519511326526" lon="9.733106648324759"><ele>959.25</ele><time>2026-04-11T14:06:02Z</time></trkpt><trkpt lat="44.33526264858153" lon="9.733252805081932"><ele>960.0</ele><time>2026-04-11T14:06:03Z</time></trkpt><trkpt lat="44.33531543937404" lon="9.733408976713314"><ele>960.0</ele><time>2026-04-11T14:06:04Z</time></trkpt><trkpt lat="44.335369825362775" lon="9.733544140270077"><ele>960.0</ele><time>2026-04-11T14:06:05Z</time></trkpt><trkpt lat="44.335401779049874" lon="9.733651020604741"><ele>960.0</ele><time>2026-04-11T14:06:06Z</time></trkpt><trkpt lat="44.33538985636825" lon="9.73375605137214"><ele>960.0</ele><time>2026-04-11T14:06:07Z</time></trkpt><trkpt lat="44.335341169515104" lon="9.733876603313632"><ele>960.0</ele><time>2026-04-11T14:06:08Z</time></trkpt><trkpt lat="44.33525728896073" lon="9.733968722480586"><ele>956.6666666666666</ele><time>2026-04-11T14:06:09Z</time></trkpt><trkpt lat="44.335183081258485" lon="9.73404235990471"><ele>953.3333333333333</ele><time>2026-04-11T14:06:10Z</time></trkpt><trkpt lat="44.33512385769026" lon="9.734116086855249"><ele>950.0</ele><time>2026-04-11T14:06:11Z</time></trkpt><trkpt lat="44.335066449846465" lon="9.734188537313113"><ele>946.6666666666666</ele><time>2026-04-11T14:06:12Z</time></trkpt><trkpt lat="44.335008077558555" lon="9.734254281135339"><ele>943.3333333333333</ele><time>2026-04-11T14:06:13Z</time></trkpt><trkpt lat="44.334946692963555" lon="9.734314007860437"><ele>940.0</ele><time>2026-04-11T14:06:14Z</time></trkpt><trkpt lat="44.33487256759899" lon="9.734382424331374"><ele>940.9999999999999</ele><time>2026-04-11T14:06:15Z</time></trkpt><trkpt lat="44.33478906135494" lon="9.734442718498249"><ele>942.0</ele><time>2026-04-11T14:06:16Z</time></trkpt><trkpt lat="44.3347015724701" lon="9.734500280848541"><ele>943.0</ele><time>2026-04-11T14:06:17Z</time></trkpt><trkpt lat="44.33462525430985" lon="9.734564461041764"><ele>944.0</ele><time>2026-04-11T14:06:18Z</time></trkpt><trkpt lat="44.33455559268785" lon="9.734608704292867"><ele>944.9999999999999</ele><time>2026-04-11T14:06:19Z</time></trkpt><trkpt lat="44.33447923283988" lon="9.734650582067324"><ele>946.0</ele><time>2026-04-11T14:06:20Z</time></trkpt><trkpt lat="44.33440797619023" lon="9.734700131465596"><ele>945.9999999999999</ele><time>2026-04-11T14:06:21Z</time></trkpt><trkpt lat="44.33432739512818" lon="9.734757691647772"><ele>946.0</ele><time>2026-04-11T14:06:22Z</time></trkpt><trkpt lat="44.33424894532976" lon="9.734817400801928"><ele>946.0</ele><time>2026-04-11T14:06:23Z</time></trkpt><trkpt lat="44.33418957823974" lon="9.734897879156094"><ele>946.0</ele><time>2026-04-11T14:06:24Z</time></trkpt><trkpt lat="44.33416113816311" lon="9.735005891793953"><ele>945.9999999999999</ele><time>2026-04-11T14:06:25Z</time></trkpt><trkpt lat="44.33416654350121" lon="9.735135323754058"><ele>946.0</ele><time>2026-04-11T14:06:26Z</time></trkpt><trkpt lat="44.33419599577734" lon="9.735274114311618"><ele>945.4</ele><time>2026-04-11T14:06:27Z</time></trkpt><trkpt lat="44.33423234356007" lon="9.735417853751853"><ele>944.8</ele><time>2026-04-11T14:06:28Z</time></trkpt><trkpt lat="44.33426132008888" lon="9.735543121385996"><ele>944.1999999999999</ele><time>2026-04-11T14:06:29Z</time></trkpt><trkpt lat="44.334328126603666" lon="9.735673083373438"><ele>943.5999999999999</ele><time>2026-04-11T14:06:30Z</time></trkpt><trkpt lat="44.334404037978665" lon="9.735775310224733"><ele>943.0</ele><time>2026-04-11T14:06:31Z</time></trkpt><trkpt lat="44.334507977494056" lon="9.735861738558173"><ele>943.0</ele><time>2026-04-11T14:06:32Z</time></trkpt><trkpt lat="44.33461378524672" lon="9.73594544028459"><ele>943.0</ele><time>2026-04-11T14:06:33Z</time></trkpt><trkpt lat="44.334709323135286" lon="9.736039034073169"><ele>943.0</ele><time>2026-04-11T14:06:34Z</time></trkpt><trkpt lat="44.33479616233525" lon="9.736143981910661"><ele>943.0</ele><time>2026-04-11T14:06:35Z</time></trkpt><trkpt lat="44.33482792974699" lon="9.73628727256924"><ele>940.25</ele><time>2026-04-11T14:06:36Z</time></trkpt><trkpt lat="44.33482755308745" lon="9.736431153729686"><ele>937.5</ele><time>2026-04-11T14:06:37Z</time></trkpt><trkpt lat="44.33474815528737" lon="9.736553839146476"><ele>934.75</ele><time>2026-04-11T14:06:38Z</time></trkpt><trkpt lat="44.334644097926805" lon="9.736609131752253"><ele>932.0</ele><time>2026-04-11T14:06:39Z</time></trkpt><trkpt lat="44.33452564183079" lon="9.736598645314238"><ele>932.0</ele><time>2026-04-11T14:06:40Z</time></trkpt><trkpt lat="44.33441767558959" lon="9.736597005581373"><ele>932.0</ele><time>2026-04-11T14:06:41Z</time></trkpt><trkpt lat="44.33433249263119" lon="9.73663691072799"><ele>932.0</ele><time>2026-04-11T14:06:42Z</time></trkpt><trkpt lat="44.33428159948425" lon="9.736755755791734"><ele>932.0</ele><time>2026-04-11T14:06:43Z</time></trkpt><trkpt lat="44.334274995804755" lon="9.736915110532383"><ele>932.0</ele><time>2026-04-11T14:06:44Z</time></trkpt><trkpt lat="44.33428013445865" lon="9.737066877352877"><ele>926.4000000000001</ele><time>2026-04-11T14:06:45Z</time></trkpt><trkpt lat="44.33427997876776" lon="9.737203745793996"><ele>920.8000000000001</ele><time>2026-04-11T14:06:46Z</time></trkpt><trkpt lat="44.33425511587791" lon="9.737324971114651"><ele>915.2</ele><time>2026-04-11T14:06:47Z</time></trkpt><trkpt lat="44.33418136481458" lon="9.737419006748654"><ele>909.6</ele><time>2026-04-11T14:06:48Z</time></trkpt><trkpt lat="44.33407155941395" lon="9.737447331439396"><ele>904.0</ele><time>2026-04-11T14:06:49Z</time></trkpt><trkpt lat="44.33395417773606" lon="9.737515166653829"><ele>909.75</ele><time>2026-04-11T14:06:50Z</time></trkpt><trkpt lat="44.33384027085354" lon="9.73755683938649"><ele>915.5</ele><time>2026-04-11T14:06:51Z</time></trkpt><trkpt lat="44.33371348686982" lon="9.737591633328336"><ele>921.25</ele><time>2026-04-11T14:06:52Z</time></trkpt><trkpt lat="44.33359838729042" lon="9.737617495482079"><ele>927.0</ele><time>2026-04-11T14:06:53Z</time></trkpt><trkpt lat="44.33350277350694" lon="9.737664982565297"><ele>921.6</ele><time>2026-04-11T14:06:54Z</time></trkpt><trkpt lat="44.33344277596215" lon="9.737768876529977"><ele>916.2</ele><time>2026-04-11T14:06:55Z</time></trkpt><trkpt lat="44.333427795527335" lon="9.737916752182038"><ele>910.8</ele><time>2026-04-11T14:06:56Z</time></trkpt><trkpt lat="44.33345771019344" lon="9.73804998746182"><ele>905.4</ele><time>2026-04-11T14:06:56.999Z</time></trkpt><trkpt lat="44.333480987350605" lon="9.738179764105475"><ele>900.0</ele><time>2026-04-11T14:06:57.999Z</time></trkpt><trkpt lat="44.333442294105815" lon="9.738296804113311"><ele>900.0</ele><time>2026-04-11T14:06:58.999Z</time></trkpt><trkpt lat="44.33333466276127" lon="9.738367957175843"><ele>900.0</ele><time>2026-04-11T14:06:59.999Z</time></trkpt><trkpt lat="44.33321103798414" lon="9.738418468320248"><ele>900.0</ele><time>2026-04-11T14:07:00.999Z</time></trkpt><trkpt lat="44.33306835265794" lon="9.738443066597466"><ele>900.0</ele><time>2026-04-11T14:07:01.999Z</time></trkpt><trkpt lat="44.33295310535533" lon="9.738482334235918"><ele>899.0</ele><time>2026-04-11T14:07:02.999Z</time></trkpt><trkpt lat="44.33284866889901" lon="9.738544325088894"><ele>898.0</ele><time>2026-04-11T14:07:03.999Z</time></trkpt><trkpt lat="44.3327531602239" lon="9.738636220870381"><ele>897.0</ele><time>2026-04-11T14:07:04.999Z</time></trkpt><trkpt lat="44.33265689569912" lon="9.738744297942283"><ele>896.0</ele><time>2026-04-11T14:07:05.999Z</time></trkpt><trkpt lat="44.33256045419206" lon="9.738836012224272"><ele>896.0</ele><time>2026-04-11T14:07:06.999Z</time></trkpt><trkpt lat="44.33246825117979" lon="9.738922384820617"><ele>895.9999999999999</ele><time>2026-04-11T14:07:07.999Z</time></trkpt><trkpt lat="44.33240630661023" lon="9.7390079538956"><ele>895.9999999999999</ele><time>2026-04-11T14:07:08.999Z</time></trkpt><trkpt lat="44.33236773538014" lon="9.73911357127464"><ele>896.0</ele><time>2026-04-11T14:07:09.999Z</time></trkpt><trkpt lat="44.3323732459109" lon="9.739238832248834"><ele>896.0</ele><time>2026-04-11T14:07:10.999Z</time></trkpt><trkpt lat="44.33241567931921" lon="9.739361489443015"><ele>895.75</ele><time>2026-04-11T14:07:11.999Z</time></trkpt><trkpt lat="44.33249676391781" lon="9.739463018234407"><ele>895.5</ele><time>2026-04-11T14:07:12.999Z</time></trkpt><trkpt lat="44.332598227445075" lon="9.739498928431813"><ele>895.25</ele><time>2026-04-11T14:07:13.999Z</time></trkpt><trkpt lat="44.332728152109134" lon="9.73947422589834"><ele>895.0</ele><time>2026-04-11T14:07:14.999Z</time></trkpt><trkpt lat="44.33284464973058" lon="9.739398333891426"><ele>895.2</ele><time>2026-04-11T14:07:15.999Z</time></trkpt><trkpt lat="44.33295015012908" lon="9.73936768583591"><ele>895.4</ele><time>2026-04-11T14:07:16.999Z</time></trkpt><trkpt lat="44.333041811015015" lon="9.739379238583753"><ele>895.5999999999999</ele><time>2026-04-11T14:07:17.999Z</time></trkpt><trkpt lat="44.333118096501664" lon="9.739450375815428"><ele>895.8</ele><time>2026-04-11T14:07:18.999Z</time></trkpt><trkpt lat="44.33322579103464" lon="9.739510762738055"><ele>896.0</ele><time>2026-04-11T14:07:19.999Z</time></trkpt><trkpt lat="44.333328258288844" lon="9.739583129197944"><ele>892.8333333333334</ele><time>2026-04-11T14:07:20.999Z</time></trkpt><trkpt lat="44.333418299565714" lon="9.739666131083789"><ele>889.6666666666667</ele><time>2026-04-11T14:07:21.999Z</time></trkpt><trkpt lat="44.33343486664419" lon="9.739775524601448"><ele>886.5</ele><time>2026-04-11T14:07:22.999Z</time></trkpt><trkpt lat="44.333455255238334" lon="9.739878591665168"><ele>883.3333333333333</ele><time>2026-04-11T14:07:23.999Z</time></trkpt><trkpt lat="44.33342788387599" lon="9.739982318359875"><ele>880.1666666666666</ele><time>2026-04-11T14:07:24.999Z</time></trkpt><trkpt lat="44.33338007277793" lon="9.74008426239033"><ele>877.0</ele><time>2026-04-11T14:07:25.999Z</time></trkpt><trkpt lat="44.333346363923305" lon="9.74020537745224"><ele>877.2</ele><time>2026-04-11T14:07:26.999Z</time></trkpt><trkpt lat="44.333352889737085" lon="9.740340673227973"><ele>877.4000000000001</ele><time>2026-04-11T14:07:27.999Z</time></trkpt><trkpt lat="44.33341416116111" lon="9.740455691697896"><ele>877.5999999999999</ele><time>2026-04-11T14:07:28.999Z</time></trkpt><trkpt lat="44.33351378364226" lon="9.740543334187677"><ele>877.8</ele><time>2026-04-11T14:07:29.999Z</time></trkpt><trkpt lat="44.3336250898018" lon="9.740594011015226"><ele>878.0</ele><time>2026-04-11T14:07:30.999Z</time></trkpt><trkpt lat="44.33371510621649" lon="9.740649612008895"><ele>878.0000000000001</ele><time>2026-04-11T14:07:31.999Z</time></trkpt><trkpt lat="44.33379208262098" lon="9.740707068258347"><ele>878.0</ele><time>2026-04-11T14:07:32.999Z</time></trkpt><trkpt lat="44.33385439762452" lon="9.740783809399643"><ele>878.0</ele><time>2026-04-11T14:07:33.999Z</time></trkpt><trkpt lat="44.33386833615629" lon="9.74090788784318"><ele>878.0</ele><time>2026-04-11T14:07:34.999Z</time></trkpt><trkpt lat="44.33391335345533" lon="9.741014551080022"><ele>878.0000000000001</ele><time>2026-04-11T14:07:36Z</time></trkpt><trkpt lat="44.33395784460653" lon="9.741098949086894"><ele>878.0</ele><time>2026-04-11T14:07:37Z</time></trkpt><trkpt lat="44.33401901006421" lon="9.741130886372888"><ele>877.8</ele><time>2026-04-11T14:07:38Z</time></trkpt><trkpt lat="44.33409533536648" lon="9.741114467018653"><ele>877.5999999999999</ele><time>2026-04-11T14:07:39Z</time></trkpt><trkpt lat="44.33419075756519" lon="9.741059028861745"><ele>877.4000000000001</ele><time>2026-04-11T14:07:40Z</time></trkpt><trkpt lat="44.33430948887564" lon="9.741049011530139"><ele>877.2</ele><time>2026-04-11T14:07:41Z</time></trkpt><trkpt lat="44.33443492573035" lon="9.741031701305022"><ele>877.0</ele><time>2026-04-11T14:07:42Z</time></trkpt><trkpt lat="44.33455437218305" lon="9.741026292517846"><ele>877.0</ele><time>2026-04-11T14:07:43Z</time></trkpt><trkpt lat="44.33467193330806" lon="9.741023829221378"><ele>877.0</ele><time>2026-04-11T14:07:44Z</time></trkpt><trkpt lat="44.33479170434415" lon="9.74102843880758"><ele>877.0</ele><time>2026-04-11T14:07:45Z</time></trkpt><trkpt lat="44.33490107640254" lon="9.74105557125113"><ele>877.0</ele><time>2026-04-11T14:07:46Z</time></trkpt><trkpt lat="44.33502203857391" lon="9.74107625058247"><ele>877.0</ele><time>2026-04-11T14:07:47Z</time></trkpt><trkpt lat="44.335143611141994" lon="9.741133436752872"><ele>877.0</ele><time>2026-04-11T14:07:48Z</time></trkpt><trkpt lat="44.33525530014203" lon="9.741178134686526"><ele>877.0</ele><time>2026-04-11T14:07:49Z</time></trkpt><trkpt lat="44.335368667154974" lon="9.741203535676606"><ele>877.0</ele><time>2026-04-11T14:07:50Z</time></trkpt><trkpt lat="44.335492577802135" lon="9.741194445358106"><ele>873.0</ele><time>2026-04-11T14:07:51Z</time></trkpt><trkpt lat="44.33560998332222" lon="9.741134647668746"><ele>869.0</ele><time>2026-04-11T14:07:52Z</time></trkpt><trkpt lat="44.33571947158923" lon="9.741041175872686"><ele>865.0</ele><time>2026-04-11T14:07:53Z</time></trkpt><trkpt lat="44.33583705465054" lon="9.740980944344681"><ele>861.0</ele><time>2026-04-11T14:07:54Z</time></trkpt><trkpt lat="44.33595052988538" lon="9.74091523196023"><ele>858.25</ele><time>2026-04-11T14:07:55Z</time></trkpt><trkpt lat="44.33606450566838" lon="9.740866267412617"><ele>855.5</ele><time>2026-04-11T14:07:56Z</time></trkpt><trkpt lat="44.33616736935746" lon="9.740833850029722"><ele>852.75</ele><time>2026-04-11T14:07:57Z</time></trkpt><trkpt lat="44.3363418996286" lon="9.74077072689118"><ele>850.0</ele><time>2026-04-11T14:07:58Z</time></trkpt><trkpt lat="44.33646810079632" lon="9.7407216740925"><ele>849.4</ele><time>2026-04-11T14:07:59Z</time></trkpt><trkpt lat="44.336571111704004" lon="9.74071839961858"><ele>848.8</ele><time>2026-04-11T14:08:00Z</time></trkpt><trkpt lat="44.33665568271599" lon="9.740741478600247"><ele>848.2</ele><time>2026-04-11T14:08:01Z</time></trkpt><trkpt lat="44.33671856822888" lon="9.740814477508154"><ele>847.6</ele><time>2026-04-11T14:08:02Z</time></trkpt><trkpt lat="44.33670775659321" lon="9.74096381809117"><ele>847.0</ele><time>2026-04-11T14:08:03Z</time></trkpt><trkpt lat="44.336688587503616" lon="9.741115502785036"><ele>847.0</ele><time>2026-04-11T14:08:04Z</time></trkpt><trkpt lat="44.33668344879548" lon="9.741257811425807"><ele>847.0</ele><time>2026-04-11T14:08:05Z</time></trkpt><trkpt lat="44.336730480640995" lon="9.741387250953565"><ele>847.0</ele><time>2026-04-11T14:08:06Z</time></trkpt><trkpt lat="44.33682741393842" lon="9.74149386915238"><ele>847.0</ele><time>2026-04-11T14:08:07Z</time></trkpt><trkpt lat="44.33692563515422" lon="9.741580306029094"><ele>847.0</ele><time>2026-04-11T14:08:08Z</time></trkpt><trkpt lat="44.336988172513976" lon="9.741689877485626"><ele>847.0</ele><time>2026-04-11T14:08:09Z</time></trkpt><trkpt lat="44.336978785048885" lon="9.74184800160618"><ele>847.0</ele><time>2026-04-11T14:08:10Z</time></trkpt><trkpt lat="44.3369557596138" lon="9.742026183668049"><ele>847.0</ele><time>2026-04-11T14:08:11Z</time></trkpt><trkpt lat="44.33690972434982" lon="9.742203709823581"><ele>847.0</ele><time>2026-04-11T14:08:12Z</time></trkpt><trkpt lat="44.33688794771491" lon="9.74236794204863"><ele>847.4000000000001</ele><time>2026-04-11T14:08:13Z</time></trkpt><trkpt lat="44.33686859680332" lon="9.742521392064642"><ele>847.8000000000001</ele><time>2026-04-11T14:08:14Z</time></trkpt><trkpt lat="44.33688653749117" lon="9.742629535718557"><ele>848.2</ele><time>2026-04-11T14:08:15Z</time></trkpt><trkpt lat="44.33695604960526" lon="9.742723834992733"><ele>848.6</ele><time>2026-04-11T14:08:16Z</time></trkpt><trkpt lat="44.33706635061497" lon="9.742770345313751"><ele>849.0</ele><time>2026-04-11T14:08:17Z</time></trkpt><trkpt lat="44.337197740656265" lon="9.742797218105856"><ele>845.75</ele><time>2026-04-11T14:08:18Z</time></trkpt><trkpt lat="44.337338001208906" lon="9.742825660371114"><ele>842.5</ele><time>2026-04-11T14:08:19Z</time></trkpt><trkpt lat="44.337460195096654" lon="9.742854743352016"><ele>839.25</ele><time>2026-04-11T14:08:20Z</time></trkpt><trkpt lat="44.33760197329896" lon="9.74289184814787"><ele>836.0</ele><time>2026-04-11T14:08:21Z</time></trkpt><trkpt lat="44.33776350284729" lon="9.742922271044538"><ele>836.0</ele><time>2026-04-11T14:08:22Z</time></trkpt><trkpt lat="44.337832570821575" lon="9.742876211005202"><ele>836.0</ele><time>2026-04-11T14:08:23Z</time></trkpt><trkpt lat="44.33793848509981" lon="9.74284430674975"><ele>836.0</ele><time>2026-04-11T14:08:24Z</time></trkpt><trkpt lat="44.338054959272995" lon="9.742783680824406"><ele>836.0</ele><time>2026-04-11T14:08:25Z</time></trkpt><trkpt lat="44.3381695673194" lon="9.742716458390491"><ele>836.0</ele><time>2026-04-11T14:08:26Z</time></trkpt><trkpt lat="44.338287716957794" lon="9.742647324786722"><ele>834.6666666666667</ele><time>2026-04-11T14:08:27Z</time></trkpt><trkpt lat="44.33840148292827" lon="9.742625811256492"><ele>833.3333333333334</ele><time>2026-04-11T14:08:28Z</time></trkpt><trkpt lat="44.3384872763933" lon="9.742617625558184"><ele>832.0</ele><time>2026-04-11T14:08:29Z</time></trkpt><trkpt lat="44.3385504329144" lon="9.742648976147617"><ele>830.6666666666667</ele><time>2026-04-11T14:08:30Z</time></trkpt><trkpt lat="44.33860390498666" lon="9.742708486809622"><ele>829.3333333333334</ele><time>2026-04-11T14:08:31Z</time></trkpt><trkpt lat="44.338695966905625" lon="9.742776992913013"><ele>828.0</ele><time>2026-04-11T14:08:32Z</time></trkpt><trkpt lat="44.33877829491779" lon="9.742845349328164"><ele>828.0</ele><time>2026-04-11T14:08:33Z</time></trkpt><trkpt lat="44.338869292991355" lon="9.742845020110693"><ele>828.0</ele><time>2026-04-11T14:08:34Z</time></trkpt><trkpt lat="44.33896166001202" lon="9.742782603356721"><ele>828.0</ele><time>2026-04-11T14:08:35Z</time></trkpt><trkpt lat="44.33905311063687" lon="9.742669523438284"><ele>828.0</ele><time>2026-04-11T14:08:36Z</time></trkpt><trkpt lat="44.339131911838265" lon="9.742547118842042"><ele>828.0</ele><time>2026-04-11T14:08:37Z</time></trkpt><trkpt lat="44.33920983053789" lon="9.742436364440112"><ele>825.2</ele><time>2026-04-11T14:08:38Z</time></trkpt><trkpt lat="44.339296194663206" lon="9.742339896764468"><ele>822.4</ele><time>2026-04-11T14:08:39Z</time></trkpt><trkpt lat="44.33937553607628" lon="9.742233211489621"><ele>819.6</ele><time>2026-04-11T14:08:40Z</time></trkpt><trkpt lat="44.33945767024178" lon="9.742122770862562"><ele>816.8000000000001</ele><time>2026-04-11T14:08:41Z</time></trkpt><trkpt lat="44.339542209036956" lon="9.742020146721721"><ele>814.0</ele><time>2026-04-11T14:08:42Z</time></trkpt><trkpt lat="44.33964179357675" lon="9.741941895959325"><ele>812.5</ele><time>2026-04-11T14:08:43Z</time></trkpt><trkpt lat="44.33975478580623" lon="9.741874213419784"><ele>811.0</ele><time>2026-04-11T14:08:44Z</time></trkpt><trkpt lat="44.339852476575295" lon="9.741772805439478"><ele>809.5</ele><time>2026-04-11T14:08:45Z</time></trkpt><trkpt lat="44.33994738717194" lon="9.741645232787794"><ele>808.0</ele><time>2026-04-11T14:08:46Z</time></trkpt><trkpt lat="44.34001891321393" lon="9.741476795760454"><ele>808.0</ele><time>2026-04-11T14:08:47Z</time></trkpt><trkpt lat="44.34008816341944" lon="9.741383162308729"><ele>808.0</ele><time>2026-04-11T14:08:48Z</time></trkpt><trkpt lat="44.34016582421923" lon="9.74131375077136"><ele>808.0</ele><time>2026-04-11T14:08:49Z</time></trkpt><trkpt lat="44.340267934864514" lon="9.741322105440396"><ele>808.0</ele><time>2026-04-11T14:08:50Z</time></trkpt><trkpt lat="44.34036951596914" lon="9.741410692665792"><ele>808.0</ele><time>2026-04-11T14:08:51Z</time></trkpt><trkpt lat="44.3404754311196" lon="9.741522290075388"><ele>805.5</ele><time>2026-04-11T14:08:52Z</time></trkpt><trkpt lat="44.34059802402912" lon="9.741625099704986"><ele>803.0</ele><time>2026-04-11T14:08:53Z</time></trkpt><trkpt lat="44.34070458029638" lon="9.741719276356124"><ele>800.5</ele><time>2026-04-11T14:08:54Z</time></trkpt><trkpt lat="44.340803166107705" lon="9.741813604633005"><ele>798.0</ele><time>2026-04-11T14:08:54.999Z</time></trkpt><trkpt lat="44.34089451126111" lon="9.741919422509543"><ele>798.0</ele><time>2026-04-11T14:08:55.999Z</time></trkpt><trkpt lat="44.34095930589851" lon="9.742037813216863"><ele>798.0</ele><time>2026-04-11T14:08:56.999Z</time></trkpt><trkpt lat="44.3409620258251" lon="9.742183784276419"><ele>798.0</ele><time>2026-04-11T14:08:57.999Z</time></trkpt><trkpt lat="44.34096210930133" lon="9.742334035250067"><ele>798.0</ele><time>2026-04-11T14:08:58.999Z</time></trkpt><trkpt lat="44.340923621427365" lon="9.74250238856999"><ele>798.0</ele><time>2026-04-11T14:08:59.999Z</time></trkpt><trkpt lat="44.340883622518874" lon="9.742672602794524"><ele>797.8</ele><time>2026-04-11T14:09:00.999Z</time></trkpt><trkpt lat="44.34085022615156" lon="9.742847768386453"><ele>797.5999999999999</ele><time>2026-04-11T14:09:01.999Z</time></trkpt><trkpt lat="44.34083343006708" lon="9.743005254150239"><ele>797.4000000000001</ele><time>2026-04-11T14:09:02.999Z</time></trkpt><trkpt lat="44.34083598550708" lon="9.743143381114535"><ele>797.2</ele><time>2026-04-11T14:09:03.999Z</time></trkpt><trkpt lat="44.3408890289012" lon="9.7432588298309"><ele>797.0</ele><time>2026-04-11T14:09:04.999Z</time></trkpt><trkpt lat="44.34098505623238" lon="9.743363412991538"><ele>797.0</ele><time>2026-04-11T14:09:05.999Z</time></trkpt><trkpt lat="44.3410940542749" lon="9.743463612638127"><ele>797.0</ele><time>2026-04-11T14:09:06.999Z</time></trkpt><trkpt lat="44.341181409816464" lon="9.743588298355998"><ele>797.0</ele><time>2026-04-11T14:09:07.999Z</time></trkpt><trkpt lat="44.341255377810164" lon="9.743726203699069"><ele>797.0</ele><time>2026-04-11T14:09:08.999Z</time></trkpt><trkpt lat="44.34132813301655" lon="9.743857357634951"><ele>794.25</ele><time>2026-04-11T14:09:09.999Z</time></trkpt><trkpt lat="44.34141614692073" lon="9.743960927424862"><ele>791.5</ele><time>2026-04-11T14:09:10.999Z</time></trkpt><trkpt lat="44.34151790242032" lon="9.744016382276655"><ele>788.75</ele><time>2026-04-11T14:09:11.999Z</time></trkpt><trkpt lat="44.34162733517517" lon="9.744024296803302"><ele>786.0</ele><time>2026-04-11T14:09:12.999Z</time></trkpt><trkpt lat="44.34174548600031" lon="9.743994187920064"><ele>786.0</ele><time>2026-04-11T14:09:13.999Z</time></trkpt><trkpt lat="44.34185875840916" lon="9.743929111903709"><ele>786.0</ele><time>2026-04-11T14:09:14.999Z</time></trkpt><trkpt lat="44.34195601970655" lon="9.743828257887989"><ele>786.0</ele><time>2026-04-11T14:09:15.999Z</time></trkpt><trkpt lat="44.34203872655115" lon="9.743702497642309"><ele>786.0</ele><time>2026-04-11T14:09:16.999Z</time></trkpt><trkpt lat="44.34208988248022" lon="9.74352977656215"><ele>783.8</ele><time>2026-04-11T14:09:17.999Z</time></trkpt><trkpt lat="44.34217313747444" lon="9.743403206979705"><ele>781.5999999999999</ele><time>2026-04-11T14:09:18.999Z</time></trkpt><trkpt lat="44.342240021319846" lon="9.74327379117502"><ele>779.4</ele><time>2026-04-11T14:09:19.999Z</time></trkpt><trkpt lat="44.34230970060109" lon="9.74315343656681"><ele>777.2</ele><time>2026-04-11T14:09:20.999Z</time></trkpt><trkpt lat="44.34238494893077" lon="9.743060798719295"><ele>775.0</ele><time>2026-04-11T14:09:21.999Z</time></trkpt><trkpt lat="44.34246619449487" lon="9.74300389014659"><ele>774.25</ele><time>2026-04-11T14:09:22.999Z</time></trkpt><trkpt lat="44.34256190438399" lon="9.743047120517614"><ele>773.5</ele><time>2026-04-11T14:09:23.999Z</time></trkpt><trkpt lat="44.34267553095276" lon="9.743106807806175"><ele>772.75</ele><time>2026-04-11T14:09:24.999Z</time></trkpt><trkpt lat="44.342789929952694" lon="9.74318018969342"><ele>772.0</ele><time>2026-04-11T14:09:25.999Z</time></trkpt><trkpt lat="44.34289798276364" lon="9.743230824580909"><ele>772.0</ele><time>2026-04-11T14:09:26.999Z</time></trkpt><trkpt lat="44.3430080303822" lon="9.74324804231053"><ele>772.0</ele><time>2026-04-11T14:09:27.999Z</time></trkpt><trkpt lat="44.3431132793177" lon="9.74319065641353"><ele>772.0</ele><time>2026-04-11T14:09:28.999Z</time></trkpt><trkpt lat="44.34320374906176" lon="9.743076838506001"><ele>772.0</ele><time>2026-04-11T14:09:29.999Z</time></trkpt><trkpt lat="44.34328994682269" lon="9.742948465852006"><ele>770.75</ele><time>2026-04-11T14:09:30.999Z</time></trkpt><trkpt lat="44.34336837987667" lon="9.742814220538575"><ele>769.5</ele><time>2026-04-11T14:09:31.999Z</time></trkpt><trkpt lat="44.34344437557487" lon="9.74268118917768"><ele>768.25</ele><time>2026-04-11T14:09:32.999Z</time></trkpt><trkpt lat="44.3435196554812" lon="9.742548797113304"><ele>767.0</ele><time>2026-04-11T14:09:33.999Z</time></trkpt><trkpt lat="44.343594178775845" lon="9.742425725230621"><ele>766.0</ele><time>2026-04-11T14:09:34.999Z</time></trkpt><trkpt lat="44.34367034326873" lon="9.742320713071297"><ele>765.0</ele><time>2026-04-11T14:09:35.999Z</time></trkpt><trkpt lat="44.34375076748731" lon="9.74221095407805"><ele>764.0</ele><time>2026-04-11T14:09:36.999Z</time></trkpt><trkpt lat="44.34388028903458" lon="9.742275660021736"><ele>763.0</ele><time>2026-04-11T14:09:37.999Z</time></trkpt><trkpt lat="44.34401506239458" lon="9.742261748781281"><ele>761.75</ele><time>2026-04-11T14:09:38.999Z</time></trkpt><trkpt lat="44.34413300097481" lon="9.74227883851817"><ele>760.5</ele><time>2026-04-11T14:09:39.999Z</time></trkpt><trkpt lat="44.344237497747805" lon="9.742293507136377"><ele>759.25</ele><time>2026-04-11T14:09:40.999Z</time></trkpt><trkpt lat="44.34434321696744" lon="9.742362504601319"><ele>758.0</ele><time>2026-04-11T14:09:42Z</time></trkpt><trkpt lat="44.34443102630468" lon="9.74246805324094"><ele>758.0</ele><time>2026-04-11T14:09:43Z</time></trkpt><trkpt lat="44.344485098218414" lon="9.742624484240554"><ele>758.0</ele><time>2026-04-11T14:09:44Z</time></trkpt><trkpt lat="44.344527219078266" lon="9.742792479162453"><ele>758.0</ele><time>2026-04-11T14:09:45Z</time></trkpt><trkpt lat="44.34455686411102" lon="9.74297027359368"><ele>758.0</ele><time>2026-04-11T14:09:46Z</time></trkpt><trkpt lat="44.34460206849972" lon="9.743130978201966"><ele>757.75</ele><time>2026-04-11T14:09:47Z</time></trkpt><trkpt lat="44.34466775668566" lon="9.743269725181566"><ele>757.5</ele><time>2026-04-11T14:09:48Z</time></trkpt><trkpt lat="44.34475806245651" lon="9.743392470094419"><ele>757.25</ele><time>2026-04-11T14:09:49Z</time></trkpt><trkpt lat="44.344864555831634" lon="9.743498871795836"><ele>757.0</ele><time>2026-04-11T14:09:50Z</time></trkpt><trkpt lat="44.34495504756751" lon="9.7435997408008"><ele>753.8</ele><time>2026-04-11T14:09:51Z</time></trkpt><trkpt lat="44.34501511205605" lon="9.74371099997323"><ele>750.6</ele><time>2026-04-11T14:09:52Z</time></trkpt><trkpt lat="44.34501236840753" lon="9.7438399571041"><ele>747.4</ele><time>2026-04-11T14:09:53Z</time></trkpt><trkpt lat="44.34495509128447" lon="9.743977749288197"><ele>744.1999999999999</ele><time>2026-04-11T14:09:54Z</time></trkpt><trkpt lat="44.344847592486246" lon="9.744085260528033"><ele>741.0</ele><time>2026-04-11T14:09:55Z</time></trkpt><trkpt lat="44.34472598224115" lon="9.744175604252439"><ele>745.0</ele><time>2026-04-11T14:09:56Z</time></trkpt><trkpt lat="44.3446054038134" lon="9.744243203923615"><ele>749.0</ele><time>2026-04-11T14:09:57Z</time></trkpt><trkpt lat="44.34449621609187" lon="9.744307969257516"><ele>753.0</ele><time>2026-04-11T14:09:58Z</time></trkpt><trkpt lat="44.344416763165576" lon="9.744404820635754"><ele>757.0</ele><time>2026-04-11T14:09:59Z</time></trkpt><trkpt lat="44.34438397290802" lon="9.74454441299427"><ele>757.0</ele><time>2026-04-11T14:10:00Z</time></trkpt><trkpt lat="44.34441133905746" lon="9.744713500142065"><ele>757.0</ele><time>2026-04-11T14:10:01Z</time></trkpt><trkpt lat="44.34447551359984" lon="9.744893097892525"><ele>757.0</ele><time>2026-04-11T14:10:02Z</time></trkpt><trkpt lat="44.344530210166525" lon="9.745076491304431"><ele>757.0</ele><time>2026-04-11T14:10:03Z</time></trkpt><trkpt lat="44.344575967346955" lon="9.745256466524923"><ele>756.25</ele><time>2026-04-11T14:10:04Z</time></trkpt><trkpt lat="44.34462795795603" lon="9.745442165844864"><ele>755.5</ele><time>2026-04-11T14:10:05Z</time></trkpt><trkpt lat="44.344675952942886" lon="9.745623520381045"><ele>754.75</ele><time>2026-04-11T14:10:06Z</time></trkpt><trkpt lat="44.344726197265594" lon="9.745809361670336"><ele>754.0</ele><time>2026-04-11T14:10:07Z</time></trkpt><trkpt lat="44.344778921020946" lon="9.745984605954506"><ele>749.0</ele><time>2026-04-11T14:10:08Z</time></trkpt><trkpt lat="44.34483122921886" lon="9.746171457071013"><ele>744.0</ele><time>2026-04-11T14:10:09Z</time></trkpt><trkpt lat="44.34487797302686" lon="9.746362507671929"><ele>739.0</ele><time>2026-04-11T14:10:10Z</time></trkpt><trkpt lat="44.34492258969301" lon="9.746554156591204"><ele>734.0</ele><time>2026-04-11T14:10:11Z</time></trkpt><trkpt lat="44.34496885633281" lon="9.746743542427675"><ele>733.75</ele><time>2026-04-11T14:10:12Z</time></trkpt><trkpt lat="44.345013688762165" lon="9.746927367630322"><ele>733.5</ele><time>2026-04-11T14:10:13Z</time></trkpt><trkpt lat="44.34505177029013" lon="9.747094780573265"><ele>733.25</ele><time>2026-04-11T14:10:14Z</time></trkpt><trkpt lat="44.34507557946626" lon="9.747248773553201"><ele>733.0</ele><time>2026-04-11T14:10:15Z</time></trkpt><trkpt lat="44.34507126657801" lon="9.747409509896187"><ele>733.0</ele><time>2026-04-11T14:10:16Z</time></trkpt><trkpt lat="44.345081537946406" lon="9.747575194058877"><ele>733.0</ele><time>2026-04-11T14:10:17Z</time></trkpt><trkpt lat="44.34514211549966" lon="9.747745603265075"><ele>733.0</ele><time>2026-04-11T14:10:18Z</time></trkpt><trkpt lat="44.34523728286134" lon="9.747901283412427"><ele>733.0</ele><time>2026-04-11T14:10:19Z</time></trkpt><trkpt lat="44.34533113179158" lon="9.748030666855955"><ele>733.0</ele><time>2026-04-11T14:10:20Z</time></trkpt><trkpt lat="44.34540589887664" lon="9.748154711698822"><ele>733.0</ele><time>2026-04-11T14:10:21Z</time></trkpt><trkpt lat="44.34545764077703" lon="9.748267694063067"><ele>733.0</ele><time>2026-04-11T14:10:22Z</time></trkpt><trkpt lat="44.34548336667683" lon="9.748402586799441"><ele>733.0</ele><time>2026-04-11T14:10:23Z</time></trkpt><trkpt lat="44.34546420026362" lon="9.748533153894185"><ele>733.0</ele><time>2026-04-11T14:10:24Z</time></trkpt><trkpt lat="44.34540088858261" lon="9.748632905922033"><ele>733.8</ele><time>2026-04-11T14:10:25Z</time></trkpt><trkpt lat="44.34533327283759" lon="9.748734250998865"><ele>734.5999999999999</ele><time>2026-04-11T14:10:26Z</time></trkpt><trkpt lat="44.34528049584755" lon="9.748857481255833"><ele>735.4000000000001</ele><time>2026-04-11T14:10:27Z</time></trkpt><trkpt lat="44.34524182666609" lon="9.74899951451291"><ele>736.2</ele><time>2026-04-11T14:10:28Z</time></trkpt><trkpt lat="44.34523047929199" lon="9.749138517528047"><ele>737.0</ele><time>2026-04-11T14:10:29Z</time></trkpt><trkpt lat="44.3452662623846" lon="9.749280774918448"><ele>736.6</ele><time>2026-04-11T14:10:30Z</time></trkpt><trkpt lat="44.34532001020745" lon="9.749409832519252"><ele>736.2</ele><time>2026-04-11T14:10:31Z</time></trkpt><trkpt lat="44.34536229119695" lon="9.749548535167476"><ele>735.8</ele><time>2026-04-11T14:10:32Z</time></trkpt><trkpt lat="44.34539860413191" lon="9.749694293683085"><ele>735.4</ele><time>2026-04-11T14:10:33Z</time></trkpt><trkpt lat="44.345434328454395" lon="9.74984583317788"><ele>735.0</ele><time>2026-04-11T14:10:34Z</time></trkpt><trkpt lat="44.34547650085399" lon="9.749994260043596"><ele>735.0</ele><time>2026-04-11T14:10:35Z</time></trkpt><trkpt lat="44.34551621936297" lon="9.750139401384027"><ele>735.0</ele><time>2026-04-11T14:10:36Z</time></trkpt><trkpt lat="44.34555373542224" lon="9.750284081191543"><ele>735.0</ele><time>2026-04-11T14:10:37Z</time></trkpt><trkpt lat="44.34558699027166" lon="9.750430218841036"><ele>735.0</ele><time>2026-04-11T14:10:38Z</time></trkpt><trkpt lat="44.34561804699111" lon="9.750567895659952"><ele>735.0</ele><time>2026-04-11T14:10:39Z</time></trkpt><trkpt lat="44.345639510611655" lon="9.750705537445548"><ele>733.6</ele><time>2026-04-11T14:10:40Z</time></trkpt><trkpt lat="44.345652019210824" lon="9.750844915540068"><ele>732.2</ele><time>2026-04-11T14:10:41Z</time></trkpt><trkpt lat="44.34565512006525" lon="9.750982776851238"><ele>730.8</ele><time>2026-04-11T14:10:42Z</time></trkpt><trkpt lat="44.345656181927374" lon="9.751123963237134"><ele>729.4</ele><time>2026-04-11T14:10:43Z</time></trkpt><trkpt lat="44.345640710517" lon="9.751254105692265"><ele>728.0</ele><time>2026-04-11T14:10:44Z</time></trkpt><trkpt lat="44.3456114917429" lon="9.751368755299751"><ele>728.0</ele><time>2026-04-11T14:10:45Z</time></trkpt><trkpt lat="44.345585632530494" lon="9.751487332850061"><ele>728.0</ele><time>2026-04-11T14:10:46Z</time></trkpt><trkpt lat="44.34555741291564" lon="9.751584248132328"><ele>728.0</ele><time>2026-04-11T14:10:47Z</time></trkpt><trkpt lat="44.34551213080116" lon="9.751667492766128"><ele>728.0</ele><time>2026-04-11T14:10:48Z</time></trkpt><trkpt lat="44.34543584908711" lon="9.751710889610507"><ele>728.0</ele><time>2026-04-11T14:10:49Z</time></trkpt><trkpt lat="44.345335046578676" lon="9.751722425713961"><ele>728.0</ele><time>2026-04-11T14:10:50Z</time></trkpt><trkpt lat="44.34523036040816" lon="9.75171025251537"><ele>727.8</ele><time>2026-04-11T14:10:51Z</time></trkpt><trkpt lat="44.345115695466625" lon="9.751705529095515"><ele>727.5999999999999</ele><time>2026-04-11T14:10:52Z</time></trkpt><trkpt lat="44.345013847524946" lon="9.751702565012002"><ele>727.4000000000001</ele><time>2026-04-11T14:10:53Z</time></trkpt><trkpt lat="44.34492499656973" lon="9.751708126655481"><ele>727.2</ele><time>2026-04-11T14:10:54Z</time></trkpt><trkpt lat="44.344844544449515" lon="9.751728577268231"><ele>727.0</ele><time>2026-04-11T14:10:55Z</time></trkpt><trkpt lat="44.34477843711754" lon="9.751793532872332"><ele>729.4000000000001</ele><time>2026-04-11T14:10:55.999Z</time></trkpt><trkpt lat="44.34472606570311" lon="9.751912815880637"><ele>731.8000000000001</ele><time>2026-04-11T14:10:56.999Z</time></trkpt><trkpt lat="44.34471241348686" lon="9.7520671055453"><ele>734.2</ele><time>2026-04-11T14:10:57.999Z</time></trkpt><trkpt lat="44.34472594804758" lon="9.752239298257667"><ele>736.6</ele><time>2026-04-11T14:10:58.999Z</time></trkpt><trkpt lat="44.34472259709678" lon="9.752389970356028"><ele>739.0</ele><time>2026-04-11T14:10:59.999Z</time></trkpt><trkpt lat="44.344648674270516" lon="9.752517671913035"><ele>739.0</ele><time>2026-04-11T14:11:00.999Z</time></trkpt><trkpt lat="44.34457358787153" lon="9.752659091348585"><ele>739.0</ele><time>2026-04-11T14:11:01.999Z</time></trkpt><trkpt lat="44.34447703221286" lon="9.75277137939993"><ele>739.0</ele><time>2026-04-11T14:11:02.999Z</time></trkpt><trkpt lat="44.34438978878291" lon="9.752914135679983"><ele>739.0</ele><time>2026-04-11T14:11:03.999Z</time></trkpt><trkpt lat="44.34428087804273" lon="9.753096602767876"><ele>734.25</ele><time>2026-04-11T14:11:04.999Z</time></trkpt><trkpt lat="44.34423924375474" lon="9.753204194270745"><ele>729.5</ele><time>2026-04-11T14:11:05.999Z</time></trkpt><trkpt lat="44.34416338319444" lon="9.7533611648459"><ele>724.75</ele><time>2026-04-11T14:11:06.999Z</time></trkpt><trkpt lat="44.34407857342184" lon="9.75348142898529"><ele>720.0</ele><time>2026-04-11T14:11:07.999Z</time></trkpt><trkpt lat="44.344003646824845" lon="9.753587714396494"><ele>716.0</ele><time>2026-04-11T14:11:08.999Z</time></trkpt><trkpt lat="44.343824649669266" lon="9.753862771335855"><ele>712.0</ele><time>2026-04-11T14:11:10.999Z</time></trkpt><trkpt lat="44.343738225370544" lon="9.753979032066358"><ele>708.0</ele><time>2026-04-11T14:11:11.999Z</time></trkpt><trkpt lat="44.34365018959464" lon="9.75408792560389"><ele>708.0</ele><time>2026-04-11T14:11:12.999Z</time></trkpt><trkpt lat="44.343541593351304" lon="9.754143337901493"><ele>708.0</ele><time>2026-04-11T14:11:13.999Z</time></trkpt><trkpt lat="44.34342773869905" lon="9.754167103855176"><ele>708.0</ele><time>2026-04-11T14:11:14.999Z</time></trkpt><trkpt lat="44.343311914071265" lon="9.754140318907204"><ele>708.0</ele><time>2026-04-11T14:11:15.999Z</time></trkpt><trkpt lat="44.34319239457178" lon="9.754107517493866"><ele>708.0</ele><time>2026-04-11T14:11:16.999Z</time></trkpt><trkpt lat="44.3430714648923" lon="9.754070761673045"><ele>708.0</ele><time>2026-04-11T14:11:17.999Z</time></trkpt><trkpt lat="44.34294817691278" lon="9.754032201599426"><ele>708.0</ele><time>2026-04-11T14:11:18.999Z</time></trkpt><trkpt lat="44.34283565656364" lon="9.754022118078495"><ele>708.0</ele><time>2026-04-11T14:11:19.999Z</time></trkpt><trkpt lat="44.342748499745866" lon="9.753996463066299"><ele>707.3333333333334</ele><time>2026-04-11T14:11:20.999Z</time></trkpt><trkpt lat="44.342666799907775" lon="9.754006729028125"><ele>706.6666666666666</ele><time>2026-04-11T14:11:21.999Z</time></trkpt><trkpt lat="44.342596936543536" lon="9.754041044999001"><ele>706.0</ele><time>2026-04-11T14:11:22.999Z</time></trkpt><trkpt lat="44.34254825755129" lon="9.754115459105577"><ele>705.3333333333333</ele><time>2026-04-11T14:11:23.999Z</time></trkpt><trkpt lat="44.34254498748104" lon="9.754223304447518"><ele>704.6666666666666</ele><time>2026-04-11T14:11:24.999Z</time></trkpt><trkpt lat="44.342574242699406" lon="9.754353321844363"><ele>704.0</ele><time>2026-04-11T14:11:25.999Z</time></trkpt><trkpt lat="44.34264186905185" lon="9.754482072799373"><ele>704.0</ele><time>2026-04-11T14:11:26.999Z</time></trkpt><trkpt lat="44.342713962741676" lon="9.754651003338804"><ele>704.0</ele><time>2026-04-11T14:11:27.999Z</time></trkpt><trkpt lat="44.34273568734917" lon="9.754851548774306"><ele>704.0</ele><time>2026-04-11T14:11:28.999Z</time></trkpt><trkpt lat="44.342744657673464" lon="9.75507878223943"><ele>704.0</ele><time>2026-04-11T14:11:29.999Z</time></trkpt><trkpt lat="44.3427616247848" lon="9.755271178317923"><ele>701.5</ele><time>2026-04-11T14:11:30.999Z</time></trkpt><trkpt lat="44.342765201162884" lon="9.755440161469105"><ele>699.0</ele><time>2026-04-11T14:11:31.999Z</time></trkpt><trkpt lat="44.3427476803939" lon="9.755584176622797"><ele>696.5</ele><time>2026-04-11T14:11:32.999Z</time></trkpt><trkpt lat="44.34270143027582" lon="9.755720638505188"><ele>694.0</ele><time>2026-04-11T14:11:33.999Z</time></trkpt><trkpt lat="44.34263967911989" lon="9.75587959280733"><ele>694.0</ele><time>2026-04-11T14:11:34.999Z</time></trkpt><trkpt lat="44.3425598914454" lon="9.756034712334605"><ele>694.0</ele><time>2026-04-11T14:11:35.999Z</time></trkpt><trkpt lat="44.34249181677985" lon="9.75616413950929"><ele>694.0</ele><time>2026-04-11T14:11:36.999Z</time></trkpt><trkpt lat="44.34235528365429" lon="9.756456351015514"><ele>693.0</ele><time>2026-04-11T14:11:38.999Z</time></trkpt><trkpt lat="44.34230421247248" lon="9.756582942826217"><ele>692.0</ele><time>2026-04-11T14:11:39.999Z</time></trkpt><trkpt lat="44.34224949828435" lon="9.75669917349371"><ele>691.0</ele><time>2026-04-11T14:11:40.999Z</time></trkpt><trkpt lat="44.34217931482111" lon="9.756824401656806"><ele>690.0</ele><time>2026-04-11T14:11:41.999Z</time></trkpt><trkpt lat="44.3420876654994" lon="9.756944621578034"><ele>689.0</ele><time>2026-04-11T14:11:42.999Z</time></trkpt><trkpt lat="44.341991779338976" lon="9.75706480871279"><ele>689.0</ele><time>2026-04-11T14:11:43.999Z</time></trkpt><trkpt lat="44.341903151209955" lon="9.75718764655202"><ele>689.0</ele><time>2026-04-11T14:11:44.999Z</time></trkpt><trkpt lat="44.341843004497036" lon="9.757337952223008"><ele>689.0</ele><time>2026-04-11T14:11:45.999Z</time></trkpt><trkpt lat="44.341789582279375" lon="9.757507496663248"><ele>689.0</ele><time>2026-04-11T14:11:46.999Z</time></trkpt><trkpt lat="44.34173561466095" lon="9.75765554275694"><ele>686.75</ele><time>2026-04-11T14:11:48Z</time></trkpt><trkpt lat="44.341695631825274" lon="9.757799934084359"><ele>684.5</ele><time>2026-04-11T14:11:49Z</time></trkpt><trkpt lat="44.34167101875697" lon="9.757951374816296"><ele>682.25</ele><time>2026-04-11T14:11:50Z</time></trkpt><trkpt lat="44.34163507968337" lon="9.75809555218196"><ele>680.0</ele><time>2026-04-11T14:11:51Z</time></trkpt><trkpt lat="44.34156203846337" lon="9.75822653265908"><ele>680.0</ele><time>2026-04-11T14:11:52Z</time></trkpt><trkpt lat="44.341480642580706" lon="9.758356806818341"><ele>680.0</ele><time>2026-04-11T14:11:53Z</time></trkpt><trkpt lat="44.341387239085336" lon="9.758499683076275"><ele>680.0</ele><time>2026-04-11T14:11:54Z</time></trkpt><trkpt lat="44.34131994163057" lon="9.758655954525851"><ele>680.0</ele><time>2026-04-11T14:11:55Z</time></trkpt><trkpt lat="44.34125191751528" lon="9.758807736522806"><ele>680.0</ele><time>2026-04-11T14:11:56Z</time></trkpt><trkpt lat="44.34120645091948" lon="9.758974857371156"><ele>680.0</ele><time>2026-04-11T14:11:57Z</time></trkpt><trkpt lat="44.34117940443808" lon="9.75910078297177"><ele>680.0</ele><time>2026-04-11T14:11:58Z</time></trkpt><trkpt lat="44.34115115207795" lon="9.759222014430597"><ele>680.0</ele><time>2026-04-11T14:11:59Z</time></trkpt><trkpt lat="44.34112763080886" lon="9.759342013312834"><ele>680.0</ele><time>2026-04-11T14:12:00Z</time></trkpt><trkpt lat="44.341098274994316" lon="9.759468616408771"><ele>680.0</ele><time>2026-04-11T14:12:01Z</time></trkpt><trkpt lat="44.34105732602414" lon="9.759594795264984"><ele>680.0</ele><time>2026-04-11T14:12:02Z</time></trkpt><trkpt lat="44.3410284446004" lon="9.759712778221566"><ele>680.0</ele><time>2026-04-11T14:12:03Z</time></trkpt><trkpt lat="44.34100205892155" lon="9.759813534413535"><ele>680.0</ele><time>2026-04-11T14:12:04Z</time></trkpt><trkpt lat="44.34096910588682" lon="9.759924975027248"><ele>680.0</ele><time>2026-04-11T14:12:05Z</time></trkpt><trkpt lat="44.34092816411515" lon="9.760033139318589"><ele>680.0</ele><time>2026-04-11T14:12:06Z</time></trkpt><trkpt lat="44.340885705342906" lon="9.760153528253245"><ele>680.0</ele><time>2026-04-11T14:12:07Z</time></trkpt><trkpt lat="44.34084717161932" lon="9.760270038618089"><ele>680.0</ele><time>2026-04-11T14:12:08Z</time></trkpt><trkpt lat="44.340806830439334" lon="9.760381501491526"><ele>680.0</ele><time>2026-04-11T14:12:09Z</time></trkpt><trkpt lat="44.34077299857745" lon="9.760481633483316"><ele>680.0</ele><time>2026-04-11T14:12:10Z</time></trkpt><trkpt lat="44.340767071704484" lon="9.760581797337336"><ele>680.0</ele><time>2026-04-11T14:12:11Z</time></trkpt><trkpt lat="44.340769475441085" lon="9.760696059247007"><ele>680.0</ele><time>2026-04-11T14:12:12Z</time></trkpt><trkpt lat="44.34082647064444" lon="9.760819889433424"><ele>680.0</ele><time>2026-04-11T14:12:13Z</time></trkpt><trkpt lat="44.34085336227049" lon="9.76095731334627"><ele>680.0</ele><time>2026-04-11T14:12:14Z</time></trkpt><trkpt lat="44.34090865601841" lon="9.761076690557367"><ele>680.0</ele><time>2026-04-11T14:12:15Z</time></trkpt><trkpt lat="44.340938421296535" lon="9.761192317267756"><ele>680.0</ele><time>2026-04-11T14:12:16Z</time></trkpt><trkpt lat="44.34097908729245" lon="9.761287879236047"><ele>680.0</ele><time>2026-04-11T14:12:17Z</time></trkpt><trkpt lat="44.341020963571985" lon="9.761377364007862"><ele>680.0</ele><time>2026-04-11T14:12:18Z</time></trkpt><trkpt lat="44.341072824876974" lon="9.761439775423343"><ele>679.6</ele><time>2026-04-11T14:12:19Z</time></trkpt><trkpt lat="44.34114741328773" lon="9.761465900176495"><ele>679.2</ele><time>2026-04-11T14:12:21Z</time></trkpt><trkpt lat="44.34124094108421" lon="9.761402173415712"><ele>678.8</ele><time>2026-04-11T14:12:25Z</time></trkpt><trkpt lat="44.34130960318161" lon="9.761272706440845"><ele>678.4</ele><time>2026-04-11T14:12:27Z</time></trkpt><trkpt lat="44.3413535467158" lon="9.7611777694727"><ele>678.0</ele><time>2026-04-11T14:12:28Z</time></trkpt><trkpt lat="44.341416627875084" lon="9.761115467160847"><ele>676.6666666666666</ele><time>2026-04-11T14:12:29Z</time></trkpt><trkpt lat="44.341464458295164" lon="9.761017899383216"><ele>675.3333333333334</ele><time>2026-04-11T14:12:30Z</time></trkpt><trkpt lat="44.34151349637915" lon="9.76094587196083"><ele>674.0</ele><time>2026-04-11T14:12:31Z</time></trkpt><trkpt lat="44.34156349302187" lon="9.760847250669388"><ele>672.6666666666667</ele><time>2026-04-11T14:12:32Z</time></trkpt><trkpt lat="44.34157068922551" lon="9.760728824584262"><ele>671.3333333333334</ele><time>2026-04-11T14:12:33Z</time></trkpt><trkpt lat="44.34156659486142" lon="9.760571588738426"><ele>670.0</ele><time>2026-04-11T14:12:34Z</time></trkpt><trkpt lat="44.34158491053295" lon="9.76043552472153"><ele>670.0</ele><time>2026-04-11T14:12:35Z</time></trkpt><trkpt lat="44.34158356240039" lon="9.76029456477292"><ele>670.0</ele><time>2026-04-11T14:12:36Z</time></trkpt><trkpt lat="44.341588807978226" lon="9.760161344058691"><ele>670.0</ele><time>2026-04-11T14:12:37Z</time></trkpt><trkpt lat="44.34160492320198" lon="9.760021119231835"><ele>670.0</ele><time>2026-04-11T14:12:38Z</time></trkpt><trkpt lat="44.34163015053022" lon="9.759883711926314"><ele>670.0</ele><time>2026-04-11T14:12:39Z</time></trkpt><trkpt lat="44.34166365738087" lon="9.75976291825326"><ele>670.0</ele><time>2026-04-11T14:12:40Z</time></trkpt><trkpt lat="44.34171072180975" lon="9.759647230344145"><ele>670.0</ele><time>2026-04-11T14:12:41Z</time></trkpt><trkpt lat="44.341769730849286" lon="9.759525401302263"><ele>670.0</ele><time>2026-04-11T14:12:42Z</time></trkpt><trkpt lat="44.34183290231525" lon="9.759410620286237"><ele>670.0</ele><time>2026-04-11T14:12:43Z</time></trkpt><trkpt lat="44.34192470478507" lon="9.759319940301035"><ele>670.0</ele><time>2026-04-11T14:12:44Z</time></trkpt><trkpt lat="44.342022111953916" lon="9.759224892170334"><ele>671.25</ele><time>2026-04-11T14:12:45Z</time></trkpt><trkpt lat="44.342128355045844" lon="9.759120018561067"><ele>672.5</ele><time>2026-04-11T14:12:46Z</time></trkpt><trkpt lat="44.34223131361167" lon="9.759033779788124"><ele>673.75</ele><time>2026-04-11T14:12:47Z</time></trkpt><trkpt lat="44.34232898049199" lon="9.758945079135978"><ele>675.0</ele><time>2026-04-11T14:12:48Z</time></trkpt><trkpt lat="44.34243246819719" lon="9.758852672904627"><ele>674.0</ele><time>2026-04-11T14:12:49Z</time></trkpt><trkpt lat="44.34253163997566" lon="9.758765544411256"><ele>673.0</ele><time>2026-04-11T14:12:50Z</time></trkpt><trkpt lat="44.34263351892237" lon="9.758677903598148"><ele>672.0</ele><time>2026-04-11T14:12:51Z</time></trkpt><trkpt lat="44.3427387666603" lon="9.758587743711335"><ele>671.0</ele><time>2026-04-11T14:12:52Z</time></trkpt><trkpt lat="44.342841566426884" lon="9.758494912958255"><ele>671.0</ele><time>2026-04-11T14:12:53Z</time></trkpt><trkpt lat="44.3429465497288" lon="9.758405251932272"><ele>671.0</ele><time>2026-04-11T14:12:54Z</time></trkpt><trkpt lat="44.34305119651226" lon="9.758316180773289"><ele>671.0</ele><time>2026-04-11T14:12:55Z</time></trkpt><trkpt lat="44.343156205505224" lon="9.75823067038689"><ele>671.0</ele><time>2026-04-11T14:12:56Z</time></trkpt><trkpt lat="44.34325833837181" lon="9.758143795325603"><ele>668.5</ele><time>2026-04-11T14:12:57Z</time></trkpt><trkpt lat="44.343360414267686" lon="9.758054204389515"><ele>666.0</ele><time>2026-04-11T14:12:58Z</time></trkpt><trkpt lat="44.343459065713894" lon="9.75797003402505"><ele>663.5</ele><time>2026-04-11T14:12:59Z</time></trkpt><trkpt lat="44.34355374865714" lon="9.757865599178826"><ele>661.0</ele><time>2026-04-11T14:13:00Z</time></trkpt><trkpt lat="44.34364194152658" lon="9.75773855617378"><ele>660.25</ele><time>2026-04-11T14:13:01Z</time></trkpt><trkpt lat="44.34372672782562" lon="9.757599021137978"><ele>659.5</ele><time>2026-04-11T14:13:02Z</time></trkpt><trkpt lat="44.343816940787114" lon="9.757456107406488"><ele>658.75</ele><time>2026-04-11T14:13:02.999Z</time></trkpt><trkpt lat="44.34390410143598" lon="9.757327472239815"><ele>658.0</ele><time>2026-04-11T14:13:03.999Z</time></trkpt><trkpt lat="44.34399041123752" lon="9.757214061166422"><ele>658.0</ele><time>2026-04-11T14:13:04.999Z</time></trkpt><trkpt lat="44.34407644624441" lon="9.757125318418883"><ele>658.0</ele><time>2026-04-11T14:13:05.999Z</time></trkpt><trkpt lat="44.34418461295767" lon="9.757105323620307"><ele>658.0</ele><time>2026-04-11T14:13:06.999Z</time></trkpt><trkpt lat="44.34430432079497" lon="9.757058395450127"><ele>658.0</ele><time>2026-04-11T14:13:07.999Z</time></trkpt><trkpt lat="44.344426755743605" lon="9.75705320194967"><ele>658.0</ele><time>2026-04-11T14:13:08.999Z</time></trkpt><trkpt lat="44.34453985077709" lon="9.757039257205157"><ele>658.0</ele><time>2026-04-11T14:13:09.999Z</time></trkpt><trkpt lat="44.3446556827738" lon="9.756989863270277"><ele>658.0</ele><time>2026-04-11T14:13:10.999Z</time></trkpt><trkpt lat="44.34477069479686" lon="9.756918319247909"><ele>658.0</ele><time>2026-04-11T14:13:11.999Z</time></trkpt><trkpt lat="44.34487615823825" lon="9.756824604454312"><ele>657.5</ele><time>2026-04-11T14:13:12.999Z</time></trkpt><trkpt lat="44.344996507437266" lon="9.756717238861377"><ele>657.0</ele><time>2026-04-11T14:13:13.999Z</time></trkpt><trkpt lat="44.34510444895982" lon="9.756599404242571"><ele>656.5</ele><time>2026-04-11T14:13:14.999Z</time></trkpt><trkpt lat="44.3452134946821" lon="9.756506148971734"><ele>656.0</ele><time>2026-04-11T14:13:15.999Z</time></trkpt><trkpt lat="44.34531515658406" lon="9.756413964354742"><ele>656.0</ele><time>2026-04-11T14:13:16.999Z</time></trkpt><trkpt lat="44.345419648113406" lon="9.756374223289948"><ele>656.0</ele><time>2026-04-11T14:13:17.999Z</time></trkpt><trkpt lat="44.3455337451732" lon="9.756437844537833"><ele>656.0</ele><time>2026-04-11T14:13:18.999Z</time></trkpt><trkpt lat="44.34565646187333" lon="9.75650108469275"><ele>656.0</ele><time>2026-04-11T14:13:19.999Z</time></trkpt><trkpt lat="44.345779902225814" lon="9.75657674844489"><ele>655.5</ele><time>2026-04-11T14:13:20.999Z</time></trkpt><trkpt lat="44.34590366519287" lon="9.756661931294685"><ele>655.0</ele><time>2026-04-11T14:13:21.999Z</time></trkpt><trkpt lat="44.34602601842088" lon="9.756743373161285"><ele>654.5</ele><time>2026-04-11T14:13:22.999Z</time></trkpt><trkpt lat="44.34615413966413" lon="9.756831712679567"><ele>654.0</ele><time>2026-04-11T14:13:23.999Z</time></trkpt><trkpt lat="44.34627379684635" lon="9.756912129542416"><ele>650.4000000000001</ele><time>2026-04-11T14:13:24.999Z</time></trkpt><trkpt lat="44.346389147022705" lon="9.756957953177109"><ele>646.8000000000001</ele><time>2026-04-11T14:13:25.999Z</time></trkpt><trkpt lat="44.346498129381516" lon="9.756955413062576"><ele>643.2</ele><time>2026-04-11T14:13:26.999Z</time></trkpt><trkpt lat="44.34660533041067" lon="9.756935059165947"><ele>639.6</ele><time>2026-04-11T14:13:27.999Z</time></trkpt><trkpt lat="44.346703872970906" lon="9.756929547324393"><ele>636.0</ele><time>2026-04-11T14:13:28.999Z</time></trkpt><trkpt lat="44.346790992199544" lon="9.756954174173691"><ele>636.0</ele><time>2026-04-11T14:13:29.999Z</time></trkpt><trkpt lat="44.346880353834834" lon="9.756989956242082"><ele>636.0</ele><time>2026-04-11T14:13:30.999Z</time></trkpt><trkpt lat="44.34697654626912" lon="9.757031380111087"><ele>636.0</ele><time>2026-04-11T14:13:31.999Z</time></trkpt><trkpt lat="44.347070472939365" lon="9.757030654174926"><ele>636.0</ele><time>2026-04-11T14:13:32.999Z</time></trkpt><trkpt lat="44.34716445030243" lon="9.756973564814095"><ele>636.0</ele><time>2026-04-11T14:13:33.999Z</time></trkpt><trkpt lat="44.34723589415759" lon="9.756864570665272"><ele>639.25</ele><time>2026-04-11T14:13:34.999Z</time></trkpt><trkpt lat="44.34725083326626" lon="9.756710476716055"><ele>642.5</ele><time>2026-04-11T14:13:35.999Z</time></trkpt><trkpt lat="44.347240180894424" lon="9.756541020634954"><ele>645.75</ele><time>2026-04-11T14:13:36.999Z</time></trkpt><trkpt lat="44.3472351017956" lon="9.756365941004683"><ele>649.0</ele><time>2026-04-11T14:13:37.999Z</time></trkpt><trkpt lat="44.34724188820267" lon="9.756194081760484"><ele>649.0</ele><time>2026-04-11T14:13:38.999Z</time></trkpt><trkpt lat="44.34730294543561" lon="9.756060453179924"><ele>649.0</ele><time>2026-04-11T14:13:39.999Z</time></trkpt><trkpt lat="44.34739801609478" lon="9.755944397849277"><ele>649.0</ele><time>2026-04-11T14:13:40.999Z</time></trkpt><trkpt lat="44.34752384371977" lon="9.75584580685068"><ele>649.0</ele><time>2026-04-11T14:13:41.999Z</time></trkpt><trkpt lat="44.34766474678652" lon="9.755805328493564"><ele>652.0</ele><time>2026-04-11T14:13:42.999Z</time></trkpt><trkpt lat="44.347793594365655" lon="9.755759732997138"><ele>655.0</ele><time>2026-04-11T14:13:43.999Z</time></trkpt><trkpt lat="44.34789760312033" lon="9.755710559942923"><ele>658.0</ele><time>2026-04-11T14:13:44.999Z</time></trkpt><trkpt lat="44.34797582778711" lon="9.755597428777214"><ele>661.0</ele><time>2026-04-11T14:13:45.999Z</time></trkpt><trkpt lat="44.34802892536409" lon="9.7554455758627"><ele>659.8</ele><time>2026-04-11T14:13:46.999Z</time></trkpt><trkpt lat="44.348098744441856" lon="9.7553344708769"><ele>658.5999999999999</ele><time>2026-04-11T14:13:47.999Z</time></trkpt><trkpt lat="44.34813836466343" lon="9.755241633690712"><ele>657.4</ele><time>2026-04-11T14:13:48.999Z</time></trkpt><trkpt lat="44.348223217063534" lon="9.75524926140937"><ele>656.2</ele><time>2026-04-11T14:13:49.999Z</time></trkpt><trkpt lat="44.348298670497684" lon="9.755287050516877"><ele>655.0</ele><time>2026-04-11T14:13:50.999Z</time></trkpt><trkpt lat="44.34833756466521" lon="9.755439389032668"><ele>655.0</ele><time>2026-04-11T14:13:51.999Z</time></trkpt><trkpt lat="44.3483711282044" lon="9.75560065180444"><ele>655.0</ele><time>2026-04-11T14:13:52.999Z</time></trkpt><trkpt lat="44.34833167586793" lon="9.755787659366797"><ele>655.0</ele><time>2026-04-11T14:13:54Z</time></trkpt><trkpt lat="44.348312766850455" lon="9.755982482544571"><ele>655.0</ele><time>2026-04-11T14:13:55Z</time></trkpt><trkpt lat="44.34828942212521" lon="9.756174624288471"><ele>656.5</ele><time>2026-04-11T14:13:56Z</time></trkpt><trkpt lat="44.34828307397235" lon="9.75635943320937"><ele>658.0</ele><time>2026-04-11T14:13:57Z</time></trkpt><trkpt lat="44.34828198695544" lon="9.756544502596794"><ele>659.5</ele><time>2026-04-11T14:13:58Z</time></trkpt><trkpt lat="44.3482506274306" lon="9.756724455887825"><ele>661.0</ele><time>2026-04-11T14:13:59Z</time></trkpt><trkpt lat="44.348229935861106" lon="9.756895790851562"><ele>664.75</ele><time>2026-04-11T14:14:00Z</time></trkpt><trkpt lat="44.34819855542116" lon="9.757051643854794"><ele>668.5</ele><time>2026-04-11T14:14:01Z</time></trkpt><trkpt lat="44.348136229106956" lon="9.757204797731966"><ele>672.25</ele><time>2026-04-11T14:14:02Z</time></trkpt><trkpt lat="44.3480603442897" lon="9.757366826758764"><ele>676.0</ele><time>2026-04-11T14:14:03Z</time></trkpt><trkpt lat="44.34798232326984" lon="9.757517046911671"><ele>665.0</ele><time>2026-04-11T14:14:04Z</time></trkpt><trkpt lat="44.347944711569255" lon="9.757709981960957"><ele>654.0</ele><time>2026-04-11T14:14:05Z</time></trkpt><trkpt lat="44.34792868840786" lon="9.75793356190153"><ele>643.0</ele><time>2026-04-11T14:14:06Z</time></trkpt><trkpt lat="44.34791506987661" lon="9.758165621223108"><ele>643.0</ele><time>2026-04-11T14:14:07Z</time></trkpt><trkpt lat="44.347889728990594" lon="9.758377164303884"><ele>643.0</ele><time>2026-04-11T14:14:08Z</time></trkpt><trkpt lat="44.34787734790686" lon="9.75857608341838"><ele>643.0</ele><time>2026-04-11T14:14:09Z</time></trkpt><trkpt lat="44.347852153313255" lon="9.758746982639073"><ele>643.0</ele><time>2026-04-11T14:14:10Z</time></trkpt><trkpt lat="44.347853923986854" lon="9.758870658061245"><ele>644.75</ele><time>2026-04-11T14:14:11Z</time></trkpt><trkpt lat="44.34789029795247" lon="9.758975726731363"><ele>646.5</ele><time>2026-04-11T14:14:12Z</time></trkpt><trkpt lat="44.34797090034012" lon="9.759069222803246"><ele>648.25</ele><time>2026-04-11T14:14:13Z</time></trkpt><trkpt lat="44.348088547398284" lon="9.759151998323947"><ele>650.0</ele><time>2026-04-11T14:14:14Z</time></trkpt><trkpt lat="44.348218037679324" lon="9.759251872589399"><ele>656.0</ele><time>2026-04-11T14:14:15Z</time></trkpt><trkpt lat="44.348351748189934" lon="9.759367170325387"><ele>662.0</ele><time>2026-04-11T14:14:16Z</time></trkpt><trkpt lat="44.34849346258713" lon="9.759481257761069"><ele>668.0</ele><time>2026-04-11T14:14:17Z</time></trkpt><trkpt lat="44.348638864286166" lon="9.759580051429314"><ele>668.0</ele><time>2026-04-11T14:14:18Z</time></trkpt><trkpt lat="44.348786548603904" lon="9.759669545263648"><ele>668.0</ele><time>2026-04-11T14:14:19Z</time></trkpt><trkpt lat="44.348896689355286" lon="9.759790378174058"><ele>668.0</ele><time>2026-04-11T14:14:20Z</time></trkpt><trkpt lat="44.348976107568056" lon="9.75988532514656"><ele>668.0</ele><time>2026-04-11T14:14:21Z</time></trkpt><trkpt lat="44.34896717070536" lon="9.76005721448949"><ele>672.3333333333333</ele><time>2026-04-11T14:14:22Z</time></trkpt><trkpt lat="44.34897024205554" lon="9.760255156437525"><ele>676.6666666666666</ele><time>2026-04-11T14:14:23Z</time></trkpt><trkpt lat="44.3489484280885" lon="9.760470001347395"><ele>681.0</ele><time>2026-04-11T14:14:24Z</time></trkpt><trkpt lat="44.348949009646816" lon="9.760697672558146"><ele>681.0</ele><time>2026-04-11T14:14:25Z</time></trkpt><trkpt lat="44.348954526322714" lon="9.760915540700733"><ele>681.0</ele><time>2026-04-11T14:14:26Z</time></trkpt><trkpt lat="44.348974281523056" lon="9.761114328289537"><ele>681.0</ele><time>2026-04-11T14:14:27Z</time></trkpt><trkpt lat="44.34899811154481" lon="9.761250705106784"><ele>681.0</ele><time>2026-04-11T14:14:28Z</time></trkpt><trkpt lat="44.34905077260554" lon="9.761453668646508"><ele>679.0</ele><time>2026-04-11T14:14:29Z</time></trkpt><trkpt lat="44.34916363120693" lon="9.761753934857278"><ele>677.0</ele><time>2026-04-11T14:14:30Z</time></trkpt><trkpt lat="44.349213800741175" lon="9.762015504179557"><ele>675.0</ele><time>2026-04-11T14:14:31Z</time></trkpt><trkpt lat="44.349231956102344" lon="9.762201804615504"><ele>675.0</ele><time>2026-04-11T14:14:32Z</time></trkpt><trkpt lat="44.34920182406145" lon="9.762405083123019"><ele>675.0</ele><time>2026-04-11T14:14:33Z</time></trkpt><trkpt lat="44.349133779358446" lon="9.762569578666533"><ele>675.0</ele><time>2026-04-11T14:14:34Z</time></trkpt><trkpt lat="44.34906757230673" lon="9.762692392028239"><ele>675.0</ele><time>2026-04-11T14:14:35Z</time></trkpt><trkpt lat="44.348995784816154" lon="9.762823942219779"><ele>674.75</ele><time>2026-04-11T14:14:36Z</time></trkpt><trkpt lat="44.34886678092741" lon="9.76292630609438"><ele>674.5</ele><time>2026-04-11T14:14:37Z</time></trkpt><trkpt lat="44.34873498275265" lon="9.763005672974028"><ele>674.25</ele><time>2026-04-11T14:14:38Z</time></trkpt><trkpt lat="44.34860881853841" lon="9.763082736907648"><ele>674.0</ele><time>2026-04-11T14:14:39Z</time></trkpt><trkpt lat="44.34849733277366" lon="9.76318403913533"><ele>674.0</ele><time>2026-04-11T14:14:40Z</time></trkpt><trkpt lat="44.348410616653254" lon="9.763289102126775"><ele>674.0</ele><time>2026-04-11T14:14:41Z</time></trkpt><trkpt lat="44.34831602809166" lon="9.763391835482691"><ele>674.0</ele><time>2026-04-11T14:14:42Z</time></trkpt><trkpt lat="44.34821264885323" lon="9.763492838567974"><ele>674.0</ele><time>2026-04-11T14:14:43Z</time></trkpt><trkpt lat="44.34811499633043" lon="9.763585440362299"><ele>671.25</ele><time>2026-04-11T14:14:44Z</time></trkpt><trkpt lat="44.34803096314589" lon="9.763706191602848"><ele>668.5</ele><time>2026-04-11T14:14:45Z</time></trkpt><trkpt lat="44.34796116092067" lon="9.763876961784506"><ele>665.75</ele><time>2026-04-11T14:14:46Z</time></trkpt><trkpt lat="44.347900956723464" lon="9.76403557201009"><ele>663.0</ele><time>2026-04-11T14:14:47Z</time></trkpt><trkpt lat="44.34787243964148" lon="9.764178740455847"><ele>663.0</ele><time>2026-04-11T14:14:48Z</time></trkpt><trkpt lat="44.34788166944672" lon="9.764341326612179"><ele>663.0</ele><time>2026-04-11T14:14:49Z</time></trkpt><trkpt lat="44.347899819655154" lon="9.764527294988524"><ele>663.0</ele><time>2026-04-11T14:14:50Z</time></trkpt><trkpt lat="44.347911401612514" lon="9.764724880972814"><ele>663.0</ele><time>2026-04-11T14:14:51Z</time></trkpt><trkpt lat="44.3479199219429" lon="9.764925473238462"><ele>662.5</ele><time>2026-04-11T14:14:52Z</time></trkpt><trkpt lat="44.34794039921925" lon="9.765131661509223"><ele>662.0</ele><time>2026-04-11T14:14:53Z</time></trkpt><trkpt lat="44.3479671500495" lon="9.76533799385065"><ele>661.5</ele><time>2026-04-11T14:14:54Z</time></trkpt><trkpt lat="44.34798335123564" lon="9.765539288283565"><ele>661.0</ele><time>2026-04-11T14:14:55Z</time></trkpt><trkpt lat="44.34798823964579" lon="9.76572987949044"><ele>659.5999999999999</ele><time>2026-04-11T14:14:56Z</time></trkpt><trkpt lat="44.34799382604393" lon="9.765903885233802"><ele>658.2</ele><time>2026-04-11T14:14:57Z</time></trkpt><trkpt lat="44.34798895991788" lon="9.766073934989754"><ele>656.8</ele><time>2026-04-11T14:14:58Z</time></trkpt><trkpt lat="44.347968726084794" lon="9.766233503813654"><ele>655.4000000000001</ele><time>2026-04-11T14:14:59Z</time></trkpt><trkpt lat="44.347954917586605" lon="9.766338867267681"><ele>654.0</ele><time>2026-04-11T14:15:00Z</time></trkpt><trkpt lat="44.347941613668844" lon="9.766483516546803"><ele>652.8000000000001</ele><time>2026-04-11T14:15:02Z</time></trkpt><trkpt lat="44.34792843425731" lon="9.766641354007756"><ele>651.6</ele><time>2026-04-11T14:15:04Z</time></trkpt><trkpt lat="44.347929194406085" lon="9.766805963318179"><ele>650.4</ele><time>2026-04-11T14:15:05.999Z</time></trkpt><trkpt lat="44.347950427220695" lon="9.766980370506321"><ele>649.2</ele><time>2026-04-11T14:15:07.999Z</time></trkpt><trkpt lat="44.34797623795407" lon="9.767072968665907"><ele>648.0</ele><time>2026-04-11T14:15:08.999Z</time></trkpt><trkpt lat="44.34801532542601" lon="9.767165201067915"><ele>649.4</ele><time>2026-04-11T14:15:09.999Z</time></trkpt><trkpt lat="44.34807233017953" lon="9.767274610228602"><ele>650.8</ele><time>2026-04-11T14:15:10.999Z</time></trkpt><trkpt lat="44.34813385270451" lon="9.76737547147307"><ele>652.2</ele><time>2026-04-11T14:15:11.999Z</time></trkpt><trkpt lat="44.34820372003459" lon="9.767441790593836"><ele>653.6</ele><time>2026-04-11T14:15:12.999Z</time></trkpt><trkpt lat="44.34828578956176" lon="9.76749214024431"><ele>655.0</ele><time>2026-04-11T14:15:13.999Z</time></trkpt><trkpt lat="44.34838732138752" lon="9.767544819848833"><ele>655.0</ele><time>2026-04-11T14:15:14.999Z</time></trkpt><trkpt lat="44.34851262965353" lon="9.7675852393654"><ele>655.0</ele><time>2026-04-11T14:15:15.999Z</time></trkpt><trkpt lat="44.348637756265006" lon="9.767611144962393"><ele>655.0</ele><time>2026-04-11T14:15:16.999Z</time></trkpt><trkpt lat="44.34875847316325" lon="9.767636595293041"><ele>655.0</ele><time>2026-04-11T14:15:17.999Z</time></trkpt><trkpt lat="44.34887183279236" lon="9.767663558822093"><ele>656.0</ele><time>2026-04-11T14:15:18.999Z</time></trkpt><trkpt lat="44.34897841174378" lon="9.76769104747914"><ele>657.0</ele><time>2026-04-11T14:15:19.999Z</time></trkpt><trkpt lat="44.349079711444816" lon="9.767718420183726"><ele>658.0</ele><time>2026-04-11T14:15:20.999Z</time></trkpt><trkpt lat="44.34918113900603" lon="9.76775216888697"><ele>659.0</ele><time>2026-04-11T14:15:21.999Z</time></trkpt><trkpt lat="44.34928034741153" lon="9.767771578483424"><ele>660.0</ele><time>2026-04-11T14:15:22.999Z</time></trkpt><trkpt lat="44.34937263630741" lon="9.767757298552032"><ele>658.8</ele><time>2026-04-11T14:15:23.999Z</time></trkpt><trkpt lat="44.34946548676751" lon="9.767726977028142"><ele>657.6</ele><time>2026-04-11T14:15:24.999Z</time></trkpt><trkpt lat="44.34955518220926" lon="9.76775663893704"><ele>656.4000000000001</ele><time>2026-04-11T14:15:25.999Z</time></trkpt><trkpt lat="44.34963472665325" lon="9.767799030549904"><ele>655.2</ele><time>2026-04-11T14:15:26.999Z</time></trkpt><trkpt lat="44.34970870422612" lon="9.767834758084575"><ele>654.0</ele><time>2026-04-11T14:15:27.999Z</time></trkpt><trkpt lat="44.34979338769071" lon="9.767969943831279"><ele>654.0</ele><time>2026-04-11T14:15:29.999Z</time></trkpt><trkpt lat="44.34977156459764" lon="9.768135243304066"><ele>654.0</ele><time>2026-04-11T14:15:30.999Z</time></trkpt><trkpt lat="44.34981000650326" lon="9.768297292762538"><ele>654.0</ele><time>2026-04-11T14:15:31.999Z</time></trkpt><trkpt lat="44.349874285385866" lon="9.76844887317579"><ele>654.0</ele><time>2026-04-11T14:15:32.999Z</time></trkpt><trkpt lat="44.34992054252813" lon="9.76860026939661"><ele>654.2</ele><time>2026-04-11T14:15:33.999Z</time></trkpt><trkpt lat="44.34995701729763" lon="9.768741490471992"><ele>654.4000000000001</ele><time>2026-04-11T14:15:34.999Z</time></trkpt><trkpt lat="44.349902323923814" lon="9.768880487754464"><ele>654.6</ele><time>2026-04-11T14:15:35.999Z</time></trkpt><trkpt lat="44.34983571754111" lon="9.768998092447315"><ele>654.8</ele><time>2026-04-11T14:15:36.999Z</time></trkpt><trkpt lat="44.34974361171671" lon="9.769093029968312"><ele>655.0</ele><time>2026-04-11T14:15:37.999Z</time></trkpt><trkpt lat="44.34966348019536" lon="9.769173925774897"><ele>651.25</ele><time>2026-04-11T14:15:38.999Z</time></trkpt><trkpt lat="44.3496068325814" lon="9.769288640002394"><ele>647.5</ele><time>2026-04-11T14:15:39.999Z</time></trkpt><trkpt lat="44.34955172832043" lon="9.76943434760963"><ele>643.75</ele><time>2026-04-11T14:15:40.999Z</time></trkpt><trkpt lat="44.34950025570272" lon="9.769590424017546"><ele>640.0</ele><time>2026-04-11T14:15:41.999Z</time></trkpt><trkpt lat="44.34944648910256" lon="9.769746743823518"><ele>640.0</ele><time>2026-04-11T14:15:42.999Z</time></trkpt><trkpt lat="44.349392823392876" lon="9.76990207053198"><ele>640.0</ele><time>2026-04-11T14:15:43.999Z</time></trkpt><trkpt lat="44.3493405467753" lon="9.770045750929736"><ele>640.0</ele><time>2026-04-11T14:15:44.999Z</time></trkpt><trkpt lat="44.34928884076079" lon="9.770185018474628"><ele>640.0</ele><time>2026-04-11T14:15:45.999Z</time></trkpt><trkpt lat="44.34924068480183" lon="9.77029601749977"><ele>640.0</ele><time>2026-04-11T14:15:46.999Z</time></trkpt><trkpt lat="44.3491835561015" lon="9.7704112509773"><ele>641.1666666666667</ele><time>2026-04-11T14:15:47.999Z</time></trkpt><trkpt lat="44.34910747168239" lon="9.770485515808245"><ele>642.3333333333334</ele><time>2026-04-11T14:15:48.999Z</time></trkpt><trkpt lat="44.34903824697931" lon="9.770563488576512"><ele>643.5</ele><time>2026-04-11T14:15:49.999Z</time></trkpt><trkpt lat="44.34897349866608" lon="9.77063176808328"><ele>644.6666666666666</ele><time>2026-04-11T14:15:50.999Z</time></trkpt><trkpt lat="44.348912792842" lon="9.770706749866578"><ele>645.8333333333333</ele><time>2026-04-11T14:15:51.999Z</time></trkpt><trkpt lat="44.348849917256935" lon="9.770765252078913"><ele>647.0</ele><time>2026-04-11T14:15:52.999Z</time></trkpt><trkpt lat="44.34879601697704" lon="9.77084765924772"><ele>644.0</ele><time>2026-04-11T14:15:53.999Z</time></trkpt><trkpt lat="44.34875131023809" lon="9.770960940727825"><ele>641.0</ele><time>2026-04-11T14:15:54.999Z</time></trkpt><trkpt lat="44.34871861481423" lon="9.771087004821922"><ele>638.0</ele><time>2026-04-11T14:15:55.999Z</time></trkpt><trkpt lat="44.34870774412965" lon="9.771201597567881"><ele>635.0</ele><time>2026-04-11T14:15:56.999Z</time></trkpt><trkpt lat="44.34872858212822" lon="9.77131329471648"><ele>632.0</ele><time>2026-04-11T14:15:57.999Z</time></trkpt><trkpt lat="44.34878069436391" lon="9.771392296665274"><ele>629.0</ele><time>2026-04-11T14:15:58.999Z</time></trkpt><trkpt lat="44.34885634124016" lon="9.771429534665888"><ele>630.5</ele><time>2026-04-11T14:16:00Z</time></trkpt><trkpt lat="44.34895333052153" lon="9.771425287019348"><ele>632.0</ele><time>2026-04-11T14:16:01Z</time></trkpt><trkpt lat="44.34905645059013" lon="9.771371842262873"><ele>633.5</ele><time>2026-04-11T14:16:02Z</time></trkpt><trkpt lat="44.34916871162125" lon="9.771283667379572"><ele>635.0</ele><time>2026-04-11T14:16:03Z</time></trkpt><trkpt lat="44.34928913671616" lon="9.771281785747059"><ele>635.0</ele><time>2026-04-11T14:16:04Z</time></trkpt><trkpt lat="44.349419669182055" lon="9.771295765297427"><ele>635.0</ele><time>2026-04-11T14:16:05Z</time></trkpt><trkpt lat="44.34953459724461" lon="9.771310404869844"><ele>635.0</ele><time>2026-04-11T14:16:06Z</time></trkpt><trkpt lat="44.349670674409026" lon="9.771317205478386"><ele>635.0</ele><time>2026-04-11T14:16:07Z</time></trkpt><trkpt lat="44.34979975706961" lon="9.771333186606464"><ele>634.0</ele><time>2026-04-11T14:16:08Z</time></trkpt><trkpt lat="44.349923290672585" lon="9.771326041567672"><ele>633.0</ele><time>2026-04-11T14:16:09Z</time></trkpt><trkpt lat="44.35005970725584" lon="9.77128580032289"><ele>632.0</ele><time>2026-04-11T14:16:10Z</time></trkpt><trkpt lat="44.35019645816102" lon="9.771233851069722"><ele>631.0</ele><time>2026-04-11T14:16:11Z</time></trkpt><trkpt lat="44.35032821397297" lon="9.771199853704807"><ele>631.0</ele><time>2026-04-11T14:16:12Z</time></trkpt><trkpt lat="44.35045508128138" lon="9.77115451866421"><ele>631.0</ele><time>2026-04-11T14:16:13Z</time></trkpt><trkpt lat="44.35057340021046" lon="9.771085256212952"><ele>631.0</ele><time>2026-04-11T14:16:14Z</time></trkpt><trkpt lat="44.35068372396106" lon="9.770986308633141"><ele>631.0</ele><time>2026-04-11T14:16:15Z</time></trkpt><trkpt lat="44.350800795788196" lon="9.770950795472906"><ele>634.0</ele><time>2026-04-11T14:16:16Z</time></trkpt><trkpt lat="44.350926648198694" lon="9.770957729473142"><ele>637.0</ele><time>2026-04-11T14:16:17Z</time></trkpt><trkpt lat="44.351065192453994" lon="9.770943081150362"><ele>640.0</ele><time>2026-04-11T14:16:18Z</time></trkpt><trkpt lat="44.35116678195684" lon="9.77094010444763"><ele>643.0</ele><time>2026-04-11T14:16:19Z</time></trkpt><trkpt lat="44.35127279147448" lon="9.770895496907244"><ele>638.0</ele><time>2026-04-11T14:16:20Z</time></trkpt><trkpt lat="44.35138488644055" lon="9.770807462476547"><ele>633.0</ele><time>2026-04-11T14:16:21Z</time></trkpt><trkpt lat="44.35149274785175" lon="9.770674064566649"><ele>628.0</ele><time>2026-04-11T14:16:22Z</time></trkpt><trkpt lat="44.351575849466585" lon="9.77052517028967"><ele>623.0</ele><time>2026-04-11T14:16:23Z</time></trkpt><trkpt lat="44.35165133377741" lon="9.770458908804676"><ele>623.0</ele><time>2026-04-11T14:16:24Z</time></trkpt><trkpt lat="44.35171350288052" lon="9.770404519748574"><ele>623.0</ele><time>2026-04-11T14:16:25Z</time></trkpt><trkpt lat="44.35178321417323" lon="9.770378456249471"><ele>623.0</ele><time>2026-04-11T14:16:26Z</time></trkpt><trkpt lat="44.351854460283825" lon="9.770440749433554"><ele>623.0</ele><time>2026-04-11T14:16:27Z</time></trkpt><trkpt lat="44.35191415242957" lon="9.770540042033863"><ele>623.0</ele><time>2026-04-11T14:16:28Z</time></trkpt><trkpt lat="44.3519652780527" lon="9.770687270886777"><ele>623.0</ele><time>2026-04-11T14:16:29Z</time></trkpt><trkpt lat="44.352031105561096" lon="9.77083155460999"><ele>623.0</ele><time>2026-04-11T14:16:30Z</time></trkpt><trkpt lat="44.35208194056344" lon="9.770972766801165"><ele>623.0</ele><time>2026-04-11T14:16:31Z</time></trkpt><trkpt lat="44.35208317216063" lon="9.771143711911922"><ele>623.0</ele><time>2026-04-11T14:16:32Z</time></trkpt><trkpt lat="44.35208936562085" lon="9.771359011646291"><ele>623.0</ele><time>2026-04-11T14:16:33Z</time></trkpt><trkpt lat="44.352089395936" lon="9.771597296037607"><ele>623.0</ele><time>2026-04-11T14:16:34Z</time></trkpt><trkpt lat="44.35209307183266" lon="9.771832202011078"><ele>623.0</ele><time>2026-04-11T14:16:35Z</time></trkpt><trkpt lat="44.35210315805312" lon="9.772038456210725"><ele>623.0</ele><time>2026-04-11T14:16:36Z</time></trkpt><trkpt lat="44.35210474365794" lon="9.7722125504953"><ele>623.0</ele><time>2026-04-11T14:16:37Z</time></trkpt><trkpt lat="44.35205706008935" lon="9.7723807585855"><ele>623.0</ele><time>2026-04-11T14:16:38Z</time></trkpt><trkpt lat="44.35199176248242" lon="9.772574548302412"><ele>623.0</ele><time>2026-04-11T14:16:39Z</time></trkpt><trkpt lat="44.35190018640963" lon="9.772767442782465"><ele>623.0</ele><time>2026-04-11T14:16:40Z</time></trkpt><trkpt lat="44.35183176665177" lon="9.772943187280527"><ele>628.25</ele><time>2026-04-11T14:16:41Z</time></trkpt><trkpt lat="44.351750339885335" lon="9.773069265778295"><ele>633.5</ele><time>2026-04-11T14:16:42Z</time></trkpt><trkpt lat="44.35167229752155" lon="9.773185256218094"><ele>638.75</ele><time>2026-04-11T14:16:43Z</time></trkpt><trkpt lat="44.351549412107424" lon="9.773223562697622"><ele>644.0</ele><time>2026-04-11T14:16:44Z</time></trkpt><trkpt lat="44.35140588212612" lon="9.773212258774155"><ele>642.4000000000001</ele><time>2026-04-11T14:16:45Z</time></trkpt><trkpt lat="44.35127974228396" lon="9.773237608174677"><ele>640.8000000000001</ele><time>2026-04-11T14:16:46Z</time></trkpt><trkpt lat="44.35117678374272" lon="9.773299330123846"><ele>639.2</ele><time>2026-04-11T14:16:47Z</time></trkpt><trkpt lat="44.35110487972861" lon="9.773383788907008"><ele>637.6</ele><time>2026-04-11T14:16:48Z</time></trkpt><trkpt lat="44.35107098311863" lon="9.773503033123578"><ele>636.0</ele><time>2026-04-11T14:16:49Z</time></trkpt><trkpt lat="44.3510805108902" lon="9.77364314218563"><ele>636.0</ele><time>2026-04-11T14:16:50Z</time></trkpt><trkpt lat="44.35113622380546" lon="9.773803021206795"><ele>636.0</ele><time>2026-04-11T14:16:51Z</time></trkpt><trkpt lat="44.35120226493745" lon="9.773985926440169"><ele>636.0</ele><time>2026-04-11T14:16:52Z</time></trkpt><trkpt lat="44.35121433315758" lon="9.774153653075318"><ele>636.0</ele><time>2026-04-11T14:16:53Z</time></trkpt><trkpt lat="44.35118974445402" lon="9.774289676014773"><ele>644.25</ele><time>2026-04-11T14:16:54Z</time></trkpt><trkpt lat="44.35112553799498" lon="9.774421745683815"><ele>652.5</ele><time>2026-04-11T14:16:55Z</time></trkpt><trkpt lat="44.351011211169485" lon="9.774456718708304"><ele>660.75</ele><time>2026-04-11T14:16:56Z</time></trkpt><trkpt lat="44.35086441846836" lon="9.77451778431289"><ele>669.0</ele><time>2026-04-11T14:16:57Z</time></trkpt><trkpt lat="44.350700148060206" lon="9.774545925354959"><ele>669.0</ele><time>2026-04-11T14:16:58Z</time></trkpt><trkpt lat="44.35056830058079" lon="9.774596263487787"><ele>669.0</ele><time>2026-04-11T14:16:59Z</time></trkpt><trkpt lat="44.35046221846841" lon="9.774660760507091"><ele>669.0</ele><time>2026-04-11T14:17:00Z</time></trkpt><trkpt lat="44.3503696377087" lon="9.774793875695517"><ele>669.0</ele><time>2026-04-11T14:17:01Z</time></trkpt><trkpt lat="44.35027058017996" lon="9.774978759484007"><ele>673.0</ele><time>2026-04-11T14:17:02Z</time></trkpt><trkpt lat="44.35015576467407" lon="9.775136241617995"><ele>677.0</ele><time>2026-04-11T14:17:03Z</time></trkpt><trkpt lat="44.350002920786096" lon="9.775264725178381"><ele>681.0</ele><time>2026-04-11T14:17:04Z</time></trkpt><trkpt lat="44.349833823067435" lon="9.775391483263117"><ele>670.6666666666666</ele><time>2026-04-11T14:17:05Z</time></trkpt><trkpt lat="44.349676906193174" lon="9.775548093310075"><ele>660.3333333333333</ele><time>2026-04-11T14:17:06Z</time></trkpt><trkpt lat="44.34953126212723" lon="9.775718170750853"><ele>650.0</ele><time>2026-04-11T14:17:07Z</time></trkpt><trkpt lat="44.34939708804888" lon="9.775861928293166"><ele>650.0</ele><time>2026-04-11T14:17:08Z</time></trkpt><trkpt lat="44.34924803787535" lon="9.775948457149509"><ele>650.0</ele><time>2026-04-11T14:17:09Z</time></trkpt><trkpt lat="44.349083431982656" lon="9.776038112962807"><ele>650.0</ele><time>2026-04-11T14:17:09.999Z</time></trkpt><trkpt lat="44.3489043702557" lon="9.776101661422206"><ele>648.5</ele><time>2026-04-11T14:17:10.999Z</time></trkpt><trkpt lat="44.34875104632065" lon="9.77618111488171"><ele>647.0</ele><time>2026-04-11T14:17:11.999Z</time></trkpt><trkpt lat="44.348608504983716" lon="9.776281201726158"><ele>645.5</ele><time>2026-04-11T14:17:12.999Z</time></trkpt><trkpt lat="44.348519209227966" lon="9.776368635095826"><ele>644.0</ele><time>2026-04-11T14:17:13.999Z</time></trkpt><trkpt lat="44.348466437842454" lon="9.776467187454477"><ele>644.0</ele><time>2026-04-11T14:17:14.999Z</time></trkpt><trkpt lat="44.34844764365971" lon="9.77660520716251"><ele>644.0</ele><time>2026-04-11T14:17:15.999Z</time></trkpt><trkpt lat="44.348471502619105" lon="9.776775362800333"><ele>644.0</ele><time>2026-04-11T14:17:16.999Z</time></trkpt><trkpt lat="44.34850018117683" lon="9.776989990519583"><ele>644.0</ele><time>2026-04-11T14:17:17.999Z</time></trkpt><trkpt lat="44.34851459521753" lon="9.777195382100615"><ele>644.5</ele><time>2026-04-11T14:17:18.999Z</time></trkpt><trkpt lat="44.34853967372197" lon="9.777410026548802"><ele>645.0</ele><time>2026-04-11T14:17:19.999Z</time></trkpt><trkpt lat="44.34857674160739" lon="9.777625266263877"><ele>645.5</ele><time>2026-04-11T14:17:20.999Z</time></trkpt><trkpt lat="44.348573908936054" lon="9.777807308580323"><ele>646.0</ele><time>2026-04-11T14:17:21.999Z</time></trkpt><trkpt lat="44.34856230828794" lon="9.777979247279006"><ele>642.5</ele><time>2026-04-11T14:17:22.999Z</time></trkpt><trkpt lat="44.348598808538405" lon="9.778123647596193"><ele>639.0</ele><time>2026-04-11T14:17:23.999Z</time></trkpt><trkpt lat="44.34868829038953" lon="9.778260144626566"><ele>635.5</ele><time>2026-04-11T14:17:24.999Z</time></trkpt><trkpt lat="44.348798326009025" lon="9.778417372860071"><ele>632.0</ele><time>2026-04-11T14:17:25.999Z</time></trkpt><trkpt lat="44.34889177520758" lon="9.778597696898126"><ele>641.5</ele><time>2026-04-11T14:17:26.999Z</time></trkpt><trkpt lat="44.34898380411874" lon="9.77875665979492"><ele>651.0</ele><time>2026-04-11T14:17:27.999Z</time></trkpt><trkpt lat="44.34907991536197" lon="9.778889877457546"><ele>660.5</ele><time>2026-04-11T14:17:28.999Z</time></trkpt><trkpt lat="44.349172268116675" lon="9.778998544423013"><ele>670.0</ele><time>2026-04-11T14:17:29.999Z</time></trkpt><trkpt lat="44.349246770397876" lon="9.779140596911544"><ele>670.0</ele><time>2026-04-11T14:17:30.999Z</time></trkpt><trkpt lat="44.34927546155208" lon="9.779335301667038"><ele>670.0</ele><time>2026-04-11T14:17:31.999Z</time></trkpt><trkpt lat="44.34924974844028" lon="9.779548175877467"><ele>670.0</ele><time>2026-04-11T14:17:32.999Z</time></trkpt><trkpt lat="44.34923413078649" lon="9.7797329113598"><ele>670.0</ele><time>2026-04-11T14:17:33.999Z</time></trkpt><trkpt lat="44.34920606902934" lon="9.779895849548195"><ele>666.4</ele><time>2026-04-11T14:17:34.999Z</time></trkpt><trkpt lat="44.34920236312859" lon="9.780029609697037"><ele>662.8</ele><time>2026-04-11T14:17:35.999Z</time></trkpt><trkpt lat="44.349236254635244" lon="9.780144209789839"><ele>659.2</ele><time>2026-04-11T14:17:36.999Z</time></trkpt><trkpt lat="44.349305623098644" lon="9.780211848826243"><ele>655.6</ele><time>2026-04-11T14:17:37.999Z</time></trkpt><trkpt lat="44.34939361562815" lon="9.780242378446545"><ele>652.0</ele><time>2026-04-11T14:17:38.999Z</time></trkpt><trkpt lat="44.34949215525056" lon="9.780232167828938"><ele>648.8000000000001</ele><time>2026-04-11T14:17:39.999Z</time></trkpt><trkpt lat="44.34960206441956" lon="9.780260500672217"><ele>645.6</ele><time>2026-04-11T14:17:40.999Z</time></trkpt><trkpt lat="44.3496852026261" lon="9.780310228804362"><ele>642.4000000000001</ele><time>2026-04-11T14:17:41.999Z</time></trkpt><trkpt lat="44.34973476145995" lon="9.780415606356403"><ele>639.2</ele><time>2026-04-11T14:17:42.999Z</time></trkpt><trkpt lat="44.34973202189031" lon="9.780557315531922"><ele>636.0</ele><time>2026-04-11T14:17:43.999Z</time></trkpt><trkpt lat="44.34971876866539" lon="9.78072802698352"><ele>636.0</ele><time>2026-04-11T14:17:44.999Z</time></trkpt><trkpt lat="44.34970148188436" lon="9.78089827538938"><ele>636.0</ele><time>2026-04-11T14:17:45.999Z</time></trkpt><trkpt lat="44.34971786462405" lon="9.781037158869756"><ele>636.0</ele><time>2026-04-11T14:17:46.999Z</time></trkpt><trkpt lat="44.34976863612556" lon="9.781155991712279"><ele>636.0</ele><time>2026-04-11T14:17:47.999Z</time></trkpt><trkpt lat="44.34989180834127" lon="9.781212484077454"><ele>644.75</ele><time>2026-04-11T14:17:48.999Z</time></trkpt><trkpt lat="44.34997438584596" lon="9.78130290068946"><ele>653.5</ele><time>2026-04-11T14:17:49.999Z</time></trkpt><trkpt lat="44.349978337093624" lon="9.781447077051284"><ele>662.25</ele><time>2026-04-11T14:17:50.999Z</time></trkpt><trkpt lat="44.35000907610213" lon="9.781618008231492"><ele>671.0</ele><time>2026-04-11T14:17:51.999Z</time></trkpt><trkpt lat="44.350025992112" lon="9.781789826197867"><ele>672.5</ele><time>2026-04-11T14:17:52.999Z</time></trkpt><trkpt lat="44.35000000967276" lon="9.781952187450736"><ele>674.0</ele><time>2026-04-11T14:17:53.999Z</time></trkpt><trkpt lat="44.34995834156194" lon="9.782122676901071"><ele>675.5</ele><time>2026-04-11T14:17:54.999Z</time></trkpt><trkpt lat="44.34988397121492" lon="9.782299194745494"><ele>677.0</ele><time>2026-04-11T14:17:55.999Z</time></trkpt><trkpt lat="44.34983053005762" lon="9.782469066801594"><ele>677.0</ele><time>2026-04-11T14:17:56.999Z</time></trkpt><trkpt lat="44.34980259008708" lon="9.782623471230783"><ele>677.0</ele><time>2026-04-11T14:17:57.999Z</time></trkpt><trkpt lat="44.34982653443969" lon="9.782802212225954"><ele>677.0</ele><time>2026-04-11T14:17:58.999Z</time></trkpt><trkpt lat="44.34987848517053" lon="9.782971672889003"><ele>677.0</ele><time>2026-04-11T14:17:59.999Z</time></trkpt><trkpt lat="44.34989950874147" lon="9.783144147020218"><ele>680.75</ele><time>2026-04-11T14:18:00.999Z</time></trkpt><trkpt lat="44.349900563632794" lon="9.783288497139349"><ele>684.5</ele><time>2026-04-11T14:18:01.999Z</time></trkpt><trkpt lat="44.349820911313785" lon="9.783399611364706"><ele>688.25</ele><time>2026-04-11T14:18:02.999Z</time></trkpt><trkpt lat="44.34970283106026" lon="9.783478347503115"><ele>692.0</ele><time>2026-04-11T14:18:03.999Z</time></trkpt><trkpt lat="44.34959110322535" lon="9.783565032831538"><ele>679.0</ele><time>2026-04-11T14:18:04.999Z</time></trkpt><trkpt lat="44.349497926440925" lon="9.783693706646808"><ele>666.0</ele><time>2026-04-11T14:18:06Z</time></trkpt><trkpt lat="44.34944220838629" lon="9.783836909577769"><ele>653.0</ele><time>2026-04-11T14:18:07Z</time></trkpt><trkpt lat="44.34943469561905" lon="9.783994504784072"><ele>640.0</ele><time>2026-04-11T14:18:08Z</time></trkpt><trkpt lat="44.3494730789213" lon="9.784165003084642"><ele>640.0</ele><time>2026-04-11T14:18:09Z</time></trkpt><trkpt lat="44.34946530794041" lon="9.784334727409686"><ele>640.0</ele><time>2026-04-11T14:18:10Z</time></trkpt><trkpt lat="44.3494348126567" lon="9.784474096207246"><ele>640.0</ele><time>2026-04-11T14:18:11Z</time></trkpt><trkpt lat="44.34947068372802" lon="9.784576233402275"><ele>640.0</ele><time>2026-04-11T14:18:12Z</time></trkpt><trkpt lat="44.349571719353015" lon="9.784639912322659"><ele>640.0</ele><time>2026-04-11T14:18:13Z</time></trkpt><trkpt lat="44.349700337197156" lon="9.784687119636086"><ele>647.5</ele><time>2026-04-11T14:18:14Z</time></trkpt><trkpt lat="44.3498086607436" lon="9.78481248182562"><ele>655.0</ele><time>2026-04-11T14:18:15Z</time></trkpt><trkpt lat="44.34993207992849" lon="9.78492213333671"><ele>662.5</ele><time>2026-04-11T14:18:16Z</time></trkpt><trkpt lat="44.35004724503437" lon="9.785027006288527"><ele>670.0</ele><time>2026-04-11T14:18:17Z</time></trkpt><trkpt lat="44.35012416133165" lon="9.785104147573485"><ele>667.6</ele><time>2026-04-11T14:18:18Z</time></trkpt><trkpt lat="44.350167416708075" lon="9.78518260825845"><ele>665.2</ele><time>2026-04-11T14:18:19Z</time></trkpt><trkpt lat="44.350168276296905" lon="9.78529542965884"><ele>662.8</ele><time>2026-04-11T14:18:20Z</time></trkpt><trkpt lat="44.35010009968089" lon="9.785436015437828"><ele>660.4</ele><time>2026-04-11T14:18:21Z</time></trkpt><trkpt lat="44.35004736778182" lon="9.785601603448141"><ele>658.0</ele><time>2026-04-11T14:18:22Z</time></trkpt><trkpt lat="44.35005209201326" lon="9.785801788423635"><ele>658.0</ele><time>2026-04-11T14:18:23Z</time></trkpt><trkpt lat="44.35004439056427" lon="9.785980642047459"><ele>658.0</ele><time>2026-04-11T14:18:24Z</time></trkpt><trkpt lat="44.34996615543603" lon="9.786141974389398"><ele>658.0</ele><time>2026-04-11T14:18:25Z</time></trkpt><trkpt lat="44.34989168025945" lon="9.78626728817065"><ele>658.0</ele><time>2026-04-11T14:18:26Z</time></trkpt><trkpt lat="44.34986599157501" lon="9.786354107384373"><ele>657.75</ele><time>2026-04-11T14:18:27Z</time></trkpt><trkpt lat="44.34983446278547" lon="9.786546954254483"><ele>657.5</ele><time>2026-04-11T14:18:28Z</time></trkpt><trkpt lat="44.34989713302748" lon="9.786691229247662"><ele>657.25</ele><time>2026-04-11T14:18:29Z</time></trkpt><trkpt lat="44.350012997830746" lon="9.786806638789376"><ele>657.0</ele><time>2026-04-11T14:18:30Z</time></trkpt><trkpt lat="44.3501013950308" lon="9.786981949235997"><ele>653.5</ele><time>2026-04-11T14:18:31Z</time></trkpt><trkpt lat="44.35016496276078" lon="9.78716897781918"><ele>650.0</ele><time>2026-04-11T14:18:32Z</time></trkpt><trkpt lat="44.35022255666394" lon="9.78734451607785"><ele>646.5</ele><time>2026-04-11T14:18:33Z</time></trkpt><trkpt lat="44.350217998675944" lon="9.787550282317685"><ele>643.0</ele><time>2026-04-11T14:18:34Z</time></trkpt><trkpt lat="44.350224892831385" lon="9.787753658253411"><ele>639.75</ele><time>2026-04-11T14:18:35Z</time></trkpt><trkpt lat="44.350223963576624" lon="9.787931210014316"><ele>636.5</ele><time>2026-04-11T14:18:36Z</time></trkpt><trkpt lat="44.350280627743125" lon="9.788123714154176"><ele>633.25</ele><time>2026-04-11T14:18:37Z</time></trkpt><trkpt lat="44.350358276011676" lon="9.788317933178863"><ele>630.0</ele><time>2026-04-11T14:18:38Z</time></trkpt><trkpt lat="44.350423178899604" lon="9.788520051092847"><ele>624.75</ele><time>2026-04-11T14:18:39Z</time></trkpt><trkpt lat="44.35046614500293" lon="9.788718409211514"><ele>619.5</ele><time>2026-04-11T14:18:40Z</time></trkpt><trkpt lat="44.350501547245365" lon="9.78890501745022"><ele>614.25</ele><time>2026-04-11T14:18:41Z</time></trkpt><trkpt lat="44.350525134212596" lon="9.789103489913447"><ele>609.0</ele><time>2026-04-11T14:18:42Z</time></trkpt><trkpt lat="44.350548026588484" lon="9.789283772771746"><ele>616.0</ele><time>2026-04-11T14:18:43Z</time></trkpt><trkpt lat="44.35061349171419" lon="9.789437506890648"><ele>623.0</ele><time>2026-04-11T14:18:44Z</time></trkpt><trkpt lat="44.35069261421449" lon="9.789590184178449"><ele>630.0</ele><time>2026-04-11T14:18:45Z</time></trkpt><trkpt lat="44.35074386965174" lon="9.789750577573724"><ele>637.0</ele><time>2026-04-11T14:18:46Z</time></trkpt><trkpt lat="44.35079754681661" lon="9.789862427133553"><ele>637.0</ele><time>2026-04-11T14:18:47Z</time></trkpt><trkpt lat="44.350895720162455" lon="9.789914018597441"><ele>637.0</ele><time>2026-04-11T14:18:48Z</time></trkpt><trkpt lat="44.351036359328006" lon="9.789882011806544"><ele>637.0</ele><time>2026-04-11T14:18:49Z</time></trkpt><trkpt lat="44.35115502995743" lon="9.789839204982725"><ele>637.0</ele><time>2026-04-11T14:18:50Z</time></trkpt><trkpt lat="44.35124609198011" lon="9.789760421396949"><ele>637.0</ele><time>2026-04-11T14:18:51Z</time></trkpt><trkpt lat="44.351300619879304" lon="9.789627890646651"><ele>637.0</ele><time>2026-04-11T14:18:52Z</time></trkpt><trkpt lat="44.351344507660414" lon="9.78946340094369"><ele>637.0</ele><time>2026-04-11T14:18:53Z</time></trkpt><trkpt lat="44.35142665550774" lon="9.789337327319446"><ele>637.0</ele><time>2026-04-11T14:18:54Z</time></trkpt><trkpt lat="44.351547216959645" lon="9.789277716891556"><ele>643.0</ele><time>2026-04-11T14:18:55Z</time></trkpt><trkpt lat="44.35169173193092" lon="9.789225446377314"><ele>649.0</ele><time>2026-04-11T14:18:56Z</time></trkpt><trkpt lat="44.351844405047665" lon="9.789197972581547"><ele>655.0</ele><time>2026-04-11T14:18:57Z</time></trkpt><trkpt lat="44.35199033544209" lon="9.789178556293706"><ele>655.0</ele><time>2026-04-11T14:18:58Z</time></trkpt><trkpt lat="44.35212746659782" lon="9.789156169314806"><ele>655.0</ele><time>2026-04-11T14:18:59Z</time></trkpt><trkpt lat="44.35226268918294" lon="9.789155457272072"><ele>655.0</ele><time>2026-04-11T14:19:00Z</time></trkpt><trkpt lat="44.35240524758823" lon="9.78918823112385"><ele>655.0</ele><time>2026-04-11T14:19:01Z</time></trkpt><trkpt lat="44.35255480976704" lon="9.789204192961572"><ele>650.25</ele><time>2026-04-11T14:19:02Z</time></trkpt><trkpt lat="44.35269323802662" lon="9.789218903924086"><ele>645.5</ele><time>2026-04-11T14:19:03Z</time></trkpt><trkpt lat="44.35283298327443" lon="9.78920546300827"><ele>640.75</ele><time>2026-04-11T14:19:04Z</time></trkpt><trkpt lat="44.352972403326866" lon="9.789159551721434"><ele>636.0</ele><time>2026-04-11T14:19:05Z</time></trkpt><trkpt lat="44.35312165396747" lon="9.789087346464358"><ele>633.0</ele><time>2026-04-11T14:19:06Z</time></trkpt><trkpt lat="44.35327017016249" lon="9.789040038445648"><ele>630.0</ele><time>2026-04-11T14:19:07Z</time></trkpt><trkpt lat="44.35340965918838" lon="9.789002218085397"><ele>627.0</ele><time>2026-04-11T14:19:08Z</time></trkpt><trkpt lat="44.353516705800104" lon="9.788978097007224"><ele>624.0</ele><time>2026-04-11T14:19:09Z</time></trkpt><trkpt lat="44.35359980893935" lon="9.788961588291926"><ele>624.0</ele><time>2026-04-11T14:19:10Z</time></trkpt><trkpt lat="44.353671717695896" lon="9.788999531293674"><ele>624.0</ele><time>2026-04-11T14:19:11Z</time></trkpt><trkpt lat="44.353739121324224" lon="9.7890907988212"><ele>624.0</ele><time>2026-04-11T14:19:12Z</time></trkpt><trkpt lat="44.35372624078265" lon="9.789281658677103"><ele>624.0</ele><time>2026-04-11T14:19:12.999Z</time></trkpt><trkpt lat="44.35373575283439" lon="9.789460156226962"><ele>624.0</ele><time>2026-04-11T14:19:14Z</time></trkpt><trkpt lat="44.353716845119116" lon="9.789568132102744"><ele>624.75</ele><time>2026-04-11T14:19:14.999Z</time></trkpt><trkpt lat="44.35364067982728" lon="9.7896458203441"><ele>625.5</ele><time>2026-04-11T14:19:15.999Z</time></trkpt><trkpt lat="44.35353066347266" lon="9.789673017028566"><ele>626.25</ele><time>2026-04-11T14:19:16.999Z</time></trkpt><trkpt lat="44.353395547824654" lon="9.789758125556387"><ele>627.0</ele><time>2026-04-11T14:19:17.999Z</time></trkpt><trkpt lat="44.353254615395386" lon="9.789850436712216"><ele>627.0</ele><time>2026-04-11T14:19:18.999Z</time></trkpt><trkpt lat="44.35312913214348" lon="9.789991586335786"><ele>627.0</ele><time>2026-04-11T14:19:19.999Z</time></trkpt><trkpt lat="44.3530030448113" lon="9.790163922387594"><ele>627.0</ele><time>2026-04-11T14:19:20.999Z</time></trkpt><trkpt lat="44.35286117466762" lon="9.790286629947758"><ele>623.6666666666666</ele><time>2026-04-11T14:19:21.999Z</time></trkpt><trkpt lat="44.352730069612356" lon="9.79043189048242"><ele>620.3333333333333</ele><time>2026-04-11T14:19:22.999Z</time></trkpt><trkpt lat="44.352586330863474" lon="9.790547849400554"><ele>617.0</ele><time>2026-04-11T14:19:23.999Z</time></trkpt><trkpt lat="44.35245188162945" lon="9.790657974124228"><ele>617.0</ele><time>2026-04-11T14:19:24.999Z</time></trkpt><trkpt lat="44.35233885148209" lon="9.790773896209226"><ele>617.0</ele><time>2026-04-11T14:19:25.999Z</time></trkpt><trkpt lat="44.352254628327344" lon="9.790885866863663"><ele>617.0</ele><time>2026-04-11T14:19:26.999Z</time></trkpt><trkpt lat="44.35220643482256" lon="9.791013242574673"><ele>617.0</ele><time>2026-04-11T14:19:27.999Z</time></trkpt><trkpt lat="44.35219822238447" lon="9.791197521683221"><ele>622.3333333333333</ele><time>2026-04-11T14:19:28.999Z</time></trkpt><trkpt lat="44.35221256670006" lon="9.79142089850233"><ele>627.6666666666666</ele><time>2026-04-11T14:19:29.999Z</time></trkpt><trkpt lat="44.352209555938074" lon="9.791652432230341"><ele>633.0</ele><time>2026-04-11T14:19:30.999Z</time></trkpt><trkpt lat="44.352203677913856" lon="9.791891284542881"><ele>635.0</ele><time>2026-04-11T14:19:31.999Z</time></trkpt><trkpt lat="44.35222045349496" lon="9.792086484162914"><ele>637.0</ele><time>2026-04-11T14:19:32.999Z</time></trkpt><trkpt lat="44.352191989299754" lon="9.792275245978107"><ele>639.0</ele><time>2026-04-11T14:19:33.999Z</time></trkpt><trkpt lat="44.35211990829648" lon="9.792435394635309"><ele>641.0</ele><time>2026-04-11T14:19:34.999Z</time></trkpt><trkpt lat="44.352039893903424" lon="9.79262406985544"><ele>624.25</ele><time>2026-04-11T14:19:35.999Z</time></trkpt><trkpt lat="44.35197111985637" lon="9.792802790410878"><ele>607.5</ele><time>2026-04-11T14:19:36.999Z</time></trkpt><trkpt lat="44.35195836885863" lon="9.792963981302696"><ele>590.75</ele><time>2026-04-11T14:19:37.999Z</time></trkpt><trkpt lat="44.351984771276285" lon="9.793098432670444"><ele>574.0</ele><time>2026-04-11T14:19:38.999Z</time></trkpt><trkpt lat="44.35205932913301" lon="9.793227138088648"><ele>574.0</ele><time>2026-04-11T14:19:39.999Z</time></trkpt><trkpt lat="44.35216682912942" lon="9.793377383436393"><ele>574.0</ele><time>2026-04-11T14:19:40.999Z</time></trkpt><trkpt lat="44.352246568820505" lon="9.79355991678159"><ele>574.0</ele><time>2026-04-11T14:19:41.999Z</time></trkpt><trkpt lat="44.352322231976125" lon="9.793716880737541"><ele>574.0</ele><time>2026-04-11T14:19:42.999Z</time></trkpt><trkpt lat="44.35235858869115" lon="9.793864408507234"><ele>573.25</ele><time>2026-04-11T14:19:43.999Z</time></trkpt><trkpt lat="44.352352050828806" lon="9.794017832830823"><ele>572.5</ele><time>2026-04-11T14:19:44.999Z</time></trkpt><trkpt lat="44.35224233949195" lon="9.794157859726866"><ele>571.75</ele><time>2026-04-11T14:19:45.999Z</time></trkpt><trkpt lat="44.352121217990195" lon="9.794302408027868"><ele>571.0</ele><time>2026-04-11T14:19:46.999Z</time></trkpt><trkpt lat="44.351980445759025" lon="9.794420518844673"><ele>573.75</ele><time>2026-04-11T14:19:47.999Z</time></trkpt><trkpt lat="44.351877745894726" lon="9.794536575839206"><ele>576.5</ele><time>2026-04-11T14:19:48.999Z</time></trkpt><trkpt lat="44.351815205728876" lon="9.794670345876403"><ele>579.25</ele><time>2026-04-11T14:19:49.999Z</time></trkpt><trkpt lat="44.351787391734035" lon="9.794843145068857"><ele>582.0</ele><time>2026-04-11T14:19:50.999Z</time></trkpt><trkpt lat="44.35179048603461" lon="9.795044851817172"><ele>583.0</ele><time>2026-04-11T14:19:51.999Z</time></trkpt><trkpt lat="44.351822042511124" lon="9.795248976776136"><ele>584.0</ele><time>2026-04-11T14:19:52.999Z</time></trkpt><trkpt lat="44.35184248224209" lon="9.795447945785149"><ele>585.0</ele><time>2026-04-11T14:19:53.999Z</time></trkpt><trkpt lat="44.351810451661244" lon="9.795622346704679"><ele>586.0</ele><time>2026-04-11T14:19:54.999Z</time></trkpt><trkpt lat="44.35178389571008" lon="9.795789880904357"><ele>586.0</ele><time>2026-04-11T14:19:55.999Z</time></trkpt><trkpt lat="44.3518186284207" lon="9.795947191953275"><ele>586.0</ele><time>2026-04-11T14:19:56.999Z</time></trkpt><trkpt lat="44.35191181840398" lon="9.796105013198419"><ele>586.0</ele><time>2026-04-11T14:19:57.999Z</time></trkpt><trkpt lat="44.352005746716564" lon="9.796242386033965"><ele>586.0</ele><time>2026-04-11T14:19:58.999Z</time></trkpt><trkpt lat="44.35202298460281" lon="9.796391551260761"><ele>587.0</ele><time>2026-04-11T14:19:59.999Z</time></trkpt><trkpt lat="44.35200980118087" lon="9.79655677780704"><ele>588.0</ele><time>2026-04-11T14:20:00.999Z</time></trkpt><trkpt lat="44.351908781278915" lon="9.796683271421555"><ele>589.0</ele><time>2026-04-11T14:20:01.999Z</time></trkpt><trkpt lat="44.351791237938826" lon="9.796816334987305"><ele>590.0</ele><time>2026-04-11T14:20:02.999Z</time></trkpt><trkpt lat="44.3516748621114" lon="9.796906479626665"><ele>594.0</ele><time>2026-04-11T14:20:03.999Z</time></trkpt><trkpt lat="44.35158941737885" lon="9.797028461227145"><ele>598.0</ele><time>2026-04-11T14:20:04.999Z</time></trkpt><trkpt lat="44.35153050691294" lon="9.797206114934623"><ele>602.0</ele><time>2026-04-11T14:20:05.999Z</time></trkpt><trkpt lat="44.351477299131915" lon="9.797409836071221"><ele>606.0</ele><time>2026-04-11T14:20:06.999Z</time></trkpt><trkpt lat="44.35142029487089" lon="9.797616214892228"><ele>594.25</ele><time>2026-04-11T14:20:07.999Z</time></trkpt><trkpt lat="44.351363011772776" lon="9.797808741081885"><ele>582.5</ele><time>2026-04-11T14:20:08.999Z</time></trkpt><trkpt lat="44.35131311719999" lon="9.79798834020999"><ele>570.75</ele><time>2026-04-11T14:20:09.999Z</time></trkpt><trkpt lat="44.35127848591974" lon="9.798163030038902"><ele>559.0</ele><time>2026-04-11T14:20:10.999Z</time></trkpt><trkpt lat="44.35128217341687" lon="9.798340590971677"><ele>555.0</ele><time>2026-04-11T14:20:12Z</time></trkpt><trkpt lat="44.35133292261124" lon="9.798530326616424"><ele>551.0</ele><time>2026-04-11T14:20:13Z</time></trkpt><trkpt lat="44.35139185780682" lon="9.7987203873446"><ele>547.0</ele><time>2026-04-11T14:20:14Z</time></trkpt><trkpt lat="44.3513912824268" lon="9.7989001268643"><ele>543.0</ele><time>2026-04-11T14:20:15Z</time></trkpt><trkpt lat="44.35135767830661" lon="9.79907274592509"><ele>543.0</ele><time>2026-04-11T14:20:16Z</time></trkpt><trkpt lat="44.35135797442237" lon="9.799231317556172"><ele>543.0</ele><time>2026-04-11T14:20:17Z</time></trkpt><trkpt lat="44.3514103672904" lon="9.799381632553542"><ele>543.0</ele><time>2026-04-11T14:20:18Z</time></trkpt><trkpt lat="44.35151848530012" lon="9.79950033964075"><ele>543.0</ele><time>2026-04-11T14:20:19Z</time></trkpt><trkpt lat="44.35164892603405" lon="9.799591919919573"><ele>550.0</ele><time>2026-04-11T14:20:20Z</time></trkpt><trkpt lat="44.35176327354844" lon="9.799662457833369"><ele>557.0</ele><time>2026-04-11T14:20:21Z</time></trkpt><trkpt lat="44.35182998397402" lon="9.79976595303547"><ele>564.0</ele><time>2026-04-11T14:20:22Z</time></trkpt><trkpt lat="44.3518415416923" lon="9.79988939537105"><ele>571.0</ele><time>2026-04-11T14:20:23Z</time></trkpt><trkpt lat="44.351830894998706" lon="9.800038441354381"><ele>578.0</ele><time>2026-04-11T14:20:24Z</time></trkpt><trkpt lat="44.351747525323425" lon="9.80018753589385"><ele>578.0</ele><time>2026-04-11T14:20:25Z</time></trkpt><trkpt lat="44.35169970295388" lon="9.800336022360886"><ele>578.0</ele><time>2026-04-11T14:20:26Z</time></trkpt><trkpt lat="44.35170113264432" lon="9.800531357566957"><ele>578.0</ele><time>2026-04-11T14:20:27Z</time></trkpt><trkpt lat="44.351751891943515" lon="9.800736538522543"><ele>578.0</ele><time>2026-04-11T14:20:28Z</time></trkpt><trkpt lat="44.35181796191358" lon="9.8009226893623"><ele>580.25</ele><time>2026-04-11T14:20:29Z</time></trkpt><trkpt lat="44.351896643176225" lon="9.8010830806507"><ele>582.5</ele><time>2026-04-11T14:20:30Z</time></trkpt><trkpt lat="44.35200185370119" lon="9.801204904919585"><ele>584.75</ele><time>2026-04-11T14:20:31Z</time></trkpt><trkpt lat="44.352130163510616" lon="9.801294012259502"><ele>587.0</ele><time>2026-04-11T14:20:32Z</time></trkpt><trkpt lat="44.35228226790526" lon="9.801355818626016"><ele>587.0</ele><time>2026-04-11T14:20:33Z</time></trkpt><trkpt lat="44.352406691045104" lon="9.801452121904397"><ele>587.0</ele><time>2026-04-11T14:20:34Z</time></trkpt><trkpt lat="44.35252323193023" lon="9.801554385185662"><ele>587.0</ele><time>2026-04-11T14:20:35Z</time></trkpt><trkpt lat="44.35261078733905" lon="9.801689236908656"><ele>587.0</ele><time>2026-04-11T14:20:36Z</time></trkpt><trkpt lat="44.35266341479695" lon="9.801844160604617"><ele>582.75</ele><time>2026-04-11T14:20:37Z</time></trkpt><trkpt lat="44.35267676245289" lon="9.80202169883592"><ele>578.5</ele><time>2026-04-11T14:20:38Z</time></trkpt><trkpt lat="44.35265056897141" lon="9.802201792595472"><ele>574.25</ele><time>2026-04-11T14:20:39Z</time></trkpt><trkpt lat="44.352647904473216" lon="9.802391762561788"><ele>570.0</ele><time>2026-04-11T14:20:40Z</time></trkpt><trkpt lat="44.352668628426" lon="9.80257456536709"><ele>563.25</ele><time>2026-04-11T14:20:41Z</time></trkpt><trkpt lat="44.352719513727926" lon="9.802748117127543"><ele>556.5</ele><time>2026-04-11T14:20:42Z</time></trkpt><trkpt lat="44.35280006258058" lon="9.802906335855536"><ele>549.75</ele><time>2026-04-11T14:20:43Z</time></trkpt><trkpt lat="44.352848808596725" lon="9.803078786932293"><ele>543.0</ele><time>2026-04-11T14:20:44Z</time></trkpt><trkpt lat="44.352879220776366" lon="9.80325119323357"><ele>543.0</ele><time>2026-04-11T14:20:45Z</time></trkpt><trkpt lat="44.352918336213264" lon="9.803366354509384"><ele>543.0</ele><time>2026-04-11T14:20:46Z</time></trkpt><trkpt lat="44.35298545881961" lon="9.803437688708195"><ele>543.0</ele><time>2026-04-11T14:20:47Z</time></trkpt><trkpt lat="44.35309649221047" lon="9.803447840219386"><ele>543.0</ele><time>2026-04-11T14:20:48Z</time></trkpt><trkpt lat="44.35320794809932" lon="9.80338443349866"><ele>543.0</ele><time>2026-04-11T14:20:49Z</time></trkpt><trkpt lat="44.35330933611882" lon="9.803265901528457"><ele>550.0</ele><time>2026-04-11T14:20:50Z</time></trkpt><trkpt lat="44.353411700008564" lon="9.803175241051463"><ele>557.0</ele><time>2026-04-11T14:20:51Z</time></trkpt><trkpt lat="44.35349591402518" lon="9.803136477602202"><ele>564.0</ele><time>2026-04-11T14:20:52Z</time></trkpt><trkpt lat="44.35358182666754" lon="9.803194363349467"><ele>571.0</ele><time>2026-04-11T14:20:53Z</time></trkpt><trkpt lat="44.353701548900304" lon="9.803292104618256"><ele>578.0</ele><time>2026-04-11T14:20:54Z</time></trkpt><trkpt lat="44.353833848475496" lon="9.803412646344027"><ele>569.6666666666666</ele><time>2026-04-11T14:20:55Z</time></trkpt><trkpt lat="44.35397215796969" lon="9.803529422036874"><ele>561.3333333333334</ele><time>2026-04-11T14:20:56Z</time></trkpt><trkpt lat="44.354095200022236" lon="9.803661371267907"><ele>553.0</ele><time>2026-04-11T14:20:57Z</time></trkpt><trkpt lat="44.354206257777896" lon="9.803795143901251"><ele>553.0</ele><time>2026-04-11T14:20:58Z</time></trkpt><trkpt lat="44.354314255975794" lon="9.803913156256582"><ele>553.0</ele><time>2026-04-11T14:20:59Z</time></trkpt><trkpt lat="44.35442987531059" lon="9.804012536086251"><ele>553.0</ele><time>2026-04-11T14:21:00Z</time></trkpt><trkpt lat="44.35456029554287" lon="9.804088505909418"><ele>553.0</ele><time>2026-04-11T14:21:01Z</time></trkpt><trkpt lat="44.354712881230796" lon="9.804133540209921"><ele>550.5</ele><time>2026-04-11T14:21:02Z</time></trkpt><trkpt lat="44.354850800223595" lon="9.804173384130662"><ele>548.0</ele><time>2026-04-11T14:21:03Z</time></trkpt><trkpt lat="44.35495974197233" lon="9.804297367730896"><ele>545.5</ele><time>2026-04-11T14:21:04Z</time></trkpt><trkpt lat="44.35506281702101" lon="9.804435665079646"><ele>543.0</ele><time>2026-04-11T14:21:05Z</time></trkpt><trkpt lat="44.35514427312331" lon="9.80458498955664"><ele>543.0</ele><time>2026-04-11T14:21:06Z</time></trkpt><trkpt lat="44.35523175647615" lon="9.804687062590265"><ele>543.0</ele><time>2026-04-11T14:21:07Z</time></trkpt><trkpt lat="44.355346987022514" lon="9.804748467489514"><ele>543.0</ele><time>2026-04-11T14:21:08Z</time></trkpt><trkpt lat="44.355479468913515" lon="9.8047908618334"><ele>543.0</ele><time>2026-04-11T14:21:09Z</time></trkpt><trkpt lat="44.35560028011107" lon="9.804817725427382"><ele>545.0</ele><time>2026-04-11T14:21:10Z</time></trkpt><trkpt lat="44.3556991285036" lon="9.804821284922207"><ele>547.0</ele><time>2026-04-11T14:21:11Z</time></trkpt><trkpt lat="44.35577674685556" lon="9.804760822707351"><ele>549.0</ele><time>2026-04-11T14:21:12Z</time></trkpt><trkpt lat="44.35583754647238" lon="9.80461446958614"><ele>551.0</ele><time>2026-04-11T14:21:13Z</time></trkpt><trkpt lat="44.35587859309016" lon="9.804426227557222"><ele>553.0</ele><time>2026-04-11T14:21:14Z</time></trkpt><trkpt lat="44.35594602909612" lon="9.80424773352239"><ele>558.5</ele><time>2026-04-11T14:21:15Z</time></trkpt><trkpt lat="44.35602377496023" lon="9.804089080439013"><ele>564.0</ele><time>2026-04-11T14:21:16Z</time></trkpt><trkpt lat="44.35613095930287" lon="9.80397053244"><ele>569.5</ele><time>2026-04-11T14:21:17Z</time></trkpt><trkpt lat="44.35624651966711" lon="9.803853377139427"><ele>575.0</ele><time>2026-04-11T14:21:18Z</time></trkpt><trkpt lat="44.35636726015589" lon="9.80373996932377"><ele>575.25</ele><time>2026-04-11T14:21:19Z</time></trkpt><trkpt lat="44.35649077938205" lon="9.803638149045458"><ele>575.5</ele><time>2026-04-11T14:21:19.999Z</time></trkpt><trkpt lat="44.35662123666427" lon="9.803543221598257"><ele>575.75</ele><time>2026-04-11T14:21:20.999Z</time></trkpt><trkpt lat="44.35674918550334" lon="9.803456654987388"><ele>576.0</ele><time>2026-04-11T14:21:21.999Z</time></trkpt><trkpt lat="44.3568713344294" lon="9.803418478386673"><ele>576.0</ele><time>2026-04-11T14:21:22.999Z</time></trkpt><trkpt lat="44.356980967815126" lon="9.803402361188871"><ele>576.0</ele><time>2026-04-11T14:21:23.999Z</time></trkpt><trkpt lat="44.3570679291966" lon="9.80349817941648"><ele>576.0</ele><time>2026-04-11T14:21:24.999Z</time></trkpt><trkpt lat="44.357167083219885" lon="9.803601244986778"><ele>576.0</ele><time>2026-04-11T14:21:25.999Z</time></trkpt><trkpt lat="44.35723634341352" lon="9.803714139917677"><ele>574.8</ele><time>2026-04-11T14:21:26.999Z</time></trkpt><trkpt lat="44.357242097045386" lon="9.80385500422976"><ele>573.6</ele><time>2026-04-11T14:21:27.999Z</time></trkpt><trkpt lat="44.35723441272299" lon="9.804020555580847"><ele>572.4</ele><time>2026-04-11T14:21:28.999Z</time></trkpt><trkpt lat="44.35724031556341" lon="9.80416364559591"><ele>571.2</ele><time>2026-04-11T14:21:29.999Z</time></trkpt><trkpt lat="44.35729006375469" lon="9.804279629028043"><ele>570.0</ele><time>2026-04-11T14:21:30.999Z</time></trkpt><trkpt lat="44.35739202612932" lon="9.804342979610695"><ele>566.5</ele><time>2026-04-11T14:21:31.999Z</time></trkpt><trkpt lat="44.35752884450315" lon="9.804356344151898"><ele>563.0</ele><time>2026-04-11T14:21:32.999Z</time></trkpt><trkpt lat="44.35766893237724" lon="9.804360401044788"><ele>559.5</ele><time>2026-04-11T14:21:33.999Z</time></trkpt><trkpt lat="44.35777936781295" lon="9.80444109227093"><ele>556.0</ele><time>2026-04-11T14:21:34.999Z</time></trkpt><trkpt lat="44.35788192245489" lon="9.804513268980308"><ele>556.0</ele><time>2026-04-11T14:21:35.999Z</time></trkpt><trkpt lat="44.357932164845394" lon="9.804645311404483"><ele>556.0</ele><time>2026-04-11T14:21:36.999Z</time></trkpt><trkpt lat="44.35795637612635" lon="9.804778759414479"><ele>556.0</ele><time>2026-04-11T14:21:37.999Z</time></trkpt><trkpt lat="44.35792897608822" lon="9.804915858071745"><ele>556.0</ele><time>2026-04-11T14:21:38.999Z</time></trkpt><trkpt lat="44.35781419446402" lon="9.805014377727144"><ele>556.0</ele><time>2026-04-11T14:21:39.999Z</time></trkpt><trkpt lat="44.357739407202125" lon="9.80515406003521"><ele>555.5</ele><time>2026-04-11T14:21:40.999Z</time></trkpt><trkpt lat="44.35766457517553" lon="9.80530496868657"><ele>555.0</ele><time>2026-04-11T14:21:41.999Z</time></trkpt><trkpt lat="44.35761588157967" lon="9.80549647240938"><ele>554.5</ele><time>2026-04-11T14:21:42.999Z</time></trkpt><trkpt lat="44.357567845401256" lon="9.80569229468526"><ele>554.0</ele><time>2026-04-11T14:21:43.999Z</time></trkpt><trkpt lat="44.35749538717207" lon="9.805865788872804"><ele>553.5</ele><time>2026-04-11T14:21:44.999Z</time></trkpt><trkpt lat="44.35742423965703" lon="9.806020014620877"><ele>553.0</ele><time>2026-04-11T14:21:45.999Z</time></trkpt><trkpt lat="44.357398401810116" lon="9.806205906898839"><ele>552.5</ele><time>2026-04-11T14:21:46.999Z</time></trkpt><trkpt lat="44.357407180378" lon="9.806379567811533"><ele>552.0</ele><time>2026-04-11T14:21:47.999Z</time></trkpt><trkpt lat="44.357457330748225" lon="9.806522990537243"><ele>552.0</ele><time>2026-04-11T14:21:48.999Z</time></trkpt><trkpt lat="44.35755610877204" lon="9.806650733284895"><ele>552.0</ele><time>2026-04-11T14:21:49.999Z</time></trkpt><trkpt lat="44.35762282975442" lon="9.806800202261922"><ele>552.0</ele><time>2026-04-11T14:21:50.999Z</time></trkpt><trkpt lat="44.35763914832408" lon="9.806967582680425"><ele>552.0</ele><time>2026-04-11T14:21:51.999Z</time></trkpt><trkpt lat="44.3576730541867" lon="9.807109036535511"><ele>546.0</ele><time>2026-04-11T14:21:52.999Z</time></trkpt><trkpt lat="44.35774511864371" lon="9.807210492512663"><ele>540.0</ele><time>2026-04-11T14:21:53.999Z</time></trkpt><trkpt lat="44.35787526329098" lon="9.807290458569613"><ele>534.0</ele><time>2026-04-11T14:21:54.999Z</time></trkpt><trkpt lat="44.35798012933863" lon="9.807397287297393"><ele>528.0</ele><time>2026-04-11T14:21:55.999Z</time></trkpt><trkpt lat="44.358060286940336" lon="9.80753882031669"><ele>536.5</ele><time>2026-04-11T14:21:56.999Z</time></trkpt><trkpt lat="44.35810480195225" lon="9.80772267097755"><ele>545.0</ele><time>2026-04-11T14:21:57.999Z</time></trkpt><trkpt lat="44.358168090553114" lon="9.80789219963746"><ele>553.5</ele><time>2026-04-11T14:21:58.999Z</time></trkpt><trkpt lat="44.35825420553328" lon="9.808026053478631"><ele>562.0</ele><time>2026-04-11T14:21:59.999Z</time></trkpt><trkpt lat="44.35836484158752" lon="9.808145297425119"><ele>562.0</ele><time>2026-04-11T14:22:00.999Z</time></trkpt><trkpt lat="44.3584264633382" lon="9.8082773821697"><ele>562.0</ele><time>2026-04-11T14:22:01.999Z</time></trkpt><trkpt lat="44.35846050012557" lon="9.808399193326782"><ele>562.0</ele><time>2026-04-11T14:22:02.999Z</time></trkpt><trkpt lat="44.35839457247987" lon="9.80855129609433"><ele>562.0</ele><time>2026-04-11T14:22:03.999Z</time></trkpt><trkpt lat="44.358316721033944" lon="9.80871247143309"><ele>559.75</ele><time>2026-04-11T14:22:04.999Z</time></trkpt><trkpt lat="44.358248136603116" lon="9.80889574096381"><ele>557.5</ele><time>2026-04-11T14:22:05.999Z</time></trkpt><trkpt lat="44.35820307600061" lon="9.809059059992059"><ele>555.25</ele><time>2026-04-11T14:22:06.999Z</time></trkpt><trkpt lat="44.35820554304868" lon="9.809204353208186"><ele>553.0</ele><time>2026-04-11T14:22:07.999Z</time></trkpt><trkpt lat="44.358261003798944" lon="9.809318911512856"><ele>549.75</ele><time>2026-04-11T14:22:08.999Z</time></trkpt><trkpt lat="44.358373709157675" lon="9.809398955874885"><ele>546.5</ele><time>2026-04-11T14:22:09.999Z</time></trkpt><trkpt lat="44.35851256234859" lon="9.809463130583305"><ele>543.25</ele><time>2026-04-11T14:22:10.999Z</time></trkpt><trkpt lat="44.35864576032025" lon="9.809585317083855"><ele>540.0</ele><time>2026-04-11T14:22:11.999Z</time></trkpt><trkpt lat="44.35877164068135" lon="9.8096850061247"><ele>540.0</ele><time>2026-04-11T14:22:12.999Z</time></trkpt><trkpt lat="44.35886583268493" lon="9.809777095609173"><ele>540.0</ele><time>2026-04-11T14:22:13.999Z</time></trkpt><trkpt lat="44.35892051105837" lon="9.8098675909592"><ele>540.0</ele><time>2026-04-11T14:22:14.999Z</time></trkpt><trkpt lat="44.35891564114296" lon="9.809979388232264"><ele>540.0</ele><time>2026-04-11T14:22:15.999Z</time></trkpt><trkpt lat="44.35886491702529" lon="9.810115309638135"><ele>540.0</ele><time>2026-04-11T14:22:16.999Z</time></trkpt><trkpt lat="44.358758934611984" lon="9.81023817889175"><ele>539.0</ele><time>2026-04-11T14:22:18Z</time></trkpt><trkpt lat="44.35866930760055" lon="9.810397164407693"><ele>538.0</ele><time>2026-04-11T14:22:19Z</time></trkpt><trkpt lat="44.358581823918364" lon="9.810544945681649"><ele>537.0</ele><time>2026-04-11T14:22:20Z</time></trkpt><trkpt lat="44.35852859431586" lon="9.81067943613672"><ele>536.0</ele><time>2026-04-11T14:22:21Z</time></trkpt><trkpt lat="44.358502135105724" lon="9.810834189595301"><ele>532.3333333333333</ele><time>2026-04-11T14:22:22Z</time></trkpt><trkpt lat="44.35852254058361" lon="9.811015691496044"><ele>528.6666666666666</ele><time>2026-04-11T14:22:23Z</time></trkpt><trkpt lat="44.35860275434431" lon="9.811200621836122"><ele>525.0</ele><time>2026-04-11T14:22:24Z</time></trkpt><trkpt lat="44.35871539791049" lon="9.811377378569777"><ele>525.0</ele><time>2026-04-11T14:22:25Z</time></trkpt><trkpt lat="44.35877699664957" lon="9.811597329000731"><ele>525.0</ele><time>2026-04-11T14:22:26Z</time></trkpt><trkpt lat="44.3588343238727" lon="9.811830678620954"><ele>525.0</ele><time>2026-04-11T14:22:27Z</time></trkpt><trkpt lat="44.35890028490096" lon="9.812053021615617"><ele>538.0</ele><time>2026-04-11T14:22:28Z</time></trkpt><trkpt lat="44.35895384822747" lon="9.812262517582932"><ele>551.0</ele><time>2026-04-11T14:22:29Z</time></trkpt><trkpt lat="44.358966311471384" lon="9.81246340087494"><ele>564.0</ele><time>2026-04-11T14:22:30Z</time></trkpt><trkpt lat="44.35898388302995" lon="9.81265312366752"><ele>577.0</ele><time>2026-04-11T14:22:31Z</time></trkpt><trkpt lat="44.35890459982048" lon="9.812842292454182"><ele>565.75</ele><time>2026-04-11T14:22:32Z</time></trkpt><trkpt lat="44.358840258713116" lon="9.813056996919721"><ele>554.5</ele><time>2026-04-11T14:22:33Z</time></trkpt><trkpt lat="44.358763353268955" lon="9.81323263034589"><ele>543.25</ele><time>2026-04-11T14:22:34Z</time></trkpt><trkpt lat="44.35869841452818" lon="9.81338756701014"><ele>532.0</ele><time>2026-04-11T14:22:35Z</time></trkpt><trkpt lat="44.35865152810789" lon="9.813520209261485"><ele>527.75</ele><time>2026-04-11T14:22:36Z</time></trkpt><trkpt lat="44.3586430086933" lon="9.813631458125052"><ele>523.5</ele><time>2026-04-11T14:22:37Z</time></trkpt><trkpt lat="44.358683472491926" lon="9.813769430259333"><ele>519.25</ele><time>2026-04-11T14:22:38Z</time></trkpt><trkpt lat="44.35877522837269" lon="9.813916495450592"><ele>515.0</ele><time>2026-04-11T14:22:39Z</time></trkpt><trkpt lat="44.358879546319564" lon="9.814077823827098"><ele>515.25</ele><time>2026-04-11T14:22:40Z</time></trkpt><trkpt lat="44.35897846900183" lon="9.814231748740847"><ele>515.5</ele><time>2026-04-11T14:22:41Z</time></trkpt><trkpt lat="44.359069382279664" lon="9.814369767630295"><ele>515.75</ele><time>2026-04-11T14:22:42Z</time></trkpt><trkpt lat="44.359161843912005" lon="9.814463720111881"><ele>516.0</ele><time>2026-04-11T14:22:43Z</time></trkpt><trkpt lat="44.35925187427352" lon="9.814500925666735"><ele>516.0</ele><time>2026-04-11T14:22:44Z</time></trkpt><trkpt lat="44.3593509866759" lon="9.814512117856623"><ele>516.0</ele><time>2026-04-11T14:22:45Z</time></trkpt><trkpt lat="44.35947058185626" lon="9.814544939285705"><ele>516.0</ele><time>2026-04-11T14:22:46Z</time></trkpt><trkpt lat="44.359594328490566" lon="9.814590894805171"><ele>516.0</ele><time>2026-04-11T14:22:47Z</time></trkpt><trkpt lat="44.35972514403614" lon="9.814620369055302"><ele>525.0</ele><time>2026-04-11T14:22:48Z</time></trkpt><trkpt lat="44.35986147402551" lon="9.8145991675134"><ele>534.0</ele><time>2026-04-11T14:22:49Z</time></trkpt><trkpt lat="44.360000684816306" lon="9.814599597996757"><ele>543.0</ele><time>2026-04-11T14:22:50Z</time></trkpt><trkpt lat="44.36013191187851" lon="9.814623707583003"><ele>552.0</ele><time>2026-04-11T14:22:51Z</time></trkpt><trkpt lat="44.360233976277875" lon="9.814699302841754"><ele>552.0</ele><time>2026-04-11T14:22:52Z</time></trkpt><trkpt lat="44.360290891459485" lon="9.814825720991749"><ele>552.0</ele><time>2026-04-11T14:22:53Z</time></trkpt><trkpt lat="44.36033283052215" lon="9.814985821246559"><ele>552.0</ele><time>2026-04-11T14:22:54Z</time></trkpt><trkpt lat="44.36036078425707" lon="9.815127706614179"><ele>552.0</ele><time>2026-04-11T14:22:55Z</time></trkpt><trkpt lat="44.360406587838014" lon="9.81523785619293"><ele>552.0</ele><time>2026-04-11T14:22:56Z</time></trkpt><trkpt lat="44.36050343942488" lon="9.815310881315646"><ele>547.6666666666666</ele><time>2026-04-11T14:22:57Z</time></trkpt><trkpt lat="44.36064590978215" lon="9.815353174519021"><ele>543.3333333333333</ele><time>2026-04-11T14:22:58Z</time></trkpt><trkpt lat="44.360797415207124" lon="9.815408214100454"><ele>539.0</ele><time>2026-04-11T14:22:59Z</time></trkpt><trkpt lat="44.36093871741506" lon="9.815544713745432"><ele>539.0</ele><time>2026-04-11T14:23:00Z</time></trkpt><trkpt lat="44.36106923249326" lon="9.815700757489545"><ele>539.0</ele><time>2026-04-11T14:23:01Z</time></trkpt><trkpt lat="44.36121509788885" lon="9.815844599339092"><ele>539.0</ele><time>2026-04-11T14:23:02Z</time></trkpt><trkpt lat="44.36134609544901" lon="9.815968013053888"><ele>534.25</ele><time>2026-04-11T14:23:03Z</time></trkpt><trkpt lat="44.361457411297266" lon="9.816066575526197"><ele>529.5</ele><time>2026-04-11T14:23:04Z</time></trkpt><trkpt lat="44.361571784346864" lon="9.816133154590283"><ele>524.75</ele><time>2026-04-11T14:23:05Z</time></trkpt><trkpt lat="44.36169255167543" lon="9.816112591690663"><ele>520.0</ele><time>2026-04-11T14:23:06Z</time></trkpt><trkpt lat="44.36182448718047" lon="9.816041986938785"><ele>533.3333333333334</ele><time>2026-04-11T14:23:07Z</time></trkpt><trkpt lat="44.36195520952151" lon="9.815928587034492"><ele>546.6666666666666</ele><time>2026-04-11T14:23:08Z</time></trkpt><trkpt lat="44.36206586791103" lon="9.815785030056139"><ele>560.0</ele><time>2026-04-11T14:23:09Z</time></trkpt><trkpt lat="44.36215873291375" lon="9.815599443810811"><ele>560.6666666666666</ele><time>2026-04-11T14:23:10Z</time></trkpt><trkpt lat="44.3622190135462" lon="9.815391006160779"><ele>561.3333333333334</ele><time>2026-04-11T14:23:11Z</time></trkpt><trkpt lat="44.36228817772797" lon="9.815208068836286"><ele>562.0</ele><time>2026-04-11T14:23:12Z</time></trkpt><trkpt lat="44.362411422076015" lon="9.815072623836329"><ele>562.0</ele><time>2026-04-11T14:23:13Z</time></trkpt><trkpt lat="44.362551923438865" lon="9.814935760948961"><ele>562.0</ele><time>2026-04-11T14:23:14Z</time></trkpt><trkpt lat="44.362691528186176" lon="9.814800778556998"><ele>562.0</ele><time>2026-04-11T14:23:15Z</time></trkpt><trkpt lat="44.3628433048729" lon="9.814681995473096"><ele>562.0</ele><time>2026-04-11T14:23:16Z</time></trkpt><trkpt lat="44.362994520319035" lon="9.814542827493943"><ele>562.0</ele><time>2026-04-11T14:23:17Z</time></trkpt><trkpt lat="44.3631371391727" lon="9.81441216251732"><ele>562.0</ele><time>2026-04-11T14:23:18Z</time></trkpt><trkpt lat="44.363268292568705" lon="9.8142865124167"><ele>563.5</ele><time>2026-04-11T14:23:19Z</time></trkpt><trkpt lat="44.363405800115494" lon="9.814211947964479"><ele>565.0</ele><time>2026-04-11T14:23:20Z</time></trkpt><trkpt lat="44.36354363159488" lon="9.814156595509203"><ele>566.5</ele><time>2026-04-11T14:23:21Z</time></trkpt><trkpt lat="44.363695547420626" lon="9.8141040948426"><ele>568.0</ele><time>2026-04-11T14:23:22Z</time></trkpt><trkpt lat="44.36383846437641" lon="9.814068540819537"><ele>562.25</ele><time>2026-04-11T14:23:23Z</time></trkpt><trkpt lat="44.36397306530872" lon="9.814000931420033"><ele>556.5</ele><time>2026-04-11T14:23:24Z</time></trkpt><trkpt lat="44.36408979916134" lon="9.813878390778992"><ele>550.75</ele><time>2026-04-11T14:23:25Z</time></trkpt><trkpt lat="44.36419450623912" lon="9.81372027132763"><ele>545.0</ele><time>2026-04-11T14:23:25.999Z</time></trkpt><trkpt lat="44.364270737605814" lon="9.813537690114416"><ele>552.25</ele><time>2026-04-11T14:23:26.999Z</time></trkpt><trkpt lat="44.36432322327504" lon="9.81333420046718"><ele>559.5</ele><time>2026-04-11T14:23:27.999Z</time></trkpt><trkpt lat="44.36435888893611" lon="9.813142627622915"><ele>566.75</ele><time>2026-04-11T14:23:28.999Z</time></trkpt><trkpt lat="44.364462276088126" lon="9.813002375085944"><ele>574.0</ele><time>2026-04-11T14:23:29.999Z</time></trkpt><trkpt lat="44.3645756417856" lon="9.81283660693455"><ele>574.0</ele><time>2026-04-11T14:23:30.999Z</time></trkpt><trkpt lat="44.364670933074194" lon="9.812679617282344"><ele>574.0</ele><time>2026-04-11T14:23:31.999Z</time></trkpt><trkpt lat="44.364742218915104" lon="9.812565016253657"><ele>574.0</ele><time>2026-04-11T14:23:32.999Z</time></trkpt><trkpt lat="44.3648151778542" lon="9.812508051198654"><ele>574.0</ele><time>2026-04-11T14:23:33.999Z</time></trkpt><trkpt lat="44.364890061220144" lon="9.812486238005972"><ele>574.0</ele><time>2026-04-11T14:23:34.999Z</time></trkpt><trkpt lat="44.364971781348764" lon="9.81260481358419"><ele>569.4</ele><time>2026-04-11T14:23:35.999Z</time></trkpt><trkpt lat="44.365076203694215" lon="9.812687326515645"><ele>564.8</ele><time>2026-04-11T14:23:36.999Z</time></trkpt><trkpt lat="44.3651533136037" lon="9.81275775879951"><ele>560.2</ele><time>2026-04-11T14:23:37.999Z</time></trkpt><trkpt lat="44.365195866906326" lon="9.812842964504485"><ele>555.6</ele><time>2026-04-11T14:23:38.999Z</time></trkpt><trkpt lat="44.36513842170226" lon="9.812969629329276"><ele>551.0</ele><time>2026-04-11T14:23:39.999Z</time></trkpt><trkpt lat="44.365086660908766" lon="9.813112418459344"><ele>551.0</ele><time>2026-04-11T14:23:40.999Z</time></trkpt><trkpt lat="44.36504144893463" lon="9.813286432112587"><ele>551.0</ele><time>2026-04-11T14:23:41.999Z</time></trkpt><trkpt lat="44.36499514976092" lon="9.81346881933443"><ele>551.0</ele><time>2026-04-11T14:23:42.999Z</time></trkpt><trkpt lat="44.3649469693861" lon="9.81365740511098"><ele>551.0</ele><time>2026-04-11T14:23:43.999Z</time></trkpt><trkpt lat="44.364897121676655" lon="9.813849114519"><ele>552.75</ele><time>2026-04-11T14:23:44.999Z</time></trkpt><trkpt lat="44.36485446982481" lon="9.814037721908385"><ele>554.5</ele><time>2026-04-11T14:23:45.999Z</time></trkpt><trkpt lat="44.364821572376876" lon="9.814228831350663"><ele>556.25</ele><time>2026-04-11T14:23:46.999Z</time></trkpt><trkpt lat="44.36482427198933" lon="9.814434209540272"><ele>558.0</ele><time>2026-04-11T14:23:47.999Z</time></trkpt><trkpt lat="44.36484849745265" lon="9.814663209034725"><ele>558.0</ele><time>2026-04-11T14:23:48.999Z</time></trkpt><trkpt lat="44.36485706250654" lon="9.81488369297153"><ele>558.0</ele><time>2026-04-11T14:23:49.999Z</time></trkpt><trkpt lat="44.36490413869441" lon="9.815108392513332"><ele>558.0</ele><time>2026-04-11T14:23:50.999Z</time></trkpt><trkpt lat="44.36494660212448" lon="9.815300712696262"><ele>558.0</ele><time>2026-04-11T14:23:51.999Z</time></trkpt><trkpt lat="44.36495338695505" lon="9.815500914337568"><ele>558.0</ele><time>2026-04-11T14:23:52.999Z</time></trkpt><trkpt lat="44.36492422526516" lon="9.815708233507504"><ele>558.0</ele><time>2026-04-11T14:23:53.999Z</time></trkpt><trkpt lat="44.36485399870399" lon="9.815929263230103"><ele>560.0</ele><time>2026-04-11T14:23:54.999Z</time></trkpt><trkpt lat="44.36475942385231" lon="9.816130924014974"><ele>562.0</ele><time>2026-04-11T14:23:55.999Z</time></trkpt><trkpt lat="44.36469618477886" lon="9.816309085800517"><ele>564.0</ele><time>2026-04-11T14:23:56.999Z</time></trkpt><trkpt lat="44.36463889560626" lon="9.81647804886533"><ele>566.0</ele><time>2026-04-11T14:23:57.999Z</time></trkpt><trkpt lat="44.36464248111699" lon="9.816676761110442"><ele>567.0</ele><time>2026-04-11T14:23:58.999Z</time></trkpt><trkpt lat="44.36468097104404" lon="9.816885479070923"><ele>568.0</ele><time>2026-04-11T14:23:59.999Z</time></trkpt><trkpt lat="44.364725105942824" lon="9.817098474475323"><ele>569.0</ele><time>2026-04-11T14:24:00.999Z</time></trkpt><trkpt lat="44.364728260063444" lon="9.8173148393952"><ele>569.0</ele><time>2026-04-11T14:24:01.999Z</time></trkpt><trkpt lat="44.36474531548629" lon="9.817544252423863"><ele>569.0</ele><time>2026-04-11T14:24:02.999Z</time></trkpt><trkpt lat="44.364750916756144" lon="9.817768101409122"><ele>569.0</ele><time>2026-04-11T14:24:03.999Z</time></trkpt><trkpt lat="44.36477178243653" lon="9.817988734360444"><ele>567.3333333333333</ele><time>2026-04-11T14:24:04.999Z</time></trkpt><trkpt lat="44.36482795511387" lon="9.818206281474884"><ele>565.6666666666666</ele><time>2026-04-11T14:24:05.999Z</time></trkpt><trkpt lat="44.364900284597375" lon="9.818383171868298"><ele>564.0</ele><time>2026-04-11T14:24:06.999Z</time></trkpt><trkpt lat="44.364909802969656" lon="9.818608634991724"><ele>561.75</ele><time>2026-04-11T14:24:07.999Z</time></trkpt><trkpt lat="44.36491723110743" lon="9.818825909879994"><ele>559.5</ele><time>2026-04-11T14:24:08.999Z</time></trkpt><trkpt lat="44.36493295748632" lon="9.818979508216545"><ele>557.25</ele><time>2026-04-11T14:24:09.999Z</time></trkpt><trkpt lat="44.36496754208231" lon="9.819119441180689"><ele>555.0</ele><time>2026-04-11T14:24:10.999Z</time></trkpt><trkpt lat="44.364951397618675" lon="9.819465825995787"><ele>553.0</ele><time>2026-04-11T14:24:11.999Z</time></trkpt><trkpt lat="44.36491160451229" lon="9.819659028269665"><ele>551.0</ele><time>2026-04-11T14:24:12.999Z</time></trkpt><trkpt lat="44.364887660462095" lon="9.819842160667974"><ele>549.0</ele><time>2026-04-11T14:24:13.999Z</time></trkpt><trkpt lat="44.3648766917507" lon="9.81998728121932"><ele>547.0</ele><time>2026-04-11T14:24:14.999Z</time></trkpt><trkpt lat="44.36491689112384" lon="9.82009888036421"><ele>547.0</ele><time>2026-04-11T14:24:15.999Z</time></trkpt><trkpt lat="44.36499978933886" lon="9.820172495251983"><ele>547.0</ele><time>2026-04-11T14:24:16.999Z</time></trkpt><trkpt lat="44.36512471825589" lon="9.820164723536411"><ele>547.0</ele><time>2026-04-11T14:24:17.999Z</time></trkpt><trkpt lat="44.36525972079095" lon="9.820166379087363"><ele>547.0</ele><time>2026-04-11T14:24:18.999Z</time></trkpt><trkpt lat="44.36539689009637" lon="9.820133253513418"><ele>546.0</ele><time>2026-04-11T14:24:19.999Z</time></trkpt><trkpt lat="44.365519385452544" lon="9.82015209443591"><ele>545.0</ele><time>2026-04-11T14:24:20.999Z</time></trkpt><trkpt lat="44.36566609987411" lon="9.820189259466503"><ele>544.0</ele><time>2026-04-11T14:24:21.999Z</time></trkpt><trkpt lat="44.36573420296077" lon="9.820409092766528"><ele>543.0</ele><time>2026-04-11T14:24:22.999Z</time></trkpt><trkpt lat="44.365808702085296" lon="9.820617774357787"><ele>543.0</ele><time>2026-04-11T14:24:24Z</time></trkpt><trkpt lat="44.36587978715834" lon="9.820797348226813"><ele>543.0</ele><time>2026-04-11T14:24:25Z</time></trkpt><trkpt lat="44.365974972496424" lon="9.820956101130609"><ele>543.0</ele><time>2026-04-11T14:24:26Z</time></trkpt><trkpt lat="44.36608963625826" lon="9.821078305781128"><ele>543.0</ele><time>2026-04-11T14:24:27Z</time></trkpt><trkpt lat="44.366241575803855" lon="9.821114192277319"><ele>539.3333333333334</ele><time>2026-04-11T14:24:28Z</time></trkpt><trkpt lat="44.36640563784728" lon="9.821151841789481"><ele>535.6666666666667</ele><time>2026-04-11T14:24:29Z</time></trkpt><trkpt lat="44.36657434271887" lon="9.821197060662682"><ele>532.0</ele><time>2026-04-11T14:24:30Z</time></trkpt><trkpt lat="44.36673037603035" lon="9.821287191547945"><ele>532.0</ele><time>2026-04-11T14:24:31Z</time></trkpt><trkpt lat="44.36688288611394" lon="9.821389888999793"><ele>532.0</ele><time>2026-04-11T14:24:32Z</time></trkpt><trkpt lat="44.36700621485208" lon="9.821492535549822"><ele>532.0</ele><time>2026-04-11T14:24:33Z</time></trkpt><trkpt lat="44.36712676759864" lon="9.821548244523804"><ele>532.0</ele><time>2026-04-11T14:24:34Z</time></trkpt><trkpt lat="44.367262487850546" lon="9.821518182322778"><ele>534.75</ele><time>2026-04-11T14:24:35Z</time></trkpt><trkpt lat="44.36740948271785" lon="9.821447457367684"><ele>537.5</ele><time>2026-04-11T14:24:36Z</time></trkpt><trkpt lat="44.367538521673715" lon="9.82138779570741"><ele>540.25</ele><time>2026-04-11T14:24:37Z</time></trkpt><trkpt lat="44.36764818065778" lon="9.821345416227826"><ele>543.0</ele><time>2026-04-11T14:24:38Z</time></trkpt><trkpt lat="44.36773194451798" lon="9.821376416833957"><ele>543.0</ele><time>2026-04-11T14:24:39Z</time></trkpt><trkpt lat="44.3677792189591" lon="9.821473242477323"><ele>543.0</ele><time>2026-04-11T14:24:40Z</time></trkpt><trkpt lat="44.367803568442" lon="9.821594793618107"><ele>543.0</ele><time>2026-04-11T14:24:41Z</time></trkpt><trkpt lat="44.36781459564007" lon="9.821720547989894"><ele>543.0</ele><time>2026-04-11T14:24:42Z</time></trkpt><trkpt lat="44.36774281480008" lon="9.82182358161692"><ele>543.0</ele><time>2026-04-11T14:24:43Z</time></trkpt><trkpt lat="44.367660223821986" lon="9.821964149868325"><ele>543.0</ele><time>2026-04-11T14:24:44Z</time></trkpt><trkpt lat="44.36758757181043" lon="9.822149008524873"><ele>543.0</ele><time>2026-04-11T14:24:45Z</time></trkpt><trkpt lat="44.367568829149675" lon="9.822340624702083"><ele>543.0</ele><time>2026-04-11T14:24:46Z</time></trkpt><trkpt lat="44.36753321187988" lon="9.822486148884416"><ele>543.0</ele><time>2026-04-11T14:24:47Z</time></trkpt><trkpt lat="44.367461574737106" lon="9.822570899390278"><ele>543.0</ele><time>2026-04-11T14:24:48Z</time></trkpt><trkpt lat="44.36735025920339" lon="9.82258701587726"><ele>543.0</ele><time>2026-04-11T14:24:49Z</time></trkpt><trkpt lat="44.367209917228934" lon="9.822652039139797"><ele>543.0</ele><time>2026-04-11T14:24:50Z</time></trkpt><trkpt lat="44.36708420483416" lon="9.822762050921995"><ele>543.0</ele><time>2026-04-11T14:24:51Z</time></trkpt><trkpt lat="44.36696143960798" lon="9.822901666989718"><ele>540.5</ele><time>2026-04-11T14:24:52Z</time></trkpt><trkpt lat="44.36685254409656" lon="9.823014708126623"><ele>538.0</ele><time>2026-04-11T14:24:53Z</time></trkpt><trkpt lat="44.36676717243611" lon="9.823147749528587"><ele>535.5</ele><time>2026-04-11T14:24:54Z</time></trkpt><trkpt lat="44.366697901647946" lon="9.823309235758177"><ele>533.0</ele><time>2026-04-11T14:24:55Z</time></trkpt><trkpt lat="44.36665151250062" lon="9.823501813768758"><ele>533.0</ele><time>2026-04-11T14:24:56Z</time></trkpt><trkpt lat="44.36662564491354" lon="9.823705541422116"><ele>533.0</ele><time>2026-04-11T14:24:57Z</time></trkpt><trkpt lat="44.36661629687475" lon="9.823917735427052"><ele>533.0</ele><time>2026-04-11T14:24:58Z</time></trkpt><trkpt lat="44.3666304906058" lon="9.824141164244539"><ele>530.3333333333333</ele><time>2026-04-11T14:24:59Z</time></trkpt><trkpt lat="44.366647881199285" lon="9.824383279191697"><ele>527.6666666666666</ele><time>2026-04-11T14:25:00Z</time></trkpt><trkpt lat="44.36666300657434" lon="9.824604983293295"><ele>525.0</ele><time>2026-04-11T14:25:01Z</time></trkpt><trkpt lat="44.36667104739623" lon="9.824818484229844"><ele>525.0</ele><time>2026-04-11T14:25:02Z</time></trkpt><trkpt lat="44.36669197719575" lon="9.824998002462392"><ele>525.0</ele><time>2026-04-11T14:25:03Z</time></trkpt><trkpt lat="44.36675921859496" lon="9.825190690898985"><ele>525.0</ele><time>2026-04-11T14:25:04Z</time></trkpt><trkpt lat="44.36687322496244" lon="9.825352811672465"><ele>525.0</ele><time>2026-04-11T14:25:05Z</time></trkpt><trkpt lat="44.36699223822185" lon="9.825468057841235"><ele>519.25</ele><time>2026-04-11T14:25:06Z</time></trkpt><trkpt lat="44.367067052210835" lon="9.825593673808156"><ele>513.5</ele><time>2026-04-11T14:25:07Z</time></trkpt><trkpt lat="44.367095804942906" lon="9.825747813874148"><ele>507.75</ele><time>2026-04-11T14:25:08Z</time></trkpt><trkpt lat="44.36708235262001" lon="9.825959867541249"><ele>502.0</ele><time>2026-04-11T14:25:09Z</time></trkpt><trkpt lat="44.367102771832506" lon="9.826189144410028"><ele>499.6</ele><time>2026-04-11T14:25:10Z</time></trkpt><trkpt lat="44.36707702083355" lon="9.82638231001616"><ele>497.20000000000005</ele><time>2026-04-11T14:25:11Z</time></trkpt><trkpt lat="44.367021981275364" lon="9.82653282276061"><ele>494.8</ele><time>2026-04-11T14:25:12Z</time></trkpt><trkpt lat="44.366984799062166" lon="9.82666312772413"><ele>492.4</ele><time>2026-04-11T14:25:13Z</time></trkpt><trkpt lat="44.36697222454984" lon="9.826760847199136"><ele>490.0</ele><time>2026-04-11T14:25:14Z</time></trkpt><trkpt lat="44.366996257533664" lon="9.826848165034693"><ele>486.0</ele><time>2026-04-11T14:25:15Z</time></trkpt><trkpt lat="44.36704523395696" lon="9.826937225196993"><ele>482.0</ele><time>2026-04-11T14:25:16Z</time></trkpt><trkpt lat="44.36713771389819" lon="9.827027948885142"><ele>478.0</ele><time>2026-04-11T14:25:17Z</time></trkpt><trkpt lat="44.36726476168233" lon="9.827103929959458"><ele>474.0</ele><time>2026-04-11T14:25:18Z</time></trkpt><trkpt lat="44.36739925558184" lon="9.827204283901601"><ele>489.66666666666663</ele><time>2026-04-11T14:25:19Z</time></trkpt><trkpt lat="44.36754147950097" lon="9.827311413289058"><ele>505.3333333333333</ele><time>2026-04-11T14:25:20Z</time></trkpt><trkpt lat="44.367664332557325" lon="9.82744208081387"><ele>521.0</ele><time>2026-04-11T14:25:21Z</time></trkpt><trkpt lat="44.36778159901327" lon="9.827574140155386"><ele>518.5</ele><time>2026-04-11T14:25:22Z</time></trkpt><trkpt lat="44.367884444545545" lon="9.827729574549638"><ele>516.0</ele><time>2026-04-11T14:25:23Z</time></trkpt><trkpt lat="44.367998259685535" lon="9.827881711863224"><ele>513.5</ele><time>2026-04-11T14:25:24Z</time></trkpt><trkpt lat="44.36808211303101" lon="9.828039399970391"><ele>511.0</ele><time>2026-04-11T14:25:25Z</time></trkpt><trkpt lat="44.36818800207826" lon="9.828165410742862"><ele>511.0</ele><time>2026-04-11T14:25:26Z</time></trkpt><trkpt lat="44.3683213820516" lon="9.828250969258617"><ele>511.0</ele><time>2026-04-11T14:25:27Z</time></trkpt><trkpt lat="44.36848240840783" lon="9.828288521734203"><ele>511.0</ele><time>2026-04-11T14:25:28Z</time></trkpt><trkpt lat="44.36863773501692" lon="9.828341254172512"><ele>511.0</ele><time>2026-04-11T14:25:29Z</time></trkpt><trkpt lat="44.3687668313674" lon="9.828403443426604"><ele>511.0</ele><time>2026-04-11T14:25:30Z</time></trkpt><trkpt lat="44.36884558647839" lon="9.828515726280806"><ele>511.0</ele><time>2026-04-11T14:25:31Z</time></trkpt><trkpt lat="44.36892954954443" lon="9.828660021853983"><ele>511.0</ele><time>2026-04-11T14:25:31.999Z</time></trkpt><trkpt lat="44.36894918055616" lon="9.828834439492864"><ele>512.2</ele><time>2026-04-11T14:25:32.999Z</time></trkpt><trkpt lat="44.368975128717466" lon="9.828994482748866"><ele>513.4000000000001</ele><time>2026-04-11T14:25:33.999Z</time></trkpt><trkpt lat="44.368993578774855" lon="9.829112547932223"><ele>514.6</ele><time>2026-04-11T14:25:34.999Z</time></trkpt><trkpt lat="44.36907162173453" lon="9.829199011671232"><ele>515.8000000000001</ele><time>2026-04-11T14:25:35.999Z</time></trkpt><trkpt lat="44.3692033687787" lon="9.829224509769167"><ele>517.0</ele><time>2026-04-11T14:25:36.999Z</time></trkpt><trkpt lat="44.369347741205964" lon="9.829194426236652"><ele>517.0</ele><time>2026-04-11T14:25:37.999Z</time></trkpt><trkpt lat="44.36947192516758" lon="9.829213170876532"><ele>517.0</ele><time>2026-04-11T14:25:38.999Z</time></trkpt><trkpt lat="44.36956300900622" lon="9.829287325235617"><ele>517.0</ele><time>2026-04-11T14:25:39.999Z</time></trkpt><trkpt lat="44.369616615547166" lon="9.829399611761941"><ele>517.0</ele><time>2026-04-11T14:25:40.999Z</time></trkpt><trkpt lat="44.36965238959094" lon="9.829521795808203"><ele>517.0</ele><time>2026-04-11T14:25:41.999Z</time></trkpt><trkpt lat="44.369588925527836" lon="9.829639541099231"><ele>511.5</ele><time>2026-04-11T14:25:42.999Z</time></trkpt><trkpt lat="44.369574390498016" lon="9.82978632556837"><ele>506.0</ele><time>2026-04-11T14:25:43.999Z</time></trkpt><trkpt lat="44.36956444194021" lon="9.82993338119858"><ele>500.5</ele><time>2026-04-11T14:25:44.999Z</time></trkpt><trkpt lat="44.3696043992362" lon="9.830091010733549"><ele>495.0</ele><time>2026-04-11T14:25:45.999Z</time></trkpt><trkpt lat="44.36968666056245" lon="9.830216418528973"><ele>501.5</ele><time>2026-04-11T14:25:46.999Z</time></trkpt><trkpt lat="44.369803359342896" lon="9.83029890197644"><ele>508.0</ele><time>2026-04-11T14:25:47.999Z</time></trkpt><trkpt lat="44.36989753126234" lon="9.830411480222548"><ele>514.5</ele><time>2026-04-11T14:25:48.999Z</time></trkpt><trkpt lat="44.369939053407485" lon="9.830545386450021"><ele>521.0</ele><time>2026-04-11T14:25:49.999Z</time></trkpt><trkpt lat="44.3699280162079" lon="9.830715718359675"><ele>521.0</ele><time>2026-04-11T14:25:50.999Z</time></trkpt><trkpt lat="44.369909479906134" lon="9.830935285981079"><ele>521.0</ele><time>2026-04-11T14:25:51.999Z</time></trkpt><trkpt lat="44.369897727208595" lon="9.83113395062683"><ele>521.0</ele><time>2026-04-11T14:25:52.999Z</time></trkpt><trkpt lat="44.36989004217686" lon="9.831294867752717"><ele>521.0</ele><time>2026-04-11T14:25:53.999Z</time></trkpt><trkpt lat="44.36990704153811" lon="9.83141826336618"><ele>516.6</ele><time>2026-04-11T14:25:54.999Z</time></trkpt><trkpt lat="44.36993035981826" lon="9.831513973937481"><ele>512.2</ele><time>2026-04-11T14:25:55.999Z</time></trkpt><trkpt lat="44.36999317193502" lon="9.831643262948472"><ele>507.79999999999995</ele><time>2026-04-11T14:25:57.999Z</time></trkpt><trkpt lat="44.370033216915765" lon="9.831748431725165"><ele>503.4</ele><time>2026-04-11T14:25:58.999Z</time></trkpt><trkpt lat="44.37012108314286" lon="9.831885064314406"><ele>499.0</ele><time>2026-04-11T14:25:59.999Z</time></trkpt><trkpt lat="44.37024338978213" lon="9.832053948676926"><ele>505.6666666666667</ele><time>2026-04-11T14:26:00.999Z</time></trkpt><trkpt lat="44.37037775874298" lon="9.832223948040198"><ele>512.3333333333334</ele><time>2026-04-11T14:26:01.999Z</time></trkpt><trkpt lat="44.3704816637441" lon="9.83237111170802"><ele>519.0</ele><time>2026-04-11T14:26:02.999Z</time></trkpt><trkpt lat="44.37058565040095" lon="9.832493305531305"><ele>519.0</ele><time>2026-04-11T14:26:03.999Z</time></trkpt><trkpt lat="44.370712413016264" lon="9.832565100635302"><ele>519.0</ele><time>2026-04-11T14:26:04.999Z</time></trkpt><trkpt lat="44.37084294639443" lon="9.832620036453124"><ele>519.0</ele><time>2026-04-11T14:26:05.999Z</time></trkpt><trkpt lat="44.370963935854554" lon="9.832727220741551"><ele>519.0</ele><time>2026-04-11T14:26:06.999Z</time></trkpt><trkpt lat="44.3710242219398" lon="9.832909166902787"><ele>508.5</ele><time>2026-04-11T14:26:07.999Z</time></trkpt><trkpt lat="44.37104757321959" lon="9.833096876095503"><ele>498.0</ele><time>2026-04-11T14:26:08.999Z</time></trkpt><trkpt lat="44.37108328555744" lon="9.83324843021754"><ele>487.5</ele><time>2026-04-11T14:26:09.999Z</time></trkpt><trkpt lat="44.37115446233801" lon="9.833347694918656"><ele>477.0</ele><time>2026-04-11T14:26:10.999Z</time></trkpt><trkpt lat="44.371285084899974" lon="9.833409423375882"><ele>476.33333333333337</ele><time>2026-04-11T14:26:11.999Z</time></trkpt><trkpt lat="44.37144662915844" lon="9.833462168523248"><ele>475.6666666666667</ele><time>2026-04-11T14:26:12.999Z</time></trkpt><trkpt lat="44.371600857131426" lon="9.833538059927239"><ele>475.0</ele><time>2026-04-11T14:26:13.999Z</time></trkpt><trkpt lat="44.3717495668047" lon="9.833624721155827"><ele>475.0</ele><time>2026-04-11T14:26:14.999Z</time></trkpt><trkpt lat="44.37189745362572" lon="9.833708518689003"><ele>475.0</ele><time>2026-04-11T14:26:15.999Z</time></trkpt><trkpt lat="44.37203034547502" lon="9.833790404271072"><ele>475.0</ele><time>2026-04-11T14:26:16.999Z</time></trkpt><trkpt lat="44.372155556630744" lon="9.83387128431353"><ele>475.0</ele><time>2026-04-11T14:26:17.999Z</time></trkpt><trkpt lat="44.372233248228575" lon="9.83399684156444"><ele>483.6666666666667</ele><time>2026-04-11T14:26:18.999Z</time></trkpt><trkpt lat="44.37229449957984" lon="9.834147763066008"><ele>492.33333333333337</ele><time>2026-04-11T14:26:19.999Z</time></trkpt><trkpt lat="44.37232987232156" lon="9.834374789340094"><ele>501.0</ele><time>2026-04-11T14:26:20.999Z</time></trkpt><trkpt lat="44.372373869250595" lon="9.834628820601328"><ele>501.0</ele><time>2026-04-11T14:26:21.999Z</time></trkpt><trkpt lat="44.372410727882695" lon="9.834901984040064"><ele>501.0</ele><time>2026-04-11T14:26:22.999Z</time></trkpt><trkpt lat="44.3724563207796" lon="9.835161335267506"><ele>501.0</ele><time>2026-04-11T14:26:23.999Z</time></trkpt><trkpt lat="44.37249116179817" lon="9.8353952717198"><ele>501.0</ele><time>2026-04-11T14:26:24.999Z</time></trkpt><trkpt lat="44.37249061226617" lon="9.835615270970724"><ele>501.0</ele><time>2026-04-11T14:26:25.999Z</time></trkpt><trkpt lat="44.37244752237723" lon="9.835786122783741"><ele>501.0</ele><time>2026-04-11T14:26:26.999Z</time></trkpt><trkpt lat="44.372397002917154" lon="9.835968108696349"><ele>501.0</ele><time>2026-04-11T14:26:27.999Z</time></trkpt><trkpt lat="44.372347871358066" lon="9.836146389368986"><ele>500.5</ele><time>2026-04-11T14:26:28.999Z</time></trkpt><trkpt lat="44.37233104465681" lon="9.836309611954563"><ele>500.0</ele><time>2026-04-11T14:26:30Z</time></trkpt><trkpt lat="44.37236533179132" lon="9.836482042243047"><ele>499.5</ele><time>2026-04-11T14:26:31Z</time></trkpt><trkpt lat="44.37242540275557" lon="9.836658840441332"><ele>499.0</ele><time>2026-04-11T14:26:32Z</time></trkpt><trkpt lat="44.37251951853867" lon="9.836840936459259"><ele>498.75</ele><time>2026-04-11T14:26:33Z</time></trkpt><trkpt lat="44.372609342206665" lon="9.837000725179756"><ele>498.5</ele><time>2026-04-11T14:26:34Z</time></trkpt><trkpt lat="44.37267187480117" lon="9.83715987882584"><ele>498.25</ele><time>2026-04-11T14:26:35Z</time></trkpt><trkpt lat="44.37270382759997" lon="9.837294605006798"><ele>498.0</ele><time>2026-04-11T14:26:36Z</time></trkpt><trkpt lat="44.37262629721468" lon="9.837426099499059"><ele>498.0</ele><time>2026-04-11T14:26:37Z</time></trkpt><trkpt lat="44.37253180506877" lon="9.837575202142174"><ele>498.0</ele><time>2026-04-11T14:26:38Z</time></trkpt><trkpt lat="44.372411084143565" lon="9.837754231528521"><ele>498.0</ele><time>2026-04-11T14:26:39Z</time></trkpt><trkpt lat="44.372293251226075" lon="9.83795369056509"><ele>497.66666666666663</ele><time>2026-04-11T14:26:40Z</time></trkpt><trkpt lat="44.37219278685341" lon="9.838163899571784"><ele>497.3333333333333</ele><time>2026-04-11T14:26:41Z</time></trkpt><trkpt lat="44.37210838547692" lon="9.83836850369626"><ele>497.0</ele><time>2026-04-11T14:26:42Z</time></trkpt><trkpt lat="44.37204105898524" lon="9.838572771717592"><ele>497.0</ele><time>2026-04-11T14:26:43Z</time></trkpt><trkpt lat="44.3719353643506" lon="9.838695707341357"><ele>497.0</ele><time>2026-04-11T14:26:44Z</time></trkpt><trkpt lat="44.37178979052104" lon="9.838772384354481"><ele>497.0</ele><time>2026-04-11T14:26:45Z</time></trkpt><trkpt lat="44.371628247824695" lon="9.838923962797175"><ele>497.0</ele><time>2026-04-11T14:26:46Z</time></trkpt><trkpt lat="44.37147443753338" lon="9.83907787811989"><ele>497.0</ele><time>2026-04-11T14:26:47Z</time></trkpt><trkpt lat="44.37134583689055" lon="9.83922751504969"><ele>497.0</ele><time>2026-04-11T14:26:48Z</time></trkpt><trkpt lat="44.37123520564506" lon="9.839337514704217"><ele>497.20000000000005</ele><time>2026-04-11T14:26:49Z</time></trkpt><trkpt lat="44.371171927120415" lon="9.839422130633869"><ele>497.40000000000003</ele><time>2026-04-11T14:26:50Z</time></trkpt><trkpt lat="44.37115262725715" lon="9.839538927237493"><ele>497.59999999999997</ele><time>2026-04-11T14:26:51Z</time></trkpt><trkpt lat="44.371178387735206" lon="9.839694040579195"><ele>497.79999999999995</ele><time>2026-04-11T14:26:52Z</time></trkpt><trkpt lat="44.37126230394469" lon="9.839864675825524"><ele>498.0</ele><time>2026-04-11T14:26:53Z</time></trkpt><trkpt lat="44.371380438884785" lon="9.840033449524542"><ele>494.5</ele><time>2026-04-11T14:26:54Z</time></trkpt><trkpt lat="44.371492003978254" lon="9.840207038154155"><ele>491.0</ele><time>2026-04-11T14:26:55Z</time></trkpt><trkpt lat="44.37156767926792" lon="9.840388308120936"><ele>487.5</ele><time>2026-04-11T14:26:56Z</time></trkpt><trkpt lat="44.37161555549582" lon="9.840544410614461"><ele>484.0</ele><time>2026-04-11T14:26:57Z</time></trkpt><trkpt lat="44.37164429757088" lon="9.840659538329236"><ele>484.0</ele><time>2026-04-11T14:26:58Z</time></trkpt><trkpt lat="44.371689410075824" lon="9.84082257249181"><ele>484.0</ele><time>2026-04-11T14:27:00Z</time></trkpt><trkpt lat="44.37171955191823" lon="9.840932121024377"><ele>484.0</ele><time>2026-04-11T14:27:01Z</time></trkpt><trkpt lat="44.37175784326015" lon="9.841035564585814"><ele>484.0</ele><time>2026-04-11T14:27:02Z</time></trkpt><trkpt lat="44.37182293484198" lon="9.841133360145534"><ele>484.0</ele><time>2026-04-11T14:27:03Z</time></trkpt><trkpt lat="44.37189904779895" lon="9.841238730112023"><ele>485.75</ele><time>2026-04-11T14:27:04Z</time></trkpt><trkpt lat="44.371984352322166" lon="9.841330525141059"><ele>487.5</ele><time>2026-04-11T14:27:05Z</time></trkpt><trkpt lat="44.3720957760417" lon="9.841449696379716"><ele>489.25</ele><time>2026-04-11T14:27:06Z</time></trkpt><trkpt lat="44.37223193417203" lon="9.841570132847183"><ele>491.0</ele><time>2026-04-11T14:27:07Z</time></trkpt><trkpt lat="44.37235162462689" lon="9.841709494769987"><ele>484.25</ele><time>2026-04-11T14:27:08Z</time></trkpt><trkpt lat="44.37244516085698" lon="9.841876942311602"><ele>477.5</ele><time>2026-04-11T14:27:09Z</time></trkpt><trkpt lat="44.37253741003969" lon="9.842009424120365"><ele>470.75</ele><time>2026-04-11T14:27:10Z</time></trkpt><trkpt lat="44.37265110714651" lon="9.842113636842761"><ele>464.0</ele><time>2026-04-11T14:27:11Z</time></trkpt><trkpt lat="44.372782221339875" lon="9.842204369299477"><ele>464.0</ele><time>2026-04-11T14:27:12Z</time></trkpt><trkpt lat="44.372907980235205" lon="9.842301592490058"><ele>464.0</ele><time>2026-04-11T14:27:13Z</time></trkpt><trkpt lat="44.373031465244445" lon="9.842423908142774"><ele>464.0</ele><time>2026-04-11T14:27:14Z</time></trkpt><trkpt lat="44.373139954641466" lon="9.842518870042543"><ele>464.0</ele><time>2026-04-11T14:27:15Z</time></trkpt><trkpt lat="44.37322513955466" lon="9.842589782756436"><ele>470.0</ele><time>2026-04-11T14:27:16Z</time></trkpt><trkpt lat="44.37327426149166" lon="9.842649087549905"><ele>476.0</ele><time>2026-04-11T14:27:17Z</time></trkpt><trkpt lat="44.373286296003485" lon="9.842743400024652"><ele>482.0</ele><time>2026-04-11T14:27:18Z</time></trkpt><trkpt lat="44.37325791898518" lon="9.842863837805096"><ele>488.0</ele><time>2026-04-11T14:27:19Z</time></trkpt><trkpt lat="44.37317471278973" lon="9.842978182610619"><ele>494.0</ele><time>2026-04-11T14:27:20Z</time></trkpt><trkpt lat="44.37309315682095" lon="9.84313623670097"><ele>484.0</ele><time>2026-04-11T14:27:21Z</time></trkpt><trkpt lat="44.37299067512604" lon="9.843303353298325"><ele>474.0</ele><time>2026-04-11T14:27:22Z</time></trkpt><trkpt lat="44.37290833331807" lon="9.843454410360312"><ele>464.0</ele><time>2026-04-11T14:27:23Z</time></trkpt><trkpt lat="44.37286665215152" lon="9.843590813332794"><ele>454.0</ele><time>2026-04-11T14:27:24Z</time></trkpt><trkpt lat="44.37288318161767" lon="9.843731890023466"><ele>454.0</ele><time>2026-04-11T14:27:25Z</time></trkpt><trkpt lat="44.37294038586411" lon="9.843906021925761"><ele>454.0</ele><time>2026-04-11T14:27:26Z</time></trkpt><trkpt lat="44.372978010699605" lon="9.844076154966002"><ele>454.0</ele><time>2026-04-11T14:27:27Z</time></trkpt><trkpt lat="44.37298432665346" lon="9.844221303079376"><ele>454.0</ele><time>2026-04-11T14:27:28Z</time></trkpt><trkpt lat="44.37294488107736" lon="9.84435365781241"><ele>461.75</ele><time>2026-04-11T14:27:29Z</time></trkpt><trkpt lat="44.372854010462355" lon="9.844457292511974"><ele>469.5</ele><time>2026-04-11T14:27:30Z</time></trkpt><trkpt lat="44.3727462778134" lon="9.84453575703503"><ele>477.25</ele><time>2026-04-11T14:27:31Z</time></trkpt><trkpt lat="44.37263492378066" lon="9.844639977118266"><ele>485.0</ele><time>2026-04-11T14:27:32Z</time></trkpt><trkpt lat="44.37250476142617" lon="9.844735481610725"><ele>485.0</ele><time>2026-04-11T14:27:33Z</time></trkpt><trkpt lat="44.37237951140758" lon="9.844845147945161"><ele>485.0</ele><time>2026-04-11T14:27:33.999Z</time></trkpt><trkpt lat="44.3722507828166" lon="9.844955304489085"><ele>485.0</ele><time>2026-04-11T14:27:34.999Z</time></trkpt><trkpt lat="44.37211610105922" lon="9.845069274013499"><ele>477.75</ele><time>2026-04-11T14:27:35.999Z</time></trkpt><trkpt lat="44.371990104594325" lon="9.845169528949915"><ele>470.5</ele><time>2026-04-11T14:27:36.999Z</time></trkpt><trkpt lat="44.371896598781234" lon="9.845271278346102"><ele>463.25</ele><time>2026-04-11T14:27:37.999Z</time></trkpt><trkpt lat="44.37184589380887" lon="9.845383441457493"><ele>456.0</ele><time>2026-04-11T14:27:38.999Z</time></trkpt><trkpt lat="44.371828681355446" lon="9.845522527347999"><ele>456.0</ele><time>2026-04-11T14:27:39.999Z</time></trkpt><trkpt lat="44.37185758443628" lon="9.845683772712555"><ele>456.0</ele><time>2026-04-11T14:27:40.999Z</time></trkpt><trkpt lat="44.37193218085984" lon="9.845862683710331"><ele>456.0</ele><time>2026-04-11T14:27:41.999Z</time></trkpt><trkpt lat="44.37201096079716" lon="9.846057686267015"><ele>456.0</ele><time>2026-04-11T14:27:42.999Z</time></trkpt><trkpt lat="44.37204308218114" lon="9.846241455348592"><ele>457.25</ele><time>2026-04-11T14:27:43.999Z</time></trkpt><trkpt lat="44.372044024810194" lon="9.846379276691584"><ele>458.5</ele><time>2026-04-11T14:27:44.999Z</time></trkpt><trkpt lat="44.37197009002471" lon="9.846486731892348"><ele>459.75</ele><time>2026-04-11T14:27:45.999Z</time></trkpt><trkpt lat="44.371854122463034" lon="9.846577941089143"><ele>461.0</ele><time>2026-04-11T14:27:46.999Z</time></trkpt><trkpt lat="44.37172902087534" lon="9.84672783328275"><ele>462.25</ele><time>2026-04-11T14:27:47.999Z</time></trkpt><trkpt lat="44.37159292541288" lon="9.846873897538362"><ele>463.5</ele><time>2026-04-11T14:27:48.999Z</time></trkpt><trkpt lat="44.371481187192444" lon="9.847010201443332"><ele>464.75</ele><time>2026-04-11T14:27:49.999Z</time></trkpt><trkpt lat="44.37139719794768" lon="9.847109472887459"><ele>466.0</ele><time>2026-04-11T14:27:50.999Z</time></trkpt><trkpt lat="44.371350471543785" lon="9.84719657403197"><ele>466.0</ele><time>2026-04-11T14:27:51.999Z</time></trkpt><trkpt lat="44.3713439652863" lon="9.847302322422596"><ele>466.0</ele><time>2026-04-11T14:27:52.999Z</time></trkpt><trkpt lat="44.371387763261566" lon="9.84742912898999"><ele>466.0</ele><time>2026-04-11T14:27:53.999Z</time></trkpt><trkpt lat="44.37147227430211" lon="9.847519828684899"><ele>466.0</ele><time>2026-04-11T14:27:54.999Z</time></trkpt><trkpt lat="44.37158986819711" lon="9.847530593578231"><ele>466.0</ele><time>2026-04-11T14:27:55.999Z</time></trkpt><trkpt lat="44.37172631256225" lon="9.847543171372047"><ele>466.0</ele><time>2026-04-11T14:27:56.999Z</time></trkpt><trkpt lat="44.371855935340356" lon="9.847573412902165"><ele>466.0</ele><time>2026-04-11T14:27:57.999Z</time></trkpt><trkpt lat="44.37194410853102" lon="9.847662268405712"><ele>466.0</ele><time>2026-04-11T14:27:58.999Z</time></trkpt><trkpt lat="44.371985210515696" lon="9.847811566734313"><ele>466.0</ele><time>2026-04-11T14:27:59.999Z</time></trkpt><trkpt lat="44.37203710832472" lon="9.847982306521297"><ele>466.75</ele><time>2026-04-11T14:28:00.999Z</time></trkpt><trkpt lat="44.372074760749506" lon="9.848152549916945"><ele>467.5</ele><time>2026-04-11T14:28:01.999Z</time></trkpt><trkpt lat="44.37216732872895" lon="9.848309781702719"><ele>468.25</ele><time>2026-04-11T14:28:02.999Z</time></trkpt><trkpt lat="44.37229102917925" lon="9.848439833931485"><ele>469.0</ele><time>2026-04-11T14:28:03.999Z</time></trkpt><trkpt lat="44.37244007080242" lon="9.848527931670247"><ele>462.5</ele><time>2026-04-11T14:28:04.999Z</time></trkpt><trkpt lat="44.37259250083201" lon="9.84855395049957"><ele>456.0</ele><time>2026-04-11T14:28:05.999Z</time></trkpt><trkpt lat="44.37270411765185" lon="9.848593394320337"><ele>449.5</ele><time>2026-04-11T14:28:06.999Z</time></trkpt><trkpt lat="44.37278415847954" lon="9.848680910229875"><ele>443.0</ele><time>2026-04-11T14:28:07.999Z</time></trkpt><trkpt lat="44.37284184313607" lon="9.848843357288263"><ele>443.0</ele><time>2026-04-11T14:28:08.999Z</time></trkpt><trkpt lat="44.37293524572186" lon="9.848984891146253"><ele>443.0</ele><time>2026-04-11T14:28:09.999Z</time></trkpt><trkpt lat="44.373060098013234" lon="9.849083689727118"><ele>443.0</ele><time>2026-04-11T14:28:10.999Z</time></trkpt><trkpt lat="44.373164472506794" lon="9.849189452875226"><ele>443.0</ele><time>2026-04-11T14:28:11.999Z</time></trkpt><trkpt lat="44.373235313159775" lon="9.849276495518266"><ele>443.2</ele><time>2026-04-11T14:28:12.999Z</time></trkpt><trkpt lat="44.37327612220132" lon="9.849370743263028"><ele>443.4</ele><time>2026-04-11T14:28:13.999Z</time></trkpt><trkpt lat="44.37321397878484" lon="9.849517515893114"><ele>443.59999999999997</ele><time>2026-04-11T14:28:14.999Z</time></trkpt><trkpt lat="44.37313889727503" lon="9.84963223426864"><ele>443.79999999999995</ele><time>2026-04-11T14:28:15.999Z</time></trkpt><trkpt lat="44.37303891379413" lon="9.849685599308978"><ele>444.0</ele><time>2026-04-11T14:28:16.999Z</time></trkpt><trkpt lat="44.372918561865156" lon="9.849753223081466"><ele>444.0</ele><time>2026-04-11T14:28:17.999Z</time></trkpt><trkpt lat="44.37281291031119" lon="9.849811604608128"><ele>444.0</ele><time>2026-04-11T14:28:18.999Z</time></trkpt><trkpt lat="44.37273785549022" lon="9.849911369446321"><ele>444.0</ele><time>2026-04-11T14:28:19.999Z</time></trkpt><trkpt lat="44.372679566338796" lon="9.850060865243847"><ele>444.0</ele><time>2026-04-11T14:28:20.999Z</time></trkpt><trkpt lat="44.372608276049775" lon="9.85023797954832"><ele>449.66666666666663</ele><time>2026-04-11T14:28:21.999Z</time></trkpt><trkpt lat="44.37251174016716" lon="9.850416255792485"><ele>455.3333333333333</ele><time>2026-04-11T14:28:22.999Z</time></trkpt><trkpt lat="44.37241632701923" lon="9.850589621631416"><ele>461.0</ele><time>2026-04-11T14:28:23.999Z</time></trkpt><trkpt lat="44.372329187139236" lon="9.850774094907454"><ele>461.0</ele><time>2026-04-11T14:28:24.999Z</time></trkpt><trkpt lat="44.37223866358838" lon="9.85095160813654"><ele>461.0</ele><time>2026-04-11T14:28:25.999Z</time></trkpt><trkpt lat="44.37213998631964" lon="9.851137751285325"><ele>461.0</ele><time>2026-04-11T14:28:26.999Z</time></trkpt><trkpt lat="44.37205382677845" lon="9.851308397284976"><ele>456.5</ele><time>2026-04-11T14:28:27.999Z</time></trkpt><trkpt lat="44.371959441836964" lon="9.851486846897904"><ele>452.0</ele><time>2026-04-11T14:28:28.999Z</time></trkpt><trkpt lat="44.371870769151414" lon="9.851646434450323"><ele>447.5</ele><time>2026-04-11T14:28:29.999Z</time></trkpt><trkpt lat="44.37180405736324" lon="9.851776921570584"><ele>443.0</ele><time>2026-04-11T14:28:30.999Z</time></trkpt><trkpt lat="44.37177596134927" lon="9.851915732414767"><ele>443.0</ele><time>2026-04-11T14:28:31.999Z</time></trkpt><trkpt lat="44.3717917453887" lon="9.85207998444267"><ele>443.0</ele><time>2026-04-11T14:28:32.999Z</time></trkpt><trkpt lat="44.37184714661198" lon="9.852251824855866"><ele>443.0</ele><time>2026-04-11T14:28:33.999Z</time></trkpt><trkpt lat="44.371920441471225" lon="9.852403139346244"><ele>443.0</ele><time>2026-04-11T14:28:34.999Z</time></trkpt><trkpt lat="44.37198878554541" lon="9.852523902206823"><ele>444.16666666666663</ele><time>2026-04-11T14:28:36Z</time></trkpt><trkpt lat="44.3720212002294" lon="9.852641515418453"><ele>445.3333333333333</ele><time>2026-04-11T14:28:37Z</time></trkpt><trkpt lat="44.372057774204535" lon="9.85273603386445"><ele>446.5</ele><time>2026-04-11T14:28:38Z</time></trkpt><trkpt lat="44.37209366111935" lon="9.852828777575821"><ele>447.66666666666663</ele><time>2026-04-11T14:28:39Z</time></trkpt><trkpt lat="44.37213692774736" lon="9.852922507960695"><ele>448.8333333333333</ele><time>2026-04-11T14:28:40Z</time></trkpt><trkpt lat="44.37217883657866" lon="9.853021011894404"><ele>450.0</ele><time>2026-04-11T14:28:41Z</time></trkpt><trkpt lat="44.372247042237554" lon="9.853138634229744"><ele>450.0</ele><time>2026-04-11T14:28:42Z</time></trkpt><trkpt lat="44.37230597165593" lon="9.853285041705472"><ele>450.0</ele><time>2026-04-11T14:28:43Z</time></trkpt><trkpt lat="44.37236690324619" lon="9.853435830252787"><ele>450.0</ele><time>2026-04-11T14:28:44Z</time></trkpt><trkpt lat="44.372394406042204" lon="9.853606394722341"><ele>450.0</ele><time>2026-04-11T14:28:45Z</time></trkpt><trkpt lat="44.372411905947004" lon="9.853762807825987"><ele>449.25</ele><time>2026-04-11T14:28:46Z</time></trkpt><trkpt lat="44.37241659168621" lon="9.853932408788891"><ele>448.5</ele><time>2026-04-11T14:28:47Z</time></trkpt><trkpt lat="44.37233475358759" lon="9.854084623461059"><ele>447.75</ele><time>2026-04-11T14:28:48Z</time></trkpt><trkpt lat="44.37223838880844" lon="9.85423096529312"><ele>447.0</ele><time>2026-04-11T14:28:49Z</time></trkpt><trkpt lat="44.37212888264695" lon="9.85439025697363"><ele>447.0</ele><time>2026-04-11T14:28:50Z</time></trkpt><trkpt lat="44.37194628239196" lon="9.854414858609644"><ele>447.0</ele><time>2026-04-11T14:28:51Z</time></trkpt><trkpt lat="44.37179952538579" lon="9.854502578114658"><ele>447.0</ele><time>2026-04-11T14:28:52Z</time></trkpt><trkpt lat="44.37165645013628" lon="9.854595578428134"><ele>447.0</ele><time>2026-04-11T14:28:53Z</time></trkpt><trkpt lat="44.37152040837213" lon="9.854678336506991"><ele>447.0</ele><time>2026-04-11T14:28:54Z</time></trkpt><trkpt lat="44.37139912707938" lon="9.854757452212361"><ele>447.0</ele><time>2026-04-11T14:28:55Z</time></trkpt><trkpt lat="44.371299821431606" lon="9.854839769400492"><ele>447.0</ele><time>2026-04-11T14:28:56Z</time></trkpt><trkpt lat="44.371215791562555" lon="9.854946423266302"><ele>441.25</ele><time>2026-04-11T14:28:57Z</time></trkpt><trkpt lat="44.371148848286275" lon="9.855091106359085"><ele>435.5</ele><time>2026-04-11T14:28:58Z</time></trkpt><trkpt lat="44.37109593796647" lon="9.855264235076815"><ele>429.75</ele><time>2026-04-11T14:28:59Z</time></trkpt><trkpt lat="44.37106364453623" lon="9.855457851447364"><ele>424.0</ele><time>2026-04-11T14:29:00Z</time></trkpt><trkpt lat="44.37103576405871" lon="9.855659461261409"><ele>424.0</ele><time>2026-04-11T14:29:01Z</time></trkpt><trkpt lat="44.371001943373834" lon="9.855867721502221"><ele>424.0</ele><time>2026-04-11T14:29:02Z</time></trkpt><trkpt lat="44.3709619134955" lon="9.85608099579684"><ele>424.0</ele><time>2026-04-11T14:29:03Z</time></trkpt><trkpt lat="44.37091031984796" lon="9.856286124546973"><ele>425.33333333333337</ele><time>2026-04-11T14:29:04Z</time></trkpt><trkpt lat="44.37084447117143" lon="9.856481790737098"><ele>426.66666666666663</ele><time>2026-04-11T14:29:05Z</time></trkpt><trkpt lat="44.3707409032113" lon="9.856646143866499"><ele>428.0</ele><time>2026-04-11T14:29:06Z</time></trkpt><trkpt lat="44.37064492517682" lon="9.856815353705786"><ele>432.0</ele><time>2026-04-11T14:29:07Z</time></trkpt><trkpt lat="44.37053888706445" lon="9.856959774856175"><ele>436.0</ele><time>2026-04-11T14:29:08Z</time></trkpt><trkpt lat="44.37043180268328" lon="9.857113695182756"><ele>440.0</ele><time>2026-04-11T14:29:09Z</time></trkpt><trkpt lat="44.37032933272107" lon="9.857273483091143"><ele>435.5</ele><time>2026-04-11T14:29:10Z</time></trkpt><trkpt lat="44.370228184974174" lon="9.857427826449713"><ele>431.0</ele><time>2026-04-11T14:29:11Z</time></trkpt><trkpt lat="44.37012460963465" lon="9.85757792233441"><ele>426.5</ele><time>2026-04-11T14:29:12Z</time></trkpt><trkpt lat="44.37002410165552" lon="9.85773071354685"><ele>422.0</ele><time>2026-04-11T14:29:13Z</time></trkpt><trkpt lat="44.36993048077396" lon="9.857888937502308"><ele>422.0</ele><time>2026-04-11T14:29:14Z</time></trkpt><trkpt lat="44.369849109240704" lon="9.85805156236007"><ele>422.0</ele><time>2026-04-11T14:29:15Z</time></trkpt><trkpt lat="44.3697575397887" lon="9.858216603694448"><ele>422.0</ele><time>2026-04-11T14:29:16Z</time></trkpt><trkpt lat="44.36965496748095" lon="9.858359655319084"><ele>422.0</ele><time>2026-04-11T14:29:17Z</time></trkpt><trkpt lat="44.36953218126853" lon="9.858487931862294"><ele>418.75</ele><time>2026-04-11T14:29:18Z</time></trkpt><trkpt lat="44.36941285521088" lon="9.858624465463903"><ele>415.5</ele><time>2026-04-11T14:29:19Z</time></trkpt><trkpt lat="44.36928878931694" lon="9.858741287400365"><ele>412.25</ele><time>2026-04-11T14:29:20Z</time></trkpt><trkpt lat="44.36918199759945" lon="9.858856763646108"><ele>409.0</ele><time>2026-04-11T14:29:21Z</time></trkpt><trkpt lat="44.36908054233186" lon="9.858980061178293"><ele>409.0</ele><time>2026-04-11T14:29:22Z</time></trkpt><trkpt lat="44.36898796035431" lon="9.85912208691536"><ele>409.0</ele><time>2026-04-11T14:29:23Z</time></trkpt><trkpt lat="44.368908729084495" lon="9.859285937970963"><ele>409.0</ele><time>2026-04-11T14:29:24Z</time></trkpt><trkpt lat="44.368835543007535" lon="9.859454059704671"><ele>409.0</ele><time>2026-04-11T14:29:25Z</time></trkpt><trkpt lat="44.368775136083656" lon="9.859630496194685"><ele>406.25</ele><time>2026-04-11T14:29:26Z</time></trkpt><trkpt lat="44.36872533599966" lon="9.859826128230878"><ele>403.5</ele><time>2026-04-11T14:29:27Z</time></trkpt><trkpt lat="44.36868766832944" lon="9.860025691779375"><ele>400.75</ele><time>2026-04-11T14:29:28Z</time></trkpt><trkpt lat="44.368649362354525" lon="9.860217302711218"><ele>398.0</ele><time>2026-04-11T14:29:29Z</time></trkpt><trkpt lat="44.36861155708788" lon="9.860410490204297"><ele>398.0</ele><time>2026-04-11T14:29:30Z</time></trkpt><trkpt lat="44.36856354143196" lon="9.860609546050632"><ele>398.0</ele><time>2026-04-11T14:29:31Z</time></trkpt><trkpt lat="44.368517066976324" lon="9.860803950396331"><ele>398.0</ele><time>2026-04-11T14:29:32Z</time></trkpt><trkpt lat="44.36847021080714" lon="9.860996822448687"><ele>398.0</ele><time>2026-04-11T14:29:33Z</time></trkpt><trkpt lat="44.3684270457216" lon="9.861185980527518"><ele>397.25</ele><time>2026-04-11T14:29:34Z</time></trkpt><trkpt lat="44.36838837619096" lon="9.861368876966296"><ele>396.5</ele><time>2026-04-11T14:29:35Z</time></trkpt><trkpt lat="44.368332356328494" lon="9.861533450925261"><ele>395.75</ele><time>2026-04-11T14:29:36Z</time></trkpt><trkpt lat="44.36827592493941" lon="9.861689108952136"><ele>395.0</ele><time>2026-04-11T14:29:37Z</time></trkpt><trkpt lat="44.36819977179679" lon="9.861849099005761"><ele>394.25</ele><time>2026-04-11T14:29:38Z</time></trkpt><trkpt lat="44.36812684014531" lon="9.862009717683058"><ele>393.5</ele><time>2026-04-11T14:29:39Z</time></trkpt><trkpt lat="44.36803620777624" lon="9.862145743907117"><ele>392.75</ele><time>2026-04-11T14:29:40Z</time></trkpt><trkpt lat="44.36794904388417" lon="9.86228083649124"><ele>392.0</ele><time>2026-04-11T14:29:41Z</time></trkpt><trkpt lat="44.36786728031247" lon="9.862415409790058"><ele>391.99999999999994</ele><time>2026-04-11T14:29:42Z</time></trkpt><trkpt lat="44.36779493891418" lon="9.862540493461232"><ele>392.0</ele><time>2026-04-11T14:29:43Z</time></trkpt><trkpt lat="44.367732317939115" lon="9.862656104492288"><ele>392.0</ele><time>2026-04-11T14:29:44Z</time></trkpt><trkpt lat="44.36769524080405" lon="9.862750926619757"><ele>392.0</ele><time>2026-04-11T14:29:44.999Z</time></trkpt><trkpt lat="44.3677013873752" lon="9.862853319111307"><ele>391.99999999999994</ele><time>2026-04-11T14:29:45.999Z</time></trkpt><trkpt lat="44.36775786993014" lon="9.862927677651804"><ele>392.0</ele><time>2026-04-11T14:29:46.999Z</time></trkpt><trkpt lat="44.36783762234459" lon="9.86293853506632"><ele>391.40000000000003</ele><time>2026-04-11T14:29:47.999Z</time></trkpt><trkpt lat="44.367930551870934" lon="9.86288681871316"><ele>390.8</ele><time>2026-04-11T14:29:48.999Z</time></trkpt><trkpt lat="44.36798693649388" lon="9.862766198071395"><ele>390.2</ele><time>2026-04-11T14:29:49.999Z</time></trkpt><trkpt lat="44.36800159175501" lon="9.862615843482235"><ele>389.6</ele><time>2026-04-11T14:29:50.999Z</time></trkpt><trkpt lat="44.36803535951845" lon="9.862466377810728"><ele>389.0</ele><time>2026-04-11T14:29:51.999Z</time></trkpt><trkpt lat="44.368103379380834" lon="9.862353032759803"><ele>388.5</ele><time>2026-04-11T14:29:52.999Z</time></trkpt><trkpt lat="44.36819938900182" lon="9.862256366952147"><ele>388.0</ele><time>2026-04-11T14:29:53.999Z</time></trkpt><trkpt lat="44.36830701293792" lon="9.862163144060405"><ele>387.5</ele><time>2026-04-11T14:29:54.999Z</time></trkpt><trkpt lat="44.368423177208804" lon="9.862062324506725"><ele>387.0</ele><time>2026-04-11T14:29:55.999Z</time></trkpt><trkpt lat="44.36853019742103" lon="9.86196586499285"><ele>387.0</ele><time>2026-04-11T14:29:56.999Z</time></trkpt><trkpt lat="44.368626756333114" lon="9.861866983118798"><ele>387.0</ele><time>2026-04-11T14:29:57.999Z</time></trkpt><trkpt lat="44.36871910554712" lon="9.861775781370676"><ele>387.0</ele><time>2026-04-11T14:29:58.999Z</time></trkpt><trkpt lat="44.36880520932528" lon="9.861683279811276"><ele>387.0</ele><time>2026-04-11T14:29:59.999Z</time></trkpt><trkpt lat="44.36888799893609" lon="9.861595042507814"><ele>387.0</ele><time>2026-04-11T14:30:00.999Z</time></trkpt><trkpt lat="44.36897182000626" lon="9.86151983116516"><ele>386.20000000000005</ele><time>2026-04-11T14:30:01.999Z</time></trkpt><trkpt lat="44.36906266053692" lon="9.86144818208041"><ele>385.4</ele><time>2026-04-11T14:30:02.999Z</time></trkpt><trkpt lat="44.36915618367222" lon="9.861366469699798"><ele>384.6</ele><time>2026-04-11T14:30:03.999Z</time></trkpt><trkpt lat="44.36924915831325" lon="9.86128784399717"><ele>383.79999999999995</ele><time>2026-04-11T14:30:04.999Z</time></trkpt><trkpt lat="44.369347829815695" lon="9.861230240292256"><ele>383.0</ele><time>2026-04-11T14:30:05.999Z</time></trkpt><trkpt lat="44.369461115384304" lon="9.861203479822814"><ele>383.0</ele><time>2026-04-11T14:30:06.999Z</time></trkpt><trkpt lat="44.369569385765665" lon="9.861237928733843"><ele>383.0</ele><time>2026-04-11T14:30:07.999Z</time></trkpt><trkpt lat="44.369678833424224" lon="9.861260747509442"><ele>383.0</ele><time>2026-04-11T14:30:08.999Z</time></trkpt><trkpt lat="44.36979157309203" lon="9.861336942887178"><ele>383.0</ele><time>2026-04-11T14:30:09.999Z</time></trkpt><trkpt lat="44.36988190425356" lon="9.861458267213555"><ele>382.5</ele><time>2026-04-11T14:30:10.999Z</time></trkpt><trkpt lat="44.36996431093259" lon="9.861589564793102"><ele>382.0</ele><time>2026-04-11T14:30:11.999Z</time></trkpt><trkpt lat="44.370028715997016" lon="9.861743611623279"><ele>381.5</ele><time>2026-04-11T14:30:12.999Z</time></trkpt><trkpt lat="44.370075885878265" lon="9.86191367407628"><ele>381.0</ele><time>2026-04-11T14:30:13.999Z</time></trkpt><trkpt lat="44.370104651637945" lon="9.862105462209788"><ele>378.75</ele><time>2026-04-11T14:30:14.999Z</time></trkpt><trkpt lat="44.370131948328" lon="9.862297038324257"><ele>376.5</ele><time>2026-04-11T14:30:15.999Z</time></trkpt><trkpt lat="44.37014980704299" lon="9.862491640697563"><ele>374.25</ele><time>2026-04-11T14:30:16.999Z</time></trkpt><trkpt lat="44.37016062529166" lon="9.862696579960495"><ele>372.0</ele><time>2026-04-11T14:30:17.999Z</time></trkpt><trkpt lat="44.370174758056955" lon="9.862906882282791"><ele>370.5</ele><time>2026-04-11T14:30:18.999Z</time></trkpt><trkpt lat="44.37020420463999" lon="9.863105763952378"><ele>369.0</ele><time>2026-04-11T14:30:19.999Z</time></trkpt><trkpt lat="44.37020770446439" lon="9.863286805956085"><ele>367.5</ele><time>2026-04-11T14:30:20.999Z</time></trkpt><trkpt lat="44.37018674210376" lon="9.863461419611998"><ele>366.0</ele><time>2026-04-11T14:30:21.999Z</time></trkpt><trkpt lat="44.370195356949125" lon="9.86357420513087"><ele>364.0</ele><time>2026-04-11T14:30:22.999Z</time></trkpt><trkpt lat="44.370191638835315" lon="9.863667752442591"><ele>362.0</ele><time>2026-04-11T14:30:23.999Z</time></trkpt><trkpt lat="44.3702545002501" lon="9.863760788505342"><ele>360.0</ele><time>2026-04-11T14:30:24.999Z</time></trkpt><trkpt lat="44.37035828706456" lon="9.863829230385964"><ele>358.0</ele><time>2026-04-11T14:30:25.999Z</time></trkpt><trkpt lat="44.37044739118772" lon="9.863938718122698"><ele>356.0</ele><time>2026-04-11T14:30:26.999Z</time></trkpt><trkpt lat="44.37044842138846" lon="9.864098764476328"><ele>356.0</ele><time>2026-04-11T14:30:27.999Z</time></trkpt><trkpt lat="44.37039752043294" lon="9.864251486222491"><ele>356.0</ele><time>2026-04-11T14:30:28.999Z</time></trkpt><trkpt lat="44.37035215573175" lon="9.864399593016216"><ele>356.0</ele><time>2026-04-11T14:30:29.999Z</time></trkpt><trkpt lat="44.37033828385372" lon="9.864536225636176"><ele>356.0</ele><time>2026-04-11T14:30:30.999Z</time></trkpt><trkpt lat="44.370367931576475" lon="9.8646787511265"><ele>356.0</ele><time>2026-04-11T14:30:31.999Z</time></trkpt><trkpt lat="44.37044415717595" lon="9.864844559835884"><ele>354.5</ele><time>2026-04-11T14:30:32.999Z</time></trkpt><trkpt lat="44.37052448085683" lon="9.865009410014453"><ele>353.0</ele><time>2026-04-11T14:30:33.999Z</time></trkpt><trkpt lat="44.3706039005743" lon="9.865158416438192"><ele>351.5</ele><time>2026-04-11T14:30:34.999Z</time></trkpt><trkpt lat="44.37070915214663" lon="9.865269799677947"><ele>350.0</ele><time>2026-04-11T14:30:35.999Z</time></trkpt><trkpt lat="44.37082501323802" lon="9.865354187639182"><ele>350.0</ele><time>2026-04-11T14:30:36.999Z</time></trkpt><trkpt lat="44.37093119527282" lon="9.865402943840198"><ele>350.0</ele><time>2026-04-11T14:30:37.999Z</time></trkpt><trkpt lat="44.371030196742744" lon="9.865370933582014"><ele>350.0</ele><time>2026-04-11T14:30:38.999Z</time></trkpt><trkpt lat="44.37113027284165" lon="9.865260414614466"><ele>350.0</ele><time>2026-04-11T14:30:39.999Z</time></trkpt><trkpt lat="44.37122408469765" lon="9.865087538544179"><ele>352.75</ele><time>2026-04-11T14:30:40.999Z</time></trkpt><trkpt lat="44.37132802113485" lon="9.864941974254538"><ele>355.5</ele><time>2026-04-11T14:30:42Z</time></trkpt><trkpt lat="44.371429932373026" lon="9.864835567691236"><ele>358.25</ele><time>2026-04-11T14:30:43Z</time></trkpt><trkpt lat="44.3715305027093" lon="9.864783039687744"><ele>361.0</ele><time>2026-04-11T14:30:44Z</time></trkpt><trkpt lat="44.37162575536592" lon="9.864819501262613"><ele>361.0</ele><time>2026-04-11T14:30:45Z</time></trkpt><trkpt lat="44.37170360418824" lon="9.864942226613211"><ele>361.0</ele><time>2026-04-11T14:30:46Z</time></trkpt><trkpt lat="44.37174812461223" lon="9.865126894315301"><ele>361.0</ele><time>2026-04-11T14:30:47Z</time></trkpt><trkpt lat="44.371822093527" lon="9.865325601103038"><ele>361.0</ele><time>2026-04-11T14:30:48Z</time></trkpt><trkpt lat="44.371883145630264" lon="9.86555340394808"><ele>356.66666666666663</ele><time>2026-04-11T14:30:49Z</time></trkpt><trkpt lat="44.37195840731983" lon="9.865765530459328"><ele>352.3333333333333</ele><time>2026-04-11T14:30:50Z</time></trkpt><trkpt lat="44.37203524051002" lon="9.865960941075274"><ele>348.0</ele><time>2026-04-11T14:30:51Z</time></trkpt><trkpt lat="44.37210746035357" lon="9.866134927724396"><ele>346.75</ele><time>2026-04-11T14:30:52Z</time></trkpt><trkpt lat="44.37218245793533" lon="9.866276176564195"><ele>345.5</ele><time>2026-04-11T14:30:53Z</time></trkpt><trkpt lat="44.37228890276759" lon="9.866355743641645"><ele>344.25</ele><time>2026-04-11T14:30:54Z</time></trkpt><trkpt lat="44.37243437149823" lon="9.866390078889305"><ele>343.0</ele><time>2026-04-11T14:30:55Z</time></trkpt><trkpt lat="44.37258982581605" lon="9.866392698686042"><ele>341.25</ele><time>2026-04-11T14:30:56Z</time></trkpt><trkpt lat="44.37272495182021" lon="9.86636329066127"><ele>339.5</ele><time>2026-04-11T14:30:57Z</time></trkpt><trkpt lat="44.372815463003484" lon="9.866293864647998"><ele>337.75</ele><time>2026-04-11T14:30:58Z</time></trkpt><trkpt lat="44.3728701493953" lon="9.86616248103058"><ele>336.0</ele><time>2026-04-11T14:30:59Z</time></trkpt><trkpt lat="44.37289539988264" lon="9.865967434913143"><ele>338.3333333333333</ele><time>2026-04-11T14:31:00Z</time></trkpt><trkpt lat="44.372913567157624" lon="9.865744335705816"><ele>340.66666666666663</ele><time>2026-04-11T14:31:01Z</time></trkpt><trkpt lat="44.37294792653809" lon="9.865521770801141"><ele>343.0</ele><time>2026-04-11T14:31:02Z</time></trkpt><trkpt lat="44.37298747402577" lon="9.86531023633277"><ele>343.0</ele><time>2026-04-11T14:31:03Z</time></trkpt><trkpt lat="44.37302159740397" lon="9.865118726346232"><ele>343.0</ele><time>2026-04-11T14:31:04Z</time></trkpt><trkpt lat="44.3730667369158" lon="9.864971016725573"><ele>343.0</ele><time>2026-04-11T14:31:05Z</time></trkpt><trkpt lat="44.37317407130979" lon="9.864897318920924"><ele>343.0</ele><time>2026-04-11T14:31:06Z</time></trkpt><trkpt lat="44.373293732895114" lon="9.864876213391318"><ele>340.5</ele><time>2026-04-11T14:31:07Z</time></trkpt><trkpt lat="44.37340838097552" lon="9.864988017267097"><ele>338.0</ele><time>2026-04-11T14:31:08Z</time></trkpt><trkpt lat="44.37346120844941" lon="9.865139329939533"><ele>335.5</ele><time>2026-04-11T14:31:09Z</time></trkpt><trkpt lat="44.37348714515778" lon="9.86532190175572"><ele>333.0</ele><time>2026-04-11T14:31:10Z</time></trkpt><trkpt lat="44.373515193297685" lon="9.86555334935343"><ele>333.0</ele><time>2026-04-11T14:31:11Z</time></trkpt><trkpt lat="44.37354451409151" lon="9.865775560509132"><ele>333.0</ele><time>2026-04-11T14:31:12Z</time></trkpt><trkpt lat="44.373573047188486" lon="9.865981557268153"><ele>333.0</ele><time>2026-04-11T14:31:13Z</time></trkpt><trkpt lat="44.373595794650335" lon="9.866159798031209"><ele>333.0</ele><time>2026-04-11T14:31:14Z</time></trkpt><trkpt lat="44.373640716711144" lon="9.86627396608795"><ele>333.2</ele><time>2026-04-11T14:31:15Z</time></trkpt><trkpt lat="44.37372016438879" lon="9.866318040102325"><ele>333.4</ele><time>2026-04-11T14:31:16Z</time></trkpt><trkpt lat="44.373824718924716" lon="9.86630122402412"><ele>333.59999999999997</ele><time>2026-04-11T14:31:17Z</time></trkpt><trkpt lat="44.37391320267867" lon="9.866188132272383"><ele>333.79999999999995</ele><time>2026-04-11T14:31:18Z</time></trkpt><trkpt lat="44.37394633047009" lon="9.866013492136647"><ele>334.0</ele><time>2026-04-11T14:31:19Z</time></trkpt><trkpt lat="44.37391773500316" lon="9.865809638311289"><ele>333.66666666666663</ele><time>2026-04-11T14:31:20Z</time></trkpt><trkpt lat="44.37385325961047" lon="9.865581631778978"><ele>333.3333333333333</ele><time>2026-04-11T14:31:21Z</time></trkpt><trkpt lat="44.373806639366215" lon="9.865345088544919"><ele>333.0</ele><time>2026-04-11T14:31:22Z</time></trkpt><trkpt lat="44.37377139932292" lon="9.865106801010466"><ele>332.4</ele><time>2026-04-11T14:31:23Z</time></trkpt><trkpt lat="44.37376689915533" lon="9.864891237130104"><ele>331.79999999999995</ele><time>2026-04-11T14:31:24Z</time></trkpt><trkpt lat="44.37375789656098" lon="9.864757432573636"><ele>331.2</ele><time>2026-04-11T14:31:25Z</time></trkpt><trkpt lat="44.373763495639515" lon="9.864635927316243"><ele>330.6</ele><time>2026-04-11T14:31:26Z</time></trkpt><trkpt lat="44.37382970717059" lon="9.86452923609264"><ele>330.0</ele><time>2026-04-11T14:31:27Z</time></trkpt><trkpt lat="44.37394998502471" lon="9.864461345865799"><ele>328.25</ele><time>2026-04-11T14:31:28Z</time></trkpt><trkpt lat="44.37407181848123" lon="9.86444349914275"><ele>326.5</ele><time>2026-04-11T14:31:29Z</time></trkpt><trkpt lat="44.37417588541576" lon="9.864480549868823"><ele>324.75</ele><time>2026-04-11T14:31:30Z</time></trkpt><trkpt lat="44.37425896572077" lon="9.864575119160993"><ele>323.0</ele><time>2026-04-11T14:31:31Z</time></trkpt><trkpt lat="44.37433221223616" lon="9.864726079427896"><ele>323.0</ele><time>2026-04-11T14:31:32Z</time></trkpt><trkpt lat="44.37440175942808" lon="9.864881371634828"><ele>323.0</ele><time>2026-04-11T14:31:33Z</time></trkpt><trkpt lat="44.37446488025189" lon="9.865051232373018"><ele>323.0</ele><time>2026-04-11T14:31:34Z</time></trkpt><trkpt lat="44.374541728698986" lon="9.865223282418905"><ele>323.0</ele><time>2026-04-11T14:31:35Z</time></trkpt><trkpt lat="44.37462318718503" lon="9.865405927235543"><ele>322.33333333333337</ele><time>2026-04-11T14:31:36Z</time></trkpt><trkpt lat="44.37471465657753" lon="9.865583741332703"><ele>321.6666666666667</ele><time>2026-04-11T14:31:37Z</time></trkpt><trkpt lat="44.374787685225634" lon="9.865769911432155"><ele>321.0</ele><time>2026-04-11T14:31:38Z</time></trkpt><trkpt lat="44.37485576890489" lon="9.86595450165593"><ele>319.3333333333333</ele><time>2026-04-11T14:31:39Z</time></trkpt><trkpt lat="44.3748680403408" lon="9.866168220296572"><ele>317.66666666666663</ele><time>2026-04-11T14:31:40Z</time></trkpt><trkpt lat="44.374864922696545" lon="9.866380262385816"><ele>316.0</ele><time>2026-04-11T14:31:41Z</time></trkpt><trkpt lat="44.374818373820624" lon="9.866600052211242"><ele>314.66666666666663</ele><time>2026-04-11T14:31:42Z</time></trkpt><trkpt lat="44.374742577816384" lon="9.866833780898393"><ele>313.3333333333333</ele><time>2026-04-11T14:31:43Z</time></trkpt><trkpt lat="44.37466733581099" lon="9.867084688553328"><ele>312.0</ele><time>2026-04-11T14:31:44Z</time></trkpt><trkpt lat="44.37457890609157" lon="9.86732783308717"><ele>311.6666666666667</ele><time>2026-04-11T14:31:45Z</time></trkpt><trkpt lat="44.37450396949334" lon="9.86757420237646"><ele>311.33333333333337</ele><time>2026-04-11T14:31:46Z</time></trkpt><trkpt lat="44.37442065179254" lon="9.867833297634514"><ele>311.0</ele><time>2026-04-11T14:31:47Z</time></trkpt><trkpt lat="44.37429986895017" lon="9.868157241171925"><ele>308.6666666666667</ele><time>2026-04-11T14:31:48Z</time></trkpt><trkpt lat="44.374286392747464" lon="9.868302467373868"><ele>306.3333333333333</ele><time>2026-04-11T14:31:48.999Z</time></trkpt><trkpt lat="44.37420169199402" lon="9.868551534964658"><ele>304.0</ele><time>2026-04-11T14:31:49.999Z</time></trkpt><trkpt lat="44.3741190470774" lon="9.868802999464005"><ele>304.0</ele><time>2026-04-11T14:31:50.999Z</time></trkpt><trkpt lat="44.37403583444319" lon="9.86904631091326"><ele>304.0</ele><time>2026-04-11T14:31:51.999Z</time></trkpt><trkpt lat="44.37395488411297" lon="9.869284347278567"><ele>304.0</ele><time>2026-04-11T14:31:52.999Z</time></trkpt><trkpt lat="44.37387821269984" lon="9.86951379572876"><ele>302.66666666666663</ele><time>2026-04-11T14:31:53.999Z</time></trkpt><trkpt lat="44.373803446435765" lon="9.869736655350088"><ele>301.3333333333333</ele><time>2026-04-11T14:31:54.999Z</time></trkpt><trkpt lat="44.37373411979772" lon="9.86994814878697"><ele>300.0</ele><time>2026-04-11T14:31:55.999Z</time></trkpt><trkpt lat="44.37368573503447" lon="9.870151809108195"><ele>297.6666666666667</ele><time>2026-04-11T14:31:56.999Z</time></trkpt><trkpt lat="44.37367353237045" lon="9.870372185365216"><ele>295.33333333333337</ele><time>2026-04-11T14:31:57.999Z</time></trkpt><trkpt lat="44.37368516930354" lon="9.8706147860666"><ele>293.0</ele><time>2026-04-11T14:31:58.999Z</time></trkpt><trkpt lat="44.3737053951931" lon="9.870866687742426"><ele>291.0</ele><time>2026-04-11T14:31:59.999Z</time></trkpt><trkpt lat="44.3737222695632" lon="9.871115558963691"><ele>289.0</ele><time>2026-04-11T14:32:00.999Z</time></trkpt><trkpt lat="44.373734211142434" lon="9.871362215414035"><ele>287.0</ele><time>2026-04-11T14:32:01.999Z</time></trkpt><trkpt lat="44.37373889482441" lon="9.871598770824077"><ele>284.33333333333337</ele><time>2026-04-11T14:32:02.999Z</time></trkpt><trkpt lat="44.37374291498984" lon="9.871832168514704"><ele>281.6666666666667</ele><time>2026-04-11T14:32:03.999Z</time></trkpt><trkpt lat="44.373742629407694" lon="9.872062225972702"><ele>279.0</ele><time>2026-04-11T14:32:04.999Z</time></trkpt><trkpt lat="44.373735888741315" lon="9.872286138288546"><ele>279.0</ele><time>2026-04-11T14:32:05.999Z</time></trkpt><trkpt lat="44.373693792827126" lon="9.872497805582945"><ele>279.0</ele><time>2026-04-11T14:32:06.999Z</time></trkpt><trkpt lat="44.37362556247696" lon="9.872709967100695"><ele>279.0</ele><time>2026-04-11T14:32:07.999Z</time></trkpt><trkpt lat="44.37353803038771" lon="9.87292714098298"><ele>275.6666666666667</ele><time>2026-04-11T14:32:08.999Z</time></trkpt><trkpt lat="44.37344714057298" lon="9.873151434422416"><ele>272.33333333333337</ele><time>2026-04-11T14:32:09.999Z</time></trkpt><trkpt lat="44.37335530184287" lon="9.873367022707727"><ele>269.0</ele><time>2026-04-11T14:32:10.999Z</time></trkpt><trkpt lat="44.373280756530555" lon="9.873574205349177"><ele>267.8</ele><time>2026-04-11T14:32:11.999Z</time></trkpt><trkpt lat="44.37321767282795" lon="9.873731313226443"><ele>266.59999999999997</ele><time>2026-04-11T14:32:12.999Z</time></trkpt><trkpt lat="44.373191214241025" lon="9.873849890782688"><ele>265.4</ele><time>2026-04-11T14:32:13.999Z</time></trkpt><trkpt lat="44.37320900250556" lon="9.873944522061775"><ele>264.2</ele><time>2026-04-11T14:32:14.999Z</time></trkpt><trkpt lat="44.37325911825455" lon="9.874034451440146"><ele>263.0</ele><time>2026-04-11T14:32:15.999Z</time></trkpt><trkpt lat="44.3733414019988" lon="9.874092482263869"><ele>263.0</ele><time>2026-04-11T14:32:16.999Z</time></trkpt><trkpt lat="44.37344334566112" lon="9.874079063443821"><ele>263.0</ele><time>2026-04-11T14:32:17.999Z</time></trkpt><trkpt lat="44.37353882256871" lon="9.873994398904925"><ele>263.0</ele><time>2026-04-11T14:32:18.999Z</time></trkpt><trkpt lat="44.37361837494853" lon="9.873846891279257"><ele>263.0</ele><time>2026-04-11T14:32:19.999Z</time></trkpt><trkpt lat="44.373728545985216" lon="9.873702115708458"><ele>263.0</ele><time>2026-04-11T14:32:20.999Z</time></trkpt><trkpt lat="44.37382864457908" lon="9.87354235828858"><ele>263.0</ele><time>2026-04-11T14:32:21.999Z</time></trkpt><trkpt lat="44.373942422074116" lon="9.873425739137126"><ele>263.0</ele><time>2026-04-11T14:32:22.999Z</time></trkpt><trkpt lat="44.374040829371374" lon="9.873301324108711"><ele>263.0</ele><time>2026-04-11T14:32:23.999Z</time></trkpt><trkpt lat="44.37414208721493" lon="9.873200298639304"><ele>262.0</ele><time>2026-04-11T14:32:24.999Z</time></trkpt><trkpt lat="44.3742458288005" lon="9.87315882380593"><ele>261.0</ele><time>2026-04-11T14:32:25.999Z</time></trkpt><trkpt lat="44.374355103145156" lon="9.873210880904674"><ele>260.0</ele><time>2026-04-11T14:32:26.999Z</time></trkpt><trkpt lat="44.374460450406424" lon="9.87329241422323"><ele>259.0</ele><time>2026-04-11T14:32:27.999Z</time></trkpt><trkpt lat="44.3745473588337" lon="9.873456910498579"><ele>258.2</ele><time>2026-04-11T14:32:28.999Z</time></trkpt><trkpt lat="44.37463682489838" lon="9.873599956689551"><ele>257.4</ele><time>2026-04-11T14:32:29.999Z</time></trkpt><trkpt lat="44.37472445633172" lon="9.873711178058194"><ele>256.6</ele><time>2026-04-11T14:32:30.999Z</time></trkpt><trkpt lat="44.37478676033776" lon="9.87378737034478"><ele>255.8</ele><time>2026-04-11T14:32:31.999Z</time></trkpt><trkpt lat="44.3748216374732" lon="9.87392461011695"><ele>255.0</ele><time>2026-04-11T14:32:33.999Z</time></trkpt><trkpt lat="44.37479861020699" lon="9.87402082542088"><ele>255.0</ele><time>2026-04-11T14:32:35.999Z</time></trkpt><trkpt lat="44.374861554315174" lon="9.87414113159675"><ele>255.0</ele><time>2026-04-11T14:32:37.999Z</time></trkpt><trkpt lat="44.37488615809293" lon="9.87423004470138"><ele>255.0</ele><time>2026-04-11T14:32:38.999Z</time></trkpt><trkpt lat="44.374903886673465" lon="9.874353595199207"><ele>255.0</ele><time>2026-04-11T14:32:39.999Z</time></trkpt><trkpt lat="44.37492453825755" lon="9.874494077016736"><ele>255.0</ele><time>2026-04-11T14:32:40.999Z</time></trkpt><trkpt lat="44.37495198396634" lon="9.874654698349401"><ele>254.25</ele><time>2026-04-11T14:32:41.999Z</time></trkpt><trkpt lat="44.374976828092706" lon="9.874804800614305"><ele>253.5</ele><time>2026-04-11T14:32:42.999Z</time></trkpt><trkpt lat="44.37499969677447" lon="9.874969418055633"><ele>252.75</ele><time>2026-04-11T14:32:43.999Z</time></trkpt><trkpt lat="44.37502184675104" lon="9.875133667345853"><ele>252.0</ele><time>2026-04-11T14:32:44.999Z</time></trkpt><trkpt lat="44.375046414379696" lon="9.87529313763801"><ele>251.6</ele><time>2026-04-11T14:32:45.999Z</time></trkpt><trkpt lat="44.375078668172634" lon="9.875460971964298"><ele>251.2</ele><time>2026-04-11T14:32:46.999Z</time></trkpt><trkpt lat="44.375107012340784" lon="9.875610764762659"><ele>250.8</ele><time>2026-04-11T14:32:48Z</time></trkpt><trkpt lat="44.37512895436231" lon="9.875745019382178"><ele>250.4</ele><time>2026-04-11T14:32:49Z</time></trkpt><trkpt lat="44.3751481964407" lon="9.87586258407085"><ele>250.0</ele><time>2026-04-11T14:32:50Z</time></trkpt><trkpt lat="44.375171481350186" lon="9.876009839702066"><ele>249.5</ele><time>2026-04-11T14:32:51Z</time></trkpt><trkpt lat="44.37519508979041" lon="9.87616566009686"><ele>249.0</ele><time>2026-04-11T14:32:52Z</time></trkpt><trkpt lat="44.37521891790458" lon="9.8763320029984"><ele>248.5</ele><time>2026-04-11T14:32:53Z</time></trkpt><trkpt lat="44.37524033529858" lon="9.876500266158853"><ele>248.0</ele><time>2026-04-11T14:32:54Z</time></trkpt><trkpt lat="44.37527547478695" lon="9.876662400560518"><ele>248.0</ele><time>2026-04-11T14:32:55Z</time></trkpt><trkpt lat="44.3753010924705" lon="9.87682757270937"><ele>248.0</ele><time>2026-04-11T14:32:56Z</time></trkpt><trkpt lat="44.3753312683307" lon="9.876992078704326"><ele>248.0</ele><time>2026-04-11T14:32:57Z</time></trkpt><trkpt lat="44.37536544510957" lon="9.87715813307559"><ele>248.0</ele><time>2026-04-11T14:32:58Z</time></trkpt><trkpt lat="44.37539057219462" lon="9.877321790696232"><ele>248.0</ele><time>2026-04-11T14:32:59Z</time></trkpt><trkpt lat="44.37540393122353" lon="9.877471745834313"><ele>248.0</ele><time>2026-04-11T14:33:00Z</time></trkpt><trkpt lat="44.37542576305696" lon="9.87761112512893"><ele>248.0</ele><time>2026-04-11T14:33:01Z</time></trkpt><trkpt lat="44.37544500201614" lon="9.877732383820225"><ele>248.0</ele><time>2026-04-11T14:33:02Z</time></trkpt><trkpt lat="44.37546855118917" lon="9.877864672548158"><ele>248.0</ele><time>2026-04-11T14:33:03Z</time></trkpt><trkpt lat="44.3755006198981" lon="9.877991291897482"><ele>248.0</ele><time>2026-04-11T14:33:04Z</time></trkpt><trkpt lat="44.375520104850914" lon="9.878119620744602"><ele>248.0</ele><time>2026-04-11T14:33:05Z</time></trkpt><trkpt lat="44.375538036986484" lon="9.878256271526118"><ele>248.0</ele><time>2026-04-11T14:33:06Z</time></trkpt><trkpt lat="44.37556154147588" lon="9.87837496523226"><ele>248.0</ele><time>2026-04-11T14:33:07Z</time></trkpt><trkpt lat="44.37558137757641" lon="9.87849867512676"><ele>248.0</ele><time>2026-04-11T14:33:08Z</time></trkpt><trkpt lat="44.37559515760862" lon="9.87861265476047"><ele>247.83333333333334</ele><time>2026-04-11T14:33:09Z</time></trkpt><trkpt lat="44.375612850258726" lon="9.878734225487177"><ele>247.66666666666669</ele><time>2026-04-11T14:33:10Z</time></trkpt><trkpt lat="44.37563331413044" lon="9.878857537795849"><ele>247.5</ele><time>2026-04-11T14:33:11Z</time></trkpt><trkpt lat="44.37565409442499" lon="9.878970070716331"><ele>247.33333333333331</ele><time>2026-04-11T14:33:12Z</time></trkpt><trkpt lat="44.375671759967545" lon="9.879078095673702"><ele>247.16666666666666</ele><time>2026-04-11T14:33:13Z</time></trkpt><trkpt lat="44.375691173016186" lon="9.879180050912543"><ele>247.0</ele><time>2026-04-11T14:33:14Z</time></trkpt><trkpt lat="44.3757062800964" lon="9.879287993455339"><ele>246.99999999999997</ele><time>2026-04-11T14:33:15Z</time></trkpt><trkpt lat="44.375727447789295" lon="9.879402597339746"><ele>247.0</ele><time>2026-04-11T14:33:16Z</time></trkpt><trkpt lat="44.3757421901851" lon="9.87951639968193"><ele>247.0</ele><time>2026-04-11T14:33:17Z</time></trkpt><trkpt lat="44.37575732303451" lon="9.879612195048933"><ele>247.0</ele><time>2026-04-11T14:33:18Z</time></trkpt><trkpt lat="44.37577281241824" lon="9.879703272363852"><ele>246.99999999999997</ele><time>2026-04-11T14:33:19Z</time></trkpt><trkpt lat="44.375799549056055" lon="9.879880750189322"><ele>247.0</ele><time>2026-04-11T14:33:21Z</time></trkpt><trkpt lat="44.375815989317516" lon="9.87998526189927"><ele>246.99999999999997</ele><time>2026-04-11T14:33:22Z</time></trkpt><trkpt lat="44.37583616746186" lon="9.880101907143743"><ele>247.0</ele><time>2026-04-11T14:33:23Z</time></trkpt><trkpt lat="44.375856522977564" lon="9.880228631187627"><ele>247.0</ele><time>2026-04-11T14:33:24Z</time></trkpt><trkpt lat="44.375881835597646" lon="9.880352568396708"><ele>247.0</ele><time>2026-04-11T14:33:25Z</time></trkpt><trkpt lat="44.3759002107155" lon="9.880479748460251"><ele>246.99999999999997</ele><time>2026-04-11T14:33:26Z</time></trkpt><trkpt lat="44.3759190222119" lon="9.880594739457406"><ele>247.0</ele><time>2026-04-11T14:33:27Z</time></trkpt><trkpt lat="44.37593424824297" lon="9.88070094223226"><ele>246.99999999999997</ele><time>2026-04-11T14:33:28Z</time></trkpt><trkpt lat="44.37595363961657" lon="9.880811303098708"><ele>247.0</ele><time>2026-04-11T14:33:29Z</time></trkpt><trkpt lat="44.37597478614934" lon="9.880927063682412"><ele>247.0</ele><time>2026-04-11T14:33:30Z</time></trkpt><trkpt lat="44.37599204371597" lon="9.88105148118402"><ele>247.0</ele><time>2026-04-11T14:33:31Z</time></trkpt><trkpt lat="44.37601184626782" lon="9.881170811421729"><ele>246.99999999999997</ele><time>2026-04-11T14:33:32Z</time></trkpt><trkpt lat="44.3760339651562" lon="9.88128868236454"><ele>247.0</ele><time>2026-04-11T14:33:33Z</time></trkpt><trkpt lat="44.37604893856314" lon="9.881400886294598"><ele>246.49999999999997</ele><time>2026-04-11T14:33:34Z</time></trkpt><trkpt lat="44.37606483608356" lon="9.88151128920914"><ele>246.0</ele><time>2026-04-11T14:33:35Z</time></trkpt><trkpt lat="44.37607974204644" lon="9.881616702397029"><ele>245.5</ele><time>2026-04-11T14:33:36Z</time></trkpt><trkpt lat="44.37609192266836" lon="9.881722234508771"><ele>245.0</ele><time>2026-04-11T14:33:37Z</time></trkpt><trkpt lat="44.37611095067271" lon="9.881828977464059"><ele>244.49999999999997</ele><time>2026-04-11T14:33:38Z</time></trkpt><trkpt lat="44.376128997359416" lon="9.881941631229738"><ele>244.0</ele><time>2026-04-11T14:33:39Z</time></trkpt><trkpt lat="44.37615081479344" lon="9.882055715903684"><ele>242.99999999999997</ele><time>2026-04-11T14:33:40Z</time></trkpt><trkpt lat="44.37615747611614" lon="9.882170611469538"><ele>242.0</ele><time>2026-04-11T14:33:41Z</time></trkpt><trkpt lat="44.37617354789784" lon="9.882274562714223"><ele>241.0</ele><time>2026-04-11T14:33:42Z</time></trkpt><trkpt lat="44.376189168376335" lon="9.882375610512252"><ele>240.0</ele><time>2026-04-11T14:33:43Z</time></trkpt><trkpt lat="44.37621991301186" lon="9.882478097208047"><ele>238.99999999999997</ele><time>2026-04-11T14:33:44Z</time></trkpt><trkpt lat="44.37622889171085" lon="9.882578154264454"><ele>238.0</ele><time>2026-04-11T14:33:45Z</time></trkpt><trkpt lat="44.376247727125865" lon="9.88267534224679"><ele>237.99999999999997</ele><time>2026-04-11T14:33:46Z</time></trkpt><trkpt lat="44.37626493218568" lon="9.882768211782553"><ele>238.0</ele><time>2026-04-11T14:33:47Z</time></trkpt><trkpt lat="44.37627945572841" lon="9.882859939099754"><ele>238.0</ele><time>2026-04-11T14:33:48Z</time></trkpt><trkpt lat="44.37627822065047" lon="9.882951004165598"><ele>238.0</ele><time>2026-04-11T14:33:49Z</time></trkpt><trkpt lat="44.37630219696075" lon="9.883103922991147"><ele>237.99999999999997</ele><time>2026-04-11T14:33:51Z</time></trkpt><trkpt lat="44.37632150639399" lon="9.883224695817898"><ele>238.0</ele><time>2026-04-11T14:33:53Z</time></trkpt><trkpt lat="44.37633724332566" lon="9.8833238478015"><ele>237.99999999999997</ele><time>2026-04-11T14:33:55Z</time></trkpt><trkpt lat="44.37635150262682" lon="9.883415378162352"><ele>238.0</ele><time>2026-04-11T14:33:56.999Z</time></trkpt><trkpt lat="44.37636732847439" lon="9.88351696420674"><ele>238.0</ele><time>2026-04-11T14:33:58.999Z</time></trkpt><trkpt lat="44.37638354198885" lon="9.883621038818214"><ele>238.0</ele><time>2026-04-11T14:34:00.999Z</time></trkpt><trkpt lat="44.376405587759955" lon="9.883757853448547"><ele>237.99999999999997</ele><time>2026-04-11T14:34:02.999Z</time></trkpt><trkpt lat="44.37643198928435" lon="9.883920813026329"><ele>238.0</ele><time>2026-04-11T14:34:04.999Z</time></trkpt><trkpt lat="44.37644576201266" lon="9.884006774608244"><ele>238.14285714285714</ele><time>2026-04-11T14:34:05.999Z</time></trkpt><trkpt lat="44.37646000571906" lon="9.884095678062234"><ele>238.28571428571428</ele><time>2026-04-11T14:34:06.999Z</time></trkpt><trkpt lat="44.376476619839984" lon="9.884195169938977"><ele>238.42857142857144</ele><time>2026-04-11T14:34:07.999Z</time></trkpt><trkpt lat="44.376491809175256" lon="9.88428612996837"><ele>238.57142857142858</ele><time>2026-04-11T14:34:08.999Z</time></trkpt><trkpt lat="44.37650778999738" lon="9.884382070877836"><ele>238.71428571428572</ele><time>2026-04-11T14:34:09.999Z</time></trkpt><trkpt lat="44.37653838899135" lon="9.884470554267063"><ele>238.8571428571429</ele><time>2026-04-11T14:34:10.999Z</time></trkpt><trkpt lat="44.37654592191587" lon="9.884564700278805"><ele>239.00000000000003</ele><time>2026-04-11T14:34:11.999Z</time></trkpt><trkpt lat="44.376574318776605" lon="9.884727844737881"><ele>239.0</ele><time>2026-04-11T14:34:13.999Z</time></trkpt><trkpt lat="44.376599122858295" lon="9.884877243479187"><ele>238.99999999999997</ele><time>2026-04-11T14:34:15.999Z</time></trkpt><trkpt lat="44.3766149847029" lon="9.885001099328425"><ele>238.99999999999997</ele><time>2026-04-11T14:34:17.999Z</time></trkpt><trkpt lat="44.376633076155755" lon="9.885110181507464"><ele>239.0</ele><time>2026-04-11T14:34:20.999Z</time></trkpt><trkpt lat="44.37664845986012" lon="9.88521970667867"><ele>239.0</ele><time>2026-04-11T14:34:30.999Z</time></trkpt><trkpt lat="44.376783734121254" lon="9.885210035116145"><ele>239.83333333333334</ele><time>2026-04-11T14:34:31.999Z</time></trkpt><trkpt lat="44.37684862242182" lon="9.88518975762581"><ele>240.66666666666669</ele><time>2026-04-11T14:34:32.999Z</time></trkpt><trkpt lat="44.37695590531937" lon="9.885166825854775"><ele>241.5</ele><time>2026-04-11T14:34:33.999Z</time></trkpt><trkpt lat="44.37705938350219" lon="9.885141996548505"><ele>242.33333333333331</ele><time>2026-04-11T14:34:34.999Z</time></trkpt><trkpt lat="44.37714052983171" lon="9.885117672804874"><ele>243.16666666666666</ele><time>2026-04-11T14:34:35.999Z</time></trkpt><trkpt lat="44.37720655581315" lon="9.885107049179966"><ele>244.0</ele><time>2026-04-11T14:34:36.999Z</time></trkpt><trkpt lat="44.37732560341249" lon="9.885069617197631"><ele>244.0</ele><time>2026-04-11T14:34:38.999Z</time></trkpt><trkpt lat="44.37740434933618" lon="9.885040254436232"><ele>243.99999999999997</ele><time>2026-04-11T14:34:39.999Z</time></trkpt><trkpt lat="44.377485011785886" lon="9.884999398964275"><ele>243.99999999999997</ele><time>2026-04-11T14:34:40.999Z</time></trkpt><trkpt lat="44.37757410595031" lon="9.88495914701696"><ele>244.0</ele><time>2026-04-11T14:34:41.999Z</time></trkpt><trkpt lat="44.37767785807709" lon="9.88492042893762"><ele>244.0</ele><time>2026-04-11T14:34:42.999Z</time></trkpt><trkpt lat="44.377783359751746" lon="9.884881497386981"><ele>244.0</ele><time>2026-04-11T14:34:43.999Z</time></trkpt><trkpt lat="44.37790241540437" lon="9.884839257397331"><ele>244.0</ele><time>2026-04-11T14:34:44.999Z</time></trkpt><trkpt lat="44.378018924472975" lon="9.884797557106594"><ele>244.0</ele><time>2026-04-11T14:34:45.999Z</time></trkpt><trkpt lat="44.378138151958225" lon="9.884756803504446"><ele>244.0</ele><time>2026-04-11T14:34:46.999Z</time></trkpt><trkpt lat="44.37826520017311" lon="9.884710324366765"><ele>245.0</ele><time>2026-04-11T14:34:47.999Z</time></trkpt><trkpt lat="44.37839896146007" lon="9.884658128949328"><ele>246.0</ele><time>2026-04-11T14:34:48.999Z</time></trkpt><trkpt lat="44.378534021733046" lon="9.884603465164275"><ele>247.0</ele><time>2026-04-11T14:34:49.999Z</time></trkpt><trkpt lat="44.378671090690446" lon="9.884547429103906"><ele>248.0</ele><time>2026-04-11T14:34:50.999Z</time></trkpt><trkpt lat="44.37879497541198" lon="9.88449349365209"><ele>249.25</ele><time>2026-04-11T14:34:51.999Z</time></trkpt><trkpt lat="44.378921148693784" lon="9.884428971459318"><ele>250.5</ele><time>2026-04-11T14:34:52.999Z</time></trkpt><trkpt lat="44.379052611153085" lon="9.884356022199563"><ele>251.75</ele><time>2026-04-11T14:34:54Z</time></trkpt><trkpt lat="44.37918379040853" lon="9.88428272844393"><ele>253.0</ele><time>2026-04-11T14:34:55Z</time></trkpt><trkpt lat="44.37932528082799" lon="9.884216088603734"><ele>251.66666666666666</ele><time>2026-04-11T14:34:56Z</time></trkpt><trkpt lat="44.37946829938191" lon="9.88414039250139"><ele>250.33333333333331</ele><time>2026-04-11T14:34:57Z</time></trkpt><trkpt lat="44.379616857834705" lon="9.884084308419608"><ele>249.0</ele><time>2026-04-11T14:34:58Z</time></trkpt><trkpt lat="44.37976154380878" lon="9.88405145204249"><ele>249.0</ele><time>2026-04-11T14:34:59Z</time></trkpt><trkpt lat="44.37989587609698" lon="9.884049262514443"><ele>249.0</ele><time>2026-04-11T14:35:00Z</time></trkpt><trkpt lat="44.38002866215201" lon="9.884055954234983"><ele>249.0</ele><time>2026-04-11T14:35:01Z</time></trkpt><trkpt lat="44.38016045350943" lon="9.88409942039016"><ele>249.0</ele><time>2026-04-11T14:35:02.012Z</time></trkpt><trkpt lat="44.38029090500209" lon="9.884129277267053"><ele>249.0</ele><time>2026-04-11T14:35:03.013Z</time></trkpt><trkpt lat="44.38042448164062" lon="9.884176581382686"><ele>249.0</ele><time>2026-04-11T14:35:04.014Z</time></trkpt><trkpt lat="44.38054931721647" lon="9.884270075844332"><ele>249.0</ele><time>2026-04-11T14:35:05.014Z</time></trkpt><trkpt lat="44.38069701826611" lon="9.884367525094508"><ele>249.0</ele><time>2026-04-11T14:35:06.013Z</time></trkpt><trkpt lat="44.38081857134795" lon="9.88444313842545"><ele>260.0</ele><time>2026-04-11T14:35:07.015Z</time></trkpt><trkpt lat="44.38167534307053" lon="9.884706828752424"><ele>260.0</ele><time>2026-04-11T14:35:12Z</time></trkpt><trkpt lat="44.38183043935846" lon="9.884689541169243"><ele>260.0</ele><time>2026-04-11T14:35:13Z</time></trkpt><trkpt lat="44.38203392329752" lon="9.884658690881986"><ele>260.0</ele><time>2026-04-11T14:35:14Z</time></trkpt><trkpt lat="44.382168909032316" lon="9.88452204655319"><ele>258.0</ele><time>2026-04-11T14:35:15Z</time></trkpt><trkpt lat="44.38228042330306" lon="9.884354344851763"><ele>256.0</ele><time>2026-04-11T14:35:16Z</time></trkpt><trkpt lat="44.3823982608894" lon="9.884202333477917"><ele>254.0</ele><time>2026-04-11T14:35:17Z</time></trkpt><trkpt lat="44.38253104588965" lon="9.884086977225428"><ele>252.33333333333334</ele><time>2026-04-11T14:35:18Z</time></trkpt><trkpt lat="44.38265598658207" lon="9.88397174138662"><ele>250.66666666666669</ele><time>2026-04-11T14:35:19Z</time></trkpt><trkpt lat="44.38278677903211" lon="9.883879603836156"><ele>249.0</ele><time>2026-04-11T14:35:20Z</time></trkpt><trkpt lat="44.38293745014775" lon="9.88383388138094"><ele>249.0</ele><time>2026-04-11T14:35:21Z</time></trkpt><trkpt lat="44.38309223606134" lon="9.883814338456917"><ele>249.0</ele><time>2026-04-11T14:35:22Z</time></trkpt><trkpt lat="44.383259131937834" lon="9.883803103255268"><ele>249.0</ele><time>2026-04-11T14:35:23Z</time></trkpt><trkpt lat="44.38342386944956" lon="9.883786662274112"><ele>249.0</ele><time>2026-04-11T14:35:24Z</time></trkpt><trkpt lat="44.38358276916785" lon="9.883760664075247"><ele>249.0</ele><time>2026-04-11T14:35:25Z</time></trkpt><trkpt lat="44.383741959890216" lon="9.88373822508923"><ele>249.0</ele><time>2026-04-11T14:35:26Z</time></trkpt><trkpt lat="44.38389890442545" lon="9.883719013336444"><ele>250.33333333333331</ele><time>2026-04-11T14:35:27Z</time></trkpt><trkpt lat="44.38406281149653" lon="9.883716215523801"><ele>251.66666666666666</ele><time>2026-04-11T14:35:28Z</time></trkpt><trkpt lat="44.38422579490825" lon="9.883725307310712"><ele>253.0</ele><time>2026-04-11T14:35:29Z</time></trkpt><trkpt lat="44.38437145426457" lon="9.883715013782679"><ele>253.0</ele><time>2026-04-11T14:35:30Z</time></trkpt><trkpt lat="44.38450715486787" lon="9.883753577832614"><ele>253.0</ele><time>2026-04-11T14:35:31Z</time></trkpt><trkpt lat="44.38469738600887" lon="9.883771663217043"><ele>253.0</ele><time>2026-04-11T14:35:32Z</time></trkpt><trkpt lat="44.384834428950406" lon="9.883792653207868"><ele>253.60000000000002</ele><time>2026-04-11T14:35:33Z</time></trkpt><trkpt lat="44.384959720163216" lon="9.883805761214228"><ele>254.20000000000002</ele><time>2026-04-11T14:35:34Z</time></trkpt><trkpt lat="44.385074379437874" lon="9.883825430781085"><ele>254.8</ele><time>2026-04-11T14:35:35Z</time></trkpt><trkpt lat="44.38518155960701" lon="9.88384531980288"><ele>255.4</ele><time>2026-04-11T14:35:36Z</time></trkpt><trkpt lat="44.385279115406014" lon="9.883862649002992"><ele>256.0</ele><time>2026-04-11T14:35:37Z</time></trkpt><trkpt lat="44.385382711785915" lon="9.88387744036687"><ele>256.0</ele><time>2026-04-11T14:35:38Z</time></trkpt><trkpt lat="44.38548857272293" lon="9.883888992281078"><ele>256.0</ele><time>2026-04-11T14:35:39Z</time></trkpt><trkpt lat="44.38559803895189" lon="9.883911527410184"><ele>256.0</ele><time>2026-04-11T14:35:40Z</time></trkpt><trkpt lat="44.38570318394052" lon="9.88392283459796"><ele>256.0</ele><time>2026-04-11T14:35:41Z</time></trkpt><trkpt lat="44.38580362825459" lon="9.883945680762789"><ele>256.0</ele><time>2026-04-11T14:35:42Z</time></trkpt><trkpt lat="44.38590256528741" lon="9.883963641749057"><ele>256.40000000000003</ele><time>2026-04-11T14:35:43Z</time></trkpt><trkpt lat="44.38600502949177" lon="9.883978686655801"><ele>256.8</ele><time>2026-04-11T14:35:44Z</time></trkpt><trkpt lat="44.386103565336605" lon="9.88399157162417"><ele>257.20000000000005</ele><time>2026-04-11T14:35:45Z</time></trkpt><trkpt lat="44.38619624899955" lon="9.88400169971069"><ele>257.6</ele><time>2026-04-11T14:35:46Z</time></trkpt><trkpt lat="44.386300147353474" lon="9.884014722414166"><ele>258.0</ele><time>2026-04-11T14:35:47Z</time></trkpt><trkpt lat="44.38640798323129" lon="9.884029351027735"><ele>258.5</ele><time>2026-04-11T14:35:48Z</time></trkpt><trkpt lat="44.386503212147815" lon="9.884043541958123"><ele>259.0</ele><time>2026-04-11T14:35:49Z</time></trkpt><trkpt lat="44.38659344028778" lon="9.884057958209034"><ele>259.5</ele><time>2026-04-11T14:35:50Z</time></trkpt><trkpt lat="44.386678368745606" lon="9.884070511526977"><ele>260.0</ele><time>2026-04-11T14:35:51Z</time></trkpt><trkpt lat="44.3867643930154" lon="9.88407947532036"><ele>260.5</ele><time>2026-04-11T14:35:52Z</time></trkpt><trkpt lat="44.38684577634141" lon="9.884092976724887"><ele>261.0</ele><time>2026-04-11T14:35:53Z</time></trkpt><trkpt lat="44.38692832759683" lon="9.884103249924243"><ele>261.0</ele><time>2026-04-11T14:35:54Z</time></trkpt><trkpt lat="44.387010059754246" lon="9.884115214352256"><ele>261.0</ele><time>2026-04-11T14:35:55Z</time></trkpt><trkpt lat="44.387092378554925" lon="9.884129794978735"><ele>261.0</ele><time>2026-04-11T14:35:56Z</time></trkpt><trkpt lat="44.387174578337145" lon="9.884145451212486"><ele>261.0</ele><time>2026-04-11T14:35:57Z</time></trkpt><trkpt lat="44.38726742450495" lon="9.884158883301268"><ele>261.0</ele><time>2026-04-11T14:35:58Z</time></trkpt><trkpt lat="44.38736708659089" lon="9.884171058413916"><ele>261.0</ele><time>2026-04-11T14:35:59Z</time></trkpt><trkpt lat="44.38748319857533" lon="9.88418771835387"><ele>261.0</ele><time>2026-04-11T14:36:00Z</time></trkpt><trkpt lat="44.387601925096995" lon="9.88420612599622"><ele>261.0</ele><time>2026-04-11T14:36:01Z</time></trkpt><trkpt lat="44.38772330515026" lon="9.884219732208397"><ele>261.0</ele><time>2026-04-11T14:36:02Z</time></trkpt><trkpt lat="44.38785466375199" lon="9.884244209980723"><ele>261.0</ele><time>2026-04-11T14:36:02.999Z</time></trkpt><trkpt lat="44.38799289192028" lon="9.88426519242506"><ele>262.0</ele><time>2026-04-11T14:36:03.999Z</time></trkpt><trkpt lat="44.38813719293814" lon="9.884290979680893"><ele>263.0</ele><time>2026-04-11T14:36:04.999Z</time></trkpt><trkpt lat="44.38827854856634" lon="9.884313757415391"><ele>264.0</ele><time>2026-04-11T14:36:05.999Z</time></trkpt><trkpt lat="44.38841265230951" lon="9.884334342954583"><ele>265.0</ele><time>2026-04-11T14:36:06.999Z</time></trkpt><trkpt lat="44.388549454000696" lon="9.884353758992237"><ele>265.0</ele><time>2026-04-11T14:36:07.999Z</time></trkpt><trkpt lat="44.38868718821318" lon="9.884373298846569"><ele>265.0</ele><time>2026-04-11T14:36:08.999Z</time></trkpt><trkpt lat="44.38882869869374" lon="9.884386967190407"><ele>265.0</ele><time>2026-04-11T14:36:09.999Z</time></trkpt><trkpt lat="44.38895791665822" lon="9.884400100364715"><ele>265.0</ele><time>2026-04-11T14:36:10.999Z</time></trkpt><trkpt lat="44.38907908250295" lon="9.884413567226657"><ele>265.0</ele><time>2026-04-11T14:36:11.999Z</time></trkpt><trkpt lat="44.38920725175598" lon="9.8844214085104"><ele>265.0</ele><time>2026-04-11T14:36:12.999Z</time></trkpt><trkpt lat="44.389340849884924" lon="9.884419040989162"><ele>265.0</ele><time>2026-04-11T14:36:13.999Z</time></trkpt><trkpt lat="44.38947679002291" lon="9.884418211614522"><ele>265.0</ele><time>2026-04-11T14:36:14.999Z</time></trkpt><trkpt lat="44.38961785671854" lon="9.884407270265367"><ele>266.0</ele><time>2026-04-11T14:36:15.999Z</time></trkpt><trkpt lat="44.389765671496555" lon="9.884383363433685"><ele>267.0</ele><time>2026-04-11T14:36:16.999Z</time></trkpt><trkpt lat="44.38991012672476" lon="9.884340976782255"><ele>268.0</ele><time>2026-04-11T14:36:17.999Z</time></trkpt><trkpt lat="44.390060713976624" lon="9.884287416995859"><ele>271.0</ele><time>2026-04-11T14:36:18.999Z</time></trkpt><trkpt lat="44.39021164654302" lon="9.884227398337597"><ele>274.0</ele><time>2026-04-11T14:36:19.999Z</time></trkpt><trkpt lat="44.39035949866658" lon="9.88415237380609"><ele>277.0</ele><time>2026-04-11T14:36:20.999Z</time></trkpt><trkpt lat="44.39050657821537" lon="9.884067757255812"><ele>277.0</ele><time>2026-04-11T14:36:21.999Z</time></trkpt><trkpt lat="44.39065170819034" lon="9.883972276002194"><ele>277.0</ele><time>2026-04-11T14:36:22.999Z</time></trkpt><trkpt lat="44.390790269117126" lon="9.883857974750253"><ele>277.0</ele><time>2026-04-11T14:36:23.999Z</time></trkpt><trkpt lat="44.39092135981957" lon="9.883733159905626"><ele>277.0</ele><time>2026-04-11T14:36:24.999Z</time></trkpt><trkpt lat="44.39104429037619" lon="9.883613110544703"><ele>277.0</ele><time>2026-04-11T14:36:25.999Z</time></trkpt><trkpt lat="44.391145590889884" lon="9.88351296298392"><ele>277.0</ele><time>2026-04-11T14:36:26.999Z</time></trkpt><trkpt lat="44.391247003842736" lon="9.883408895489898"><ele>277.0</ele><time>2026-04-11T14:36:27.999Z</time></trkpt><trkpt lat="44.39135323379451" lon="9.883293547328202"><ele>278.25</ele><time>2026-04-11T14:36:28.999Z</time></trkpt><trkpt lat="44.391467729931605" lon="9.883176158455704"><ele>279.5</ele><time>2026-04-11T14:36:29.999Z</time></trkpt><trkpt lat="44.39157980545782" lon="9.88305396483176"><ele>280.75</ele><time>2026-04-11T14:36:30.999Z</time></trkpt><trkpt lat="44.39169235644491" lon="9.882938019112027"><ele>282.0</ele><time>2026-04-11T14:36:31.999Z</time></trkpt><trkpt lat="44.391805241618236" lon="9.882822605302445"><ele>282.0</ele><time>2026-04-11T14:36:32.999Z</time></trkpt><trkpt lat="44.39191816117603" lon="9.882716168112076"><ele>282.0</ele><time>2026-04-11T14:36:33.999Z</time></trkpt><trkpt lat="44.39202879967157" lon="9.882607219185525"><ele>282.0</ele><time>2026-04-11T14:36:34.999Z</time></trkpt><trkpt lat="44.39213909467844" lon="9.882493765330699"><ele>282.0</ele><time>2026-04-11T14:36:35.999Z</time></trkpt><trkpt lat="44.392249453314555" lon="9.882380747231588"><ele>283.5</ele><time>2026-04-11T14:36:36.999Z</time></trkpt><trkpt lat="44.39236163973962" lon="9.882263733767939"><ele>285.0</ele><time>2026-04-11T14:36:37.999Z</time></trkpt><trkpt lat="44.3924751007371" lon="9.882147908718947"><ele>286.5</ele><time>2026-04-11T14:36:38.999Z</time></trkpt><trkpt lat="44.392599566243675" lon="9.882031336849053"><ele>288.0</ele><time>2026-04-11T14:36:39.999Z</time></trkpt><trkpt lat="44.39271237138616" lon="9.881925039656375"><ele>288.0</ele><time>2026-04-11T14:36:40.999Z</time></trkpt><trkpt lat="44.39281544973541" lon="9.881826338225556"><ele>288.0</ele><time>2026-04-11T14:36:41.999Z</time></trkpt><trkpt lat="44.39292754651912" lon="9.88172106161801"><ele>288.0</ele><time>2026-04-11T14:36:42.999Z</time></trkpt><trkpt lat="44.39303598946169" lon="9.881608072695643"><ele>288.0</ele><time>2026-04-11T14:36:43.999Z</time></trkpt><trkpt lat="44.39314643733453" lon="9.881492856613468"><ele>287.0</ele><time>2026-04-11T14:36:44.999Z</time></trkpt><trkpt lat="44.39325052564472" lon="9.88138411498283"><ele>286.0</ele><time>2026-04-11T14:36:45.999Z</time></trkpt><trkpt lat="44.39335284102181" lon="9.881301224808636"><ele>285.0</ele><time>2026-04-11T14:36:46.999Z</time></trkpt><trkpt lat="44.39346250202318" lon="9.881269480123548"><ele>284.0</ele><time>2026-04-11T14:36:47.999Z</time></trkpt><trkpt lat="44.39357445929521" lon="9.881303360401901"><ele>284.0</ele><time>2026-04-11T14:36:48.999Z</time></trkpt><trkpt lat="44.393660121321865" lon="9.88143140523485"><ele>284.0</ele><time>2026-04-11T14:36:49.999Z</time></trkpt><trkpt lat="44.393749597968025" lon="9.881576690646813"><ele>284.0</ele><time>2026-04-11T14:36:50.999Z</time></trkpt><trkpt lat="44.39384801023151" lon="9.881730416545459"><ele>284.0</ele><time>2026-04-11T14:36:51.999Z</time></trkpt><trkpt lat="44.39395075198903" lon="9.881900936501392"><ele>284.33333333333337</ele><time>2026-04-11T14:36:52.999Z</time></trkpt><trkpt lat="44.394055036804595" lon="9.882069353026564"><ele>284.6666666666667</ele><time>2026-04-11T14:36:53.999Z</time></trkpt><trkpt lat="44.394155179123544" lon="9.882231647298301"><ele>285.0</ele><time>2026-04-11T14:36:54.999Z</time></trkpt><trkpt lat="44.39425995506079" lon="9.882386179358186"><ele>285.0</ele><time>2026-04-11T14:36:55.999Z</time></trkpt><trkpt lat="44.39438551481607" lon="9.882515960832762"><ele>285.0</ele><time>2026-04-11T14:36:56.999Z</time></trkpt><trkpt lat="44.39453805400453" lon="9.882592163722427"><ele>285.0</ele><time>2026-04-11T14:36:57.999Z</time></trkpt><trkpt lat="44.39472747015117" lon="9.882610161018771"><ele>284.0</ele><time>2026-04-11T14:36:58.999Z</time></trkpt><trkpt lat="44.394913831459824" lon="9.882576207969935"><ele>283.0</ele><time>2026-04-11T14:37:00Z</time></trkpt><trkpt lat="44.395102675511154" lon="9.882556666610972"><ele>282.0</ele><time>2026-04-11T14:37:01Z</time></trkpt><trkpt lat="44.39528324216139" lon="9.882598674967552"><ele>282.0</ele><time>2026-04-11T14:37:02Z</time></trkpt><trkpt lat="44.3954666196748" lon="9.882661254330674"><ele>282.0</ele><time>2026-04-11T14:37:03Z</time></trkpt><trkpt lat="44.39567779529289" lon="9.88271672323216"><ele>282.0</ele><time>2026-04-11T14:37:04Z</time></trkpt><trkpt lat="44.3958953250013" lon="9.882795945913768"><ele>286.6666666666667</ele><time>2026-04-11T14:37:05Z</time></trkpt><trkpt lat="44.39609938209163" lon="9.882858047082648"><ele>291.33333333333337</ele><time>2026-04-11T14:37:06Z</time></trkpt><trkpt lat="44.39627834958946" lon="9.88291690040657"><ele>296.0</ele><time>2026-04-11T14:37:07Z</time></trkpt><trkpt lat="44.396438546092874" lon="9.88304188949253"><ele>300.0</ele><time>2026-04-11T14:37:08Z</time></trkpt><trkpt lat="44.39659454390779" lon="9.883194318555672"><ele>304.0</ele><time>2026-04-11T14:37:09Z</time></trkpt><trkpt lat="44.396695103740946" lon="9.88336551486829"><ele>308.0</ele><time>2026-04-11T14:37:10Z</time></trkpt><trkpt lat="44.39675553882036" lon="9.883603204807004"><ele>308.0</ele><time>2026-04-11T14:37:11Z</time></trkpt><trkpt lat="44.39684549369709" lon="9.883866654121375"><ele>308.0</ele><time>2026-04-11T14:37:12Z</time></trkpt><trkpt lat="44.39695065752369" lon="9.88414845281978"><ele>308.0</ele><time>2026-04-11T14:37:13Z</time></trkpt><trkpt lat="44.39709320455608" lon="9.884401199412185"><ele>316.5</ele><time>2026-04-11T14:37:14Z</time></trkpt><trkpt lat="44.397224690817865" lon="9.884693932967426"><ele>325.0</ele><time>2026-04-11T14:37:15Z</time></trkpt><trkpt lat="44.39737745105444" lon="9.88497978754817"><ele>321.0</ele><time>2026-04-11T14:37:16Z</time></trkpt><trkpt lat="44.39750680928776" lon="9.88522384034537"><ele>317.0</ele><time>2026-04-11T14:37:17Z</time></trkpt><trkpt lat="44.3976313938502" lon="9.885426060145738"><ele>313.0</ele><time>2026-04-11T14:37:18Z</time></trkpt><trkpt lat="44.397767821005054" lon="9.885591890879002"><ele>313.0</ele><time>2026-04-11T14:37:19Z</time></trkpt><trkpt lat="44.397888923910905" lon="9.88569223120777"><ele>313.0</ele><time>2026-04-11T14:37:20Z</time></trkpt><trkpt lat="44.39801347065378" lon="9.885714712527271"><ele>313.0</ele><time>2026-04-11T14:37:21Z</time></trkpt><trkpt lat="44.39815792246514" lon="9.88566235165731"><ele>313.0</ele><time>2026-04-11T14:37:22Z</time></trkpt><trkpt lat="44.39831203002139" lon="9.885567900524128"><ele>318.0</ele><time>2026-04-11T14:37:23Z</time></trkpt><trkpt lat="44.398468597442026" lon="9.88560930320149"><ele>323.0</ele><time>2026-04-11T14:37:24Z</time></trkpt><trkpt lat="44.39866197025269" lon="9.885679191390198"><ele>328.0</ele><time>2026-04-11T14:37:25Z</time></trkpt><trkpt lat="44.39883449143331" lon="9.885722080734633"><ele>324.0</ele><time>2026-04-11T14:37:26Z</time></trkpt><trkpt lat="44.39898047224123" lon="9.885748438307282"><ele>320.0</ele><time>2026-04-11T14:37:27Z</time></trkpt><trkpt lat="44.399057516647915" lon="9.88594938085743"><ele>316.0</ele><time>2026-04-11T14:37:28Z</time></trkpt><trkpt lat="44.39916826374149" lon="9.886044257899037"><ele>312.0</ele><time>2026-04-11T14:37:29Z</time></trkpt><trkpt lat="44.39930781547604" lon="9.886147603624423"><ele>312.0</ele><time>2026-04-11T14:37:30Z</time></trkpt><trkpt lat="44.3994972709485" lon="9.88616147450115"><ele>312.0</ele><time>2026-04-11T14:37:31Z</time></trkpt><trkpt lat="44.39970778505702" lon="9.886167827597342"><ele>312.0</ele><time>2026-04-11T14:37:32Z</time></trkpt><trkpt lat="44.39988258121898" lon="9.886238040606132"><ele>319.0</ele><time>2026-04-11T14:37:33Z</time></trkpt><trkpt lat="44.40002580566549" lon="9.886384601293964"><ele>326.0</ele><time>2026-04-11T14:37:34Z</time></trkpt><trkpt lat="44.400100353183376" lon="9.886619677975721"><ele>333.0</ele><time>2026-04-11T14:37:35Z</time></trkpt><trkpt lat="44.4001732221712" lon="9.88688018296005"><ele>333.0</ele><time>2026-04-11T14:37:36Z</time></trkpt><trkpt lat="44.40022880505603" lon="9.887150910450774"><ele>333.0</ele><time>2026-04-11T14:37:37Z</time></trkpt><trkpt lat="44.400274246125214" lon="9.887373746765851"><ele>333.0</ele><time>2026-04-11T14:37:38Z</time></trkpt><trkpt lat="44.400367791856134" lon="9.887554368035545"><ele>337.6666666666667</ele><time>2026-04-11T14:37:39Z</time></trkpt><trkpt lat="44.400523743208936" lon="9.887711225518418"><ele>342.33333333333337</ele><time>2026-04-11T14:37:40Z</time></trkpt><trkpt lat="44.400710646753296" lon="9.887856937950625"><ele>347.0</ele><time>2026-04-11T14:37:41Z</time></trkpt><trkpt lat="44.40088629162282" lon="9.888007041248335"><ele>347.0</ele><time>2026-04-11T14:37:42Z</time></trkpt><trkpt lat="44.40102994541957" lon="9.888144809968953"><ele>347.0</ele><time>2026-04-11T14:37:43Z</time></trkpt><trkpt lat="44.40115141411394" lon="9.888263765435505"><ele>347.0</ele><time>2026-04-11T14:37:44Z</time></trkpt><trkpt lat="44.40124636479274" lon="9.888346766853044"><ele>347.0</ele><time>2026-04-11T14:37:45Z</time></trkpt><trkpt lat="44.401321305444" lon="9.888358332780134"><ele>347.0</ele><time>2026-04-11T14:37:46Z</time></trkpt><trkpt lat="44.40137370031552" lon="9.888287956115352"><ele>347.0</ele><time>2026-04-11T14:37:47Z</time></trkpt><trkpt lat="44.40140670513579" lon="9.888210289761046"><ele>347.0</ele><time>2026-04-11T14:37:48Z</time></trkpt><trkpt lat="44.401324122202354" lon="9.888049099693585"><ele>347.0</ele><time>2026-04-11T14:37:49Z</time></trkpt><trkpt lat="44.401206089514766" lon="9.88793614074699"><ele>347.0</ele><time>2026-04-11T14:37:50Z</time></trkpt><trkpt lat="44.401076089247724" lon="9.887769388774252"><ele>347.0</ele><time>2026-04-11T14:37:51Z</time></trkpt><trkpt lat="44.400931916234924" lon="9.887601961868825"><ele>347.0</ele><time>2026-04-11T14:37:52Z</time></trkpt><trkpt lat="44.40080580878236" lon="9.887450194219268"><ele>347.0</ele><time>2026-04-11T14:37:53Z</time></trkpt><trkpt lat="44.40070600895402" lon="9.887284848137634"><ele>353.33333333333337</ele><time>2026-04-11T14:37:54Z</time></trkpt><trkpt lat="44.40067786196412" lon="9.88705588001593"><ele>359.6666666666667</ele><time>2026-04-11T14:37:55Z</time></trkpt><trkpt lat="44.40066479808662" lon="9.886794108664876"><ele>366.0</ele><time>2026-04-11T14:37:56Z</time></trkpt><trkpt lat="44.40064521979062" lon="9.886561311296141"><ele>368.3333333333333</ele><time>2026-04-11T14:37:57Z</time></trkpt><trkpt lat="44.40057178100786" lon="9.886298747093205"><ele>370.66666666666663</ele><time>2026-04-11T14:37:58Z</time></trkpt><trkpt lat="44.400460830950344" lon="9.88604441569105"><ele>373.0</ele><time>2026-04-11T14:37:59Z</time></trkpt><trkpt lat="44.40031173500696" lon="9.885801549272959"><ele>373.0</ele><time>2026-04-11T14:38:00Z</time></trkpt><trkpt lat="44.40016704390546" lon="9.88559524681032"><ele>373.0</ele><time>2026-04-11T14:38:01Z</time></trkpt><trkpt lat="44.40000233967783" lon="9.885455532290129"><ele>373.0</ele><time>2026-04-11T14:38:02Z</time></trkpt><trkpt lat="44.39983185764885" lon="9.88539229194726"><ele>373.0</ele><time>2026-04-11T14:38:03Z</time></trkpt><trkpt lat="44.399683732786656" lon="9.885327759734793"><ele>373.0</ele><time>2026-04-11T14:38:04Z</time></trkpt><trkpt lat="44.39957498134846" lon="9.88522876532527"><ele>373.0</ele><time>2026-04-11T14:38:05Z</time></trkpt><trkpt lat="44.399499527339714" lon="9.885036125742785"><ele>373.0</ele><time>2026-04-11T14:38:05.999Z</time></trkpt><trkpt lat="44.39938437133304" lon="9.884822782442589"><ele>374.66666666666663</ele><time>2026-04-11T14:38:06.999Z</time></trkpt><trkpt lat="44.39928879141887" lon="9.88458634216899"><ele>376.3333333333333</ele><time>2026-04-11T14:38:07.999Z</time></trkpt><trkpt lat="44.39917904036119" lon="9.884376050595657"><ele>378.0</ele><time>2026-04-11T14:38:08.999Z</time></trkpt><trkpt lat="44.399060083730056" lon="9.884186785711519"><ele>374.3333333333333</ele><time>2026-04-11T14:38:09.999Z</time></trkpt><trkpt lat="44.39892635051416" lon="9.884020702275206"><ele>370.66666666666663</ele><time>2026-04-11T14:38:10.999Z</time></trkpt><trkpt lat="44.398848969409514" lon="9.883833393594074"><ele>367.0</ele><time>2026-04-11T14:38:11.999Z</time></trkpt><trkpt lat="44.3987928971031" lon="9.883632740096745"><ele>371.3333333333333</ele><time>2026-04-11T14:38:12.999Z</time></trkpt><trkpt lat="44.39877096981798" lon="9.883393615295203"><ele>375.6666666666667</ele><time>2026-04-11T14:38:13.999Z</time></trkpt><trkpt lat="44.39877269368805" lon="9.883125884505176"><ele>380.0</ele><time>2026-04-11T14:38:14.999Z</time></trkpt><trkpt lat="44.39876262578745" lon="9.882858274950776"><ele>380.0</ele><time>2026-04-11T14:38:15.999Z</time></trkpt><trkpt lat="44.39872878895588" lon="9.882621187577115"><ele>380.0</ele><time>2026-04-11T14:38:16.999Z</time></trkpt><trkpt lat="44.39861508122805" lon="9.882416709130524"><ele>380.0</ele><time>2026-04-11T14:38:17.999Z</time></trkpt><trkpt lat="44.398503862726386" lon="9.882230824561045"><ele>382.2</ele><time>2026-04-11T14:38:18.999Z</time></trkpt><trkpt lat="44.39843978816322" lon="9.882063215009914"><ele>384.4</ele><time>2026-04-11T14:38:19.999Z</time></trkpt><trkpt lat="44.39839885501811" lon="9.881907386489072"><ele>386.6</ele><time>2026-04-11T14:38:20.999Z</time></trkpt><trkpt lat="44.398375003220174" lon="9.881779112945468"><ele>388.8</ele><time>2026-04-11T14:38:21.999Z</time></trkpt><trkpt lat="44.39835995395897" lon="9.88168708362359"><ele>391.0</ele><time>2026-04-11T14:38:22.999Z</time></trkpt><trkpt lat="44.39841222822865" lon="9.881630717945521"><ele>391.0</ele><time>2026-04-11T14:38:23.999Z</time></trkpt><trkpt lat="44.398497346131975" lon="9.881660186869196"><ele>391.0</ele><time>2026-04-11T14:38:24.999Z</time></trkpt><trkpt lat="44.39853842069005" lon="9.881758263060739"><ele>391.0</ele><time>2026-04-11T14:38:25.999Z</time></trkpt><trkpt lat="44.39857664895042" lon="9.881896383399738"><ele>391.0</ele><time>2026-04-11T14:38:26.999Z</time></trkpt><trkpt lat="44.39862175719724" lon="9.882059731662391"><ele>391.0</ele><time>2026-04-11T14:38:27.999Z</time></trkpt><trkpt lat="44.398682214279624" lon="9.882244928106747"><ele>391.0</ele><time>2026-04-11T14:38:28.999Z</time></trkpt><trkpt lat="44.39875963745706" lon="9.882399031217641"><ele>391.0</ele><time>2026-04-11T14:38:29.999Z</time></trkpt><trkpt lat="44.398898378484795" lon="9.882493638353287"><ele>391.0</ele><time>2026-04-11T14:38:30.999Z</time></trkpt><trkpt lat="44.39906701040673" lon="9.882545661839645"><ele>396.25</ele><time>2026-04-11T14:38:31.999Z</time></trkpt><trkpt lat="44.399222563172984" lon="9.882619712888093"><ele>401.5</ele><time>2026-04-11T14:38:32.999Z</time></trkpt><trkpt lat="44.39933106028235" lon="9.882741426222323"><ele>406.75</ele><time>2026-04-11T14:38:33.999Z</time></trkpt><trkpt lat="44.39935387837053" lon="9.882940825967522"><ele>412.0</ele><time>2026-04-11T14:38:34.999Z</time></trkpt><trkpt lat="44.39935975251311" lon="9.883132521451897"><ele>412.0</ele><time>2026-04-11T14:38:35.999Z</time></trkpt><trkpt lat="44.3993452151151" lon="9.883325119361615"><ele>412.0</ele><time>2026-04-11T14:38:36.999Z</time></trkpt><trkpt lat="44.39939163260519" lon="9.883485652042104"><ele>412.0</ele><time>2026-04-11T14:38:37.999Z</time></trkpt><trkpt lat="44.39951309385671" lon="9.883609779600963"><ele>412.0</ele><time>2026-04-11T14:38:38.999Z</time></trkpt><trkpt lat="44.39966994578893" lon="9.883730592940074"><ele>416.0</ele><time>2026-04-11T14:38:39.999Z</time></trkpt><trkpt lat="44.39984347180239" lon="9.883910007400438"><ele>420.0</ele><time>2026-04-11T14:38:40.999Z</time></trkpt><trkpt lat="44.4000009121372" lon="9.884099853274682"><ele>424.0</ele><time>2026-04-11T14:38:41.999Z</time></trkpt><trkpt lat="44.40016233271987" lon="9.884248606346736"><ele>423.6666666666667</ele><time>2026-04-11T14:38:42.999Z</time></trkpt><trkpt lat="44.40033890791099" lon="9.884334576585166"><ele>423.33333333333337</ele><time>2026-04-11T14:38:43.999Z</time></trkpt><trkpt lat="44.40052577366126" lon="9.884390926460384"><ele>423.0</ele><time>2026-04-11T14:38:44.999Z</time></trkpt><trkpt lat="44.40065651484406" lon="9.884537111500903"><ele>423.0</ele><time>2026-04-11T14:38:45.999Z</time></trkpt><trkpt lat="44.4008020411328" lon="9.884692523962286"><ele>423.0</ele><time>2026-04-11T14:38:46.999Z</time></trkpt><trkpt lat="44.400927603357346" lon="9.884839120434942"><ele>423.0</ele><time>2026-04-11T14:38:47.999Z</time></trkpt><trkpt lat="44.40108371790466" lon="9.884923286446124"><ele>423.0</ele><time>2026-04-11T14:38:48.999Z</time></trkpt><trkpt lat="44.40125985801947" lon="9.884982246534552"><ele>423.0</ele><time>2026-04-11T14:38:49.999Z</time></trkpt><trkpt lat="44.40144526945623" lon="9.885054413275535"><ele>423.0</ele><time>2026-04-11T14:38:50.999Z</time></trkpt><trkpt lat="44.40164172450193" lon="9.885132331477294"><ele>423.33333333333337</ele><time>2026-04-11T14:38:51.999Z</time></trkpt><trkpt lat="44.40185940862939" lon="9.885189988926829"><ele>423.6666666666667</ele><time>2026-04-11T14:38:52.999Z</time></trkpt><trkpt lat="44.40207633245539" lon="9.88521832351403"><ele>424.0</ele><time>2026-04-11T14:38:53.999Z</time></trkpt><trkpt lat="44.40229060483702" lon="9.88525050280277"><ele>430.6666666666667</ele><time>2026-04-11T14:38:54.999Z</time></trkpt><trkpt lat="44.40249101633747" lon="9.885276557469751"><ele>437.33333333333337</ele><time>2026-04-11T14:38:55.999Z</time></trkpt><trkpt lat="44.40268041213295" lon="9.885353367703155"><ele>444.0</ele><time>2026-04-11T14:38:56.999Z</time></trkpt><trkpt lat="44.40285127953838" lon="9.88545537930588"><ele>444.0</ele><time>2026-04-11T14:38:57.999Z</time></trkpt><trkpt lat="44.40300004603625" lon="9.885622020901152"><ele>444.0</ele><time>2026-04-11T14:38:58.999Z</time></trkpt><trkpt lat="44.403155750393" lon="9.885819715984614"><ele>444.0</ele><time>2026-04-11T14:38:59.999Z</time></trkpt><trkpt lat="44.40328437666525" lon="9.886017907481405"><ele>444.0</ele><time>2026-04-11T14:39:00.999Z</time></trkpt><trkpt lat="44.40345030464204" lon="9.886142480309703"><ele>444.0</ele><time>2026-04-11T14:39:01.999Z</time></trkpt><trkpt lat="44.40363921133379" lon="9.88627247176396"><ele>444.0</ele><time>2026-04-11T14:39:02.999Z</time></trkpt><trkpt lat="44.40381093616299" lon="9.886404652095306"><ele>447.75</ele><time>2026-04-11T14:39:03.999Z</time></trkpt><trkpt lat="44.40396658454042" lon="9.886536273659235"><ele>451.5</ele><time>2026-04-11T14:39:04.999Z</time></trkpt><trkpt lat="44.4040970023096" lon="9.88663983149825"><ele>455.25</ele><time>2026-04-11T14:39:06Z</time></trkpt><trkpt lat="44.40419144266943" lon="9.886708237615258"><ele>459.0</ele><time>2026-04-11T14:39:07Z</time></trkpt><trkpt lat="44.40429553408911" lon="9.88666129745579"><ele>459.0</ele><time>2026-04-11T14:39:09Z</time></trkpt><trkpt lat="44.40432988850095" lon="9.886542630228355"><ele>459.0</ele><time>2026-04-11T14:39:10Z</time></trkpt><trkpt lat="44.40430097432205" lon="9.886404965620093"><ele>459.0</ele><time>2026-04-11T14:39:11Z</time></trkpt><trkpt lat="44.404196450308476" lon="9.886314381418423"><ele>459.0</ele><time>2026-04-11T14:39:12Z</time></trkpt><trkpt lat="44.404041322315216" lon="9.886257121258755"><ele>459.0</ele><time>2026-04-11T14:39:13Z</time></trkpt><trkpt lat="44.40386747268909" lon="9.886120225103886"><ele>459.0</ele><time>2026-04-11T14:39:14Z</time></trkpt><trkpt lat="44.40370252517427" lon="9.88598683882489"><ele>459.0</ele><time>2026-04-11T14:39:15Z</time></trkpt><trkpt lat="44.40356558342302" lon="9.885846049178427"><ele>459.66666666666663</ele><time>2026-04-11T14:39:16Z</time></trkpt><trkpt lat="44.403477858190335" lon="9.88567172115884"><ele>460.3333333333333</ele><time>2026-04-11T14:39:17Z</time></trkpt><trkpt lat="44.40338754825299" lon="9.88542554551286"><ele>461.0</ele><time>2026-04-11T14:39:18Z</time></trkpt><trkpt lat="44.403275034098456" lon="9.885199726378502"><ele>461.66666666666663</ele><time>2026-04-11T14:39:19Z</time></trkpt><trkpt lat="44.40314936795453" lon="9.885014200165292"><ele>462.33333333333337</ele><time>2026-04-11T14:39:20Z</time></trkpt><trkpt lat="44.402965251833976" lon="9.88489260749617"><ele>463.0</ele><time>2026-04-11T14:39:21Z</time></trkpt><trkpt lat="44.402766904307065" lon="9.884761187037087"><ele>463.0</ele><time>2026-04-11T14:39:22Z</time></trkpt><trkpt lat="44.40254418543387" lon="9.884642809094991"><ele>463.0</ele><time>2026-04-11T14:39:23Z</time></trkpt><trkpt lat="44.402334570115066" lon="9.884533011924882"><ele>463.0</ele><time>2026-04-11T14:39:24Z</time></trkpt><trkpt lat="44.40216533545221" lon="9.884404941492512"><ele>463.0</ele><time>2026-04-11T14:39:25Z</time></trkpt><trkpt lat="44.40202003196809" lon="9.884287936184826"><ele>463.0</ele><time>2026-04-11T14:39:26Z</time></trkpt><trkpt lat="44.401893753966014" lon="9.88415035935265"><ele>464.6666666666667</ele><time>2026-04-11T14:39:27Z</time></trkpt><trkpt lat="44.40181577468323" lon="9.883960466926569"><ele>466.33333333333337</ele><time>2026-04-11T14:39:28Z</time></trkpt><trkpt lat="44.40172430045358" lon="9.88373022248774"><ele>468.0</ele><time>2026-04-11T14:39:29Z</time></trkpt><trkpt lat="44.401615312217565" lon="9.883483236218712"><ele>472.0</ele><time>2026-04-11T14:39:30Z</time></trkpt><trkpt lat="44.40152826946932" lon="9.88324977005834"><ele>476.0</ele><time>2026-04-11T14:39:31Z</time></trkpt><trkpt lat="44.40143122833841" lon="9.88306970770114"><ele>480.0</ele><time>2026-04-11T14:39:32Z</time></trkpt><trkpt lat="44.40135082066275" lon="9.882942935391094"><ele>480.0</ele><time>2026-04-11T14:39:33Z</time></trkpt><trkpt lat="44.40129981000034" lon="9.88285841000595"><ele>480.0</ele><time>2026-04-11T14:39:34Z</time></trkpt><trkpt lat="44.401377522198125" lon="9.882701311001307"><ele>480.0</ele><time>2026-04-11T14:39:36Z</time></trkpt><trkpt lat="44.40146070955733" lon="9.882661418508366"><ele>480.0</ele><time>2026-04-11T14:39:37Z</time></trkpt><trkpt lat="44.40155792655293" lon="9.882747566573878"><ele>480.0</ele><time>2026-04-11T14:39:38Z</time></trkpt><trkpt lat="44.40159183830931" lon="9.882948685365815"><ele>480.0</ele><time>2026-04-11T14:39:39Z</time></trkpt><trkpt lat="44.40166891122517" lon="9.88315867162671"><ele>480.0</ele><time>2026-04-11T14:39:40Z</time></trkpt><trkpt lat="44.40178310684625" lon="9.883398739894147"><ele>480.0</ele><time>2026-04-11T14:39:41Z</time></trkpt><trkpt lat="44.401911413490346" lon="9.883601609632636"><ele>480.66666666666663</ele><time>2026-04-11T14:39:42Z</time></trkpt><trkpt lat="44.40204405469583" lon="9.883742413248893"><ele>481.3333333333333</ele><time>2026-04-11T14:39:43Z</time></trkpt><trkpt lat="44.40220564527316" lon="9.8838294859642"><ele>482.0</ele><time>2026-04-11T14:39:44Z</time></trkpt><trkpt lat="44.402372238942945" lon="9.883867729082016"><ele>482.0</ele><time>2026-04-11T14:39:45Z</time></trkpt><trkpt lat="44.402545802041715" lon="9.883841230491017"><ele>482.0</ele><time>2026-04-11T14:39:46Z</time></trkpt><trkpt lat="44.40271479119075" lon="9.88379554528598"><ele>482.0</ele><time>2026-04-11T14:39:47Z</time></trkpt><trkpt lat="44.402880383924675" lon="9.883794641996655"><ele>486.3333333333333</ele><time>2026-04-11T14:39:48Z</time></trkpt><trkpt lat="44.40304618855944" lon="9.883870043299195"><ele>490.66666666666663</ele><time>2026-04-11T14:39:49Z</time></trkpt><trkpt lat="44.403224795295756" lon="9.883992540347537"><ele>495.0</ele><time>2026-04-11T14:39:50Z</time></trkpt><trkpt lat="44.40341804582114" lon="9.884066919905786"><ele>495.0</ele><time>2026-04-11T14:39:51Z</time></trkpt><trkpt lat="44.40360367858342" lon="9.884104025074912"><ele>495.0</ele><time>2026-04-11T14:39:52Z</time></trkpt><trkpt lat="44.40375595246876" lon="9.884218187602878"><ele>495.0</ele><time>2026-04-11T14:39:53Z</time></trkpt><trkpt lat="44.4039046898515" lon="9.884413539980175"><ele>495.0</ele><time>2026-04-11T14:39:54Z</time></trkpt><trkpt lat="44.40409528301733" lon="9.884621202073102"><ele>495.0</ele><time>2026-04-11T14:39:55Z</time></trkpt><trkpt lat="44.40428188190877" lon="9.884776232498048"><ele>495.0</ele><time>2026-04-11T14:39:56Z</time></trkpt><trkpt lat="44.40445274642941" lon="9.884893709012573"><ele>495.0</ele><time>2026-04-11T14:39:57Z</time></trkpt><trkpt lat="44.40459567608439" lon="9.885007452329532"><ele>495.0</ele><time>2026-04-11T14:39:58Z</time></trkpt><trkpt lat="44.40468396241828" lon="9.885118425061943"><ele>495.2</ele><time>2026-04-11T14:39:59Z</time></trkpt><trkpt lat="44.404755971874664" lon="9.885182933447059"><ele>495.4</ele><time>2026-04-11T14:40:00Z</time></trkpt><trkpt lat="44.40483156955216" lon="9.885181647270063"><ele>495.6</ele><time>2026-04-11T14:40:01Z</time></trkpt><trkpt lat="44.40491108131141" lon="9.885088827860512"><ele>495.8</ele><time>2026-04-11T14:40:02Z</time></trkpt><trkpt lat="44.40494248064159" lon="9.884931515390257"><ele>496.0</ele><time>2026-04-11T14:40:03Z</time></trkpt><trkpt lat="44.404904354672276" lon="9.884768533145744"><ele>495.6666666666667</ele><time>2026-04-11T14:40:04Z</time></trkpt><trkpt lat="44.40479180036294" lon="9.884643595177867"><ele>495.33333333333337</ele><time>2026-04-11T14:40:05Z</time></trkpt><trkpt lat="44.404627015167634" lon="9.884520894260739"><ele>495.0</ele><time>2026-04-11T14:40:06Z</time></trkpt><trkpt lat="44.4044971048018" lon="9.884300277139445"><ele>499.66666666666663</ele><time>2026-04-11T14:40:07Z</time></trkpt><trkpt lat="44.40435774430729" lon="9.884098226181566"><ele>504.3333333333333</ele><time>2026-04-11T14:40:08Z</time></trkpt><trkpt lat="44.40424922131713" lon="9.883913355471957"><ele>509.0</ele><time>2026-04-11T14:40:09Z</time></trkpt><trkpt lat="44.40412785241907" lon="9.88377904515854"><ele>509.0</ele><time>2026-04-11T14:40:10Z</time></trkpt><trkpt lat="44.403985966684985" lon="9.883675799665895"><ele>509.0</ele><time>2026-04-11T14:40:11Z</time></trkpt><trkpt lat="44.40386106083465" lon="9.883584011223322"><ele>509.0</ele><time>2026-04-11T14:40:12Z</time></trkpt><trkpt lat="44.4037606503368" lon="9.88349810083055"><ele>509.0</ele><time>2026-04-11T14:40:12.999Z</time></trkpt><trkpt lat="44.40369124292553" lon="9.883433178365305"><ele>509.4</ele><time>2026-04-11T14:40:13.999Z</time></trkpt><trkpt lat="44.40366871248141" lon="9.883350666467505"><ele>509.79999999999995</ele><time>2026-04-11T14:40:14.999Z</time></trkpt><trkpt lat="44.40370518782343" lon="9.883258615293133"><ele>510.20000000000005</ele><time>2026-04-11T14:40:15.999Z</time></trkpt><trkpt lat="44.40379770903976" lon="9.883222694430518"><ele>510.6</ele><time>2026-04-11T14:40:16.999Z</time></trkpt><trkpt lat="44.40389825418337" lon="9.883322568874533"><ele>511.0</ele><time>2026-04-11T14:40:17.999Z</time></trkpt><trkpt lat="44.40405252047071" lon="9.883407277339385"><ele>510.33333333333337</ele><time>2026-04-11T14:40:18.999Z</time></trkpt><trkpt lat="44.40423060496482" lon="9.883518921243965"><ele>509.66666666666663</ele><time>2026-04-11T14:40:19.999Z</time></trkpt><trkpt lat="44.40442064204368" lon="9.88360519388082"><ele>509.0</ele><time>2026-04-11T14:40:20.999Z</time></trkpt><trkpt lat="44.404642801421595" lon="9.88371451496975"><ele>514.3333333333333</ele><time>2026-04-11T14:40:21.999Z</time></trkpt><trkpt lat="44.40484105488958" lon="9.88381993534292"><ele>519.6666666666666</ele><time>2026-04-11T14:40:22.999Z</time></trkpt><trkpt lat="44.40500609065138" lon="9.883964902928005"><ele>525.0</ele><time>2026-04-11T14:40:23.999Z</time></trkpt><trkpt lat="44.405183769782795" lon="9.88411256026158"><ele>527.6666666666666</ele><time>2026-04-11T14:40:24.999Z</time></trkpt><trkpt lat="44.40534278126543" lon="9.884286504138812"><ele>530.3333333333333</ele><time>2026-04-11T14:40:25.999Z</time></trkpt><trkpt lat="44.40550449120307" lon="9.884450386167908"><ele>533.0</ele><time>2026-04-11T14:40:26.999Z</time></trkpt><trkpt lat="44.40562581301441" lon="9.88466973921186"><ele>533.0</ele><time>2026-04-11T14:40:27.999Z</time></trkpt><trkpt lat="44.40575392043517" lon="9.884880461798119"><ele>533.0</ele><time>2026-04-11T14:40:28.999Z</time></trkpt><trkpt lat="44.40584787317201" lon="9.88509304103042"><ele>533.0</ele><time>2026-04-11T14:40:29.999Z</time></trkpt><trkpt lat="44.4059359619551" lon="9.885283177937236"><ele>535.3333333333333</ele><time>2026-04-11T14:40:30.999Z</time></trkpt><trkpt lat="44.406072637872605" lon="9.885446542546505"><ele>537.6666666666666</ele><time>2026-04-11T14:40:31.999Z</time></trkpt><trkpt lat="44.40625336605673" lon="9.88558320483569"><ele>540.0</ele><time>2026-04-11T14:40:32.999Z</time></trkpt><trkpt lat="44.406430099962236" lon="9.885723938020636"><ele>540.0</ele><time>2026-04-11T14:40:33.999Z</time></trkpt><trkpt lat="44.40660645687271" lon="9.88586294061927"><ele>540.0</ele><time>2026-04-11T14:40:34.999Z</time></trkpt><trkpt lat="44.406802547372294" lon="9.885964647648704"><ele>540.0</ele><time>2026-04-11T14:40:35.999Z</time></trkpt><trkpt lat="44.407011807170896" lon="9.886035232855772"><ele>537.6666666666666</ele><time>2026-04-11T14:40:36.999Z</time></trkpt><trkpt lat="44.40720290813926" lon="9.886110193694275"><ele>535.3333333333333</ele><time>2026-04-11T14:40:37.999Z</time></trkpt><trkpt lat="44.40739331911069" lon="9.886191462128846"><ele>533.0</ele><time>2026-04-11T14:40:38.999Z</time></trkpt><trkpt lat="44.40758962953799" lon="9.886291284541784"><ele>533.0</ele><time>2026-04-11T14:40:39.999Z</time></trkpt><trkpt lat="44.40776917897329" lon="9.886467440727312"><ele>533.0</ele><time>2026-04-11T14:40:40.999Z</time></trkpt><trkpt lat="44.407972174437596" lon="9.886642639545055"><ele>536.5</ele><time>2026-04-11T14:40:41.999Z</time></trkpt><trkpt lat="44.40815621924811" lon="9.886896666240318"><ele>540.0</ele><time>2026-04-11T14:40:42.999Z</time></trkpt><trkpt lat="44.40833049746108" lon="9.887155109098886"><ele>540.0</ele><time>2026-04-11T14:40:43.999Z</time></trkpt><trkpt lat="44.40852779672147" lon="9.887369681703067"><ele>540.0</ele><time>2026-04-11T14:40:44.999Z</time></trkpt><trkpt lat="44.40874700326288" lon="9.887530300453676"><ele>546.0</ele><time>2026-04-11T14:40:45.999Z</time></trkpt><trkpt lat="44.40893649611307" lon="9.887658860704875"><ele>552.0</ele><time>2026-04-11T14:40:46.999Z</time></trkpt><trkpt lat="44.40907241706314" lon="9.887838836886253"><ele>558.0</ele><time>2026-04-11T14:40:47.999Z</time></trkpt><trkpt lat="44.40920825846304" lon="9.888043716281523"><ele>558.0</ele><time>2026-04-11T14:40:48.999Z</time></trkpt><trkpt lat="44.409338621118906" lon="9.888214069474149"><ele>558.0</ele><time>2026-04-11T14:40:49.999Z</time></trkpt><trkpt lat="44.40942194273534" lon="9.888358281577348"><ele>558.0</ele><time>2026-04-11T14:40:50.999Z</time></trkpt><trkpt lat="44.40948075631944" lon="9.888472601282068"><ele>558.0</ele><time>2026-04-11T14:40:51.999Z</time></trkpt><trkpt lat="44.40946915449843" lon="9.888592771805332"><ele>560.6666666666666</ele><time>2026-04-11T14:40:52.999Z</time></trkpt><trkpt lat="44.409371687400686" lon="9.88870347960785"><ele>563.3333333333333</ele><time>2026-04-11T14:40:53.999Z</time></trkpt><trkpt lat="44.40926411330064" lon="9.888883311207774"><ele>566.0</ele><time>2026-04-11T14:40:54.999Z</time></trkpt><trkpt lat="44.409134266996574" lon="9.889115973741243"><ele>568.6666666666666</ele><time>2026-04-11T14:40:55.999Z</time></trkpt><trkpt lat="44.40902451026621" lon="9.889340745328989"><ele>571.3333333333334</ele><time>2026-04-11T14:40:56.999Z</time></trkpt><trkpt lat="44.40893379965084" lon="9.889514728803679"><ele>574.0</ele><time>2026-04-11T14:40:57.999Z</time></trkpt><trkpt lat="44.40886235643491" lon="9.88969440177506"><ele>574.0</ele><time>2026-04-11T14:40:58.999Z</time></trkpt><trkpt lat="44.40884128909172" lon="9.88990973353296"><ele>574.0</ele><time>2026-04-11T14:40:59.999Z</time></trkpt><trkpt lat="44.4088658689697" lon="9.890165295495512"><ele>574.0</ele><time>2026-04-11T14:41:00.999Z</time></trkpt><trkpt lat="44.40892524207565" lon="9.890375221235251"><ele>570.0</ele><time>2026-04-11T14:41:01.999Z</time></trkpt><trkpt lat="44.409042595356894" lon="9.890578889326983"><ele>566.0</ele><time>2026-04-11T14:41:02.999Z</time></trkpt><trkpt lat="44.409184559702126" lon="9.890781642697133"><ele>562.0</ele><time>2026-04-11T14:41:03.999Z</time></trkpt><trkpt lat="44.40930495384147" lon="9.890979274772441"><ele>566.3333333333334</ele><time>2026-04-11T14:41:04.999Z</time></trkpt><trkpt lat="44.409445669314" lon="9.891129730204652"><ele>570.6666666666666</ele><time>2026-04-11T14:41:05.999Z</time></trkpt><trkpt lat="44.40965588145418" lon="9.891230311083685"><ele>575.0</ele><time>2026-04-11T14:41:06.999Z</time></trkpt><trkpt lat="44.409875922622675" lon="9.891333274216297"><ele>575.0</ele><time>2026-04-11T14:41:07.999Z</time></trkpt><trkpt lat="44.41009246072553" lon="9.891460675809348"><ele>575.0</ele><time>2026-04-11T14:41:08.999Z</time></trkpt><trkpt lat="44.410311011614766" lon="9.891584500624075"><ele>577.0</ele><time>2026-04-11T14:41:09.999Z</time></trkpt><trkpt lat="44.410523284625306" lon="9.891704552966297"><ele>579.0</ele><time>2026-04-11T14:41:10.999Z</time></trkpt><trkpt lat="44.4107270700866" lon="9.891820333458698"><ele>581.0</ele><time>2026-04-11T14:41:12Z</time></trkpt><trkpt lat="44.41092957710539" lon="9.89193416410748"><ele>584.3333333333333</ele><time>2026-04-11T14:41:13Z</time></trkpt><trkpt lat="44.411124194771894" lon="9.892050305062229"><ele>587.6666666666666</ele><time>2026-04-11T14:41:14Z</time></trkpt><trkpt lat="44.411307271200585" lon="9.892152802522629"><ele>591.0</ele><time>2026-04-11T14:41:15Z</time></trkpt><trkpt lat="44.411484874953786" lon="9.892265607797828"><ele>592.0</ele><time>2026-04-11T14:41:16Z</time></trkpt><trkpt lat="44.4116452233499" lon="9.892411138932687"><ele>593.0</ele><time>2026-04-11T14:41:17Z</time></trkpt><trkpt lat="44.411791993572855" lon="9.892599323760834"><ele>594.0</ele><time>2026-04-11T14:41:18Z</time></trkpt><trkpt lat="44.411923984278424" lon="9.892779477321055"><ele>599.0</ele><time>2026-04-11T14:41:19Z</time></trkpt><trkpt lat="44.41200542065812" lon="9.892935703503303"><ele>604.0</ele><time>2026-04-11T14:41:20Z</time></trkpt><trkpt lat="44.412086136502865" lon="9.893154739760966"><ele>609.0</ele><time>2026-04-11T14:41:21Z</time></trkpt><trkpt lat="44.41221316755352" lon="9.893456934497499"><ele>610.3333333333334</ele><time>2026-04-11T14:41:22Z</time></trkpt><trkpt lat="44.41239004455074" lon="9.89372423374087"><ele>611.6666666666667</ele><time>2026-04-11T14:41:23Z</time></trkpt><trkpt lat="44.41251074835877" lon="9.893916273544406"><ele>613.0</ele><time>2026-04-11T14:41:24Z</time></trkpt><trkpt lat="44.41261205987604" lon="9.89404805535959"><ele>613.0</ele><time>2026-04-11T14:41:25Z</time></trkpt><trkpt lat="44.412752222286834" lon="9.89419757028581"><ele>613.0</ele><time>2026-04-11T14:41:26Z</time></trkpt><trkpt lat="44.41288578397233" lon="9.894335533587673"><ele>613.0</ele><time>2026-04-11T14:41:27Z</time></trkpt><trkpt lat="44.41296421693942" lon="9.89450498838682"><ele>614.3333333333334</ele><time>2026-04-11T14:41:28Z</time></trkpt><trkpt lat="44.41301279718837" lon="9.894706665480076"><ele>615.6666666666666</ele><time>2026-04-11T14:41:29Z</time></trkpt><trkpt lat="44.41306410034653" lon="9.894924741876062"><ele>617.0</ele><time>2026-04-11T14:41:30Z</time></trkpt><trkpt lat="44.41309197135494" lon="9.895172262234802"><ele>617.0</ele><time>2026-04-11T14:41:31Z</time></trkpt><trkpt lat="44.41311585732898" lon="9.89541997577089"><ele>617.0</ele><time>2026-04-11T14:41:32Z</time></trkpt><trkpt lat="44.413142854076455" lon="9.895654954776973"><ele>617.0</ele><time>2026-04-11T14:41:33Z</time></trkpt><trkpt lat="44.41316647123151" lon="9.895890737894007"><ele>615.3333333333333</ele><time>2026-04-11T14:41:34Z</time></trkpt><trkpt lat="44.41319236305516" lon="9.896130454533214"><ele>613.6666666666666</ele><time>2026-04-11T14:41:35Z</time></trkpt><trkpt lat="44.41322481091292" lon="9.896380317627425"><ele>612.0</ele><time>2026-04-11T14:41:36Z</time></trkpt><trkpt lat="44.41327095404321" lon="9.896626240403497"><ele>605.6666666666666</ele><time>2026-04-11T14:41:37Z</time></trkpt><trkpt lat="44.413323059658566" lon="9.89684682938926"><ele>599.3333333333333</ele><time>2026-04-11T14:41:38Z</time></trkpt><trkpt lat="44.41338898838897" lon="9.897035028086274"><ele>593.0</ele><time>2026-04-11T14:41:39Z</time></trkpt><trkpt lat="44.41350686663778" lon="9.897199014495163"><ele>593.0</ele><time>2026-04-11T14:41:40Z</time></trkpt><trkpt lat="44.41367988302829" lon="9.897290236509217"><ele>593.0</ele><time>2026-04-11T14:41:41Z</time></trkpt><trkpt lat="44.413858671734026" lon="9.897344587759605"><ele>593.0</ele><time>2026-04-11T14:41:42Z</time></trkpt><trkpt lat="44.41400984047454" lon="9.897456864504143"><ele>597.6666666666666</ele><time>2026-04-11T14:41:43Z</time></trkpt><trkpt lat="44.41414147792598" lon="9.897600354171058"><ele>602.3333333333334</ele><time>2026-04-11T14:41:44Z</time></trkpt><trkpt lat="44.41424434311973" lon="9.89780496260481"><ele>607.0</ele><time>2026-04-11T14:41:45Z</time></trkpt><trkpt lat="44.414311931252215" lon="9.89807903878573"><ele>607.0</ele><time>2026-04-11T14:41:46Z</time></trkpt><trkpt lat="44.41436456350388" lon="9.89836538413592"><ele>607.0</ele><time>2026-04-11T14:41:47Z</time></trkpt><trkpt lat="44.41437038568862" lon="9.898653411038321"><ele>607.0</ele><time>2026-04-11T14:41:48Z</time></trkpt><trkpt lat="44.414395427590215" lon="9.89890856884278"><ele>603.3333333333334</ele><time>2026-04-11T14:41:49Z</time></trkpt><trkpt lat="44.41442899767456" lon="9.899147795932686"><ele>599.6666666666666</ele><time>2026-04-11T14:41:50Z</time></trkpt><trkpt lat="44.414458137347445" lon="9.899384287528195"><ele>596.0</ele><time>2026-04-11T14:41:51Z</time></trkpt><trkpt lat="44.414495860293435" lon="9.899628733709832"><ele>593.0</ele><time>2026-04-11T14:41:52Z</time></trkpt><trkpt lat="44.4145757930551" lon="9.899867412331451"><ele>590.0</ele><time>2026-04-11T14:41:53Z</time></trkpt><trkpt lat="44.414723088756325" lon="9.900066904918033"><ele>587.0</ele><time>2026-04-11T14:41:54Z</time></trkpt><trkpt lat="44.41486674262415" lon="9.900293970920357"><ele>597.0</ele><time>2026-04-11T14:41:55Z</time></trkpt><trkpt lat="44.41496707393779" lon="9.90058245897112"><ele>607.0</ele><time>2026-04-11T14:41:56Z</time></trkpt><trkpt lat="44.415100454793254" lon="9.90085123005232"><ele>600.0</ele><time>2026-04-11T14:41:57Z</time></trkpt><trkpt lat="44.41525278856468" lon="9.901049466013397"><ele>593.0</ele><time>2026-04-11T14:41:58Z</time></trkpt><trkpt lat="44.415351210347204" lon="9.901226155169821"><ele>586.0</ele><time>2026-04-11T14:41:59Z</time></trkpt><trkpt lat="44.41541381557353" lon="9.90143051142257"><ele>586.0</ele><time>2026-04-11T14:42:00Z</time></trkpt><trkpt lat="44.4154743526658" lon="9.901660538735115"><ele>586.0</ele><time>2026-04-11T14:42:01Z</time></trkpt><trkpt lat="44.41552101193372" lon="9.901859753640062"><ele>586.0</ele><time>2026-04-11T14:42:02Z</time></trkpt><trkpt lat="44.415583359114116" lon="9.901980884265111"><ele>586.0</ele><time>2026-04-11T14:42:03Z</time></trkpt><trkpt lat="44.41570307975133" lon="9.902180635911527"><ele>590.3333333333334</ele><time>2026-04-11T14:42:04Z</time></trkpt><trkpt lat="44.41583814535106" lon="9.90228010392223"><ele>594.6666666666666</ele><time>2026-04-11T14:42:05Z</time></trkpt><trkpt lat="44.41602536914835" lon="9.902307505035385"><ele>599.0</ele><time>2026-04-11T14:42:06Z</time></trkpt><trkpt lat="44.416231088530544" lon="9.90230594042286"><ele>600.6666666666666</ele><time>2026-04-11T14:42:07Z</time></trkpt><trkpt lat="44.41644630069907" lon="9.902337159738476"><ele>602.3333333333334</ele><time>2026-04-11T14:42:08Z</time></trkpt><trkpt lat="44.41665934665821" lon="9.902372746482778"><ele>604.0</ele><time>2026-04-11T14:42:09Z</time></trkpt><trkpt lat="44.41686526437248" lon="9.902400783297278"><ele>604.0</ele><time>2026-04-11T14:42:10Z</time></trkpt><trkpt lat="44.41704958633114" lon="9.90242826112397"><ele>604.0</ele><time>2026-04-11T14:42:11Z</time></trkpt><trkpt lat="44.4171960692663" lon="9.902504438898678"><ele>604.0</ele><time>2026-04-11T14:42:12Z</time></trkpt><trkpt lat="44.41729258660353" lon="9.902613495894384"><ele>600.6666666666667</ele><time>2026-04-11T14:42:13Z</time></trkpt><trkpt lat="44.41736318335786" lon="9.902804926142862"><ele>597.3333333333334</ele><time>2026-04-11T14:42:14Z</time></trkpt><trkpt lat="44.41748330791592" lon="9.902991930381221"><ele>594.0</ele><time>2026-04-11T14:42:15Z</time></trkpt><trkpt lat="44.41758774181062" lon="9.903136892868577"><ele>594.0</ele><time>2026-04-11T14:42:16Z</time></trkpt><trkpt lat="44.417755932883445" lon="9.903229218994108"><ele>594.0</ele><time>2026-04-11T14:42:17Z</time></trkpt><trkpt lat="44.417929393570326" lon="9.903303612082448"><ele>594.0</ele><time>2026-04-11T14:42:18Z</time></trkpt><trkpt lat="44.418099230847645" lon="9.903357165261497"><ele>595.3333333333334</ele><time>2026-04-11T14:42:19Z</time></trkpt><trkpt lat="44.41826262712091" lon="9.903402589632194"><ele>596.6666666666667</ele><time>2026-04-11T14:42:19.999Z</time></trkpt><trkpt lat="44.418438919993086" lon="9.903397883255217"><ele>598.0</ele><time>2026-04-11T14:42:20.999Z</time></trkpt><trkpt lat="44.41861588529535" lon="9.90340999822648"><ele>598.0</ele><time>2026-04-11T14:42:21.999Z</time></trkpt><trkpt lat="44.4187940255501" lon="9.903227103653299"><ele>598.0</ele><time>2026-04-11T14:42:22.999Z</time></trkpt><trkpt lat="44.418953107013806" lon="9.903190209691317"><ele>598.0</ele><time>2026-04-11T14:42:23.999Z</time></trkpt><trkpt lat="44.41910378810193" lon="9.90322207976189"><ele>599.3333333333334</ele><time>2026-04-11T14:42:24.999Z</time></trkpt><trkpt lat="44.419228703221904" lon="9.90336435982441"><ele>600.6666666666666</ele><time>2026-04-11T14:42:25.999Z</time></trkpt><trkpt lat="44.41938903306175" lon="9.903540316998479"><ele>602.0</ele><time>2026-04-11T14:42:26.999Z</time></trkpt><trkpt lat="44.41952786287311" lon="9.903685815969904"><ele>605.6666666666666</ele><time>2026-04-11T14:42:27.999Z</time></trkpt><trkpt lat="44.41967554237296" lon="9.903797590386674"><ele>609.3333333333334</ele><time>2026-04-11T14:42:28.999Z</time></trkpt><trkpt lat="44.4198473482811" lon="9.903893221165726"><ele>613.0</ele><time>2026-04-11T14:42:29.999Z</time></trkpt><trkpt lat="44.42000471011476" lon="9.904034748626843"><ele>612.3333333333334</ele><time>2026-04-11T14:42:30.999Z</time></trkpt><trkpt lat="44.42012537106735" lon="9.904255832782319"><ele>611.6666666666666</ele><time>2026-04-11T14:42:31.999Z</time></trkpt><trkpt lat="44.420250181909" lon="9.90448960947524"><ele>611.0</ele><time>2026-04-11T14:42:32.999Z</time></trkpt><trkpt lat="44.42036275636874" lon="9.904695211820497"><ele>612.3333333333333</ele><time>2026-04-11T14:42:33.999Z</time></trkpt><trkpt lat="44.42051089119617" lon="9.904845039109809"><ele>613.6666666666666</ele><time>2026-04-11T14:42:34.999Z</time></trkpt><trkpt lat="44.42068720679048" lon="9.90494467111354"><ele>615.0</ele><time>2026-04-11T14:42:35.999Z</time></trkpt><trkpt lat="44.42087481908974" lon="9.904994142597689"><ele>615.0</ele><time>2026-04-11T14:42:36.999Z</time></trkpt><trkpt lat="44.42105847320324" lon="9.904968206587244"><ele>615.0</ele><time>2026-04-11T14:42:37.999Z</time></trkpt><trkpt lat="44.42124303625811" lon="9.904890213482442"><ele>615.0</ele><time>2026-04-11T14:42:38.999Z</time></trkpt><trkpt lat="44.42144135787594" lon="9.904815508703482"><ele>618.6666666666666</ele><time>2026-04-11T14:42:39.999Z</time></trkpt><trkpt lat="44.42164878794318" lon="9.904780444329777"><ele>622.3333333333333</ele><time>2026-04-11T14:42:40.999Z</time></trkpt><trkpt lat="44.42187060980176" lon="9.904764110312598"><ele>626.0</ele><time>2026-04-11T14:42:41.999Z</time></trkpt><trkpt lat="44.42205652457403" lon="9.90475035734046"><ele>627.6666666666666</ele><time>2026-04-11T14:42:42.999Z</time></trkpt><trkpt lat="44.42223976293731" lon="9.904693187749048"><ele>629.3333333333334</ele><time>2026-04-11T14:42:43.999Z</time></trkpt><trkpt lat="44.42245311264869" lon="9.904562725340217"><ele>631.0</ele><time>2026-04-11T14:42:44.999Z</time></trkpt><trkpt lat="44.42257650916145" lon="9.904363365953119"><ele>630.3333333333334</ele><time>2026-04-11T14:42:45.999Z</time></trkpt><trkpt lat="44.42272998991949" lon="9.904188031388566"><ele>629.6666666666666</ele><time>2026-04-11T14:42:46.999Z</time></trkpt><trkpt lat="44.42287957245022" lon="9.904096279830176"><ele>629.0</ele><time>2026-04-11T14:42:47.999Z</time></trkpt><trkpt lat="44.42302835198804" lon="9.904069488792784"><ele>631.0</ele><time>2026-04-11T14:42:48.999Z</time></trkpt><trkpt lat="44.42320649753582" lon="9.904041046549025"><ele>633.0</ele><time>2026-04-11T14:42:49.999Z</time></trkpt><trkpt lat="44.4233857174737" lon="9.904055982215606"><ele>635.0</ele><time>2026-04-11T14:42:50.999Z</time></trkpt><trkpt lat="44.42358561734088" lon="9.904140708465443"><ele>635.0</ele><time>2026-04-11T14:42:51.999Z</time></trkpt><trkpt lat="44.42380595040873" lon="9.904242226470696"><ele>635.0</ele><time>2026-04-11T14:42:52.999Z</time></trkpt><trkpt lat="44.42399681362511" lon="9.904355466644958"><ele>635.0</ele><time>2026-04-11T14:42:53.999Z</time></trkpt><trkpt lat="44.42414203224513" lon="9.904480718656455"><ele>636.6666666666666</ele><time>2026-04-11T14:42:54.999Z</time></trkpt><trkpt lat="44.4242233943104" lon="9.904651941444449"><ele>638.3333333333334</ele><time>2026-04-11T14:42:55.999Z</time></trkpt><trkpt lat="44.42422090685715" lon="9.904893336001898"><ele>640.0</ele><time>2026-04-11T14:42:56.999Z</time></trkpt><trkpt lat="44.42425365375355" lon="9.905130855138822"><ele>635.6666666666667</ele><time>2026-04-11T14:42:57.999Z</time></trkpt><trkpt lat="44.42433709695394" lon="9.90534873787066"><ele>631.3333333333334</ele><time>2026-04-11T14:42:58.999Z</time></trkpt><trkpt lat="44.42446363788973" lon="9.90556714750996"><ele>627.0</ele><time>2026-04-11T14:42:59.999Z</time></trkpt><trkpt lat="44.42459884789921" lon="9.905771685789396"><ele>629.3333333333334</ele><time>2026-04-11T14:43:00.999Z</time></trkpt><trkpt lat="44.42475531750345" lon="9.905946373493872"><ele>631.6666666666667</ele><time>2026-04-11T14:43:01.999Z</time></trkpt><trkpt lat="44.42493304728998" lon="9.90606728853316"><ele>634.0</ele><time>2026-04-11T14:43:02.999Z</time></trkpt><trkpt lat="44.42512736570345" lon="9.906166951714257"><ele>634.0</ele><time>2026-04-11T14:43:03.999Z</time></trkpt><trkpt lat="44.425281352031384" lon="9.906317955150627"><ele>634.0</ele><time>2026-04-11T14:43:04.999Z</time></trkpt><trkpt lat="44.42541211756071" lon="9.906502042172818"><ele>634.0</ele><time>2026-04-11T14:43:05.999Z</time></trkpt><trkpt lat="44.42554686352262" lon="9.906720712796941"><ele>638.6666666666667</ele><time>2026-04-11T14:43:06.999Z</time></trkpt><trkpt lat="44.425682104787285" lon="9.90694677822607"><ele>643.3333333333334</ele><time>2026-04-11T14:43:07.999Z</time></trkpt><trkpt lat="44.425796157241926" lon="9.907159839105509"><ele>648.0</ele><time>2026-04-11T14:43:08.999Z</time></trkpt><trkpt lat="44.42586125200467" lon="9.90739303502204"><ele>644.75</ele><time>2026-04-11T14:43:09.999Z</time></trkpt><trkpt lat="44.42591995214881" lon="9.907616063605351"><ele>641.5</ele><time>2026-04-11T14:43:10.999Z</time></trkpt><trkpt lat="44.42600148959681" lon="9.907766560542441"><ele>638.25</ele><time>2026-04-11T14:43:11.999Z</time></trkpt><trkpt lat="44.42609238756779" lon="9.90785316976215"><ele>635.0</ele><time>2026-04-11T14:43:12.999Z</time></trkpt><trkpt lat="44.42621074837944" lon="9.907866199125454"><ele>638.6666666666666</ele><time>2026-04-11T14:43:13.999Z</time></trkpt><trkpt lat="44.426373711824915" lon="9.9077995115951"><ele>642.3333333333334</ele><time>2026-04-11T14:43:14.999Z</time></trkpt><trkpt lat="44.42654735202768" lon="9.907687739434662"><ele>646.0</ele><time>2026-04-11T14:43:15.999Z</time></trkpt><trkpt lat="44.426733701583494" lon="9.907651054817638"><ele>646.0</ele><time>2026-04-11T14:43:16.999Z</time></trkpt><trkpt lat="44.426899153514164" lon="9.9076982267509"><ele>646.0</ele><time>2026-04-11T14:43:18Z</time></trkpt><trkpt lat="44.42704316428646" lon="9.907765911984342"><ele>646.0</ele><time>2026-04-11T14:43:19Z</time></trkpt><trkpt lat="44.427294741712345" lon="9.907883438360507"><ele>649.3333333333334</ele><time>2026-04-11T14:43:20Z</time></trkpt><trkpt lat="44.427493170908825" lon="9.907959732394641"><ele>652.6666666666666</ele><time>2026-04-11T14:43:21Z</time></trkpt><trkpt lat="44.427700452930594" lon="9.908057499488635"><ele>656.0</ele><time>2026-04-11T14:43:22Z</time></trkpt><trkpt lat="44.42791838658264" lon="9.908127007934898"><ele>656.3333333333333</ele><time>2026-04-11T14:43:23Z</time></trkpt><trkpt lat="44.42811456967393" lon="9.908214986230107"><ele>656.6666666666666</ele><time>2026-04-11T14:43:24Z</time></trkpt><trkpt lat="44.428296442974386" lon="9.908334944417005"><ele>657.0</ele><time>2026-04-11T14:43:25Z</time></trkpt><trkpt lat="44.428486552541784" lon="9.90843240573572"><ele>657.0</ele><time>2026-04-11T14:43:26Z</time></trkpt><trkpt lat="44.42865476606049" lon="9.90852749866458"><ele>657.0</ele><time>2026-04-11T14:43:27Z</time></trkpt><trkpt lat="44.42883736649727" lon="9.908564083131566"><ele>657.0</ele><time>2026-04-11T14:43:28Z</time></trkpt><trkpt lat="44.4290339501984" lon="9.908531518663182"><ele>657.3333333333334</ele><time>2026-04-11T14:43:29Z</time></trkpt><trkpt lat="44.429233147867905" lon="9.908453295960808"><ele>657.6666666666667</ele><time>2026-04-11T14:43:30Z</time></trkpt><trkpt lat="44.42941212767182" lon="9.908378626427437"><ele>658.0</ele><time>2026-04-11T14:43:31Z</time></trkpt><trkpt lat="44.42956086848289" lon="9.908385036694982"><ele>659.0</ele><time>2026-04-11T14:43:32Z</time></trkpt><trkpt lat="44.429653208700884" lon="9.908523088929973"><ele>660.0</ele><time>2026-04-11T14:43:33Z</time></trkpt><trkpt lat="44.42977411614384" lon="9.908674525858771"><ele>661.0</ele><time>2026-04-11T14:43:34Z</time></trkpt><trkpt lat="44.429870244281666" lon="9.90873637608615"><ele>662.0</ele><time>2026-04-11T14:43:35Z</time></trkpt><trkpt lat="44.429983788302486" lon="9.9087752074678"><ele>662.0</ele><time>2026-04-11T14:43:36Z</time></trkpt><trkpt lat="44.430145038394414" lon="9.908760610625771"><ele>662.0</ele><time>2026-04-11T14:43:37Z</time></trkpt><trkpt lat="44.43029032368086" lon="9.908711821881814"><ele>662.0</ele><time>2026-04-11T14:43:38Z</time></trkpt><trkpt lat="44.43044268244626" lon="9.90856496459752"><ele>666.3333333333333</ele><time>2026-04-11T14:43:39Z</time></trkpt><trkpt lat="44.43059569931701" lon="9.90840472608336"><ele>670.6666666666666</ele><time>2026-04-11T14:43:40Z</time></trkpt><trkpt lat="44.430760252654984" lon="9.908254201044599"><ele>675.0</ele><time>2026-04-11T14:43:41Z</time></trkpt><trkpt lat="44.43091532518611" lon="9.90812268959404"><ele>675.0</ele><time>2026-04-11T14:43:42Z</time></trkpt><trkpt lat="44.43108358027248" lon="9.90805008509732"><ele>675.0</ele><time>2026-04-11T14:43:43Z</time></trkpt><trkpt lat="44.43125472504518" lon="9.908040548208605"><ele>675.0</ele><time>2026-04-11T14:43:44Z</time></trkpt><trkpt lat="44.43145070317268" lon="9.908044835700085"><ele>673.6666666666666</ele><time>2026-04-11T14:43:45Z</time></trkpt><trkpt lat="44.43163727533026" lon="9.90802934713012"><ele>672.3333333333333</ele><time>2026-04-11T14:43:46Z</time></trkpt><trkpt lat="44.43181762680706" lon="9.908041599067218"><ele>671.0</ele><time>2026-04-11T14:43:47Z</time></trkpt><trkpt lat="44.43198700483185" lon="9.908047418153357"><ele>674.3333333333333</ele><time>2026-04-11T14:43:48Z</time></trkpt><trkpt lat="44.432152123954296" lon="9.908060084291915"><ele>677.6666666666666</ele><time>2026-04-11T14:43:49Z</time></trkpt><trkpt lat="44.43230932975002" lon="9.908088084513084"><ele>681.0</ele><time>2026-04-11T14:43:50Z</time></trkpt><trkpt lat="44.43247379938596" lon="9.908174352574788"><ele>681.0</ele><time>2026-04-11T14:43:51Z</time></trkpt><trkpt lat="44.43263998988811" lon="9.90830534786522"><ele>681.0</ele><time>2026-04-11T14:43:52Z</time></trkpt><trkpt lat="44.4328007271027" lon="9.908401994346146"><ele>681.0</ele><time>2026-04-11T14:43:53Z</time></trkpt><trkpt lat="44.43295396319553" lon="9.908447782331546"><ele>682.0</ele><time>2026-04-11T14:43:54Z</time></trkpt><trkpt lat="44.43310520054015" lon="9.908394092833257"><ele>683.0</ele><time>2026-04-11T14:43:55Z</time></trkpt><trkpt lat="44.433215668369414" lon="9.908252219088336"><ele>684.0</ele><time>2026-04-11T14:43:56Z</time></trkpt><trkpt lat="44.43329503247769" lon="9.908084582065731"><ele>684.0</ele><time>2026-04-11T14:43:57Z</time></trkpt><trkpt lat="44.43336888133532" lon="9.90794168427893"><ele>684.0</ele><time>2026-04-11T14:43:58Z</time></trkpt><trkpt lat="44.43346141152878" lon="9.907867371183071"><ele>684.0</ele><time>2026-04-11T14:43:59Z</time></trkpt><trkpt lat="44.433560432892136" lon="9.907877724557434"><ele>684.0</ele><time>2026-04-11T14:44:00Z</time></trkpt><trkpt lat="44.43364823756582" lon="9.907959770003774"><ele>684.0</ele><time>2026-04-11T14:44:01Z</time></trkpt><trkpt lat="44.43373609305033" lon="9.908121369941544"><ele>683.6666666666666</ele><time>2026-04-11T14:44:02Z</time></trkpt><trkpt lat="44.43382748775841" lon="9.908317960722517"><ele>683.3333333333333</ele><time>2026-04-11T14:44:03Z</time></trkpt><trkpt lat="44.43392593993729" lon="9.908523751194684"><ele>683.0</ele><time>2026-04-11T14:44:04Z</time></trkpt><trkpt lat="44.43403076740567" lon="9.9087154296208"><ele>685.6666666666666</ele><time>2026-04-11T14:44:05Z</time></trkpt><trkpt lat="44.434145223326894" lon="9.908886514033302"><ele>688.3333333333334</ele><time>2026-04-11T14:44:06Z</time></trkpt><trkpt lat="44.434298475028655" lon="9.909018247606607"><ele>691.0</ele><time>2026-04-11T14:44:07Z</time></trkpt><trkpt lat="44.43449267685364" lon="9.909055413444449"><ele>690.6666666666667</ele><time>2026-04-11T14:44:08Z</time></trkpt><trkpt lat="44.43468966083119" lon="9.909042722616851"><ele>690.3333333333334</ele><time>2026-04-11T14:44:09Z</time></trkpt><trkpt lat="44.43482834409978" lon="9.909077367860341"><ele>690.0</ele><time>2026-04-11T14:44:10Z</time></trkpt><trkpt lat="44.434934050570675" lon="9.909142883463055"><ele>693.3333333333334</ele><time>2026-04-11T14:44:11Z</time></trkpt><trkpt lat="44.43502716410246" lon="9.909309269864846"><ele>696.6666666666667</ele><time>2026-04-11T14:44:12Z</time></trkpt><trkpt lat="44.43512857023751" lon="9.909515555306081"><ele>700.0</ele><time>2026-04-11T14:44:13Z</time></trkpt><trkpt lat="44.43522410327673" lon="9.90969969047495"><ele>700.0</ele><time>2026-04-11T14:44:14Z</time></trkpt><trkpt lat="44.435371091383544" lon="9.909826709262248"><ele>700.0</ele><time>2026-04-11T14:44:15Z</time></trkpt><trkpt lat="44.43555527780397" lon="9.909913805559457"><ele>700.0</ele><time>2026-04-11T14:44:16Z</time></trkpt><trkpt lat="44.43575643709051" lon="9.910018292611127"><ele>703.6666666666667</ele><time>2026-04-11T14:44:17Z</time></trkpt><trkpt lat="44.43595165347973" lon="9.910134066839012"><ele>707.3333333333334</ele><time>2026-04-11T14:44:18Z</time></trkpt><trkpt lat="44.43613487308258" lon="9.91024657384112"><ele>711.0</ele><time>2026-04-11T14:44:19Z</time></trkpt><trkpt lat="44.43630030460443" lon="9.910349655416148"><ele>711.0</ele><time>2026-04-11T14:44:20Z</time></trkpt><trkpt lat="44.436452806636616" lon="9.910433572099192"><ele>711.0</ele><time>2026-04-11T14:44:21Z</time></trkpt><trkpt lat="44.43661124971981" lon="9.910486121300346"><ele>711.0</ele><time>2026-04-11T14:44:22Z</time></trkpt><trkpt lat="44.43679181442735" lon="9.910472066098938"><ele>711.0</ele><time>2026-04-11T14:44:23Z</time></trkpt><trkpt lat="44.43697668642705" lon="9.910350347534367"><ele>711.0</ele><time>2026-04-11T14:44:23.999Z</time></trkpt><trkpt lat="44.437137367350054" lon="9.91016009785699"><ele>711.0</ele><time>2026-04-11T14:44:24.999Z</time></trkpt><trkpt lat="44.437253806301634" lon="9.909962352227224"><ele>710.0</ele><time>2026-04-11T14:44:25.999Z</time></trkpt><trkpt lat="44.43736128314847" lon="9.909800155402074"><ele>709.0</ele><time>2026-04-11T14:44:26.999Z</time></trkpt><trkpt lat="44.437488285128346" lon="9.909702450330741"><ele>708.0</ele><time>2026-04-11T14:44:27.999Z</time></trkpt><trkpt lat="44.437666800338135" lon="9.909656907838718"><ele>708.0</ele><time>2026-04-11T14:44:28.999Z</time></trkpt><trkpt lat="44.43785540218115" lon="9.909684857198272"><ele>708.0</ele><time>2026-04-11T14:44:29.999Z</time></trkpt><trkpt lat="44.43806098353562" lon="9.90975545373401"><ele>708.0</ele><time>2026-04-11T14:44:30.999Z</time></trkpt><trkpt lat="44.43826700828123" lon="9.90980757809001"><ele>709.0</ele><time>2026-04-11T14:44:31.999Z</time></trkpt><trkpt lat="44.438472189784044" lon="9.909845907739077"><ele>710.0</ele><time>2026-04-11T14:44:32.999Z</time></trkpt><trkpt lat="44.43866451687364" lon="9.90986380327858"><ele>711.0</ele><time>2026-04-11T14:44:33.999Z</time></trkpt><trkpt lat="44.438851020486894" lon="9.909848486104512"><ele>711.0</ele><time>2026-04-11T14:44:34.999Z</time></trkpt><trkpt lat="44.43901962760371" lon="9.909831427245095"><ele>711.0</ele><time>2026-04-11T14:44:35.999Z</time></trkpt><trkpt lat="44.439156236938025" lon="9.909905288163603"><ele>711.0</ele><time>2026-04-11T14:44:36.999Z</time></trkpt><trkpt lat="44.43927660555002" lon="9.91000820615307"><ele>712.0</ele><time>2026-04-11T14:44:37.999Z</time></trkpt><trkpt lat="44.43934397402037" lon="9.910151758640929"><ele>713.0</ele><time>2026-04-11T14:44:38.999Z</time></trkpt><trkpt lat="44.43939180258008" lon="9.910298018376915"><ele>714.0</ele><time>2026-04-11T14:44:39.999Z</time></trkpt><trkpt lat="44.43945472226717" lon="9.910440110099366"><ele>715.0</ele><time>2026-04-11T14:44:40.999Z</time></trkpt><trkpt lat="44.439583042755" lon="9.910522368168913"><ele>715.3333333333334</ele><time>2026-04-11T14:44:41.999Z</time></trkpt><trkpt lat="44.439753010386774" lon="9.910512971683035"><ele>715.6666666666666</ele><time>2026-04-11T14:44:42.999Z</time></trkpt><trkpt lat="44.4399366449584" lon="9.910478850722257"><ele>716.0</ele><time>2026-04-11T14:44:43.999Z</time></trkpt><trkpt lat="44.440145681744575" lon="9.910457421629923"><ele>716.0</ele><time>2026-04-11T14:44:44.999Z</time></trkpt><trkpt lat="44.44035054175934" lon="9.910427604662413"><ele>716.0</ele><time>2026-04-11T14:44:45.999Z</time></trkpt><trkpt lat="44.4405288580739" lon="9.910384773249897"><ele>716.0</ele><time>2026-04-11T14:44:46.999Z</time></trkpt><trkpt lat="44.44067961979907" lon="9.910335161491304"><ele>720.3333333333333</ele><time>2026-04-11T14:44:47.999Z</time></trkpt><trkpt lat="44.44082912579368" lon="9.910281404731348"><ele>724.6666666666666</ele><time>2026-04-11T14:44:48.999Z</time></trkpt><trkpt lat="44.4409899803259" lon="9.910214526817926"><ele>729.0</ele><time>2026-04-11T14:44:49.999Z</time></trkpt><trkpt lat="44.44118328240215" lon="9.910120895280222"><ele>730.25</ele><time>2026-04-11T14:44:50.999Z</time></trkpt><trkpt lat="44.4412546907872" lon="9.910011616301171"><ele>731.5</ele><time>2026-04-11T14:44:51.999Z</time></trkpt><trkpt lat="44.44133606168263" lon="9.90990859251807"><ele>732.75</ele><time>2026-04-11T14:44:52.999Z</time></trkpt><trkpt lat="44.441484319260105" lon="9.909740053314597"><ele>734.0</ele><time>2026-04-11T14:44:53.999Z</time></trkpt><trkpt lat="44.44156789961152" lon="9.909617314184779"><ele>734.0</ele><time>2026-04-11T14:44:54.999Z</time></trkpt><trkpt lat="44.44165357707101" lon="9.909526000942034"><ele>734.0</ele><time>2026-04-11T14:44:55.999Z</time></trkpt><trkpt lat="44.44174688950297" lon="9.909455265085139"><ele>734.0</ele><time>2026-04-11T14:44:56.999Z</time></trkpt><trkpt lat="44.441833161526056" lon="9.909384434679769"><ele>734.0</ele><time>2026-04-11T14:44:57.999Z</time></trkpt><trkpt lat="44.44192242764654" lon="9.90935905377128"><ele>734.0</ele><time>2026-04-11T14:44:58.999Z</time></trkpt><trkpt lat="44.44202584968041" lon="9.909379579052036"><ele>734.0</ele><time>2026-04-11T14:44:59.999Z</time></trkpt><trkpt lat="44.44212030015246" lon="9.909533413784155"><ele>734.0</ele><time>2026-04-11T14:45:00.999Z</time></trkpt><trkpt lat="44.44221584367436" lon="9.909731652737685"><ele>734.0</ele><time>2026-04-11T14:45:01.999Z</time></trkpt><trkpt lat="44.44233123179537" lon="9.90988551886589"><ele>735.6666666666666</ele><time>2026-04-11T14:45:02.999Z</time></trkpt><trkpt lat="44.442476378159135" lon="9.90995705196999"><ele>737.3333333333334</ele><time>2026-04-11T14:45:03.999Z</time></trkpt><trkpt lat="44.44264129240474" lon="9.90996639874435"><ele>739.0</ele><time>2026-04-11T14:45:04.999Z</time></trkpt><trkpt lat="44.442817330760285" lon="9.909943832055493"><ele>743.3333333333334</ele><time>2026-04-11T14:45:05.999Z</time></trkpt><trkpt lat="44.44298899978716" lon="9.909887413920927"><ele>747.6666666666666</ele><time>2026-04-11T14:45:06.999Z</time></trkpt><trkpt lat="44.44314366883532" lon="9.909830141499926"><ele>752.0</ele><time>2026-04-11T14:45:07.999Z</time></trkpt><trkpt lat="44.44326622223255" lon="9.90976976826265"><ele>752.0</ele><time>2026-04-11T14:45:08.999Z</time></trkpt><trkpt lat="44.44337771561338" lon="9.909720685687164"><ele>752.0</ele><time>2026-04-11T14:45:09.999Z</time></trkpt><trkpt lat="44.4434763046162" lon="9.909645244995113"><ele>752.0</ele><time>2026-04-11T14:45:10.999Z</time></trkpt><trkpt lat="44.44355903954543" lon="9.909520647740539"><ele>752.0</ele><time>2026-04-11T14:45:11.999Z</time></trkpt><trkpt lat="44.44363077860763" lon="9.909380648044824"><ele>750.75</ele><time>2026-04-11T14:45:12.999Z</time></trkpt><trkpt lat="44.44370901651697" lon="9.90923973399484"><ele>749.5</ele><time>2026-04-11T14:45:13.999Z</time></trkpt><trkpt lat="44.4437822239495" lon="9.909098324290541"><ele>748.25</ele><time>2026-04-11T14:45:14.999Z</time></trkpt><trkpt lat="44.44384256010593" lon="9.908922827915436"><ele>747.0</ele><time>2026-04-11T14:45:15.999Z</time></trkpt><trkpt lat="44.44387986657157" lon="9.908733414840468"><ele>750.75</ele><time>2026-04-11T14:45:16.999Z</time></trkpt><trkpt lat="44.44390423142278" lon="9.908535223533848"><ele>754.5</ele><time>2026-04-11T14:45:17.999Z</time></trkpt><trkpt lat="44.44394305620467" lon="9.908350844733253"><ele>758.25</ele><time>2026-04-11T14:45:18.999Z</time></trkpt><trkpt lat="44.44398780455407" lon="9.908192835248324"><ele>762.0</ele><time>2026-04-11T14:45:19.999Z</time></trkpt><trkpt lat="44.44405107989029" lon="9.908062620108383"><ele>762.75</ele><time>2026-04-11T14:45:20.999Z</time></trkpt><trkpt lat="44.4441452958109" lon="9.907922223592104"><ele>763.5</ele><time>2026-04-11T14:45:21.999Z</time></trkpt><trkpt lat="44.44423720886158" lon="9.907772620225574"><ele>764.25</ele><time>2026-04-11T14:45:22.999Z</time></trkpt><trkpt lat="44.44432813933269" lon="9.907636500265134"><ele>765.0</ele><time>2026-04-11T14:45:24Z</time></trkpt><trkpt lat="44.444402109444376" lon="9.907516410138248"><ele>763.2</ele><time>2026-04-11T14:45:25Z</time></trkpt><trkpt lat="44.444468372267316" lon="9.907390219140325"><ele>761.4</ele><time>2026-04-11T14:45:26Z</time></trkpt><trkpt lat="44.44451019227777" lon="9.907253170450383"><ele>759.5999999999999</ele><time>2026-04-11T14:45:27Z</time></trkpt><trkpt lat="44.444528568580594" lon="9.90710495275043"><ele>757.8</ele><time>2026-04-11T14:45:28Z</time></trkpt><trkpt lat="44.44451606026028" lon="9.906937657853435"><ele>756.0</ele><time>2026-04-11T14:45:29Z</time></trkpt><trkpt lat="44.44447832168429" lon="9.906788528308686"><ele>755.8</ele><time>2026-04-11T14:45:30Z</time></trkpt><trkpt lat="44.44442633429378" lon="9.9066560480005"><ele>755.5999999999999</ele><time>2026-04-11T14:45:31Z</time></trkpt><trkpt lat="44.44437916089223" lon="9.906523534671846"><ele>755.4</ele><time>2026-04-11T14:45:32Z</time></trkpt><trkpt lat="44.44437525057811" lon="9.906365793040862"><ele>755.2</ele><time>2026-04-11T14:45:33Z</time></trkpt><trkpt lat="44.44438590461416" lon="9.90620854515116"><ele>755.0</ele><time>2026-04-11T14:45:34Z</time></trkpt><trkpt lat="44.44442778152481" lon="9.906061586208216"><ele>755.0</ele><time>2026-04-11T14:45:35Z</time></trkpt><trkpt lat="44.44447366946877" lon="9.90591733350206"><ele>755.0</ele><time>2026-04-11T14:45:36Z</time></trkpt><trkpt lat="44.44453632726627" lon="9.905787203901273"><ele>755.0</ele><time>2026-04-11T14:45:37Z</time></trkpt><trkpt lat="44.444618599531665" lon="9.905681626510278"><ele>755.0</ele><time>2026-04-11T14:45:38Z</time></trkpt><trkpt lat="44.44471268485524" lon="9.905651436986755"><ele>755.0</ele><time>2026-04-11T14:45:39Z</time></trkpt><trkpt lat="44.444803175661676" lon="9.905666239199748"><ele>759.75</ele><time>2026-04-11T14:45:40Z</time></trkpt><trkpt lat="44.44488793289837" lon="9.90571120846564"><ele>764.5</ele><time>2026-04-11T14:45:41Z</time></trkpt><trkpt lat="44.44498821244696" lon="9.905798706712106"><ele>769.25</ele><time>2026-04-11T14:45:42Z</time></trkpt><trkpt lat="44.4451218203189" lon="9.905899922690905"><ele>774.0</ele><time>2026-04-11T14:45:43Z</time></trkpt><trkpt lat="44.445316224269206" lon="9.905970547693077"><ele>785.0</ele><time>2026-04-11T14:45:44Z</time></trkpt><trkpt lat="44.44552959931994" lon="9.906055965129145"><ele>796.0</ele><time>2026-04-11T14:45:45Z</time></trkpt><trkpt lat="44.445768139587074" lon="9.906131471141116"><ele>796.0</ele><time>2026-04-11T14:45:46Z</time></trkpt><trkpt lat="44.44602023388864" lon="9.90621083221358"><ele>796.0</ele><time>2026-04-11T14:45:47Z</time></trkpt><trkpt lat="44.44632627431046" lon="9.906334373995263"><ele>796.3333333333333</ele><time>2026-04-11T14:45:48Z</time></trkpt><trkpt lat="44.4466384231734" lon="9.906459471626883"><ele>796.6666666666667</ele><time>2026-04-11T14:45:49Z</time></trkpt><trkpt lat="44.44658397591818" lon="9.90634146079457"><ele>797.0</ele><time>2026-04-11T14:45:50Z</time></trkpt><trkpt lat="44.44669884722606" lon="9.906375203886897"><ele>797.0</ele><time>2026-04-11T14:45:51Z</time></trkpt><trkpt lat="44.44676523165866" lon="9.90642839911089"><ele>797.0</ele><time>2026-04-11T14:45:52Z</time></trkpt><trkpt lat="44.446757028740656" lon="9.906556949059679"><ele>797.0</ele><time>2026-04-11T14:45:53Z</time></trkpt><trkpt lat="44.44670996243488" lon="9.906647268116188"><ele>797.0</ele><time>2026-04-11T14:45:54Z</time></trkpt><trkpt lat="44.446575855594155" lon="9.906644625940803"><ele>797.0</ele><time>2026-04-11T14:45:55Z</time></trkpt><trkpt lat="44.44642701235125" lon="9.90663170919114"><ele>796.6666666666667</ele><time>2026-04-11T14:45:56Z</time></trkpt><trkpt lat="44.44622556384833" lon="9.906630310223512"><ele>796.3333333333333</ele><time>2026-04-11T14:45:57Z</time></trkpt><trkpt lat="44.44599070323344" lon="9.906607361913217"><ele>796.0</ele><time>2026-04-11T14:45:58Z</time></trkpt><trkpt lat="44.445757946067154" lon="9.906594090251788"><ele>796.0</ele><time>2026-04-11T14:45:59Z</time></trkpt><trkpt lat="44.44557887652945" lon="9.906597667059557"><ele>796.0</ele><time>2026-04-11T14:46:00Z</time></trkpt><trkpt lat="44.445457795847396" lon="9.906650130891265"><ele>796.0</ele><time>2026-04-11T14:46:01Z</time></trkpt><trkpt lat="44.44538334094765" lon="9.906772427647766"><ele>796.0</ele><time>2026-04-11T14:46:02Z</time></trkpt><trkpt lat="44.44534711075358" lon="9.906959125958194"><ele>795.0</ele><time>2026-04-11T14:46:03Z</time></trkpt><trkpt lat="44.44537110087711" lon="9.907205917023829"><ele>794.0</ele><time>2026-04-11T14:46:04Z</time></trkpt><trkpt lat="44.44539047770828" lon="9.907472594813083"><ele>793.0</ele><time>2026-04-11T14:46:05Z</time></trkpt><trkpt lat="44.44539007858756" lon="9.907681635286822"><ele>793.0</ele><time>2026-04-11T14:46:06Z</time></trkpt><trkpt lat="44.44538910897148" lon="9.907835242046062"><ele>793.0</ele><time>2026-04-11T14:46:07Z</time></trkpt><trkpt lat="44.445390706132" lon="9.907969009584695"><ele>793.0</ele><time>2026-04-11T14:46:08Z</time></trkpt><trkpt lat="44.445392829462826" lon="9.908106832296442"><ele>793.0</ele><time>2026-04-11T14:46:09Z</time></trkpt><trkpt lat="44.4453918191485" lon="9.908244487369023"><ele>793.0</ele><time>2026-04-11T14:46:10Z</time></trkpt><trkpt lat="44.44538911368912" lon="9.908383414838534"><ele>792.75</ele><time>2026-04-11T14:46:11Z</time></trkpt><trkpt lat="44.44538971657755" lon="9.90853103503604"><ele>792.5</ele><time>2026-04-11T14:46:12Z</time></trkpt><trkpt lat="44.44540136766175" lon="9.908686711755793"><ele>792.25</ele><time>2026-04-11T14:46:13Z</time></trkpt><trkpt lat="44.44545621396464" lon="9.908836092382339"><ele>792.0</ele><time>2026-04-11T14:46:14Z</time></trkpt><trkpt lat="44.445579039288845" lon="9.908927760753107"><ele>796.3333333333333</ele><time>2026-04-11T14:46:15Z</time></trkpt><trkpt lat="44.44574771448066" lon="9.90892160144821"><ele>800.6666666666666</ele><time>2026-04-11T14:46:16Z</time></trkpt><trkpt lat="44.445912156705745" lon="9.908910319512525"><ele>805.0</ele><time>2026-04-11T14:46:17Z</time></trkpt><trkpt lat="44.44604858983239" lon="9.908912654637064"><ele>805.0</ele><time>2026-04-11T14:46:18Z</time></trkpt><trkpt lat="44.446177390353014" lon="9.908850148711636"><ele>805.0</ele><time>2026-04-11T14:46:19Z</time></trkpt><trkpt lat="44.446294082615374" lon="9.908709539498686"><ele>805.0</ele><time>2026-04-11T14:46:20Z</time></trkpt><trkpt lat="44.44642196406681" lon="9.908635031318296"><ele>805.0</ele><time>2026-04-11T14:46:21Z</time></trkpt><trkpt lat="44.44654858859781" lon="9.908678216389463"><ele>807.0</ele><time>2026-04-11T14:46:22Z</time></trkpt><trkpt lat="44.446697879801604" lon="9.908744918163757"><ele>809.0</ele><time>2026-04-11T14:46:23Z</time></trkpt><trkpt lat="44.44683946431292" lon="9.90879366856334"><ele>811.0</ele><time>2026-04-11T14:46:24Z</time></trkpt><trkpt lat="44.44696035462216" lon="9.908840156392985"><ele>813.0</ele><time>2026-04-11T14:46:25Z</time></trkpt><trkpt lat="44.447067755029636" lon="9.908813351837525"><ele>815.0</ele><time>2026-04-11T14:46:26Z</time></trkpt><trkpt lat="44.44717648782323" lon="9.908733520597757"><ele>817.0</ele><time>2026-04-11T14:46:27Z</time></trkpt><trkpt lat="44.44728813536714" lon="9.908647664803734"><ele>819.0</ele><time>2026-04-11T14:46:28Z</time></trkpt><trkpt lat="44.44739903151451" lon="9.90857603573725"><ele>821.0</ele><time>2026-04-11T14:46:29Z</time></trkpt><trkpt lat="44.44752001571651" lon="9.9084821237205"><ele>823.25</ele><time>2026-04-11T14:46:30Z</time></trkpt><trkpt lat="44.44763859867779" lon="9.908367449052841"><ele>825.5</ele><time>2026-04-11T14:46:31Z</time></trkpt><trkpt lat="44.44776853253968" lon="9.908253482456354"><ele>827.75</ele><time>2026-04-11T14:46:31.999Z</time></trkpt><trkpt lat="44.44788957841828" lon="9.908140490252006"><ele>830.0</ele><time>2026-04-11T14:46:32.999Z</time></trkpt><trkpt lat="44.447997198034294" lon="9.908049201096889"><ele>832.5</ele><time>2026-04-11T14:46:33.999Z</time></trkpt><trkpt lat="44.44808977619776" lon="9.90791414100391"><ele>835.0</ele><time>2026-04-11T14:46:34.999Z</time></trkpt><trkpt lat="44.448154593905564" lon="9.907732576013903"><ele>837.5</ele><time>2026-04-11T14:46:35.999Z</time></trkpt><trkpt lat="44.448201896335114" lon="9.9075420119565"><ele>840.0</ele><time>2026-04-11T14:46:36.999Z</time></trkpt><trkpt lat="44.448265644453606" lon="9.907379132967675"><ele>840.0</ele><time>2026-04-11T14:46:37.999Z</time></trkpt><trkpt lat="44.44834199749769" lon="9.907249507177733"><ele>840.0</ele><time>2026-04-11T14:46:38.999Z</time></trkpt><trkpt lat="44.44843353099575" lon="9.907134216185076"><ele>840.0</ele><time>2026-04-11T14:46:39.999Z</time></trkpt><trkpt lat="44.44854072277524" lon="9.907005161973736"><ele>840.0</ele><time>2026-04-11T14:46:40.999Z</time></trkpt><trkpt lat="44.44863770898302" lon="9.90687334762246"><ele>840.0</ele><time>2026-04-11T14:46:41.999Z</time></trkpt><trkpt lat="44.44873964673572" lon="9.906772218432037"><ele>840.0</ele><time>2026-04-11T14:46:42.999Z</time></trkpt><trkpt lat="44.44886141908658" lon="9.906702115403535"><ele>840.0</ele><time>2026-04-11T14:46:43.999Z</time></trkpt><trkpt lat="44.44898361147097" lon="9.906610433611615"><ele>840.0</ele><time>2026-04-11T14:46:44.999Z</time></trkpt><trkpt lat="44.449106471259945" lon="9.906539346790028"><ele>841.4</ele><time>2026-04-11T14:46:45.999Z</time></trkpt><trkpt lat="44.44921690232309" lon="9.906466726436348"><ele>842.8</ele><time>2026-04-11T14:46:46.999Z</time></trkpt><trkpt lat="44.44931744703933" lon="9.906405995838787"><ele>844.2</ele><time>2026-04-11T14:46:47.999Z</time></trkpt><trkpt lat="44.44941764869885" lon="9.906347764453725"><ele>845.6</ele><time>2026-04-11T14:46:48.999Z</time></trkpt><trkpt lat="44.44950421948718" lon="9.90629827182435"><ele>847.0</ele><time>2026-04-11T14:46:49.999Z</time></trkpt><trkpt lat="44.44957300658583" lon="9.90628674247824"><ele>847.0</ele><time>2026-04-11T14:46:50.999Z</time></trkpt><trkpt lat="44.449625165859274" lon="9.906343003278556"><ele>847.0</ele><time>2026-04-11T14:46:51.999Z</time></trkpt><trkpt lat="44.4496367808379" lon="9.906467347741136"><ele>847.0</ele><time>2026-04-11T14:46:52.999Z</time></trkpt><trkpt lat="44.449574905116116" lon="9.906571110720511"><ele>847.0</ele><time>2026-04-11T14:46:53.999Z</time></trkpt><trkpt lat="44.44944153326169" lon="9.906599680597335"><ele>847.0</ele><time>2026-04-11T14:46:54.999Z</time></trkpt><trkpt lat="44.44928418879228" lon="9.90669237811458"><ele>850.0</ele><time>2026-04-11T14:46:55.999Z</time></trkpt><trkpt lat="44.4491475829618" lon="9.906777725105545"><ele>853.0</ele><time>2026-04-11T14:46:56.999Z</time></trkpt><trkpt lat="44.44903907704569" lon="9.90689924675972"><ele>856.0</ele><time>2026-04-11T14:46:57.999Z</time></trkpt><trkpt lat="44.44895792690297" lon="9.907035690256558"><ele>859.0</ele><time>2026-04-11T14:46:58.999Z</time></trkpt><trkpt lat="44.44889289733035" lon="9.907153031561526"><ele>859.0</ele><time>2026-04-11T14:46:59.999Z</time></trkpt><trkpt lat="44.44883080591958" lon="9.907250189835779"><ele>859.0000000000001</ele><time>2026-04-11T14:47:00.999Z</time></trkpt><trkpt lat="44.44878051554406" lon="9.907323148880831"><ele>859.0000000000001</ele><time>2026-04-11T14:47:01.999Z</time></trkpt><trkpt lat="44.4488134082362" lon="9.907499550100967"><ele>859.0</ele><time>2026-04-11T14:47:03.999Z</time></trkpt><trkpt lat="44.44889964071218" lon="9.907557506316888"><ele>859.0</ele><time>2026-04-11T14:47:04.999Z</time></trkpt><trkpt lat="44.448995719681214" lon="9.907525305449884"><ele>859.0</ele><time>2026-04-11T14:47:05.999Z</time></trkpt><trkpt lat="44.44907752821798" lon="9.907404097779413"><ele>859.0000000000001</ele><time>2026-04-11T14:47:06.999Z</time></trkpt><trkpt lat="44.449164434266024" lon="9.90727215189186"><ele>859.0000000000001</ele><time>2026-04-11T14:47:07.999Z</time></trkpt><trkpt lat="44.4492620951005" lon="9.907205263228503"><ele>859.0</ele><time>2026-04-11T14:47:08.999Z</time></trkpt><trkpt lat="44.449343760615015" lon="9.90714197437314"><ele>859.0</ele><time>2026-04-11T14:47:09.999Z</time></trkpt><trkpt lat="44.44942241824606" lon="9.907102067594161"><ele>859.0</ele><time>2026-04-11T14:47:10.999Z</time></trkpt><trkpt lat="44.44951290542859" lon="9.907151221615571"><ele>859.0000000000001</ele><time>2026-04-11T14:47:11.999Z</time></trkpt><trkpt lat="44.4495744450822" lon="9.907254730700766"><ele>859.0000000000001</ele><time>2026-04-11T14:47:12.999Z</time></trkpt><trkpt lat="44.44958562478942" lon="9.907409259112356"><ele>859.0</ele><time>2026-04-11T14:47:13.999Z</time></trkpt><trkpt lat="44.4495653540398" lon="9.907568645889448"><ele>859.0</ele><time>2026-04-11T14:47:14.999Z</time></trkpt><trkpt lat="44.44954911447072" lon="9.907726632253599"><ele>860.0</ele><time>2026-04-11T14:47:15.999Z</time></trkpt><trkpt lat="44.449503420262005" lon="9.907876571583829"><ele>861.0</ele><time>2026-04-11T14:47:16.999Z</time></trkpt><trkpt lat="44.4494302516113" lon="9.908016308434108"><ele>862.0</ele><time>2026-04-11T14:47:17.999Z</time></trkpt><trkpt lat="44.4493308996052" lon="9.90812383228081"><ele>863.0</ele><time>2026-04-11T14:47:18.999Z</time></trkpt><trkpt lat="44.449214347101396" lon="9.90818984768274"><ele>863.0</ele><time>2026-04-11T14:47:19.999Z</time></trkpt><trkpt lat="44.44910756316704" lon="9.908291236420894"><ele>863.0</ele><time>2026-04-11T14:47:20.999Z</time></trkpt><trkpt lat="44.44905987563333" lon="9.908459156286998"><ele>863.0</ele><time>2026-04-11T14:47:21.999Z</time></trkpt><trkpt lat="44.449085187292624" lon="9.908652161506263"><ele>863.0</ele><time>2026-04-11T14:47:22.999Z</time></trkpt><trkpt lat="44.44913901173561" lon="9.90884001798352"><ele>864.0</ele><time>2026-04-11T14:47:23.999Z</time></trkpt><trkpt lat="44.44922602400769" lon="9.909010889259944"><ele>865.0</ele><time>2026-04-11T14:47:24.999Z</time></trkpt><trkpt lat="44.44931775227254" lon="9.909013241751687"><ele>866.0</ele><time>2026-04-11T14:47:25.999Z</time></trkpt><trkpt lat="44.44948067697867" lon="9.909010545518738"><ele>867.0</ele><time>2026-04-11T14:47:26.999Z</time></trkpt><trkpt lat="44.449643000089885" lon="9.909026163265931"><ele>867.0</ele><time>2026-04-11T14:47:27.999Z</time></trkpt><trkpt lat="44.44981477087858" lon="9.909057354177948"><ele>867.0</ele><time>2026-04-11T14:47:28.999Z</time></trkpt><trkpt lat="44.44996489480228" lon="9.909088976986551"><ele>867.0</ele><time>2026-04-11T14:47:30Z</time></trkpt><trkpt lat="44.45009930748635" lon="9.90911146515186"><ele>867.0</ele><time>2026-04-11T14:47:31Z</time></trkpt><trkpt lat="44.45023016608994" lon="9.909102865816223"><ele>867.0</ele><time>2026-04-11T14:47:32Z</time></trkpt><trkpt lat="44.45035572973108" lon="9.909016276445769"><ele>867.0</ele><time>2026-04-11T14:47:33Z</time></trkpt><trkpt lat="44.45045153130902" lon="9.908838807861665"><ele>867.0</ele><time>2026-04-11T14:47:34Z</time></trkpt><trkpt lat="44.45052999463062" lon="9.908638195180998"><ele>869.0</ele><time>2026-04-11T14:47:35Z</time></trkpt><trkpt lat="44.45064568500032" lon="9.908489780398549"><ele>871.0</ele><time>2026-04-11T14:47:36Z</time></trkpt><trkpt lat="44.450808539050165" lon="9.908381108430149"><ele>873.0</ele><time>2026-04-11T14:47:37Z</time></trkpt><trkpt lat="44.450981298339144" lon="9.908256103843849"><ele>877.3333333333333</ele><time>2026-04-11T14:47:38Z</time></trkpt><trkpt lat="44.45115236464729" lon="9.908150380512263"><ele>881.6666666666666</ele><time>2026-04-11T14:47:39Z</time></trkpt><trkpt lat="44.45131787047883" lon="9.908053814891517"><ele>886.0</ele><time>2026-04-11T14:47:40Z</time></trkpt><trkpt lat="44.451461845327614" lon="9.907969233201905"><ele>887.25</ele><time>2026-04-11T14:47:41Z</time></trkpt><trkpt lat="44.45159350007418" lon="9.907910826915368"><ele>888.5</ele><time>2026-04-11T14:47:42Z</time></trkpt><trkpt lat="44.45172286670585" lon="9.90791263851772"><ele>889.75</ele><time>2026-04-11T14:47:43Z</time></trkpt><trkpt lat="44.45184410444963" lon="9.907981433026347"><ele>891.0</ele><time>2026-04-11T14:47:44Z</time></trkpt><trkpt lat="44.45194693718394" lon="9.90812316533413"><ele>891.0</ele><time>2026-04-11T14:47:45Z</time></trkpt><trkpt lat="44.45207385801038" lon="9.908328701185827"><ele>891.0</ele><time>2026-04-11T14:47:46Z</time></trkpt><trkpt lat="44.45219805764256" lon="9.908536712055566"><ele>891.0</ele><time>2026-04-11T14:47:47Z</time></trkpt><trkpt lat="44.452312367465794" lon="9.908733813289386"><ele>895.0</ele><time>2026-04-11T14:47:48Z</time></trkpt><trkpt lat="44.45240009507092" lon="9.908924979760984"><ele>899.0</ele><time>2026-04-11T14:47:49Z</time></trkpt><trkpt lat="44.45244351128156" lon="9.909115423069208"><ele>903.0</ele><time>2026-04-11T14:47:50Z</time></trkpt><trkpt lat="44.45241216780272" lon="9.909309559824141"><ele>907.0</ele><time>2026-04-11T14:47:51Z</time></trkpt><trkpt lat="44.452326126030954" lon="9.909486808556105"><ele>906.75</ele><time>2026-04-11T14:47:52Z</time></trkpt><trkpt lat="44.452256078085654" lon="9.909680572491434"><ele>906.5</ele><time>2026-04-11T14:47:53Z</time></trkpt><trkpt lat="44.452210058075835" lon="9.909833973602392"><ele>906.25</ele><time>2026-04-11T14:47:54Z</time></trkpt><trkpt lat="44.45224175270516" lon="9.910020455378184"><ele>906.0</ele><time>2026-04-11T14:47:55Z</time></trkpt><trkpt lat="44.45233499554381" lon="9.910203981351032"><ele>906.0</ele><time>2026-04-11T14:47:56Z</time></trkpt><trkpt lat="44.452459921399395" lon="9.910350955467536"><ele>906.0</ele><time>2026-04-11T14:47:57Z</time></trkpt><trkpt lat="44.45258836035691" lon="9.91050774881924"><ele>906.0</ele><time>2026-04-11T14:47:58Z</time></trkpt><trkpt lat="44.45271127692863" lon="9.910683682348555"><ele>906.0</ele><time>2026-04-11T14:47:59Z</time></trkpt><trkpt lat="44.45282690471582" lon="9.910888438264406"><ele>906.0</ele><time>2026-04-11T14:48:00Z</time></trkpt><trkpt lat="44.45294179191506" lon="9.911099352769305"><ele>906.0</ele><time>2026-04-11T14:48:01Z</time></trkpt><trkpt lat="44.45305744008229" lon="9.91131616831721"><ele>914.5</ele><time>2026-04-11T14:48:02Z</time></trkpt><trkpt lat="44.45316032980077" lon="9.911604598341421"><ele>923.0</ele><time>2026-04-11T14:48:03Z</time></trkpt><trkpt lat="44.45326438179773" lon="9.911910926200555"><ele>923.0</ele><time>2026-04-11T14:48:04Z</time></trkpt><trkpt lat="44.45335974026419" lon="9.912181312165467"><ele>923.0</ele><time>2026-04-11T14:48:05Z</time></trkpt><trkpt lat="44.4534295664179" lon="9.912423459164161"><ele>923.0</ele><time>2026-04-11T14:48:06Z</time></trkpt><trkpt lat="44.45349828723482" lon="9.912636243629498"><ele>923.4</ele><time>2026-04-11T14:48:07Z</time></trkpt><trkpt lat="44.4535609251622" lon="9.91281407017629"><ele>923.8</ele><time>2026-04-11T14:48:08Z</time></trkpt><trkpt lat="44.45355892574071" lon="9.912972166773585"><ele>924.2</ele><time>2026-04-11T14:48:09Z</time></trkpt><trkpt lat="44.4535542225304" lon="9.91309684353222"><ele>924.6</ele><time>2026-04-11T14:48:10Z</time></trkpt><trkpt lat="44.45355234088327" lon="9.913204765146762"><ele>925.0</ele><time>2026-04-11T14:48:11Z</time></trkpt><trkpt lat="44.453548710773376" lon="9.913412972009006"><ele>926.2</ele><time>2026-04-11T14:48:13Z</time></trkpt><trkpt lat="44.45354633045999" lon="9.913545442635675"><ele>927.4</ele><time>2026-04-11T14:48:14Z</time></trkpt><trkpt lat="44.45354396200835" lon="9.913675007418004"><ele>928.5999999999999</ele><time>2026-04-11T14:48:15Z</time></trkpt><trkpt lat="44.45354169952998" lon="9.91379877528689"><ele>929.8</ele><time>2026-04-11T14:48:16Z</time></trkpt><trkpt lat="44.45353943681568" lon="9.913922555736784"><ele>931.0</ele><time>2026-04-11T14:48:17Z</time></trkpt><trkpt lat="44.45355183988533" lon="9.914057826539803"><ele>931.0</ele><time>2026-04-11T14:48:18Z</time></trkpt><trkpt lat="44.45353218405164" lon="9.914207840437744"><ele>931.0</ele><time>2026-04-11T14:48:19Z</time></trkpt><trkpt lat="44.45353939764934" lon="9.91438087976047"><ele>931.0</ele><time>2026-04-11T14:48:20Z</time></trkpt><trkpt lat="44.453510462304926" lon="9.914569833744991"><ele>931.0</ele><time>2026-04-11T14:48:21Z</time></trkpt><trkpt lat="44.45347208282141" lon="9.914745511647602"><ele>933.5</ele><time>2026-04-11T14:48:22Z</time></trkpt><trkpt lat="44.45341877741614" lon="9.914914893915968"><ele>936.0</ele><time>2026-04-11T14:48:23Z</time></trkpt><trkpt lat="44.453326036365766" lon="9.91505917064955"><ele>938.5</ele><time>2026-04-11T14:48:24Z</time></trkpt><trkpt lat="44.45321844706848" lon="9.915228642753409"><ele>941.0</ele><time>2026-04-11T14:48:25Z</time></trkpt><trkpt lat="44.45310633529821" lon="9.915402737985852"><ele>940.0</ele><time>2026-04-11T14:48:26Z</time></trkpt><trkpt lat="44.45300176658894" lon="9.915571353229033"><ele>939.0</ele><time>2026-04-11T14:48:27Z</time></trkpt><trkpt lat="44.45289370755906" lon="9.915764523835245"><ele>938.0</ele><time>2026-04-11T14:48:28Z</time></trkpt><trkpt lat="44.452725814748014" lon="9.915960951519159"><ele>942.0</ele><time>2026-04-11T14:48:29Z</time></trkpt><trkpt lat="44.452682178114" lon="9.916107127344919"><ele>946.0</ele><time>2026-04-11T14:48:30Z</time></trkpt><trkpt lat="44.4525723177671" lon="9.916283845953588"><ele>950.0</ele><time>2026-04-11T14:48:31Z</time></trkpt><trkpt lat="44.452461214832155" lon="9.91648062848071"><ele>950.0</ele><time>2026-04-11T14:48:32Z</time></trkpt><trkpt lat="44.45235151701768" lon="9.91667940647792"><ele>950.0</ele><time>2026-04-11T14:48:33Z</time></trkpt><trkpt lat="44.45224728722288" lon="9.91684550415297"><ele>950.0</ele><time>2026-04-11T14:48:34Z</time></trkpt><trkpt lat="44.452148494793974" lon="9.916986355856919"><ele>949.0</ele><time>2026-04-11T14:48:34.999Z</time></trkpt><trkpt lat="44.45205516222043" lon="9.917133766334912"><ele>948.0</ele><time>2026-04-11T14:48:35.999Z</time></trkpt><trkpt lat="44.45198447924683" lon="9.917286917096353"><ele>947.0</ele><time>2026-04-11T14:48:36.999Z</time></trkpt><trkpt lat="44.4519560571441" lon="9.917456099527797"><ele>946.0</ele><time>2026-04-11T14:48:37.999Z</time></trkpt><trkpt lat="44.45196159269089" lon="9.91762474970005"><ele>948.25</ele><time>2026-04-11T14:48:38.999Z</time></trkpt><trkpt lat="44.451948576969336" lon="9.917793869650822"><ele>950.5</ele><time>2026-04-11T14:48:39.999Z</time></trkpt><trkpt lat="44.45191771852775" lon="9.917951184534157"><ele>952.75</ele><time>2026-04-11T14:48:40.999Z</time></trkpt><trkpt lat="44.451879684962954" lon="9.91809638970892"><ele>955.0</ele><time>2026-04-11T14:48:41.999Z</time></trkpt><trkpt lat="44.45180733252017" lon="9.918241937965698"><ele>955.0</ele><time>2026-04-11T14:48:42.999Z</time></trkpt><trkpt lat="44.45172790783244" lon="9.918386316620714"><ele>955.0</ele><time>2026-04-11T14:48:43.999Z</time></trkpt><trkpt lat="44.45161718487239" lon="9.91854456741884"><ele>955.0</ele><time>2026-04-11T14:48:44.999Z</time></trkpt><trkpt lat="44.451471944723686" lon="9.918729585013532"><ele>958.0</ele><time>2026-04-11T14:48:45.999Z</time></trkpt><trkpt lat="44.45130512699067" lon="9.918941752087775"><ele>961.0</ele><time>2026-04-11T14:48:46.999Z</time></trkpt><trkpt lat="44.45110701442679" lon="9.91914770397587"><ele>963.6666666666666</ele><time>2026-04-11T14:48:47.999Z</time></trkpt><trkpt lat="44.45092660421801" lon="9.919332555024317"><ele>966.3333333333333</ele><time>2026-04-11T14:48:48.999Z</time></trkpt><trkpt lat="44.45078267603719" lon="9.919460503167796"><ele>969.0</ele><time>2026-04-11T14:48:49.999Z</time></trkpt><trkpt lat="44.45070240537701" lon="9.919567144593616"><ele>969.0</ele><time>2026-04-11T14:48:50.999Z</time></trkpt><trkpt lat="44.45066815308613" lon="9.919673903667649"><ele>969.0000000000001</ele><time>2026-04-11T14:48:51.999Z</time></trkpt><trkpt lat="44.4506874485179" lon="9.919810855072944"><ele>969.0000000000001</ele><time>2026-04-11T14:48:52.999Z</time></trkpt><trkpt lat="44.450766528036134" lon="9.919937662137315"><ele>969.0</ele><time>2026-04-11T14:48:53.999Z</time></trkpt><trkpt lat="44.450892777998504" lon="9.919969576876888"><ele>969.0</ele><time>2026-04-11T14:48:54.999Z</time></trkpt><trkpt lat="44.45102214336755" lon="9.919877340357214"><ele>969.0</ele><time>2026-04-11T14:48:55.999Z</time></trkpt><trkpt lat="44.45113780989132" lon="9.919676309029573"><ele>969.0</ele><time>2026-04-11T14:48:56.999Z</time></trkpt><trkpt lat="44.45127799248289" lon="9.919439526182567"><ele>969.0</ele><time>2026-04-11T14:48:57.999Z</time></trkpt><trkpt lat="44.451451580250335" lon="9.919240286289607"><ele>970.0</ele><time>2026-04-11T14:48:58.999Z</time></trkpt><trkpt lat="44.45165020047767" lon="9.919081678340964"><ele>971.0</ele><time>2026-04-11T14:48:59.999Z</time></trkpt><trkpt lat="44.45184726828668" lon="9.918972790722313"><ele>972.0</ele><time>2026-04-11T14:49:00.999Z</time></trkpt><trkpt lat="44.45204930486768" lon="9.91891670715705"><ele>972.3333333333333</ele><time>2026-04-11T14:49:01.999Z</time></trkpt><trkpt lat="44.45226053995834" lon="9.918915808759643"><ele>972.6666666666666</ele><time>2026-04-11T14:49:02.999Z</time></trkpt><trkpt lat="44.45244705691143" lon="9.918860220827796"><ele>973.0</ele><time>2026-04-11T14:49:03.999Z</time></trkpt><trkpt lat="44.452616698296644" lon="9.91881267573154"><ele>973.0</ele><time>2026-04-11T14:49:04.999Z</time></trkpt><trkpt lat="44.45276739652233" lon="9.918691803115822"><ele>973.0</ele><time>2026-04-11T14:49:05.999Z</time></trkpt><trkpt lat="44.45289491620036" lon="9.918562420198986"><ele>973.0</ele><time>2026-04-11T14:49:06.999Z</time></trkpt><trkpt lat="44.45302537353336" lon="9.918386512471063"><ele>974.3333333333333</ele><time>2026-04-11T14:49:07.999Z</time></trkpt><trkpt lat="44.45313360642084" lon="9.918184392200263"><ele>975.6666666666667</ele><time>2026-04-11T14:49:08.999Z</time></trkpt><trkpt lat="44.45322701777393" lon="9.918012177367338"><ele>977.0</ele><time>2026-04-11T14:49:09.999Z</time></trkpt><trkpt lat="44.45337674422367" lon="9.917917111964398"><ele>977.0</ele><time>2026-04-11T14:49:10.999Z</time></trkpt><trkpt lat="44.45354235151374" lon="9.917842879730895"><ele>977.0</ele><time>2026-04-11T14:49:11.999Z</time></trkpt><trkpt lat="44.45370832273532" lon="9.917810069806555"><ele>977.0</ele><time>2026-04-11T14:49:12.999Z</time></trkpt><trkpt lat="44.453877787266265" lon="9.91780671474835"><ele>975.0</ele><time>2026-04-11T14:49:13.999Z</time></trkpt><trkpt lat="44.45406494588803" lon="9.91782614787149"><ele>973.0</ele><time>2026-04-11T14:49:14.999Z</time></trkpt><trkpt lat="44.454251573408065" lon="9.91787913597372"><ele>971.0</ele><time>2026-04-11T14:49:15.999Z</time></trkpt><trkpt lat="44.454439644161376" lon="9.917978871116048"><ele>978.3333333333334</ele><time>2026-04-11T14:49:16.999Z</time></trkpt><trkpt lat="44.45464238553566" lon="9.918099969452172"><ele>985.6666666666667</ele><time>2026-04-11T14:49:17.999Z</time></trkpt><trkpt lat="44.45481682573859" lon="9.918214630917952"><ele>993.0</ele><time>2026-04-11T14:49:18.999Z</time></trkpt><trkpt lat="44.45497524256556" lon="9.918355479816785"><ele>984.3333333333333</ele><time>2026-04-11T14:49:19.999Z</time></trkpt><trkpt lat="44.45510868035192" lon="9.918533477553565"><ele>975.6666666666666</ele><time>2026-04-11T14:49:20.999Z</time></trkpt><trkpt lat="44.45522020727353" lon="9.918728763001543"><ele>967.0</ele><time>2026-04-11T14:49:21.999Z</time></trkpt><trkpt lat="44.455338266000695" lon="9.918927506755743"><ele>963.25</ele><time>2026-04-11T14:49:22.999Z</time></trkpt><trkpt lat="44.45545757312116" lon="9.919104004344314"><ele>959.5</ele><time>2026-04-11T14:49:23.999Z</time></trkpt><trkpt lat="44.455542667350954" lon="9.919230643661415"><ele>955.75</ele><time>2026-04-11T14:49:24.999Z</time></trkpt><trkpt lat="44.455648158772995" lon="9.91929520973908"><ele>952.0</ele><time>2026-04-11T14:49:25.999Z</time></trkpt><trkpt lat="44.455771009419955" lon="9.91927694435798"><ele>962.3333333333333</ele><time>2026-04-11T14:49:26.999Z</time></trkpt><trkpt lat="44.45591898425429" lon="9.919168045441438"><ele>972.6666666666667</ele><time>2026-04-11T14:49:27.999Z</time></trkpt><trkpt lat="44.45607821248438" lon="9.919035116695078"><ele>983.0</ele><time>2026-04-11T14:49:28.999Z</time></trkpt><trkpt lat="44.45626971346435" lon="9.918998373837443"><ele>983.6666666666667</ele><time>2026-04-11T14:49:29.999Z</time></trkpt><trkpt lat="44.456469293646876" lon="9.918990858404365"><ele>984.3333333333333</ele><time>2026-04-11T14:49:30.999Z</time></trkpt><trkpt lat="44.45666697652729" lon="9.919003354893114"><ele>985.0</ele><time>2026-04-11T14:49:31.999Z</time></trkpt><trkpt lat="44.456860932079834" lon="9.91910643682633"><ele>985.0</ele><time>2026-04-11T14:49:32.999Z</time></trkpt><trkpt lat="44.45705382218866" lon="9.919181724387839"><ele>985.0</ele><time>2026-04-11T14:49:33.999Z</time></trkpt><trkpt lat="44.457226908367076" lon="9.91923086055778"><ele>985.0</ele><time>2026-04-11T14:49:34.999Z</time></trkpt><trkpt lat="44.457388077457985" lon="9.919274798862926"><ele>981.3333333333333</ele><time>2026-04-11T14:49:36Z</time></trkpt><trkpt lat="44.45753417966795" lon="9.919396205848132"><ele>977.6666666666667</ele><time>2026-04-11T14:49:37Z</time></trkpt><trkpt lat="44.457630001265564" lon="9.9195884845589"><ele>974.0</ele><time>2026-04-11T14:49:38Z</time></trkpt><trkpt lat="44.457724039128976" lon="9.919759948766071"><ele>974.0</ele><time>2026-04-11T14:49:39Z</time></trkpt><trkpt lat="44.45781588992838" lon="9.919902858492017"><ele>974.0</ele><time>2026-04-11T14:49:40Z</time></trkpt><trkpt lat="44.45793434466551" lon="9.91995664964064"><ele>974.0</ele><time>2026-04-11T14:49:41Z</time></trkpt><trkpt lat="44.45805267089143" lon="9.919914389808543"><ele>974.0</ele><time>2026-04-11T14:49:42Z</time></trkpt><trkpt lat="44.45817547369178" lon="9.919821942447872"><ele>976.5</ele><time>2026-04-11T14:49:43Z</time></trkpt><trkpt lat="44.458301719765245" lon="9.919722149218611"><ele>979.0</ele><time>2026-04-11T14:49:44Z</time></trkpt><trkpt lat="44.45842996924882" lon="9.919656971079684"><ele>981.5</ele><time>2026-04-11T14:49:45Z</time></trkpt><trkpt lat="44.458547278836576" lon="9.919708935406364"><ele>984.0</ele><time>2026-04-11T14:49:46Z</time></trkpt><trkpt lat="44.45865821275907" lon="9.9198303179054"><ele>984.0</ele><time>2026-04-11T14:49:47Z</time></trkpt><trkpt lat="44.45875095828276" lon="9.920044420187908"><ele>984.0</ele><time>2026-04-11T14:49:48Z</time></trkpt><trkpt lat="44.458859372977386" lon="9.920261827442625"><ele>984.0</ele><time>2026-04-11T14:49:49Z</time></trkpt><trkpt lat="44.458973597017916" lon="9.920468822774598"><ele>985.6666666666667</ele><time>2026-04-11T14:49:50Z</time></trkpt><trkpt lat="44.459077709176675" lon="9.920674348436167"><ele>987.3333333333334</ele><time>2026-04-11T14:49:51Z</time></trkpt><trkpt lat="44.459167766965045" lon="9.920859710270033"><ele>989.0</ele><time>2026-04-11T14:49:52Z</time></trkpt><trkpt lat="44.45924038608843" lon="9.921025584716528"><ele>985.0</ele><time>2026-04-11T14:49:53Z</time></trkpt><trkpt lat="44.45932649975359" lon="9.921158649072995"><ele>981.0</ele><time>2026-04-11T14:49:54Z</time></trkpt><trkpt lat="44.459447766025015" lon="9.921214287789253"><ele>977.0</ele><time>2026-04-11T14:49:55Z</time></trkpt><trkpt lat="44.459608547758315" lon="9.921178143254481"><ele>973.0</ele><time>2026-04-11T14:49:56Z</time></trkpt><trkpt lat="44.4597761157535" lon="9.92108061816146"><ele>973.0</ele><time>2026-04-11T14:49:57Z</time></trkpt><trkpt lat="44.45994362787849" lon="9.920970510137604"><ele>973.0</ele><time>2026-04-11T14:49:58Z</time></trkpt><trkpt lat="44.460101964992724" lon="9.920855378158235"><ele>973.0</ele><time>2026-04-11T14:49:59Z</time></trkpt><trkpt lat="44.46022655033755" lon="9.920711863264922"><ele>979.6666666666666</ele><time>2026-04-11T14:50:00Z</time></trkpt><trkpt lat="44.460363258911" lon="9.920627138475545"><ele>986.3333333333333</ele><time>2026-04-11T14:50:01Z</time></trkpt><trkpt lat="44.46054123665289" lon="9.920631303278501"><ele>993.0</ele><time>2026-04-11T14:50:02Z</time></trkpt><trkpt lat="44.46075883070521" lon="9.9206813774392"><ele>993.0</ele><time>2026-04-11T14:50:03Z</time></trkpt><trkpt lat="44.46097124040311" lon="9.920728780420369"><ele>993.0</ele><time>2026-04-11T14:50:04Z</time></trkpt><trkpt lat="44.46115825693434" lon="9.920793824440313"><ele>993.0</ele><time>2026-04-11T14:50:05Z</time></trkpt><trkpt lat="44.461282023259855" lon="9.920950697555073"><ele>990.0</ele><time>2026-04-11T14:50:06Z</time></trkpt><trkpt lat="44.46141914651209" lon="9.921108884284616"><ele>987.0</ele><time>2026-04-11T14:50:07Z</time></trkpt><trkpt lat="44.461563927314" lon="9.921278558289734"><ele>984.0</ele><time>2026-04-11T14:50:08Z</time></trkpt><trkpt lat="44.461714043887824" lon="9.921435455714114"><ele>984.0</ele><time>2026-04-11T14:50:09Z</time></trkpt><trkpt lat="44.46186401972936" lon="9.92154992311398"><ele>984.0</ele><time>2026-04-11T14:50:10Z</time></trkpt><trkpt lat="44.4620021604331" lon="9.921643892436858"><ele>984.0</ele><time>2026-04-11T14:50:11Z</time></trkpt><trkpt lat="44.46212623882254" lon="9.92169329933119"><ele>985.5</ele><time>2026-04-11T14:50:12Z</time></trkpt><trkpt lat="44.462233884919065" lon="9.921656166281819"><ele>987.0</ele><time>2026-04-11T14:50:13Z</time></trkpt><trkpt lat="44.462325573477095" lon="9.921529543062054"><ele>988.5</ele><time>2026-04-11T14:50:14Z</time></trkpt><trkpt lat="44.46237860080042" lon="9.921359269360222"><ele>990.0</ele><time>2026-04-11T14:50:15Z</time></trkpt><trkpt lat="44.46238784427752" lon="9.921136099695437"><ele>994.0</ele><time>2026-04-11T14:50:16Z</time></trkpt><trkpt lat="44.46240194767779" lon="9.920888740295842"><ele>998.0</ele><time>2026-04-11T14:50:17Z</time></trkpt><trkpt lat="44.46242618772155" lon="9.920641319390883"><ele>1002.0</ele><time>2026-04-11T14:50:18Z</time></trkpt><trkpt lat="44.462459070161145" lon="9.920397776272049"><ele>1002.0</ele><time>2026-04-11T14:50:19Z</time></trkpt><trkpt lat="44.46250556437846" lon="9.920150757658499"><ele>1002.0</ele><time>2026-04-11T14:50:20Z</time></trkpt><trkpt lat="44.46260550425978" lon="9.919933585503184"><ele>1002.0</ele><time>2026-04-11T14:50:21Z</time></trkpt><trkpt lat="44.46272389117623" lon="9.919714745648765"><ele>1005.3333333333333</ele><time>2026-04-11T14:50:22Z</time></trkpt><trkpt lat="44.46284342014662" lon="9.919526287758293"><ele>1008.6666666666666</ele><time>2026-04-11T14:50:23Z</time></trkpt><trkpt lat="44.46294471851682" lon="9.91935604979503"><ele>1012.0</ele><time>2026-04-11T14:50:24Z</time></trkpt><trkpt lat="44.46302919318184" lon="9.919222530109877"><ele>1012.0</ele><time>2026-04-11T14:50:25Z</time></trkpt><trkpt lat="44.46312705940949" lon="9.919152841127875"><ele>1012.0</ele><time>2026-04-11T14:50:26Z</time></trkpt><trkpt lat="44.463233245788615" lon="9.919150007814066"><ele>1012.0</ele><time>2026-04-11T14:50:27Z</time></trkpt><trkpt lat="44.463348851804874" lon="9.919198515855756"><ele>1012.0</ele><time>2026-04-11T14:50:28Z</time></trkpt><trkpt lat="44.463447124551124" lon="9.919374463065031"><ele>1011.0</ele><time>2026-04-11T14:50:29Z</time></trkpt><trkpt lat="44.46353993015913" lon="9.919598744089285"><ele>1010.0</ele><time>2026-04-11T14:50:30Z</time></trkpt><trkpt lat="44.463654064687816" lon="9.919769389432867"><ele>1009.0</ele><time>2026-04-11T14:50:31Z</time></trkpt><trkpt lat="44.46380651349111" lon="9.91987446069521"><ele>1009.0</ele><time>2026-04-11T14:50:32Z</time></trkpt><trkpt lat="44.463984172778666" lon="9.9199472206849"><ele>1009.0</ele><time>2026-04-11T14:50:33Z</time></trkpt><trkpt lat="44.46416196328485" lon="9.92001929213136"><ele>1009.0</ele><time>2026-04-11T14:50:34Z</time></trkpt><trkpt lat="44.4643485440272" lon="9.920122141539194"><ele>1006.3333333333333</ele><time>2026-04-11T14:50:35Z</time></trkpt><trkpt lat="44.46452492797939" lon="9.920265139921307"><ele>1003.6666666666667</ele><time>2026-04-11T14:50:36Z</time></trkpt><trkpt lat="44.46469449166586" lon="9.920428500557268"><ele>1001.0</ele><time>2026-04-11T14:50:37Z</time></trkpt><trkpt lat="44.46484955509922" lon="9.920570000518754"><ele>1001.0</ele><time>2026-04-11T14:50:38Z</time></trkpt><trkpt lat="44.46499765027224" lon="9.92067849431143"><ele>1001.0</ele><time>2026-04-11T14:50:39Z</time></trkpt><trkpt lat="44.46513821610995" lon="9.920738142257678"><ele>1001.0</ele><time>2026-04-11T14:50:40Z</time></trkpt><trkpt lat="44.46529110989386" lon="9.920709296048807"><ele>1002.0</ele><time>2026-04-11T14:50:41Z</time></trkpt><trkpt lat="44.465487542282496" lon="9.920603444909839"><ele>1003.0</ele><time>2026-04-11T14:50:41.999Z</time></trkpt><trkpt lat="44.46569913196537" lon="9.920476455620786"><ele>1004.0</ele><time>2026-04-11T14:50:42.999Z</time></trkpt><trkpt lat="44.46592348317412" lon="9.920371524410767"><ele>1004.0</ele><time>2026-04-11T14:50:43.999Z</time></trkpt><trkpt lat="44.466148351331015" lon="9.920305945002326"><ele>1004.0</ele><time>2026-04-11T14:50:44.999Z</time></trkpt><trkpt lat="44.46638295106035" lon="9.920279816424655"><ele>1003.5</ele><time>2026-04-11T14:50:45.999Z</time></trkpt><trkpt lat="44.466647856007874" lon="9.920300579293256"><ele>1003.0</ele><time>2026-04-11T14:50:46.999Z</time></trkpt><trkpt lat="44.46689078045291" lon="9.920314238546867"><ele>1007.0</ele><time>2026-04-11T14:50:47.999Z</time></trkpt><trkpt lat="44.46714132446308" lon="9.920349910246667"><ele>1011.0</ele><time>2026-04-11T14:50:48.999Z</time></trkpt><trkpt lat="44.46739598189031" lon="9.920387631945912"><ele>1011.0</ele><time>2026-04-11T14:50:49.999Z</time></trkpt><trkpt lat="44.46765714739179" lon="9.920487769583735"><ele>1011.0</ele><time>2026-04-11T14:50:50.999Z</time></trkpt><trkpt lat="44.46772530587004" lon="9.920568422261272"><ele>1011.0</ele><time>2026-04-11T14:50:51.999Z</time></trkpt><trkpt lat="44.467873120793705" lon="9.920729426543502"><ele>1013.0</ele><time>2026-04-11T14:50:52.999Z</time></trkpt><trkpt lat="44.46804259061044" lon="9.920928763414882"><ele>1015.0</ele><time>2026-04-11T14:50:53.999Z</time></trkpt><trkpt lat="44.468236470903946" lon="9.92110345602227"><ele>1015.0</ele><time>2026-04-11T14:50:54.999Z</time></trkpt><trkpt lat="44.468403317429136" lon="9.921331237440588"><ele>1015.0</ele><time>2026-04-11T14:50:55.999Z</time></trkpt><trkpt lat="44.46854901708259" lon="9.92159123643731"><ele>1017.0</ele><time>2026-04-11T14:50:56.999Z</time></trkpt><trkpt lat="44.46867214524495" lon="9.921875075187994"><ele>1019.0</ele><time>2026-04-11T14:50:57.999Z</time></trkpt><trkpt lat="44.46879757906305" lon="9.92214058875654"><ele>1019.0</ele><time>2026-04-11T14:50:58.999Z</time></trkpt><trkpt lat="44.468911932063286" lon="9.92237252184995"><ele>1019.0</ele><time>2026-04-11T14:50:59.999Z</time></trkpt><trkpt lat="44.46900976599919" lon="9.922555801569375"><ele>1019.0</ele><time>2026-04-11T14:51:00.999Z</time></trkpt><trkpt lat="44.46910617268269" lon="9.92266862484743"><ele>1019.0</ele><time>2026-04-11T14:51:01.999Z</time></trkpt><trkpt lat="44.46922283769269" lon="9.922704280239328"><ele>1019.0</ele><time>2026-04-11T14:51:02.999Z</time></trkpt><trkpt lat="44.46936516660569" lon="9.922657639879997"><ele>1019.0</ele><time>2026-04-11T14:51:03.999Z</time></trkpt><trkpt lat="44.469488339418675" lon="9.9224955356891"><ele>1019.0</ele><time>2026-04-11T14:51:04.999Z</time></trkpt><trkpt lat="44.46953810679508" lon="9.922263606499847"><ele>1019.0</ele><time>2026-04-11T14:51:05.999Z</time></trkpt><trkpt lat="44.469562120571105" lon="9.921999992612557"><ele>1019.0</ele><time>2026-04-11T14:51:06.999Z</time></trkpt><trkpt lat="44.46963228865026" lon="9.92173885803097"><ele>1019.0</ele><time>2026-04-11T14:51:07.999Z</time></trkpt><trkpt lat="44.46973880480613" lon="9.921482228445381"><ele>1018.3333333333334</ele><time>2026-04-11T14:51:08.999Z</time></trkpt><trkpt lat="44.46983793337153" lon="9.921222960411729"><ele>1017.6666666666667</ele><time>2026-04-11T14:51:09.999Z</time></trkpt><trkpt lat="44.469928573096425" lon="9.92097498285462"><ele>1017.0</ele><time>2026-04-11T14:51:10.999Z</time></trkpt><trkpt lat="44.47000664967152" lon="9.920758951898948"><ele>1020.2</ele><time>2026-04-11T14:51:11.999Z</time></trkpt><trkpt lat="44.47007104073272" lon="9.920605622751262"><ele>1023.4000000000001</ele><time>2026-04-11T14:51:12.999Z</time></trkpt><trkpt lat="44.470152517630325" lon="9.92052779499067"><ele>1026.6</ele><time>2026-04-11T14:51:13.999Z</time></trkpt><trkpt lat="44.47024255596055" lon="9.920541297760453"><ele>1029.8</ele><time>2026-04-11T14:51:14.999Z</time></trkpt><trkpt lat="44.47032276762336" lon="9.920626033357008"><ele>1033.0</ele><time>2026-04-11T14:51:15.999Z</time></trkpt><trkpt lat="44.47042627198928" lon="9.920735387697801"><ele>1034.3333333333333</ele><time>2026-04-11T14:51:16.999Z</time></trkpt><trkpt lat="44.470558515702784" lon="9.920897537340071"><ele>1035.6666666666667</ele><time>2026-04-11T14:51:17.999Z</time></trkpt><trkpt lat="44.47070206557332" lon="9.92109928892303"><ele>1037.0</ele><time>2026-04-11T14:51:18.999Z</time></trkpt><trkpt lat="44.47084496000975" lon="9.92130214664105"><ele>1033.8</ele><time>2026-04-11T14:51:19.999Z</time></trkpt><trkpt lat="44.470981335101634" lon="9.92146065427074"><ele>1030.6</ele><time>2026-04-11T14:51:20.999Z</time></trkpt><trkpt lat="44.47104730890454" lon="9.92155880064923"><ele>1027.3999999999999</ele><time>2026-04-11T14:51:21.999Z</time></trkpt><trkpt lat="44.47109853447322" lon="9.921638269549135"><ele>1024.2</ele><time>2026-04-11T14:51:24.999Z</time></trkpt><trkpt lat="44.47114164893769" lon="9.921703593216778"><ele>1021.0</ele><time>2026-04-11T14:51:28.999Z</time></trkpt><trkpt lat="44.47121238603381" lon="9.921797418394233"><ele>1017.8</ele><time>2026-04-11T14:52:11Z</time></trkpt><trkpt lat="44.471259228519415" lon="9.92195502610668"><ele>1014.5999999999999</ele><time>2026-04-11T14:52:13Z</time></trkpt><trkpt lat="44.47126455623024" lon="9.922081929663083"><ele>1011.4</ele><time>2026-04-11T14:52:14Z</time></trkpt><trkpt lat="44.47125423338291" lon="9.922223592221487"><ele>1008.2</ele><time>2026-04-11T14:52:15Z</time></trkpt><trkpt lat="44.47123547000552" lon="9.922365953847747"><ele>1005.0</ele><time>2026-04-11T14:52:16Z</time></trkpt><trkpt lat="44.471226410170125" lon="9.922547645786288"><ele>1002.3333333333333</ele><time>2026-04-11T14:52:17Z</time></trkpt><trkpt lat="44.47125561100739" lon="9.922763078738376"><ele>999.6666666666666</ele><time>2026-04-11T14:52:18Z</time></trkpt><trkpt lat="44.47133903256556" lon="9.922987479446473"><ele>997.0</ele><time>2026-04-11T14:52:19Z</time></trkpt><trkpt lat="44.47146489981343" lon="9.92320030698606"><ele>1007.6666666666666</ele><time>2026-04-11T14:52:20Z</time></trkpt><trkpt lat="44.47157624959365" lon="9.923421940036572"><ele>1018.3333333333333</ele><time>2026-04-11T14:52:21Z</time></trkpt><trkpt lat="44.47163800339658" lon="9.923621565652757"><ele>1029.0</ele><time>2026-04-11T14:52:22Z</time></trkpt><trkpt lat="44.47173169667899" lon="9.923840305291382"><ele>1029.0</ele><time>2026-04-11T14:52:23Z</time></trkpt><trkpt lat="44.47177654579067" lon="9.924020392884863"><ele>1029.0</ele><time>2026-04-11T14:52:24Z</time></trkpt><trkpt lat="44.47180280281791" lon="9.924183785459013"><ele>1029.0</ele><time>2026-04-11T14:52:25Z</time></trkpt><trkpt lat="44.4717958393209" lon="9.924362647736503"><ele>1029.0</ele><time>2026-04-11T14:52:26Z</time></trkpt><trkpt lat="44.4717697082222" lon="9.924586881234404"><ele>1031.6666666666667</ele><time>2026-04-11T14:52:27Z</time></trkpt><trkpt lat="44.47168643987945" lon="9.924830063595298"><ele>1034.3333333333335</ele><time>2026-04-11T14:52:28Z</time></trkpt><trkpt lat="44.47158941433131" lon="9.925071337183219"><ele>1037.0</ele><time>2026-04-11T14:52:29Z</time></trkpt><trkpt lat="44.47149296346538" lon="9.925329998136764"><ele>1041.0</ele><time>2026-04-11T14:52:30Z</time></trkpt><trkpt lat="44.47139351756637" lon="9.925591159354006"><ele>1045.0</ele><time>2026-04-11T14:52:31Z</time></trkpt><trkpt lat="44.47131142864182" lon="9.925883083649875"><ele>1049.0</ele><time>2026-04-11T14:52:32Z</time></trkpt><trkpt lat="44.47127948303418" lon="9.92614704114076"><ele>1047.3333333333335</ele><time>2026-04-11T14:52:33Z</time></trkpt><trkpt lat="44.47126963234055" lon="9.926450473112583"><ele>1045.6666666666667</ele><time>2026-04-11T14:52:34Z</time></trkpt><trkpt lat="44.471308135920495" lon="9.926743357871505"><ele>1044.0</ele><time>2026-04-11T14:52:35Z</time></trkpt><trkpt lat="44.47135086555042" lon="9.926997980579133"><ele>1044.0</ele><time>2026-04-11T14:52:36Z</time></trkpt><trkpt lat="44.471336935362245" lon="9.927210396422293"><ele>1044.0</ele><time>2026-04-11T14:52:37Z</time></trkpt><trkpt lat="44.47132897232617" lon="9.927419931788947"><ele>1044.0</ele><time>2026-04-11T14:52:38Z</time></trkpt><trkpt lat="44.47129747255584" lon="9.927615041805344"><ele>1044.0</ele><time>2026-04-11T14:52:39Z</time></trkpt><trkpt lat="44.47129719806011" lon="9.927792259015645"><ele>1042.5</ele><time>2026-04-11T14:52:40Z</time></trkpt><trkpt lat="44.47132410350561" lon="9.927952392762595"><ele>1041.0</ele><time>2026-04-11T14:52:41Z</time></trkpt><trkpt lat="44.47137492259114" lon="9.92809583007779"><ele>1039.5</ele><time>2026-04-11T14:52:42Z</time></trkpt><trkpt lat="44.47143673094566" lon="9.928233062918965"><ele>1038.0</ele><time>2026-04-11T14:52:43Z</time></trkpt><trkpt lat="44.47149037135843" lon="9.928358810517425"><ele>1038.6666666666667</ele><time>2026-04-11T14:52:44Z</time></trkpt><trkpt lat="44.471544359709966" lon="9.928469894481154"><ele>1039.3333333333333</ele><time>2026-04-11T14:52:45Z</time></trkpt><trkpt lat="44.47159210829064" lon="9.928572778365899"><ele>1040.0</ele><time>2026-04-11T14:52:46Z</time></trkpt><trkpt lat="44.47163813175769" lon="9.928672780022092"><ele>1040.6666666666665</ele><time>2026-04-11T14:52:47Z</time></trkpt><trkpt lat="44.47168347094482" lon="9.928772211077323"><ele>1041.3333333333333</ele><time>2026-04-11T14:52:48Z</time></trkpt><trkpt lat="44.4717248089325" lon="9.92887456050135"><ele>1042.0</ele><time>2026-04-11T14:52:49Z</time></trkpt><trkpt lat="44.47176747764106" lon="9.928968904437896"><ele>1042.0</ele><time>2026-04-11T14:52:50Z</time></trkpt><trkpt lat="44.47180712311585" lon="9.929059346105324"><ele>1042.0</ele><time>2026-04-11T14:52:50.999Z</time></trkpt><trkpt lat="44.47184335979498" lon="9.929141944948856"><ele>1042.0</ele><time>2026-04-11T14:52:51.999Z</time></trkpt><trkpt lat="44.47187413539421" lon="9.929231923238104"><ele>1042.0</ele><time>2026-04-11T14:52:52.999Z</time></trkpt><trkpt lat="44.471911696648135" lon="9.929337377723288"><ele>1042.0</ele><time>2026-04-11T14:52:53.999Z</time></trkpt><trkpt lat="44.47195622941299" lon="9.929451758454393"><ele>1042.0</ele><time>2026-04-11T14:52:54.999Z</time></trkpt><trkpt lat="44.47200913061709" lon="9.929570460332863"><ele>1039.75</ele><time>2026-04-11T14:52:55.999Z</time></trkpt><trkpt lat="44.47206485049338" lon="9.929700616799925"><ele>1037.5</ele><time>2026-04-11T14:52:56.999Z</time></trkpt><trkpt lat="44.47211857272972" lon="9.929846121336979"><ele>1035.25</ele><time>2026-04-11T14:52:57.999Z</time></trkpt><trkpt lat="44.47217539801882" lon="9.929991150468782"><ele>1033.0</ele><time>2026-04-11T14:52:58.999Z</time></trkpt><trkpt lat="44.47223710696374" lon="9.930145461088975"><ele>1033.0</ele><time>2026-04-11T14:52:59.999Z</time></trkpt><trkpt lat="44.47230450214648" lon="9.930303469807043"><ele>1033.0</ele><time>2026-04-11T14:53:00.999Z</time></trkpt><trkpt lat="44.47237247342" lon="9.930461784449381"><ele>1033.0</ele><time>2026-04-11T14:53:01.999Z</time></trkpt><trkpt lat="44.47242619376489" lon="9.930632816771595"><ele>1033.0</ele><time>2026-04-11T14:53:02.999Z</time></trkpt><trkpt lat="44.47246509449705" lon="9.930806754550678"><ele>1031.25</ele><time>2026-04-11T14:53:03.999Z</time></trkpt><trkpt lat="44.47248058705142" lon="9.930990781556275"><ele>1029.5</ele><time>2026-04-11T14:53:04.999Z</time></trkpt><trkpt lat="44.472479506265294" lon="9.931181306882984"><ele>1027.75</ele><time>2026-04-11T14:53:05.999Z</time></trkpt><trkpt lat="44.472469551988624" lon="9.93136311509643"><ele>1026.0</ele><time>2026-04-11T14:53:06.999Z</time></trkpt><trkpt lat="44.47244701815085" lon="9.931541817281289"><ele>1026.0</ele><time>2026-04-11T14:53:07.999Z</time></trkpt><trkpt lat="44.472406404860564" lon="9.9317203898686"><ele>1026.0</ele><time>2026-04-11T14:53:08.999Z</time></trkpt><trkpt lat="44.472358881334415" lon="9.931889282417588"><ele>1026.0</ele><time>2026-04-11T14:53:09.999Z</time></trkpt><trkpt lat="44.472314912992736" lon="9.932043612874624"><ele>1026.0</ele><time>2026-04-11T14:53:10.999Z</time></trkpt><trkpt lat="44.4722789494657" lon="9.932213708289005"><ele>1023.5</ele><time>2026-04-11T14:53:11.999Z</time></trkpt><trkpt lat="44.472242572059564" lon="9.93238202541313"><ele>1021.0</ele><time>2026-04-11T14:53:12.999Z</time></trkpt><trkpt lat="44.4722072529961" lon="9.932541507951191"><ele>1018.5</ele><time>2026-04-11T14:53:13.999Z</time></trkpt><trkpt lat="44.472166905287004" lon="9.932697698943944"><ele>1016.0</ele><time>2026-04-11T14:53:14.999Z</time></trkpt><trkpt lat="44.4721247874222" lon="9.932851090092639"><ele>1019.0</ele><time>2026-04-11T14:53:15.999Z</time></trkpt><trkpt lat="44.47206738532443" lon="9.933023295302108"><ele>1022.0</ele><time>2026-04-11T14:53:16.999Z</time></trkpt><trkpt lat="44.47198845701706" lon="9.933206440251734"><ele>1025.0</ele><time>2026-04-11T14:53:17.999Z</time></trkpt><trkpt lat="44.47189073635178" lon="9.933401898577912"><ele>1025.0</ele><time>2026-04-11T14:53:18.999Z</time></trkpt><trkpt lat="44.4717923090523" lon="9.933610113566774"><ele>1025.0</ele><time>2026-04-11T14:53:19.999Z</time></trkpt><trkpt lat="44.47170010597065" lon="9.933810799298334"><ele>1025.0</ele><time>2026-04-11T14:53:20.999Z</time></trkpt><trkpt lat="44.47161604076377" lon="9.93400055660511"><ele>1025.0</ele><time>2026-04-11T14:53:21.999Z</time></trkpt><trkpt lat="44.47152601323929" lon="9.934199018193878"><ele>1025.0</ele><time>2026-04-11T14:53:22.999Z</time></trkpt><trkpt lat="44.47145598551018" lon="9.934413632283428"><ele>1025.0</ele><time>2026-04-11T14:53:23.999Z</time></trkpt><trkpt lat="44.47141566184071" lon="9.93463302100392"><ele>1026.0</ele><time>2026-04-11T14:53:24.999Z</time></trkpt><trkpt lat="44.47140983401115" lon="9.934829299322956"><ele>1027.0</ele><time>2026-04-11T14:53:25.999Z</time></trkpt><trkpt lat="44.47140260260222" lon="9.934969068434489"><ele>1028.0</ele><time>2026-04-11T14:53:26.999Z</time></trkpt><trkpt lat="44.47142774548856" lon="9.935082325886574"><ele>1029.0</ele><time>2026-04-11T14:53:27.999Z</time></trkpt><trkpt lat="44.47148841094307" lon="9.935172259061709"><ele>1030.0</ele><time>2026-04-11T14:53:28.999Z</time></trkpt><trkpt lat="44.4715793046916" lon="9.935214163835418"><ele>1030.0</ele><time>2026-04-11T14:53:29.999Z</time></trkpt><trkpt lat="44.47167860112902" lon="9.93520883226584"><ele>1030.0</ele><time>2026-04-11T14:53:30.999Z</time></trkpt><trkpt lat="44.47179053658663" lon="9.935175480510823"><ele>1030.0</ele><time>2026-04-11T14:53:31.999Z</time></trkpt><trkpt lat="44.47191554328032" lon="9.935171234591296"><ele>1030.0</ele><time>2026-04-11T14:53:32.999Z</time></trkpt><trkpt lat="44.4720506361133" lon="9.935236047859405"><ele>1027.0</ele><time>2026-04-11T14:53:33.999Z</time></trkpt><trkpt lat="44.47216514180452" lon="9.93540707002273"><ele>1024.0</ele><time>2026-04-11T14:53:34.999Z</time></trkpt><trkpt lat="44.47230801403339" lon="9.93557243827706"><ele>1021.0</ele><time>2026-04-11T14:53:35.999Z</time></trkpt><trkpt lat="44.47245474740001" lon="9.93575408772328"><ele>1023.6666666666666</ele><time>2026-04-11T14:53:36.999Z</time></trkpt><trkpt lat="44.47259874450729" lon="9.935905807922781"><ele>1026.3333333333333</ele><time>2026-04-11T14:53:37.999Z</time></trkpt><trkpt lat="44.47271163125725" lon="9.936064796810268"><ele>1029.0</ele><time>2026-04-11T14:53:38.999Z</time></trkpt><trkpt lat="44.4727972767007" lon="9.93622702300281"><ele>1029.0</ele><time>2026-04-11T14:53:39.999Z</time></trkpt><trkpt lat="44.47283176108481" lon="9.93644844220742"><ele>1029.0</ele><time>2026-04-11T14:53:40.999Z</time></trkpt><trkpt lat="44.47280901212288" lon="9.936687803293479"><ele>1029.0</ele><time>2026-04-11T14:53:41.999Z</time></trkpt><trkpt lat="44.4727332573806" lon="9.936941773188455"><ele>1028.3333333333333</ele><time>2026-04-11T14:53:42.999Z</time></trkpt><trkpt lat="44.47266381608012" lon="9.937223394581192"><ele>1027.6666666666665</ele><time>2026-04-11T14:53:43.999Z</time></trkpt><trkpt lat="44.47262925763531" lon="9.93750888769058"><ele>1027.0</ele><time>2026-04-11T14:53:44.999Z</time></trkpt><trkpt lat="44.47261311737153" lon="9.937799478793616"><ele>1025.6666666666665</ele><time>2026-04-11T14:53:45.999Z</time></trkpt><trkpt lat="44.47259258256137" lon="9.938075096195552"><ele>1024.3333333333333</ele><time>2026-04-11T14:53:46.999Z</time></trkpt><trkpt lat="44.47256972143245" lon="9.938322993464709"><ele>1023.0</ele><time>2026-04-11T14:53:48Z</time></trkpt><trkpt lat="44.47253391550695" lon="9.938561615304273"><ele>1021.75</ele><time>2026-04-11T14:53:49Z</time></trkpt><trkpt lat="44.472431469230244" lon="9.938748966613913"><ele>1020.5</ele><time>2026-04-11T14:53:50Z</time></trkpt><trkpt lat="44.47230955164957" lon="9.938865672032875"><ele>1019.25</ele><time>2026-04-11T14:53:51Z</time></trkpt><trkpt lat="44.47221504089318" lon="9.938981138884822"><ele>1018.0</ele><time>2026-04-11T14:53:52Z</time></trkpt><trkpt lat="44.472147646666976" lon="9.939078916041124"><ele>1019.0</ele><time>2026-04-11T14:53:53Z</time></trkpt><trkpt lat="44.472124625237" lon="9.939218950535592"><ele>1020.0</ele><time>2026-04-11T14:53:54Z</time></trkpt><trkpt lat="44.47215532801771" lon="9.939389149349694"><ele>1021.0</ele><time>2026-04-11T14:53:55Z</time></trkpt><trkpt lat="44.472219325520484" lon="9.939579725458394"><ele>1022.0</ele><time>2026-04-11T14:53:56Z</time></trkpt><trkpt lat="44.47226383275296" lon="9.939802771940423"><ele>1022.0</ele><time>2026-04-11T14:53:57Z</time></trkpt><trkpt lat="44.47231763024027" lon="9.93999910424689"><ele>1022.0</ele><time>2026-04-11T14:53:58Z</time></trkpt><trkpt lat="44.47241059614629" lon="9.94013149696952"><ele>1022.0</ele><time>2026-04-11T14:53:59Z</time></trkpt><trkpt lat="44.47256139974148" lon="9.940178502912788"><ele>1022.0</ele><time>2026-04-11T14:54:00Z</time></trkpt><trkpt lat="44.472761326259274" lon="9.940204818335413"><ele>1024.6666666666667</ele><time>2026-04-11T14:54:01Z</time></trkpt><trkpt lat="44.47295809444177" lon="9.940222054644723"><ele>1027.3333333333333</ele><time>2026-04-11T14:54:02Z</time></trkpt><trkpt lat="44.47315717232186" lon="9.940230280867738"><ele>1030.0</ele><time>2026-04-11T14:54:03Z</time></trkpt><trkpt lat="44.47332880152745" lon="9.940281353117648"><ele>1030.0</ele><time>2026-04-11T14:54:04Z</time></trkpt><trkpt lat="44.4734709063519" lon="9.94036408066762"><ele>1030.0</ele><time>2026-04-11T14:54:05Z</time></trkpt><trkpt lat="44.47357689035047" lon="9.940543407794445"><ele>1030.0</ele><time>2026-04-11T14:54:06Z</time></trkpt><trkpt lat="44.47369928274699" lon="9.9407780749574"><ele>1023.6666666666666</ele><time>2026-04-11T14:54:07Z</time></trkpt><trkpt lat="44.47381929178524" lon="9.941009576673185"><ele>1017.3333333333333</ele><time>2026-04-11T14:54:08Z</time></trkpt><trkpt lat="44.47392966456834" lon="9.941190704515375"><ele>1011.0</ele><time>2026-04-11T14:54:09Z</time></trkpt><trkpt lat="44.4740583179863" lon="9.941306538956619"><ele>1011.0</ele><time>2026-04-11T14:54:10Z</time></trkpt><trkpt lat="44.47419519657838" lon="9.941371815974396"><ele>1010.9999999999999</ele><time>2026-04-11T14:54:11Z</time></trkpt><trkpt lat="44.474286669235475" lon="9.941431761755851"><ele>1010.9999999999999</ele><time>2026-04-11T14:54:12Z</time></trkpt><trkpt lat="44.47432025127519" lon="9.94155081174236"><ele>1011.0</ele><time>2026-04-11T14:54:13Z</time></trkpt><trkpt lat="44.4743074846798" lon="9.941661287476803"><ele>1011.0</ele><time>2026-04-11T14:54:14Z</time></trkpt><trkpt lat="44.474118157154074" lon="9.941818857890445"><ele>1007.0</ele><time>2026-04-11T14:54:15Z</time></trkpt><trkpt lat="44.473963227979596" lon="9.941978688498025"><ele>1003.0</ele><time>2026-04-11T14:54:16Z</time></trkpt><trkpt lat="44.47383171968237" lon="9.942117820479277"><ele>999.0</ele><time>2026-04-11T14:54:17Z</time></trkpt><trkpt lat="44.473703812565816" lon="9.942289103366814"><ele>1009.5</ele><time>2026-04-11T14:54:18Z</time></trkpt><trkpt lat="44.473555700577336" lon="9.942543292994676"><ele>1020.0</ele><time>2026-04-11T14:54:19Z</time></trkpt><trkpt lat="44.47348003323048" lon="9.942843007694366"><ele>1020.0</ele><time>2026-04-11T14:54:20Z</time></trkpt><trkpt lat="44.47348500430374" lon="9.943088982519342"><ele>1020.0</ele><time>2026-04-11T14:54:21Z</time></trkpt><trkpt lat="44.4734985961243" lon="9.9433545589522"><ele>1020.0</ele><time>2026-04-11T14:54:22Z</time></trkpt><trkpt lat="44.47358974116134" lon="9.94360008716344"><ele>1019.0</ele><time>2026-04-11T14:54:23Z</time></trkpt><trkpt lat="44.473725912478045" lon="9.94384394226079"><ele>1018.0</ele><time>2026-04-11T14:54:24Z</time></trkpt><trkpt lat="44.47385207556841" lon="9.94411224005622"><ele>1012.0</ele><time>2026-04-11T14:54:25Z</time></trkpt><trkpt lat="44.473978981581375" lon="9.944401011152285"><ele>1006.0</ele><time>2026-04-11T14:54:26Z</time></trkpt><trkpt lat="44.47409410278383" lon="9.944704557741638"><ele>1006.0</ele><time>2026-04-11T14:54:27Z</time></trkpt><trkpt lat="44.47416477414546" lon="9.945041437207994"><ele>1006.0</ele><time>2026-04-11T14:54:28Z</time></trkpt><trkpt lat="44.47421787876486" lon="9.945355765980612"><ele>1007.0</ele><time>2026-04-11T14:54:29Z</time></trkpt><trkpt lat="44.47426773367425" lon="9.945649436067033"><ele>1008.0</ele><time>2026-04-11T14:54:30Z</time></trkpt><trkpt lat="44.47432496023882" lon="9.945911987533314"><ele>1009.0</ele><time>2026-04-11T14:54:31Z</time></trkpt><trkpt lat="44.47436242981094" lon="9.946117833808328"><ele>1007.3333333333333</ele><time>2026-04-11T14:54:32Z</time></trkpt><trkpt lat="44.474414366688684" lon="9.946274600345662"><ele>1005.6666666666667</ele><time>2026-04-11T14:54:33Z</time></trkpt><trkpt lat="44.47453285320651" lon="9.946385592526395"><ele>1004.0</ele><time>2026-04-11T14:54:34Z</time></trkpt><trkpt lat="44.474725670332596" lon="9.94644111584168"><ele>1004.0</ele><time>2026-04-11T14:54:35Z</time></trkpt><trkpt lat="44.4749472722563" lon="9.94650435285361"><ele>1004.0</ele><time>2026-04-11T14:54:36Z</time></trkpt><trkpt lat="44.475164754229546" lon="9.946551888251431"><ele>1004.0</ele><time>2026-04-11T14:54:37Z</time></trkpt><trkpt lat="44.475394050618604" lon="9.946561444145697"><ele>1006.0</ele><time>2026-04-11T14:54:38Z</time></trkpt><trkpt lat="44.475615505652016" lon="9.946576084033698"><ele>1008.0</ele><time>2026-04-11T14:54:39Z</time></trkpt><trkpt lat="44.47581309783422" lon="9.946702833855921"><ele>1010.0</ele><time>2026-04-11T14:54:40Z</time></trkpt><trkpt lat="44.476028874892656" lon="9.946828490423957"><ele>1010.0</ele><time>2026-04-11T14:54:41Z</time></trkpt><trkpt lat="44.47622671264851" lon="9.94694297308755"><ele>1010.0</ele><time>2026-04-11T14:54:42Z</time></trkpt><trkpt lat="44.476395195928895" lon="9.947046489113653"><ele>1010.0</ele><time>2026-04-11T14:54:43Z</time></trkpt><trkpt lat="44.476514768593994" lon="9.947177935306057"><ele>1008.6666666666667</ele><time>2026-04-11T14:54:44Z</time></trkpt><trkpt lat="44.476595659877475" lon="9.947367879598973"><ele>1007.3333333333333</ele><time>2026-04-11T14:54:45Z</time></trkpt><trkpt lat="44.47670017079275" lon="9.947623697761069"><ele>1006.0</ele><time>2026-04-11T14:54:46Z</time></trkpt><trkpt lat="44.47683410423993" lon="9.947853272258314"><ele>1006.0</ele><time>2026-04-11T14:54:47Z</time></trkpt><trkpt lat="44.47697538459826" lon="9.948051296730569"><ele>1006.0</ele><time>2026-04-11T14:54:48Z</time></trkpt><trkpt lat="44.47715392449432" lon="9.948190730086006"><ele>1006.0</ele><time>2026-04-11T14:54:49Z</time></trkpt><trkpt lat="44.47734350292391" lon="9.948271392600214"><ele>1003.25</ele><time>2026-04-11T14:54:50Z</time></trkpt><trkpt lat="44.477506713614744" lon="9.948325929024328"><ele>1000.5</ele><time>2026-04-11T14:54:51Z</time></trkpt><trkpt lat="44.477601985599975" lon="9.948461523560347"><ele>997.75</ele><time>2026-04-11T14:54:52Z</time></trkpt><trkpt lat="44.477637603841345" lon="9.948635154774898"><ele>995.0</ele><time>2026-04-11T14:54:53Z</time></trkpt><trkpt lat="44.47766784781802" lon="9.948771029620787"><ele>995.0</ele><time>2026-04-11T14:54:54Z</time></trkpt><trkpt lat="44.47769931955024" lon="9.948957143189592"><ele>995.0</ele><time>2026-04-11T14:54:55Z</time></trkpt><trkpt lat="44.477699673428965" lon="9.949205911731035"><ele>995.0</ele><time>2026-04-11T14:54:55.999Z</time></trkpt><trkpt lat="44.477689054122166" lon="9.949486685271241"><ele>996.6666666666667</ele><time>2026-04-11T14:54:56.999Z</time></trkpt><trkpt lat="44.477721533698215" lon="9.949699407129774"><ele>998.3333333333333</ele><time>2026-04-11T14:54:57.999Z</time></trkpt><trkpt lat="44.47775958411071" lon="9.94988111237802"><ele>1000.0</ele><time>2026-04-11T14:54:58.999Z</time></trkpt><trkpt lat="44.47788660735998" lon="9.95003686629116"><ele>1001.0</ele><time>2026-04-11T14:54:59.999Z</time></trkpt><trkpt lat="44.478074817586474" lon="9.950144262851273"><ele>1002.0</ele><time>2026-04-11T14:55:00.999Z</time></trkpt><trkpt lat="44.47828184241003" lon="9.950219586736345"><ele>1003.0</ele><time>2026-04-11T14:55:01.999Z</time></trkpt><trkpt lat="44.47849736876776" lon="9.950183199196383"><ele>1003.0</ele><time>2026-04-11T14:55:02.999Z</time></trkpt><trkpt lat="44.47873387760886" lon="9.950102038146595"><ele>1003.0</ele><time>2026-04-11T14:55:03.999Z</time></trkpt><trkpt lat="44.4789459164726" lon="9.950051324252913"><ele>996.6666666666666</ele><time>2026-04-11T14:55:04.999Z</time></trkpt><trkpt lat="44.47913256455491" lon="9.950008254425818"><ele>990.3333333333333</ele><time>2026-04-11T14:55:05.999Z</time></trkpt><trkpt lat="44.47931113746256" lon="9.949973478101237"><ele>984.0</ele><time>2026-04-11T14:55:06.999Z</time></trkpt><trkpt lat="44.47947559333889" lon="9.949946731677105"><ele>984.0</ele><time>2026-04-11T14:55:07.999Z</time></trkpt><trkpt lat="44.47963041018185" lon="9.949922735466115"><ele>984.0</ele><time>2026-04-11T14:55:08.999Z</time></trkpt><trkpt lat="44.479783428241056" lon="9.949896339065823"><ele>984.0</ele><time>2026-04-11T14:55:09.999Z</time></trkpt><trkpt lat="44.479952515274746" lon="9.949872222588924"><ele>984.0</ele><time>2026-04-11T14:55:10.999Z</time></trkpt><trkpt lat="44.4801381846159" lon="9.949847920643105"><ele>984.0</ele><time>2026-04-11T14:55:11.999Z</time></trkpt><trkpt lat="44.4803197811644" lon="9.949810714831067"><ele>984.0</ele><time>2026-04-11T14:55:12.999Z</time></trkpt><trkpt lat="44.48048957526069" lon="9.94978569939322"><ele>984.3333333333333</ele><time>2026-04-11T14:55:13.999Z</time></trkpt><trkpt lat="44.48064543703174" lon="9.949745863283683"><ele>984.6666666666666</ele><time>2026-04-11T14:55:14.999Z</time></trkpt><trkpt lat="44.48078290821396" lon="9.949614217556798"><ele>985.0</ele><time>2026-04-11T14:55:15.999Z</time></trkpt><trkpt lat="44.48090124060065" lon="9.94938819017418"><ele>981.3333333333333</ele><time>2026-04-11T14:55:16.999Z</time></trkpt><trkpt lat="44.48103279617862" lon="9.949148028499"><ele>977.6666666666667</ele><time>2026-04-11T14:55:17.999Z</time></trkpt><trkpt lat="44.481186777124904" lon="9.948924341713804"><ele>974.0</ele><time>2026-04-11T14:55:18.999Z</time></trkpt><trkpt lat="44.48134463656028" lon="9.948702911689923"><ele>974.0</ele><time>2026-04-11T14:55:19.999Z</time></trkpt><trkpt lat="44.48146663614231" lon="9.948527037941378"><ele>974.0</ele><time>2026-04-11T14:55:20.999Z</time></trkpt><trkpt lat="44.48154234071569" lon="9.948452916141632"><ele>974.0</ele><time>2026-04-11T14:55:21.999Z</time></trkpt><trkpt lat="44.4816206720778" lon="9.948439398367169"><ele>974.0</ele><time>2026-04-11T14:55:22.999Z</time></trkpt><trkpt lat="44.48171704281105" lon="9.94850363958819"><ele>974.0</ele><time>2026-04-11T14:55:23.999Z</time></trkpt><trkpt lat="44.48180102623809" lon="9.948656901724403"><ele>974.0</ele><time>2026-04-11T14:55:24.999Z</time></trkpt><trkpt lat="44.48182313061966" lon="9.94888796055595"><ele>974.0</ele><time>2026-04-11T14:55:25.999Z</time></trkpt><trkpt lat="44.48189994855481" lon="9.949098269978636"><ele>973.3333333333334</ele><time>2026-04-11T14:55:26.999Z</time></trkpt><trkpt lat="44.48200751502888" lon="9.94926355585588"><ele>972.6666666666667</ele><time>2026-04-11T14:55:27.999Z</time></trkpt><trkpt lat="44.482169273844534" lon="9.949407200138104"><ele>972.0</ele><time>2026-04-11T14:55:28.999Z</time></trkpt><trkpt lat="44.48234690640949" lon="9.949547629062216"><ele>972.0</ele><time>2026-04-11T14:55:29.999Z</time></trkpt><trkpt lat="44.48251696628332" lon="9.949703250874608"><ele>972.0</ele><time>2026-04-11T14:55:30.999Z</time></trkpt><trkpt lat="44.482674441436146" lon="9.949858433191205"><ele>972.0</ele><time>2026-04-11T14:55:31.999Z</time></trkpt><trkpt lat="44.48282656602443" lon="9.949989298266388"><ele>973.6666666666667</ele><time>2026-04-11T14:55:32.999Z</time></trkpt><trkpt lat="44.482980543027416" lon="9.9500508012269"><ele>975.3333333333334</ele><time>2026-04-11T14:55:33.999Z</time></trkpt><trkpt lat="44.483165844518744" lon="9.95001378959683"><ele>977.0</ele><time>2026-04-11T14:55:34.999Z</time></trkpt><trkpt lat="44.483353731987464" lon="9.949955862410937"><ele>977.0</ele><time>2026-04-11T14:55:35.999Z</time></trkpt><trkpt lat="44.48353420279302" lon="9.950006777068209"><ele>977.0</ele><time>2026-04-11T14:55:36.999Z</time></trkpt><trkpt lat="44.483713892940074" lon="9.950126128924852"><ele>977.0</ele><time>2026-04-11T14:55:37.999Z</time></trkpt><trkpt lat="44.48387421085834" lon="9.950302334225599"><ele>970.3333333333334</ele><time>2026-04-11T14:55:38.999Z</time></trkpt><trkpt lat="44.483987388491144" lon="9.950511044436109"><ele>963.6666666666667</ele><time>2026-04-11T14:55:39.999Z</time></trkpt><trkpt lat="44.48407209534061" lon="9.950761145265545"><ele>957.0</ele><time>2026-04-11T14:55:40.999Z</time></trkpt><trkpt lat="44.48414296067473" lon="9.95106558998666"><ele>957.0</ele><time>2026-04-11T14:55:41.999Z</time></trkpt><trkpt lat="44.484211931021946" lon="9.951359127361545"><ele>957.0</ele><time>2026-04-11T14:55:42.999Z</time></trkpt><trkpt lat="44.48427055030252" lon="9.951640165379452"><ele>957.0</ele><time>2026-04-11T14:55:43.999Z</time></trkpt><trkpt lat="44.484346655979365" lon="9.951904713236148"><ele>959.3333333333333</ele><time>2026-04-11T14:55:44.999Z</time></trkpt><trkpt lat="44.484469959602244" lon="9.95215453442632"><ele>961.6666666666666</ele><time>2026-04-11T14:55:45.999Z</time></trkpt><trkpt lat="44.48462879754791" lon="9.952391247037001"><ele>964.0</ele><time>2026-04-11T14:55:46.999Z</time></trkpt><trkpt lat="44.48475670581196" lon="9.952667343388045"><ele>954.6666666666666</ele><time>2026-04-11T14:55:47.999Z</time></trkpt><trkpt lat="44.484858379334156" lon="9.95295918780788"><ele>945.3333333333333</ele><time>2026-04-11T14:55:48.999Z</time></trkpt><trkpt lat="44.4849478703702" lon="9.953237295816267"><ele>936.0</ele><time>2026-04-11T14:55:49.999Z</time></trkpt><trkpt lat="44.48499542837938" lon="9.9535267105291"><ele>935.6666666666667</ele><time>2026-04-11T14:55:50.999Z</time></trkpt><trkpt lat="44.48501281554604" lon="9.953831828820627"><ele>935.3333333333334</ele><time>2026-04-11T14:55:51.999Z</time></trkpt><trkpt lat="44.485003948247886" lon="9.954135549125489"><ele>935.0</ele><time>2026-04-11T14:55:52.999Z</time></trkpt><trkpt lat="44.48495500407911" lon="9.954425056383357"><ele>932.6666666666667</ele><time>2026-04-11T14:55:54Z</time></trkpt><trkpt lat="44.48490686803065" lon="9.954719484115751"><ele>930.3333333333333</ele><time>2026-04-11T14:55:55Z</time></trkpt><trkpt lat="44.48482963095913" lon="9.955010324337765"><ele>928.0</ele><time>2026-04-11T14:55:56Z</time></trkpt><trkpt lat="44.48477194300561" lon="9.955302143975626"><ele>927.6666666666666</ele><time>2026-04-11T14:55:57Z</time></trkpt><trkpt lat="44.4847099001411" lon="9.955592615661255"><ele>927.3333333333333</ele><time>2026-04-11T14:55:58Z</time></trkpt><trkpt lat="44.48462723509231" lon="9.955869349957267"><ele>927.0</ele><time>2026-04-11T14:55:59Z</time></trkpt><trkpt lat="44.48456009181805" lon="9.956147756209688"><ele>927.0</ele><time>2026-04-11T14:56:00Z</time></trkpt><trkpt lat="44.48452782084344" lon="9.956456321953354"><ele>927.0</ele><time>2026-04-11T14:56:01Z</time></trkpt><trkpt lat="44.48450817913693" lon="9.95677946681338"><ele>925.5</ele><time>2026-04-11T14:56:02Z</time></trkpt><trkpt lat="44.484483415072475" lon="9.957103493989006"><ele>924.0</ele><time>2026-04-11T14:56:03Z</time></trkpt><trkpt lat="44.48445609100604" lon="9.957416769177359"><ele>924.3333333333333</ele><time>2026-04-11T14:56:04Z</time></trkpt><trkpt lat="44.48442221324221" lon="9.957708824396063"><ele>924.6666666666666</ele><time>2026-04-11T14:56:05Z</time></trkpt><trkpt lat="44.4843906956408" lon="9.957992308628278"><ele>925.0</ele><time>2026-04-11T14:56:06Z</time></trkpt><trkpt lat="44.48437050419815" lon="9.958225822210323"><ele>927.5</ele><time>2026-04-11T14:56:07Z</time></trkpt><trkpt lat="44.48436515137626" lon="9.958421608739581"><ele>930.0</ele><time>2026-04-11T14:56:08Z</time></trkpt><trkpt lat="44.48440312615343" lon="9.958581868282787"><ele>932.5</ele><time>2026-04-11T14:56:09Z</time></trkpt><trkpt lat="44.48450062212526" lon="9.958706191940866"><ele>935.0</ele><time>2026-04-11T14:56:10Z</time></trkpt><trkpt lat="44.48465891032193" lon="9.958773788724939"><ele>927.3333333333334</ele><time>2026-04-11T14:56:11Z</time></trkpt><trkpt lat="44.48484544283716" lon="9.95879927059922"><ele>919.6666666666667</ele><time>2026-04-11T14:56:12Z</time></trkpt><trkpt lat="44.48505472174704" lon="9.95881291366413"><ele>912.0</ele><time>2026-04-11T14:56:13Z</time></trkpt><trkpt lat="44.48524056683306" lon="9.958832940654691"><ele>912.0</ele><time>2026-04-11T14:56:14Z</time></trkpt><trkpt lat="44.48538641838083" lon="9.95887675570012"><ele>912.0</ele><time>2026-04-11T14:56:15Z</time></trkpt><trkpt lat="44.485492830397824" lon="9.958982383583242"><ele>912.0</ele><time>2026-04-11T14:56:16Z</time></trkpt><trkpt lat="44.485577026637934" lon="9.959149237824384"><ele>912.0</ele><time>2026-04-11T14:56:17Z</time></trkpt><trkpt lat="44.4856150251431" lon="9.959345424722878"><ele>905.6666666666667</ele><time>2026-04-11T14:56:18Z</time></trkpt><trkpt lat="44.485612345474166" lon="9.959606906332509"><ele>899.3333333333334</ele><time>2026-04-11T14:56:19Z</time></trkpt><trkpt lat="44.48563038873978" lon="9.959892261487788"><ele>893.0</ele><time>2026-04-11T14:56:20Z</time></trkpt><trkpt lat="44.48563530908831" lon="9.960191733926633"><ele>893.0</ele><time>2026-04-11T14:56:21Z</time></trkpt><trkpt lat="44.485659406020524" lon="9.960467169368448"><ele>893.0</ele><time>2026-04-11T14:56:22Z</time></trkpt><trkpt lat="44.4857135025418" lon="9.960729557967447"><ele>893.0</ele><time>2026-04-11T14:56:23Z</time></trkpt><trkpt lat="44.48575522642398" lon="9.961003758553172"><ele>893.0</ele><time>2026-04-11T14:56:24Z</time></trkpt><trkpt lat="44.48581123605831" lon="9.961259333211817"><ele>893.0</ele><time>2026-04-11T14:56:25Z</time></trkpt><trkpt lat="44.48585333923042" lon="9.96153980017222"><ele>893.0</ele><time>2026-04-11T14:56:26Z</time></trkpt><trkpt lat="44.48589444625267" lon="9.961819200919928"><ele>893.0</ele><time>2026-04-11T14:56:27Z</time></trkpt><trkpt lat="44.485946820558446" lon="9.962100398429158"><ele>893.0</ele><time>2026-04-11T14:56:28Z</time></trkpt><trkpt lat="44.48598039722937" lon="9.962393776365579"><ele>893.0</ele><time>2026-04-11T14:56:29Z</time></trkpt><trkpt lat="44.48603641353768" lon="9.962648393582686"><ele>892.3333333333334</ele><time>2026-04-11T14:56:30Z</time></trkpt><trkpt lat="44.486033653911534" lon="9.962907109738973"><ele>891.6666666666667</ele><time>2026-04-11T14:56:31Z</time></trkpt><trkpt lat="44.48597545193423" lon="9.963115534213944"><ele>891.0</ele><time>2026-04-11T14:56:32Z</time></trkpt><trkpt lat="44.48587769372188" lon="9.963336980017946"><ele>890.3333333333333</ele><time>2026-04-11T14:56:33Z</time></trkpt><trkpt lat="44.485758102594055" lon="9.963585596739284"><ele>889.6666666666666</ele><time>2026-04-11T14:56:34Z</time></trkpt><trkpt lat="44.48566597480266" lon="9.963820913197678"><ele>889.0</ele><time>2026-04-11T14:56:35Z</time></trkpt><trkpt lat="44.48560072790667" lon="9.964019277615481"><ele>889.6666666666666</ele><time>2026-04-11T14:56:36Z</time></trkpt><trkpt lat="44.48555646470467" lon="9.964254521068813"><ele>890.3333333333333</ele><time>2026-04-11T14:56:37Z</time></trkpt><trkpt lat="44.48557788134899" lon="9.964494217817482"><ele>891.0</ele><time>2026-04-11T14:56:38Z</time></trkpt><trkpt lat="44.48563170350109" lon="9.964720045481805"><ele>891.0</ele><time>2026-04-11T14:56:39Z</time></trkpt><trkpt lat="44.48572167769042" lon="9.9648932867192"><ele>891.0</ele><time>2026-04-11T14:56:40Z</time></trkpt><trkpt lat="44.485812386356365" lon="9.964970582301412"><ele>891.0</ele><time>2026-04-11T14:56:41Z</time></trkpt><trkpt lat="44.485950387877594" lon="9.96495689430136"><ele>891.0</ele><time>2026-04-11T14:56:42Z</time></trkpt><trkpt lat="44.48613640319215" lon="9.964886021329397"><ele>884.5</ele><time>2026-04-11T14:56:43Z</time></trkpt><trkpt lat="44.48638870895643" lon="9.964800313296191"><ele>878.0</ele><time>2026-04-11T14:56:44Z</time></trkpt><trkpt lat="44.486598374665576" lon="9.96470095336293"><ele>878.0</ele><time>2026-04-11T14:56:45Z</time></trkpt><trkpt lat="44.4867785700002" lon="9.964658121989636"><ele>878.0</ele><time>2026-04-11T14:56:46Z</time></trkpt><trkpt lat="44.48693705026873" lon="9.964700568382494"><ele>878.0</ele><time>2026-04-11T14:56:47Z</time></trkpt><trkpt lat="44.487100672956096" lon="9.964804790271018"><ele>875.3333333333334</ele><time>2026-04-11T14:56:48Z</time></trkpt><trkpt lat="44.487246595777776" lon="9.964991149567664"><ele>872.6666666666667</ele><time>2026-04-11T14:56:49Z</time></trkpt><trkpt lat="44.48735964430901" lon="9.965230443788732"><ele>870.0</ele><time>2026-04-11T14:56:50Z</time></trkpt><trkpt lat="44.48749790704049" lon="9.96546907168538"><ele>870.0</ele><time>2026-04-11T14:56:51Z</time></trkpt><trkpt lat="44.48759523554245" lon="9.965689371035632"><ele>870.0</ele><time>2026-04-11T14:56:52Z</time></trkpt><trkpt lat="44.48770326906263" lon="9.965900767608186"><ele>870.0</ele><time>2026-04-11T14:56:53Z</time></trkpt><trkpt lat="44.487792357015195" lon="9.96609412103213"><ele>871.75</ele><time>2026-04-11T14:56:54Z</time></trkpt><trkpt lat="44.48788528627201" lon="9.96624618254624"><ele>873.5</ele><time>2026-04-11T14:56:55Z</time></trkpt><trkpt lat="44.48800942083889" lon="9.966311860462428"><ele>875.25</ele><time>2026-04-11T14:56:56Z</time></trkpt><trkpt lat="44.488170704271575" lon="9.966291049737327"><ele>877.0</ele><time>2026-04-11T14:56:57Z</time></trkpt><trkpt lat="44.488342005691614" lon="9.966177254179296"><ele>877.0</ele><time>2026-04-11T14:56:58Z</time></trkpt><trkpt lat="44.488506742785404" lon="9.966045587479401"><ele>877.0</ele><time>2026-04-11T14:56:59Z</time></trkpt><trkpt lat="44.48868333349607" lon="9.966083056632375"><ele>877.0</ele><time>2026-04-11T14:57:00Z</time></trkpt><trkpt lat="44.48878959854204" lon="9.9661610042604"><ele>877.0</ele><time>2026-04-11T14:57:01Z</time></trkpt><trkpt lat="44.48891054927729" lon="9.966351254898813"><ele>877.0</ele><time>2026-04-11T14:57:02Z</time></trkpt><trkpt lat="44.48906752756037" lon="9.966575015540904"><ele>877.0</ele><time>2026-04-11T14:57:02.999Z</time></trkpt><trkpt lat="44.4891727747333" lon="9.966765598901462"><ele>880.6666666666666</ele><time>2026-04-11T14:57:03.999Z</time></trkpt><trkpt lat="44.489302034953226" lon="9.966856317689126"><ele>884.3333333333333</ele><time>2026-04-11T14:57:04.999Z</time></trkpt><trkpt lat="44.489447020018524" lon="9.966836991794022"><ele>888.0</ele><time>2026-04-11T14:57:05.999Z</time></trkpt><trkpt lat="44.489599455312046" lon="9.966710338780931"><ele>884.3333333333333</ele><time>2026-04-11T14:57:06.999Z</time></trkpt><trkpt lat="44.489727355542264" lon="9.966496530737006"><ele>880.6666666666666</ele><time>2026-04-11T14:57:07.999Z</time></trkpt><trkpt lat="44.48987741196914" lon="9.96626461795254"><ele>877.0</ele><time>2026-04-11T14:57:08.999Z</time></trkpt><trkpt lat="44.49003587968813" lon="9.966081967516628"><ele>877.0</ele><time>2026-04-11T14:57:09.999Z</time></trkpt><trkpt lat="44.4901948184602" lon="9.965972665401699"><ele>877.0</ele><time>2026-04-11T14:57:10.999Z</time></trkpt><trkpt lat="44.490368520876295" lon="9.96592718402866"><ele>877.0</ele><time>2026-04-11T14:57:11.999Z</time></trkpt><trkpt lat="44.490554606491685" lon="9.965906773204157"><ele>878.0</ele><time>2026-04-11T14:57:12.999Z</time></trkpt><trkpt lat="44.490738645407376" lon="9.965897263907616"><ele>879.0</ele><time>2026-04-11T14:57:13.999Z</time></trkpt><trkpt lat="44.49090536724389" lon="9.965891339312224"><ele>880.0</ele><time>2026-04-11T14:57:14.999Z</time></trkpt><trkpt lat="44.49107927486538" lon="9.96592749220321"><ele>880.0</ele><time>2026-04-11T14:57:15.999Z</time></trkpt><trkpt lat="44.49125711401194" lon="9.96599376802685"><ele>880.0</ele><time>2026-04-11T14:57:16.999Z</time></trkpt><trkpt lat="44.49143029521845" lon="9.966078377532773"><ele>880.0</ele><time>2026-04-11T14:57:17.999Z</time></trkpt><trkpt lat="44.49160132044508" lon="9.966176421466233"><ele>877.3333333333333</ele><time>2026-04-11T14:57:18.999Z</time></trkpt><trkpt lat="44.49177154399643" lon="9.966267146384588"><ele>874.6666666666667</ele><time>2026-04-11T14:57:19.999Z</time></trkpt><trkpt lat="44.491949631655594" lon="9.966354213698732"><ele>872.0</ele><time>2026-04-11T14:57:20.999Z</time></trkpt><trkpt lat="44.49213076575975" lon="9.966442375947008"><ele>870.6666666666667</ele><time>2026-04-11T14:57:21.999Z</time></trkpt><trkpt lat="44.492296077127094" lon="9.966536548647177"><ele>869.3333333333333</ele><time>2026-04-11T14:57:22.999Z</time></trkpt><trkpt lat="44.49244706620193" lon="9.966647492978545"><ele>868.0</ele><time>2026-04-11T14:57:23.999Z</time></trkpt><trkpt lat="44.492548463256036" lon="9.966822027893647"><ele>868.0</ele><time>2026-04-11T14:57:24.999Z</time></trkpt><trkpt lat="44.49260441448735" lon="9.967039225058095"><ele>868.0</ele><time>2026-04-11T14:57:25.999Z</time></trkpt><trkpt lat="44.49259606559561" lon="9.967294032078014"><ele>868.0</ele><time>2026-04-11T14:57:26.999Z</time></trkpt><trkpt lat="44.49261585850655" lon="9.967569657143938"><ele>868.6666666666666</ele><time>2026-04-11T14:57:27.999Z</time></trkpt><trkpt lat="44.492639185483064" lon="9.967837342541847"><ele>869.3333333333333</ele><time>2026-04-11T14:57:28.999Z</time></trkpt><trkpt lat="44.49271194505193" lon="9.968101909337408"><ele>870.0</ele><time>2026-04-11T14:57:29.999Z</time></trkpt><trkpt lat="44.492789100335315" lon="9.968326284646091"><ele>870.3333333333333</ele><time>2026-04-11T14:57:30.999Z</time></trkpt><trkpt lat="44.49285587703949" lon="9.968555049035263"><ele>870.6666666666666</ele><time>2026-04-11T14:57:31.999Z</time></trkpt><trkpt lat="44.49292084827482" lon="9.96878201151707"><ele>871.0</ele><time>2026-04-11T14:57:32.999Z</time></trkpt><trkpt lat="44.4929841561768" lon="9.969012653531221"><ele>870.3333333333333</ele><time>2026-04-11T14:57:33.999Z</time></trkpt><trkpt lat="44.49305259861852" lon="9.969233031331092"><ele>869.6666666666667</ele><time>2026-04-11T14:57:34.999Z</time></trkpt><trkpt lat="44.49311733106378" lon="9.969450396568048"><ele>869.0</ele><time>2026-04-11T14:57:35.999Z</time></trkpt><trkpt lat="44.49318318736428" lon="9.969660931060492"><ele>869.0</ele><time>2026-04-11T14:57:36.999Z</time></trkpt><trkpt lat="44.49324547353136" lon="9.969868048717371"><ele>869.0</ele><time>2026-04-11T14:57:37.999Z</time></trkpt><trkpt lat="44.49330312602175" lon="9.97008760268638"><ele>869.0</ele><time>2026-04-11T14:57:38.999Z</time></trkpt><trkpt lat="44.49337183545811" lon="9.970307900954637"><ele>867.6666666666667</ele><time>2026-04-11T14:57:39.999Z</time></trkpt><trkpt lat="44.49346861538415" lon="9.970506719031823"><ele>866.3333333333333</ele><time>2026-04-11T14:57:40.999Z</time></trkpt><trkpt lat="44.49360933744122" lon="9.970663004552346"><ele>865.0</ele><time>2026-04-11T14:57:41.999Z</time></trkpt><trkpt lat="44.493782576976585" lon="9.970775472812724"><ele>867.6666666666666</ele><time>2026-04-11T14:57:42.999Z</time></trkpt><trkpt lat="44.493947296439856" lon="9.97089166467536"><ele>870.3333333333333</ele><time>2026-04-11T14:57:43.999Z</time></trkpt><trkpt lat="44.494067965733485" lon="9.971027559683312"><ele>873.0</ele><time>2026-04-11T14:57:44.999Z</time></trkpt><trkpt lat="44.49413854580632" lon="9.97116253103727"><ele>873.0</ele><time>2026-04-11T14:57:45.999Z</time></trkpt><trkpt lat="44.49415546020055" lon="9.971326362217587"><ele>873.0</ele><time>2026-04-11T14:57:46.999Z</time></trkpt><trkpt lat="44.49411304346676" lon="9.97151151629055"><ele>873.0</ele><time>2026-04-11T14:57:47.999Z</time></trkpt><trkpt lat="44.4940162133505" lon="9.971685157784313"><ele>873.0</ele><time>2026-04-11T14:57:48.999Z</time></trkpt><trkpt lat="44.49396492179484" lon="9.971872457164215"><ele>875.6666666666667</ele><time>2026-04-11T14:57:50Z</time></trkpt><trkpt lat="44.49394872924171" lon="9.972075390793597"><ele>878.3333333333334</ele><time>2026-04-11T14:57:50.999Z</time></trkpt><trkpt lat="44.49398552881082" lon="9.972288541821905"><ele>881.0</ele><time>2026-04-11T14:57:51.999Z</time></trkpt><trkpt lat="44.494063692952054" lon="9.972503088868761"><ele>890.6666666666667</ele><time>2026-04-11T14:57:52.999Z</time></trkpt><trkpt lat="44.49419418128388" lon="9.972668337866443"><ele>900.3333333333333</ele><time>2026-04-11T14:57:53.999Z</time></trkpt><trkpt lat="44.494367853852545" lon="9.972775633012713"><ele>910.0</ele><time>2026-04-11T14:57:54.999Z</time></trkpt><trkpt lat="44.494575543416396" lon="9.972878465539367"><ele>901.6666666666666</ele><time>2026-04-11T14:57:55.999Z</time></trkpt><trkpt lat="44.49477347658733" lon="9.973005095319872"><ele>893.3333333333333</ele><time>2026-04-11T14:57:56.999Z</time></trkpt><trkpt lat="44.49495801989496" lon="9.973126317026596"><ele>885.0</ele><time>2026-04-11T14:57:57.999Z</time></trkpt><trkpt lat="44.49514030390605" lon="9.97325112228107"><ele>890.0</ele><time>2026-04-11T14:57:58.999Z</time></trkpt><trkpt lat="44.49532826573219" lon="9.973376036268585"><ele>895.0</ele><time>2026-04-11T14:58:00Z</time></trkpt><trkpt lat="44.495526130328656" lon="9.973484027498118"><ele>900.0</ele><time>2026-04-11T14:58:01Z</time></trkpt><trkpt lat="44.49573266460131" lon="9.973573602088232"><ele>900.0</ele><time>2026-04-11T14:58:02Z</time></trkpt><trkpt lat="44.495948685454444" lon="9.973636601724955"><ele>900.0</ele><time>2026-04-11T14:58:03Z</time></trkpt><trkpt lat="44.49616369783831" lon="9.97367858498273"><ele>900.0</ele><time>2026-04-11T14:58:04Z</time></trkpt><trkpt lat="44.496366907424914" lon="9.973726911308253"><ele>895.3333333333333</ele><time>2026-04-11T14:58:05Z</time></trkpt><trkpt lat="44.496562919521054" lon="9.973804118785996"><ele>890.6666666666666</ele><time>2026-04-11T14:58:06Z</time></trkpt><trkpt lat="44.496747098856396" lon="9.973926542886584"><ele>886.0</ele><time>2026-04-11T14:58:07Z</time></trkpt><trkpt lat="44.49692218909118" lon="9.974057251679902"><ele>880.3333333333333</ele><time>2026-04-11T14:58:08Z</time></trkpt><trkpt lat="44.49708653585065" lon="9.974099585152166"><ele>874.6666666666667</ele><time>2026-04-11T14:58:09Z</time></trkpt><trkpt lat="44.49725654237243" lon="9.97408983347929"><ele>869.0</ele><time>2026-04-11T14:58:10Z</time></trkpt><trkpt lat="44.497398533989596" lon="9.97417626437824"><ele>879.0</ele><time>2026-04-11T14:58:11Z</time></trkpt><trkpt lat="44.4975076863096" lon="9.97432292355622"><ele>889.0</ele><time>2026-04-11T14:58:12Z</time></trkpt><trkpt lat="44.497632907820346" lon="9.974521289558623"><ele>899.0</ele><time>2026-04-11T14:58:13Z</time></trkpt><trkpt lat="44.49776776879409" lon="9.974723092234152"><ele>899.0</ele><time>2026-04-11T14:58:14Z</time></trkpt><trkpt lat="44.497911332147154" lon="9.97491810336387"><ele>899.0</ele><time>2026-04-11T14:58:15Z</time></trkpt><trkpt lat="44.49809841876929" lon="9.975054813257302"><ele>899.0</ele><time>2026-04-11T14:58:16Z</time></trkpt><trkpt lat="44.4983269895406" lon="9.975138688285094"><ele>904.0</ele><time>2026-04-11T14:58:17Z</time></trkpt><trkpt lat="44.49855480491167" lon="9.975222549854982"><ele>909.0</ele><time>2026-04-11T14:58:18Z</time></trkpt><trkpt lat="44.49876987209988" lon="9.975304896034778"><ele>900.0</ele><time>2026-04-11T14:58:19Z</time></trkpt><trkpt lat="44.49897308566575" lon="9.97535033010781"><ele>891.0</ele><time>2026-04-11T14:58:20Z</time></trkpt><trkpt lat="44.4991466102862" lon="9.975348651333709"><ele>882.0</ele><time>2026-04-11T14:58:21Z</time></trkpt><trkpt lat="44.499269176864885" lon="9.975394178412543"><ele>882.0</ele><time>2026-04-11T14:58:22Z</time></trkpt><trkpt lat="44.499341317298594" lon="9.97547327673365"><ele>882.0</ele><time>2026-04-11T14:58:23Z</time></trkpt><trkpt lat="44.49934809147284" lon="9.975649803486013"><ele>882.0</ele><time>2026-04-11T14:58:24Z</time></trkpt><trkpt lat="44.49935694364636" lon="9.975885622671914"><ele>882.0</ele><time>2026-04-11T14:58:25Z</time></trkpt><trkpt lat="44.49938390396759" lon="9.976157203618449"><ele>888.3333333333333</ele><time>2026-04-11T14:58:26Z</time></trkpt><trkpt lat="44.49943677477378" lon="9.976426761549016"><ele>894.6666666666666</ele><time>2026-04-11T14:58:27Z</time></trkpt><trkpt lat="44.49953154114519" lon="9.976687170833701"><ele>901.0</ele><time>2026-04-11T14:58:28Z</time></trkpt><trkpt lat="44.499609397752415" lon="9.976943836363768"><ele>888.3333333333333</ele><time>2026-04-11T14:58:29Z</time></trkpt><trkpt lat="44.49968184054762" lon="9.977178526330052"><ele>875.6666666666667</ele><time>2026-04-11T14:58:30Z</time></trkpt><trkpt lat="44.4997595156445" lon="9.977398905776132"><ele>863.0</ele><time>2026-04-11T14:58:31Z</time></trkpt><trkpt lat="44.499777833974775" lon="9.97763433191398"><ele>863.0</ele><time>2026-04-11T14:58:32Z</time></trkpt><trkpt lat="44.49977472237445" lon="9.977868622863815"><ele>863.0</ele><time>2026-04-11T14:58:33Z</time></trkpt><trkpt lat="44.49976202282813" lon="9.978098865279541"><ele>863.0</ele><time>2026-04-11T14:58:34Z</time></trkpt><trkpt lat="44.49975195837187" lon="9.978324600700573"><ele>863.3333333333334</ele><time>2026-04-11T14:58:35Z</time></trkpt><trkpt lat="44.499747355763716" lon="9.978537373269832"><ele>863.6666666666667</ele><time>2026-04-11T14:58:36Z</time></trkpt><trkpt lat="44.499769269525544" lon="9.978743145134747"><ele>864.0</ele><time>2026-04-11T14:58:37Z</time></trkpt><trkpt lat="44.49982838382512" lon="9.978965745457822"><ele>864.0</ele><time>2026-04-11T14:58:38Z</time></trkpt><trkpt lat="44.499893518259114" lon="9.979149426313034"><ele>864.0</ele><time>2026-04-11T14:58:39Z</time></trkpt><trkpt lat="44.499954542885284" lon="9.97931313936216"><ele>864.0</ele><time>2026-04-11T14:58:40Z</time></trkpt><trkpt lat="44.50000970864327" lon="9.979473458557019"><ele>864.0</ele><time>2026-04-11T14:58:41Z</time></trkpt><trkpt lat="44.50005752328694" lon="9.979631982731524"><ele>864.75</ele><time>2026-04-11T14:58:42Z</time></trkpt><trkpt lat="44.50007192789108" lon="9.979797368644558"><ele>865.5</ele><time>2026-04-11T14:58:43Z</time></trkpt><trkpt lat="44.5000723656538" lon="9.979981748498075"><ele>866.25</ele><time>2026-04-11T14:58:44Z</time></trkpt><trkpt lat="44.50007312163888" lon="9.980209137682186"><ele>867.0</ele><time>2026-04-11T14:58:45Z</time></trkpt><trkpt lat="44.50005660072836" lon="9.980435678830467"><ele>867.5</ele><time>2026-04-11T14:58:46Z</time></trkpt><trkpt lat="44.500055325839696" lon="9.98064474061502"><ele>868.0</ele><time>2026-04-11T14:58:47Z</time></trkpt><trkpt lat="44.500080832100714" lon="9.980845934158024"><ele>868.5</ele><time>2026-04-11T14:58:48Z</time></trkpt><trkpt lat="44.5001559202395" lon="9.981025366745596"><ele>869.0</ele><time>2026-04-11T14:58:49Z</time></trkpt><trkpt lat="44.50026009802884" lon="9.981186141464041"><ele>871.3333333333334</ele><time>2026-04-11T14:58:50Z</time></trkpt><trkpt lat="44.50037699142736" lon="9.981349816185833"><ele>873.6666666666667</ele><time>2026-04-11T14:58:51Z</time></trkpt><trkpt lat="44.50050416446519" lon="9.981568074700093"><ele>876.0</ele><time>2026-04-11T14:58:52Z</time></trkpt><trkpt lat="44.50068004113562" lon="9.981795470596493"><ele>876.0</ele><time>2026-04-11T14:58:53Z</time></trkpt><trkpt lat="44.50087474929041" lon="9.981994880940496"><ele>876.0</ele><time>2026-04-11T14:58:54Z</time></trkpt><trkpt lat="44.50108092424339" lon="9.982202905632112"><ele>869.6666666666667</ele><time>2026-04-11T14:58:55Z</time></trkpt><trkpt lat="44.501306990236586" lon="9.982323786156698"><ele>863.3333333333334</ele><time>2026-04-11T14:58:56Z</time></trkpt><trkpt lat="44.50150202902671" lon="9.982387429453613"><ele>857.0</ele><time>2026-04-11T14:58:57Z</time></trkpt><trkpt lat="44.50162254772134" lon="9.98248614423587"><ele>859.6666666666667</ele><time>2026-04-11T14:58:58Z</time></trkpt><trkpt lat="44.50172236408298" lon="9.982669380377102"><ele>862.3333333333333</ele><time>2026-04-11T14:58:59Z</time></trkpt><trkpt lat="44.50177181220989" lon="9.982937423574075"><ele>865.0</ele><time>2026-04-11T14:59:00Z</time></trkpt><trkpt lat="44.501820886356576" lon="9.983184192103442"><ele>865.0</ele><time>2026-04-11T14:59:01Z</time></trkpt><trkpt lat="44.50186294533326" lon="9.983458946814375"><ele>865.0</ele><time>2026-04-11T14:59:02Z</time></trkpt><trkpt lat="44.50184812817415" lon="9.983695160885553"><ele>865.0</ele><time>2026-04-11T14:59:03Z</time></trkpt><trkpt lat="44.50178772237258" lon="9.983974833440582"><ele>862.6666666666666</ele><time>2026-04-11T14:59:04Z</time></trkpt><trkpt lat="44.50170592486929" lon="9.98424611447447"><ele>860.3333333333333</ele><time>2026-04-11T14:59:05Z</time></trkpt><trkpt lat="44.50160672570419" lon="9.984464326710913"><ele>858.0</ele><time>2026-04-11T14:59:05.999Z</time></trkpt><trkpt lat="44.50151264867096" lon="9.984653908215982"><ele>858.0</ele><time>2026-04-11T14:59:06.999Z</time></trkpt><trkpt lat="44.50143233514557" lon="9.984820986506554"><ele>858.0</ele><time>2026-04-11T14:59:07.999Z</time></trkpt><trkpt lat="44.50140654814217" lon="9.985006828126192"><ele>858.0</ele><time>2026-04-11T14:59:08.999Z</time></trkpt><trkpt lat="44.50143867127901" lon="9.98523373962492"><ele>858.0</ele><time>2026-04-11T14:59:09.999Z</time></trkpt><trkpt lat="44.50154908506303" lon="9.985423354170564"><ele>858.6666666666667</ele><time>2026-04-11T14:59:10.999Z</time></trkpt><trkpt lat="44.50171082604512" lon="9.985588161315414"><ele>859.3333333333334</ele><time>2026-04-11T14:59:11.999Z</time></trkpt><trkpt lat="44.501866312454524" lon="9.985692305340029"><ele>860.0</ele><time>2026-04-11T14:59:12.999Z</time></trkpt><trkpt lat="44.50196524213298" lon="9.985836063698503"><ele>860.25</ele><time>2026-04-11T14:59:13.999Z</time></trkpt><trkpt lat="44.50205095099793" lon="9.986002176664053"><ele>860.5</ele><time>2026-04-11T14:59:14.999Z</time></trkpt><trkpt lat="44.502136403775204" lon="9.986179453920862"><ele>860.75</ele><time>2026-04-11T14:59:15.999Z</time></trkpt><trkpt lat="44.5022023502745" lon="9.986338655126087"><ele>861.0</ele><time>2026-04-11T14:59:16.999Z</time></trkpt><trkpt lat="44.502237802708535" lon="9.9865027456154"><ele>861.75</ele><time>2026-04-11T14:59:17.999Z</time></trkpt><trkpt lat="44.50217974025227" lon="9.986683378657858"><ele>862.5</ele><time>2026-04-11T14:59:18.999Z</time></trkpt><trkpt lat="44.50210755470119" lon="9.986879784236733"><ele>863.25</ele><time>2026-04-11T14:59:19.999Z</time></trkpt><trkpt lat="44.5020630971444" lon="9.987072080274817"><ele>864.0</ele><time>2026-04-11T14:59:20.999Z</time></trkpt><trkpt lat="44.50203774918159" lon="9.987238098050806"><ele>864.0</ele><time>2026-04-11T14:59:21.999Z</time></trkpt><trkpt lat="44.5020725154591" lon="9.987397336123493"><ele>864.0</ele><time>2026-04-11T14:59:22.999Z</time></trkpt><trkpt lat="44.50217626476772" lon="9.987528769212783"><ele>864.0</ele><time>2026-04-11T14:59:23.999Z</time></trkpt><trkpt lat="44.50232652543457" lon="9.987586076388391"><ele>864.0</ele><time>2026-04-11T14:59:24.999Z</time></trkpt><trkpt lat="44.50250817557008" lon="9.987565503540493"><ele>860.3333333333333</ele><time>2026-04-11T14:59:25.999Z</time></trkpt><trkpt lat="44.502680688861396" lon="9.98749871311287"><ele>856.6666666666666</ele><time>2026-04-11T14:59:26.999Z</time></trkpt><trkpt lat="44.50284930639702" lon="9.987446761964536"><ele>853.0</ele><time>2026-04-11T14:59:27.999Z</time></trkpt><trkpt lat="44.50297966975509" lon="9.987426744685772"><ele>853.25</ele><time>2026-04-11T14:59:28.999Z</time></trkpt><trkpt lat="44.50308749649012" lon="9.98747035837766"><ele>853.5</ele><time>2026-04-11T14:59:29.999Z</time></trkpt><trkpt lat="44.50316087018974" lon="9.987641549066323"><ele>853.75</ele><time>2026-04-11T14:59:30.999Z</time></trkpt><trkpt lat="44.50325217192136" lon="9.987843143433986"><ele>854.0</ele><time>2026-04-11T14:59:31.999Z</time></trkpt><trkpt lat="44.50336018257321" lon="9.988040176636757"><ele>854.0</ele><time>2026-04-11T14:59:32.999Z</time></trkpt><trkpt lat="44.503446325425976" lon="9.988232463426069"><ele>854.0</ele><time>2026-04-11T14:59:33.999Z</time></trkpt><trkpt lat="44.50353887553553" lon="9.988399602263575"><ele>854.0</ele><time>2026-04-11T14:59:34.999Z</time></trkpt><trkpt lat="44.50365322395666" lon="9.988543641688747"><ele>853.6666666666667</ele><time>2026-04-11T14:59:35.999Z</time></trkpt><trkpt lat="44.503789899778965" lon="9.988668680127924"><ele>853.3333333333333</ele><time>2026-04-11T14:59:36.999Z</time></trkpt><trkpt lat="44.50393150433683" lon="9.988785408865356"><ele>853.0</ele><time>2026-04-11T14:59:37.999Z</time></trkpt><trkpt lat="44.50406268202776" lon="9.988869657452915"><ele>853.0</ele><time>2026-04-11T14:59:38.999Z</time></trkpt><trkpt lat="44.5041626709029" lon="9.988914909198185"><ele>853.0</ele><time>2026-04-11T14:59:39.999Z</time></trkpt><trkpt lat="44.50434225603365" lon="9.988986154465188"><ele>853.0</ele><time>2026-04-11T14:59:40.999Z</time></trkpt><trkpt lat="44.504481576563" lon="9.988993656880021"><ele>853.0</ele><time>2026-04-11T14:59:41.999Z</time></trkpt><trkpt lat="44.50462062615957" lon="9.988970976005454"><ele>852.0</ele><time>2026-04-11T14:59:42.999Z</time></trkpt><trkpt lat="44.50475547297658" lon="9.988996990146246"><ele>851.0</ele><time>2026-04-11T14:59:43.999Z</time></trkpt><trkpt lat="44.50488657396188" lon="9.988985659226419"><ele>850.0</ele><time>2026-04-11T14:59:44.999Z</time></trkpt><trkpt lat="44.50502822285789" lon="9.989013298751598"><ele>849.0</ele><time>2026-04-11T14:59:45.999Z</time></trkpt><trkpt lat="44.50516406219522" lon="9.989063079099829"><ele>849.0</ele><time>2026-04-11T14:59:46.999Z</time></trkpt><trkpt lat="44.505281991542965" lon="9.989192915679963"><ele>849.0</ele><time>2026-04-11T14:59:47.999Z</time></trkpt><trkpt lat="44.505411658074756" lon="9.98930656724667"><ele>849.0</ele><time>2026-04-11T14:59:48.999Z</time></trkpt><trkpt lat="44.505518713656066" lon="9.989449237543694"><ele>848.25</ele><time>2026-04-11T14:59:49.999Z</time></trkpt><trkpt lat="44.505634828590274" lon="9.989576258202776"><ele>847.5</ele><time>2026-04-11T14:59:50.999Z</time></trkpt><trkpt lat="44.505754879581346" lon="9.989695123742761"><ele>846.75</ele><time>2026-04-11T14:59:51.999Z</time></trkpt><trkpt lat="44.505867420557415" lon="9.98981771738721"><ele>846.0</ele><time>2026-04-11T14:59:52.999Z</time></trkpt><trkpt lat="44.50597670590972" lon="9.98993700784493"><ele>846.0</ele><time>2026-04-11T14:59:53.999Z</time></trkpt><trkpt lat="44.50607938460957" lon="9.990067603682391"><ele>846.0</ele><time>2026-04-11T14:59:54.999Z</time></trkpt><trkpt lat="44.50616848766414" lon="9.990209766432455"><ele>846.0</ele><time>2026-04-11T14:59:55.999Z</time></trkpt><trkpt lat="44.50623777737961" lon="9.990370231554717"><ele>846.0</ele><time>2026-04-11T14:59:56.999Z</time></trkpt><trkpt lat="44.5062868380755" lon="9.990549772301833"><ele>845.25</ele><time>2026-04-11T14:59:57.999Z</time></trkpt><trkpt lat="44.50633726572473" lon="9.990728077787224"><ele>844.5</ele><time>2026-04-11T14:59:58.999Z</time></trkpt><trkpt lat="44.5064049964993" lon="9.990893786465088"><ele>843.75</ele><time>2026-04-11T14:59:59.999Z</time></trkpt><trkpt lat="44.50649850483282" lon="9.991031547784093"><ele>843.0</ele><time>2026-04-11T15:00:00.999Z</time></trkpt><trkpt lat="44.506608829902845" lon="9.991143356998624"><ele>843.0</ele><time>2026-04-11T15:00:01.999Z</time></trkpt><trkpt lat="44.50671699234256" lon="9.991255730547541"><ele>843.0</ele><time>2026-04-11T15:00:02.999Z</time></trkpt><trkpt lat="44.50682886591656" lon="9.991370156702606"><ele>843.0</ele><time>2026-04-11T15:00:03.999Z</time></trkpt><trkpt lat="44.50692901390108" lon="9.991507321056792"><ele>843.0</ele><time>2026-04-11T15:00:04.999Z</time></trkpt><trkpt lat="44.5070306932587" lon="9.991636321441137"><ele>843.0</ele><time>2026-04-11T15:00:06Z</time></trkpt><trkpt lat="44.50712419878386" lon="9.991769335281356"><ele>843.0</ele><time>2026-04-11T15:00:07Z</time></trkpt><trkpt lat="44.507224642586706" lon="9.991887299010841"><ele>843.0</ele><time>2026-04-11T15:00:08Z</time></trkpt><trkpt lat="44.50732847603902" lon="9.99201229423685"><ele>843.0</ele><time>2026-04-11T15:00:09Z</time></trkpt><trkpt lat="44.50744214642948" lon="9.992129861438373"><ele>843.0</ele><time>2026-04-11T15:00:10Z</time></trkpt><trkpt lat="44.50756398806972" lon="9.992243333898678"><ele>843.0</ele><time>2026-04-11T15:00:11Z</time></trkpt><trkpt lat="44.50768599917318" lon="9.992356879259123"><ele>843.0</ele><time>2026-04-11T15:00:12Z</time></trkpt><trkpt lat="44.50780621926824" lon="9.992475365825808"><ele>843.0</ele><time>2026-04-11T15:00:13Z</time></trkpt><trkpt lat="44.50791743826996" lon="9.992600262120888"><ele>843.5</ele><time>2026-04-11T15:00:14Z</time></trkpt><trkpt lat="44.50801575909819" lon="9.992722487691756"><ele>844.0</ele><time>2026-04-11T15:00:15Z</time></trkpt><trkpt lat="44.50810474333988" lon="9.992863102615953"><ele>844.5</ele><time>2026-04-11T15:00:16Z</time></trkpt><trkpt lat="44.508165113754295" lon="9.993032332521654"><ele>845.0</ele><time>2026-04-11T15:00:17Z</time></trkpt><trkpt lat="44.50821960490848" lon="9.993215030716852"><ele>842.25</ele><time>2026-04-11T15:00:18Z</time></trkpt><trkpt lat="44.50825976147676" lon="9.99339654148937"><ele>839.5</ele><time>2026-04-11T15:00:19Z</time></trkpt><trkpt lat="44.50830877041219" lon="9.993584170407182"><ele>836.75</ele><time>2026-04-11T15:00:20Z</time></trkpt><trkpt lat="44.50836378313454" lon="9.993764285571272"><ele>834.0</ele><time>2026-04-11T15:00:21Z</time></trkpt><trkpt lat="44.50841824273589" lon="9.993951462981668"><ele>834.0</ele><time>2026-04-11T15:00:22Z</time></trkpt><trkpt lat="44.508486427205284" lon="9.994147658423362"><ele>834.0</ele><time>2026-04-11T15:00:23Z</time></trkpt><trkpt lat="44.508581936023795" lon="9.99433775849279"><ele>834.0</ele><time>2026-04-11T15:00:24Z</time></trkpt><trkpt lat="44.50870610360649" lon="9.994528442545136"><ele>835.6666666666667</ele><time>2026-04-11T15:00:25Z</time></trkpt><trkpt lat="44.50885071442595" lon="9.994672104370405"><ele>837.3333333333334</ele><time>2026-04-11T15:00:26Z</time></trkpt><trkpt lat="44.509029142155335" lon="9.994741716167242"><ele>839.0</ele><time>2026-04-11T15:00:27Z</time></trkpt><trkpt lat="44.50923265970973" lon="9.994745824501521"><ele>839.0</ele><time>2026-04-11T15:00:28Z</time></trkpt><trkpt lat="44.50942553992365" lon="9.994742025560965"><ele>839.0</ele><time>2026-04-11T15:00:29Z</time></trkpt><trkpt lat="44.50958264854691" lon="9.994790194434696"><ele>839.0</ele><time>2026-04-11T15:00:30Z</time></trkpt><trkpt lat="44.50967764742188" lon="9.994959732510829"><ele>843.0</ele><time>2026-04-11T15:00:31Z</time></trkpt><trkpt lat="44.509745703591356" lon="9.995174238365864"><ele>847.0</ele><time>2026-04-11T15:00:32Z</time></trkpt><trkpt lat="44.50983218190694" lon="9.995436347099137"><ele>851.0</ele><time>2026-04-11T15:00:33Z</time></trkpt><trkpt lat="44.50989130995037" lon="9.995694032649608"><ele>846.6666666666667</ele><time>2026-04-11T15:00:34Z</time></trkpt><trkpt lat="44.50999061717334" lon="9.995867025228357"><ele>842.3333333333333</ele><time>2026-04-11T15:00:35Z</time></trkpt><trkpt lat="44.51015432912208" lon="9.995977880511084"><ele>838.0</ele><time>2026-04-11T15:00:36Z</time></trkpt><trkpt lat="44.5103402687495" lon="9.996084739950444"><ele>845.0</ele><time>2026-04-11T15:00:37Z</time></trkpt><trkpt lat="44.51046943385426" lon="9.99631086097401"><ele>852.0</ele><time>2026-04-11T15:00:38Z</time></trkpt><trkpt lat="44.51061274486194" lon="9.996558715718624"><ele>859.0</ele><time>2026-04-11T15:00:39Z</time></trkpt><trkpt lat="44.51075731649426" lon="9.996800619154264"><ele>859.0</ele><time>2026-04-11T15:00:40Z</time></trkpt><trkpt lat="44.51082115701631" lon="9.997092292730823"><ele>859.0</ele><time>2026-04-11T15:00:41Z</time></trkpt><trkpt lat="44.51089034324433" lon="9.997375504951183"><ele>859.0</ele><time>2026-04-11T15:00:42Z</time></trkpt><trkpt lat="44.510962310708145" lon="9.997609894810934"><ele>859.6666666666666</ele><time>2026-04-11T15:00:43Z</time></trkpt><trkpt lat="44.51110137962284" lon="9.99780722799322"><ele>860.3333333333333</ele><time>2026-04-11T15:00:44Z</time></trkpt><trkpt lat="44.511274728730164" lon="9.997981724823228"><ele>861.0</ele><time>2026-04-11T15:00:45Z</time></trkpt><trkpt lat="44.51144691126097" lon="9.998095619471984"><ele>861.0</ele><time>2026-04-11T15:00:46Z</time></trkpt><trkpt lat="44.5116126008465" lon="9.998146095971489"><ele>861.0</ele><time>2026-04-11T15:00:47Z</time></trkpt><trkpt lat="44.51179170117818" lon="9.998129017452685"><ele>861.0</ele><time>2026-04-11T15:00:48Z</time></trkpt><trkpt lat="44.51197636827622" lon="9.998050708994118"><ele>860.6666666666667</ele><time>2026-04-11T15:00:49Z</time></trkpt><trkpt lat="44.51215290306169" lon="9.997916180868383"><ele>860.3333333333334</ele><time>2026-04-11T15:00:50Z</time></trkpt><trkpt lat="44.512309827828666" lon="9.997747366571723"><ele>860.0</ele><time>2026-04-11T15:00:51Z</time></trkpt><trkpt lat="44.51242825593579" lon="9.997535938371925"><ele>864.0</ele><time>2026-04-11T15:00:52Z</time></trkpt><trkpt lat="44.51251316230495" lon="9.997262273128827"><ele>868.0</ele><time>2026-04-11T15:00:53Z</time></trkpt><trkpt lat="44.51260483575537" lon="9.996977830671812"><ele>872.0</ele><time>2026-04-11T15:00:54Z</time></trkpt><trkpt lat="44.51270651730029" lon="9.996709817871308"><ele>870.3333333333334</ele><time>2026-04-11T15:00:55Z</time></trkpt><trkpt lat="44.51281631063614" lon="9.996463244383387"><ele>868.6666666666667</ele><time>2026-04-11T15:00:56Z</time></trkpt><trkpt lat="44.512991340602" lon="9.996293673376124"><ele>867.0</ele><time>2026-04-11T15:00:57Z</time></trkpt><trkpt lat="44.51318461452602" lon="9.996200717716258"><ele>867.0</ele><time>2026-04-11T15:00:58Z</time></trkpt><trkpt lat="44.51341016900355" lon="9.996084475292017"><ele>867.0</ele><time>2026-04-11T15:00:59Z</time></trkpt><trkpt lat="44.51365294695979" lon="9.996009954368613"><ele>865.5</ele><time>2026-04-11T15:01:00Z</time></trkpt><trkpt lat="44.51387533272775" lon="9.995903870105083"><ele>864.0</ele><time>2026-04-11T15:01:01Z</time></trkpt><trkpt lat="44.5140897322511" lon="9.995850127021386"><ele>864.0</ele><time>2026-04-11T15:01:02Z</time></trkpt><trkpt lat="44.514309350700266" lon="9.99586595994057"><ele>864.0</ele><time>2026-04-11T15:01:03Z</time></trkpt><trkpt lat="44.51455179166898" lon="9.995899450530711"><ele>865.0</ele><time>2026-04-11T15:01:04Z</time></trkpt><trkpt lat="44.514800845722654" lon="9.9959331052606"><ele>866.0</ele><time>2026-04-11T15:01:05Z</time></trkpt><trkpt lat="44.51502812392982" lon="9.99596743923562"><ele>866.0</ele><time>2026-04-11T15:01:06Z</time></trkpt><trkpt lat="44.51526387506069" lon="9.995997846887414"><ele>866.0</ele><time>2026-04-11T15:01:07Z</time></trkpt><trkpt lat="44.515509078059345" lon="9.996028723115469"><ele>869.0</ele><time>2026-04-11T15:01:08Z</time></trkpt><trkpt lat="44.515744935961436" lon="9.996054966547545"><ele>872.0</ele><time>2026-04-11T15:01:09Z</time></trkpt><trkpt lat="44.515980348302094" lon="9.996076684505061"><ele>872.0</ele><time>2026-04-11T15:01:10Z</time></trkpt><trkpt lat="44.51621071466627" lon="9.996096528206486"><ele>872.0</ele><time>2026-04-11T15:01:11Z</time></trkpt><trkpt lat="44.516415349632034" lon="9.996113136957973"><ele>872.0</ele><time>2026-04-11T15:01:12Z</time></trkpt><trkpt lat="44.51661135571595" lon="9.996142870153705"><ele>873.3333333333334</ele><time>2026-04-11T15:01:12.999Z</time></trkpt><trkpt lat="44.51679484043369" lon="9.996155921048201"><ele>874.6666666666667</ele><time>2026-04-11T15:01:13.999Z</time></trkpt><trkpt lat="44.51694212890877" lon="9.996139453856554"><ele>876.0</ele><time>2026-04-11T15:01:14.999Z</time></trkpt><trkpt lat="44.517063750309084" lon="9.996071692588291"><ele>876.3333333333333</ele><time>2026-04-11T15:01:15.999Z</time></trkpt><trkpt lat="44.51715697482151" lon="9.99593073891186"><ele>876.6666666666666</ele><time>2026-04-11T15:01:16.999Z</time></trkpt><trkpt lat="44.51721018530398" lon="9.995728172544911"><ele>877.0</ele><time>2026-04-11T15:01:17.999Z</time></trkpt><trkpt lat="44.517267936094214" lon="9.995483798577485"><ele>877.0</ele><time>2026-04-11T15:01:18.999Z</time></trkpt><trkpt lat="44.517380196591475" lon="9.995266222619868"><ele>877.0</ele><time>2026-04-11T15:01:19.999Z</time></trkpt><trkpt lat="44.517541335998445" lon="9.995060376176657"><ele>877.0</ele><time>2026-04-11T15:01:20.999Z</time></trkpt><trkpt lat="44.51770713394033" lon="9.994867728747588"><ele>878.0</ele><time>2026-04-11T15:01:21.999Z</time></trkpt><trkpt lat="44.51787576206365" lon="9.99465258028543"><ele>879.0</ele><time>2026-04-11T15:01:22.999Z</time></trkpt><trkpt lat="44.51804834932629" lon="9.994459359690987"><ele>880.0</ele><time>2026-04-11T15:01:23.999Z</time></trkpt><trkpt lat="44.518208361155146" lon="9.994289492055918"><ele>882.3333333333333</ele><time>2026-04-11T15:01:24.999Z</time></trkpt><trkpt lat="44.518358033118396" lon="9.994111680047084"><ele>884.6666666666667</ele><time>2026-04-11T15:01:25.999Z</time></trkpt><trkpt lat="44.51852229262432" lon="9.993955960141301"><ele>887.0</ele><time>2026-04-11T15:01:26.999Z</time></trkpt><trkpt lat="44.51871167747158" lon="9.993901052794548"><ele>887.6666666666667</ele><time>2026-04-11T15:01:27.999Z</time></trkpt><trkpt lat="44.51891110469856" lon="9.993911456599818"><ele>888.3333333333333</ele><time>2026-04-11T15:01:28.999Z</time></trkpt><trkpt lat="44.51913840577729" lon="9.99392830203446"><ele>889.0</ele><time>2026-04-11T15:01:29.999Z</time></trkpt><trkpt lat="44.51936281044862" lon="9.993979520635811"><ele>889.5</ele><time>2026-04-11T15:01:30.999Z</time></trkpt><trkpt lat="44.519589298406586" lon="9.994033694829396"><ele>890.0</ele><time>2026-04-11T15:01:31.999Z</time></trkpt><trkpt lat="44.51981386366569" lon="9.994076575889908"><ele>890.0</ele><time>2026-04-11T15:01:32.999Z</time></trkpt><trkpt lat="44.52003794074415" lon="9.99408314209773"><ele>890.0</ele><time>2026-04-11T15:01:33.999Z</time></trkpt><trkpt lat="44.520268101952176" lon="9.994072004532988"><ele>891.6666666666667</ele><time>2026-04-11T15:01:34.999Z</time></trkpt><trkpt lat="44.52047795692568" lon="9.994096415886402"><ele>893.3333333333333</ele><time>2026-04-11T15:01:35.999Z</time></trkpt><trkpt lat="44.52067725918765" lon="9.994085538722844"><ele>895.0</ele><time>2026-04-11T15:01:36.999Z</time></trkpt><trkpt lat="44.520860086833544" lon="9.994136764914101"><ele>893.6666666666666</ele><time>2026-04-11T15:01:37.999Z</time></trkpt><trkpt lat="44.52103493608303" lon="9.994259705186593"><ele>892.3333333333333</ele><time>2026-04-11T15:01:38.999Z</time></trkpt><trkpt lat="44.521216386924884" lon="9.994456720367532"><ele>891.0</ele><time>2026-04-11T15:01:39.999Z</time></trkpt><trkpt lat="44.52139099655331" lon="9.99463062759092"><ele>894.6666666666667</ele><time>2026-04-11T15:01:40.999Z</time></trkpt><trkpt lat="44.52156800277724" lon="9.994797318261352"><ele>898.3333333333334</ele><time>2026-04-11T15:01:41.999Z</time></trkpt><trkpt lat="44.52174024094907" lon="9.994955044434123"><ele>902.0</ele><time>2026-04-11T15:01:42.999Z</time></trkpt><trkpt lat="44.5218788421611" lon="9.995108148704007"><ele>902.0</ele><time>2026-04-11T15:01:43.999Z</time></trkpt><trkpt lat="44.52199361036861" lon="9.995275675214728"><ele>902.0</ele><time>2026-04-11T15:01:44.999Z</time></trkpt><trkpt lat="44.522082960597174" lon="9.995447235908355"><ele>902.0</ele><time>2026-04-11T15:01:45.999Z</time></trkpt><trkpt lat="44.52217498345277" lon="9.995584223479021"><ele>905.0</ele><time>2026-04-11T15:01:46.999Z</time></trkpt><trkpt lat="44.522285836059176" lon="9.995688708025833"><ele>908.0</ele><time>2026-04-11T15:01:47.999Z</time></trkpt><trkpt lat="44.522404433702306" lon="9.995750406454764"><ele>911.0</ele><time>2026-04-11T15:01:48.999Z</time></trkpt><trkpt lat="44.52252185347004" lon="9.995767494403427"><ele>914.0</ele><time>2026-04-11T15:01:49.999Z</time></trkpt><trkpt lat="44.52268992288609" lon="9.995747931045397"><ele>914.0</ele><time>2026-04-11T15:01:50.999Z</time></trkpt><trkpt lat="44.52288736339492" lon="9.995716384178289"><ele>914.0</ele><time>2026-04-11T15:01:51.999Z</time></trkpt><trkpt lat="44.523098072241716" lon="9.995708326152286"><ele>914.0</ele><time>2026-04-11T15:01:52.999Z</time></trkpt><trkpt lat="44.52331293371002" lon="9.99572653654367"><ele>915.5</ele><time>2026-04-11T15:01:53.999Z</time></trkpt><trkpt lat="44.52353663341339" lon="9.995729931373141"><ele>917.0</ele><time>2026-04-11T15:01:54.999Z</time></trkpt><trkpt lat="44.523769493478895" lon="9.9957243109898"><ele>917.0</ele><time>2026-04-11T15:01:55.999Z</time></trkpt><trkpt lat="44.523970557221" lon="9.995710024321458"><ele>917.0</ele><time>2026-04-11T15:01:56.999Z</time></trkpt><trkpt lat="44.52414738333752" lon="9.9957105504671"><ele>917.0</ele><time>2026-04-11T15:01:57.999Z</time></trkpt><trkpt lat="44.52430350077633" lon="9.995691921034561"><ele>917.0</ele><time>2026-04-11T15:01:58.999Z</time></trkpt><trkpt lat="44.52444681788478" lon="9.995590176431005"><ele>917.0</ele><time>2026-04-11T15:01:59.999Z</time></trkpt><trkpt lat="44.52456876851971" lon="9.995385743405105"><ele>917.0</ele><time>2026-04-11T15:02:00.999Z</time></trkpt><trkpt lat="44.524661763741136" lon="9.995122267237264"><ele>919.3333333333334</ele><time>2026-04-11T15:02:01.999Z</time></trkpt><trkpt lat="44.52475207587768" lon="9.994922013392333"><ele>921.6666666666667</ele><time>2026-04-11T15:02:02.999Z</time></trkpt><trkpt lat="44.52489809712501" lon="9.994828429121611"><ele>924.0</ele><time>2026-04-11T15:02:03.999Z</time></trkpt><trkpt lat="44.52511011264093" lon="9.994821898515628"><ele>924.0</ele><time>2026-04-11T15:02:04.999Z</time></trkpt><trkpt lat="44.525344293191715" lon="9.994846512295043"><ele>924.0</ele><time>2026-04-11T15:02:05.999Z</time></trkpt><trkpt lat="44.5255719302291" lon="9.994853518961836"><ele>922.6666666666667</ele><time>2026-04-11T15:02:06.999Z</time></trkpt><trkpt lat="44.5257826667717" lon="9.994827985959686"><ele>921.3333333333334</ele><time>2026-04-11T15:02:07.999Z</time></trkpt><trkpt lat="44.52599355788228" lon="9.994736200016993"><ele>920.0</ele><time>2026-04-11T15:02:08.999Z</time></trkpt><trkpt lat="44.52618284795245" lon="9.994583170694527"><ele>919.3333333333334</ele><time>2026-04-11T15:02:09.999Z</time></trkpt><trkpt lat="44.52634858664421" lon="9.994423175122515"><ele>918.6666666666667</ele><time>2026-04-11T15:02:10.999Z</time></trkpt><trkpt lat="44.52650451809415" lon="9.99429970061181"><ele>918.0</ele><time>2026-04-11T15:02:12Z</time></trkpt><trkpt lat="44.52666708301097" lon="9.994266771974734"><ele>918.0</ele><time>2026-04-11T15:02:13Z</time></trkpt><trkpt lat="44.52682292939257" lon="9.994309312916265"><ele>918.0</ele><time>2026-04-11T15:02:14Z</time></trkpt><trkpt lat="44.526967392216136" lon="9.9944407742147"><ele>918.0</ele><time>2026-04-11T15:02:15Z</time></trkpt><trkpt lat="44.52707088088771" lon="9.994653743850073"><ele>916.3333333333333</ele><time>2026-04-11T15:02:16Z</time></trkpt><trkpt lat="44.52715321053252" lon="9.994885865002695"><ele>914.6666666666666</ele><time>2026-04-11T15:02:17Z</time></trkpt><trkpt lat="44.52726889970657" lon="9.99505897620187"><ele>913.0</ele><time>2026-04-11T15:02:18Z</time></trkpt><trkpt lat="44.52744461620939" lon="9.995176477888785"><ele>913.0</ele><time>2026-04-11T15:02:19Z</time></trkpt><trkpt lat="44.527658313133976" lon="9.995227050867996"><ele>913.0</ele><time>2026-04-11T15:02:20Z</time></trkpt><trkpt lat="44.52788298928307" lon="9.995253402324547"><ele>913.0</ele><time>2026-04-11T15:02:21Z</time></trkpt><trkpt lat="44.52809270274298" lon="9.995326516230188"><ele>914.0</ele><time>2026-04-11T15:02:22Z</time></trkpt><trkpt lat="44.52827478735779" lon="9.995494818487467"><ele>915.0</ele><time>2026-04-11T15:02:23Z</time></trkpt><trkpt lat="44.52843992231959" lon="9.995703432507055"><ele>916.0</ele><time>2026-04-11T15:02:24Z</time></trkpt><trkpt lat="44.528570955547444" lon="9.995890224490378"><ele>916.0</ele><time>2026-04-11T15:02:25Z</time></trkpt><trkpt lat="44.52867999629473" lon="9.996008462256967"><ele>916.0</ele><time>2026-04-11T15:02:26Z</time></trkpt><trkpt lat="44.52882762431414" lon="9.996044788619141"><ele>916.0</ele><time>2026-04-11T15:02:27Z</time></trkpt><trkpt lat="44.52901180476308" lon="9.995969416877655"><ele>923.0</ele><time>2026-04-11T15:02:28Z</time></trkpt><trkpt lat="44.5291801636011" lon="9.995814457411672"><ele>930.0</ele><time>2026-04-11T15:02:29Z</time></trkpt><trkpt lat="44.529338258762536" lon="9.995692424722264"><ele>937.0</ele><time>2026-04-11T15:02:30Z</time></trkpt><trkpt lat="44.52949824743306" lon="9.995708792907266"><ele>935.0</ele><time>2026-04-11T15:02:31Z</time></trkpt><trkpt lat="44.52967707878681" lon="9.99583346805896"><ele>933.0</ele><time>2026-04-11T15:02:32Z</time></trkpt><trkpt lat="44.52985872255766" lon="9.9960272134738"><ele>931.0</ele><time>2026-04-11T15:02:33Z</time></trkpt><trkpt lat="44.53004242709822" lon="9.99622573973569"><ele>931.0</ele><time>2026-04-11T15:02:34Z</time></trkpt><trkpt lat="44.53023212132092" lon="9.996398364483843"><ele>931.0</ele><time>2026-04-11T15:02:35Z</time></trkpt><trkpt lat="44.53041158418239" lon="9.996548254113517"><ele>931.0</ele><time>2026-04-11T15:02:36Z</time></trkpt><trkpt lat="44.53058257859024" lon="9.996694090813655"><ele>929.0</ele><time>2026-04-11T15:02:37Z</time></trkpt><trkpt lat="44.53074470149323" lon="9.996825672539089"><ele>927.0</ele><time>2026-04-11T15:02:38Z</time></trkpt><trkpt lat="44.53090434462402" lon="9.996915267886067"><ele>925.0</ele><time>2026-04-11T15:02:39Z</time></trkpt><trkpt lat="44.531069539785605" lon="9.996925091377715"><ele>930.3333333333333</ele><time>2026-04-11T15:02:40Z</time></trkpt><trkpt lat="44.531254015107585" lon="9.996867215645322"><ele>935.6666666666667</ele><time>2026-04-11T15:02:41Z</time></trkpt><trkpt lat="44.531388916679234" lon="9.996849382673535"><ele>941.0</ele><time>2026-04-11T15:02:42Z</time></trkpt><trkpt lat="44.531502738745054" lon="9.996951378858224"><ele>941.0</ele><time>2026-04-11T15:02:43Z</time></trkpt><trkpt lat="44.53157811746694" lon="9.997149373696711"><ele>941.0</ele><time>2026-04-11T15:02:44Z</time></trkpt><trkpt lat="44.53159866050152" lon="9.997413804247618"><ele>941.0</ele><time>2026-04-11T15:02:45Z</time></trkpt><trkpt lat="44.53160248215536" lon="9.997667145278907"><ele>938.3333333333334</ele><time>2026-04-11T15:02:46Z</time></trkpt><trkpt lat="44.5316513869006" lon="9.997877767769282"><ele>935.6666666666667</ele><time>2026-04-11T15:02:47Z</time></trkpt><trkpt lat="44.53175232253775" lon="9.99806627089317"><ele>933.0</ele><time>2026-04-11T15:02:48Z</time></trkpt><trkpt lat="44.53190723799579" lon="9.998224462650708"><ele>928.6666666666667</ele><time>2026-04-11T15:02:49Z</time></trkpt><trkpt lat="44.53208890734846" lon="9.998338841091822"><ele>924.3333333333334</ele><time>2026-04-11T15:02:50Z</time></trkpt><trkpt lat="44.53225255580455" lon="9.998396091212337"><ele>920.0</ele><time>2026-04-11T15:02:51Z</time></trkpt><trkpt lat="44.532405693062856" lon="9.99836220572235"><ele>926.6666666666667</ele><time>2026-04-11T15:02:52Z</time></trkpt><trkpt lat="44.532576508552474" lon="9.998239675410257"><ele>933.3333333333333</ele><time>2026-04-11T15:02:53Z</time></trkpt><trkpt lat="44.53274982894208" lon="9.99808840848754"><ele>940.0</ele><time>2026-04-11T15:02:54Z</time></trkpt><trkpt lat="44.532950630643256" lon="9.998066070791323"><ele>940.0</ele><time>2026-04-11T15:02:55Z</time></trkpt><trkpt lat="44.53319153182004" lon="9.998061148413685"><ele>940.0</ele><time>2026-04-11T15:02:56Z</time></trkpt><trkpt lat="44.53343089881411" lon="9.99809920392439"><ele>940.0</ele><time>2026-04-11T15:02:57Z</time></trkpt><trkpt lat="44.533682147604274" lon="9.998119776625964"><ele>940.0</ele><time>2026-04-11T15:02:58Z</time></trkpt><trkpt lat="44.53392524856175" lon="9.99812858281602"><ele>940.0</ele><time>2026-04-11T15:02:59Z</time></trkpt><trkpt lat="44.53415749893486" lon="9.998127957807993"><ele>940.0</ele><time>2026-04-11T15:03:00Z</time></trkpt><trkpt lat="44.53437062756692" lon="9.998132246514942"><ele>940.0</ele><time>2026-04-11T15:03:01Z</time></trkpt><trkpt lat="44.534563344063045" lon="9.998156452548695"><ele>939.3333333333333</ele><time>2026-04-11T15:03:02Z</time></trkpt><trkpt lat="44.53474012670123" lon="9.998229417303778"><ele>938.6666666666667</ele><time>2026-04-11T15:03:03Z</time></trkpt><trkpt lat="44.534911715412555" lon="9.998391221040576"><ele>938.0</ele><time>2026-04-11T15:03:04Z</time></trkpt><trkpt lat="44.5350760092055" lon="9.99857533285616"><ele>938.0</ele><time>2026-04-11T15:03:05Z</time></trkpt><trkpt lat="44.53524368810433" lon="9.99874479312163"><ele>938.0</ele><time>2026-04-11T15:03:06Z</time></trkpt><trkpt lat="44.535368013317516" lon="9.998883916811591"><ele>938.0</ele><time>2026-04-11T15:03:07Z</time></trkpt><trkpt lat="44.53550840783746" lon="9.998953670945351"><ele>940.0</ele><time>2026-04-11T15:03:08Z</time></trkpt><trkpt lat="44.53565275016895" lon="9.998922683261963"><ele>942.0</ele><time>2026-04-11T15:03:09Z</time></trkpt><trkpt lat="44.53580044279091" lon="9.998801511700677"><ele>944.0</ele><time>2026-04-11T15:03:10Z</time></trkpt><trkpt lat="44.53592713266942" lon="9.998587749925623"><ele>944.0</ele><time>2026-04-11T15:03:11Z</time></trkpt><trkpt lat="44.53606487407925" lon="9.998341813519794"><ele>944.0</ele><time>2026-04-11T15:03:12Z</time></trkpt><trkpt lat="44.53622029199195" lon="9.99816804475978"><ele>944.0</ele><time>2026-04-11T15:03:13Z</time></trkpt><trkpt lat="44.53637934730939" lon="9.998062914028726"><ele>945.3333333333334</ele><time>2026-04-11T15:03:14Z</time></trkpt><trkpt lat="44.536578234531866" lon="9.99804623276628"><ele>946.6666666666667</ele><time>2026-04-11T15:03:15Z</time></trkpt><trkpt lat="44.53679279632846" lon="9.998085899298617"><ele>948.0</ele><time>2026-04-11T15:03:16Z</time></trkpt><trkpt lat="44.53698852529896" lon="9.998220603070886"><ele>948.5</ele><time>2026-04-11T15:03:17Z</time></trkpt><trkpt lat="44.537201636911654" lon="9.998394539368105"><ele>949.0</ele><time>2026-04-11T15:03:18Z</time></trkpt><trkpt lat="44.537417915557626" lon="9.998550925809058"><ele>949.0</ele><time>2026-04-11T15:03:19Z</time></trkpt><trkpt lat="44.53759720892068" lon="9.998723550084593"><ele>949.0</ele><time>2026-04-11T15:03:20Z</time></trkpt><trkpt lat="44.53771424682164" lon="9.99897709833176"><ele>949.0</ele><time>2026-04-11T15:03:20.999Z</time></trkpt><trkpt lat="44.537815228833274" lon="9.999286261478165"><ele>951.0</ele><time>2026-04-11T15:03:21.999Z</time></trkpt><trkpt lat="44.537934876383936" lon="9.999621877702161"><ele>953.0</ele><time>2026-04-11T15:03:22.999Z</time></trkpt><trkpt lat="44.53804820988462" lon="9.999994768245884"><ele>953.0</ele><time>2026-04-11T15:03:23.999Z</time></trkpt><trkpt lat="44.53815544967486" lon="10.000336970204813"><ele>953.0</ele><time>2026-04-11T15:03:24.999Z</time></trkpt><trkpt lat="44.538247483325456" lon="10.000654701220151"><ele>954.5</ele><time>2026-04-11T15:03:25.999Z</time></trkpt><trkpt lat="44.53842004521261" lon="10.00114569248085"><ele>956.0</ele><time>2026-04-11T15:03:26.999Z</time></trkpt><trkpt lat="44.538524153274565" lon="10.001463924246755"><ele>955.0</ele><time>2026-04-11T15:03:27.999Z</time></trkpt><trkpt lat="44.538574699455" lon="10.001737164527068"><ele>954.0</ele><time>2026-04-11T15:03:28.999Z</time></trkpt><trkpt lat="44.53856308835713" lon="10.001987280058543"><ele>953.0</ele><time>2026-04-11T15:03:29.999Z</time></trkpt><trkpt lat="44.53849432015535" lon="10.002222747579028"><ele>954.5</ele><time>2026-04-11T15:03:30.999Z</time></trkpt><trkpt lat="44.538421908740744" lon="10.0025327143625"><ele>956.0</ele><time>2026-04-11T15:03:31.999Z</time></trkpt><trkpt lat="44.5383546965255" lon="10.002832013314574"><ele>956.0</ele><time>2026-04-11T15:03:32.999Z</time></trkpt><trkpt lat="44.538317415840936" lon="10.003103930811633"><ele>956.0</ele><time>2026-04-11T15:03:33.999Z</time></trkpt><trkpt lat="44.53829885257955" lon="10.003362785610443"><ele>956.0</ele><time>2026-04-11T15:03:34.999Z</time></trkpt><trkpt lat="44.53833623300438" lon="10.003663082640589"><ele>957.5</ele><time>2026-04-11T15:03:35.999Z</time></trkpt><trkpt lat="44.538433115755765" lon="10.003974085283257"><ele>959.0</ele><time>2026-04-11T15:03:36.999Z</time></trkpt><trkpt lat="44.53856161122678" lon="10.004236650361968"><ele>961.6666666666667</ele><time>2026-04-11T15:03:37.999Z</time></trkpt><trkpt lat="44.538722916229524" lon="10.004424413340477"><ele>964.3333333333333</ele><time>2026-04-11T15:03:38.999Z</time></trkpt><trkpt lat="44.53891562956478" lon="10.004494684783802"><ele>967.0</ele><time>2026-04-11T15:03:39.999Z</time></trkpt><trkpt lat="44.53915459454425" lon="10.004547991318164"><ele>967.0</ele><time>2026-04-11T15:03:40.999Z</time></trkpt><trkpt lat="44.53942098134587" lon="10.004585647567483"><ele>967.0</ele><time>2026-04-11T15:03:41.999Z</time></trkpt><trkpt lat="44.539705130188146" lon="10.004632453902579"><ele>965.5</ele><time>2026-04-11T15:03:42.999Z</time></trkpt><trkpt lat="44.53997330488625" lon="10.004714931026149"><ele>964.0</ele><time>2026-04-11T15:03:43.999Z</time></trkpt><trkpt lat="44.54020622697215" lon="10.004820331121952"><ele>959.6666666666666</ele><time>2026-04-11T15:03:44.999Z</time></trkpt><trkpt lat="44.54039636538698" lon="10.004921689753633"><ele>955.3333333333333</ele><time>2026-04-11T15:03:45.999Z</time></trkpt><trkpt lat="44.54058584085257" lon="10.00493661925889"><ele>951.0</ele><time>2026-04-11T15:03:46.999Z</time></trkpt><trkpt lat="44.54077355947141" lon="10.00483678892855"><ele>951.0</ele><time>2026-04-11T15:03:47.999Z</time></trkpt><trkpt lat="44.54101318624664" lon="10.004618601684907"><ele>951.0</ele><time>2026-04-11T15:03:48.999Z</time></trkpt><trkpt lat="44.54123869164817" lon="10.004503431925569"><ele>946.6666666666667</ele><time>2026-04-11T15:03:49.999Z</time></trkpt><trkpt lat="44.54141094284158" lon="10.004490711864449"><ele>942.3333333333334</ele><time>2026-04-11T15:03:50.999Z</time></trkpt><trkpt lat="44.54160122564059" lon="10.004549584331384"><ele>938.0</ele><time>2026-04-11T15:03:51.999Z</time></trkpt><trkpt lat="44.54176561709481" lon="10.004593014832755"><ele>938.0</ele><time>2026-04-11T15:03:52.999Z</time></trkpt><trkpt lat="44.54188708995376" lon="10.004609070230373"><ele>938.0</ele><time>2026-04-11T15:03:53.999Z</time></trkpt><trkpt lat="44.542007224558695" lon="10.004524872558054"><ele>938.0</ele><time>2026-04-11T15:03:54.999Z</time></trkpt><trkpt lat="44.54211148801983" lon="10.004347863520689"><ele>938.0</ele><time>2026-04-11T15:03:55.999Z</time></trkpt><trkpt lat="44.542144413311235" lon="10.004125148576646"><ele>936.3333333333334</ele><time>2026-04-11T15:03:56.999Z</time></trkpt><trkpt lat="44.5421023015991" lon="10.003898554386145"><ele>934.6666666666667</ele><time>2026-04-11T15:03:57.999Z</time></trkpt><trkpt lat="44.541988161033224" lon="10.003707993091227"><ele>933.0</ele><time>2026-04-11T15:03:58.999Z</time></trkpt><trkpt lat="44.54180726781154" lon="10.00352222343204"><ele>930.0</ele><time>2026-04-11T15:03:59.999Z</time></trkpt><trkpt lat="44.54161119150535" lon="10.003324012790177"><ele>927.0</ele><time>2026-04-11T15:04:00.999Z</time></trkpt><trkpt lat="44.54142774043606" lon="10.003123317760792"><ele>927.0</ele><time>2026-04-11T15:04:01.999Z</time></trkpt><trkpt lat="44.54126249335027" lon="10.002970570345754"><ele>927.0</ele><time>2026-04-11T15:04:02.999Z</time></trkpt><trkpt lat="44.541123465943514" lon="10.002877370988143"><ele>927.0</ele><time>2026-04-11T15:04:03.999Z</time></trkpt><trkpt lat="44.54102705700816" lon="10.002774162374296"><ele>925.6</ele><time>2026-04-11T15:04:04.999Z</time></trkpt><trkpt lat="44.540971380263976" lon="10.002690545212834"><ele>924.2</ele><time>2026-04-11T15:04:05.999Z</time></trkpt><trkpt lat="44.540960297238776" lon="10.00257999296953"><ele>922.8</ele><time>2026-04-11T15:04:06.999Z</time></trkpt><trkpt lat="44.54103029674823" lon="10.002440228631727"><ele>921.4</ele><time>2026-04-11T15:04:07.999Z</time></trkpt><trkpt lat="44.54116283278786" lon="10.002387756226165"><ele>920.0</ele><time>2026-04-11T15:04:08.999Z</time></trkpt><trkpt lat="44.541338180147" lon="10.00248748459839"><ele>923.5</ele><time>2026-04-11T15:04:09.999Z</time></trkpt><trkpt lat="44.5415586898903" lon="10.002532228496072"><ele>927.0</ele><time>2026-04-11T15:04:10.999Z</time></trkpt><trkpt lat="44.541781506006366" lon="10.002592513915658"><ele>927.0</ele><time>2026-04-11T15:04:11.999Z</time></trkpt><trkpt lat="44.54197847013728" lon="10.002635913522603"><ele>927.0</ele><time>2026-04-11T15:04:12.999Z</time></trkpt><trkpt lat="44.54214595522496" lon="10.002681022694908"><ele>927.0</ele><time>2026-04-11T15:04:13.999Z</time></trkpt><trkpt lat="44.542262013806805" lon="10.002789947454898"><ele>924.6666666666667</ele><time>2026-04-11T15:04:14.999Z</time></trkpt><trkpt lat="44.54232349287667" lon="10.00296650764566"><ele>922.3333333333334</ele><time>2026-04-11T15:04:15.999Z</time></trkpt><trkpt lat="44.542371102021775" lon="10.003249048409954"><ele>920.0</ele><time>2026-04-11T15:04:16.999Z</time></trkpt><trkpt lat="44.54246418012359" lon="10.003545284433423"><ele>920.0</ele><time>2026-04-11T15:04:18Z</time></trkpt><trkpt lat="44.542569256919954" lon="10.003820778770622"><ele>920.0</ele><time>2026-04-11T15:04:19Z</time></trkpt><trkpt lat="44.5427426729139" lon="10.0040340319772"><ele>916.0</ele><time>2026-04-11T15:04:20Z</time></trkpt><trkpt lat="44.542972701534474" lon="10.004216122800855"><ele>912.0</ele><time>2026-04-11T15:04:21Z</time></trkpt><trkpt lat="44.54321419381833" lon="10.004291241332318"><ele>912.0</ele><time>2026-04-11T15:04:22Z</time></trkpt><trkpt lat="44.543421407597" lon="10.004290550639173"><ele>912.0</ele><time>2026-04-11T15:04:23Z</time></trkpt><trkpt lat="44.543651145948196" lon="10.004248717507304"><ele>912.0</ele><time>2026-04-11T15:04:24Z</time></trkpt><trkpt lat="44.54384940794275" lon="10.004203303977508"><ele>909.6666666666667</ele><time>2026-04-11T15:04:25Z</time></trkpt><trkpt lat="44.54403088668541" lon="10.00421847484566"><ele>907.3333333333334</ele><time>2026-04-11T15:04:26Z</time></trkpt><trkpt lat="44.54418936557429" lon="10.004116698016293"><ele>905.0</ele><time>2026-04-11T15:04:27Z</time></trkpt><trkpt lat="44.544341741835545" lon="10.004128421908954"><ele>905.0</ele><time>2026-04-11T15:04:28Z</time></trkpt><trkpt lat="44.54453399507803" lon="10.00419431727681"><ele>905.0</ele><time>2026-04-11T15:04:29Z</time></trkpt><trkpt lat="44.54473221027732" lon="10.00428982267015"><ele>905.0</ele><time>2026-04-11T15:04:30Z</time></trkpt><trkpt lat="44.54496629534543" lon="10.004397068719873"><ele>902.6666666666667</ele><time>2026-04-11T15:04:31Z</time></trkpt><trkpt lat="44.54515874180439" lon="10.00451427903816"><ele>900.3333333333333</ele><time>2026-04-11T15:04:32Z</time></trkpt><trkpt lat="44.54533653443717" lon="10.004591920221904"><ele>898.0</ele><time>2026-04-11T15:04:33Z</time></trkpt><trkpt lat="44.54551552187797" lon="10.004559637318442"><ele>897.0</ele><time>2026-04-11T15:04:34Z</time></trkpt><trkpt lat="44.54569576631974" lon="10.004411937999866"><ele>896.0</ele><time>2026-04-11T15:04:35Z</time></trkpt><trkpt lat="44.54588150795067" lon="10.00417618907051"><ele>892.3333333333334</ele><time>2026-04-11T15:04:36Z</time></trkpt><trkpt lat="44.54604798346385" lon="10.00395356996176"><ele>888.6666666666667</ele><time>2026-04-11T15:04:37Z</time></trkpt><trkpt lat="44.54622439319856" lon="10.003819548905387"><ele>885.0</ele><time>2026-04-11T15:04:38Z</time></trkpt><trkpt lat="44.54643340687436" lon="10.003750497048449"><ele>881.0</ele><time>2026-04-11T15:04:39Z</time></trkpt><trkpt lat="44.5466850406729" lon="10.00375060945143"><ele>877.0</ele><time>2026-04-11T15:04:40Z</time></trkpt><trkpt lat="44.54692931918517" lon="10.003807827608867"><ele>875.0</ele><time>2026-04-11T15:04:41Z</time></trkpt><trkpt lat="44.547159206075115" lon="10.003911232517384"><ele>873.0</ele><time>2026-04-11T15:04:42Z</time></trkpt><trkpt lat="44.547384810401276" lon="10.003986214000738"><ele>873.0</ele><time>2026-04-11T15:04:43Z</time></trkpt><trkpt lat="44.54760282170801" lon="10.003982788579679"><ele>873.0</ele><time>2026-04-11T15:04:44Z</time></trkpt><trkpt lat="44.547801422897514" lon="10.003894012766876"><ele>873.0</ele><time>2026-04-11T15:04:45Z</time></trkpt><trkpt lat="44.54799131053864" lon="10.003843264377814"><ele>871.3333333333333</ele><time>2026-04-11T15:04:46Z</time></trkpt><trkpt lat="44.54818890036475" lon="10.003888161870535"><ele>869.6666666666666</ele><time>2026-04-11T15:04:47Z</time></trkpt><trkpt lat="44.548381354245315" lon="10.004023625909353"><ele>868.0</ele><time>2026-04-11T15:04:48Z</time></trkpt><trkpt lat="44.54853204220549" lon="10.004127526390938"><ele>868.0</ele><time>2026-04-11T15:04:49Z</time></trkpt><trkpt lat="44.54869782344968" lon="10.00412758228257"><ele>868.0</ele><time>2026-04-11T15:04:50Z</time></trkpt><trkpt lat="44.54889079794108" lon="10.004003549770404"><ele>868.0</ele><time>2026-04-11T15:04:51Z</time></trkpt><trkpt lat="44.549091780716076" lon="10.003813213934885"><ele>866.3333333333333</ele><time>2026-04-11T15:04:52Z</time></trkpt><trkpt lat="44.5492728627974" lon="10.003660198081727"><ele>864.6666666666667</ele><time>2026-04-11T15:04:53Z</time></trkpt><trkpt lat="44.54945740625657" lon="10.00355351163769"><ele>863.0</ele><time>2026-04-11T15:04:54Z</time></trkpt><trkpt lat="44.549648853295785" lon="10.003529310552342"><ele>862.6666666666667</ele><time>2026-04-11T15:04:55Z</time></trkpt><trkpt lat="44.549823456761985" lon="10.00361445130605"><ele>862.3333333333333</ele><time>2026-04-11T15:04:56Z</time></trkpt><trkpt lat="44.549972239969605" lon="10.003677435053975"><ele>862.0</ele><time>2026-04-11T15:04:57Z</time></trkpt><trkpt lat="44.55013762303976" lon="10.003663527480567"><ele>862.0</ele><time>2026-04-11T15:04:58Z</time></trkpt><trkpt lat="44.55031822440572" lon="10.003548852904721"><ele>862.0</ele><time>2026-04-11T15:04:59Z</time></trkpt><trkpt lat="44.5504759365035" lon="10.00335635836278"><ele>862.0</ele><time>2026-04-11T15:05:00Z</time></trkpt><trkpt lat="44.55059455246364" lon="10.003116237588173"><ele>859.3333333333333</ele><time>2026-04-11T15:05:01Z</time></trkpt><trkpt lat="44.550703591125696" lon="10.002858987831114"><ele>856.6666666666667</ele><time>2026-04-11T15:05:02Z</time></trkpt><trkpt lat="44.550825013427186" lon="10.002610630784238"><ele>854.0</ele><time>2026-04-11T15:05:03Z</time></trkpt><trkpt lat="44.55095368917163" lon="10.002396525790857"><ele>850.3333333333334</ele><time>2026-04-11T15:05:04Z</time></trkpt><trkpt lat="44.55107699580145" lon="10.002192798971128"><ele>846.6666666666667</ele><time>2026-04-11T15:05:05Z</time></trkpt><trkpt lat="44.55117319601906" lon="10.002025051193462"><ele>843.0</ele><time>2026-04-11T15:05:06Z</time></trkpt><trkpt lat="44.551279070893386" lon="10.001944407561593"><ele>843.0</ele><time>2026-04-11T15:05:07Z</time></trkpt><trkpt lat="44.55141974320557" lon="10.001955727075638"><ele>843.0</ele><time>2026-04-11T15:05:08Z</time></trkpt><trkpt lat="44.55157967415701" lon="10.002047725211696"><ele>843.0</ele><time>2026-04-11T15:05:09Z</time></trkpt><trkpt lat="44.5517582881309" lon="10.002196663894702"><ele>843.0</ele><time>2026-04-11T15:05:10Z</time></trkpt><trkpt lat="44.551960866936525" lon="10.00222633573693"><ele>843.0</ele><time>2026-04-11T15:05:11Z</time></trkpt><trkpt lat="44.552170640884235" lon="10.002228112888735"><ele>843.0</ele><time>2026-04-11T15:05:12Z</time></trkpt><trkpt lat="44.55238622193706" lon="10.002196343350285"><ele>842.3333333333333</ele><time>2026-04-11T15:05:13Z</time></trkpt><trkpt lat="44.55257350346554" lon="10.002175015485117"><ele>841.6666666666666</ele><time>2026-04-11T15:05:14Z</time></trkpt><trkpt lat="44.552727570577616" lon="10.002114493713604"><ele>841.0</ele><time>2026-04-11T15:05:15Z</time></trkpt><trkpt lat="44.552868259622656" lon="10.001963540344542"><ele>840.0</ele><time>2026-04-11T15:05:16Z</time></trkpt><trkpt lat="44.55299155733103" lon="10.00174890788226"><ele>839.0</ele><time>2026-04-11T15:05:17Z</time></trkpt><trkpt lat="44.55310724097893" lon="10.001519718409968"><ele>838.0</ele><time>2026-04-11T15:05:18Z</time></trkpt><trkpt lat="44.55323809395078" lon="10.001362978238328"><ele>834.75</ele><time>2026-04-11T15:05:19Z</time></trkpt><trkpt lat="44.55336709355974" lon="10.001313156701363"><ele>831.5</ele><time>2026-04-11T15:05:20Z</time></trkpt><trkpt lat="44.55347595580761" lon="10.001343248289537"><ele>828.25</ele><time>2026-04-11T15:05:21Z</time></trkpt><trkpt lat="44.55357216851764" lon="10.001410703995791"><ele>825.0</ele><time>2026-04-11T15:05:22Z</time></trkpt><trkpt lat="44.55366631096642" lon="10.001534391350837"><ele>823.3333333333333</ele><time>2026-04-11T15:05:23Z</time></trkpt><trkpt lat="44.553751406538645" lon="10.001709426148151"><ele>821.6666666666666</ele><time>2026-04-11T15:05:23.999Z</time></trkpt><trkpt lat="44.55381639149773" lon="10.001968621107606"><ele>820.0</ele><time>2026-04-11T15:05:24.999Z</time></trkpt><trkpt lat="44.55388091700225" lon="10.002278783237445"><ele>821.6666666666666</ele><time>2026-04-11T15:05:25.999Z</time></trkpt><trkpt lat="44.55395166284253" lon="10.00258723469748"><ele>823.3333333333333</ele><time>2026-04-11T15:05:26.999Z</time></trkpt><trkpt lat="44.55402976915326" lon="10.002848570564781"><ele>825.0</ele><time>2026-04-11T15:05:27.999Z</time></trkpt><trkpt lat="44.5541092635675" lon="10.00310271084097"><ele>825.0</ele><time>2026-04-11T15:05:28.999Z</time></trkpt><trkpt lat="44.5542161461284" lon="10.003328097879256"><ele>825.0</ele><time>2026-04-11T15:05:29.999Z</time></trkpt><trkpt lat="44.554371304856836" lon="10.003491767745437"><ele>825.0</ele><time>2026-04-11T15:05:30.999Z</time></trkpt><trkpt lat="44.554561717073014" lon="10.003620935680424"><ele>821.6666666666667</ele><time>2026-04-11T15:05:31.999Z</time></trkpt><trkpt lat="44.55472513534694" lon="10.003758554121935"><ele>818.3333333333334</ele><time>2026-04-11T15:05:32.999Z</time></trkpt><trkpt lat="44.554881162294926" lon="10.003897637581591"><ele>815.0</ele><time>2026-04-11T15:05:33.999Z</time></trkpt><trkpt lat="44.555049813187246" lon="10.003990324895659"><ele>815.0</ele><time>2026-04-11T15:05:34.999Z</time></trkpt><trkpt lat="44.55524566454578" lon="10.00398744538909"><ele>815.0</ele><time>2026-04-11T15:05:35.999Z</time></trkpt><trkpt lat="44.555411930619144" lon="10.003999198010046"><ele>815.0</ele><time>2026-04-11T15:05:36.999Z</time></trkpt><trkpt lat="44.555529758430254" lon="10.004079350992038"><ele>812.5</ele><time>2026-04-11T15:05:37.999Z</time></trkpt><trkpt lat="44.55558906792858" lon="10.004203927080383"><ele>810.0</ele><time>2026-04-11T15:05:38.999Z</time></trkpt><trkpt lat="44.55561157363366" lon="10.004393686269504"><ele>807.5</ele><time>2026-04-11T15:05:39.999Z</time></trkpt><trkpt lat="44.55561875937298" lon="10.00463454126955"><ele>805.0</ele><time>2026-04-11T15:05:40.999Z</time></trkpt><trkpt lat="44.55555289026789" lon="10.004835780900445"><ele>804.3333333333333</ele><time>2026-04-11T15:05:41.999Z</time></trkpt><trkpt lat="44.5555031603941" lon="10.005054949174449"><ele>803.6666666666667</ele><time>2026-04-11T15:05:42.999Z</time></trkpt><trkpt lat="44.55543904995235" lon="10.005252023394458"><ele>803.0</ele><time>2026-04-11T15:05:43.999Z</time></trkpt><trkpt lat="44.55541269713156" lon="10.005442226312695"><ele>803.0</ele><time>2026-04-11T15:05:44.999Z</time></trkpt><trkpt lat="44.55544721198461" lon="10.005639646431165"><ele>803.0</ele><time>2026-04-11T15:05:45.999Z</time></trkpt><trkpt lat="44.555516247525475" lon="10.005850374643263"><ele>803.0</ele><time>2026-04-11T15:05:46.999Z</time></trkpt><trkpt lat="44.55558168131722" lon="10.00607435868573"><ele>803.0</ele><time>2026-04-11T15:05:47.999Z</time></trkpt><trkpt lat="44.55567026467344" lon="10.006276152335458"><ele>803.0</ele><time>2026-04-11T15:05:48.999Z</time></trkpt><trkpt lat="44.55581449365138" lon="10.006444106623958"><ele>803.0</ele><time>2026-04-11T15:05:49.999Z</time></trkpt><trkpt lat="44.555991888649835" lon="10.00659780767893"><ele>806.3333333333334</ele><time>2026-04-11T15:05:50.999Z</time></trkpt><trkpt lat="44.55617853077098" lon="10.006781577614941"><ele>809.6666666666667</ele><time>2026-04-11T15:05:51.999Z</time></trkpt><trkpt lat="44.556330422778956" lon="10.006949803153761"><ele>813.0</ele><time>2026-04-11T15:05:52.999Z</time></trkpt><trkpt lat="44.55643774150975" lon="10.007109845473748"><ele>810.0</ele><time>2026-04-11T15:05:53.999Z</time></trkpt><trkpt lat="44.556486507238255" lon="10.007279495495444"><ele>807.0</ele><time>2026-04-11T15:05:54.999Z</time></trkpt><trkpt lat="44.55649012880157" lon="10.00744920026692"><ele>804.0</ele><time>2026-04-11T15:05:55.999Z</time></trkpt><trkpt lat="44.55653056630609" lon="10.007581586619827"><ele>801.0</ele><time>2026-04-11T15:05:56.999Z</time></trkpt><trkpt lat="44.556572940594464" lon="10.007695185442632"><ele>798.0</ele><time>2026-04-11T15:05:57.999Z</time></trkpt><trkpt lat="44.556658510951564" lon="10.00777633205226"><ele>798.0</ele><time>2026-04-11T15:05:58.999Z</time></trkpt><trkpt lat="44.556763091153904" lon="10.007786222664942"><ele>798.0</ele><time>2026-04-11T15:05:59.999Z</time></trkpt><trkpt lat="44.556893059085674" lon="10.007742035306542"><ele>798.0</ele><time>2026-04-11T15:06:00.999Z</time></trkpt><trkpt lat="44.557056269523265" lon="10.007668340953717"><ele>798.0</ele><time>2026-04-11T15:06:01.999Z</time></trkpt><trkpt lat="44.5572248901472" lon="10.007642859269957"><ele>794.5</ele><time>2026-04-11T15:06:02.999Z</time></trkpt><trkpt lat="44.557369646289956" lon="10.007667028683503"><ele>791.0</ele><time>2026-04-11T15:06:03.999Z</time></trkpt><trkpt lat="44.55748367801308" lon="10.007758685764099"><ele>787.5</ele><time>2026-04-11T15:06:04.999Z</time></trkpt><trkpt lat="44.55755587773525" lon="10.00788325816406"><ele>784.0</ele><time>2026-04-11T15:06:05.999Z</time></trkpt><trkpt lat="44.557535250678264" lon="10.008093976903929"><ele>784.0</ele><time>2026-04-11T15:06:06.999Z</time></trkpt><trkpt lat="44.55757224651073" lon="10.008319910369677"><ele>784.0</ele><time>2026-04-11T15:06:07.999Z</time></trkpt><trkpt lat="44.557646345338256" lon="10.008529414685265"><ele>784.0</ele><time>2026-04-11T15:06:08.999Z</time></trkpt><trkpt lat="44.557775240800396" lon="10.008701544504143"><ele>783.0</ele><time>2026-04-11T15:06:09.999Z</time></trkpt><trkpt lat="44.55791941599485" lon="10.008850210416044"><ele>782.0</ele><time>2026-04-11T15:06:10.999Z</time></trkpt><trkpt lat="44.55801767398221" lon="10.009015179910907"><ele>781.0</ele><time>2026-04-11T15:06:11.999Z</time></trkpt><trkpt lat="44.55808945577214" lon="10.009247391941537"><ele>781.0</ele><time>2026-04-11T15:06:12.999Z</time></trkpt><trkpt lat="44.55814119814065" lon="10.009507394059233"><ele>781.0</ele><time>2026-04-11T15:06:13.999Z</time></trkpt><trkpt lat="44.55820409653467" lon="10.009739104661028"><ele>781.0</ele><time>2026-04-11T15:06:14.999Z</time></trkpt><trkpt lat="44.5583097957992" lon="10.009934839264572"><ele>782.0</ele><time>2026-04-11T15:06:15.999Z</time></trkpt><trkpt lat="44.55844734405074" lon="10.010084845410573"><ele>783.0</ele><time>2026-04-11T15:06:16.999Z</time></trkpt><trkpt lat="44.55860633186215" lon="10.010213848863703"><ele>784.0</ele><time>2026-04-11T15:06:17.999Z</time></trkpt><trkpt lat="44.558757737116636" lon="10.01034182212839"><ele>777.0</ele><time>2026-04-11T15:06:18.999Z</time></trkpt><trkpt lat="44.558904798531984" lon="10.010472656319019"><ele>770.0</ele><time>2026-04-11T15:06:19.999Z</time></trkpt><trkpt lat="44.559061765371446" lon="10.01057601356368"><ele>763.0</ele><time>2026-04-11T15:06:20.999Z</time></trkpt><trkpt lat="44.559221427383996" lon="10.010661613696252"><ele>763.0</ele><time>2026-04-11T15:06:21.999Z</time></trkpt><trkpt lat="44.55934343473932" lon="10.010797627486479"><ele>763.0</ele><time>2026-04-11T15:06:22.999Z</time></trkpt><trkpt lat="44.55942176222901" lon="10.010966529454537"><ele>763.0</ele><time>2026-04-11T15:06:24Z</time></trkpt><trkpt lat="44.559480411616924" lon="10.011187751631669"><ele>759.6666666666667</ele><time>2026-04-11T15:06:25Z</time></trkpt><trkpt lat="44.55953938879887" lon="10.01140022176333"><ele>756.3333333333334</ele><time>2026-04-11T15:06:26Z</time></trkpt><trkpt lat="44.55957313983254" lon="10.011604540696801"><ele>753.0</ele><time>2026-04-11T15:06:27Z</time></trkpt><trkpt lat="44.55957972361425" lon="10.011828737769536"><ele>753.0</ele><time>2026-04-11T15:06:28Z</time></trkpt><trkpt lat="44.5595596281812" lon="10.012055323198542"><ele>753.0</ele><time>2026-04-11T15:06:29Z</time></trkpt><trkpt lat="44.55956432171665" lon="10.012269652056926"><ele>753.0</ele><time>2026-04-11T15:06:30Z</time></trkpt><trkpt lat="44.55960025235964" lon="10.01247121142314"><ele>752.25</ele><time>2026-04-11T15:06:31Z</time></trkpt><trkpt lat="44.559650322591644" lon="10.0126497217531"><ele>751.5</ele><time>2026-04-11T15:06:32Z</time></trkpt><trkpt lat="44.55969320065186" lon="10.01280454189148"><ele>750.75</ele><time>2026-04-11T15:06:33Z</time></trkpt><trkpt lat="44.55973085424123" lon="10.012951364970606"><ele>750.0</ele><time>2026-04-11T15:06:34Z</time></trkpt><trkpt lat="44.55976865665655" lon="10.013097090142004"><ele>750.0</ele><time>2026-04-11T15:06:35Z</time></trkpt><trkpt lat="44.559805197654605" lon="10.013243738657"><ele>750.0</ele><time>2026-04-11T15:06:36Z</time></trkpt><trkpt lat="44.55984162471886" lon="10.013386696863341"><ele>750.0</ele><time>2026-04-11T15:06:37Z</time></trkpt><trkpt lat="44.55988310917901" lon="10.013528198073562"><ele>750.0</ele><time>2026-04-11T15:06:38Z</time></trkpt><trkpt lat="44.55993143517289" lon="10.013676522927964"><ele>750.0</ele><time>2026-04-11T15:06:39Z</time></trkpt><trkpt lat="44.55998542914342" lon="10.013840009462296"><ele>750.0</ele><time>2026-04-11T15:06:40Z</time></trkpt><trkpt lat="44.56005019863456" lon="10.013985302889587"><ele>750.0</ele><time>2026-04-11T15:06:41Z</time></trkpt><trkpt lat="44.560153929433035" lon="10.014126678324502"><ele>750.0</ele><time>2026-04-11T15:06:42Z</time></trkpt><trkpt lat="44.5602565416709" lon="10.014175479083205"><ele>750.0</ele><time>2026-04-11T15:06:43Z</time></trkpt><trkpt lat="44.5603889811047" lon="10.014182613490515"><ele>747.25</ele><time>2026-04-11T15:06:44Z</time></trkpt><trkpt lat="44.560532583799976" lon="10.014220948215375"><ele>744.5</ele><time>2026-04-11T15:06:45Z</time></trkpt><trkpt lat="44.56065880804879" lon="10.014242247096691"><ele>741.75</ele><time>2026-04-11T15:06:46Z</time></trkpt><trkpt lat="44.56077460441732" lon="10.01425901141804"><ele>739.0</ele><time>2026-04-11T15:06:47Z</time></trkpt><trkpt lat="44.56089610832174" lon="10.014282637308359"><ele>739.0</ele><time>2026-04-11T15:06:48Z</time></trkpt><trkpt lat="44.56101990559224" lon="10.014319619881782"><ele>739.0</ele><time>2026-04-11T15:06:49Z</time></trkpt><trkpt lat="44.56114560550568" lon="10.014394678880981"><ele>739.0</ele><time>2026-04-11T15:06:50Z</time></trkpt><trkpt lat="44.561270862712064" lon="10.014529830971208"><ele>739.0</ele><time>2026-04-11T15:06:51Z</time></trkpt><trkpt lat="44.56139620971033" lon="10.014645300468057"><ele>736.8000000000001</ele><time>2026-04-11T15:06:52Z</time></trkpt><trkpt lat="44.56147765229718" lon="10.014660428698926"><ele>734.6</ele><time>2026-04-11T15:06:53Z</time></trkpt><trkpt lat="44.56157918533696" lon="10.014729153061133"><ele>732.4</ele><time>2026-04-11T15:06:54Z</time></trkpt><trkpt lat="44.561679119250925" lon="10.014803517332144"><ele>730.2</ele><time>2026-04-11T15:06:55Z</time></trkpt><trkpt lat="44.561772653547955" lon="10.014874887801112"><ele>728.0</ele><time>2026-04-11T15:06:56Z</time></trkpt><trkpt lat="44.56186627452513" lon="10.014943462255728"><ele>729.0</ele><time>2026-04-11T15:06:57Z</time></trkpt><trkpt lat="44.56197035138383" lon="10.015009552021183"><ele>730.0</ele><time>2026-04-11T15:06:58Z</time></trkpt><trkpt lat="44.56209322812706" lon="10.015049496557971"><ele>731.0</ele><time>2026-04-11T15:06:59Z</time></trkpt><trkpt lat="44.56222655860615" lon="10.015033077277243"><ele>732.0</ele><time>2026-04-11T15:07:00Z</time></trkpt><trkpt lat="44.56238215210825" lon="10.014965204320818"><ele>729.0</ele><time>2026-04-11T15:07:01Z</time></trkpt><trkpt lat="44.562546421199784" lon="10.014891656600776"><ele>726.0</ele><time>2026-04-11T15:07:02Z</time></trkpt><trkpt lat="44.56268460156824" lon="10.014843962457107"><ele>723.0</ele><time>2026-04-11T15:07:03Z</time></trkpt><trkpt lat="44.562804289335745" lon="10.014835955195949"><ele>720.0</ele><time>2026-04-11T15:07:04Z</time></trkpt><trkpt lat="44.56290756609192" lon="10.014900679055403"><ele>718.0</ele><time>2026-04-11T15:07:05Z</time></trkpt><trkpt lat="44.56295617089977" lon="10.015072331812881"><ele>716.0</ele><time>2026-04-11T15:07:06Z</time></trkpt><trkpt lat="44.56301480878087" lon="10.01528798893198"><ele>714.0</ele><time>2026-04-11T15:07:07Z</time></trkpt><trkpt lat="44.563048237601336" lon="10.015522694495418"><ele>714.0</ele><time>2026-04-11T15:07:08Z</time></trkpt><trkpt lat="44.56311887100098" lon="10.015725058362102"><ele>714.0</ele><time>2026-04-11T15:07:09Z</time></trkpt><trkpt lat="44.563179380906746" lon="10.015972595425872"><ele>714.0</ele><time>2026-04-11T15:07:10Z</time></trkpt><trkpt lat="44.56324100529606" lon="10.016202655257143"><ele>714.6666666666666</ele><time>2026-04-11T15:07:11Z</time></trkpt><trkpt lat="44.563324980266124" lon="10.016409817854733"><ele>715.3333333333333</ele><time>2026-04-11T15:07:12Z</time></trkpt><trkpt lat="44.56346040719934" lon="10.01659617383092"><ele>716.0</ele><time>2026-04-11T15:07:13Z</time></trkpt><trkpt lat="44.56362599634592" lon="10.016747398582556"><ele>714.6666666666666</ele><time>2026-04-11T15:07:14Z</time></trkpt><trkpt lat="44.56377910576844" lon="10.016868664875139"><ele>713.3333333333334</ele><time>2026-04-11T15:07:15Z</time></trkpt><trkpt lat="44.563926263528316" lon="10.01698171492066"><ele>712.0</ele><time>2026-04-11T15:07:16Z</time></trkpt><trkpt lat="44.564060978139004" lon="10.017081343196349"><ele>712.0</ele><time>2026-04-11T15:07:17Z</time></trkpt><trkpt lat="44.56419533601556" lon="10.017159463201404"><ele>712.0</ele><time>2026-04-11T15:07:18Z</time></trkpt><trkpt lat="44.5643561170365" lon="10.017190167834398"><ele>712.0</ele><time>2026-04-11T15:07:19Z</time></trkpt><trkpt lat="44.564529263584284" lon="10.017161416312938"><ele>710.3333333333334</ele><time>2026-04-11T15:07:20Z</time></trkpt><trkpt lat="44.56468461309212" lon="10.017148705387786"><ele>708.6666666666666</ele><time>2026-04-11T15:07:21Z</time></trkpt><trkpt lat="44.56482355173758" lon="10.017238964355746"><ele>707.0</ele><time>2026-04-11T15:07:22Z</time></trkpt><trkpt lat="44.56496046041602" lon="10.017372204715803"><ele>708.0</ele><time>2026-04-11T15:07:23Z</time></trkpt><trkpt lat="44.56512057826833" lon="10.017505427349144"><ele>709.0</ele><time>2026-04-11T15:07:24Z</time></trkpt><trkpt lat="44.56528499016868" lon="10.017625028481984"><ele>710.0</ele><time>2026-04-11T15:07:25Z</time></trkpt><trkpt lat="44.56547668424206" lon="10.0176918367707"><ele>710.0</ele><time>2026-04-11T15:07:26Z</time></trkpt><trkpt lat="44.565686556023806" lon="10.017719966783588"><ele>710.0</ele><time>2026-04-11T15:07:27Z</time></trkpt><trkpt lat="44.565893358355225" lon="10.017742226274244"><ele>710.0</ele><time>2026-04-11T15:07:28Z</time></trkpt><trkpt lat="44.566087534071386" lon="10.017770745127073"><ele>709.6666666666666</ele><time>2026-04-11T15:07:29Z</time></trkpt><trkpt lat="44.566270264880835" lon="10.017853726322317"><ele>709.3333333333334</ele><time>2026-04-11T15:07:30Z</time></trkpt><trkpt lat="44.56644228761386" lon="10.017970333142701"><ele>709.0</ele><time>2026-04-11T15:07:30.999Z</time></trkpt><trkpt lat="44.56660710391962" lon="10.01811812556239"><ele>709.0</ele><time>2026-04-11T15:07:31.999Z</time></trkpt><trkpt lat="44.566797266246816" lon="10.018263394178856"><ele>709.0</ele><time>2026-04-11T15:07:32.999Z</time></trkpt><trkpt lat="44.56699946297511" lon="10.018459856938092"><ele>711.0</ele><time>2026-04-11T15:07:33.999Z</time></trkpt><trkpt lat="44.567204650753744" lon="10.018644527370641"><ele>713.0</ele><time>2026-04-11T15:07:34.999Z</time></trkpt><trkpt lat="44.567422411207716" lon="10.018835216483438"><ele>713.0</ele><time>2026-04-11T15:07:35.999Z</time></trkpt><trkpt lat="44.56764481288891" lon="10.019025262018207"><ele>713.0</ele><time>2026-04-11T15:07:36.999Z</time></trkpt><trkpt lat="44.56786685381539" lon="10.019216949402054"><ele>709.5</ele><time>2026-04-11T15:07:37.999Z</time></trkpt><trkpt lat="44.56808647597023" lon="10.019408742006284"><ele>706.0</ele><time>2026-04-11T15:07:38.999Z</time></trkpt><trkpt lat="44.56830439476698" lon="10.019583517763298"><ele>706.0</ele><time>2026-04-11T15:07:39.999Z</time></trkpt><trkpt lat="44.56851062642612" lon="10.019786948098462"><ele>706.0</ele><time>2026-04-11T15:07:40.999Z</time></trkpt><trkpt lat="44.56872445383895" lon="10.019953902049252"><ele>707.6666666666667</ele><time>2026-04-11T15:07:41.999Z</time></trkpt><trkpt lat="44.568905436522506" lon="10.02012928581383"><ele>709.3333333333334</ele><time>2026-04-11T15:07:42.999Z</time></trkpt><trkpt lat="44.56907143043195" lon="10.020288003912258"><ele>711.0</ele><time>2026-04-11T15:07:43.999Z</time></trkpt><trkpt lat="44.56921718416834" lon="10.020428103497478"><ele>711.0</ele><time>2026-04-11T15:07:44.999Z</time></trkpt><trkpt lat="44.56935745846782" lon="10.020539833206193"><ele>711.0</ele><time>2026-04-11T15:07:45.999Z</time></trkpt><trkpt lat="44.56950152832016" lon="10.0205927967891"><ele>711.0</ele><time>2026-04-11T15:07:46.999Z</time></trkpt><trkpt lat="44.56964993157793" lon="10.020573801024913"><ele>713.3333333333334</ele><time>2026-04-11T15:07:47.999Z</time></trkpt><trkpt lat="44.56982186118194" lon="10.020534161967307"><ele>715.6666666666667</ele><time>2026-04-11T15:07:48.999Z</time></trkpt><trkpt lat="44.56998910010017" lon="10.020506001676129"><ele>718.0</ele><time>2026-04-11T15:07:49.999Z</time></trkpt><trkpt lat="44.570129381353965" lon="10.020494029985974"><ele>718.0</ele><time>2026-04-11T15:07:50.999Z</time></trkpt><trkpt lat="44.57026023908818" lon="10.020495386589602"><ele>718.0</ele><time>2026-04-11T15:07:51.999Z</time></trkpt><trkpt lat="44.57039306929524" lon="10.020570488181805"><ele>718.0</ele><time>2026-04-11T15:07:52.999Z</time></trkpt><trkpt lat="44.57048451346841" lon="10.020711618447192"><ele>718.0</ele><time>2026-04-11T15:07:53.999Z</time></trkpt><trkpt lat="44.57061636615497" lon="10.020893079257759"><ele>721.6666666666667</ele><time>2026-04-11T15:07:54.999Z</time></trkpt><trkpt lat="44.570770813512546" lon="10.02111229425945"><ele>725.3333333333334</ele><time>2026-04-11T15:07:55.999Z</time></trkpt><trkpt lat="44.57094404638925" lon="10.021317950470918"><ele>729.0</ele><time>2026-04-11T15:07:56.999Z</time></trkpt><trkpt lat="44.57107267803459" lon="10.021520566643005"><ele>733.0</ele><time>2026-04-11T15:07:57.999Z</time></trkpt><trkpt lat="44.57122969908689" lon="10.021675743252276"><ele>737.0</ele><time>2026-04-11T15:07:58.999Z</time></trkpt><trkpt lat="44.57141343293605" lon="10.021783873582226"><ele>741.0</ele><time>2026-04-11T15:07:59.999Z</time></trkpt><trkpt lat="44.57161406426534" lon="10.021869310964616"><ele>741.0</ele><time>2026-04-11T15:08:00.999Z</time></trkpt><trkpt lat="44.5718113238018" lon="10.021953977961124"><ele>741.0</ele><time>2026-04-11T15:08:01.999Z</time></trkpt><trkpt lat="44.571998872393635" lon="10.022029983070487"><ele>741.0</ele><time>2026-04-11T15:08:02.999Z</time></trkpt><trkpt lat="44.572184546543916" lon="10.022104817921779"><ele>741.0</ele><time>2026-04-11T15:08:03.999Z</time></trkpt><trkpt lat="44.57235970436679" lon="10.022196066249702"><ele>741.0</ele><time>2026-04-11T15:08:04.999Z</time></trkpt><trkpt lat="44.572504754403894" lon="10.02235218520976"><ele>741.0</ele><time>2026-04-11T15:08:05.999Z</time></trkpt><trkpt lat="44.57264765606213" lon="10.022529081466475"><ele>741.0</ele><time>2026-04-11T15:08:06.999Z</time></trkpt><trkpt lat="44.57276951011031" lon="10.022750032492008"><ele>741.0</ele><time>2026-04-11T15:08:07.999Z</time></trkpt><trkpt lat="44.57288708988331" lon="10.023001773011991"><ele>741.0</ele><time>2026-04-11T15:08:08.999Z</time></trkpt><trkpt lat="44.572999253841395" lon="10.02325224300831"><ele>739.6666666666666</ele><time>2026-04-11T15:08:09.999Z</time></trkpt><trkpt lat="44.57310790930407" lon="10.023500004076068"><ele>738.3333333333333</ele><time>2026-04-11T15:08:10.999Z</time></trkpt><trkpt lat="44.5732212618653" lon="10.023711524037873"><ele>737.0</ele><time>2026-04-11T15:08:11.999Z</time></trkpt><trkpt lat="44.57331904867128" lon="10.023920414828257"><ele>737.0</ele><time>2026-04-11T15:08:12.999Z</time></trkpt><trkpt lat="44.57344531371657" lon="10.024086480775876"><ele>737.0</ele><time>2026-04-11T15:08:13.999Z</time></trkpt><trkpt lat="44.57362372462684" lon="10.02418042330047"><ele>737.0</ele><time>2026-04-11T15:08:14.999Z</time></trkpt><trkpt lat="44.57382365141079" lon="10.024241536061663"><ele>737.0</ele><time>2026-04-11T15:08:15.999Z</time></trkpt><trkpt lat="44.57402345437138" lon="10.024301026760465"><ele>737.0</ele><time>2026-04-11T15:08:16.999Z</time></trkpt><trkpt lat="44.574219741026674" lon="10.024355389500627"><ele>737.0</ele><time>2026-04-11T15:08:17.999Z</time></trkpt><trkpt lat="44.57440815385042" lon="10.024416749349093"><ele>735.0</ele><time>2026-04-11T15:08:18.999Z</time></trkpt><trkpt lat="44.574598819932476" lon="10.024486955631941"><ele>733.0</ele><time>2026-04-11T15:08:19.999Z</time></trkpt><trkpt lat="44.574781104176395" lon="10.02456450792153"><ele>731.0</ele><time>2026-04-11T15:08:20.999Z</time></trkpt><trkpt lat="44.574959233467816" lon="10.024642251136147"><ele>731.0</ele><time>2026-04-11T15:08:21.999Z</time></trkpt><trkpt lat="44.575137378683294" lon="10.024713499526355"><ele>731.0</ele><time>2026-04-11T15:08:22.999Z</time></trkpt><trkpt lat="44.57532835063965" lon="10.024782509650423"><ele>731.0</ele><time>2026-04-11T15:08:23.999Z</time></trkpt><trkpt lat="44.57551491591559" lon="10.024903782624962"><ele>732.0</ele><time>2026-04-11T15:08:24.999Z</time></trkpt><trkpt lat="44.575686840375276" lon="10.025076311657033"><ele>733.0</ele><time>2026-04-11T15:08:25.999Z</time></trkpt><trkpt lat="44.57586677782897" lon="10.025265455216616"><ele>734.0</ele><time>2026-04-11T15:08:26.999Z</time></trkpt><trkpt lat="44.57605371111577" lon="10.02544129228222"><ele>732.0</ele><time>2026-04-11T15:08:27.999Z</time></trkpt><trkpt lat="44.57622658229392" lon="10.025637508904236"><ele>730.0</ele><time>2026-04-11T15:08:28.999Z</time></trkpt><trkpt lat="44.57640168738554" lon="10.025812347546593"><ele>728.0</ele><time>2026-04-11T15:08:30Z</time></trkpt><trkpt lat="44.576567718524146" lon="10.025974900528398"><ele>732.0</ele><time>2026-04-11T15:08:31Z</time></trkpt><trkpt lat="44.576703316249045" lon="10.02615313856185"><ele>736.0</ele><time>2026-04-11T15:08:32Z</time></trkpt><trkpt lat="44.57681909503039" lon="10.026322577980237"><ele>740.0</ele><time>2026-04-11T15:08:33Z</time></trkpt><trkpt lat="44.576885745432364" lon="10.026527127148741"><ele>738.3333333333333</ele><time>2026-04-11T15:08:34Z</time></trkpt><trkpt lat="44.57694803871177" lon="10.026786966179856"><ele>736.6666666666666</ele><time>2026-04-11T15:08:35Z</time></trkpt><trkpt lat="44.577020518772215" lon="10.027056437684244"><ele>735.0</ele><time>2026-04-11T15:08:36Z</time></trkpt><trkpt lat="44.5771200288513" lon="10.027304599726518"><ele>738.0</ele><time>2026-04-11T15:08:37Z</time></trkpt><trkpt lat="44.577234780422536" lon="10.027540790392178"><ele>741.0</ele><time>2026-04-11T15:08:38Z</time></trkpt><trkpt lat="44.5773085289707" lon="10.027794686064432"><ele>744.0</ele><time>2026-04-11T15:08:39Z</time></trkpt><trkpt lat="44.577353279999215" lon="10.028060595176248"><ele>744.0</ele><time>2026-04-11T15:08:40Z</time></trkpt><trkpt lat="44.57741872332272" lon="10.02828238792314"><ele>744.0</ele><time>2026-04-11T15:08:41Z</time></trkpt><trkpt lat="44.57748428575168" lon="10.028490555179289"><ele>744.0</ele><time>2026-04-11T15:08:42Z</time></trkpt><trkpt lat="44.57759817569228" lon="10.028671859080726"><ele>746.3333333333334</ele><time>2026-04-11T15:08:43Z</time></trkpt><trkpt lat="44.57776015598151" lon="10.028813408839676"><ele>748.6666666666667</ele><time>2026-04-11T15:08:44Z</time></trkpt><trkpt lat="44.57791192366905" lon="10.028937469120214"><ele>751.0</ele><time>2026-04-11T15:08:45Z</time></trkpt><trkpt lat="44.57798149538147" lon="10.029127889645997"><ele>755.3333333333334</ele><time>2026-04-11T15:08:46Z</time></trkpt><trkpt lat="44.5780057126946" lon="10.029338659356506"><ele>759.6666666666666</ele><time>2026-04-11T15:08:47Z</time></trkpt><trkpt lat="44.578020182467306" lon="10.029591681679044"><ele>764.0</ele><time>2026-04-11T15:08:48Z</time></trkpt><trkpt lat="44.57806178151071" lon="10.02981112958315"><ele>763.0</ele><time>2026-04-11T15:08:49Z</time></trkpt><trkpt lat="44.57810474890395" lon="10.030025334931672"><ele>762.0</ele><time>2026-04-11T15:08:50Z</time></trkpt><trkpt lat="44.57819431775282" lon="10.03021902187566"><ele>761.0</ele><time>2026-04-11T15:08:51Z</time></trkpt><trkpt lat="44.57830265074468" lon="10.030370422220441"><ele>761.0</ele><time>2026-04-11T15:08:52Z</time></trkpt><trkpt lat="44.57842500492215" lon="10.030485778338837"><ele>761.0</ele><time>2026-04-11T15:08:53Z</time></trkpt><trkpt lat="44.578558420173984" lon="10.030580354726155"><ele>761.0</ele><time>2026-04-11T15:08:54Z</time></trkpt><trkpt lat="44.578701839541" lon="10.030661254631674"><ele>764.0</ele><time>2026-04-11T15:08:55Z</time></trkpt><trkpt lat="44.57884777344132" lon="10.03072080405086"><ele>767.0</ele><time>2026-04-11T15:08:56Z</time></trkpt><trkpt lat="44.57899904750548" lon="10.030721580070384"><ele>770.0</ele><time>2026-04-11T15:08:57Z</time></trkpt><trkpt lat="44.57916304163127" lon="10.030651469829406"><ele>770.0</ele><time>2026-04-11T15:08:58Z</time></trkpt><trkpt lat="44.57933326151761" lon="10.030533891222404"><ele>770.0</ele><time>2026-04-11T15:08:59Z</time></trkpt><trkpt lat="44.579505450533226" lon="10.030393978595885"><ele>770.0</ele><time>2026-04-11T15:09:00Z</time></trkpt><trkpt lat="44.57968811104332" lon="10.030280102316638"><ele>770.0</ele><time>2026-04-11T15:09:01Z</time></trkpt><trkpt lat="44.57988661410066" lon="10.030216898130798"><ele>770.0</ele><time>2026-04-11T15:09:02Z</time></trkpt><trkpt lat="44.580097454522125" lon="10.030181617700109"><ele>770.0</ele><time>2026-04-11T15:09:03Z</time></trkpt><trkpt lat="44.58030474102632" lon="10.030211106311262"><ele>771.0</ele><time>2026-04-11T15:09:04Z</time></trkpt><trkpt lat="44.58050069120705" lon="10.030262025280045"><ele>772.0</ele><time>2026-04-11T15:09:05Z</time></trkpt><trkpt lat="44.580717752471536" lon="10.030348209913711"><ele>773.0</ele><time>2026-04-11T15:09:06Z</time></trkpt><trkpt lat="44.580930431709575" lon="10.030410194830061"><ele>773.0</ele><time>2026-04-11T15:09:07Z</time></trkpt><trkpt lat="44.58113623419878" lon="10.030464137936248"><ele>773.0</ele><time>2026-04-11T15:09:08Z</time></trkpt><trkpt lat="44.581340310027294" lon="10.03049010804046"><ele>773.0</ele><time>2026-04-11T15:09:09Z</time></trkpt><trkpt lat="44.58153416145304" lon="10.030532681369262"><ele>771.6666666666667</ele><time>2026-04-11T15:09:10Z</time></trkpt><trkpt lat="44.581693120712394" lon="10.030667735398145"><ele>770.3333333333333</ele><time>2026-04-11T15:09:11Z</time></trkpt><trkpt lat="44.58183869303464" lon="10.03083502683299"><ele>769.0</ele><time>2026-04-11T15:09:12Z</time></trkpt><trkpt lat="44.5820000364633" lon="10.031002679844303"><ele>767.6666666666666</ele><time>2026-04-11T15:09:13Z</time></trkpt><trkpt lat="44.58215467151499" lon="10.031204613862057"><ele>766.3333333333333</ele><time>2026-04-11T15:09:14Z</time></trkpt><trkpt lat="44.58230897734367" lon="10.031391212701452"><ele>765.0</ele><time>2026-04-11T15:09:15Z</time></trkpt><trkpt lat="44.58246466990862" lon="10.031574169080013"><ele>767.6666666666667</ele><time>2026-04-11T15:09:16Z</time></trkpt><trkpt lat="44.58262051486146" lon="10.0317539830564"><ele>770.3333333333334</ele><time>2026-04-11T15:09:17Z</time></trkpt><trkpt lat="44.58277442912" lon="10.031913409967196"><ele>773.0</ele><time>2026-04-11T15:09:18Z</time></trkpt><trkpt lat="44.58293967010009" lon="10.032044905476747"><ele>773.6666666666667</ele><time>2026-04-11T15:09:19Z</time></trkpt><trkpt lat="44.58311565797552" lon="10.03213261937612"><ele>774.3333333333333</ele><time>2026-04-11T15:09:20Z</time></trkpt><trkpt lat="44.5832981924323" lon="10.032193502595854"><ele>775.0</ele><time>2026-04-11T15:09:21Z</time></trkpt><trkpt lat="44.583479289087066" lon="10.032246566448661"><ele>775.0</ele><time>2026-04-11T15:09:22Z</time></trkpt><trkpt lat="44.583654055854666" lon="10.03229542405875"><ele>775.0</ele><time>2026-04-11T15:09:23Z</time></trkpt><trkpt lat="44.58382092734048" lon="10.032362127031947"><ele>775.0</ele><time>2026-04-11T15:09:24Z</time></trkpt><trkpt lat="44.58396363662394" lon="10.032480826238423"><ele>780.0</ele><time>2026-04-11T15:09:25Z</time></trkpt><trkpt lat="44.58409129346331" lon="10.032613852210279"><ele>785.0</ele><time>2026-04-11T15:09:26Z</time></trkpt><trkpt lat="44.584214798795465" lon="10.032742598534494"><ele>790.0</ele><time>2026-04-11T15:09:27Z</time></trkpt><trkpt lat="44.58433407065728" lon="10.032874331919354"><ele>790.0</ele><time>2026-04-11T15:09:28Z</time></trkpt><trkpt lat="44.58444997898145" lon="10.033012275278184"><ele>790.0</ele><time>2026-04-11T15:09:29Z</time></trkpt><trkpt lat="44.584570035027774" lon="10.033153816694856"><ele>790.0</ele><time>2026-04-11T15:09:30Z</time></trkpt><trkpt lat="44.584684247783954" lon="10.033295712976116"><ele>792.3333333333333</ele><time>2026-04-11T15:09:31Z</time></trkpt><trkpt lat="44.58479170905594" lon="10.033450185412411"><ele>794.6666666666667</ele><time>2026-04-11T15:09:32Z</time></trkpt><trkpt lat="44.584890893256784" lon="10.033610672036438"><ele>797.0</ele><time>2026-04-11T15:09:33Z</time></trkpt><trkpt lat="44.58499937805352" lon="10.033768795681935"><ele>797.0</ele><time>2026-04-11T15:09:34Z</time></trkpt><trkpt lat="44.58510578151543" lon="10.03391740433205"><ele>797.0</ele><time>2026-04-11T15:09:35Z</time></trkpt><trkpt lat="44.58522226045197" lon="10.03405069756257"><ele>797.0</ele><time>2026-04-11T15:09:36Z</time></trkpt><trkpt lat="44.58534490950953" lon="10.034167889400285"><ele>797.0</ele><time>2026-04-11T15:09:37Z</time></trkpt><trkpt lat="44.58547042363318" lon="10.03425149738153"><ele>797.8</ele><time>2026-04-11T15:09:38Z</time></trkpt><trkpt lat="44.58559092239787" lon="10.03429522539395"><ele>798.6</ele><time>2026-04-11T15:09:39Z</time></trkpt><trkpt lat="44.58569734703349" lon="10.034307916008967"><ele>799.4</ele><time>2026-04-11T15:09:39.999Z</time></trkpt><trkpt lat="44.58577859431856" lon="10.034337252635966"><ele>800.1999999999999</ele><time>2026-04-11T15:09:40.999Z</time></trkpt><trkpt lat="44.585856762415055" lon="10.03436929740057"><ele>801.0</ele><time>2026-04-11T15:09:41.999Z</time></trkpt><trkpt lat="44.585930153900364" lon="10.034392108829683"><ele>801.0</ele><time>2026-04-11T15:09:42.999Z</time></trkpt><trkpt lat="44.58601069505939" lon="10.034410270849927"><ele>801.0</ele><time>2026-04-11T15:09:43.999Z</time></trkpt><trkpt lat="44.58608703581964" lon="10.034430244656416"><ele>801.0</ele><time>2026-04-11T15:09:44.999Z</time></trkpt><trkpt lat="44.58617588201301" lon="10.034447983707853"><ele>801.0</ele><time>2026-04-11T15:09:45.999Z</time></trkpt><trkpt lat="44.586271626436606" lon="10.034489183877223"><ele>801.0</ele><time>2026-04-11T15:09:46.999Z</time></trkpt><trkpt lat="44.586375015341815" lon="10.03452862801873"><ele>801.75</ele><time>2026-04-11T15:09:47.999Z</time></trkpt><trkpt lat="44.58648805906818" lon="10.03456832460766"><ele>802.5</ele><time>2026-04-11T15:09:48.999Z</time></trkpt><trkpt lat="44.586599135304034" lon="10.034599376911622"><ele>803.25</ele><time>2026-04-11T15:09:49.999Z</time></trkpt><trkpt lat="44.586712011968245" lon="10.034639471472113"><ele>804.0</ele><time>2026-04-11T15:09:50.999Z</time></trkpt><trkpt lat="44.586828797499855" lon="10.0346836902486"><ele>804.0</ele><time>2026-04-11T15:09:51.999Z</time></trkpt><trkpt lat="44.586941336116176" lon="10.034718403726075"><ele>804.0</ele><time>2026-04-11T15:09:52.999Z</time></trkpt><trkpt lat="44.58705242100724" lon="10.034760205452228"><ele>804.0</ele><time>2026-04-11T15:09:53.999Z</time></trkpt><trkpt lat="44.5871774203578" lon="10.034791776312339"><ele>804.0</ele><time>2026-04-11T15:09:54.999Z</time></trkpt><trkpt lat="44.58729720533475" lon="10.034839046587622"><ele>806.0</ele><time>2026-04-11T15:09:55.999Z</time></trkpt><trkpt lat="44.58740800547924" lon="10.034895951700316"><ele>808.0</ele><time>2026-04-11T15:09:56.999Z</time></trkpt><trkpt lat="44.58750887753324" lon="10.034983654292809"><ele>810.0</ele><time>2026-04-11T15:09:57.999Z</time></trkpt><trkpt lat="44.587580944379305" lon="10.035133344676835"><ele>812.0</ele><time>2026-04-11T15:09:58.999Z</time></trkpt><trkpt lat="44.587594061734755" lon="10.03532716239802"><ele>814.0</ele><time>2026-04-11T15:09:59.999Z</time></trkpt><trkpt lat="44.58755829037463" lon="10.035532170616143"><ele>816.0</ele><time>2026-04-11T15:10:00.999Z</time></trkpt><trkpt lat="44.58751481874631" lon="10.035740457647831"><ele>818.0</ele><time>2026-04-11T15:10:01.999Z</time></trkpt><trkpt lat="44.58750796219037" lon="10.035952192077039"><ele>819.6666666666667</ele><time>2026-04-11T15:10:02.999Z</time></trkpt><trkpt lat="44.5875562426418" lon="10.036174529672953"><ele>821.3333333333333</ele><time>2026-04-11T15:10:03.999Z</time></trkpt><trkpt lat="44.587666766488944" lon="10.036405952967893"><ele>823.0</ele><time>2026-04-11T15:10:04.999Z</time></trkpt><trkpt lat="44.587769063550645" lon="10.036665564207066"><ele>824.0</ele><time>2026-04-11T15:10:05.999Z</time></trkpt><trkpt lat="44.587772653060426" lon="10.036940489466069"><ele>825.0</ele><time>2026-04-11T15:10:06.999Z</time></trkpt><trkpt lat="44.58772728235878" lon="10.037250108703525"><ele>826.0</ele><time>2026-04-11T15:10:07.999Z</time></trkpt><trkpt lat="44.587670178658946" lon="10.037606764403755"><ele>827.5</ele><time>2026-04-11T15:10:08.999Z</time></trkpt><trkpt lat="44.58762696216887" lon="10.037955034044757"><ele>829.0</ele><time>2026-04-11T15:10:09.999Z</time></trkpt><trkpt lat="44.587570923344344" lon="10.038330115997047"><ele>833.5</ele><time>2026-04-11T15:10:10.999Z</time></trkpt><trkpt lat="44.587498760520674" lon="10.038672390752962"><ele>838.0</ele><time>2026-04-11T15:10:11.999Z</time></trkpt><trkpt lat="44.587446718189014" lon="10.038978142996346"><ele>843.3333333333333</ele><time>2026-04-11T15:10:12.999Z</time></trkpt><trkpt lat="44.58736000268578" lon="10.039230331916304"><ele>848.6666666666667</ele><time>2026-04-11T15:10:13.999Z</time></trkpt><trkpt lat="44.58720941693048" lon="10.039469517615101"><ele>854.0</ele><time>2026-04-11T15:10:14.999Z</time></trkpt><trkpt lat="44.58703232348088" lon="10.039722643724591"><ele>850.3333333333334</ele><time>2026-04-11T15:10:15.999Z</time></trkpt><trkpt lat="44.58688320752565" lon="10.039953157726242"><ele>846.6666666666667</ele><time>2026-04-11T15:10:16.999Z</time></trkpt><trkpt lat="44.58676920823078" lon="10.040130440780398"><ele>843.0</ele><time>2026-04-11T15:10:17.999Z</time></trkpt><trkpt lat="44.58669427777965" lon="10.040326389519349"><ele>843.0</ele><time>2026-04-11T15:10:18.999Z</time></trkpt><trkpt lat="44.586671291356744" lon="10.040590546600937"><ele>843.0</ele><time>2026-04-11T15:10:19.999Z</time></trkpt><trkpt lat="44.586654975378536" lon="10.040906536560414"><ele>843.0</ele><time>2026-04-11T15:10:20.999Z</time></trkpt><trkpt lat="44.586610113255674" lon="10.041212102507227"><ele>848.0</ele><time>2026-04-11T15:10:21.999Z</time></trkpt><trkpt lat="44.5865883423144" lon="10.041496802719553"><ele>853.0</ele><time>2026-04-11T15:10:22.999Z</time></trkpt><trkpt lat="44.58662174490848" lon="10.041795545697138"><ele>858.0</ele><time>2026-04-11T15:10:23.999Z</time></trkpt><trkpt lat="44.586723095366814" lon="10.04210906527344"><ele>860.0</ele><time>2026-04-11T15:10:24.999Z</time></trkpt><trkpt lat="44.58685882733416" lon="10.042383267980773"><ele>862.0</ele><time>2026-04-11T15:10:25.999Z</time></trkpt><trkpt lat="44.586963056692525" lon="10.042650848478543"><ele>859.3333333333333</ele><time>2026-04-11T15:10:26.999Z</time></trkpt><trkpt lat="44.5870032169789" lon="10.042914575143834"><ele>856.6666666666667</ele><time>2026-04-11T15:10:27.999Z</time></trkpt><trkpt lat="44.58695689331001" lon="10.04315999640446"><ele>854.0</ele><time>2026-04-11T15:10:28.999Z</time></trkpt><trkpt lat="44.58690535324536" lon="10.043454606288105"><ele>852.5</ele><time>2026-04-11T15:10:29.999Z</time></trkpt><trkpt lat="44.58689817364584" lon="10.043768814269129"><ele>851.0</ele><time>2026-04-11T15:10:30.999Z</time></trkpt><trkpt lat="44.58690874739328" lon="10.044090953428352"><ele>853.5</ele><time>2026-04-11T15:10:31.999Z</time></trkpt><trkpt lat="44.58685553942041" lon="10.044441405313313"><ele>856.0</ele><time>2026-04-11T15:10:32.999Z</time></trkpt><trkpt lat="44.5867954746617" lon="10.044817652888769"><ele>860.6666666666666</ele><time>2026-04-11T15:10:33.999Z</time></trkpt><trkpt lat="44.58674249749238" lon="10.045081152681764"><ele>865.3333333333333</ele><time>2026-04-11T15:10:34.999Z</time></trkpt><trkpt lat="44.58665030678662" lon="10.045321587097837"><ele>870.0</ele><time>2026-04-11T15:10:36Z</time></trkpt><trkpt lat="44.58650765221726" lon="10.045571326155132"><ele>878.0</ele><time>2026-04-11T15:10:37Z</time></trkpt><trkpt lat="44.586371132977234" lon="10.045892917700504"><ele>886.0</ele><time>2026-04-11T15:10:38Z</time></trkpt><trkpt lat="44.586271610683546" lon="10.046236085589662"><ele>886.0</ele><time>2026-04-11T15:10:39Z</time></trkpt><trkpt lat="44.58619227235471" lon="10.046554075103009"><ele>886.0</ele><time>2026-04-11T15:10:40Z</time></trkpt><trkpt lat="44.586089489983316" lon="10.04673954402711"><ele>886.0</ele><time>2026-04-11T15:10:41Z</time></trkpt><trkpt lat="44.586123312956516" lon="10.047081644756902"><ele>887.5</ele><time>2026-04-11T15:10:42Z</time></trkpt><trkpt lat="44.586145157030856" lon="10.047254084950428"><ele>889.0</ele><time>2026-04-11T15:10:43Z</time></trkpt><trkpt lat="44.5862184375717" lon="10.047378937970974"><ele>890.5</ele><time>2026-04-11T15:10:44Z</time></trkpt><trkpt lat="44.586370917277" lon="10.047416845310202"><ele>892.0</ele><time>2026-04-11T15:10:45Z</time></trkpt><trkpt lat="44.586565609813874" lon="10.047438786744301"><ele>892.0</ele><time>2026-04-11T15:10:46Z</time></trkpt><trkpt lat="44.58680294452912" lon="10.047407272027503"><ele>892.0</ele><time>2026-04-11T15:10:47Z</time></trkpt><trkpt lat="44.587062716285246" lon="10.047414964999753"><ele>901.5</ele><time>2026-04-11T15:10:48Z</time></trkpt><trkpt lat="44.5873195231627" lon="10.047443086731043"><ele>911.0</ele><time>2026-04-11T15:10:49Z</time></trkpt><trkpt lat="44.587514761255065" lon="10.047460476821028"><ele>907.25</ele><time>2026-04-11T15:10:50Z</time></trkpt><trkpt lat="44.58764393248054" lon="10.047508340917018"><ele>903.5</ele><time>2026-04-11T15:10:51Z</time></trkpt><trkpt lat="44.58773741137362" lon="10.04760376964929"><ele>899.75</ele><time>2026-04-11T15:10:52Z</time></trkpt><trkpt lat="44.58777281213517" lon="10.047754768542331"><ele>896.0</ele><time>2026-04-11T15:10:53Z</time></trkpt><trkpt lat="44.587769731212354" lon="10.047946483763797"><ele>896.0</ele><time>2026-04-11T15:10:54Z</time></trkpt><trkpt lat="44.5876833985429" lon="10.048108663316153"><ele>896.0</ele><time>2026-04-11T15:10:55Z</time></trkpt><trkpt lat="44.58757825440335" lon="10.048385730944226"><ele>896.0</ele><time>2026-04-11T15:10:56Z</time></trkpt><trkpt lat="44.587473647018086" lon="10.048664800736287"><ele>896.0</ele><time>2026-04-11T15:10:57Z</time></trkpt><trkpt lat="44.587433227780664" lon="10.048862907260348"><ele>896.0</ele><time>2026-04-11T15:10:58Z</time></trkpt><trkpt lat="44.58744299617872" lon="10.049004018059987"><ele>896.0</ele><time>2026-04-11T15:10:59Z</time></trkpt><trkpt lat="44.58753988583895" lon="10.049135826268989"><ele>896.0</ele><time>2026-04-11T15:11:00Z</time></trkpt><trkpt lat="44.5876666090412" lon="10.04917531683682"><ele>902.5</ele><time>2026-04-11T15:11:01Z</time></trkpt><trkpt lat="44.58789648205079" lon="10.049171021710686"><ele>909.0</ele><time>2026-04-11T15:11:02Z</time></trkpt><trkpt lat="44.588154556789036" lon="10.0491647484173"><ele>909.0</ele><time>2026-04-11T15:11:03Z</time></trkpt><trkpt lat="44.58838425218726" lon="10.049217423522014"><ele>909.0</ele><time>2026-04-11T15:11:04Z</time></trkpt><trkpt lat="44.588594632409134" lon="10.049333868334779"><ele>918.5</ele><time>2026-04-11T15:11:05Z</time></trkpt><trkpt lat="44.58879058851099" lon="10.049551688328583"><ele>928.0</ele><time>2026-04-11T15:11:06Z</time></trkpt><trkpt lat="44.58897291681013" lon="10.049772976943016"><ele>921.0</ele><time>2026-04-11T15:11:07Z</time></trkpt><trkpt lat="44.58914657808851" lon="10.05001938319195"><ele>914.0</ele><time>2026-04-11T15:11:08Z</time></trkpt><trkpt lat="44.58930432835872" lon="10.050291856242806"><ele>914.0</ele><time>2026-04-11T15:11:09Z</time></trkpt><trkpt lat="44.58939592861413" lon="10.050554964525606"><ele>914.0</ele><time>2026-04-11T15:11:10Z</time></trkpt><trkpt lat="44.58945755236844" lon="10.050830204269968"><ele>914.0</ele><time>2026-04-11T15:11:11Z</time></trkpt><trkpt lat="44.5895008623949" lon="10.051149599285928"><ele>904.5</ele><time>2026-04-11T15:11:12Z</time></trkpt><trkpt lat="44.589515454261765" lon="10.05148292672631"><ele>895.0</ele><time>2026-04-11T15:11:13Z</time></trkpt><trkpt lat="44.58950566337075" lon="10.051831315199143"><ele>895.0</ele><time>2026-04-11T15:11:14Z</time></trkpt><trkpt lat="44.58948950181844" lon="10.052218738048852"><ele>895.0</ele><time>2026-04-11T15:11:15Z</time></trkpt><trkpt lat="44.589475632249304" lon="10.052591098273007"><ele>895.3333333333333</ele><time>2026-04-11T15:11:16Z</time></trkpt><trkpt lat="44.58946425526359" lon="10.05291885176554"><ele>895.6666666666667</ele><time>2026-04-11T15:11:17Z</time></trkpt><trkpt lat="44.58945528321398" lon="10.053177322718906"><ele>896.0</ele><time>2026-04-11T15:11:18Z</time></trkpt><trkpt lat="44.58949296367144" lon="10.053393275044058"><ele>905.0</ele><time>2026-04-11T15:11:19Z</time></trkpt><trkpt lat="44.5895718370361" lon="10.05358071332788"><ele>914.0</ele><time>2026-04-11T15:11:20Z</time></trkpt><trkpt lat="44.589713366416774" lon="10.053733835331798"><ele>923.0</ele><time>2026-04-11T15:11:21Z</time></trkpt><trkpt lat="44.58989785416449" lon="10.053856980025813"><ele>923.0</ele><time>2026-04-11T15:11:22Z</time></trkpt><trkpt lat="44.59008283728845" lon="10.054008547938059"><ele>923.0</ele><time>2026-04-11T15:11:23Z</time></trkpt><trkpt lat="44.59022886074191" lon="10.054188151173024"><ele>923.0</ele><time>2026-04-11T15:11:24Z</time></trkpt><trkpt lat="44.59036378626598" lon="10.054336256916642"><ele>921.0</ele><time>2026-04-11T15:11:25Z</time></trkpt><trkpt lat="44.59051957733429" lon="10.054423131809926"><ele>919.0</ele><time>2026-04-11T15:11:26Z</time></trkpt><trkpt lat="44.590712946755886" lon="10.054426795724423"><ele>917.0</ele><time>2026-04-11T15:11:27Z</time></trkpt><trkpt lat="44.59087369242666" lon="10.054434487878718"><ele>917.0</ele><time>2026-04-11T15:11:28Z</time></trkpt><trkpt lat="44.59098784473294" lon="10.054552929096936"><ele>917.0</ele><time>2026-04-11T15:11:29Z</time></trkpt><trkpt lat="44.591066867460114" lon="10.054778241833379"><ele>917.0</ele><time>2026-04-11T15:11:30Z</time></trkpt><trkpt lat="44.59111025197544" lon="10.05506436886817"><ele>915.6666666666667</ele><time>2026-04-11T15:11:31Z</time></trkpt><trkpt lat="44.5911650906183" lon="10.055270448091695"><ele>914.3333333333333</ele><time>2026-04-11T15:11:32Z</time></trkpt><trkpt lat="44.59126312300646" lon="10.055422142924268"><ele>913.0</ele><time>2026-04-11T15:11:33Z</time></trkpt><trkpt lat="44.591421553388" lon="10.055522364014337"><ele>913.0</ele><time>2026-04-11T15:11:34Z</time></trkpt><trkpt lat="44.59160940701649" lon="10.055519655689396"><ele>913.0</ele><time>2026-04-11T15:11:35Z</time></trkpt><trkpt lat="44.59183807326623" lon="10.05540566973423"><ele>913.0</ele><time>2026-04-11T15:11:36Z</time></trkpt><trkpt lat="44.592070944356074" lon="10.055305823929844"><ele>911.6666666666666</ele><time>2026-04-11T15:11:37Z</time></trkpt><trkpt lat="44.5922537633179" lon="10.055254215144542"><ele>910.3333333333333</ele><time>2026-04-11T15:11:38Z</time></trkpt><trkpt lat="44.592404708211774" lon="10.055275006401198"><ele>909.0</ele><time>2026-04-11T15:11:39Z</time></trkpt><trkpt lat="44.592535982905204" lon="10.055423707347135"><ele>909.0</ele><time>2026-04-11T15:11:40Z</time></trkpt><trkpt lat="44.59266512055884" lon="10.0556621152863"><ele>909.0</ele><time>2026-04-11T15:11:41Z</time></trkpt><trkpt lat="44.59280774507349" lon="10.05588189552557"><ele>909.0</ele><time>2026-04-11T15:11:42Z</time></trkpt><trkpt lat="44.59296221414871" lon="10.056072173744983"><ele>901.5</ele><time>2026-04-11T15:11:43Z</time></trkpt><trkpt lat="44.593088598281014" lon="10.056316530668113"><ele>894.0</ele><time>2026-04-11T15:11:43.999Z</time></trkpt><trkpt lat="44.593146724838554" lon="10.056650239050926"><ele>892.0</ele><time>2026-04-11T15:11:44.999Z</time></trkpt><trkpt lat="44.59318169806666" lon="10.056996065046873"><ele>890.0</ele><time>2026-04-11T15:11:45.999Z</time></trkpt><trkpt lat="44.59322349301064" lon="10.057308219989586"><ele>885.5</ele><time>2026-04-11T15:11:46.999Z</time></trkpt><trkpt lat="44.593285904686795" lon="10.057611014092869"><ele>881.0</ele><time>2026-04-11T15:11:47.999Z</time></trkpt><trkpt lat="44.593399292209455" lon="10.057918078450443"><ele>881.0</ele><time>2026-04-11T15:11:48.999Z</time></trkpt><trkpt lat="44.59354770138142" lon="10.058199831785089"><ele>881.0</ele><time>2026-04-11T15:11:49.999Z</time></trkpt><trkpt lat="44.5936892611378" lon="10.058428089389764"><ele>880.0</ele><time>2026-04-11T15:11:50.999Z</time></trkpt><trkpt lat="44.59385221355075" lon="10.05858952850763"><ele>879.0</ele><time>2026-04-11T15:11:51.999Z</time></trkpt><trkpt lat="44.594056173552275" lon="10.058702459291917"><ele>878.0</ele><time>2026-04-11T15:11:52.999Z</time></trkpt><trkpt lat="44.59423082746096" lon="10.05883936850805"><ele>878.0</ele><time>2026-04-11T15:11:53.999Z</time></trkpt><trkpt lat="44.594348563124846" lon="10.059054992386297"><ele>878.0</ele><time>2026-04-11T15:11:54.999Z</time></trkpt><trkpt lat="44.59440483764016" lon="10.059351167988623"><ele>878.0</ele><time>2026-04-11T15:11:55.999Z</time></trkpt><trkpt lat="44.5944360395698" lon="10.059695681430341"><ele>878.3333333333334</ele><time>2026-04-11T15:11:56.999Z</time></trkpt><trkpt lat="44.59445254587963" lon="10.060020130559398"><ele>878.6666666666667</ele><time>2026-04-11T15:11:57.999Z</time></trkpt><trkpt lat="44.59451757905261" lon="10.060309778612984"><ele>879.0</ele><time>2026-04-11T15:11:58.999Z</time></trkpt><trkpt lat="44.594568244307304" lon="10.060608631332606"><ele>883.0</ele><time>2026-04-11T15:11:59.999Z</time></trkpt><trkpt lat="44.59461435938683" lon="10.060877758829882"><ele>887.0</ele><time>2026-04-11T15:12:00.999Z</time></trkpt><trkpt lat="44.5946738459081" lon="10.061138365207798"><ele>891.0</ele><time>2026-04-11T15:12:01.999Z</time></trkpt><trkpt lat="44.594768655585426" lon="10.061376942664955"><ele>891.0</ele><time>2026-04-11T15:12:02.999Z</time></trkpt><trkpt lat="44.59489513488963" lon="10.061615259294062"><ele>891.0</ele><time>2026-04-11T15:12:03.999Z</time></trkpt><trkpt lat="44.59502859254556" lon="10.061848573910712"><ele>891.0</ele><time>2026-04-11T15:12:04.999Z</time></trkpt><trkpt lat="44.59518511053929" lon="10.06206394597499"><ele>893.0</ele><time>2026-04-11T15:12:05.999Z</time></trkpt><trkpt lat="44.59535798137383" lon="10.062268426464911"><ele>895.0</ele><time>2026-04-11T15:12:06.999Z</time></trkpt><trkpt lat="44.59551569109254" lon="10.062467089648033"><ele>897.0</ele><time>2026-04-11T15:12:07.999Z</time></trkpt><trkpt lat="44.595660699128366" lon="10.062663602375837"><ele>897.0</ele><time>2026-04-11T15:12:08.999Z</time></trkpt><trkpt lat="44.595744332875825" lon="10.062899537319494"><ele>897.0</ele><time>2026-04-11T15:12:09.999Z</time></trkpt><trkpt lat="44.595788331486574" lon="10.063146846273412"><ele>897.0</ele><time>2026-04-11T15:12:10.999Z</time></trkpt><trkpt lat="44.59577343798721" lon="10.063421947212047"><ele>891.5</ele><time>2026-04-11T15:12:11.999Z</time></trkpt><trkpt lat="44.59569717233727" lon="10.063710763681463"><ele>886.0</ele><time>2026-04-11T15:12:12.999Z</time></trkpt><trkpt lat="44.59565390377668" lon="10.064052724889136"><ele>884.5</ele><time>2026-04-11T15:12:13.999Z</time></trkpt><trkpt lat="44.595640106565874" lon="10.064383228059858"><ele>883.0</ele><time>2026-04-11T15:12:14.999Z</time></trkpt><trkpt lat="44.595635253204506" lon="10.064712402344085"><ele>880.5</ele><time>2026-04-11T15:12:15.999Z</time></trkpt><trkpt lat="44.595648549101846" lon="10.065047481628712"><ele>878.0</ele><time>2026-04-11T15:12:16.999Z</time></trkpt><trkpt lat="44.59568997648198" lon="10.06536362656979"><ele>878.0</ele><time>2026-04-11T15:12:17.999Z</time></trkpt><trkpt lat="44.59571006447689" lon="10.0656701454539"><ele>878.0</ele><time>2026-04-11T15:12:18.999Z</time></trkpt><trkpt lat="44.59569029495339" lon="10.065989780636516"><ele>878.0</ele><time>2026-04-11T15:12:19.999Z</time></trkpt><trkpt lat="44.5956827784661" lon="10.066340972441424"><ele>869.5</ele><time>2026-04-11T15:12:20.999Z</time></trkpt><trkpt lat="44.595684351767254" lon="10.066698818472164"><ele>861.0</ele><time>2026-04-11T15:12:21.999Z</time></trkpt><trkpt lat="44.59571820714868" lon="10.067060538932099"><ele>861.0</ele><time>2026-04-11T15:12:22.999Z</time></trkpt><trkpt lat="44.59577661706325" lon="10.067409057284975"><ele>861.0</ele><time>2026-04-11T15:12:23.999Z</time></trkpt><trkpt lat="44.595841959570166" lon="10.06772957040122"><ele>855.0</ele><time>2026-04-11T15:12:24.999Z</time></trkpt><trkpt lat="44.59593014751751" lon="10.068029261486563"><ele>849.0</ele><time>2026-04-11T15:12:25.999Z</time></trkpt><trkpt lat="44.596063744730884" lon="10.068305302003749"><ele>855.3333333333333</ele><time>2026-04-11T15:12:26.999Z</time></trkpt><trkpt lat="44.596213996551775" lon="10.068556378328736"><ele>861.6666666666666</ele><time>2026-04-11T15:12:27.999Z</time></trkpt><trkpt lat="44.59629865306482" lon="10.068817708588082"><ele>868.0</ele><time>2026-04-11T15:12:28.999Z</time></trkpt><trkpt lat="44.596354249866835" lon="10.069106911596778"><ele>865.3333333333333</ele><time>2026-04-11T15:12:29.999Z</time></trkpt><trkpt lat="44.596398861150185" lon="10.069390126385324"><ele>862.6666666666667</ele><time>2026-04-11T15:12:30.999Z</time></trkpt><trkpt lat="44.596459483961155" lon="10.069643192725437"><ele>860.0</ele><time>2026-04-11T15:12:31.999Z</time></trkpt><trkpt lat="44.596513799864546" lon="10.069858138042957"><ele>854.3333333333334</ele><time>2026-04-11T15:12:32.999Z</time></trkpt><trkpt lat="44.5966290904238" lon="10.070019537247108"><ele>848.6666666666667</ele><time>2026-04-11T15:12:33.999Z</time></trkpt><trkpt lat="44.59681694280579" lon="10.070097897417462"><ele>843.0</ele><time>2026-04-11T15:12:34.999Z</time></trkpt><trkpt lat="44.59703730906436" lon="10.070146318192117"><ele>842.0</ele><time>2026-04-11T15:12:35.999Z</time></trkpt><trkpt lat="44.59727247151857" lon="10.070128305482644"><ele>841.0</ele><time>2026-04-11T15:12:36.999Z</time></trkpt><trkpt lat="44.59750060838538" lon="10.070101077609403"><ele>841.0</ele><time>2026-04-11T15:12:37.999Z</time></trkpt><trkpt lat="44.59772238247121" lon="10.070082539568048"><ele>841.0</ele><time>2026-04-11T15:12:38.999Z</time></trkpt><trkpt lat="44.5979485433379" lon="10.070066585467442"><ele>841.0</ele><time>2026-04-11T15:12:39.999Z</time></trkpt><trkpt lat="44.59816513489151" lon="10.070052109296306"><ele>836.3333333333333</ele><time>2026-04-11T15:12:40.999Z</time></trkpt><trkpt lat="44.59836275920038" lon="10.070096414830129"><ele>831.6666666666667</ele><time>2026-04-11T15:12:42Z</time></trkpt><trkpt lat="44.598546198246005" lon="10.070197332257953"><ele>827.0</ele><time>2026-04-11T15:12:43Z</time></trkpt><trkpt lat="44.59871077192251" lon="10.070332816768513"><ele>822.3333333333334</ele><time>2026-04-11T15:12:44Z</time></trkpt><trkpt lat="44.5988597662641" lon="10.070415478560355"><ele>817.6666666666667</ele><time>2026-04-11T15:12:45Z</time></trkpt><trkpt lat="44.59901255620737" lon="10.07046234884179"><ele>813.0</ele><time>2026-04-11T15:12:46Z</time></trkpt><trkpt lat="44.59919958342855" lon="10.070407689271178"><ele>813.0</ele><time>2026-04-11T15:12:47Z</time></trkpt><trkpt lat="44.59937349762298" lon="10.070294188311003"><ele>813.0</ele><time>2026-04-11T15:12:48Z</time></trkpt><trkpt lat="44.59950115532156" lon="10.070234038016576"><ele>813.0</ele><time>2026-04-11T15:12:49Z</time></trkpt><trkpt lat="44.599640337473566" lon="10.070245580863103"><ele>809.0</ele><time>2026-04-11T15:12:50Z</time></trkpt><trkpt lat="44.59979035922905" lon="10.070321366460576"><ele>805.0</ele><time>2026-04-11T15:12:51Z</time></trkpt><trkpt lat="44.59994809743885" lon="10.070323879086743"><ele>801.0</ele><time>2026-04-11T15:12:52Z</time></trkpt><trkpt lat="44.60013099950413" lon="10.07069010179667"><ele>798.6666666666667</ele><time>2026-04-11T15:12:53Z</time></trkpt><trkpt lat="44.6002926631439" lon="10.070819022057615"><ele>796.3333333333334</ele><time>2026-04-11T15:12:54Z</time></trkpt><trkpt lat="44.6004223751596" lon="10.070974196561538"><ele>794.0</ele><time>2026-04-11T15:12:55Z</time></trkpt><trkpt lat="44.60050841384253" lon="10.0711803155375"><ele>794.0</ele><time>2026-04-11T15:12:56Z</time></trkpt><trkpt lat="44.60055007533456" lon="10.07143711437014"><ele>794.0</ele><time>2026-04-11T15:12:57Z</time></trkpt><trkpt lat="44.600585296920514" lon="10.071672680225726"><ele>794.0</ele><time>2026-04-11T15:12:58Z</time></trkpt><trkpt lat="44.60064411920561" lon="10.071846221384439"><ele>795.25</ele><time>2026-04-11T15:12:59Z</time></trkpt><trkpt lat="44.60071578155514" lon="10.071969570843951"><ele>796.5</ele><time>2026-04-11T15:13:00Z</time></trkpt><trkpt lat="44.60082235985718" lon="10.072020984104514"><ele>797.75</ele><time>2026-04-11T15:13:01Z</time></trkpt><trkpt lat="44.600945856991075" lon="10.071999516688011"><ele>799.0</ele><time>2026-04-11T15:13:02Z</time></trkpt><trkpt lat="44.601068957467675" lon="10.071896630701707"><ele>796.0</ele><time>2026-04-11T15:13:03Z</time></trkpt><trkpt lat="44.601200450039805" lon="10.071754756863758"><ele>793.0</ele><time>2026-04-11T15:13:04Z</time></trkpt><trkpt lat="44.601344878466136" lon="10.071618451608224"><ele>790.0</ele><time>2026-04-11T15:13:05Z</time></trkpt><trkpt lat="44.60150991937961" lon="10.071486885895245"><ele>789.3333333333333</ele><time>2026-04-11T15:13:06Z</time></trkpt><trkpt lat="44.601694184454026" lon="10.071356070322558"><ele>788.6666666666667</ele><time>2026-04-11T15:13:07Z</time></trkpt><trkpt lat="44.6018842520121" lon="10.071160491094808"><ele>788.0</ele><time>2026-04-11T15:13:08Z</time></trkpt><trkpt lat="44.602012805721685" lon="10.071079850642976"><ele>787.75</ele><time>2026-04-11T15:13:09Z</time></trkpt><trkpt lat="44.60211247905974" lon="10.071019218153742"><ele>787.5</ele><time>2026-04-11T15:13:10Z</time></trkpt><trkpt lat="44.60226464812516" lon="10.070846141207833"><ele>787.25</ele><time>2026-04-11T15:13:11Z</time></trkpt><trkpt lat="44.60237546014587" lon="10.070757331361142"><ele>787.0</ele><time>2026-04-11T15:13:12Z</time></trkpt><trkpt lat="44.602471868026605" lon="10.070726133912652"><ele>787.0</ele><time>2026-04-11T15:13:13Z</time></trkpt><trkpt lat="44.602573667449214" lon="10.07074345999521"><ele>787.0</ele><time>2026-04-11T15:13:14Z</time></trkpt><trkpt lat="44.60265766405256" lon="10.070828178676859"><ele>787.0</ele><time>2026-04-11T15:13:15Z</time></trkpt><trkpt lat="44.60271541751763" lon="10.070970395389681"><ele>787.0</ele><time>2026-04-11T15:13:16Z</time></trkpt><trkpt lat="44.602762323323226" lon="10.071148129311327"><ele>783.0</ele><time>2026-04-11T15:13:17Z</time></trkpt><trkpt lat="44.60285230642133" lon="10.071368689825913"><ele>779.0</ele><time>2026-04-11T15:13:18Z</time></trkpt><trkpt lat="44.60296821719748" lon="10.071634052983235"><ele>775.0</ele><time>2026-04-11T15:13:19Z</time></trkpt><trkpt lat="44.60303900838595" lon="10.071909596649832"><ele>775.0</ele><time>2026-04-11T15:13:20Z</time></trkpt><trkpt lat="44.60308457677892" lon="10.072060681590191"><ele>775.0</ele><time>2026-04-11T15:13:21Z</time></trkpt><trkpt lat="44.60314582958722" lon="10.072205940018895"><ele>775.0</ele><time>2026-04-11T15:13:22Z</time></trkpt><trkpt lat="44.60325338568075" lon="10.07231063316897"><ele>775.0</ele><time>2026-04-11T15:13:23Z</time></trkpt><trkpt lat="44.603409079283026" lon="10.072336706833294"><ele>775.0</ele><time>2026-04-11T15:13:24Z</time></trkpt><trkpt lat="44.603579256733816" lon="10.072283241687868"><ele>775.0</ele><time>2026-04-11T15:13:25Z</time></trkpt><trkpt lat="44.6037421213744" lon="10.07223785554857"><ele>775.0</ele><time>2026-04-11T15:13:26Z</time></trkpt><trkpt lat="44.603902892318885" lon="10.07224407004342"><ele>775.3333333333333</ele><time>2026-04-11T15:13:27Z</time></trkpt><trkpt lat="44.60407666388748" lon="10.072313384239223"><ele>775.6666666666667</ele><time>2026-04-11T15:13:28Z</time></trkpt><trkpt lat="44.60427007188751" lon="10.072398594402264"><ele>776.0</ele><time>2026-04-11T15:13:29Z</time></trkpt><trkpt lat="44.60446061421678" lon="10.072452056679213"><ele>775.0</ele><time>2026-04-11T15:13:30Z</time></trkpt><trkpt lat="44.60466409480441" lon="10.072449294771866"><ele>774.0</ele><time>2026-04-11T15:13:31Z</time></trkpt><trkpt lat="44.604893016482606" lon="10.07235275138718"><ele>773.0</ele><time>2026-04-11T15:13:32Z</time></trkpt><trkpt lat="44.60512889448424" lon="10.072254144545582"><ele>771.0</ele><time>2026-04-11T15:13:33Z</time></trkpt><trkpt lat="44.60536599423524" lon="10.07216070185846"><ele>769.0</ele><time>2026-04-11T15:13:34Z</time></trkpt><trkpt lat="44.60560353056427" lon="10.072069507204917"><ele>769.0</ele><time>2026-04-11T15:13:35Z</time></trkpt><trkpt lat="44.605818789670884" lon="10.071978815308496"><ele>769.0</ele><time>2026-04-11T15:13:36Z</time></trkpt><trkpt lat="44.60600853405947" lon="10.071864985861923"><ele>769.0</ele><time>2026-04-11T15:13:37Z</time></trkpt><trkpt lat="44.606181185273066" lon="10.071770819164694"><ele>768.6666666666666</ele><time>2026-04-11T15:13:38Z</time></trkpt><trkpt lat="44.60633668286972" lon="10.071747858330147"><ele>768.3333333333333</ele><time>2026-04-11T15:13:39Z</time></trkpt><trkpt lat="44.60648434747679" lon="10.071839916322531"><ele>768.0</ele><time>2026-04-11T15:13:40Z</time></trkpt><trkpt lat="44.60666000774084" lon="10.071958970957278"><ele>768.0</ele><time>2026-04-11T15:13:41Z</time></trkpt><trkpt lat="44.60686577056884" lon="10.071975454261231"><ele>768.0</ele><time>2026-04-11T15:13:42Z</time></trkpt><trkpt lat="44.60708877987631" lon="10.071956432954039"><ele>768.0</ele><time>2026-04-11T15:13:43Z</time></trkpt><trkpt lat="44.60729984315063" lon="10.071951904627554"><ele>771.6666666666667</ele><time>2026-04-11T15:13:44Z</time></trkpt><trkpt lat="44.607480327282126" lon="10.071953887948682"><ele>775.3333333333334</ele><time>2026-04-11T15:13:45Z</time></trkpt><trkpt lat="44.60763387142795" lon="10.071935900875612"><ele>779.0</ele><time>2026-04-11T15:13:46Z</time></trkpt><trkpt lat="44.60776494556103" lon="10.071846302154079"><ele>777.0</ele><time>2026-04-11T15:13:47Z</time></trkpt><trkpt lat="44.6078825743512" lon="10.071657948417249"><ele>775.0</ele><time>2026-04-11T15:13:48Z</time></trkpt><trkpt lat="44.60799589473168" lon="10.071449687692015"><ele>773.0</ele><time>2026-04-11T15:13:49Z</time></trkpt><trkpt lat="44.6081119982204" lon="10.071301695800553"><ele>773.0</ele><time>2026-04-11T15:13:50Z</time></trkpt><trkpt lat="44.608264991379905" lon="10.071214482001988"><ele>773.0</ele><time>2026-04-11T15:13:51Z</time></trkpt><trkpt lat="44.608465687879786" lon="10.07120856444952"><ele>773.0</ele><time>2026-04-11T15:13:52Z</time></trkpt><trkpt lat="44.608695519621484" lon="10.071287477285516"><ele>773.0</ele><time>2026-04-11T15:13:53Z</time></trkpt><trkpt lat="44.60893877075846" lon="10.071394864983514"><ele>773.0</ele><time>2026-04-11T15:13:53.999Z</time></trkpt><trkpt lat="44.609169739202144" lon="10.071478255051304"><ele>773.0</ele><time>2026-04-11T15:13:54.999Z</time></trkpt><trkpt lat="44.60940273655703" lon="10.07157723279634"><ele>773.0</ele><time>2026-04-11T15:13:55.999Z</time></trkpt><trkpt lat="44.609563299764744" lon="10.071614187918401"><ele>773.0</ele><time>2026-04-11T15:13:56.999Z</time></trkpt><trkpt lat="44.60987435657213" lon="10.071712783741056"><ele>777.6666666666667</ele><time>2026-04-11T15:13:57.999Z</time></trkpt><trkpt lat="44.610068136108325" lon="10.071782869955523"><ele>782.3333333333333</ele><time>2026-04-11T15:13:58.999Z</time></trkpt><trkpt lat="44.61022681534236" lon="10.071836512742335"><ele>787.0</ele><time>2026-04-11T15:13:59.999Z</time></trkpt><trkpt lat="44.61037369116762" lon="10.071867785970944"><ele>788.3333333333333</ele><time>2026-04-11T15:14:00.999Z</time></trkpt><trkpt lat="44.61053554685437" lon="10.07185001467986"><ele>789.6666666666667</ele><time>2026-04-11T15:14:01.999Z</time></trkpt><trkpt lat="44.610707944988754" lon="10.071766040573678"><ele>791.0</ele><time>2026-04-11T15:14:02.999Z</time></trkpt><trkpt lat="44.61086880079376" lon="10.071631976954334"><ele>789.3333333333334</ele><time>2026-04-11T15:14:03.999Z</time></trkpt><trkpt lat="44.61097534078711" lon="10.071420419987584"><ele>787.6666666666667</ele><time>2026-04-11T15:14:04.999Z</time></trkpt><trkpt lat="44.61104900213975" lon="10.071137169223263"><ele>786.0</ele><time>2026-04-11T15:14:05.999Z</time></trkpt><trkpt lat="44.61110491359243" lon="10.070835412619394"><ele>787.0</ele><time>2026-04-11T15:14:06.999Z</time></trkpt><trkpt lat="44.6111324519137" lon="10.070574003532903"><ele>788.0</ele><time>2026-04-11T15:14:07.999Z</time></trkpt><trkpt lat="44.611155953027705" lon="10.070299179625557"><ele>789.0</ele><time>2026-04-11T15:14:08.999Z</time></trkpt><trkpt lat="44.611193834230015" lon="10.070070948362098"><ele>789.0</ele><time>2026-04-11T15:14:09.999Z</time></trkpt><trkpt lat="44.6112890076244" lon="10.069956879177408"><ele>789.0</ele><time>2026-04-11T15:14:10.999Z</time></trkpt><trkpt lat="44.61140267622087" lon="10.069922618348683"><ele>789.0</ele><time>2026-04-11T15:14:11.999Z</time></trkpt><trkpt lat="44.611547280548464" lon="10.069955987677265"><ele>789.0</ele><time>2026-04-11T15:14:12.999Z</time></trkpt><trkpt lat="44.61174459852895" lon="10.070021872654127"><ele>789.0</ele><time>2026-04-11T15:14:13.999Z</time></trkpt><trkpt lat="44.611968620253265" lon="10.070079629077876"><ele>789.0</ele><time>2026-04-11T15:14:14.999Z</time></trkpt><trkpt lat="44.612188668271216" lon="10.070117113312138"><ele>789.0</ele><time>2026-04-11T15:14:15.999Z</time></trkpt><trkpt lat="44.61239780096324" lon="10.070169544495894"><ele>787.0</ele><time>2026-04-11T15:14:16.999Z</time></trkpt><trkpt lat="44.61259113289392" lon="10.070203701439425"><ele>785.0</ele><time>2026-04-11T15:14:17.999Z</time></trkpt><trkpt lat="44.61279127243797" lon="10.070172089060517"><ele>783.0</ele><time>2026-04-11T15:14:18.999Z</time></trkpt><trkpt lat="44.61299019120106" lon="10.070056041934937"><ele>779.3333333333333</ele><time>2026-04-11T15:14:19.999Z</time></trkpt><trkpt lat="44.61315418332693" lon="10.069907010454223"><ele>775.6666666666666</ele><time>2026-04-11T15:14:20.999Z</time></trkpt><trkpt lat="44.613317423942746" lon="10.069719244326205"><ele>772.0</ele><time>2026-04-11T15:14:21.999Z</time></trkpt><trkpt lat="44.61348295655081" lon="10.069525443980599"><ele>772.0</ele><time>2026-04-11T15:14:22.999Z</time></trkpt><trkpt lat="44.61366134768178" lon="10.069321449580874"><ele>772.0</ele><time>2026-04-11T15:14:23.999Z</time></trkpt><trkpt lat="44.61385092906742" lon="10.069102184549152"><ele>770.25</ele><time>2026-04-11T15:14:24.999Z</time></trkpt><trkpt lat="44.614021086676374" lon="10.068917936281775"><ele>768.5</ele><time>2026-04-11T15:14:25.999Z</time></trkpt><trkpt lat="44.61412502172703" lon="10.068824795999635"><ele>766.75</ele><time>2026-04-11T15:14:26.999Z</time></trkpt><trkpt lat="44.61421771835196" lon="10.068738491444059"><ele>765.0</ele><time>2026-04-11T15:14:27.999Z</time></trkpt><trkpt lat="44.61452371731388" lon="10.068307906480811"><ele>763.0</ele><time>2026-04-11T15:14:28.999Z</time></trkpt><trkpt lat="44.614638547216096" lon="10.068127262366406"><ele>761.0</ele><time>2026-04-11T15:14:29.999Z</time></trkpt><trkpt lat="44.614701188136614" lon="10.06791301956392"><ele>759.0</ele><time>2026-04-11T15:14:30.999Z</time></trkpt><trkpt lat="44.61465834352903" lon="10.067653711465978"><ele>756.5</ele><time>2026-04-11T15:14:31.999Z</time></trkpt><trkpt lat="44.61460493222578" lon="10.067410263033313"><ele>754.0</ele><time>2026-04-11T15:14:32.999Z</time></trkpt><trkpt lat="44.61457384159674" lon="10.06723073939512"><ele>751.5</ele><time>2026-04-11T15:14:33.999Z</time></trkpt><trkpt lat="44.614638219411944" lon="10.067073505777845"><ele>749.0</ele><time>2026-04-11T15:14:34.999Z</time></trkpt><trkpt lat="44.614760566759394" lon="10.066924002560457"><ele>749.0</ele><time>2026-04-11T15:14:35.999Z</time></trkpt><trkpt lat="44.6149133755844" lon="10.066705805047498"><ele>749.0</ele><time>2026-04-11T15:14:36.999Z</time></trkpt><trkpt lat="44.615054023806024" lon="10.066492028504793"><ele>749.0</ele><time>2026-04-11T15:14:37.999Z</time></trkpt><trkpt lat="44.61518471221209" lon="10.066301316943465"><ele>746.0</ele><time>2026-04-11T15:14:38.999Z</time></trkpt><trkpt lat="44.615307584952646" lon="10.066119560739214"><ele>743.0</ele><time>2026-04-11T15:14:39.999Z</time></trkpt><trkpt lat="44.61543034415845" lon="10.066011290785616"><ele>740.0</ele><time>2026-04-11T15:14:40.999Z</time></trkpt><trkpt lat="44.61555591960231" lon="10.065958333427274"><ele>740.0</ele><time>2026-04-11T15:14:41.999Z</time></trkpt><trkpt lat="44.61569460259989" lon="10.066047097638195"><ele>740.0</ele><time>2026-04-11T15:14:42.999Z</time></trkpt><trkpt lat="44.61588518962164" lon="10.066106262320869"><ele>740.0</ele><time>2026-04-11T15:14:43.999Z</time></trkpt><trkpt lat="44.61608970532681" lon="10.066148507026814"><ele>736.0</ele><time>2026-04-11T15:14:44.999Z</time></trkpt><trkpt lat="44.61627663199773" lon="10.066214112166579"><ele>732.0</ele><time>2026-04-11T15:14:45.999Z</time></trkpt><trkpt lat="44.616449665266494" lon="10.066262069046406"><ele>728.0</ele><time>2026-04-11T15:14:46.999Z</time></trkpt><trkpt lat="44.61660891591769" lon="10.066335116999754"><ele>728.0</ele><time>2026-04-11T15:14:48Z</time></trkpt><trkpt lat="44.61676137301303" lon="10.06639425012571"><ele>728.0</ele><time>2026-04-11T15:14:49Z</time></trkpt><trkpt lat="44.616873143728874" lon="10.06649831236888"><ele>728.0</ele><time>2026-04-11T15:14:50Z</time></trkpt><trkpt lat="44.61696114791738" lon="10.066664894185882"><ele>728.0</ele><time>2026-04-11T15:14:51Z</time></trkpt><trkpt lat="44.61709637098412" lon="10.066877781315375"><ele>726.0</ele><time>2026-04-11T15:14:52Z</time></trkpt><trkpt lat="44.61724715554025" lon="10.06705997111464"><ele>724.0</ele><time>2026-04-11T15:14:53Z</time></trkpt><trkpt lat="44.6174093008989" lon="10.067186848772936"><ele>722.0</ele><time>2026-04-11T15:14:54Z</time></trkpt><trkpt lat="44.617538812830794" lon="10.067303149996816"><ele>722.0</ele><time>2026-04-11T15:14:55Z</time></trkpt><trkpt lat="44.61760330553071" lon="10.067441860006117"><ele>722.0</ele><time>2026-04-11T15:14:56Z</time></trkpt><trkpt lat="44.617619132970894" lon="10.067581919002615"><ele>722.0</ele><time>2026-04-11T15:14:57Z</time></trkpt><trkpt lat="44.61765143083353" lon="10.067773258736851"><ele>722.0</ele><time>2026-04-11T15:14:58Z</time></trkpt><trkpt lat="44.6177229123713" lon="10.067994850591608"><ele>724.0</ele><time>2026-04-11T15:14:59Z</time></trkpt><trkpt lat="44.61779383016682" lon="10.068205436436095"><ele>726.0</ele><time>2026-04-11T15:15:00Z</time></trkpt><trkpt lat="44.61790858007191" lon="10.068405070417683"><ele>728.0</ele><time>2026-04-11T15:15:01Z</time></trkpt><trkpt lat="44.618026103796595" lon="10.068573222890983"><ele>724.25</ele><time>2026-04-11T15:15:02Z</time></trkpt><trkpt lat="44.618099361248696" lon="10.06874188281567"><ele>720.5</ele><time>2026-04-11T15:15:03Z</time></trkpt><trkpt lat="44.61820212765286" lon="10.068887057824568"><ele>716.75</ele><time>2026-04-11T15:15:04Z</time></trkpt><trkpt lat="44.618278262524186" lon="10.069026600703642"><ele>713.0</ele><time>2026-04-11T15:15:05Z</time></trkpt><trkpt lat="44.61832409109621" lon="10.069177115623582"><ele>713.0</ele><time>2026-04-11T15:15:06Z</time></trkpt><trkpt lat="44.61833074561821" lon="10.069321127712321"><ele>713.0</ele><time>2026-04-11T15:15:07Z</time></trkpt><trkpt lat="44.61829720749721" lon="10.069487696669782"><ele>713.0</ele><time>2026-04-11T15:15:08Z</time></trkpt><trkpt lat="44.618246902067206" lon="10.069772880848143"><ele>713.0</ele><time>2026-04-11T15:15:09Z</time></trkpt><trkpt lat="44.61819334723427" lon="10.070087154513374"><ele>710.5</ele><time>2026-04-11T15:15:10Z</time></trkpt><trkpt lat="44.61815795555925" lon="10.07040415988628"><ele>708.0</ele><time>2026-04-11T15:15:11Z</time></trkpt><trkpt lat="44.618173694016726" lon="10.070721275550158"><ele>706.6666666666666</ele><time>2026-04-11T15:15:12Z</time></trkpt><trkpt lat="44.61820619333385" lon="10.07099355242034"><ele>705.3333333333333</ele><time>2026-04-11T15:15:13Z</time></trkpt><trkpt lat="44.618178094341076" lon="10.071256921920998"><ele>704.0</ele><time>2026-04-11T15:15:14Z</time></trkpt><trkpt lat="44.61812484534856" lon="10.071496485871373"><ele>703.0</ele><time>2026-04-11T15:15:15Z</time></trkpt><trkpt lat="44.6180890156577" lon="10.071703916124614"><ele>702.0</ele><time>2026-04-11T15:15:16Z</time></trkpt><trkpt lat="44.61807784716106" lon="10.0718736412853"><ele>701.0</ele><time>2026-04-11T15:15:17Z</time></trkpt><trkpt lat="44.61811560521024" lon="10.072017502035841"><ele>700.0</ele><time>2026-04-11T15:15:18Z</time></trkpt><trkpt lat="44.61821498800327" lon="10.072158581042277"><ele>700.0</ele><time>2026-04-11T15:15:19Z</time></trkpt><trkpt lat="44.6183597372966" lon="10.072259576097569"><ele>700.0</ele><time>2026-04-11T15:15:20Z</time></trkpt><trkpt lat="44.618548932995765" lon="10.072308923509695"><ele>700.0</ele><time>2026-04-11T15:15:21Z</time></trkpt><trkpt lat="44.61876979222121" lon="10.072319476936398"><ele>694.3333333333334</ele><time>2026-04-11T15:15:22Z</time></trkpt><trkpt lat="44.61898744719652" lon="10.072322299636898"><ele>688.6666666666666</ele><time>2026-04-11T15:15:23Z</time></trkpt><trkpt lat="44.619218992046584" lon="10.072333897435152"><ele>683.0</ele><time>2026-04-11T15:15:24Z</time></trkpt><trkpt lat="44.619423792917964" lon="10.072359765127171"><ele>681.25</ele><time>2026-04-11T15:15:25Z</time></trkpt><trkpt lat="44.61961123001035" lon="10.07237511214073"><ele>679.5</ele><time>2026-04-11T15:15:26Z</time></trkpt><trkpt lat="44.619748680216354" lon="10.0723890339606"><ele>677.75</ele><time>2026-04-11T15:15:27Z</time></trkpt><trkpt lat="44.61984084137359" lon="10.072445195822505"><ele>676.0</ele><time>2026-04-11T15:15:28Z</time></trkpt><trkpt lat="44.619881816524455" lon="10.072574561499076"><ele>676.0</ele><time>2026-04-11T15:15:29Z</time></trkpt><trkpt lat="44.61981904469067" lon="10.07277307061954"><ele>676.0</ele><time>2026-04-11T15:15:30Z</time></trkpt><trkpt lat="44.61980819909353" lon="10.073061126286909"><ele>676.0</ele><time>2026-04-11T15:15:31Z</time></trkpt><trkpt lat="44.619782589258584" lon="10.07331079660077"><ele>676.3333333333334</ele><time>2026-04-11T15:15:32Z</time></trkpt><trkpt lat="44.61978243581598" lon="10.073558199515826"><ele>676.6666666666666</ele><time>2026-04-11T15:15:33Z</time></trkpt><trkpt lat="44.61984727270062" lon="10.073806664079163"><ele>677.0</ele><time>2026-04-11T15:15:34Z</time></trkpt><trkpt lat="44.61995876088021" lon="10.07400551586625"><ele>678.3333333333333</ele><time>2026-04-11T15:15:35Z</time></trkpt><trkpt lat="44.62011360903136" lon="10.074138723250277"><ele>679.6666666666666</ele><time>2026-04-11T15:15:36Z</time></trkpt><trkpt lat="44.62029755906412" lon="10.074216322194626"><ele>681.0</ele><time>2026-04-11T15:15:37Z</time></trkpt><trkpt lat="44.620497922184406" lon="10.0742666341446"><ele>675.0</ele><time>2026-04-11T15:15:38Z</time></trkpt><trkpt lat="44.620647751288786" lon="10.074367831711493"><ele>669.0</ele><time>2026-04-11T15:15:39Z</time></trkpt><trkpt lat="44.62076325727664" lon="10.074505662738739"><ele>663.0</ele><time>2026-04-11T15:15:40Z</time></trkpt><trkpt lat="44.62084923338403" lon="10.074721406059112"><ele>665.5</ele><time>2026-04-11T15:15:41Z</time></trkpt><trkpt lat="44.620960080640565" lon="10.074990763202297"><ele>668.0</ele><time>2026-04-11T15:15:42Z</time></trkpt><trkpt lat="44.62110816035731" lon="10.0752747664715"><ele>665.0</ele><time>2026-04-11T15:15:43Z</time></trkpt><trkpt lat="44.621264184417164" lon="10.075486749538328"><ele>662.0</ele><time>2026-04-11T15:15:44Z</time></trkpt><trkpt lat="44.621417236948545" lon="10.075675654086082"><ele>659.0</ele><time>2026-04-11T15:15:45Z</time></trkpt><trkpt lat="44.621557595030154" lon="10.075860512159739"><ele>659.0</ele><time>2026-04-11T15:15:46Z</time></trkpt><trkpt lat="44.62169338701059" lon="10.076042077911602"><ele>659.0</ele><time>2026-04-11T15:15:47Z</time></trkpt><trkpt lat="44.62182630938126" lon="10.076221435558844"><ele>659.0</ele><time>2026-04-11T15:15:48Z</time></trkpt><trkpt lat="44.62195562656233" lon="10.076401766023773"><ele>658.5</ele><time>2026-04-11T15:15:49Z</time></trkpt><trkpt lat="44.62206416472862" lon="10.076548681904905"><ele>658.0</ele><time>2026-04-11T15:15:50Z</time></trkpt><trkpt lat="44.62215316244207" lon="10.076597845994467"><ele>657.5</ele><time>2026-04-11T15:15:51Z</time></trkpt><trkpt lat="44.62225960302343" lon="10.076552509901362"><ele>657.0</ele><time>2026-04-11T15:15:52Z</time></trkpt><trkpt lat="44.62237626722158" lon="10.076413015922409"><ele>657.0</ele><time>2026-04-11T15:15:53Z</time></trkpt><trkpt lat="44.62247211686497" lon="10.07621213717494"><ele>657.0</ele><time>2026-04-11T15:15:54Z</time></trkpt><trkpt lat="44.62259302180205" lon="10.076060314811834"><ele>657.0</ele><time>2026-04-11T15:15:55Z</time></trkpt><trkpt lat="44.622773392499035" lon="10.076033064481601"><ele>655.6666666666666</ele><time>2026-04-11T15:15:55.999Z</time></trkpt><trkpt lat="44.62295882979739" lon="10.076065701097168"><ele>654.3333333333333</ele><time>2026-04-11T15:15:56.999Z</time></trkpt><trkpt lat="44.62314360538455" lon="10.076140663220992"><ele>653.0</ele><time>2026-04-11T15:15:57.999Z</time></trkpt><trkpt lat="44.62332768140187" lon="10.076271041203162"><ele>653.0</ele><time>2026-04-11T15:15:58.999Z</time></trkpt><trkpt lat="44.62350232553749" lon="10.076448486631447"><ele>653.0</ele><time>2026-04-11T15:15:59.999Z</time></trkpt><trkpt lat="44.62360323784874" lon="10.076613042733864"><ele>653.0</ele><time>2026-04-11T15:16:00.999Z</time></trkpt><trkpt lat="44.62362683024682" lon="10.076806674180803"><ele>652.2</ele><time>2026-04-11T15:16:01.999Z</time></trkpt><trkpt lat="44.623618789867976" lon="10.07698011346514"><ele>651.4</ele><time>2026-04-11T15:16:02.999Z</time></trkpt><trkpt lat="44.62360980716206" lon="10.077153508797275"><ele>650.6</ele><time>2026-04-11T15:16:03.999Z</time></trkpt><trkpt lat="44.62359988882573" lon="10.077293392679149"><ele>649.8000000000001</ele><time>2026-04-11T15:16:04.999Z</time></trkpt><trkpt lat="44.62361180542558" lon="10.07741806138956"><ele>649.0</ele><time>2026-04-11T15:16:05.999Z</time></trkpt><trkpt lat="44.62364128759523" lon="10.077536453227191"><ele>649.25</ele><time>2026-04-11T15:16:06.999Z</time></trkpt><trkpt lat="44.623692596234044" lon="10.07764314346988"><ele>649.5</ele><time>2026-04-11T15:16:07.999Z</time></trkpt><trkpt lat="44.62377393388672" lon="10.077721638263364"><ele>649.75</ele><time>2026-04-11T15:16:08.999Z</time></trkpt><trkpt lat="44.623887833108235" lon="10.077834364421907"><ele>650.0</ele><time>2026-04-11T15:16:09.999Z</time></trkpt><trkpt lat="44.623998023890785" lon="10.077990886689772"><ele>650.0</ele><time>2026-04-11T15:16:10.999Z</time></trkpt><trkpt lat="44.62404560785921" lon="10.07816806301569"><ele>650.0</ele><time>2026-04-11T15:16:11.999Z</time></trkpt><trkpt lat="44.6240435305717" lon="10.078326860301544"><ele>650.0</ele><time>2026-04-11T15:16:12.999Z</time></trkpt><trkpt lat="44.62406331884733" lon="10.07843411289002"><ele>650.0</ele><time>2026-04-11T15:16:13.999Z</time></trkpt><trkpt lat="44.62406936946966" lon="10.078555647502846"><ele>650.0</ele><time>2026-04-11T15:16:14.999Z</time></trkpt><trkpt lat="44.624086250505094" lon="10.07867308345907"><ele>649.5</ele><time>2026-04-11T15:16:15.999Z</time></trkpt><trkpt lat="44.62412548209229" lon="10.078785338839381"><ele>649.0</ele><time>2026-04-11T15:16:16.999Z</time></trkpt><trkpt lat="44.62420630563873" lon="10.078897246219363"><ele>648.5</ele><time>2026-04-11T15:16:17.999Z</time></trkpt><trkpt lat="44.62433562901806" lon="10.079005365589026"><ele>648.0</ele><time>2026-04-11T15:16:18.999Z</time></trkpt><trkpt lat="44.62446976173272" lon="10.079094959115459"><ele>646.75</ele><time>2026-04-11T15:16:19.999Z</time></trkpt><trkpt lat="44.62458688280137" lon="10.07915573121213"><ele>645.5</ele><time>2026-04-11T15:16:20.999Z</time></trkpt><trkpt lat="44.62471011358096" lon="10.07914246713706"><ele>644.25</ele><time>2026-04-11T15:16:21.999Z</time></trkpt><trkpt lat="44.62487070718978" lon="10.07904391506438"><ele>643.0</ele><time>2026-04-11T15:16:22.999Z</time></trkpt><trkpt lat="44.62507113754253" lon="10.07886871141274"><ele>643.0</ele><time>2026-04-11T15:16:23.999Z</time></trkpt><trkpt lat="44.62526395050128" lon="10.078719994579458"><ele>643.0</ele><time>2026-04-11T15:16:24.999Z</time></trkpt><trkpt lat="44.62544055187017" lon="10.07860363528274"><ele>643.0</ele><time>2026-04-11T15:16:25.999Z</time></trkpt><trkpt lat="44.62560045654115" lon="10.078499944715842"><ele>639.6666666666667</ele><time>2026-04-11T15:16:26.999Z</time></trkpt><trkpt lat="44.62574585777203" lon="10.07841749670228"><ele>636.3333333333334</ele><time>2026-04-11T15:16:27.999Z</time></trkpt><trkpt lat="44.62589838222921" lon="10.078376317199215"><ele>633.0</ele><time>2026-04-11T15:16:28.999Z</time></trkpt><trkpt lat="44.626056150711726" lon="10.0784377965341"><ele>634.0</ele><time>2026-04-11T15:16:29.999Z</time></trkpt><trkpt lat="44.62622312673988" lon="10.078526165317443"><ele>635.0</ele><time>2026-04-11T15:16:30.999Z</time></trkpt><trkpt lat="44.6263526765904" lon="10.078633453069605"><ele>636.0</ele><time>2026-04-11T15:16:31.999Z</time></trkpt><trkpt lat="44.62647986292356" lon="10.078737861891545"><ele>636.0</ele><time>2026-04-11T15:16:32.999Z</time></trkpt><trkpt lat="44.626591339386295" lon="10.078859322664576"><ele>636.0</ele><time>2026-04-11T15:16:33.999Z</time></trkpt><trkpt lat="44.626684302307275" lon="10.07895437507137"><ele>636.0</ele><time>2026-04-11T15:16:34.999Z</time></trkpt><trkpt lat="44.62677250434925" lon="10.079027628139995"><ele>636.0</ele><time>2026-04-11T15:16:35.999Z</time></trkpt><trkpt lat="44.6268442761041" lon="10.079092671468288"><ele>636.0</ele><time>2026-04-11T15:16:36.999Z</time></trkpt><trkpt lat="44.626905940592174" lon="10.079163840456523"><ele>635.5</ele><time>2026-04-11T15:16:37.999Z</time></trkpt><trkpt lat="44.62696366635122" lon="10.079227228074222"><ele>635.0</ele><time>2026-04-11T15:16:38.999Z</time></trkpt><trkpt lat="44.627017966250385" lon="10.079291468469805"><ele>634.5</ele><time>2026-04-11T15:16:39.999Z</time></trkpt><trkpt lat="44.627073079764976" lon="10.07934755095337"><ele>634.0</ele><time>2026-04-11T15:16:40.999Z</time></trkpt><trkpt lat="44.62713120615106" lon="10.079401106356773"><ele>633.5</ele><time>2026-04-11T15:16:41.999Z</time></trkpt><trkpt lat="44.62719821988015" lon="10.079469858423732"><ele>633.0</ele><time>2026-04-11T15:16:42.999Z</time></trkpt><trkpt lat="44.627290764470054" lon="10.079531956152469"><ele>633.0</ele><time>2026-04-11T15:16:43.999Z</time></trkpt><trkpt lat="44.62740172090706" lon="10.079571220076247"><ele>633.0</ele><time>2026-04-11T15:16:44.999Z</time></trkpt><trkpt lat="44.62751870190085" lon="10.079595982579455"><ele>633.0</ele><time>2026-04-11T15:16:45.999Z</time></trkpt><trkpt lat="44.62762663866175" lon="10.07960940326947"><ele>633.0</ele><time>2026-04-11T15:16:46.999Z</time></trkpt><trkpt lat="44.627725647417776" lon="10.079627414875985"><ele>633.0</ele><time>2026-04-11T15:16:47.999Z</time></trkpt><trkpt lat="44.62782838718926" lon="10.07963947584518"><ele>632.1666666666666</ele><time>2026-04-11T15:16:48.999Z</time></trkpt><trkpt lat="44.62791998488479" lon="10.079647200371536"><ele>631.3333333333334</ele><time>2026-04-11T15:16:49.999Z</time></trkpt><trkpt lat="44.62800791128204" lon="10.079670982074537"><ele>630.5</ele><time>2026-04-11T15:16:50.999Z</time></trkpt><trkpt lat="44.62807586973789" lon="10.079730696875215"><ele>629.6666666666667</ele><time>2026-04-11T15:16:51.999Z</time></trkpt><trkpt lat="44.62813260669238" lon="10.079810535154584"><ele>628.8333333333334</ele><time>2026-04-11T15:16:52.999Z</time></trkpt><trkpt lat="44.628182313515396" lon="10.079889386225414"><ele>628.0</ele><time>2026-04-11T15:16:54Z</time></trkpt><trkpt lat="44.62823085620752" lon="10.07996940480653"><ele>626.5</ele><time>2026-04-11T15:16:55Z</time></trkpt><trkpt lat="44.628274173601355" lon="10.080042749268502"><ele>625.0</ele><time>2026-04-11T15:16:56Z</time></trkpt><trkpt lat="44.628327878310394" lon="10.080107436079697"><ele>623.5</ele><time>2026-04-11T15:16:57Z</time></trkpt><trkpt lat="44.62839998832912" lon="10.080143454958709"><ele>622.0</ele><time>2026-04-11T15:16:58Z</time></trkpt><trkpt lat="44.62848955354918" lon="10.08015233266998"><ele>620.5</ele><time>2026-04-11T15:16:59Z</time></trkpt><trkpt lat="44.628588866743506" lon="10.080115920695112"><ele>619.0</ele><time>2026-04-11T15:17:00Z</time></trkpt><trkpt lat="44.62867768098796" lon="10.080017371050227"><ele>617.8</ele><time>2026-04-11T15:17:01Z</time></trkpt><trkpt lat="44.62874104801034" lon="10.07988547089355"><ele>616.5999999999999</ele><time>2026-04-11T15:17:02Z</time></trkpt><trkpt lat="44.62874806190355" lon="10.0797515410327"><ele>615.4</ele><time>2026-04-11T15:17:03Z</time></trkpt><trkpt lat="44.62873939609642" lon="10.079623631206545"><ele>614.1999999999999</ele><time>2026-04-11T15:17:04Z</time></trkpt><trkpt lat="44.628743776974666" lon="10.0794908132438"><ele>613.0</ele><time>2026-04-11T15:17:05Z</time></trkpt><trkpt lat="44.62876480329011" lon="10.0793664607992"><ele>613.0</ele><time>2026-04-11T15:17:06Z</time></trkpt><trkpt lat="44.628806531594066" lon="10.07928691055153"><ele>613.0</ele><time>2026-04-11T15:17:07Z</time></trkpt><trkpt lat="44.628707093473366" lon="10.079362679766673"><ele>613.0</ele><time>2026-04-11T15:17:13Z</time></trkpt><trkpt lat="44.62870998048345" lon="10.079515477353562"><ele>613.0</ele><time>2026-04-11T15:17:14Z</time></trkpt><trkpt lat="44.62868960560255" lon="10.079653528621705"><ele>613.0</ele><time>2026-04-11T15:17:15Z</time></trkpt><trkpt lat="44.628682544778336" lon="10.079803080908338"><ele>614.5</ele><time>2026-04-11T15:17:16Z</time></trkpt><trkpt lat="44.6286599003848" lon="10.079942299128456"><ele>616.0</ele><time>2026-04-11T15:17:17Z</time></trkpt><trkpt lat="44.62858538612261" lon="10.080056371702929"><ele>617.5</ele><time>2026-04-11T15:17:18Z</time></trkpt><trkpt lat="44.628469526693735" lon="10.080118151355771"><ele>619.0</ele><time>2026-04-11T15:17:19Z</time></trkpt><trkpt lat="44.628349696084534" lon="10.08007990646632"><ele>619.0</ele><time>2026-04-11T15:17:20Z</time></trkpt><trkpt lat="44.62823296646637" lon="10.079949474066972"><ele>619.0</ele><time>2026-04-11T15:17:21Z</time></trkpt><trkpt lat="44.62815921155531" lon="10.079764544381478"><ele>619.0</ele><time>2026-04-11T15:17:22Z</time></trkpt><trkpt lat="44.6280644037337" lon="10.079631240922751"><ele>619.0</ele><time>2026-04-11T15:17:23Z</time></trkpt><trkpt lat="44.62791124886209" lon="10.079561139953098"><ele>623.6666666666667</ele><time>2026-04-11T15:17:24Z</time></trkpt><trkpt lat="44.62772343228995" lon="10.07954490834621"><ele>628.3333333333334</ele><time>2026-04-11T15:17:25Z</time></trkpt><trkpt lat="44.62753070719963" lon="10.079542394258565"><ele>633.0</ele><time>2026-04-11T15:17:26Z</time></trkpt><trkpt lat="44.62735497635512" lon="10.07952409096039"><ele>633.0</ele><time>2026-04-11T15:17:27Z</time></trkpt><trkpt lat="44.627204894368674" lon="10.079426154750019"><ele>633.0</ele><time>2026-04-11T15:17:28Z</time></trkpt><trkpt lat="44.627057175592675" lon="10.079273428377862"><ele>633.0</ele><time>2026-04-11T15:17:29Z</time></trkpt><trkpt lat="44.62684763789196" lon="10.079090849310898"><ele>634.0</ele><time>2026-04-11T15:17:30Z</time></trkpt><trkpt lat="44.62665287964796" lon="10.078868108380734"><ele>635.0</ele><time>2026-04-11T15:17:31Z</time></trkpt><trkpt lat="44.62656382820121" lon="10.078781850966276"><ele>636.0</ele><time>2026-04-11T15:17:32Z</time></trkpt><trkpt lat="44.6264076168004" lon="10.078628711764177"><ele>636.0</ele><time>2026-04-11T15:17:33Z</time></trkpt><trkpt lat="44.626270131634875" lon="10.078495729394406"><ele>636.0</ele><time>2026-04-11T15:17:34Z</time></trkpt><trkpt lat="44.626137883059826" lon="10.07839656465193"><ele>636.0</ele><time>2026-04-11T15:17:35Z</time></trkpt><trkpt lat="44.62599210700727" lon="10.07833443821009"><ele>635.0</ele><time>2026-04-11T15:17:36Z</time></trkpt><trkpt lat="44.62583549905697" lon="10.078312189792861"><ele>634.0</ele><time>2026-04-11T15:17:37Z</time></trkpt><trkpt lat="44.62567158664349" lon="10.078360139974444"><ele>633.0</ele><time>2026-04-11T15:17:38Z</time></trkpt><trkpt lat="44.62550226703303" lon="10.0784771352755"><ele>633.0</ele><time>2026-04-11T15:17:39Z</time></trkpt><trkpt lat="44.62534099209524" lon="10.078603257592295"><ele>633.0</ele><time>2026-04-11T15:17:40Z</time></trkpt><trkpt lat="44.62519590933971" lon="10.078714059036487"><ele>633.0</ele><time>2026-04-11T15:17:41Z</time></trkpt><trkpt lat="44.625058780894236" lon="10.078816630500588"><ele>635.5</ele><time>2026-04-11T15:17:42Z</time></trkpt><trkpt lat="44.62492787589561" lon="10.078911724135038"><ele>638.0</ele><time>2026-04-11T15:17:43Z</time></trkpt><trkpt lat="44.62480031364683" lon="10.078997470940985"><ele>640.5</ele><time>2026-04-11T15:17:44Z</time></trkpt><trkpt lat="44.62468514501011" lon="10.079075037108357"><ele>643.0</ele><time>2026-04-11T15:17:45Z</time></trkpt><trkpt lat="44.62457401599533" lon="10.079096354786131"><ele>643.0</ele><time>2026-04-11T15:17:46Z</time></trkpt><trkpt lat="44.62449643674551" lon="10.079063121684975"><ele>643.0</ele><time>2026-04-11T15:17:47Z</time></trkpt><trkpt lat="44.62441593462573" lon="10.078999639834974"><ele>643.0</ele><time>2026-04-11T15:17:48Z</time></trkpt><trkpt lat="44.62432729465343" lon="10.078924446706871"><ele>643.0</ele><time>2026-04-11T15:17:49Z</time></trkpt><trkpt lat="44.62423400480249" lon="10.078846454879889"><ele>643.0</ele><time>2026-04-11T15:17:50Z</time></trkpt><trkpt lat="44.62415137896334" lon="10.078762612972278"><ele>644.0</ele><time>2026-04-11T15:17:51Z</time></trkpt><trkpt lat="44.62409792545973" lon="10.078642510823366"><ele>645.0</ele><time>2026-04-11T15:17:52Z</time></trkpt><trkpt lat="44.62408840318565" lon="10.078502065203041"><ele>646.0</ele><time>2026-04-11T15:17:53Z</time></trkpt><trkpt lat="44.62406104120941" lon="10.078335871541542"><ele>647.0</ele><time>2026-04-11T15:17:54Z</time></trkpt><trkpt lat="44.62406134364766" lon="10.07816547489211"><ele>648.0</ele><time>2026-04-11T15:17:55Z</time></trkpt><trkpt lat="44.624038059013415" lon="10.077995876278113"><ele>648.5</ele><time>2026-04-11T15:17:56Z</time></trkpt><trkpt lat="44.62398235904999" lon="10.077837754922362"><ele>649.0</ele><time>2026-04-11T15:17:57Z</time></trkpt><trkpt lat="44.623878447474205" lon="10.077720285714294"><ele>649.5</ele><time>2026-04-11T15:17:58Z</time></trkpt><trkpt lat="44.62376184360215" lon="10.077625394107898"><ele>650.0</ele><time>2026-04-11T15:17:59Z</time></trkpt><trkpt lat="44.62366557306668" lon="10.077506773186427"><ele>649.75</ele><time>2026-04-11T15:18:00Z</time></trkpt><trkpt lat="44.62361206376386" lon="10.077369124568733"><ele>649.5</ele><time>2026-04-11T15:18:01Z</time></trkpt><trkpt lat="44.62363852512217" lon="10.07720928918686"><ele>649.25</ele><time>2026-04-11T15:18:01.999Z</time></trkpt><trkpt lat="44.62364971037833" lon="10.077037305621408"><ele>649.0</ele><time>2026-04-11T15:18:02.999Z</time></trkpt><trkpt lat="44.62364790029534" lon="10.076854574085544"><ele>648.75</ele><time>2026-04-11T15:18:03.999Z</time></trkpt><trkpt lat="44.6236522463705" lon="10.07667439165777"><ele>648.5</ele><time>2026-04-11T15:18:04.999Z</time></trkpt><trkpt lat="44.623630109172765" lon="10.076496533134453"><ele>648.25</ele><time>2026-04-11T15:18:05.999Z</time></trkpt><trkpt lat="44.62355563929755" lon="10.076365714848977"><ele>648.0</ele><time>2026-04-11T15:18:06.999Z</time></trkpt><trkpt lat="44.62345674871317" lon="10.076267928337822"><ele>649.25</ele><time>2026-04-11T15:18:07.999Z</time></trkpt><trkpt lat="44.62336024860353" lon="10.076192248922048"><ele>650.5</ele><time>2026-04-11T15:18:08.999Z</time></trkpt><trkpt lat="44.62325570469478" lon="10.076121480553471"><ele>651.75</ele><time>2026-04-11T15:18:09.999Z</time></trkpt><trkpt lat="44.62315012277262" lon="10.076061157617609"><ele>653.0</ele><time>2026-04-11T15:18:10.999Z</time></trkpt><trkpt lat="44.62304152824905" lon="10.076011657464225"><ele>653.0</ele><time>2026-04-11T15:18:11.999Z</time></trkpt><trkpt lat="44.62293694129152" lon="10.075987185926707"><ele>653.0</ele><time>2026-04-11T15:18:12.999Z</time></trkpt><trkpt lat="44.62283223727172" lon="10.075981573080862"><ele>653.0</ele><time>2026-04-11T15:18:13.999Z</time></trkpt><trkpt lat="44.62272846342176" lon="10.07597770930117"><ele>653.0</ele><time>2026-04-11T15:18:14.999Z</time></trkpt><trkpt lat="44.62262387876385" lon="10.076002022555228"><ele>653.0</ele><time>2026-04-11T15:18:15.999Z</time></trkpt><trkpt lat="44.62252021616471" lon="10.076051292147353"><ele>653.8</ele><time>2026-04-11T15:18:16.999Z</time></trkpt><trkpt lat="44.62242963336836" lon="10.076135749301068"><ele>654.5999999999999</ele><time>2026-04-11T15:18:17.999Z</time></trkpt><trkpt lat="44.62235461160465" lon="10.076255954773394"><ele>655.4000000000001</ele><time>2026-04-11T15:18:18.999Z</time></trkpt><trkpt lat="44.622287994305786" lon="10.076382845133944"><ele>656.2</ele><time>2026-04-11T15:18:19.999Z</time></trkpt><trkpt lat="44.62221116611862" lon="10.07649489465373"><ele>657.0</ele><time>2026-04-11T15:18:20.999Z</time></trkpt><trkpt lat="44.62210878667817" lon="10.076547436882201"><ele>657.0</ele><time>2026-04-11T15:18:21.999Z</time></trkpt><trkpt lat="44.62200423635669" lon="10.076476947579119"><ele>657.0</ele><time>2026-04-11T15:18:22.999Z</time></trkpt><trkpt lat="44.621946707141205" lon="10.076337106813881"><ele>657.0</ele><time>2026-04-11T15:18:23.999Z</time></trkpt><trkpt lat="44.62187448195734" lon="10.076230804288137"><ele>657.0</ele><time>2026-04-11T15:18:24.999Z</time></trkpt><trkpt lat="44.62180553750963" lon="10.076135192291556"><ele>657.0</ele><time>2026-04-11T15:18:25.999Z</time></trkpt><trkpt lat="44.62174708950701" lon="10.076054135454536"><ele>657.0</ele><time>2026-04-11T15:18:26.999Z</time></trkpt><trkpt lat="44.621685063789265" lon="10.075966019849949"><ele>657.0</ele><time>2026-04-11T15:18:27.999Z</time></trkpt><trkpt lat="44.621609728577546" lon="10.075875065848917"><ele>657.0</ele><time>2026-04-11T15:18:28.999Z</time></trkpt><trkpt lat="44.62154371256562" lon="10.075769776733717"><ele>657.0</ele><time>2026-04-11T15:18:29.999Z</time></trkpt><trkpt lat="44.62147869993954" lon="10.075687344457855"><ele>657.0</ele><time>2026-04-11T15:18:30.999Z</time></trkpt><trkpt lat="44.621427721807976" lon="10.07561430360605"><ele>657.0</ele><time>2026-04-11T15:18:31.999Z</time></trkpt><trkpt lat="44.62136880107001" lon="10.07550200118618"><ele>657.0</ele><time>2026-04-11T15:18:33.999Z</time></trkpt><trkpt lat="44.62140725954949" lon="10.075587209076835"><ele>657.0</ele><time>2026-04-11T15:18:39.999Z</time></trkpt><trkpt lat="44.62147175765897" lon="10.075750358314085"><ele>657.0</ele><time>2026-04-11T15:18:40.999Z</time></trkpt><trkpt lat="44.621573215494465" lon="10.075876905694802"><ele>657.0</ele><time>2026-04-11T15:18:41.999Z</time></trkpt><trkpt lat="44.62167563847934" lon="10.07601890281624"><ele>657.0</ele><time>2026-04-11T15:18:42.999Z</time></trkpt><trkpt lat="44.621783116094726" lon="10.076170212423094"><ele>657.0</ele><time>2026-04-11T15:18:43.999Z</time></trkpt><trkpt lat="44.62189830454321" lon="10.076326176676409"><ele>657.0</ele><time>2026-04-11T15:18:44.999Z</time></trkpt><trkpt lat="44.6220037258154" lon="10.076474338807527"><ele>657.0</ele><time>2026-04-11T15:18:45.999Z</time></trkpt><trkpt lat="44.62209848949054" lon="10.076572245631779"><ele>657.0</ele><time>2026-04-11T15:18:46.999Z</time></trkpt><trkpt lat="44.62220692191355" lon="10.076584674897989"><ele>657.0</ele><time>2026-04-11T15:18:47.999Z</time></trkpt><trkpt lat="44.62232345547716" lon="10.076498662998283"><ele>657.0</ele><time>2026-04-11T15:18:48.999Z</time></trkpt><trkpt lat="44.622419647138535" lon="10.076328743434061"><ele>657.0</ele><time>2026-04-11T15:18:49.999Z</time></trkpt><trkpt lat="44.622500543463715" lon="10.076146721368728"><ele>657.0</ele><time>2026-04-11T15:18:50.999Z</time></trkpt><trkpt lat="44.62264878905465" lon="10.076064825597275"><ele>657.0</ele><time>2026-04-11T15:18:51.999Z</time></trkpt><trkpt lat="44.62282127055771" lon="10.076043374426202"><ele>655.6666666666666</ele><time>2026-04-11T15:18:52.999Z</time></trkpt><trkpt lat="44.62300667477968" lon="10.076081062350882"><ele>654.3333333333333</ele><time>2026-04-11T15:18:53.999Z</time></trkpt><trkpt lat="44.62318845129646" lon="10.07616521922423"><ele>653.0</ele><time>2026-04-11T15:18:54.999Z</time></trkpt><trkpt lat="44.62335584004353" lon="10.076295736951154"><ele>653.0</ele><time>2026-04-11T15:18:55.999Z</time></trkpt><trkpt lat="44.62350034984046" lon="10.076446256394416"><ele>653.0</ele><time>2026-04-11T15:18:56.999Z</time></trkpt><trkpt lat="44.623600945114696" lon="10.076608838039592"><ele>653.0</ele><time>2026-04-11T15:18:57.999Z</time></trkpt><trkpt lat="44.623622962727886" lon="10.076778931818142"><ele>651.6666666666666</ele><time>2026-04-11T15:18:58.999Z</time></trkpt><trkpt lat="44.62361800882652" lon="10.076998489453613"><ele>650.3333333333334</ele><time>2026-04-11T15:19:00Z</time></trkpt><trkpt lat="44.62360872841232" lon="10.077253264597955"><ele>649.0</ele><time>2026-04-11T15:19:01Z</time></trkpt><trkpt lat="44.62360919021448" lon="10.077466815581776"><ele>649.3333333333334</ele><time>2026-04-11T15:19:02Z</time></trkpt><trkpt lat="44.62365921467079" lon="10.077612219672012"><ele>649.6666666666666</ele><time>2026-04-11T15:19:03Z</time></trkpt><trkpt lat="44.62378760214225" lon="10.077744592517135"><ele>650.0</ele><time>2026-04-11T15:19:04Z</time></trkpt><trkpt lat="44.62394405350871" lon="10.077912389976243"><ele>650.0</ele><time>2026-04-11T15:19:05Z</time></trkpt><trkpt lat="44.62403468689784" lon="10.078091112007781"><ele>650.0</ele><time>2026-04-11T15:19:06Z</time></trkpt><trkpt lat="44.62404269676222" lon="10.078314796866096"><ele>650.0</ele><time>2026-04-11T15:19:07Z</time></trkpt><trkpt lat="44.62406933183936" lon="10.078566278837098"><ele>649.5</ele><time>2026-04-11T15:19:08Z</time></trkpt><trkpt lat="44.62408460949778" lon="10.078760392998685"><ele>649.0</ele><time>2026-04-11T15:19:09Z</time></trkpt><trkpt lat="44.624163710418394" lon="10.078895983253965"><ele>648.5</ele><time>2026-04-11T15:19:10Z</time></trkpt><trkpt lat="44.62429652432654" lon="10.078995516068195"><ele>648.0</ele><time>2026-04-11T15:19:11Z</time></trkpt><trkpt lat="44.62444159886668" lon="10.079082162673458"><ele>646.75</ele><time>2026-04-11T15:19:12Z</time></trkpt><trkpt lat="44.624562917832975" lon="10.0791461676088"><ele>645.5</ele><time>2026-04-11T15:19:13Z</time></trkpt><trkpt lat="44.62467099557699" lon="10.079143732471264"><ele>644.25</ele><time>2026-04-11T15:19:14Z</time></trkpt><trkpt lat="44.62479558841023" lon="10.079070118016013"><ele>643.0</ele><time>2026-04-11T15:19:15Z</time></trkpt><trkpt lat="44.624909046240376" lon="10.078968839295728"><ele>643.0</ele><time>2026-04-11T15:19:16Z</time></trkpt><trkpt lat="44.62500353285354" lon="10.078900428664936"><ele>643.0</ele><time>2026-04-11T15:19:17Z</time></trkpt><trkpt lat="44.62510854115886" lon="10.07883531302266"><ele>643.0</ele><time>2026-04-11T15:19:18Z</time></trkpt><trkpt lat="44.62522082432864" lon="10.078760627475372"><ele>643.0</ele><time>2026-04-11T15:19:19Z</time></trkpt><trkpt lat="44.62534633713765" lon="10.078673616887407"><ele>640.5</ele><time>2026-04-11T15:19:20Z</time></trkpt><trkpt lat="44.62546305854771" lon="10.078592962734326"><ele>638.0</ele><time>2026-04-11T15:19:21Z</time></trkpt><trkpt lat="44.6255825048445" lon="10.078520313095765"><ele>635.5</ele><time>2026-04-11T15:19:22Z</time></trkpt><trkpt lat="44.625703875561214" lon="10.078453445916576"><ele>633.0</ele><time>2026-04-11T15:19:23Z</time></trkpt><trkpt lat="44.62583128961782" lon="10.078403287909333"><ele>633.0</ele><time>2026-04-11T15:19:24Z</time></trkpt><trkpt lat="44.62597859835497" lon="10.078386305653419"><ele>633.0</ele><time>2026-04-11T15:19:25Z</time></trkpt><trkpt lat="44.626138985456386" lon="10.07847537288541"><ele>633.0</ele><time>2026-04-11T15:19:26Z</time></trkpt><trkpt lat="44.626299303744965" lon="10.078584899202653"><ele>634.5</ele><time>2026-04-11T15:19:27Z</time></trkpt><trkpt lat="44.62648376527602" lon="10.078758286901943"><ele>636.0</ele><time>2026-04-11T15:19:28Z</time></trkpt><trkpt lat="44.62668019098682" lon="10.078952471818841"><ele>635.0</ele><time>2026-04-11T15:19:29Z</time></trkpt><trkpt lat="44.6268594612904" lon="10.079140136818966"><ele>634.0</ele><time>2026-04-11T15:19:30Z</time></trkpt><trkpt lat="44.62701769098433" lon="10.079310529170366"><ele>633.0</ele><time>2026-04-11T15:19:31Z</time></trkpt><trkpt lat="44.62716923396864" lon="10.079462720587955"><ele>633.0</ele><time>2026-04-11T15:19:32Z</time></trkpt><trkpt lat="44.62732341373174" lon="10.079586436636774"><ele>633.0</ele><time>2026-04-11T15:19:33Z</time></trkpt><trkpt lat="44.627497156950675" lon="10.079640887154019"><ele>633.0</ele><time>2026-04-11T15:19:34Z</time></trkpt><trkpt lat="44.62770757887813" lon="10.079635062201678"><ele>631.3333333333334</ele><time>2026-04-11T15:19:35Z</time></trkpt><trkpt lat="44.62790408684214" lon="10.079634208624913"><ele>629.6666666666667</ele><time>2026-04-11T15:19:36Z</time></trkpt><trkpt lat="44.628069635414015" lon="10.07968246117965"><ele>628.0</ele><time>2026-04-11T15:19:37Z</time></trkpt><trkpt lat="44.628185439631494" lon="10.079797825357772"><ele>625.75</ele><time>2026-04-11T15:19:38Z</time></trkpt><trkpt lat="44.62825683574838" lon="10.079977703685563"><ele>623.5</ele><time>2026-04-11T15:19:39Z</time></trkpt><trkpt lat="44.62833169645363" lon="10.080120390328178"><ele>621.25</ele><time>2026-04-11T15:19:40Z</time></trkpt><trkpt lat="44.628428539684904" lon="10.080176385983142"><ele>619.0</ele><time>2026-04-11T15:19:41Z</time></trkpt><trkpt lat="44.628568739446614" lon="10.080148296801497"><ele>617.0</ele><time>2026-04-11T15:19:42Z</time></trkpt><trkpt lat="44.628694669947606" lon="10.080012005602843"><ele>615.0</ele><time>2026-04-11T15:19:43Z</time></trkpt><trkpt lat="44.62875618701182" lon="10.079805202825085"><ele>613.0</ele><time>2026-04-11T15:19:44Z</time></trkpt><trkpt lat="44.628753942845414" lon="10.079564085775639"><ele>613.0</ele><time>2026-04-11T15:19:45Z</time></trkpt><trkpt lat="44.628776681283234" lon="10.07934430159689"><ele>613.0</ele><time>2026-04-11T15:19:46Z</time></trkpt><trkpt lat="44.628865089403085" lon="10.079198871668945"><ele>613.0</ele><time>2026-04-11T15:19:47Z</time></trkpt><trkpt lat="44.62900305862744" lon="10.079129716451412"><ele>613.0</ele><time>2026-04-11T15:19:48Z</time></trkpt><trkpt lat="44.629169097985006" lon="10.079121629025291"><ele>613.0</ele><time>2026-04-11T15:19:49Z</time></trkpt><trkpt lat="44.629377425032416" lon="10.079138111532968"><ele>613.0</ele><time>2026-04-11T15:19:50Z</time></trkpt><trkpt lat="44.62957854976558" lon="10.079152752141606"><ele>613.0</ele><time>2026-04-11T15:19:51Z</time></trkpt><trkpt lat="44.629770553041965" lon="10.079157834273477"><ele>614.3333333333334</ele><time>2026-04-11T15:19:52Z</time></trkpt><trkpt lat="44.629939866203465" lon="10.079101909776902"><ele>615.6666666666666</ele><time>2026-04-11T15:19:53Z</time></trkpt><trkpt lat="44.630099627704" lon="10.078952603171523"><ele>617.0</ele><time>2026-04-11T15:19:54Z</time></trkpt><trkpt lat="44.63021257477287" lon="10.078709236677001"><ele>615.6666666666666</ele><time>2026-04-11T15:19:55Z</time></trkpt><trkpt lat="44.63031866429083" lon="10.078499300288106"><ele>614.3333333333334</ele><time>2026-04-11T15:19:56Z</time></trkpt><trkpt lat="44.63047060544898" lon="10.078355161235336"><ele>613.0</ele><time>2026-04-11T15:19:57Z</time></trkpt><trkpt lat="44.630645923752624" lon="10.078251898913804"><ele>613.0</ele><time>2026-04-11T15:19:58Z</time></trkpt><trkpt lat="44.630807058259215" lon="10.078234578131092"><ele>613.0</ele><time>2026-04-11T15:19:59Z</time></trkpt><trkpt lat="44.63095280479636" lon="10.078306131115754"><ele>613.0</ele><time>2026-04-11T15:20:00Z</time></trkpt><trkpt lat="44.63109572011447" lon="10.078467974344518"><ele>609.0</ele><time>2026-04-11T15:20:01Z</time></trkpt><trkpt lat="44.63124831777277" lon="10.078666466689137"><ele>605.0</ele><time>2026-04-11T15:20:02Z</time></trkpt><trkpt lat="44.631378555183595" lon="10.078885001008377"><ele>601.0</ele><time>2026-04-11T15:20:03Z</time></trkpt><trkpt lat="44.63151161317333" lon="10.079053942764723"><ele>599.0</ele><time>2026-04-11T15:20:04Z</time></trkpt><trkpt lat="44.631659349022" lon="10.079157997257886"><ele>597.0</ele><time>2026-04-11T15:20:05Z</time></trkpt><trkpt lat="44.63183198352504" lon="10.079188296621119"><ele>595.0</ele><time>2026-04-11T15:20:05.999Z</time></trkpt><trkpt lat="44.6320207196813" lon="10.079155355799292"><ele>594.6666666666667</ele><time>2026-04-11T15:20:06.999Z</time></trkpt><trkpt lat="44.63221269347837" lon="10.079109560535995"><ele>594.3333333333334</ele><time>2026-04-11T15:20:07.999Z</time></trkpt><trkpt lat="44.632401541566196" lon="10.079073223970763"><ele>594.0</ele><time>2026-04-11T15:20:08.999Z</time></trkpt><trkpt lat="44.632590434361695" lon="10.079045118077634"><ele>594.0</ele><time>2026-04-11T15:20:09.999Z</time></trkpt><trkpt lat="44.63278242048149" lon="10.07901623315681"><ele>594.0</ele><time>2026-04-11T15:20:10.999Z</time></trkpt><trkpt lat="44.63297752627424" lon="10.07898550809164"><ele>594.0</ele><time>2026-04-11T15:20:11.999Z</time></trkpt><trkpt lat="44.63320034320959" lon="10.078969702831882"><ele>592.0</ele><time>2026-04-11T15:20:12.999Z</time></trkpt><trkpt lat="44.63343037112372" lon="10.078966528081327"><ele>590.0</ele><time>2026-04-11T15:20:13.999Z</time></trkpt><trkpt lat="44.633572024024296" lon="10.0789212786364"><ele>588.0</ele><time>2026-04-11T15:20:14.999Z</time></trkpt><trkpt lat="44.63378861217912" lon="10.078904943010867"><ele>587.3333333333334</ele><time>2026-04-11T15:20:15.999Z</time></trkpt><trkpt lat="44.63391570264975" lon="10.078868573928593"><ele>586.6666666666667</ele><time>2026-04-11T15:20:16.999Z</time></trkpt><trkpt lat="44.634104494337045" lon="10.078841726236172"><ele>586.0</ele><time>2026-04-11T15:20:17.999Z</time></trkpt><trkpt lat="44.634296055946805" lon="10.07880415167599"><ele>585.0</ele><time>2026-04-11T15:20:18.999Z</time></trkpt><trkpt lat="44.63448056041896" lon="10.078767008013331"><ele>584.0</ele><time>2026-04-11T15:20:19.999Z</time></trkpt><trkpt lat="44.634675774514115" lon="10.078736857501797"><ele>583.0</ele><time>2026-04-11T15:20:20.999Z</time></trkpt><trkpt lat="44.63486871636361" lon="10.0787172865629"><ele>583.0</ele><time>2026-04-11T15:20:21.999Z</time></trkpt><trkpt lat="44.635055403243975" lon="10.078781450831773"><ele>583.0</ele><time>2026-04-11T15:20:22.999Z</time></trkpt><trkpt lat="44.63523216377142" lon="10.07888019776131"><ele>583.0</ele><time>2026-04-11T15:20:23.999Z</time></trkpt><trkpt lat="44.635409112593585" lon="10.079021853588332"><ele>584.0</ele><time>2026-04-11T15:20:24.999Z</time></trkpt><trkpt lat="44.635591740369776" lon="10.07915683355753"><ele>585.0</ele><time>2026-04-11T15:20:25.999Z</time></trkpt><trkpt lat="44.635764657035196" lon="10.079302238257144"><ele>586.0</ele><time>2026-04-11T15:20:26.999Z</time></trkpt><trkpt lat="44.63596367499248" lon="10.079402354613618"><ele>584.0</ele><time>2026-04-11T15:20:27.999Z</time></trkpt><trkpt lat="44.63617359718504" lon="10.079468462960225"><ele>582.0</ele><time>2026-04-11T15:20:28.999Z</time></trkpt><trkpt lat="44.63639015697116" lon="10.07951015697764"><ele>580.0</ele><time>2026-04-11T15:20:29.999Z</time></trkpt><trkpt lat="44.63660158599825" lon="10.079546658290507"><ele>580.0</ele><time>2026-04-11T15:20:30.999Z</time></trkpt><trkpt lat="44.63680960379533" lon="10.079594693555205"><ele>580.0</ele><time>2026-04-11T15:20:31.999Z</time></trkpt><trkpt lat="44.637017103154335" lon="10.079629870936069"><ele>580.0</ele><time>2026-04-11T15:20:32.999Z</time></trkpt><trkpt lat="44.63723056988994" lon="10.079631082099375"><ele>580.0</ele><time>2026-04-11T15:20:33.999Z</time></trkpt><trkpt lat="44.63744305027863" lon="10.07957122792059"><ele>580.0</ele><time>2026-04-11T15:20:34.999Z</time></trkpt><trkpt lat="44.6376589697504" lon="10.07949682628885"><ele>580.0</ele><time>2026-04-11T15:20:35.999Z</time></trkpt><trkpt lat="44.63788106595296" lon="10.079422845649896"><ele>580.0</ele><time>2026-04-11T15:20:36.999Z</time></trkpt><trkpt lat="44.638103438194" lon="10.079364176418487"><ele>580.0</ele><time>2026-04-11T15:20:37.999Z</time></trkpt><trkpt lat="44.638319970672796" lon="10.079303922954814"><ele>580.0</ele><time>2026-04-11T15:20:38.999Z</time></trkpt><trkpt lat="44.63854042911757" lon="10.07925992343408"><ele>580.3333333333334</ele><time>2026-04-11T15:20:39.999Z</time></trkpt><trkpt lat="44.638758759280606" lon="10.079221855985526"><ele>580.6666666666666</ele><time>2026-04-11T15:20:40.999Z</time></trkpt><trkpt lat="44.63897406122796" lon="10.079197113891327"><ele>581.0</ele><time>2026-04-11T15:20:41.999Z</time></trkpt><trkpt lat="44.63919410819098" lon="10.079193259944496"><ele>581.0</ele><time>2026-04-11T15:20:42.999Z</time></trkpt><trkpt lat="44.63941485163289" lon="10.079215187989067"><ele>581.0</ele><time>2026-04-11T15:20:43.999Z</time></trkpt><trkpt lat="44.63962447560753" lon="10.079236937688128"><ele>581.0</ele><time>2026-04-11T15:20:44.999Z</time></trkpt><trkpt lat="44.63983900250422" lon="10.07924564634015"><ele>580.0</ele><time>2026-04-11T15:20:45.999Z</time></trkpt><trkpt lat="44.64004734940524" lon="10.079248227654686"><ele>579.0</ele><time>2026-04-11T15:20:46.999Z</time></trkpt><trkpt lat="44.64025142499996" lon="10.079229193839687"><ele>578.0</ele><time>2026-04-11T15:20:47.999Z</time></trkpt><trkpt lat="44.64043677946066" lon="10.079123873974538"><ele>573.0</ele><time>2026-04-11T15:20:48.999Z</time></trkpt><trkpt lat="44.640625287422594" lon="10.078946977770634"><ele>568.0</ele><time>2026-04-11T15:20:49.999Z</time></trkpt><trkpt lat="44.640806945790224" lon="10.07873856792178"><ele>568.0</ele><time>2026-04-11T15:20:50.999Z</time></trkpt><trkpt lat="44.64098762750292" lon="10.07855782415571"><ele>568.0</ele><time>2026-04-11T15:20:51.999Z</time></trkpt><trkpt lat="44.641157987744755" lon="10.078404249249983"><ele>568.0</ele><time>2026-04-11T15:20:52.999Z</time></trkpt><trkpt lat="44.641316961276836" lon="10.078263732731928"><ele>564.0</ele><time>2026-04-11T15:20:53.999Z</time></trkpt><trkpt lat="44.6414543266157" lon="10.078143868120815"><ele>560.0</ele><time>2026-04-11T15:20:54.999Z</time></trkpt><trkpt lat="44.641596965599554" lon="10.078059876736392"><ele>556.0</ele><time>2026-04-11T15:20:55.999Z</time></trkpt><trkpt lat="44.64174328886599" lon="10.07815599546815"><ele>556.0</ele><time>2026-04-11T15:20:56.999Z</time></trkpt><trkpt lat="44.64192748853345" lon="10.078248240401914"><ele>556.0</ele><time>2026-04-11T15:20:57.999Z</time></trkpt><trkpt lat="44.64212719626439" lon="10.078344490280088"><ele>556.0</ele><time>2026-04-11T15:20:58.999Z</time></trkpt><trkpt lat="44.64233373246272" lon="10.078401857121618"><ele>557.3333333333334</ele><time>2026-04-11T15:20:59.999Z</time></trkpt><trkpt lat="44.642532708453366" lon="10.0784076156166"><ele>558.6666666666666</ele><time>2026-04-11T15:21:00.999Z</time></trkpt><trkpt lat="44.64272047678316" lon="10.078335416688688"><ele>560.0</ele><time>2026-04-11T15:21:01.999Z</time></trkpt><trkpt lat="44.642899424501216" lon="10.07817858830199"><ele>555.6666666666666</ele><time>2026-04-11T15:21:02.999Z</time></trkpt><trkpt lat="44.64304819581427" lon="10.077952577177003"><ele>551.3333333333334</ele><time>2026-04-11T15:21:03.999Z</time></trkpt><trkpt lat="44.64316334530796" lon="10.07768682217293"><ele>547.0</ele><time>2026-04-11T15:21:04.999Z</time></trkpt><trkpt lat="44.64326549641333" lon="10.077447967999971"><ele>544.5</ele><time>2026-04-11T15:21:06Z</time></trkpt><trkpt lat="44.64336898494522" lon="10.077286470200049"><ele>542.0</ele><time>2026-04-11T15:21:07Z</time></trkpt><trkpt lat="44.64346913910737" lon="10.077212741661002"><ele>539.5</ele><time>2026-04-11T15:21:08Z</time></trkpt><trkpt lat="44.6435741454702" lon="10.077248534976027"><ele>537.0</ele><time>2026-04-11T15:21:09Z</time></trkpt><trkpt lat="44.64371774592489" lon="10.077355185020599"><ele>537.6666666666666</ele><time>2026-04-11T15:21:10Z</time></trkpt><trkpt lat="44.643905499087815" lon="10.077467200894235"><ele>538.3333333333333</ele><time>2026-04-11T15:21:11Z</time></trkpt><trkpt lat="44.64407382217416" lon="10.077559179801234"><ele>539.0</ele><time>2026-04-11T15:21:12Z</time></trkpt><trkpt lat="44.644207130119106" lon="10.07767841329411"><ele>539.0</ele><time>2026-04-11T15:21:13Z</time></trkpt><trkpt lat="44.64424765427471" lon="10.077892629749561"><ele>539.0</ele><time>2026-04-11T15:21:14Z</time></trkpt><trkpt lat="44.64424473436593" lon="10.078153941829356"><ele>539.0</ele><time>2026-04-11T15:21:15Z</time></trkpt><trkpt lat="44.64424304046529" lon="10.07846497674161"><ele>539.3333333333333</ele><time>2026-04-11T15:21:16Z</time></trkpt><trkpt lat="44.64424442429464" lon="10.078742229395994"><ele>539.6666666666666</ele><time>2026-04-11T15:21:17Z</time></trkpt><trkpt lat="44.64425377982461" lon="10.07895405317579"><ele>540.0</ele><time>2026-04-11T15:21:18Z</time></trkpt><trkpt lat="44.64431848953307" lon="10.079144538104805"><ele>540.0</ele><time>2026-04-11T15:21:19Z</time></trkpt><trkpt lat="44.64444221892575" lon="10.07932235279412"><ele>540.0</ele><time>2026-04-11T15:21:20Z</time></trkpt><trkpt lat="44.6446240694216" lon="10.07946055893773"><ele>540.0</ele><time>2026-04-11T15:21:21Z</time></trkpt><trkpt lat="44.64485071396098" lon="10.079534069693645"><ele>529.5</ele><time>2026-04-11T15:21:22Z</time></trkpt><trkpt lat="44.64508655192038" lon="10.07961239772884"><ele>519.0</ele><time>2026-04-11T15:21:23Z</time></trkpt><trkpt lat="44.64531372451693" lon="10.079714542098152"><ele>520.5</ele><time>2026-04-11T15:21:24Z</time></trkpt><trkpt lat="44.64552592101339" lon="10.079821382717817"><ele>522.0</ele><time>2026-04-11T15:21:25Z</time></trkpt><trkpt lat="44.64573967735148" lon="10.079940876616714"><ele>522.0</ele><time>2026-04-11T15:21:26Z</time></trkpt><trkpt lat="44.64594960168104" lon="10.080072179359872"><ele>522.0</ele><time>2026-04-11T15:21:27Z</time></trkpt><trkpt lat="44.64615200269214" lon="10.080218189191731"><ele>512.6666666666666</ele><time>2026-04-11T15:21:28Z</time></trkpt><trkpt lat="44.64634872211914" lon="10.080363516249319"><ele>503.3333333333333</ele><time>2026-04-11T15:21:29Z</time></trkpt><trkpt lat="44.64653672256183" lon="10.080494080332617"><ele>494.0</ele><time>2026-04-11T15:21:30Z</time></trkpt><trkpt lat="44.64670743947947" lon="10.08061918795643"><ele>494.0</ele><time>2026-04-11T15:21:31Z</time></trkpt><trkpt lat="44.646848119621076" lon="10.080761579071005"><ele>494.0</ele><time>2026-04-11T15:21:32Z</time></trkpt><trkpt lat="44.646958201898435" lon="10.080944011603018"><ele>494.0</ele><time>2026-04-11T15:21:33Z</time></trkpt><trkpt lat="44.6471158841207" lon="10.081179027016784"><ele>491.3333333333333</ele><time>2026-04-11T15:21:34Z</time></trkpt><trkpt lat="44.64723780192329" lon="10.081408629466576"><ele>488.66666666666663</ele><time>2026-04-11T15:21:35Z</time></trkpt><trkpt lat="44.64738801038594" lon="10.08167323416547"><ele>486.0</ele><time>2026-04-11T15:21:36Z</time></trkpt><trkpt lat="44.64741777658492" lon="10.081790835462595"><ele>490.75</ele><time>2026-04-11T15:21:37Z</time></trkpt><trkpt lat="44.64747424634199" lon="10.081965045466792"><ele>495.5</ele><time>2026-04-11T15:21:38Z</time></trkpt><trkpt lat="44.647548405646695" lon="10.082092616270765"><ele>500.25</ele><time>2026-04-11T15:21:39Z</time></trkpt><trkpt lat="44.64763541274419" lon="10.082192909671122"><ele>505.0</ele><time>2026-04-11T15:21:40Z</time></trkpt><trkpt lat="44.647736646449225" lon="10.082261309320975"><ele>502.8</ele><time>2026-04-11T15:21:41Z</time></trkpt><trkpt lat="44.64785030893149" lon="10.082270609051918"><ele>500.6</ele><time>2026-04-11T15:21:42Z</time></trkpt><trkpt lat="44.647951389828656" lon="10.082214848063508"><ele>498.4</ele><time>2026-04-11T15:21:43Z</time></trkpt><trkpt lat="44.64801838327092" lon="10.082115890845955"><ele>496.2</ele><time>2026-04-11T15:21:44Z</time></trkpt><trkpt lat="44.648080492603434" lon="10.08197820965971"><ele>494.0</ele><time>2026-04-11T15:21:45Z</time></trkpt><trkpt lat="44.64817172052504" lon="10.081793121050879"><ele>494.0</ele><time>2026-04-11T15:21:46Z</time></trkpt><trkpt lat="44.648306977517315" lon="10.081606964023077"><ele>494.0</ele><time>2026-04-11T15:21:47Z</time></trkpt><trkpt lat="44.64844660355368" lon="10.081440871118915"><ele>494.0</ele><time>2026-04-11T15:21:48Z</time></trkpt><trkpt lat="44.64858560952427" lon="10.081281100765935"><ele>490.66666666666663</ele><time>2026-04-11T15:21:49Z</time></trkpt><trkpt lat="44.648727993552534" lon="10.081111729982817"><ele>487.33333333333337</ele><time>2026-04-11T15:21:50Z</time></trkpt><trkpt lat="44.64886546025432" lon="10.080928475176052"><ele>484.0</ele><time>2026-04-11T15:21:51Z</time></trkpt><trkpt lat="44.64900482996512" lon="10.080785518747478"><ele>480.33333333333337</ele><time>2026-04-11T15:21:52Z</time></trkpt><trkpt lat="44.6491424230675" lon="10.080719075225307"><ele>476.66666666666663</ele><time>2026-04-11T15:21:53Z</time></trkpt><trkpt lat="44.64929462207778" lon="10.08074655771063"><ele>473.0</ele><time>2026-04-11T15:21:54Z</time></trkpt><trkpt lat="44.64947517750969" lon="10.08087750457865"><ele>473.0</ele><time>2026-04-11T15:21:55Z</time></trkpt><trkpt lat="44.649673832814514" lon="10.080998122900752"><ele>473.0</ele><time>2026-04-11T15:21:56Z</time></trkpt><trkpt lat="44.649887334369645" lon="10.081041266547693"><ele>473.0</ele><time>2026-04-11T15:21:57Z</time></trkpt><trkpt lat="44.6500904119589" lon="10.08109484778237"><ele>473.0</ele><time>2026-04-11T15:21:58Z</time></trkpt><trkpt lat="44.65027242380013" lon="10.081229497178807"><ele>473.0</ele><time>2026-04-11T15:21:59Z</time></trkpt><trkpt lat="44.650439731520244" lon="10.081461373169923"><ele>473.0</ele><time>2026-04-11T15:22:00Z</time></trkpt><trkpt lat="44.65060400902571" lon="10.081596947524696"><ele>472.66666666666663</ele><time>2026-04-11T15:22:01Z</time></trkpt><trkpt lat="44.650800063194644" lon="10.081644611447054"><ele>472.33333333333337</ele><time>2026-04-11T15:22:02Z</time></trkpt><trkpt lat="44.65103000444879" lon="10.081645322094625"><ele>472.0</ele><time>2026-04-11T15:22:03Z</time></trkpt><trkpt lat="44.651257754525346" lon="10.081661836504948"><ele>468.6666666666667</ele><time>2026-04-11T15:22:04Z</time></trkpt><trkpt lat="44.651461668302964" lon="10.081690951963772"><ele>465.33333333333337</ele><time>2026-04-11T15:22:05Z</time></trkpt><trkpt lat="44.65165558782507" lon="10.081721423342959"><ele>462.0</ele><time>2026-04-11T15:22:06Z</time></trkpt><trkpt lat="44.65184603869445" lon="10.081783139864744"><ele>455.66666666666663</ele><time>2026-04-11T15:22:07Z</time></trkpt><trkpt lat="44.65202972835666" lon="10.081916788509103"><ele>449.3333333333333</ele><time>2026-04-11T15:22:08Z</time></trkpt><trkpt lat="44.65218911269542" lon="10.082130431123714"><ele>443.0</ele><time>2026-04-11T15:22:09Z</time></trkpt><trkpt lat="44.65229971429053" lon="10.082383442394278"><ele>446.5</ele><time>2026-04-11T15:22:10Z</time></trkpt><trkpt lat="44.652350924038736" lon="10.082623301789319"><ele>450.0</ele><time>2026-04-11T15:22:11Z</time></trkpt><trkpt lat="44.652407066310616" lon="10.082782109187391"><ele>453.5</ele><time>2026-04-11T15:22:12Z</time></trkpt><trkpt lat="44.6525197628515" lon="10.082877362102417"><ele>457.0</ele><time>2026-04-11T15:22:13Z</time></trkpt><trkpt lat="44.652703438982456" lon="10.082927437707708"><ele>453.33333333333337</ele><time>2026-04-11T15:22:14Z</time></trkpt><trkpt lat="44.6529092271795" lon="10.082927969234317"><ele>449.66666666666663</ele><time>2026-04-11T15:22:15Z</time></trkpt><trkpt lat="44.6531098287982" lon="10.082887827821077"><ele>446.0</ele><time>2026-04-11T15:22:16Z</time></trkpt><trkpt lat="44.65330130693963" lon="10.082875073409623"><ele>446.0</ele><time>2026-04-11T15:22:17Z</time></trkpt><trkpt lat="44.65348373623901" lon="10.08299922776073"><ele>446.0</ele><time>2026-04-11T15:22:17.999Z</time></trkpt><trkpt lat="44.653686566380095" lon="10.083165530877027"><ele>446.0</ele><time>2026-04-11T15:22:18.999Z</time></trkpt><trkpt lat="44.6538959197674" lon="10.083309832999095"><ele>446.66666666666663</ele><time>2026-04-11T15:22:19.999Z</time></trkpt><trkpt lat="44.65410390091102" lon="10.083426310620847"><ele>447.33333333333337</ele><time>2026-04-11T15:22:20.999Z</time></trkpt><trkpt lat="44.65430907252955" lon="10.083483956949175"><ele>448.0</ele><time>2026-04-11T15:22:21.999Z</time></trkpt><trkpt lat="44.65449546229013" lon="10.083567057751447"><ele>448.6666666666667</ele><time>2026-04-11T15:22:22.999Z</time></trkpt><trkpt lat="44.654618465165896" lon="10.083758235500683"><ele>449.33333333333337</ele><time>2026-04-11T15:22:23.999Z</time></trkpt><trkpt lat="44.65476814727426" lon="10.083941183614893"><ele>450.0</ele><time>2026-04-11T15:22:24.999Z</time></trkpt><trkpt lat="44.65492056817356" lon="10.084111292361607"><ele>450.0</ele><time>2026-04-11T15:22:25.999Z</time></trkpt><trkpt lat="44.655116334091055" lon="10.084176210164426"><ele>450.0</ele><time>2026-04-11T15:22:26.999Z</time></trkpt><trkpt lat="44.65529500337759" lon="10.084107745445367"><ele>450.0</ele><time>2026-04-11T15:22:27.999Z</time></trkpt><trkpt lat="44.655452091769924" lon="10.084083440218532"><ele>445.5</ele><time>2026-04-11T15:22:28.999Z</time></trkpt><trkpt lat="44.65558586262722" lon="10.08408100981364"><ele>441.0</ele><time>2026-04-11T15:22:29.999Z</time></trkpt><trkpt lat="44.655667893616716" lon="10.084188261744002"><ele>436.5</ele><time>2026-04-11T15:22:30.999Z</time></trkpt><trkpt lat="44.655739517299835" lon="10.084360249474491"><ele>432.0</ele><time>2026-04-11T15:22:31.999Z</time></trkpt><trkpt lat="44.655701959375314" lon="10.084624198937865"><ele>432.0</ele><time>2026-04-11T15:22:32.999Z</time></trkpt><trkpt lat="44.65570531127921" lon="10.08490243431909"><ele>432.0</ele><time>2026-04-11T15:22:33.999Z</time></trkpt><trkpt lat="44.65570628907565" lon="10.085192829828442"><ele>432.0</ele><time>2026-04-11T15:22:34.999Z</time></trkpt><trkpt lat="44.655714972368" lon="10.085455325998508"><ele>432.75</ele><time>2026-04-11T15:22:35.999Z</time></trkpt><trkpt lat="44.65572046465499" lon="10.085654181424758"><ele>433.5</ele><time>2026-04-11T15:22:36.999Z</time></trkpt><trkpt lat="44.655759436522594" lon="10.085787478681432"><ele>434.25</ele><time>2026-04-11T15:22:37.999Z</time></trkpt><trkpt lat="44.65586143708297" lon="10.085871475649121"><ele>435.0</ele><time>2026-04-11T15:22:38.999Z</time></trkpt><trkpt lat="44.656011320448236" lon="10.085890663553783"><ele>429.66666666666663</ele><time>2026-04-11T15:22:39.999Z</time></trkpt><trkpt lat="44.656214554380234" lon="10.085958444871997"><ele>424.3333333333333</ele><time>2026-04-11T15:22:40.999Z</time></trkpt><trkpt lat="44.65637646886149" lon="10.085979119274825"><ele>419.0</ele><time>2026-04-11T15:22:41.999Z</time></trkpt><trkpt lat="44.656512906159044" lon="10.086002858847708"><ele>419.0</ele><time>2026-04-11T15:22:42.999Z</time></trkpt><trkpt lat="44.65663367716761" lon="10.086040520374993"><ele>419.0</ele><time>2026-04-11T15:22:43.999Z</time></trkpt><trkpt lat="44.65669994066077" lon="10.086159615800122"><ele>419.0</ele><time>2026-04-11T15:22:44.999Z</time></trkpt><trkpt lat="44.65669476186488" lon="10.086281371745875"><ele>419.0</ele><time>2026-04-11T15:22:45.999Z</time></trkpt><trkpt lat="44.65672477335358" lon="10.086377918873579"><ele>419.0</ele><time>2026-04-11T15:22:46.999Z</time></trkpt><trkpt lat="44.65673787649567" lon="10.086470787930464"><ele>420.25</ele><time>2026-04-11T15:22:47.999Z</time></trkpt><trkpt lat="44.6567872824772" lon="10.086658345627981"><ele>421.5</ele><time>2026-04-11T15:22:49.999Z</time></trkpt><trkpt lat="44.656819421623126" lon="10.08682182268615"><ele>422.75</ele><time>2026-04-11T15:22:50.999Z</time></trkpt><trkpt lat="44.656850878129745" lon="10.08700683766833"><ele>424.0</ele><time>2026-04-11T15:22:51.999Z</time></trkpt><trkpt lat="44.65688945151173" lon="10.08716406357552"><ele>418.75</ele><time>2026-04-11T15:22:52.999Z</time></trkpt><trkpt lat="44.656958895693556" lon="10.087284841892103"><ele>413.5</ele><time>2026-04-11T15:22:53.999Z</time></trkpt><trkpt lat="44.65708982502858" lon="10.087366294245594"><ele>408.25</ele><time>2026-04-11T15:22:54.999Z</time></trkpt><trkpt lat="44.6572630351077" lon="10.087376629278365"><ele>403.0</ele><time>2026-04-11T15:22:55.999Z</time></trkpt><trkpt lat="44.65743376556823" lon="10.087386371051766"><ele>405.25</ele><time>2026-04-11T15:22:56.999Z</time></trkpt><trkpt lat="44.65754471834745" lon="10.087470479090053"><ele>407.5</ele><time>2026-04-11T15:22:57.999Z</time></trkpt><trkpt lat="44.65762634436982" lon="10.087575186861265"><ele>409.75</ele><time>2026-04-11T15:22:58.999Z</time></trkpt><trkpt lat="44.65761880934858" lon="10.087775737195795"><ele>412.0</ele><time>2026-04-11T15:22:59.999Z</time></trkpt><trkpt lat="44.65755948807274" lon="10.08796507334439"><ele>412.0</ele><time>2026-04-11T15:23:00.999Z</time></trkpt><trkpt lat="44.657512784272846" lon="10.088173216875052"><ele>412.0</ele><time>2026-04-11T15:23:01.999Z</time></trkpt><trkpt lat="44.65745516145768" lon="10.088326766179645"><ele>412.0</ele><time>2026-04-11T15:23:02.999Z</time></trkpt><trkpt lat="44.6574364389537" lon="10.088435698089578"><ele>412.0</ele><time>2026-04-11T15:23:03.999Z</time></trkpt><trkpt lat="44.657456028602056" lon="10.088531471213633"><ele>412.0</ele><time>2026-04-11T15:23:04.999Z</time></trkpt><trkpt lat="44.6575101476107" lon="10.088606595806493"><ele>412.0</ele><time>2026-04-11T15:23:05.999Z</time></trkpt><trkpt lat="44.65758551432777" lon="10.088641966733768"><ele>412.0</ele><time>2026-04-11T15:23:06.999Z</time></trkpt><trkpt lat="44.65767344244783" lon="10.088609168218738"><ele>412.0</ele><time>2026-04-11T15:23:07.999Z</time></trkpt><trkpt lat="44.65773913565227" lon="10.088493790685673"><ele>412.0</ele><time>2026-04-11T15:23:08.999Z</time></trkpt><trkpt lat="44.65776708586265" lon="10.088319874195857"><ele>412.0</ele><time>2026-04-11T15:23:09.999Z</time></trkpt><trkpt lat="44.65777979524105" lon="10.088086114659424"><ele>406.75</ele><time>2026-04-11T15:23:10.999Z</time></trkpt><trkpt lat="44.65783835058047" lon="10.08787264043076"><ele>401.5</ele><time>2026-04-11T15:23:12Z</time></trkpt><trkpt lat="44.65789470999082" lon="10.087668409473245"><ele>396.25</ele><time>2026-04-11T15:23:13Z</time></trkpt><trkpt lat="44.65794777865131" lon="10.08751078015094"><ele>391.0</ele><time>2026-04-11T15:23:14Z</time></trkpt><trkpt lat="44.65796737630931" lon="10.087376889500524"><ele>391.0</ele><time>2026-04-11T15:23:15Z</time></trkpt><trkpt lat="44.657997685794264" lon="10.087288901348153"><ele>391.0</ele><time>2026-04-11T15:23:16Z</time></trkpt><trkpt lat="44.65811252743199" lon="10.087355825671178"><ele>391.0</ele><time>2026-04-11T15:23:18Z</time></trkpt><trkpt lat="44.65814055919164" lon="10.087485110289583"><ele>391.0</ele><time>2026-04-11T15:23:19Z</time></trkpt><trkpt lat="44.658090783946726" lon="10.087655536425764"><ele>391.0</ele><time>2026-04-11T15:23:20Z</time></trkpt><trkpt lat="44.65807902670216" lon="10.087868373229966"><ele>391.0</ele><time>2026-04-11T15:23:21Z</time></trkpt><trkpt lat="44.658067956916554" lon="10.088066965284737"><ele>391.0</ele><time>2026-04-11T15:23:22Z</time></trkpt><trkpt lat="44.65806963251327" lon="10.088235064777129"><ele>391.0</ele><time>2026-04-11T15:23:23Z</time></trkpt><trkpt lat="44.65807780617057" lon="10.088401494902174"><ele>391.0</ele><time>2026-04-11T15:23:24Z</time></trkpt><trkpt lat="44.6580996332692" lon="10.088574658041399"><ele>390.0</ele><time>2026-04-11T15:23:25Z</time></trkpt><trkpt lat="44.658138639932695" lon="10.088742809378957"><ele>389.0</ele><time>2026-04-11T15:23:26Z</time></trkpt><trkpt lat="44.658184113508625" lon="10.088910509348034"><ele>388.0</ele><time>2026-04-11T15:23:27Z</time></trkpt><trkpt lat="44.658235344135505" lon="10.089094548171612"><ele>387.0</ele><time>2026-04-11T15:23:28Z</time></trkpt><trkpt lat="44.658274778667256" lon="10.089270702664468"><ele>386.8</ele><time>2026-04-11T15:23:29Z</time></trkpt><trkpt lat="44.65830526327807" lon="10.089429968575216"><ele>386.6</ele><time>2026-04-11T15:23:30Z</time></trkpt><trkpt lat="44.65833952283576" lon="10.089590804727852"><ele>386.40000000000003</ele><time>2026-04-11T15:23:31Z</time></trkpt><trkpt lat="44.65837654207833" lon="10.08973557608434"><ele>386.20000000000005</ele><time>2026-04-11T15:23:32Z</time></trkpt><trkpt lat="44.65840755487167" lon="10.089850385403716"><ele>386.0</ele><time>2026-04-11T15:23:33Z</time></trkpt><trkpt lat="44.65846320800658" lon="10.089934399911927"><ele>384.8</ele><time>2026-04-11T15:23:34Z</time></trkpt><trkpt lat="44.65854888258813" lon="10.08997035972473"><ele>383.6</ele><time>2026-04-11T15:23:35Z</time></trkpt><trkpt lat="44.658640150905796" lon="10.089927490554619"><ele>382.4</ele><time>2026-04-11T15:23:36Z</time></trkpt><trkpt lat="44.65871305239241" lon="10.089809894005931"><ele>381.2</ele><time>2026-04-11T15:23:37Z</time></trkpt><trkpt lat="44.658712959241946" lon="10.089658321391239"><ele>380.0</ele><time>2026-04-11T15:23:38Z</time></trkpt><trkpt lat="44.65866170689979" lon="10.089502495080184"><ele>381.5</ele><time>2026-04-11T15:23:39Z</time></trkpt><trkpt lat="44.65859740046474" lon="10.08934473966325"><ele>383.0</ele><time>2026-04-11T15:23:40Z</time></trkpt><trkpt lat="44.65855743842402" lon="10.089182219059632"><ele>384.5</ele><time>2026-04-11T15:23:41Z</time></trkpt><trkpt lat="44.65855773700269" lon="10.088991672471971"><ele>386.0</ele><time>2026-04-11T15:23:42Z</time></trkpt><trkpt lat="44.65857379459864" lon="10.088809223768669"><ele>386.3333333333333</ele><time>2026-04-11T15:23:43Z</time></trkpt><trkpt lat="44.65861293434456" lon="10.088620715576068"><ele>386.66666666666663</ele><time>2026-04-11T15:23:44Z</time></trkpt><trkpt lat="44.658678767413356" lon="10.088390984983732"><ele>387.0</ele><time>2026-04-11T15:23:45Z</time></trkpt><trkpt lat="44.65876814816577" lon="10.088145989867016"><ele>381.3333333333333</ele><time>2026-04-11T15:23:46Z</time></trkpt><trkpt lat="44.658875757597066" lon="10.087922888923115"><ele>375.66666666666663</ele><time>2026-04-11T15:23:47Z</time></trkpt><trkpt lat="44.65900182680273" lon="10.08774983588995"><ele>370.0</ele><time>2026-04-11T15:23:48Z</time></trkpt><trkpt lat="44.659139470853106" lon="10.087599305104376"><ele>370.0</ele><time>2026-04-11T15:23:49Z</time></trkpt><trkpt lat="44.65927822921186" lon="10.08747662702722"><ele>370.0</ele><time>2026-04-11T15:23:50Z</time></trkpt><trkpt lat="44.65941117656097" lon="10.087357434241204"><ele>370.0</ele><time>2026-04-11T15:23:51Z</time></trkpt><trkpt lat="44.65953859808656" lon="10.087233315679777"><ele>365.5</ele><time>2026-04-11T15:23:52Z</time></trkpt><trkpt lat="44.6596505181449" lon="10.087111680840446"><ele>361.0</ele><time>2026-04-11T15:23:53Z</time></trkpt><trkpt lat="44.65974996754435" lon="10.087003540607988"><ele>356.5</ele><time>2026-04-11T15:23:54Z</time></trkpt><trkpt lat="44.65983153944062" lon="10.086907951424468"><ele>352.0</ele><time>2026-04-11T15:23:55Z</time></trkpt><trkpt lat="44.65989871835356" lon="10.086841982310858"><ele>352.0</ele><time>2026-04-11T15:23:56Z</time></trkpt><trkpt lat="44.660012432564805" lon="10.086909691251083"><ele>352.0</ele><time>2026-04-11T15:23:58Z</time></trkpt><trkpt lat="44.660005247888044" lon="10.087037916884928"><ele>352.0</ele><time>2026-04-11T15:23:59Z</time></trkpt><trkpt lat="44.659916451505644" lon="10.087175684143347"><ele>352.0</ele><time>2026-04-11T15:24:00Z</time></trkpt><trkpt lat="44.65983319567904" lon="10.08738257550679"><ele>351.66666666666663</ele><time>2026-04-11T15:24:01Z</time></trkpt><trkpt lat="44.65974231259742" lon="10.087580440056636"><ele>351.3333333333333</ele><time>2026-04-11T15:24:02Z</time></trkpt><trkpt lat="44.65965990121899" lon="10.087789334570678"><ele>351.0</ele><time>2026-04-11T15:24:03Z</time></trkpt><trkpt lat="44.65959104203145" lon="10.087979803204748"><ele>351.0</ele><time>2026-04-11T15:24:04Z</time></trkpt><trkpt lat="44.65954493887326" lon="10.088169334192783"><ele>351.0</ele><time>2026-04-11T15:24:05Z</time></trkpt><trkpt lat="44.659539796689636" lon="10.088391157331252"><ele>351.0</ele><time>2026-04-11T15:24:06Z</time></trkpt><trkpt lat="44.659597004898835" lon="10.088642197655572"><ele>349.3333333333333</ele><time>2026-04-11T15:24:07Z</time></trkpt><trkpt lat="44.65969710692233" lon="10.088873189076851"><ele>347.66666666666663</ele><time>2026-04-11T15:24:08Z</time></trkpt><trkpt lat="44.65978603301761" lon="10.089095911386153"><ele>346.0</ele><time>2026-04-11T15:24:09Z</time></trkpt><trkpt lat="44.65985844882399" lon="10.0893001252936"><ele>344.75</ele><time>2026-04-11T15:24:10Z</time></trkpt><trkpt lat="44.65993891978081" lon="10.089484664823061"><ele>343.5</ele><time>2026-04-11T15:24:11Z</time></trkpt><trkpt lat="44.66002266098907" lon="10.08965934040743"><ele>342.25</ele><time>2026-04-11T15:24:12Z</time></trkpt><trkpt lat="44.66009892988634" lon="10.089828428145951"><ele>341.0</ele><time>2026-04-11T15:24:13Z</time></trkpt><trkpt lat="44.66017688350263" lon="10.089997434142365"><ele>341.0</ele><time>2026-04-11T15:24:14Z</time></trkpt><trkpt lat="44.66025995798632" lon="10.090164804787783"><ele>341.0</ele><time>2026-04-11T15:24:15Z</time></trkpt><trkpt lat="44.66033668142345" lon="10.090340392752955"><ele>341.0</ele><time>2026-04-11T15:24:16Z</time></trkpt><trkpt lat="44.66041049803553" lon="10.090505627397052"><ele>341.0</ele><time>2026-04-11T15:24:17Z</time></trkpt><trkpt lat="44.660491725831506" lon="10.090677366773761"><ele>335.33333333333337</ele><time>2026-04-11T15:24:18Z</time></trkpt><trkpt lat="44.66054936430702" lon="10.090859390964392"><ele>329.6666666666667</ele><time>2026-04-11T15:24:19Z</time></trkpt><trkpt lat="44.660601687857394" lon="10.091068077202516"><ele>324.0</ele><time>2026-04-11T15:24:20Z</time></trkpt><trkpt lat="44.660659361542336" lon="10.091308103712137"><ele>324.0</ele><time>2026-04-11T15:24:21Z</time></trkpt><trkpt lat="44.660708924876246" lon="10.091529161304937"><ele>324.0</ele><time>2026-04-11T15:24:21.999Z</time></trkpt><trkpt lat="44.660749493225694" lon="10.09171189249047"><ele>324.0</ele><time>2026-04-11T15:24:22.999Z</time></trkpt><trkpt lat="44.660761307179285" lon="10.091869612843478"><ele>324.0</ele><time>2026-04-11T15:24:23.999Z</time></trkpt><trkpt lat="44.66076522665769" lon="10.091992608172998"><ele>324.0</ele><time>2026-04-11T15:24:24.999Z</time></trkpt><trkpt lat="44.660766134045325" lon="10.092096913633991"><ele>324.0</ele><time>2026-04-11T15:24:25.999Z</time></trkpt><trkpt lat="44.66078383933036" lon="10.092190530614076"><ele>324.0</ele><time>2026-04-11T15:24:26.999Z</time></trkpt><trkpt lat="44.660826386842395" lon="10.092261447520102"><ele>324.0</ele><time>2026-04-11T15:24:27.999Z</time></trkpt><trkpt lat="44.6609513974364" lon="10.092304532415612"><ele>324.0</ele><time>2026-04-11T15:24:29.999Z</time></trkpt><trkpt lat="44.661020652492475" lon="10.092270933063402"><ele>324.0</ele><time>2026-04-11T15:24:30.999Z</time></trkpt><trkpt lat="44.66106496811829" lon="10.092170699824733"><ele>324.0</ele><time>2026-04-11T15:24:31.999Z</time></trkpt><trkpt lat="44.661072340797304" lon="10.092040997286688"><ele>324.0</ele><time>2026-04-11T15:24:32.999Z</time></trkpt><trkpt lat="44.66106681221999" lon="10.091873853352007"><ele>324.0</ele><time>2026-04-11T15:24:33.999Z</time></trkpt><trkpt lat="44.661060328367405" lon="10.091663392374963"><ele>324.0</ele><time>2026-04-11T15:24:34.999Z</time></trkpt><trkpt lat="44.661063986399455" lon="10.091428522638092"><ele>324.0</ele><time>2026-04-11T15:24:35.999Z</time></trkpt><trkpt lat="44.66107258703676" lon="10.091192907474307"><ele>324.0</ele><time>2026-04-11T15:24:36.999Z</time></trkpt><trkpt lat="44.66108940354763" lon="10.090933985684641"><ele>324.0</ele><time>2026-04-11T15:24:37.999Z</time></trkpt><trkpt lat="44.66109295474677" lon="10.0906818052044"><ele>317.3333333333333</ele><time>2026-04-11T15:24:38.999Z</time></trkpt><trkpt lat="44.66112567719622" lon="10.090465527721486"><ele>310.66666666666663</ele><time>2026-04-11T15:24:39.999Z</time></trkpt><trkpt lat="44.661172075285684" lon="10.09025394035579"><ele>304.0</ele><time>2026-04-11T15:24:40.999Z</time></trkpt><trkpt lat="44.66126889603509" lon="10.090048372628257"><ele>306.0</ele><time>2026-04-11T15:24:41.999Z</time></trkpt><trkpt lat="44.66145662886634" lon="10.089923932693035"><ele>308.0</ele><time>2026-04-11T15:24:42.999Z</time></trkpt><trkpt lat="44.66164250882904" lon="10.089760574449295"><ele>310.0</ele><time>2026-04-11T15:24:43.999Z</time></trkpt><trkpt lat="44.66182267410853" lon="10.089619009681051"><ele>307.66666666666663</ele><time>2026-04-11T15:24:44.999Z</time></trkpt><trkpt lat="44.66197155200971" lon="10.08947792736316"><ele>305.3333333333333</ele><time>2026-04-11T15:24:45.999Z</time></trkpt><trkpt lat="44.66211211631185" lon="10.089370768146619"><ele>303.0</ele><time>2026-04-11T15:24:46.999Z</time></trkpt><trkpt lat="44.662286107387054" lon="10.089353694949445"><ele>303.0</ele><time>2026-04-11T15:24:47.999Z</time></trkpt><trkpt lat="44.66248598965992" lon="10.089349482654935"><ele>303.0</ele><time>2026-04-11T15:24:48.999Z</time></trkpt><trkpt lat="44.66268741235585" lon="10.089385339567055"><ele>303.0</ele><time>2026-04-11T15:24:49.999Z</time></trkpt><trkpt lat="44.662867978932844" lon="10.089415423583368"><ele>302.0</ele><time>2026-04-11T15:24:50.999Z</time></trkpt><trkpt lat="44.663001372646995" lon="10.08943401978683"><ele>301.0</ele><time>2026-04-11T15:24:51.999Z</time></trkpt><trkpt lat="44.66309465193666" lon="10.089472269953353"><ele>300.0</ele><time>2026-04-11T15:24:52.999Z</time></trkpt><trkpt lat="44.66315935203439" lon="10.089584637582714"><ele>299.0</ele><time>2026-04-11T15:24:53.999Z</time></trkpt><trkpt lat="44.66316190995704" lon="10.089770270624767"><ele>295.0</ele><time>2026-04-11T15:24:54.999Z</time></trkpt><trkpt lat="44.66314588838551" lon="10.089966426375327"><ele>291.0</ele><time>2026-04-11T15:24:55.999Z</time></trkpt><trkpt lat="44.663012631481614" lon="10.09010909840117"><ele>287.0</ele><time>2026-04-11T15:24:56.999Z</time></trkpt><trkpt lat="44.66291021269684" lon="10.090303404525498"><ele>287.0</ele><time>2026-04-11T15:24:57.999Z</time></trkpt><trkpt lat="44.66279991640845" lon="10.090489280821618"><ele>287.0</ele><time>2026-04-11T15:24:58.999Z</time></trkpt><trkpt lat="44.662707963459006" lon="10.09065585143208"><ele>287.0</ele><time>2026-04-11T15:24:59.999Z</time></trkpt><trkpt lat="44.66261204417483" lon="10.09082219922578"><ele>286.0</ele><time>2026-04-11T15:25:00.999Z</time></trkpt><trkpt lat="44.66254797676723" lon="10.09098241193097"><ele>285.0</ele><time>2026-04-11T15:25:01.999Z</time></trkpt><trkpt lat="44.6625391335618" lon="10.09117756529644"><ele>284.0</ele><time>2026-04-11T15:25:02.999Z</time></trkpt><trkpt lat="44.66260041961749" lon="10.091409147659345"><ele>283.0</ele><time>2026-04-11T15:25:03.999Z</time></trkpt><trkpt lat="44.662701335410006" lon="10.091657153600082"><ele>278.3333333333333</ele><time>2026-04-11T15:25:04.999Z</time></trkpt><trkpt lat="44.66278451869334" lon="10.091883841207638"><ele>273.6666666666667</ele><time>2026-04-11T15:25:05.999Z</time></trkpt><trkpt lat="44.66284781146866" lon="10.092088645290579"><ele>269.0</ele><time>2026-04-11T15:25:06.999Z</time></trkpt><trkpt lat="44.66290499903053" lon="10.092278620071024"><ele>268.5</ele><time>2026-04-11T15:25:07.999Z</time></trkpt><trkpt lat="44.6629604338731" lon="10.092443202109914"><ele>268.0</ele><time>2026-04-11T15:25:08.999Z</time></trkpt><trkpt lat="44.66302158980958" lon="10.092612531597329"><ele>267.5</ele><time>2026-04-11T15:25:09.999Z</time></trkpt><trkpt lat="44.66309186287836" lon="10.092758753876428"><ele>267.0</ele><time>2026-04-11T15:25:10.999Z</time></trkpt><trkpt lat="44.663194617289555" lon="10.092883011406848"><ele>267.0</ele><time>2026-04-11T15:25:11.999Z</time></trkpt><trkpt lat="44.66332321380668" lon="10.092970996618043"><ele>267.0</ele><time>2026-04-11T15:25:12.999Z</time></trkpt><trkpt lat="44.663484471036355" lon="10.093013136517165"><ele>267.0</ele><time>2026-04-11T15:25:13.999Z</time></trkpt><trkpt lat="44.6636632121079" lon="10.09303407426554"><ele>264.6666666666667</ele><time>2026-04-11T15:25:14.999Z</time></trkpt><trkpt lat="44.66385505512567" lon="10.093060206862903"><ele>262.33333333333337</ele><time>2026-04-11T15:25:15.999Z</time></trkpt><trkpt lat="44.66404040924975" lon="10.093087032852681"><ele>260.0</ele><time>2026-04-11T15:25:16.999Z</time></trkpt><trkpt lat="44.664227376834795" lon="10.093117599295809"><ele>260.0</ele><time>2026-04-11T15:25:18Z</time></trkpt><trkpt lat="44.66441422073382" lon="10.093151372297298"><ele>260.0</ele><time>2026-04-11T15:25:19Z</time></trkpt><trkpt lat="44.66458919022294" lon="10.0931841641408"><ele>260.0</ele><time>2026-04-11T15:25:20Z</time></trkpt><trkpt lat="44.66477176826649" lon="10.093214961074226"><ele>257.33333333333337</ele><time>2026-04-11T15:25:21Z</time></trkpt><trkpt lat="44.664944597485565" lon="10.09322994538912"><ele>254.66666666666669</ele><time>2026-04-11T15:25:22Z</time></trkpt><trkpt lat="44.66511811796186" lon="10.093237694852853"><ele>252.0</ele><time>2026-04-11T15:25:23Z</time></trkpt><trkpt lat="44.6652944678678" lon="10.093218567347984"><ele>248.33333333333331</ele><time>2026-04-11T15:25:24Z</time></trkpt><trkpt lat="44.66546654188276" lon="10.093172813636542"><ele>244.66666666666666</ele><time>2026-04-11T15:25:25Z</time></trkpt><trkpt lat="44.665626017965494" lon="10.09312116518502"><ele>241.0</ele><time>2026-04-11T15:25:26Z</time></trkpt><trkpt lat="44.6657816248062" lon="10.093086001119351"><ele>241.0</ele><time>2026-04-11T15:25:27Z</time></trkpt><trkpt lat="44.66590756978499" lon="10.093140881124127"><ele>241.0</ele><time>2026-04-11T15:25:28Z</time></trkpt><trkpt lat="44.66601050527672" lon="10.093271131556298"><ele>241.0</ele><time>2026-04-11T15:25:29Z</time></trkpt><trkpt lat="44.666142186182384" lon="10.093437861389752"><ele>241.0</ele><time>2026-04-11T15:25:30Z</time></trkpt><trkpt lat="44.66627887529106" lon="10.093650706500528"><ele>239.0</ele><time>2026-04-11T15:25:31Z</time></trkpt><trkpt lat="44.66643480937804" lon="10.093827878559207"><ele>237.0</ele><time>2026-04-11T15:25:32Z</time></trkpt><trkpt lat="44.666615351465" lon="10.093973999514388"><ele>235.0</ele><time>2026-04-11T15:25:33Z</time></trkpt><trkpt lat="44.66680492368506" lon="10.094127891881385"><ele>231.66666666666666</ele><time>2026-04-11T15:25:34Z</time></trkpt><trkpt lat="44.666994509939336" lon="10.09429266213646"><ele>228.33333333333331</ele><time>2026-04-11T15:25:35Z</time></trkpt><trkpt lat="44.66718697007819" lon="10.094448964196896"><ele>225.0</ele><time>2026-04-11T15:25:36Z</time></trkpt><trkpt lat="44.667376625991274" lon="10.094609044018688"><ele>225.0</ele><time>2026-04-11T15:25:37Z</time></trkpt><trkpt lat="44.66755842807247" lon="10.094773477471081"><ele>225.0</ele><time>2026-04-11T15:25:38Z</time></trkpt><trkpt lat="44.667746716161965" lon="10.094937706027713"><ele>225.0</ele><time>2026-04-11T15:25:39Z</time></trkpt><trkpt lat="44.66794652457359" lon="10.095083209930504"><ele>222.0</ele><time>2026-04-11T15:25:40Z</time></trkpt><trkpt lat="44.66816473371007" lon="10.095186561533518"><ele>219.0</ele><time>2026-04-11T15:25:41Z</time></trkpt><trkpt lat="44.6683873646326" lon="10.095268430814937"><ele>219.0</ele><time>2026-04-11T15:25:42Z</time></trkpt><trkpt lat="44.66860102946352" lon="10.095359368110907"><ele>219.0</ele><time>2026-04-11T15:25:43Z</time></trkpt><trkpt lat="44.668792865623" lon="10.095463476913617"><ele>219.0</ele><time>2026-04-11T15:25:44Z</time></trkpt><trkpt lat="44.66896454531932" lon="10.095613575184775"><ele>216.33333333333331</ele><time>2026-04-11T15:25:45Z</time></trkpt><trkpt lat="44.66913025125829" lon="10.095806041512933"><ele>213.66666666666666</ele><time>2026-04-11T15:25:46Z</time></trkpt><trkpt lat="44.6692534198033" lon="10.096031567317691"><ele>211.0</ele><time>2026-04-11T15:25:47Z</time></trkpt><trkpt lat="44.66937056883172" lon="10.096239264887807"><ele>210.5</ele><time>2026-04-11T15:25:48Z</time></trkpt><trkpt lat="44.669443516825716" lon="10.096412298095967"><ele>210.0</ele><time>2026-04-11T15:25:49Z</time></trkpt><trkpt lat="44.669478774709205" lon="10.096593454287147"><ele>209.5</ele><time>2026-04-11T15:25:50Z</time></trkpt><trkpt lat="44.6694336025362" lon="10.096806825340513"><ele>209.0</ele><time>2026-04-11T15:25:51Z</time></trkpt><trkpt lat="44.669393295660925" lon="10.097075837426862"><ele>209.0</ele><time>2026-04-11T15:25:52Z</time></trkpt><trkpt lat="44.66932855252074" lon="10.097364708707769"><ele>209.0</ele><time>2026-04-11T15:25:53Z</time></trkpt><trkpt lat="44.66928528475233" lon="10.097637070165366"><ele>209.0</ele><time>2026-04-11T15:25:54Z</time></trkpt><trkpt lat="44.669238970886035" lon="10.09788007192074"><ele>207.75</ele><time>2026-04-11T15:25:55Z</time></trkpt><trkpt lat="44.6691963735419" lon="10.098109635650738"><ele>206.5</ele><time>2026-04-11T15:25:56Z</time></trkpt><trkpt lat="44.669170670410686" lon="10.098312111822013"><ele>205.25</ele><time>2026-04-11T15:25:57Z</time></trkpt><trkpt lat="44.669161076911024" lon="10.098482089413523"><ele>204.0</ele><time>2026-04-11T15:25:58Z</time></trkpt><trkpt lat="44.66921549344028" lon="10.098630904508438"><ele>202.75</ele><time>2026-04-11T15:25:59Z</time></trkpt><trkpt lat="44.66932406843029" lon="10.098747663483596"><ele>201.5</ele><time>2026-04-11T15:26:00Z</time></trkpt><trkpt lat="44.669469220901966" lon="10.098781814404544"><ele>200.25</ele><time>2026-04-11T15:26:01Z</time></trkpt><trkpt lat="44.66960978291001" lon="10.098719670316607"><ele>199.0</ele><time>2026-04-11T15:26:02Z</time></trkpt><trkpt lat="44.669728116156875" lon="10.09856966462278"><ele>197.33333333333331</ele><time>2026-04-11T15:26:03Z</time></trkpt><trkpt lat="44.669833186822125" lon="10.098354485677493"><ele>195.66666666666669</ele><time>2026-04-11T15:26:04Z</time></trkpt><trkpt lat="44.66993223783884" lon="10.098096477595229"><ele>194.0</ele><time>2026-04-11T15:26:05Z</time></trkpt><trkpt lat="44.6700526356791" lon="10.097850173532049"><ele>194.0</ele><time>2026-04-11T15:26:06Z</time></trkpt><trkpt lat="44.670204872207904" lon="10.097631887833613"><ele>194.0</ele><time>2026-04-11T15:26:07Z</time></trkpt><trkpt lat="44.67037582885486" lon="10.097431632714684"><ele>194.0</ele><time>2026-04-11T15:26:08Z</time></trkpt><trkpt lat="44.67052468111537" lon="10.09719822181834"><ele>190.66666666666669</ele><time>2026-04-11T15:26:09Z</time></trkpt><trkpt lat="44.670642158655596" lon="10.096948168966266"><ele>187.33333333333334</ele><time>2026-04-11T15:26:10Z</time></trkpt><trkpt lat="44.67074469886766" lon="10.096711657440556"><ele>184.0</ele><time>2026-04-11T15:26:11Z</time></trkpt><trkpt lat="44.6708402144927" lon="10.096490420682564"><ele>183.66666666666669</ele><time>2026-04-11T15:26:12Z</time></trkpt><trkpt lat="44.670936951381464" lon="10.096280081746878"><ele>183.33333333333334</ele><time>2026-04-11T15:26:13Z</time></trkpt><trkpt lat="44.67103648846753" lon="10.096092648597908"><ele>183.0</ele><time>2026-04-11T15:26:14Z</time></trkpt><trkpt lat="44.67112977471495" lon="10.095954993042895"><ele>181.75</ele><time>2026-04-11T15:26:15Z</time></trkpt><trkpt lat="44.67126299409707" lon="10.095880210545651"><ele>180.5</ele><time>2026-04-11T15:26:16Z</time></trkpt><trkpt lat="44.67139151698779" lon="10.09592831879562"><ele>179.25</ele><time>2026-04-11T15:26:17Z</time></trkpt><trkpt lat="44.67149639933983" lon="10.096046582206618"><ele>178.0</ele><time>2026-04-11T15:26:18Z</time></trkpt><trkpt lat="44.67165687690115" lon="10.096174942698747"><ele>178.0</ele><time>2026-04-11T15:26:19Z</time></trkpt><trkpt lat="44.67179282286631" lon="10.096337332423149"><ele>178.0</ele><time>2026-04-11T15:26:20Z</time></trkpt><trkpt lat="44.67192729174519" lon="10.09646157538009"><ele>178.0</ele><time>2026-04-11T15:26:21Z</time></trkpt><trkpt lat="44.67201949676774" lon="10.096611401313925"><ele>176.0</ele><time>2026-04-11T15:26:22Z</time></trkpt><trkpt lat="44.67209080560546" lon="10.096768340293453"><ele>174.0</ele><time>2026-04-11T15:26:23Z</time></trkpt><trkpt lat="44.67212524955601" lon="10.096970691701294"><ele>172.0</ele><time>2026-04-11T15:26:24Z</time></trkpt><trkpt lat="44.672144953017636" lon="10.09719586855882"><ele>170.0</ele><time>2026-04-11T15:26:25Z</time></trkpt><trkpt lat="44.67217585606769" lon="10.09743335913986"><ele>169.25</ele><time>2026-04-11T15:26:26Z</time></trkpt><trkpt lat="44.672192577933984" lon="10.097622850665523"><ele>168.5</ele><time>2026-04-11T15:26:27Z</time></trkpt><trkpt lat="44.672230807045" lon="10.097779502870843"><ele>167.75</ele><time>2026-04-11T15:26:28Z</time></trkpt><trkpt lat="44.672318821992164" lon="10.09788795090432"><ele>167.0</ele><time>2026-04-11T15:26:28.999Z</time></trkpt><trkpt lat="44.67245186012001" lon="10.09791240559565"><ele>167.0</ele><time>2026-04-11T15:26:29.999Z</time></trkpt><trkpt lat="44.672603014603496" lon="10.097844566612725"><ele>167.0</ele><time>2026-04-11T15:26:30.999Z</time></trkpt><trkpt lat="44.67274679704121" lon="10.09773243041763"><ele>167.0</ele><time>2026-04-11T15:26:31.999Z</time></trkpt><trkpt lat="44.67289428217867" lon="10.097646879606692"><ele>164.66666666666666</ele><time>2026-04-11T15:26:32.999Z</time></trkpt><trkpt lat="44.67304665415112" lon="10.097582295398437"><ele>162.33333333333334</ele><time>2026-04-11T15:26:33.999Z</time></trkpt><trkpt lat="44.67320119579561" lon="10.097516574495195"><ele>160.0</ele><time>2026-04-11T15:26:34.999Z</time></trkpt><trkpt lat="44.67334447696744" lon="10.097447184669406"><ele>160.0</ele><time>2026-04-11T15:26:35.999Z</time></trkpt><trkpt lat="44.67350300699945" lon="10.097365289828033"><ele>160.0</ele><time>2026-04-11T15:26:36.999Z</time></trkpt><trkpt lat="44.67365402246906" lon="10.097290705727207"><ele>160.0</ele><time>2026-04-11T15:26:37.999Z</time></trkpt><trkpt lat="44.67378776149165" lon="10.097208092415531"><ele>160.0</ele><time>2026-04-11T15:26:38.999Z</time></trkpt><trkpt lat="44.67391227905047" lon="10.09713960225344"><ele>160.0</ele><time>2026-04-11T15:26:39.999Z</time></trkpt><trkpt lat="44.6740538439978" lon="10.097056556332412"><ele>160.0</ele><time>2026-04-11T15:26:40.999Z</time></trkpt><trkpt lat="44.674187262565674" lon="10.096990484420918"><ele>160.0</ele><time>2026-04-11T15:26:41.999Z</time></trkpt><trkpt lat="44.67433073910621" lon="10.096931149113816"><ele>159.0</ele><time>2026-04-11T15:26:42.999Z</time></trkpt><trkpt lat="44.674471663483" lon="10.096871876741687"><ele>158.0</ele><time>2026-04-11T15:26:43.999Z</time></trkpt><trkpt lat="44.67460719094786" lon="10.096803426591036"><ele>157.0</ele><time>2026-04-11T15:26:44.999Z</time></trkpt><trkpt lat="44.67473443188819" lon="10.096733815343239"><ele>156.0</ele><time>2026-04-11T15:26:45.999Z</time></trkpt><trkpt lat="44.67486271415107" lon="10.096667599852173"><ele>156.0</ele><time>2026-04-11T15:26:46.999Z</time></trkpt><trkpt lat="44.67499091618409" lon="10.096600056631848"><ele>156.0</ele><time>2026-04-11T15:26:47.999Z</time></trkpt><trkpt lat="44.6751190981336" lon="10.096539905009182"><ele>156.0</ele><time>2026-04-11T15:26:48.999Z</time></trkpt><trkpt lat="44.675250423295665" lon="10.09646733705223"><ele>156.0</ele><time>2026-04-11T15:26:49.999Z</time></trkpt><trkpt lat="44.675384344797756" lon="10.09639408747781"><ele>156.25</ele><time>2026-04-11T15:26:50.999Z</time></trkpt><trkpt lat="44.67551547210802" lon="10.09632597681228"><ele>156.5</ele><time>2026-04-11T15:26:51.999Z</time></trkpt><trkpt lat="44.67564735868702" lon="10.096263170187294"><ele>156.75</ele><time>2026-04-11T15:26:52.999Z</time></trkpt><trkpt lat="44.67577831116619" lon="10.096191290922125"><ele>157.0</ele><time>2026-04-11T15:26:53.999Z</time></trkpt><trkpt lat="44.67590387445573" lon="10.09612302715274"><ele>157.0</ele><time>2026-04-11T15:26:54.999Z</time></trkpt><trkpt lat="44.67603030461011" lon="10.096057746105735"><ele>157.0</ele><time>2026-04-11T15:26:55.999Z</time></trkpt><trkpt lat="44.6761543571484" lon="10.09599593940942"><ele>157.0</ele><time>2026-04-11T15:26:56.999Z</time></trkpt><trkpt lat="44.67627775736672" lon="10.095938763924236"><ele>157.0</ele><time>2026-04-11T15:26:57.999Z</time></trkpt><trkpt lat="44.6763968670073" lon="10.095874436175462"><ele>156.5</ele><time>2026-04-11T15:26:58.999Z</time></trkpt><trkpt lat="44.676515152820706" lon="10.095809687992908"><ele>156.0</ele><time>2026-04-11T15:26:59.999Z</time></trkpt><trkpt lat="44.67663997605509" lon="10.09574624677028"><ele>155.5</ele><time>2026-04-11T15:27:00.999Z</time></trkpt><trkpt lat="44.6767700335143" lon="10.095681453208362"><ele>155.0</ele><time>2026-04-11T15:27:01.999Z</time></trkpt><trkpt lat="44.67690162423826" lon="10.095610479749602"><ele>154.5</ele><time>2026-04-11T15:27:02.999Z</time></trkpt><trkpt lat="44.67703280873821" lon="10.09553964782985"><ele>154.0</ele><time>2026-04-11T15:27:03.999Z</time></trkpt><trkpt lat="44.677168174581006" lon="10.095467625743595"><ele>153.5</ele><time>2026-04-11T15:27:04.999Z</time></trkpt><trkpt lat="44.67729602638455" lon="10.095404484041406"><ele>153.0</ele><time>2026-04-11T15:27:05.999Z</time></trkpt><trkpt lat="44.67742372999694" lon="10.095334294030485"><ele>153.0</ele><time>2026-04-11T15:27:06.999Z</time></trkpt><trkpt lat="44.67754917031822" lon="10.095271950907176"><ele>153.0</ele><time>2026-04-11T15:27:07.999Z</time></trkpt><trkpt lat="44.67767389667684" lon="10.095208770586625"><ele>153.0</ele><time>2026-04-11T15:27:08.999Z</time></trkpt><trkpt lat="44.67779661859078" lon="10.09513907899166"><ele>153.0</ele><time>2026-04-11T15:27:09.999Z</time></trkpt><trkpt lat="44.67791939561288" lon="10.095072805355224"><ele>152.25</ele><time>2026-04-11T15:27:10.999Z</time></trkpt><trkpt lat="44.67804576396447" lon="10.095006753635518"><ele>151.5</ele><time>2026-04-11T15:27:11.999Z</time></trkpt><trkpt lat="44.678177404664176" lon="10.094948748157385"><ele>150.75</ele><time>2026-04-11T15:27:12.999Z</time></trkpt><trkpt lat="44.67831158010522" lon="10.094869951722433"><ele>150.0</ele><time>2026-04-11T15:27:13.999Z</time></trkpt><trkpt lat="44.6784440625816" lon="10.094793616587403"><ele>149.5</ele><time>2026-04-11T15:27:14.999Z</time></trkpt><trkpt lat="44.678575621637194" lon="10.094717161077705"><ele>149.0</ele><time>2026-04-11T15:27:15.999Z</time></trkpt><trkpt lat="44.67870387071174" lon="10.094655152670544"><ele>148.5</ele><time>2026-04-11T15:27:16.999Z</time></trkpt><trkpt lat="44.67882073276923" lon="10.094588678261912"><ele>148.0</ele><time>2026-04-11T15:27:17.999Z</time></trkpt><trkpt lat="44.678938455734034" lon="10.094530209008216"><ele>148.0</ele><time>2026-04-11T15:27:18.999Z</time></trkpt><trkpt lat="44.67906000752581" lon="10.094481475858835"><ele>148.0</ele><time>2026-04-11T15:27:19.999Z</time></trkpt><trkpt lat="44.67919008342873" lon="10.094466158846156"><ele>148.0</ele><time>2026-04-11T15:27:20.999Z</time></trkpt><trkpt lat="44.67932754771444" lon="10.094491778463746"><ele>148.0</ele><time>2026-04-11T15:27:21.999Z</time></trkpt><trkpt lat="44.679474296682926" lon="10.094545429785367"><ele>148.0</ele><time>2026-04-11T15:27:22.999Z</time></trkpt><trkpt lat="44.67961061382974" lon="10.094650159562116"><ele>148.0</ele><time>2026-04-11T15:27:24Z</time></trkpt><trkpt lat="44.679757058751804" lon="10.094746311134793"><ele>148.0</ele><time>2026-04-11T15:27:25Z</time></trkpt><trkpt lat="44.67989607490361" lon="10.094865812172078"><ele>147.66666666666669</ele><time>2026-04-11T15:27:26Z</time></trkpt><trkpt lat="44.680047354088344" lon="10.094961512629373"><ele>147.33333333333334</ele><time>2026-04-11T15:27:27Z</time></trkpt><trkpt lat="44.68020920688743" lon="10.095050474321587"><ele>147.0</ele><time>2026-04-11T15:27:28Z</time></trkpt><trkpt lat="44.68036919615859" lon="10.095141809840236"><ele>146.33333333333334</ele><time>2026-04-11T15:27:29Z</time></trkpt><trkpt lat="44.680532302424524" lon="10.095227052162945"><ele>145.66666666666669</ele><time>2026-04-11T15:27:30Z</time></trkpt><trkpt lat="44.68068762407623" lon="10.095313573100853"><ele>145.0</ele><time>2026-04-11T15:27:31Z</time></trkpt><trkpt lat="44.68083408792831" lon="10.09539251362138"><ele>145.0</ele><time>2026-04-11T15:27:32Z</time></trkpt><trkpt lat="44.68097384691685" lon="10.09545963437668"><ele>145.0</ele><time>2026-04-11T15:27:33Z</time></trkpt><trkpt lat="44.68109882596845" lon="10.09551178453731"><ele>145.0</ele><time>2026-04-11T15:27:34Z</time></trkpt><trkpt lat="44.68121865656677" lon="10.095561842626202"><ele>145.0</ele><time>2026-04-11T15:27:35Z</time></trkpt><trkpt lat="44.68131837054702" lon="10.095619595742114"><ele>145.25</ele><time>2026-04-11T15:27:36Z</time></trkpt><trkpt lat="44.681418230653875" lon="10.095678891614087"><ele>145.5</ele><time>2026-04-11T15:27:37Z</time></trkpt><trkpt lat="44.681536753754784" lon="10.095717990247515"><ele>145.75</ele><time>2026-04-11T15:27:38Z</time></trkpt><trkpt lat="44.681661218446784" lon="10.0957547898672"><ele>146.0</ele><time>2026-04-11T15:27:39Z</time></trkpt><trkpt lat="44.6817943795567" lon="10.095783935222078"><ele>146.75</ele><time>2026-04-11T15:27:40Z</time></trkpt><trkpt lat="44.68193153988354" lon="10.095820279822883"><ele>147.5</ele><time>2026-04-11T15:27:41Z</time></trkpt><trkpt lat="44.68207159823053" lon="10.095850462819044"><ele>148.25</ele><time>2026-04-11T15:27:42Z</time></trkpt><trkpt lat="44.682213800072184" lon="10.095884980453347"><ele>149.0</ele><time>2026-04-11T15:27:43Z</time></trkpt><trkpt lat="44.68235932303694" lon="10.09591712171021"><ele>149.0</ele><time>2026-04-11T15:27:44Z</time></trkpt><trkpt lat="44.68249804982604" lon="10.09594445972337"><ele>149.0</ele><time>2026-04-11T15:27:45Z</time></trkpt><trkpt lat="44.68263937742934" lon="10.09597837491371"><ele>149.0</ele><time>2026-04-11T15:27:46Z</time></trkpt><trkpt lat="44.68279075264698" lon="10.096019173634055"><ele>149.0</ele><time>2026-04-11T15:27:47Z</time></trkpt><trkpt lat="44.68294342238629" lon="10.096052061144357"><ele>148.0</ele><time>2026-04-11T15:27:48Z</time></trkpt><trkpt lat="44.683097404839245" lon="10.096087034298725"><ele>147.0</ele><time>2026-04-11T15:27:49Z</time></trkpt><trkpt lat="44.683255787471516" lon="10.09612365566614"><ele>146.0</ele><time>2026-04-11T15:27:50Z</time></trkpt><trkpt lat="44.683417588690354" lon="10.096162241524732"><ele>146.0</ele><time>2026-04-11T15:27:51Z</time></trkpt><trkpt lat="44.68358505407939" lon="10.096201952109173"><ele>146.0</ele><time>2026-04-11T15:27:52Z</time></trkpt><trkpt lat="44.68375146531351" lon="10.096239281774265"><ele>146.0</ele><time>2026-04-11T15:27:53Z</time></trkpt><trkpt lat="44.68392294499337" lon="10.09627875847933"><ele>146.0</ele><time>2026-04-11T15:27:54Z</time></trkpt><trkpt lat="44.68410087348998" lon="10.09631831713607"><ele>146.0</ele><time>2026-04-11T15:27:55Z</time></trkpt><trkpt lat="44.68427996431791" lon="10.096359082938307"><ele>146.0</ele><time>2026-04-11T15:27:56Z</time></trkpt><trkpt lat="44.68445629568754" lon="10.096399025572724"><ele>145.66666666666666</ele><time>2026-04-11T15:27:57Z</time></trkpt><trkpt lat="44.68463754567848" lon="10.096438505050713"><ele>145.33333333333334</ele><time>2026-04-11T15:27:58Z</time></trkpt><trkpt lat="44.68481881575817" lon="10.096478550046024"><ele>145.0</ele><time>2026-04-11T15:27:59Z</time></trkpt><trkpt lat="44.685003423558264" lon="10.096517477001568"><ele>145.0</ele><time>2026-04-11T15:28:00Z</time></trkpt><trkpt lat="44.68518299023953" lon="10.096556779845598"><ele>145.0</ele><time>2026-04-11T15:28:01Z</time></trkpt><trkpt lat="44.68536541171914" lon="10.096595338658917"><ele>145.0</ele><time>2026-04-11T15:28:02Z</time></trkpt><trkpt lat="44.68554965351971" lon="10.096635070544721"><ele>146.0</ele><time>2026-04-11T15:28:03Z</time></trkpt><trkpt lat="44.68573067863053" lon="10.096674739160191"><ele>147.0</ele><time>2026-04-11T15:28:04Z</time></trkpt><trkpt lat="44.68590646762057" lon="10.096708168467295"><ele>148.0</ele><time>2026-04-11T15:28:05Z</time></trkpt><trkpt lat="44.686079521796565" lon="10.096747616873545"><ele>147.0</ele><time>2026-04-11T15:28:06Z</time></trkpt><trkpt lat="44.68625206884418" lon="10.096792172836402"><ele>146.0</ele><time>2026-04-11T15:28:07Z</time></trkpt><trkpt lat="44.68641544541413" lon="10.096831326543548"><ele>145.0</ele><time>2026-04-11T15:28:08Z</time></trkpt><trkpt lat="44.686580020645756" lon="10.096869936374475"><ele>145.0</ele><time>2026-04-11T15:28:09Z</time></trkpt><trkpt lat="44.68674761137604" lon="10.096904116238909"><ele>145.0</ele><time>2026-04-11T15:28:10Z</time></trkpt><trkpt lat="44.68690597646964" lon="10.096936617193341"><ele>145.0</ele><time>2026-04-11T15:28:11Z</time></trkpt><trkpt lat="44.68706747914082" lon="10.096969394088557"><ele>144.0</ele><time>2026-04-11T15:28:12Z</time></trkpt><trkpt lat="44.687230470653866" lon="10.097004214993918"><ele>143.0</ele><time>2026-04-11T15:28:13Z</time></trkpt><trkpt lat="44.687395572063416" lon="10.097040910145276"><ele>142.0</ele><time>2026-04-11T15:28:14Z</time></trkpt><trkpt lat="44.68756948816981" lon="10.097074662254883"><ele>142.0</ele><time>2026-04-11T15:28:15Z</time></trkpt><trkpt lat="44.687741280761934" lon="10.097112830875806"><ele>142.0</ele><time>2026-04-11T15:28:16Z</time></trkpt><trkpt lat="44.687917391817116" lon="10.097154513896696"><ele>142.0</ele><time>2026-04-11T15:28:17Z</time></trkpt><trkpt lat="44.68809299311603" lon="10.097196370361713"><ele>141.66666666666669</ele><time>2026-04-11T15:28:18Z</time></trkpt><trkpt lat="44.688262748675875" lon="10.097233639827135"><ele>141.33333333333334</ele><time>2026-04-11T15:28:19Z</time></trkpt><trkpt lat="44.68842966675102" lon="10.097271889181465"><ele>141.0</ele><time>2026-04-11T15:28:20Z</time></trkpt><trkpt lat="44.688595967004964" lon="10.09730981489818"><ele>141.0</ele><time>2026-04-11T15:28:21Z</time></trkpt><trkpt lat="44.68876040275332" lon="10.09734229561833"><ele>141.0</ele><time>2026-04-11T15:28:22Z</time></trkpt><trkpt lat="44.68892291159639" lon="10.097379780856933"><ele>141.0</ele><time>2026-04-11T15:28:23Z</time></trkpt><trkpt lat="44.689084683031346" lon="10.097418666798594"><ele>143.5</ele><time>2026-04-11T15:28:24Z</time></trkpt><trkpt lat="44.68923396050738" lon="10.097454230187635"><ele>146.0</ele><time>2026-04-11T15:28:25Z</time></trkpt><trkpt lat="44.689369570265434" lon="10.097491773887086"><ele>148.5</ele><time>2026-04-11T15:28:26Z</time></trkpt><trkpt lat="44.68950083092793" lon="10.097537750311924"><ele>151.0</ele><time>2026-04-11T15:28:27Z</time></trkpt><trkpt lat="44.68963413283045" lon="10.09759924274097"><ele>152.0</ele><time>2026-04-11T15:28:28Z</time></trkpt><trkpt lat="44.68975667807605" lon="10.09767714195844"><ele>153.0</ele><time>2026-04-11T15:28:29Z</time></trkpt><trkpt lat="44.689870047330054" lon="10.097781815618676"><ele>154.0</ele><time>2026-04-11T15:28:30Z</time></trkpt><trkpt lat="44.689971184779566" lon="10.097915379010537"><ele>155.0</ele><time>2026-04-11T15:28:31Z</time></trkpt><trkpt lat="44.69005603937019" lon="10.098061672177344"><ele>155.0</ele><time>2026-04-11T15:28:32Z</time></trkpt><trkpt lat="44.690124785507166" lon="10.098219950866852"><ele>155.0</ele><time>2026-04-11T15:28:33Z</time></trkpt><trkpt lat="44.6901779206013" lon="10.098395261868081"><ele>155.0</ele><time>2026-04-11T15:28:34Z</time></trkpt><trkpt lat="44.69022175336859" lon="10.098590755940721"><ele>155.0</ele><time>2026-04-11T15:28:35Z</time></trkpt><trkpt lat="44.69026138194671" lon="10.098778434532752"><ele>155.0</ele><time>2026-04-11T15:28:35.999Z</time></trkpt><trkpt lat="44.6903008666986" lon="10.09895624689966"><ele>155.0</ele><time>2026-04-11T15:28:36.999Z</time></trkpt><trkpt lat="44.69034078076129" lon="10.09911963446706"><ele>155.0</ele><time>2026-04-11T15:28:37.999Z</time></trkpt><trkpt lat="44.69037782352761" lon="10.099266552116568"><ele>155.0</ele><time>2026-04-11T15:28:38.999Z</time></trkpt><trkpt lat="44.69040589929884" lon="10.099403874164949"><ele>155.0</ele><time>2026-04-11T15:28:39.999Z</time></trkpt><trkpt lat="44.69043227550331" lon="10.099528162656647"><ele>155.0</ele><time>2026-04-11T15:28:40.999Z</time></trkpt><trkpt lat="44.69046253305653" lon="10.099672835757266"><ele>155.0</ele><time>2026-04-11T15:28:41.999Z</time></trkpt><trkpt lat="44.6904947705897" lon="10.099815547346429"><ele>155.0</ele><time>2026-04-11T15:28:42.999Z</time></trkpt><trkpt lat="44.690530111169686" lon="10.09997150725203"><ele>155.0</ele><time>2026-04-11T15:28:43.999Z</time></trkpt><trkpt lat="44.6905696932024" lon="10.100135662912793"><ele>155.75</ele><time>2026-04-11T15:28:44.999Z</time></trkpt><trkpt lat="44.69060929781867" lon="10.10030515275323"><ele>156.5</ele><time>2026-04-11T15:28:45.999Z</time></trkpt><trkpt lat="44.69065230529028" lon="10.100480196370041"><ele>157.25</ele><time>2026-04-11T15:28:46.999Z</time></trkpt><trkpt lat="44.69069161126994" lon="10.100662068059666"><ele>158.0</ele><time>2026-04-11T15:28:47.999Z</time></trkpt><trkpt lat="44.69073181694046" lon="10.100824640214368"><ele>158.75</ele><time>2026-04-11T15:28:48.999Z</time></trkpt><trkpt lat="44.69076756476141" lon="10.100996875869884"><ele>159.5</ele><time>2026-04-11T15:28:49.999Z</time></trkpt><trkpt lat="44.69081369639945" lon="10.101172532913706"><ele>160.25</ele><time>2026-04-11T15:28:50.999Z</time></trkpt><trkpt lat="44.6908665625461" lon="10.101331531814159"><ele>161.0</ele><time>2026-04-11T15:28:51.999Z</time></trkpt><trkpt lat="44.69094543123018" lon="10.101479324686107"><ele>161.75</ele><time>2026-04-11T15:28:52.999Z</time></trkpt><trkpt lat="44.69103953974555" lon="10.10161985185277"><ele>162.5</ele><time>2026-04-11T15:28:53.999Z</time></trkpt><trkpt lat="44.691135839912114" lon="10.101761117722857"><ele>163.25</ele><time>2026-04-11T15:28:54.999Z</time></trkpt><trkpt lat="44.691227998494995" lon="10.101905074706888"><ele>164.0</ele><time>2026-04-11T15:28:56Z</time></trkpt><trkpt lat="44.69130465352756" lon="10.102036470271742"><ele>163.39999999999998</ele><time>2026-04-11T15:28:56.999Z</time></trkpt><trkpt lat="44.69136095327586" lon="10.102136768237948"><ele>162.8</ele><time>2026-04-11T15:28:57.999Z</time></trkpt><trkpt lat="44.69142264201614" lon="10.102228283891145"><ele>162.2</ele><time>2026-04-11T15:28:58.999Z</time></trkpt><trkpt lat="44.69147665388585" lon="10.102323524752132"><ele>161.60000000000002</ele><time>2026-04-11T15:28:59.999Z</time></trkpt><trkpt lat="44.69153612574586" lon="10.102425479269245"><ele>161.0</ele><time>2026-04-11T15:29:00.999Z</time></trkpt><trkpt lat="44.691602780726406" lon="10.102532986648754"><ele>161.0</ele><time>2026-04-11T15:29:01.999Z</time></trkpt><trkpt lat="44.69169018281529" lon="10.102659261602216"><ele>161.0</ele><time>2026-04-11T15:29:02.999Z</time></trkpt><trkpt lat="44.691794546290666" lon="10.102808152262213"><ele>161.0</ele><time>2026-04-11T15:29:03.999Z</time></trkpt><trkpt lat="44.69190283221117" lon="10.102974438915066"><ele>161.0</ele><time>2026-04-11T15:29:04.999Z</time></trkpt><trkpt lat="44.69200791745105" lon="10.10316321209167"><ele>158.33333333333331</ele><time>2026-04-11T15:29:05.999Z</time></trkpt><trkpt lat="44.69211925347995" lon="10.103349720580857"><ele>155.66666666666666</ele><time>2026-04-11T15:29:06.999Z</time></trkpt><trkpt lat="44.69224244421853" lon="10.103530496681351"><ele>153.0</ele><time>2026-04-11T15:29:07.999Z</time></trkpt><trkpt lat="44.69236171724134" lon="10.103724877077605"><ele>153.0</ele><time>2026-04-11T15:29:08.999Z</time></trkpt><trkpt lat="44.69247557182362" lon="10.103912905733504"><ele>153.0</ele><time>2026-04-11T15:29:09.999Z</time></trkpt><trkpt lat="44.69258883943303" lon="10.104101862746301"><ele>153.0</ele><time>2026-04-11T15:29:10.999Z</time></trkpt><trkpt lat="44.692698119656" lon="10.10428279620212"><ele>152.66666666666666</ele><time>2026-04-11T15:29:11.999Z</time></trkpt><trkpt lat="44.69281211452883" lon="10.104462581771267"><ele>152.33333333333331</ele><time>2026-04-11T15:29:12.999Z</time></trkpt><trkpt lat="44.69292371229596" lon="10.104642223701255"><ele>152.0</ele><time>2026-04-11T15:29:13.999Z</time></trkpt><trkpt lat="44.69303064421304" lon="10.104833264031186"><ele>153.33333333333331</ele><time>2026-04-11T15:29:14.999Z</time></trkpt><trkpt lat="44.69313189494173" lon="10.105042116136318"><ele>154.66666666666666</ele><time>2026-04-11T15:29:15.999Z</time></trkpt><trkpt lat="44.69321868195117" lon="10.105259030219306"><ele>156.0</ele><time>2026-04-11T15:29:16.999Z</time></trkpt><trkpt lat="44.69330440585703" lon="10.105476422312421"><ele>156.0</ele><time>2026-04-11T15:29:17.999Z</time></trkpt><trkpt lat="44.6933894912683" lon="10.105692367060279"><ele>156.0</ele><time>2026-04-11T15:29:18.999Z</time></trkpt><trkpt lat="44.69347211904489" lon="10.105893235313504"><ele>156.0</ele><time>2026-04-11T15:29:19.999Z</time></trkpt><trkpt lat="44.69354443374432" lon="10.106072100780601"><ele>156.0</ele><time>2026-04-11T15:29:20.999Z</time></trkpt><trkpt lat="44.6936115734244" lon="10.106241650506856"><ele>156.0</ele><time>2026-04-11T15:29:21.999Z</time></trkpt><trkpt lat="44.69367227477935" lon="10.106407814940617"><ele>156.0</ele><time>2026-04-11T15:29:22.999Z</time></trkpt><trkpt lat="44.693732057387145" lon="10.106562667054218"><ele>156.0</ele><time>2026-04-11T15:29:23.999Z</time></trkpt><trkpt lat="44.693791325439314" lon="10.106727197351566"><ele>156.5</ele><time>2026-04-11T15:29:24.999Z</time></trkpt><trkpt lat="44.693851824502914" lon="10.106910923996208"><ele>157.0</ele><time>2026-04-11T15:29:25.999Z</time></trkpt><trkpt lat="44.69390448688265" lon="10.107104105676742"><ele>157.5</ele><time>2026-04-11T15:29:26.999Z</time></trkpt><trkpt lat="44.693960129816254" lon="10.107311411458996"><ele>158.0</ele><time>2026-04-11T15:29:27.999Z</time></trkpt><trkpt lat="44.694014399821135" lon="10.107526899145835"><ele>159.0</ele><time>2026-04-11T15:29:28.999Z</time></trkpt><trkpt lat="44.69406943806734" lon="10.10774988079881"><ele>160.0</ele><time>2026-04-11T15:29:30Z</time></trkpt><trkpt lat="44.69412526276126" lon="10.107968140257682"><ele>161.0</ele><time>2026-04-11T15:29:31Z</time></trkpt><trkpt lat="44.69417738860767" lon="10.108170976443317"><ele>161.8</ele><time>2026-04-11T15:29:32Z</time></trkpt><trkpt lat="44.69422727589068" lon="10.108352380684458"><ele>162.60000000000002</ele><time>2026-04-11T15:29:33Z</time></trkpt><trkpt lat="44.694276489404636" lon="10.108510308752697"><ele>163.4</ele><time>2026-04-11T15:29:34Z</time></trkpt><trkpt lat="44.694322658853544" lon="10.108633671845496"><ele>164.2</ele><time>2026-04-11T15:29:35Z</time></trkpt><trkpt lat="44.69436271112686" lon="10.108713155709092"><ele>165.0</ele><time>2026-04-11T15:29:36Z</time></trkpt><trkpt lat="44.69443544239615" lon="10.108823485489426"><ele>161.75</ele><time>2026-04-11T15:29:38Z</time></trkpt><trkpt lat="44.69454545559993" lon="10.108941891657857"><ele>158.5</ele><time>2026-04-11T15:29:40Z</time></trkpt><trkpt lat="44.69463731454198" lon="10.10900050701676"><ele>155.25</ele><time>2026-04-11T15:29:41Z</time></trkpt><trkpt lat="44.694740493725284" lon="10.109070192989313"><ele>152.0</ele><time>2026-04-11T15:29:42Z</time></trkpt><trkpt lat="44.69484390987682" lon="10.109163865499488"><ele>152.0</ele><time>2026-04-11T15:29:43Z</time></trkpt><trkpt lat="44.69493457165668" lon="10.1092765187093"><ele>152.0</ele><time>2026-04-11T15:29:44Z</time></trkpt><trkpt lat="44.695007232180814" lon="10.109404510194127"><ele>152.0</ele><time>2026-04-11T15:29:45Z</time></trkpt><trkpt lat="44.69506905942676" lon="10.109523624163222"><ele>152.0</ele><time>2026-04-11T15:29:46Z</time></trkpt><trkpt lat="44.69512775982837" lon="10.109631695217507"><ele>152.0</ele><time>2026-04-11T15:29:47Z</time></trkpt><trkpt lat="44.695186691471896" lon="10.109739595940507"><ele>152.0</ele><time>2026-04-11T15:29:48Z</time></trkpt><trkpt lat="44.6952326922217" lon="10.109835555924262"><ele>152.0</ele><time>2026-04-11T15:29:49Z</time></trkpt><trkpt lat="44.695266636658516" lon="10.109921145871276"><ele>152.0</ele><time>2026-04-11T15:29:50Z</time></trkpt><trkpt lat="44.69530195123544" lon="10.110000221631312"><ele>152.0</ele><time>2026-04-11T15:29:51Z</time></trkpt><trkpt lat="44.69534556678916" lon="10.110088284501636"><ele>152.0</ele><time>2026-04-11T15:29:52Z</time></trkpt><trkpt lat="44.69539757683442" lon="10.110195314504011"><ele>152.0</ele><time>2026-04-11T15:29:53Z</time></trkpt><trkpt lat="44.69544878261992" lon="10.110306827603289"><ele>151.75</ele><time>2026-04-11T15:29:54Z</time></trkpt><trkpt lat="44.69549465386442" lon="10.110449692001344"><ele>151.5</ele><time>2026-04-11T15:29:55Z</time></trkpt><trkpt lat="44.69556415106251" lon="10.110608208861782"><ele>151.25</ele><time>2026-04-11T15:29:56Z</time></trkpt><trkpt lat="44.69564176965518" lon="10.110784326351238"><ele>151.0</ele><time>2026-04-11T15:29:57Z</time></trkpt><trkpt lat="44.69574409276459" lon="10.11095970151487"><ele>151.0</ele><time>2026-04-11T15:29:58Z</time></trkpt><trkpt lat="44.69582894885191" lon="10.111163373204727"><ele>151.0</ele><time>2026-04-11T15:29:59Z</time></trkpt><trkpt lat="44.695951778332926" lon="10.111399530144707"><ele>151.0</ele><time>2026-04-11T15:30:00Z</time></trkpt><trkpt lat="44.69607553600962" lon="10.111637458884276"><ele>146.66666666666669</ele><time>2026-04-11T15:30:01Z</time></trkpt><trkpt lat="44.69619883200092" lon="10.111874616608953"><ele>142.33333333333334</ele><time>2026-04-11T15:30:02Z</time></trkpt><trkpt lat="44.69627592970517" lon="10.11202529102259"><ele>138.0</ele><time>2026-04-11T15:30:03Z</time></trkpt><trkpt lat="44.69638604108985" lon="10.112244165860455"><ele>141.33333333333334</ele><time>2026-04-11T15:30:04Z</time></trkpt><trkpt lat="44.69651383260402" lon="10.112435333214608"><ele>144.66666666666669</ele><time>2026-04-11T15:30:05Z</time></trkpt><trkpt lat="44.69665603796977" lon="10.112597292632287"><ele>148.0</ele><time>2026-04-11T15:30:06Z</time></trkpt><trkpt lat="44.69681499279798" lon="10.112730439769164"><ele>146.66666666666669</ele><time>2026-04-11T15:30:07Z</time></trkpt><trkpt lat="44.69698822253391" lon="10.112821921425716"><ele>145.33333333333334</ele><time>2026-04-11T15:30:08Z</time></trkpt><trkpt lat="44.69717185412059" lon="10.112870619979265"><ele>144.0</ele><time>2026-04-11T15:30:09Z</time></trkpt><trkpt lat="44.69735788609679" lon="10.112891130381156"><ele>144.0</ele><time>2026-04-11T15:30:10Z</time></trkpt><trkpt lat="44.697547890914755" lon="10.11291162648485"><ele>144.0</ele><time>2026-04-11T15:30:11Z</time></trkpt><trkpt lat="44.69773886782899" lon="10.112938825294176"><ele>144.0</ele><time>2026-04-11T15:30:12Z</time></trkpt><trkpt lat="44.697933618639" lon="10.112953600355096"><ele>142.66666666666666</ele><time>2026-04-11T15:30:13Z</time></trkpt><trkpt lat="44.69812291894699" lon="10.112982084310618"><ele>141.33333333333331</ele><time>2026-04-11T15:30:14Z</time></trkpt><trkpt lat="44.698301758900364" lon="10.113020045931552"><ele>140.0</ele><time>2026-04-11T15:30:15Z</time></trkpt><trkpt lat="44.69847230647018" lon="10.113053188772405"><ele>139.0</ele><time>2026-04-11T15:30:16Z</time></trkpt><trkpt lat="44.69863915606907" lon="10.113082617819359"><ele>138.0</ele><time>2026-04-11T15:30:17Z</time></trkpt><trkpt lat="44.69881360375197" lon="10.11310699103228"><ele>137.0</ele><time>2026-04-11T15:30:18Z</time></trkpt><trkpt lat="44.698992646555574" lon="10.113131466751367"><ele>137.0</ele><time>2026-04-11T15:30:19Z</time></trkpt><trkpt lat="44.69917965217424" lon="10.113170693869412"><ele>137.0</ele><time>2026-04-11T15:30:20Z</time></trkpt><trkpt lat="44.69935583454565" lon="10.113211651241558"><ele>137.0</ele><time>2026-04-11T15:30:21Z</time></trkpt><trkpt lat="44.69952617406783" lon="10.113269509789514"><ele>138.33333333333331</ele><time>2026-04-11T15:30:22Z</time></trkpt><trkpt lat="44.69968661680321" lon="10.113369072673313"><ele>139.66666666666666</ele><time>2026-04-11T15:30:23Z</time></trkpt><trkpt lat="44.69983109727372" lon="10.113491904658492"><ele>141.0</ele><time>2026-04-11T15:30:24Z</time></trkpt><trkpt lat="44.699969067733946" lon="10.11363421739998"><ele>141.0</ele><time>2026-04-11T15:30:25Z</time></trkpt><trkpt lat="44.700081925542406" lon="10.113818254767688"><ele>141.0</ele><time>2026-04-11T15:30:26Z</time></trkpt><trkpt lat="44.70017851491076" lon="10.11401553425011"><ele>141.0</ele><time>2026-04-11T15:30:27Z</time></trkpt><trkpt lat="44.70025635408985" lon="10.114219075550544"><ele>140.33333333333334</ele><time>2026-04-11T15:30:28Z</time></trkpt><trkpt lat="44.70032208303708" lon="10.114423476178603"><ele>139.66666666666669</ele><time>2026-04-11T15:30:29Z</time></trkpt><trkpt lat="44.70037865552978" lon="10.11464735955977"><ele>139.0</ele><time>2026-04-11T15:30:30Z</time></trkpt><trkpt lat="44.70043267159756" lon="10.11487574950115"><ele>140.0</ele><time>2026-04-11T15:30:31Z</time></trkpt><trkpt lat="44.70049192198251" lon="10.115095478128556"><ele>141.0</ele><time>2026-04-11T15:30:32Z</time></trkpt><trkpt lat="44.70054654032852" lon="10.115311236940075"><ele>142.0</ele><time>2026-04-11T15:30:33Z</time></trkpt><trkpt lat="44.70058686704047" lon="10.115530110876367"><ele>142.66666666666669</ele><time>2026-04-11T15:30:34Z</time></trkpt><trkpt lat="44.70061398969922" lon="10.115755659645158"><ele>143.33333333333334</ele><time>2026-04-11T15:30:35Z</time></trkpt><trkpt lat="44.70063148430409" lon="10.115980744510516"><ele>144.0</ele><time>2026-04-11T15:30:36Z</time></trkpt><trkpt lat="44.70064948801287" lon="10.116195521119172"><ele>144.0</ele><time>2026-04-11T15:30:37Z</time></trkpt><trkpt lat="44.700677138324004" lon="10.116411245685192"><ele>144.0</ele><time>2026-04-11T15:30:38Z</time></trkpt><trkpt lat="44.7007150707339" lon="10.116643171829585"><ele>144.0</ele><time>2026-04-11T15:30:39Z</time></trkpt><trkpt lat="44.700760956630255" lon="10.116870316250846"><ele>144.66666666666666</ele><time>2026-04-11T15:30:40Z</time></trkpt><trkpt lat="44.70081698133775" lon="10.117104850913968"><ele>145.33333333333331</ele><time>2026-04-11T15:30:41Z</time></trkpt><trkpt lat="44.700871461219904" lon="10.117337760248688"><ele>146.0</ele><time>2026-04-11T15:30:41.999Z</time></trkpt><trkpt lat="44.70092348777245" lon="10.117572311728557"><ele>146.33333333333331</ele><time>2026-04-11T15:30:42.999Z</time></trkpt><trkpt lat="44.70096544067386" lon="10.117808182070787"><ele>146.66666666666666</ele><time>2026-04-11T15:30:43.999Z</time></trkpt><trkpt lat="44.700972820028156" lon="10.11806088700571"><ele>147.0</ele><time>2026-04-11T15:30:44.999Z</time></trkpt><trkpt lat="44.70100575195422" lon="10.118289858556796"><ele>148.0</ele><time>2026-04-11T15:30:45.999Z</time></trkpt><trkpt lat="44.70101979895868" lon="10.118522842345211"><ele>149.0</ele><time>2026-04-11T15:30:46.999Z</time></trkpt><trkpt lat="44.70102894457613" lon="10.11874257488717"><ele>150.0</ele><time>2026-04-11T15:30:47.999Z</time></trkpt><trkpt lat="44.70104297974288" lon="10.118961850567565"><ele>149.33333333333334</ele><time>2026-04-11T15:30:48.999Z</time></trkpt><trkpt lat="44.70105374517688" lon="10.119179985356274"><ele>148.66666666666669</ele><time>2026-04-11T15:30:49.999Z</time></trkpt><trkpt lat="44.70106529912704" lon="10.119401618623613"><ele>148.0</ele><time>2026-04-11T15:30:50.999Z</time></trkpt><trkpt lat="44.70106245434296" lon="10.1196114196376"><ele>148.0</ele><time>2026-04-11T15:30:51.999Z</time></trkpt><trkpt lat="44.70102362884906" lon="10.119823106560975"><ele>148.0</ele><time>2026-04-11T15:30:52.999Z</time></trkpt><trkpt lat="44.700977441567886" lon="10.120038842825453"><ele>148.0</ele><time>2026-04-11T15:30:53.999Z</time></trkpt><trkpt lat="44.700935100614956" lon="10.120241166396262"><ele>147.25</ele><time>2026-04-11T15:30:54.999Z</time></trkpt><trkpt lat="44.70089108596429" lon="10.12042909972584"><ele>146.5</ele><time>2026-04-11T15:30:55.999Z</time></trkpt><trkpt lat="44.70085621051069" lon="10.120623964437957"><ele>145.75</ele><time>2026-04-11T15:30:56.999Z</time></trkpt><trkpt lat="44.700827094381054" lon="10.120832135083004"><ele>145.0</ele><time>2026-04-11T15:30:57.999Z</time></trkpt><trkpt lat="44.7008119107768" lon="10.121051172651953"><ele>143.0</ele><time>2026-04-11T15:30:58.999Z</time></trkpt><trkpt lat="44.700811619633704" lon="10.121271957717456"><ele>141.0</ele><time>2026-04-11T15:30:59.999Z</time></trkpt><trkpt lat="44.70082316619129" lon="10.12148752433993"><ele>139.0</ele><time>2026-04-11T15:31:00.999Z</time></trkpt><trkpt lat="44.70085530398552" lon="10.121721403889607"><ele>139.33333333333334</ele><time>2026-04-11T15:31:01.999Z</time></trkpt><trkpt lat="44.700894983183325" lon="10.121954897477321"><ele>139.66666666666666</ele><time>2026-04-11T15:31:02.999Z</time></trkpt><trkpt lat="44.70094284593446" lon="10.122180789996735"><ele>140.0</ele><time>2026-04-11T15:31:03.999Z</time></trkpt><trkpt lat="44.700994192813916" lon="10.122402596059274"><ele>140.0</ele><time>2026-04-11T15:31:04.999Z</time></trkpt><trkpt lat="44.7010489566392" lon="10.122608216466194"><ele>140.0</ele><time>2026-04-11T15:31:05.999Z</time></trkpt><trkpt lat="44.70110616007345" lon="10.12279886370878"><ele>140.0</ele><time>2026-04-11T15:31:06.999Z</time></trkpt><trkpt lat="44.70116980654344" lon="10.122972673271548"><ele>140.0</ele><time>2026-04-11T15:31:07.999Z</time></trkpt><trkpt lat="44.70122945767043" lon="10.12314064069375"><ele>141.5</ele><time>2026-04-11T15:31:08.999Z</time></trkpt><trkpt lat="44.70128792747959" lon="10.123311083756414"><ele>143.0</ele><time>2026-04-11T15:31:09.999Z</time></trkpt><trkpt lat="44.70134944627122" lon="10.123479461168785"><ele>144.5</ele><time>2026-04-11T15:31:10.999Z</time></trkpt><trkpt lat="44.70141381798939" lon="10.123649551192853"><ele>146.0</ele><time>2026-04-11T15:31:11.999Z</time></trkpt><trkpt lat="44.70147676604206" lon="10.123811592181587"><ele>146.0</ele><time>2026-04-11T15:31:12.999Z</time></trkpt><trkpt lat="44.701535732982535" lon="10.123961884299547"><ele>146.0</ele><time>2026-04-11T15:31:13.999Z</time></trkpt><trkpt lat="44.701598368220644" lon="10.12409120851669"><ele>146.0</ele><time>2026-04-11T15:31:14.999Z</time></trkpt><trkpt lat="44.70165621899316" lon="10.124219324634392"><ele>146.0</ele><time>2026-04-11T15:31:15.999Z</time></trkpt><trkpt lat="44.701716124933924" lon="10.124348369031487"><ele>146.0</ele><time>2026-04-11T15:31:16.999Z</time></trkpt><trkpt lat="44.70178091286769" lon="10.124485985259168"><ele>146.0</ele><time>2026-04-11T15:31:17.999Z</time></trkpt><trkpt lat="44.70185122511463" lon="10.124639384212568"><ele>146.0</ele><time>2026-04-11T15:31:18.999Z</time></trkpt><trkpt lat="44.701927617665234" lon="10.124801218935254"><ele>146.0</ele><time>2026-04-11T15:31:19.999Z</time></trkpt><trkpt lat="44.70200448120259" lon="10.124969188997833"><ele>145.25</ele><time>2026-04-11T15:31:20.999Z</time></trkpt><trkpt lat="44.70208188847305" lon="10.125140253212157"><ele>144.5</ele><time>2026-04-11T15:31:21.999Z</time></trkpt><trkpt lat="44.702158501061284" lon="10.125312321100154"><ele>143.75</ele><time>2026-04-11T15:31:22.999Z</time></trkpt><trkpt lat="44.7022323957606" lon="10.125472241238093"><ele>143.0</ele><time>2026-04-11T15:31:23.999Z</time></trkpt><trkpt lat="44.70230082506231" lon="10.125623991406595"><ele>143.4</ele><time>2026-04-11T15:31:24.999Z</time></trkpt><trkpt lat="44.702363885665555" lon="10.125764028435986"><ele>143.8</ele><time>2026-04-11T15:31:25.999Z</time></trkpt><trkpt lat="44.70242525915656" lon="10.125900165674164"><ele>144.2</ele><time>2026-04-11T15:31:26.999Z</time></trkpt><trkpt lat="44.70248611475449" lon="10.126031002164837"><ele>144.6</ele><time>2026-04-11T15:31:27.999Z</time></trkpt><trkpt lat="44.70254363119683" lon="10.126147491621131"><ele>145.0</ele><time>2026-04-11T15:31:28.999Z</time></trkpt><trkpt lat="44.70258621362895" lon="10.126243429040539"><ele>145.0</ele><time>2026-04-11T15:31:29.999Z</time></trkpt><trkpt lat="44.70263231603531" lon="10.126372970473884"><ele>145.0</ele><time>2026-04-11T15:31:31.999Z</time></trkpt><trkpt lat="44.70263821275949" lon="10.126528710049941"><ele>145.0</ele><time>2026-04-11T15:31:33.999Z</time></trkpt><trkpt lat="44.70265098745312" lon="10.126619917188211"><ele>145.0</ele><time>2026-04-11T15:31:34.999Z</time></trkpt><trkpt lat="44.702686275473994" lon="10.126697731270468"><ele>145.0</ele><time>2026-04-11T15:31:36Z</time></trkpt><trkpt lat="44.702729900303616" lon="10.126768606957702"><ele>145.0</ele><time>2026-04-11T15:31:37Z</time></trkpt><trkpt lat="44.70279669764807" lon="10.126823865932538"><ele>144.6</ele><time>2026-04-11T15:31:38Z</time></trkpt><trkpt lat="44.70286654874927" lon="10.126902117831156"><ele>144.2</ele><time>2026-04-11T15:31:39Z</time></trkpt><trkpt lat="44.70293067453838" lon="10.127018564384235"><ele>143.8</ele><time>2026-04-11T15:31:40Z</time></trkpt><trkpt lat="44.70298962339147" lon="10.127159176049862"><ele>143.4</ele><time>2026-04-11T15:31:41Z</time></trkpt><trkpt lat="44.70306740728977" lon="10.127320153900135"><ele>143.0</ele><time>2026-04-11T15:31:42Z</time></trkpt><trkpt lat="44.70316788445484" lon="10.127510374719035"><ele>143.0</ele><time>2026-04-11T15:31:43Z</time></trkpt><trkpt lat="44.70328745001847" lon="10.127749611479077"><ele>143.0</ele><time>2026-04-11T15:31:44Z</time></trkpt><trkpt lat="44.703409212179054" lon="10.12803700003677"><ele>143.0</ele><time>2026-04-11T15:31:45Z</time></trkpt><trkpt lat="44.703505243439075" lon="10.128262002168325"><ele>141.5</ele><time>2026-04-11T15:31:46Z</time></trkpt><trkpt lat="44.70361856749197" lon="10.1285348419295"><ele>140.0</ele><time>2026-04-11T15:31:47Z</time></trkpt><trkpt lat="44.70374517391931" lon="10.128834220640597"><ele>140.0</ele><time>2026-04-11T15:31:48Z</time></trkpt><trkpt lat="44.70386847914472" lon="10.129097474107438"><ele>140.0</ele><time>2026-04-11T15:31:49Z</time></trkpt><trkpt lat="44.70399126857204" lon="10.129355587394224"><ele>140.0</ele><time>2026-04-11T15:31:50Z</time></trkpt><trkpt lat="44.704111187626026" lon="10.129616932767034"><ele>140.0</ele><time>2026-04-11T15:31:51Z</time></trkpt><trkpt lat="44.70422649660889" lon="10.129861536279108"><ele>140.0</ele><time>2026-04-11T15:31:52Z</time></trkpt><trkpt lat="44.704346109313036" lon="10.130110042699505"><ele>140.0</ele><time>2026-04-11T15:31:53Z</time></trkpt><trkpt lat="44.70447800903558" lon="10.130407512244908"><ele>139.0</ele><time>2026-04-11T15:31:54Z</time></trkpt><trkpt lat="44.70463940040846" lon="10.13073662557266"><ele>138.0</ele><time>2026-04-11T15:31:55Z</time></trkpt><trkpt lat="44.70479851201076" lon="10.131059804772221"><ele>138.0</ele><time>2026-04-11T15:31:56Z</time></trkpt><trkpt lat="44.70492239495324" lon="10.131306317919691"><ele>138.0</ele><time>2026-04-11T15:31:57Z</time></trkpt><trkpt lat="44.70502939945996" lon="10.13155799565362"><ele>138.0</ele><time>2026-04-11T15:31:58Z</time></trkpt><trkpt lat="44.70526132486976" lon="10.132002613237777"><ele>139.0</ele><time>2026-04-11T15:31:59Z</time></trkpt><trkpt lat="44.7054199120696" lon="10.132319534784918"><ele>140.0</ele><time>2026-04-11T15:32:00Z</time></trkpt><trkpt lat="44.70557921899302" lon="10.132639072998506"><ele>141.0</ele><time>2026-04-11T15:32:01Z</time></trkpt><trkpt lat="44.705736661622645" lon="10.132956078318655"><ele>142.0</ele><time>2026-04-11T15:32:02Z</time></trkpt><trkpt lat="44.70589125247097" lon="10.133271931082001"><ele>142.0</ele><time>2026-04-11T15:32:03Z</time></trkpt><trkpt lat="44.706046367732476" lon="10.133580732087193"><ele>142.0</ele><time>2026-04-11T15:32:04Z</time></trkpt><trkpt lat="44.70620109321706" lon="10.133874850892465"><ele>142.5</ele><time>2026-04-11T15:32:05Z</time></trkpt><trkpt lat="44.70635207986349" lon="10.134151689588975"><ele>143.0</ele><time>2026-04-11T15:32:06Z</time></trkpt><trkpt lat="44.70649243402913" lon="10.134406732009605"><ele>143.0</ele><time>2026-04-11T15:32:07Z</time></trkpt><trkpt lat="44.706626658573114" lon="10.134646776530108"><ele>143.0</ele><time>2026-04-11T15:32:08Z</time></trkpt><trkpt lat="44.706754266775015" lon="10.134885084022144"><ele>143.0</ele><time>2026-04-11T15:32:09Z</time></trkpt><trkpt lat="44.706883678922544" lon="10.135127716715479"><ele>140.66666666666666</ele><time>2026-04-11T15:32:10Z</time></trkpt><trkpt lat="44.70700867547334" lon="10.135360315159907"><ele>138.33333333333334</ele><time>2026-04-11T15:32:11Z</time></trkpt><trkpt lat="44.707134367649246" lon="10.135593080991343"><ele>136.0</ele><time>2026-04-11T15:32:12Z</time></trkpt><trkpt lat="44.70725895148494" lon="10.135822649872475"><ele>136.0</ele><time>2026-04-11T15:32:13Z</time></trkpt><trkpt lat="44.707381199888346" lon="10.13604669901515"><ele>136.0</ele><time>2026-04-11T15:32:14Z</time></trkpt><trkpt lat="44.70750091808536" lon="10.13627244718085"><ele>136.0</ele><time>2026-04-11T15:32:15Z</time></trkpt><trkpt lat="44.70762112053468" lon="10.136498824295304"><ele>136.66666666666669</ele><time>2026-04-11T15:32:16Z</time></trkpt><trkpt lat="44.70774339667478" lon="10.136725603708959"><ele>137.33333333333334</ele><time>2026-04-11T15:32:17Z</time></trkpt><trkpt lat="44.7078678539536" lon="10.136953151828394"><ele>138.0</ele><time>2026-04-11T15:32:18Z</time></trkpt><trkpt lat="44.707992257638644" lon="10.137181431680293"><ele>138.33333333333334</ele><time>2026-04-11T15:32:19Z</time></trkpt><trkpt lat="44.70811253292351" lon="10.137412223149875"><ele>138.66666666666669</ele><time>2026-04-11T15:32:20Z</time></trkpt><trkpt lat="44.70822778993647" lon="10.137622160781824"><ele>139.0</ele><time>2026-04-11T15:32:21Z</time></trkpt><trkpt lat="44.70833007023365" lon="10.137810460128174"><ele>139.0</ele><time>2026-04-11T15:32:22Z</time></trkpt><trkpt lat="44.70842778062522" lon="10.138000058179927"><ele>139.0</ele><time>2026-04-11T15:32:23Z</time></trkpt><trkpt lat="44.708523012460965" lon="10.138186272215"><ele>139.0</ele><time>2026-04-11T15:32:24Z</time></trkpt><trkpt lat="44.708613968270924" lon="10.138356757518801"><ele>138.33333333333334</ele><time>2026-04-11T15:32:25Z</time></trkpt><trkpt lat="44.70870912498522" lon="10.138535435973417"><ele>137.66666666666666</ele><time>2026-04-11T15:32:26Z</time></trkpt><trkpt lat="44.70880844643038" lon="10.13872830102864"><ele>137.0</ele><time>2026-04-11T15:32:27Z</time></trkpt><trkpt lat="44.70891417062207" lon="10.138926456436767"><ele>137.66666666666666</ele><time>2026-04-11T15:32:28Z</time></trkpt><trkpt lat="44.70902454812161" lon="10.139126584384739"><ele>138.33333333333334</ele><time>2026-04-11T15:32:29Z</time></trkpt><trkpt lat="44.709136138120684" lon="10.139339074875316"><ele>139.0</ele><time>2026-04-11T15:32:30Z</time></trkpt><trkpt lat="44.709250184862974" lon="10.139544518742568"><ele>139.0</ele><time>2026-04-11T15:32:31Z</time></trkpt><trkpt lat="44.70937271651225" lon="10.139722662802427"><ele>139.0</ele><time>2026-04-11T15:32:32Z</time></trkpt><trkpt lat="44.70950105673667" lon="10.139886532787747"><ele>139.0</ele><time>2026-04-11T15:32:33Z</time></trkpt><trkpt lat="44.70963600992995" lon="10.140030926390553"><ele>137.66666666666669</ele><time>2026-04-11T15:32:34Z</time></trkpt><trkpt lat="44.70976840120692" lon="10.140170396904653"><ele>136.33333333333334</ele><time>2026-04-11T15:32:35Z</time></trkpt><trkpt lat="44.70989165942622" lon="10.140305514739646"><ele>135.0</ele><time>2026-04-11T15:32:36Z</time></trkpt><trkpt lat="44.71001385557452" lon="10.140436258432178"><ele>135.0</ele><time>2026-04-11T15:32:37Z</time></trkpt><trkpt lat="44.7101293374103" lon="10.140566161977764"><ele>135.0</ele><time>2026-04-11T15:32:38Z</time></trkpt><trkpt lat="44.710245065897254" lon="10.140694293879987"><ele>135.0</ele><time>2026-04-11T15:32:39Z</time></trkpt><trkpt lat="44.71035944405852" lon="10.140827278634761"><ele>135.0</ele><time>2026-04-11T15:32:40Z</time></trkpt><trkpt lat="44.71047809565247" lon="10.14097565990308"><ele>134.0</ele><time>2026-04-11T15:32:41Z</time></trkpt><trkpt lat="44.71058759343776" lon="10.141141635676211"><ele>133.0</ele><time>2026-04-11T15:32:42Z</time></trkpt><trkpt lat="44.710688956187546" lon="10.141313001659325"><ele>132.0</ele><time>2026-04-11T15:32:43Z</time></trkpt><trkpt lat="44.710787239865496" lon="10.14148286751783"><ele>132.25</ele><time>2026-04-11T15:32:44Z</time></trkpt><trkpt lat="44.7108832061803" lon="10.14164583569094"><ele>132.5</ele><time>2026-04-11T15:32:45Z</time></trkpt><trkpt lat="44.710980810302736" lon="10.141807290907794"><ele>132.75</ele><time>2026-04-11T15:32:46Z</time></trkpt><trkpt lat="44.71106962628348" lon="10.141968882129895"><ele>133.0</ele><time>2026-04-11T15:32:46.999Z</time></trkpt><trkpt lat="44.71116600281864" lon="10.142113214242213"><ele>133.0</ele><time>2026-04-11T15:32:47.999Z</time></trkpt><trkpt lat="44.71127166965852" lon="10.142246772730093"><ele>133.0</ele><time>2026-04-11T15:32:48.999Z</time></trkpt><trkpt lat="44.711387659113676" lon="10.142365955724404"><ele>133.0</ele><time>2026-04-11T15:32:49.999Z</time></trkpt><trkpt lat="44.71150592615162" lon="10.142484604838849"><ele>133.0</ele><time>2026-04-11T15:32:50.999Z</time></trkpt><trkpt lat="44.711634361930884" lon="10.142613756973471"><ele>132.66666666666669</ele><time>2026-04-11T15:32:51.999Z</time></trkpt><trkpt lat="44.71176180530031" lon="10.142742653714102"><ele>132.33333333333334</ele><time>2026-04-11T15:32:52.999Z</time></trkpt><trkpt lat="44.71188564642735" lon="10.142865350473333"><ele>132.0</ele><time>2026-04-11T15:32:53.999Z</time></trkpt><trkpt lat="44.71199911336415" lon="10.142988474298457"><ele>132.0</ele><time>2026-04-11T15:32:54.999Z</time></trkpt><trkpt lat="44.71211372770364" lon="10.143121143335428"><ele>132.0</ele><time>2026-04-11T15:32:55.999Z</time></trkpt><trkpt lat="44.712230331830526" lon="10.143256473998811"><ele>132.0</ele><time>2026-04-11T15:32:56.999Z</time></trkpt><trkpt lat="44.71234695457083" lon="10.14338607950009"><ele>132.0</ele><time>2026-04-11T15:32:57.999Z</time></trkpt><trkpt lat="44.71246398665176" lon="10.143519812805112"><ele>132.66666666666666</ele><time>2026-04-11T15:32:58.999Z</time></trkpt><trkpt lat="44.71258275016118" lon="10.143658971212336"><ele>133.33333333333331</ele><time>2026-04-11T15:32:59.999Z</time></trkpt><trkpt lat="44.712694989814096" lon="10.143820636613414"><ele>134.0</ele><time>2026-04-11T15:33:00.999Z</time></trkpt><trkpt lat="44.712784516772494" lon="10.14401600819256"><ele>132.66666666666666</ele><time>2026-04-11T15:33:01.999Z</time></trkpt><trkpt lat="44.71286318073383" lon="10.144237823556699"><ele>131.33333333333334</ele><time>2026-04-11T15:33:02.999Z</time></trkpt><trkpt lat="44.712947650304606" lon="10.144452384716882"><ele>130.0</ele><time>2026-04-11T15:33:03.999Z</time></trkpt><trkpt lat="44.71304027892797" lon="10.144655278154616"><ele>130.0</ele><time>2026-04-11T15:33:04.999Z</time></trkpt><trkpt lat="44.71312844723586" lon="10.144844555385493"><ele>130.0</ele><time>2026-04-11T15:33:05.999Z</time></trkpt><trkpt lat="44.71321127139504" lon="10.145037188933134"><ele>130.0</ele><time>2026-04-11T15:33:06.999Z</time></trkpt><trkpt lat="44.713298246995976" lon="10.14523061901474"><ele>130.33333333333334</ele><time>2026-04-11T15:33:07.999Z</time></trkpt><trkpt lat="44.71338248981786" lon="10.145432350562103"><ele>130.66666666666666</ele><time>2026-04-11T15:33:08.999Z</time></trkpt><trkpt lat="44.71347068110959" lon="10.145628468269475"><ele>131.0</ele><time>2026-04-11T15:33:09.999Z</time></trkpt><trkpt lat="44.71356062383866" lon="10.145825435612208"><ele>129.66666666666666</ele><time>2026-04-11T15:33:10.999Z</time></trkpt><trkpt lat="44.713648488158384" lon="10.146016464347014"><ele>128.33333333333334</ele><time>2026-04-11T15:33:11.999Z</time></trkpt><trkpt lat="44.71373156690173" lon="10.146198111708506"><ele>127.0</ele><time>2026-04-11T15:33:12.999Z</time></trkpt><trkpt lat="44.71381175382343" lon="10.146372557105702"><ele>128.33333333333334</ele><time>2026-04-11T15:33:13.999Z</time></trkpt><trkpt lat="44.7138977217379" lon="10.146546407801146"><ele>129.66666666666666</ele><time>2026-04-11T15:33:14.999Z</time></trkpt><trkpt lat="44.71398605459982" lon="10.146727235127038"><ele>131.0</ele><time>2026-04-11T15:33:15.999Z</time></trkpt><trkpt lat="44.714072556247174" lon="10.146909367406801"><ele>131.0</ele><time>2026-04-11T15:33:16.999Z</time></trkpt><trkpt lat="44.71416634714836" lon="10.147098911051998"><ele>131.0</ele><time>2026-04-11T15:33:17.999Z</time></trkpt><trkpt lat="44.71425643654819" lon="10.147291481459767"><ele>131.0</ele><time>2026-04-11T15:33:18.999Z</time></trkpt><trkpt lat="44.71435177574978" lon="10.147476606533992"><ele>129.33333333333331</ele><time>2026-04-11T15:33:19.999Z</time></trkpt><trkpt lat="44.71445756422248" lon="10.147685659529852"><ele>127.66666666666666</ele><time>2026-04-11T15:33:20.999Z</time></trkpt><trkpt lat="44.714555207884004" lon="10.147883336657365"><ele>126.0</ele><time>2026-04-11T15:33:21.999Z</time></trkpt><trkpt lat="44.71464738860791" lon="10.14809670402701"><ele>126.33333333333334</ele><time>2026-04-11T15:33:22.999Z</time></trkpt><trkpt lat="44.7147317542721" lon="10.148319177772898"><ele>126.66666666666667</ele><time>2026-04-11T15:33:23.999Z</time></trkpt><trkpt lat="44.714804532175684" lon="10.148544997854792"><ele>127.0</ele><time>2026-04-11T15:33:24.999Z</time></trkpt><trkpt lat="44.71487664479478" lon="10.148788793963183"><ele>127.0</ele><time>2026-04-11T15:33:25.999Z</time></trkpt><trkpt lat="44.71493667970821" lon="10.149029248885496"><ele>127.0</ele><time>2026-04-11T15:33:26.999Z</time></trkpt><trkpt lat="44.71499998710062" lon="10.14927371885766"><ele>127.0</ele><time>2026-04-11T15:33:27.999Z</time></trkpt><trkpt lat="44.71507253694871" lon="10.149513991997463"><ele>127.0</ele><time>2026-04-11T15:33:28.999Z</time></trkpt><trkpt lat="44.7151357452427" lon="10.149762109158823"><ele>127.0</ele><time>2026-04-11T15:33:29.999Z</time></trkpt><trkpt lat="44.715193413820515" lon="10.150007446616284"><ele>127.0</ele><time>2026-04-11T15:33:30.999Z</time></trkpt><trkpt lat="44.71526107948966" lon="10.150252416189726"><ele>127.0</ele><time>2026-04-11T15:33:31.999Z</time></trkpt><trkpt lat="44.71533867404507" lon="10.150490683982648"><ele>127.0</ele><time>2026-04-11T15:33:32.999Z</time></trkpt><trkpt lat="44.71543386042902" lon="10.150714264298255"><ele>127.0</ele><time>2026-04-11T15:33:33.999Z</time></trkpt><trkpt lat="44.71554424280365" lon="10.150930002144442"><ele>127.66666666666667</ele><time>2026-04-11T15:33:34.999Z</time></trkpt><trkpt lat="44.715659037474204" lon="10.151143825624219"><ele>128.33333333333334</ele><time>2026-04-11T15:33:35.999Z</time></trkpt><trkpt lat="44.71576994521575" lon="10.151358456625415"><ele>129.0</ele><time>2026-04-11T15:33:36.999Z</time></trkpt><trkpt lat="44.71588051663495" lon="10.15157319007868"><ele>129.66666666666666</ele><time>2026-04-11T15:33:37.999Z</time></trkpt><trkpt lat="44.71599602269286" lon="10.151785998885371"><ele>130.33333333333331</ele><time>2026-04-11T15:33:38.999Z</time></trkpt><trkpt lat="44.71610667825365" lon="10.152002014396889"><ele>131.0</ele><time>2026-04-11T15:33:39.999Z</time></trkpt><trkpt lat="44.716215483516244" lon="10.152218266561638"><ele>131.66666666666666</ele><time>2026-04-11T15:33:40.999Z</time></trkpt><trkpt lat="44.716322727945624" lon="10.152428606720672"><ele>132.33333333333334</ele><time>2026-04-11T15:33:42Z</time></trkpt><trkpt lat="44.7164302634367" lon="10.15263087622956"><ele>133.0</ele><time>2026-04-11T15:33:43Z</time></trkpt><trkpt lat="44.71653861554467" lon="10.152833370468551"><ele>133.0</ele><time>2026-04-11T15:33:44Z</time></trkpt><trkpt lat="44.71664196134042" lon="10.153035111130993"><ele>133.0</ele><time>2026-04-11T15:33:45Z</time></trkpt><trkpt lat="44.71674539018815" lon="10.153243838026473"><ele>133.0</ele><time>2026-04-11T15:33:46Z</time></trkpt><trkpt lat="44.716841062786735" lon="10.153450638351838"><ele>131.66666666666669</ele><time>2026-04-11T15:33:47Z</time></trkpt><trkpt lat="44.71693143936078" lon="10.153670050021942"><ele>130.33333333333334</ele><time>2026-04-11T15:33:48Z</time></trkpt><trkpt lat="44.717019300646584" lon="10.153896053600056"><ele>129.0</ele><time>2026-04-11T15:33:49Z</time></trkpt><trkpt lat="44.71711122926837" lon="10.154124980397137"><ele>129.0</ele><time>2026-04-11T15:33:50Z</time></trkpt><trkpt lat="44.71719377274772" lon="10.154360293896893"><ele>129.0</ele><time>2026-04-11T15:33:51Z</time></trkpt><trkpt lat="44.71727997536781" lon="10.154607351151943"><ele>129.0</ele><time>2026-04-11T15:33:52Z</time></trkpt><trkpt lat="44.71737253401861" lon="10.154868949829712"><ele>128.0</ele><time>2026-04-11T15:33:53Z</time></trkpt><trkpt lat="44.71748138401723" lon="10.15514721086129"><ele>127.0</ele><time>2026-04-11T15:33:54Z</time></trkpt><trkpt lat="44.71758749159848" lon="10.155443116745714"><ele>127.0</ele><time>2026-04-11T15:33:55Z</time></trkpt><trkpt lat="44.71770460527135" lon="10.15575535520162"><ele>127.0</ele><time>2026-04-11T15:33:56Z</time></trkpt><trkpt lat="44.71783078464607" lon="10.156091259925544"><ele>127.0</ele><time>2026-04-11T15:33:57Z</time></trkpt><trkpt lat="44.717941869952575" lon="10.156450633765502"><ele>127.0</ele><time>2026-04-11T15:33:58Z</time></trkpt><trkpt lat="44.71807156038358" lon="10.156807938531475"><ele>127.5</ele><time>2026-04-11T15:33:59Z</time></trkpt><trkpt lat="44.71820404063452" lon="10.15717292941838"><ele>128.0</ele><time>2026-04-11T15:34:00Z</time></trkpt><trkpt lat="44.71833846521109" lon="10.157542571011057"><ele>127.0</ele><time>2026-04-11T15:34:01Z</time></trkpt><trkpt lat="44.718471907010915" lon="10.157905784223026"><ele>126.0</ele><time>2026-04-11T15:34:02Z</time></trkpt><trkpt lat="44.71860979923137" lon="10.158281110967188"><ele>124.0</ele><time>2026-04-11T15:34:03Z</time></trkpt><trkpt lat="44.71874883818494" lon="10.158659558983599"><ele>122.0</ele><time>2026-04-11T15:34:04Z</time></trkpt><trkpt lat="44.71888795298461" lon="10.159038785469209"><ele>121.5</ele><time>2026-04-11T15:34:05Z</time></trkpt><trkpt lat="44.719024988590824" lon="10.159417054112922"><ele>121.0</ele><time>2026-04-11T15:34:06Z</time></trkpt><trkpt lat="44.71916016269952" lon="10.159799797434333"><ele>122.0</ele><time>2026-04-11T15:34:07Z</time></trkpt><trkpt lat="44.71929246652717" lon="10.160182022605113"><ele>123.0</ele><time>2026-04-11T15:34:08Z</time></trkpt><trkpt lat="44.71942405039723" lon="10.160566045437884"><ele>122.0</ele><time>2026-04-11T15:34:09Z</time></trkpt><trkpt lat="44.719554762757156" lon="10.160961820300646"><ele>121.0</ele><time>2026-04-11T15:34:10Z</time></trkpt><trkpt lat="44.71968478959461" lon="10.16135512767426"><ele>122.0</ele><time>2026-04-11T15:34:11Z</time></trkpt><trkpt lat="44.71981489720405" lon="10.161748679356643"><ele>123.0</ele><time>2026-04-11T15:34:12Z</time></trkpt><trkpt lat="44.71994734707692" lon="10.162149315958189"><ele>123.5</ele><time>2026-04-11T15:34:13Z</time></trkpt><trkpt lat="44.72007449566728" lon="10.162534232938489"><ele>124.0</ele><time>2026-04-11T15:34:14Z</time></trkpt><trkpt lat="44.72021331979773" lon="10.162906077429435"><ele>122.5</ele><time>2026-04-11T15:34:15Z</time></trkpt><trkpt lat="44.72032168122358" lon="10.163255154135564"><ele>121.0</ele><time>2026-04-11T15:34:16Z</time></trkpt><trkpt lat="44.72042553529662" lon="10.163586613274614"><ele>121.0</ele><time>2026-04-11T15:34:17Z</time></trkpt><trkpt lat="44.72053342237903" lon="10.163922724156969"><ele>121.0</ele><time>2026-04-11T15:34:18Z</time></trkpt><trkpt lat="44.720649909804095" lon="10.164273648768793"><ele>120.5</ele><time>2026-04-11T15:34:19Z</time></trkpt><trkpt lat="44.72076311390655" lon="10.164635584121386"><ele>120.0</ele><time>2026-04-11T15:34:20Z</time></trkpt><trkpt lat="44.720875306411436" lon="10.165000052679"><ele>119.5</ele><time>2026-04-11T15:34:21Z</time></trkpt><trkpt lat="44.72098004941175" lon="10.165346197730653"><ele>119.0</ele><time>2026-04-11T15:34:22Z</time></trkpt><trkpt lat="44.721076987084864" lon="10.165674660800978"><ele>118.5</ele><time>2026-04-11T15:34:23Z</time></trkpt><trkpt lat="44.721166337216516" lon="10.165983609668713"><ele>118.0</ele><time>2026-04-11T15:34:24Z</time></trkpt><trkpt lat="44.7212491954636" lon="10.166274041003891"><ele>117.66666666666667</ele><time>2026-04-11T15:34:25Z</time></trkpt><trkpt lat="44.72132185471553" lon="10.166543377613941"><ele>117.33333333333334</ele><time>2026-04-11T15:34:26Z</time></trkpt><trkpt lat="44.72139620266727" lon="10.166797618180263"><ele>117.0</ele><time>2026-04-11T15:34:27Z</time></trkpt><trkpt lat="44.721481582117676" lon="10.167071366595327"><ele>117.0</ele><time>2026-04-11T15:34:28Z</time></trkpt><trkpt lat="44.72156286629061" lon="10.167330862488148"><ele>117.0</ele><time>2026-04-11T15:34:29Z</time></trkpt><trkpt lat="44.72164799180464" lon="10.167563540931152"><ele>117.0</ele><time>2026-04-11T15:34:30Z</time></trkpt><trkpt lat="44.72173506027192" lon="10.16777083637692"><ele>117.33333333333334</ele><time>2026-04-11T15:34:31Z</time></trkpt><trkpt lat="44.721818044083825" lon="10.167963949859963"><ele>117.66666666666667</ele><time>2026-04-11T15:34:32Z</time></trkpt><trkpt lat="44.721891388166306" lon="10.168152160495591"><ele>118.0</ele><time>2026-04-11T15:34:33Z</time></trkpt><trkpt lat="44.72195751548316" lon="10.16833548171214"><ele>119.0</ele><time>2026-04-11T15:34:34Z</time></trkpt><trkpt lat="44.72202484819429" lon="10.168515359994778"><ele>120.0</ele><time>2026-04-11T15:34:35Z</time></trkpt><trkpt lat="44.72209648210328" lon="10.168706656583868"><ele>121.0</ele><time>2026-04-11T15:34:36Z</time></trkpt><trkpt lat="44.72216664154901" lon="10.168898186031411"><ele>120.33333333333334</ele><time>2026-04-11T15:34:37Z</time></trkpt><trkpt lat="44.722247364584106" lon="10.16908997049862"><ele>119.66666666666666</ele><time>2026-04-11T15:34:38Z</time></trkpt><trkpt lat="44.72232279952454" lon="10.169288238243329"><ele>119.0</ele><time>2026-04-11T15:34:39Z</time></trkpt><trkpt lat="44.722396798477924" lon="10.16948515985781"><ele>119.0</ele><time>2026-04-11T15:34:40Z</time></trkpt><trkpt lat="44.72243172063994" lon="10.169667358437321"><ele>119.0</ele><time>2026-04-11T15:34:41Z</time></trkpt><trkpt lat="44.72252623185023" lon="10.169869498568161"><ele>119.0</ele><time>2026-04-11T15:34:42Z</time></trkpt><trkpt lat="44.72260985579542" lon="10.170069369876211"><ele>119.0</ele><time>2026-04-11T15:34:43Z</time></trkpt><trkpt lat="44.722685641356925" lon="10.170261816747864"><ele>119.0</ele><time>2026-04-11T15:34:44Z</time></trkpt><trkpt lat="44.72275946769107" lon="10.170453389279967"><ele>119.0</ele><time>2026-04-11T15:34:45Z</time></trkpt><trkpt lat="44.72282981837403" lon="10.170637986746604"><ele>118.5</ele><time>2026-04-11T15:34:46Z</time></trkpt><trkpt lat="44.72290690940335" lon="10.170820375062442"><ele>118.0</ele><time>2026-04-11T15:34:47Z</time></trkpt><trkpt lat="44.72297835898501" lon="10.171001665733213"><ele>117.5</ele><time>2026-04-11T15:34:48Z</time></trkpt><trkpt lat="44.72304367116837" lon="10.171181816449966"><ele>117.0</ele><time>2026-04-11T15:34:49Z</time></trkpt><trkpt lat="44.72310551853944" lon="10.171350858426997"><ele>117.0</ele><time>2026-04-11T15:34:50Z</time></trkpt><trkpt lat="44.7231673957051" lon="10.171507438447923"><ele>117.0</ele><time>2026-04-11T15:34:50.999Z</time></trkpt><trkpt lat="44.72322657029953" lon="10.171659198081342"><ele>117.0</ele><time>2026-04-11T15:34:51.999Z</time></trkpt><trkpt lat="44.72328675175744" lon="10.171818645786797"><ele>117.0</ele><time>2026-04-11T15:34:52.999Z</time></trkpt><trkpt lat="44.72335155716906" lon="10.171979009454523"><ele>117.25</ele><time>2026-04-11T15:34:53.999Z</time></trkpt><trkpt lat="44.723417705306446" lon="10.172143431132579"><ele>117.5</ele><time>2026-04-11T15:34:54.999Z</time></trkpt><trkpt lat="44.72348360177152" lon="10.172310402834954"><ele>117.75</ele><time>2026-04-11T15:34:55.999Z</time></trkpt><trkpt lat="44.72355236431072" lon="10.17247796836402"><ele>118.0</ele><time>2026-04-11T15:34:56.999Z</time></trkpt><trkpt lat="44.72362054389923" lon="10.172640475869676"><ele>118.0</ele><time>2026-04-11T15:34:57.999Z</time></trkpt><trkpt lat="44.72368724811958" lon="10.172795335596271"><ele>118.0</ele><time>2026-04-11T15:34:58.999Z</time></trkpt><trkpt lat="44.72375687518606" lon="10.172950391869135"><ele>118.0</ele><time>2026-04-11T15:34:59.999Z</time></trkpt><trkpt lat="44.72382762194428" lon="10.173105828640375"><ele>118.0</ele><time>2026-04-11T15:35:00.999Z</time></trkpt><trkpt lat="44.72389373351946" lon="10.173265483595266"><ele>118.0</ele><time>2026-04-11T15:35:01.999Z</time></trkpt><trkpt lat="44.723958368881206" lon="10.173423380887085"><ele>118.0</ele><time>2026-04-11T15:35:02.999Z</time></trkpt><trkpt lat="44.72402082845835" lon="10.173588573331045"><ele>118.0</ele><time>2026-04-11T15:35:03.999Z</time></trkpt><trkpt lat="44.72407683271115" lon="10.173753832855047"><ele>118.0</ele><time>2026-04-11T15:35:04.999Z</time></trkpt><trkpt lat="44.724140103199005" lon="10.173916796461445"><ele>118.0</ele><time>2026-04-11T15:35:05.999Z</time></trkpt><trkpt lat="44.72420323026352" lon="10.174083639388012"><ele>118.0</ele><time>2026-04-11T15:35:06.999Z</time></trkpt><trkpt lat="44.72427072927415" lon="10.174253798547833"><ele>118.0</ele><time>2026-04-11T15:35:07.999Z</time></trkpt><trkpt lat="44.724338498872434" lon="10.174419427873652"><ele>118.0</ele><time>2026-04-11T15:35:08.999Z</time></trkpt><trkpt lat="44.7243990092717" lon="10.174568944094773"><ele>118.0</ele><time>2026-04-11T15:35:09.999Z</time></trkpt><trkpt lat="44.72445312709888" lon="10.17469762092314"><ele>118.00000000000001</ele><time>2026-04-11T15:35:10.999Z</time></trkpt><trkpt lat="44.72450022373241" lon="10.174808883716638"><ele>118.00000000000001</ele><time>2026-04-11T15:35:11.999Z</time></trkpt><trkpt lat="44.7245512630568" lon="10.174929475839875"><ele>118.0</ele><time>2026-04-11T15:35:12.999Z</time></trkpt><trkpt lat="44.72461077903721" lon="10.175068990154388"><ele>118.0</ele><time>2026-04-11T15:35:13.999Z</time></trkpt><trkpt lat="44.724676732080866" lon="10.175216312599424"><ele>118.0</ele><time>2026-04-11T15:35:14.999Z</time></trkpt><trkpt lat="44.72474088971915" lon="10.17537310074329"><ele>118.0</ele><time>2026-04-11T15:35:15.999Z</time></trkpt><trkpt lat="44.724815099902116" lon="10.175533176539885"><ele>118.0</ele><time>2026-04-11T15:35:16.999Z</time></trkpt><trkpt lat="44.724892664070644" lon="10.17571248158976"><ele>118.0</ele><time>2026-04-11T15:35:17.999Z</time></trkpt><trkpt lat="44.72497846890342" lon="10.175901813139086"><ele>118.0</ele><time>2026-04-11T15:35:18.999Z</time></trkpt><trkpt lat="44.72506021783102" lon="10.17609341973894"><ele>118.0</ele><time>2026-04-11T15:35:19.999Z</time></trkpt><trkpt lat="44.72514319829826" lon="10.176276904729855"><ele>118.0</ele><time>2026-04-11T15:35:20.999Z</time></trkpt><trkpt lat="44.72523769465457" lon="10.176466139382663"><ele>116.0</ele><time>2026-04-11T15:35:21.999Z</time></trkpt><trkpt lat="44.72536180027996" lon="10.176707122906272"><ele>114.0</ele><time>2026-04-11T15:35:22.999Z</time></trkpt><trkpt lat="44.72551145648767" lon="10.176978615559303"><ele>114.0</ele><time>2026-04-11T15:35:23.999Z</time></trkpt><trkpt lat="44.72565140213198" lon="10.17729627122569"><ele>114.0</ele><time>2026-04-11T15:35:24.999Z</time></trkpt><trkpt lat="44.725802564600585" lon="10.177634665285392"><ele>114.0</ele><time>2026-04-11T15:35:25.999Z</time></trkpt><trkpt lat="44.72592134002012" lon="10.177926204421443"><ele>114.0</ele><time>2026-04-11T15:35:26.999Z</time></trkpt><trkpt lat="44.72607678822333" lon="10.178231584118135"><ele>114.0</ele><time>2026-04-11T15:35:27.999Z</time></trkpt><trkpt lat="44.72625837189046" lon="10.178563750265374"><ele>114.0</ele><time>2026-04-11T15:35:28.999Z</time></trkpt><trkpt lat="44.726479988455644" lon="10.178938803125504"><ele>115.0</ele><time>2026-04-11T15:35:29.999Z</time></trkpt><trkpt lat="44.72665776296487" lon="10.179147112604467"><ele>116.0</ele><time>2026-04-11T15:35:30.999Z</time></trkpt><trkpt lat="44.72687460464332" lon="10.179428613601685"><ele>115.0</ele><time>2026-04-11T15:35:31.999Z</time></trkpt><trkpt lat="44.7271115067608" lon="10.179709607665876"><ele>114.0</ele><time>2026-04-11T15:35:32.999Z</time></trkpt><trkpt lat="44.72735311804483" lon="10.179989254641761"><ele>114.0</ele><time>2026-04-11T15:35:33.999Z</time></trkpt><trkpt lat="44.7275964808074" lon="10.1802645010852"><ele>114.0</ele><time>2026-04-11T15:35:34.999Z</time></trkpt><trkpt lat="44.727844456523755" lon="10.180534930560064"><ele>114.5</ele><time>2026-04-11T15:35:35.999Z</time></trkpt><trkpt lat="44.7280891836743" lon="10.18080866885996"><ele>115.0</ele><time>2026-04-11T15:35:36.999Z</time></trkpt><trkpt lat="44.72834408126568" lon="10.181093598482335"><ele>114.5</ele><time>2026-04-11T15:35:37.999Z</time></trkpt><trkpt lat="44.72859956880242" lon="10.18136361260649"><ele>114.0</ele><time>2026-04-11T15:35:38.999Z</time></trkpt><trkpt lat="44.728844675775434" lon="10.181633686279966"><ele>114.0</ele><time>2026-04-11T15:35:39.999Z</time></trkpt><trkpt lat="44.72908844908522" lon="10.181897365421213"><ele>114.0</ele><time>2026-04-11T15:35:40.999Z</time></trkpt><trkpt lat="44.72932393088163" lon="10.182163217998413"><ele>114.0</ele><time>2026-04-11T15:35:41.999Z</time></trkpt><trkpt lat="44.72955835894346" lon="10.182417320380955"><ele>114.0</ele><time>2026-04-11T15:35:42.999Z</time></trkpt><trkpt lat="44.72979785350684" lon="10.182663105526393"><ele>114.0</ele><time>2026-04-11T15:35:43.999Z</time></trkpt><trkpt lat="44.73002735497379" lon="10.182901962677244"><ele>114.0</ele><time>2026-04-11T15:35:44.999Z</time></trkpt><trkpt lat="44.73025688655099" lon="10.183146764217861"><ele>112.5</ele><time>2026-04-11T15:35:45.999Z</time></trkpt><trkpt lat="44.73048527828455" lon="10.18339168590736"><ele>111.0</ele><time>2026-04-11T15:35:46.999Z</time></trkpt><trkpt lat="44.730728194199386" lon="10.183621247137324"><ele>111.0</ele><time>2026-04-11T15:35:48Z</time></trkpt><trkpt lat="44.730987761144064" lon="10.183829972560138"><ele>111.0</ele><time>2026-04-11T15:35:49Z</time></trkpt><trkpt lat="44.731248710581525" lon="10.184027925048852"><ele>113.0</ele><time>2026-04-11T15:35:50Z</time></trkpt><trkpt lat="44.73149030488884" lon="10.184211067540332"><ele>115.0</ele><time>2026-04-11T15:35:51Z</time></trkpt><trkpt lat="44.73170977011914" lon="10.184376719470183"><ele>114.33333333333334</ele><time>2026-04-11T15:35:52Z</time></trkpt><trkpt lat="44.731918761388734" lon="10.1845235587767"><ele>113.66666666666666</ele><time>2026-04-11T15:35:53Z</time></trkpt><trkpt lat="44.73209654798029" lon="10.184680032583708"><ele>113.0</ele><time>2026-04-11T15:35:54Z</time></trkpt><trkpt lat="44.7322834954133" lon="10.1849206108395"><ele>113.0</ele><time>2026-04-11T15:35:55Z</time></trkpt><trkpt lat="44.73246901892011" lon="10.185198012354187"><ele>113.0</ele><time>2026-04-11T15:35:56Z</time></trkpt><trkpt lat="44.73266736963706" lon="10.185470157438356"><ele>112.5</ele><time>2026-04-11T15:35:57Z</time></trkpt><trkpt lat="44.73286838470602" lon="10.185722548379458"><ele>112.0</ele><time>2026-04-11T15:35:58Z</time></trkpt><trkpt lat="44.733068420261155" lon="10.185967276430901"><ele>112.0</ele><time>2026-04-11T15:35:59Z</time></trkpt><trkpt lat="44.73327566235613" lon="10.186201881724253"><ele>112.0</ele><time>2026-04-11T15:36:00Z</time></trkpt><trkpt lat="44.73349851714956" lon="10.186421582570684"><ele>112.5</ele><time>2026-04-11T15:36:01Z</time></trkpt><trkpt lat="44.73372937150875" lon="10.186630285872912"><ele>113.0</ele><time>2026-04-11T15:36:02Z</time></trkpt><trkpt lat="44.73396010389964" lon="10.186840564909607"><ele>113.0</ele><time>2026-04-11T15:36:03Z</time></trkpt><trkpt lat="44.73418626777989" lon="10.187047378024085"><ele>113.0</ele><time>2026-04-11T15:36:04Z</time></trkpt><trkpt lat="44.73441483946657" lon="10.187255329517631"><ele>112.5</ele><time>2026-04-11T15:36:05Z</time></trkpt><trkpt lat="44.73464075195349" lon="10.187456572089388"><ele>112.0</ele><time>2026-04-11T15:36:06Z</time></trkpt><trkpt lat="44.73486768948285" lon="10.187656166166457"><ele>112.0</ele><time>2026-04-11T15:36:07Z</time></trkpt><trkpt lat="44.73508286036447" lon="10.187842789802962"><ele>112.0</ele><time>2026-04-11T15:36:08Z</time></trkpt><trkpt lat="44.73528957520334" lon="10.188026204829775"><ele>113.0</ele><time>2026-04-11T15:36:09Z</time></trkpt><trkpt lat="44.735491749000104" lon="10.188203479902596"><ele>114.0</ele><time>2026-04-11T15:36:10Z</time></trkpt><trkpt lat="44.73568383144612" lon="10.18837067870758"><ele>114.0</ele><time>2026-04-11T15:36:11Z</time></trkpt><trkpt lat="44.73586693271475" lon="10.188523504381655"><ele>114.0</ele><time>2026-04-11T15:36:12Z</time></trkpt><trkpt lat="44.73603789790843" lon="10.188671693482206"><ele>114.0</ele><time>2026-04-11T15:36:13Z</time></trkpt><trkpt lat="44.73621341346754" lon="10.188825276691139"><ele>114.66666666666666</ele><time>2026-04-11T15:36:14Z</time></trkpt><trkpt lat="44.73637828909796" lon="10.188969518712664"><ele>115.33333333333333</ele><time>2026-04-11T15:36:15Z</time></trkpt><trkpt lat="44.73653457107654" lon="10.189103605209352"><ele>116.0</ele><time>2026-04-11T15:36:16Z</time></trkpt><trkpt lat="44.736686959946894" lon="10.189236460142899"><ele>116.0</ele><time>2026-04-11T15:36:17Z</time></trkpt><trkpt lat="44.73684095984676" lon="10.189369865965908"><ele>116.0</ele><time>2026-04-11T15:36:18Z</time></trkpt><trkpt lat="44.73699601842258" lon="10.189504831509955"><ele>116.0</ele><time>2026-04-11T15:36:19Z</time></trkpt><trkpt lat="44.73715432265498" lon="10.189636057555425"><ele>115.66666666666666</ele><time>2026-04-11T15:36:20Z</time></trkpt><trkpt lat="44.73731388876888" lon="10.18976824639255"><ele>115.33333333333334</ele><time>2026-04-11T15:36:21Z</time></trkpt><trkpt lat="44.737467930858635" lon="10.189902894565563"><ele>115.0</ele><time>2026-04-11T15:36:22Z</time></trkpt><trkpt lat="44.73761259722012" lon="10.190031127999816"><ele>115.0</ele><time>2026-04-11T15:36:23Z</time></trkpt><trkpt lat="44.73775740081893" lon="10.190152077006212"><ele>115.0</ele><time>2026-04-11T15:36:24Z</time></trkpt><trkpt lat="44.73789790576904" lon="10.190273318130176"><ele>115.0</ele><time>2026-04-11T15:36:25Z</time></trkpt><trkpt lat="44.73804064072821" lon="10.190393162185734"><ele>115.0</ele><time>2026-04-11T15:36:26Z</time></trkpt><trkpt lat="44.738178767318864" lon="10.190508773928938"><ele>115.0</ele><time>2026-04-11T15:36:27Z</time></trkpt><trkpt lat="44.7383077132593" lon="10.19062053600784"><ele>115.0</ele><time>2026-04-11T15:36:28Z</time></trkpt><trkpt lat="44.73844294632109" lon="10.190735041698623"><ele>115.0</ele><time>2026-04-11T15:36:29Z</time></trkpt><trkpt lat="44.73857927177597" lon="10.190843543262218"><ele>115.0</ele><time>2026-04-11T15:36:30Z</time></trkpt><trkpt lat="44.738709151028644" lon="10.190954295962221"><ele>115.0</ele><time>2026-04-11T15:36:31Z</time></trkpt><trkpt lat="44.73884183693812" lon="10.191060556832248"><ele>115.0</ele><time>2026-04-11T15:36:32Z</time></trkpt><trkpt lat="44.73897448945014" lon="10.191166231089973"><ele>115.0</ele><time>2026-04-11T15:36:33Z</time></trkpt><trkpt lat="44.739108635154686" lon="10.191270430555647"><ele>115.0</ele><time>2026-04-11T15:36:34Z</time></trkpt><trkpt lat="44.73923948372847" lon="10.191364687888983"><ele>115.0</ele><time>2026-04-11T15:36:35Z</time></trkpt><trkpt lat="44.73937955770411" lon="10.19146482127537"><ele>115.0</ele><time>2026-04-11T15:36:36Z</time></trkpt><trkpt lat="44.73952203996469" lon="10.191573140942456"><ele>115.0</ele><time>2026-04-11T15:36:37Z</time></trkpt><trkpt lat="44.739662846243384" lon="10.191686992414098"><ele>115.33333333333334</ele><time>2026-04-11T15:36:38Z</time></trkpt><trkpt lat="44.73980231608708" lon="10.191799176252935"><ele>115.66666666666666</ele><time>2026-04-11T15:36:39Z</time></trkpt><trkpt lat="44.73993707219262" lon="10.191927865838597"><ele>116.0</ele><time>2026-04-11T15:36:40Z</time></trkpt><trkpt lat="44.7400579136254" lon="10.192102002391191"><ele>116.0</ele><time>2026-04-11T15:36:41Z</time></trkpt><trkpt lat="44.740163630429514" lon="10.192319322325949"><ele>116.0</ele><time>2026-04-11T15:36:42Z</time></trkpt><trkpt lat="44.7402610961366" lon="10.192555299141116"><ele>116.0</ele><time>2026-04-11T15:36:43Z</time></trkpt><trkpt lat="44.74037018483603" lon="10.192783818710112"><ele>115.0</ele><time>2026-04-11T15:36:44Z</time></trkpt><trkpt lat="44.74048505718502" lon="10.193004965040595"><ele>114.0</ele><time>2026-04-11T15:36:45Z</time></trkpt><trkpt lat="44.740607328364156" lon="10.193230103158733"><ele>113.0</ele><time>2026-04-11T15:36:46Z</time></trkpt><trkpt lat="44.74072700682428" lon="10.193458123355835"><ele>113.0</ele><time>2026-04-11T15:36:47Z</time></trkpt><trkpt lat="44.740847839653696" lon="10.19369359012711"><ele>113.0</ele><time>2026-04-11T15:36:48Z</time></trkpt><trkpt lat="44.740967711449414" lon="10.19392686290897"><ele>113.0</ele><time>2026-04-11T15:36:49Z</time></trkpt><trkpt lat="44.74108762672546" lon="10.194163251055592"><ele>113.0</ele><time>2026-04-11T15:36:50Z</time></trkpt><trkpt lat="44.74121414340706" lon="10.194400059673963"><ele>113.0</ele><time>2026-04-11T15:36:51Z</time></trkpt><trkpt lat="44.741332517537366" lon="10.194632803873883"><ele>113.0</ele><time>2026-04-11T15:36:52Z</time></trkpt><trkpt lat="44.74144890426935" lon="10.1948717903273"><ele>113.66666666666666</ele><time>2026-04-11T15:36:53Z</time></trkpt><trkpt lat="44.74157417435306" lon="10.195110067443139"><ele>114.33333333333334</ele><time>2026-04-11T15:36:53.999Z</time></trkpt><trkpt lat="44.74169569175218" lon="10.195340571210195"><ele>115.0</ele><time>2026-04-11T15:36:54.999Z</time></trkpt><trkpt lat="44.74181365951029" lon="10.195580387071267"><ele>115.0</ele><time>2026-04-11T15:36:55.999Z</time></trkpt><trkpt lat="44.74192780584682" lon="10.195811938830198"><ele>115.0</ele><time>2026-04-11T15:36:56.999Z</time></trkpt><trkpt lat="44.742043533535345" lon="10.196046500565108"><ele>115.0</ele><time>2026-04-11T15:36:57.999Z</time></trkpt><trkpt lat="44.7421705926203" lon="10.196288469608326"><ele>114.66666666666667</ele><time>2026-04-11T15:36:58.999Z</time></trkpt><trkpt lat="44.7423020058842" lon="10.196541354233583"><ele>114.33333333333334</ele><time>2026-04-11T15:36:59.999Z</time></trkpt><trkpt lat="44.74243038240714" lon="10.196794639558394"><ele>114.0</ele><time>2026-04-11T15:37:00.999Z</time></trkpt><trkpt lat="44.74255597434529" lon="10.197044923372554"><ele>114.0</ele><time>2026-04-11T15:37:01.999Z</time></trkpt><trkpt lat="44.7426870726717" lon="10.197298782054716"><ele>114.0</ele><time>2026-04-11T15:37:02.999Z</time></trkpt><trkpt lat="44.74281815540937" lon="10.197556270648768"><ele>114.0</ele><time>2026-04-11T15:37:03.999Z</time></trkpt><trkpt lat="44.742947307256514" lon="10.197812979971316"><ele>113.5</ele><time>2026-04-11T15:37:04.999Z</time></trkpt><trkpt lat="44.7430792676959" lon="10.198072992805644"><ele>113.0</ele><time>2026-04-11T15:37:05.999Z</time></trkpt><trkpt lat="44.74320764085694" lon="10.198336018625769"><ele>113.0</ele><time>2026-04-11T15:37:06.999Z</time></trkpt><trkpt lat="44.74333820528388" lon="10.198593958514193"><ele>113.0</ele><time>2026-04-11T15:37:07.999Z</time></trkpt><trkpt lat="44.743467640094394" lon="10.19885208868802"><ele>113.0</ele><time>2026-04-11T15:37:08.999Z</time></trkpt><trkpt lat="44.74360143947982" lon="10.19910499596562"><ele>113.0</ele><time>2026-04-11T15:37:09.999Z</time></trkpt><trkpt lat="44.74373085494377" lon="10.199359841231015"><ele>113.0</ele><time>2026-04-11T15:37:10.999Z</time></trkpt><trkpt lat="44.74385219521353" lon="10.199616060759201"><ele>113.0</ele><time>2026-04-11T15:37:11.999Z</time></trkpt><trkpt lat="44.743974801661494" lon="10.199870325792416"><ele>112.66666666666666</ele><time>2026-04-11T15:37:12.999Z</time></trkpt><trkpt lat="44.74409923000098" lon="10.200111199998586"><ele>112.33333333333334</ele><time>2026-04-11T15:37:13.999Z</time></trkpt><trkpt lat="44.74422906057461" lon="10.200361576660487"><ele>112.0</ele><time>2026-04-11T15:37:14.999Z</time></trkpt><trkpt lat="44.74435543415985" lon="10.20061154118306"><ele>112.0</ele><time>2026-04-11T15:37:15.999Z</time></trkpt><trkpt lat="44.74448060556504" lon="10.200859159867985"><ele>112.0</ele><time>2026-04-11T15:37:16.999Z</time></trkpt><trkpt lat="44.744607828493955" lon="10.201109821388657"><ele>112.0</ele><time>2026-04-11T15:37:17.999Z</time></trkpt><trkpt lat="44.7447356481179" lon="10.201357591316121"><ele>112.33333333333334</ele><time>2026-04-11T15:37:18.999Z</time></trkpt><trkpt lat="44.74486015192589" lon="10.201608164194067"><ele>112.66666666666666</ele><time>2026-04-11T15:37:19.999Z</time></trkpt><trkpt lat="44.744978747810265" lon="10.201837076015947"><ele>113.0</ele><time>2026-04-11T15:37:20.999Z</time></trkpt><trkpt lat="44.74505436113423" lon="10.202060817888581"><ele>113.0</ele><time>2026-04-11T15:37:21.999Z</time></trkpt><trkpt lat="44.74518767439703" lon="10.202284226840048"><ele>113.0</ele><time>2026-04-11T15:37:22.999Z</time></trkpt><trkpt lat="44.745309535534375" lon="10.202490384688277"><ele>113.0</ele><time>2026-04-11T15:37:23.999Z</time></trkpt><trkpt lat="44.74541753371713" lon="10.202697815006864"><ele>113.0</ele><time>2026-04-11T15:37:24.999Z</time></trkpt><trkpt lat="44.745511032360724" lon="10.202882275123944"><ele>113.0</ele><time>2026-04-11T15:37:25.999Z</time></trkpt><trkpt lat="44.74559354236617" lon="10.203043878088181"><ele>113.0</ele><time>2026-04-11T15:37:26.999Z</time></trkpt><trkpt lat="44.74567914517364" lon="10.20320674543501"><ele>113.0</ele><time>2026-04-11T15:37:27.999Z</time></trkpt><trkpt lat="44.74577025029375" lon="10.203367641453411"><ele>112.66666666666666</ele><time>2026-04-11T15:37:28.999Z</time></trkpt><trkpt lat="44.74586362882351" lon="10.203545640703021"><ele>112.33333333333334</ele><time>2026-04-11T15:37:29.999Z</time></trkpt><trkpt lat="44.74596052863432" lon="10.203730062102547"><ele>112.0</ele><time>2026-04-11T15:37:30.999Z</time></trkpt><trkpt lat="44.746054528042166" lon="10.20391815691478"><ele>112.0</ele><time>2026-04-11T15:37:31.999Z</time></trkpt><trkpt lat="44.74614887002756" lon="10.204114651132045"><ele>112.0</ele><time>2026-04-11T15:37:32.999Z</time></trkpt><trkpt lat="44.7462522570339" lon="10.20430299055071"><ele>112.0</ele><time>2026-04-11T15:37:33.999Z</time></trkpt><trkpt lat="44.74635749679651" lon="10.20450344353855"><ele>112.0</ele><time>2026-04-11T15:37:34.999Z</time></trkpt><trkpt lat="44.7464513094263" lon="10.204698381078062"><ele>112.0</ele><time>2026-04-11T15:37:35.999Z</time></trkpt><trkpt lat="44.746553355294054" lon="10.204892153779307"><ele>112.0</ele><time>2026-04-11T15:37:36.999Z</time></trkpt><trkpt lat="44.74664768989444" lon="10.205068656535024"><ele>112.33333333333334</ele><time>2026-04-11T15:37:37.999Z</time></trkpt><trkpt lat="44.74675131795442" lon="10.205244851046825"><ele>112.66666666666666</ele><time>2026-04-11T15:37:38.999Z</time></trkpt><trkpt lat="44.74683718862912" lon="10.205428613535592"><ele>113.0</ele><time>2026-04-11T15:37:39.999Z</time></trkpt><trkpt lat="44.74692373979467" lon="10.20560730985689"><ele>112.5</ele><time>2026-04-11T15:37:40.999Z</time></trkpt><trkpt lat="44.74701309203398" lon="10.205783836594332"><ele>112.0</ele><time>2026-04-11T15:37:41.999Z</time></trkpt><trkpt lat="44.747090520291714" lon="10.205939174494572"><ele>111.5</ele><time>2026-04-11T15:37:42.999Z</time></trkpt><trkpt lat="44.74717221425116" lon="10.206097151334948"><ele>111.0</ele><time>2026-04-11T15:37:43.999Z</time></trkpt><trkpt lat="44.747246603790934" lon="10.206248897568383"><ele>111.0</ele><time>2026-04-11T15:37:44.999Z</time></trkpt><trkpt lat="44.74732195027783" lon="10.206391848097242"><ele>111.0</ele><time>2026-04-11T15:37:45.999Z</time></trkpt><trkpt lat="44.747396408400064" lon="10.206526439721188"><ele>111.0</ele><time>2026-04-11T15:37:46.999Z</time></trkpt><trkpt lat="44.74746904214707" lon="10.20666705708253"><ele>111.0</ele><time>2026-04-11T15:37:47.999Z</time></trkpt><trkpt lat="44.747540415187984" lon="10.206801006002033"><ele>111.0</ele><time>2026-04-11T15:37:48.999Z</time></trkpt><trkpt lat="44.74761581036461" lon="10.206943705872247"><ele>111.0</ele><time>2026-04-11T15:37:49.999Z</time></trkpt><trkpt lat="44.74768353585048" lon="10.207083322308796"><ele>111.0</ele><time>2026-04-11T15:37:50.999Z</time></trkpt><trkpt lat="44.74774594361687" lon="10.207212272316644"><ele>111.0</ele><time>2026-04-11T15:37:51.999Z</time></trkpt><trkpt lat="44.74780835677049" lon="10.207337748884397"><ele>110.8</ele><time>2026-04-11T15:37:52.999Z</time></trkpt><trkpt lat="44.74787429113038" lon="10.207462782270841"><ele>110.6</ele><time>2026-04-11T15:37:54Z</time></trkpt><trkpt lat="44.74794147724039" lon="10.207591531264177"><ele>110.4</ele><time>2026-04-11T15:37:55Z</time></trkpt><trkpt lat="44.74801055814937" lon="10.207722064494133"><ele>110.2</ele><time>2026-04-11T15:37:56Z</time></trkpt><trkpt lat="44.74807078649977" lon="10.207838542814255"><ele>110.0</ele><time>2026-04-11T15:37:57Z</time></trkpt><trkpt lat="44.748127413612266" lon="10.207947923837876"><ele>109.99999999999999</ele><time>2026-04-11T15:37:58Z</time></trkpt><trkpt lat="44.74818018744487" lon="10.208050233664824"><ele>110.0</ele><time>2026-04-11T15:37:59Z</time></trkpt><trkpt lat="44.74822461663197" lon="10.208143835539964"><ele>110.0</ele><time>2026-04-11T15:38:00Z</time></trkpt><trkpt lat="44.74826477163974" lon="10.20823194415966"><ele>110.0</ele><time>2026-04-11T15:38:01Z</time></trkpt><trkpt lat="44.74830597701391" lon="10.20832031265504"><ele>109.99999999999999</ele><time>2026-04-11T15:38:02Z</time></trkpt><trkpt lat="44.74834600981131" lon="10.208402354121956"><ele>110.0</ele><time>2026-04-11T15:38:03Z</time></trkpt><trkpt lat="44.748389426461344" lon="10.208478509450945"><ele>110.0</ele><time>2026-04-11T15:38:04Z</time></trkpt><trkpt lat="44.748460057713885" lon="10.208634675905245"><ele>110.0</ele><time>2026-04-11T15:38:06Z</time></trkpt><trkpt lat="44.74850886636302" lon="10.208737661364529"><ele>110.0</ele><time>2026-04-11T15:38:07Z</time></trkpt><trkpt lat="44.74855943655336" lon="10.208834995569566"><ele>110.0</ele><time>2026-04-11T15:38:08Z</time></trkpt><trkpt lat="44.74860663679683" lon="10.208924259713752"><ele>110.0</ele><time>2026-04-11T15:38:09Z</time></trkpt><trkpt lat="44.74866219163756" lon="10.209021543495826"><ele>109.99999999999999</ele><time>2026-04-11T15:38:10Z</time></trkpt><trkpt lat="44.74871114236458" lon="10.209113217749287"><ele>110.0</ele><time>2026-04-11T15:38:11Z</time></trkpt><trkpt lat="44.74875948837422" lon="10.209213022986795"><ele>110.0</ele><time>2026-04-11T15:38:12Z</time></trkpt><trkpt lat="44.74880720379139" lon="10.209311134400666"><ele>110.0</ele><time>2026-04-11T15:38:13Z</time></trkpt><trkpt lat="44.748857292484765" lon="10.209411847951914"><ele>109.99999999999999</ele><time>2026-04-11T15:38:14Z</time></trkpt><trkpt lat="44.74890622728537" lon="10.209511125820075"><ele>110.0</ele><time>2026-04-11T15:38:15Z</time></trkpt><trkpt lat="44.74896125926749" lon="10.209609122415332"><ele>109.99999999999999</ele><time>2026-04-11T15:38:16Z</time></trkpt><trkpt lat="44.749019688905236" lon="10.209701954716776"><ele>110.0</ele><time>2026-04-11T15:38:17Z</time></trkpt><trkpt lat="44.749076366427175" lon="10.209794066898821"><ele>110.0</ele><time>2026-04-11T15:38:18Z</time></trkpt><trkpt lat="44.74912781786342" lon="10.209886173286625"><ele>110.0</ele><time>2026-04-11T15:38:19Z</time></trkpt><trkpt lat="44.7491776195069" lon="10.209979854309626"><ele>109.99999999999999</ele><time>2026-04-11T15:38:20Z</time></trkpt><trkpt lat="44.74923240991007" lon="10.210080476057717"><ele>110.0</ele><time>2026-04-11T15:38:21Z</time></trkpt><trkpt lat="44.749291387222954" lon="10.210185908125657"><ele>110.0</ele><time>2026-04-11T15:38:22Z</time></trkpt><trkpt lat="44.74935107102713" lon="10.210304591315108"><ele>110.0</ele><time>2026-04-11T15:38:23Z</time></trkpt><trkpt lat="44.749407972321166" lon="10.210421568023843"><ele>110.0</ele><time>2026-04-11T15:38:24Z</time></trkpt><trkpt lat="44.74946447673148" lon="10.210544732713354"><ele>110.0</ele><time>2026-04-11T15:38:25Z</time></trkpt><trkpt lat="44.749522023951364" lon="10.210667488850058"><ele>110.0</ele><time>2026-04-11T15:38:26Z</time></trkpt><trkpt lat="44.749586036476856" lon="10.210783224743905"><ele>110.2</ele><time>2026-04-11T15:38:27Z</time></trkpt><trkpt lat="44.749652009474715" lon="10.210898894470064"><ele>110.4</ele><time>2026-04-11T15:38:28Z</time></trkpt><trkpt lat="44.7497131511237" lon="10.211014461416433"><ele>110.6</ele><time>2026-04-11T15:38:29Z</time></trkpt><trkpt lat="44.74977854160097" lon="10.211138531083789"><ele>110.8</ele><time>2026-04-11T15:38:30Z</time></trkpt><trkpt lat="44.749831020286734" lon="10.21125402402545"><ele>111.0</ele><time>2026-04-11T15:38:31Z</time></trkpt><trkpt lat="44.749896185273485" lon="10.21137355502777"><ele>111.19999999999999</ele><time>2026-04-11T15:38:32Z</time></trkpt><trkpt lat="44.74995934166462" lon="10.211493015698144"><ele>111.39999999999999</ele><time>2026-04-11T15:38:33Z</time></trkpt><trkpt lat="44.7500259040912" lon="10.211611538702565"><ele>111.6</ele><time>2026-04-11T15:38:34Z</time></trkpt><trkpt lat="44.75008789310263" lon="10.211732505389573"><ele>111.8</ele><time>2026-04-11T15:38:35Z</time></trkpt><trkpt lat="44.75015471420621" lon="10.211852436508773"><ele>112.0</ele><time>2026-04-11T15:38:36Z</time></trkpt><trkpt lat="44.75021740728112" lon="10.21196906602326"><ele>112.0</ele><time>2026-04-11T15:38:37Z</time></trkpt><trkpt lat="44.75028158227435" lon="10.212089110890407"><ele>111.99999999999999</ele><time>2026-04-11T15:38:38Z</time></trkpt><trkpt lat="44.7503415624856" lon="10.212212797701689"><ele>111.99999999999999</ele><time>2026-04-11T15:38:39Z</time></trkpt><trkpt lat="44.75040469891978" lon="10.212328784978421"><ele>112.0</ele><time>2026-04-11T15:38:40Z</time></trkpt><trkpt lat="44.75047033223822" lon="10.212444330967706"><ele>112.0</ele><time>2026-04-11T15:38:41Z</time></trkpt><trkpt lat="44.75053386057813" lon="10.21256414619698"><ele>112.0</ele><time>2026-04-11T15:38:42Z</time></trkpt><trkpt lat="44.75059722473963" lon="10.212681119876276"><ele>111.99999999999999</ele><time>2026-04-11T15:38:43Z</time></trkpt><trkpt lat="44.75065823019242" lon="10.212795003338584"><ele>111.99999999999999</ele><time>2026-04-11T15:38:44Z</time></trkpt><trkpt lat="44.750707617810775" lon="10.21291217244627"><ele>112.0</ele><time>2026-04-11T15:38:45Z</time></trkpt><trkpt lat="44.75077416502422" lon="10.213025495560533"><ele>112.0</ele><time>2026-04-11T15:38:46Z</time></trkpt><trkpt lat="44.75083385666566" lon="10.213147933895417"><ele>112.19999999999999</ele><time>2026-04-11T15:38:47Z</time></trkpt><trkpt lat="44.75088891962916" lon="10.213260637216882"><ele>112.39999999999999</ele><time>2026-04-11T15:38:48Z</time></trkpt><trkpt lat="44.75094222722448" lon="10.213384115813778"><ele>112.60000000000001</ele><time>2026-04-11T15:38:49Z</time></trkpt><trkpt lat="44.75098692782337" lon="10.213492000599869"><ele>112.80000000000001</ele><time>2026-04-11T15:38:50Z</time></trkpt><trkpt lat="44.75105305750195" lon="10.213600401829037"><ele>113.0</ele><time>2026-04-11T15:38:51Z</time></trkpt><trkpt lat="44.75110536189782" lon="10.213729094220698"><ele>113.0</ele><time>2026-04-11T15:38:52Z</time></trkpt><trkpt lat="44.751155549825754" lon="10.213851413132415"><ele>113.00000000000001</ele><time>2026-04-11T15:38:53Z</time></trkpt><trkpt lat="44.75119940300747" lon="10.213966754449581"><ele>113.00000000000001</ele><time>2026-04-11T15:38:54Z</time></trkpt><trkpt lat="44.75125084028145" lon="10.214073410802081"><ele>113.0</ele><time>2026-04-11T15:38:55Z</time></trkpt><trkpt lat="44.75129807026447" lon="10.21417702809351"><ele>113.0</ele><time>2026-04-11T15:38:56Z</time></trkpt><trkpt lat="44.75134567679995" lon="10.214278190594118"><ele>113.4</ele><time>2026-04-11T15:38:57Z</time></trkpt><trkpt lat="44.751390984162775" lon="10.214373841881878"><ele>113.80000000000001</ele><time>2026-04-11T15:38:58Z</time></trkpt><trkpt lat="44.75143169760578" lon="10.214460829310717"><ele>114.2</ele><time>2026-04-11T15:38:59Z</time></trkpt><trkpt lat="44.75146978007624" lon="10.214549457835247"><ele>114.6</ele><time>2026-04-11T15:39:00Z</time></trkpt><trkpt lat="44.75152242135992" lon="10.214692933881823"><ele>115.0</ele><time>2026-04-11T15:39:01.999Z</time></trkpt><trkpt lat="44.75158823644224" lon="10.214839208115373"><ele>115.16666666666667</ele><time>2026-04-11T15:39:03.999Z</time></trkpt><trkpt lat="44.75162019378929" lon="10.21491627616927"><ele>115.33333333333334</ele><time>2026-04-11T15:39:04.999Z</time></trkpt><trkpt lat="44.75168661567442" lon="10.215064251230464"><ele>115.5</ele><time>2026-04-11T15:39:06.999Z</time></trkpt><trkpt lat="44.75171413817731" lon="10.215148922726968"><ele>115.66666666666666</ele><time>2026-04-11T15:39:07.999Z</time></trkpt><trkpt lat="44.75174207705508" lon="10.215236330331939"><ele>115.83333333333333</ele><time>2026-04-11T15:39:08.999Z</time></trkpt><trkpt lat="44.75176129558355" lon="10.215323881020305"><ele>116.0</ele><time>2026-04-11T15:39:09.999Z</time></trkpt><trkpt lat="44.751780362776394" lon="10.215474327132348"><ele>116.0</ele><time>2026-04-11T15:39:11.999Z</time></trkpt><trkpt lat="44.75178685104465" lon="10.215609285623286"><ele>116.0</ele><time>2026-04-11T15:39:13.999Z</time></trkpt><trkpt lat="44.75178351861993" lon="10.21577270938624"><ele>116.0</ele><time>2026-04-11T15:39:15.999Z</time></trkpt><trkpt lat="44.75179047700771" lon="10.215897702039676"><ele>116.0</ele><time>2026-04-11T15:39:17.999Z</time></trkpt><trkpt lat="44.75179176295725" lon="10.215999652274595"><ele>116.0</ele><time>2026-04-11T15:39:19.999Z</time></trkpt><trkpt lat="44.75181020202528" lon="10.216105624944381"><ele>116.16666666666666</ele><time>2026-04-11T15:39:24.999Z</time></trkpt><trkpt lat="44.75181504410659" lon="10.216207764225867"><ele>116.33333333333333</ele><time>2026-04-11T15:39:27.999Z</time></trkpt><trkpt lat="44.751816848001816" lon="10.216298269831674"><ele>116.5</ele><time>2026-04-11T15:39:29.999Z</time></trkpt><trkpt lat="44.75184022593942" lon="10.21644526506966"><ele>116.66666666666666</ele><time>2026-04-11T15:39:31.999Z</time></trkpt><trkpt lat="44.75187936484584" lon="10.216582096095303"><ele>116.83333333333333</ele><time>2026-04-11T15:39:33.999Z</time></trkpt><trkpt lat="44.7519394047311" lon="10.216690759161292"><ele>117.0</ele><time>2026-04-11T15:39:35.999Z</time></trkpt><trkpt lat="44.75195488009785" lon="10.216851239904011"><ele>116.6</ele><time>2026-04-11T15:39:37.999Z</time></trkpt><trkpt lat="44.75200427235176" lon="10.216966390699977"><ele>116.19999999999999</ele><time>2026-04-11T15:39:39.999Z</time></trkpt><trkpt lat="44.75205283697902" lon="10.217098036213555"><ele>115.8</ele><time>2026-04-11T15:39:41.999Z</time></trkpt><trkpt lat="44.75209301074117" lon="10.21717654331381"><ele>115.4</ele><time>2026-04-11T15:39:42.999Z</time></trkpt><trkpt lat="44.752121823895855" lon="10.217261512770344"><ele>115.0</ele><time>2026-04-11T15:39:43.999Z</time></trkpt><trkpt lat="44.75218621681073" lon="10.217403206486201"><ele>114.83333333333334</ele><time>2026-04-11T15:39:45.999Z</time></trkpt><trkpt lat="44.75222407068409" lon="10.217486212990174"><ele>114.66666666666667</ele><time>2026-04-11T15:39:46.999Z</time></trkpt><trkpt lat="44.75225891791706" lon="10.217587615382419"><ele>114.5</ele><time>2026-04-11T15:39:47.999Z</time></trkpt><trkpt lat="44.75229847472985" lon="10.217688489921327"><ele>114.33333333333334</ele><time>2026-04-11T15:39:48.999Z</time></trkpt><trkpt lat="44.75233165266328" lon="10.217787364511178"><ele>114.16666666666667</ele><time>2026-04-11T15:39:49.999Z</time></trkpt><trkpt lat="44.75237145670115" lon="10.217889238895513"><ele>114.0</ele><time>2026-04-11T15:39:50.999Z</time></trkpt><trkpt lat="44.752412484396395" lon="10.217998198988884"><ele>114.0</ele><time>2026-04-11T15:39:51.999Z</time></trkpt><trkpt lat="44.752450118126" lon="10.218106370606376"><ele>114.0</ele><time>2026-04-11T15:39:52.999Z</time></trkpt><trkpt lat="44.752487553634076" lon="10.218226290820292"><ele>114.0</ele><time>2026-04-11T15:39:53.999Z</time></trkpt><trkpt lat="44.75251688032609" lon="10.218334718833058"><ele>114.0</ele><time>2026-04-11T15:39:54.999Z</time></trkpt><trkpt lat="44.75252389267588" lon="10.218430245499297"><ele>114.0</ele><time>2026-04-11T15:39:55.999Z</time></trkpt><trkpt lat="44.752512678017304" lon="10.218547700153575"><ele>114.0</ele><time>2026-04-11T15:39:57.999Z</time></trkpt><trkpt lat="44.752491360489714" lon="10.218673523582524"><ele>114.0</ele><time>2026-04-11T15:40:02Z</time></trkpt><trkpt lat="44.752479353847434" lon="10.218783869510865"><ele>113.99999999999999</ele><time>2026-04-11T15:40:04Z</time></trkpt><trkpt lat="44.752454858935764" lon="10.218892118889455"><ele>114.0</ele><time>2026-04-11T15:40:06Z</time></trkpt><trkpt lat="44.75244071465291" lon="10.218986363360074"><ele>114.0</ele><time>2026-04-11T15:40:08Z</time></trkpt><trkpt lat="44.75242229662408" lon="10.219084702967125"><ele>113.99999999999999</ele><time>2026-04-11T15:40:10Z</time></trkpt><trkpt lat="44.75240137313887" lon="10.219181107976546"><ele>114.0</ele><time>2026-04-11T15:40:12Z</time></trkpt><trkpt lat="44.752380754864916" lon="10.219266386145419"><ele>114.0</ele><time>2026-04-11T15:40:14Z</time></trkpt><trkpt lat="44.7523695478774" lon="10.219393739768165"><ele>114.0</ele><time>2026-04-11T15:40:17Z</time></trkpt><trkpt lat="44.75237097863082" lon="10.219496424832352"><ele>114.0</ele><time>2026-04-11T15:40:21Z</time></trkpt><trkpt lat="44.752350055960335" lon="10.21961688046881"><ele>114.0</ele><time>2026-04-11T15:40:24Z</time></trkpt><trkpt lat="44.752321489523005" lon="10.219795139646223"><ele>114.0</ele><time>2026-04-11T15:40:26Z</time></trkpt><trkpt lat="44.75230597457624" lon="10.219889241752586"><ele>114.0</ele><time>2026-04-11T15:40:27Z</time></trkpt><trkpt lat="44.75228275656285" lon="10.2199842875301"><ele>114.0</ele><time>2026-04-11T15:40:28Z</time></trkpt><trkpt lat="44.752266973971416" lon="10.220076501783538"><ele>114.0</ele><time>2026-04-11T15:40:29Z</time></trkpt><trkpt lat="44.752249345682394" lon="10.220178589309379"><ele>114.0</ele><time>2026-04-11T15:40:30Z</time></trkpt><trkpt lat="44.752230605909396" lon="10.220287712344739"><ele>114.0</ele><time>2026-04-11T15:40:31Z</time></trkpt><trkpt lat="44.75221888432925" lon="10.220414541295874"><ele>114.0</ele><time>2026-04-11T15:40:32Z</time></trkpt><trkpt lat="44.752205299042465" lon="10.22054400162412"><ele>114.0</ele><time>2026-04-11T15:40:33Z</time></trkpt><trkpt lat="44.752193048065095" lon="10.220671867939402"><ele>114.0</ele><time>2026-04-11T15:40:34Z</time></trkpt><trkpt lat="44.75217560060905" lon="10.220818520881695"><ele>114.2</ele><time>2026-04-11T15:40:35Z</time></trkpt><trkpt lat="44.75215475206001" lon="10.220963946602698"><ele>114.4</ele><time>2026-04-11T15:40:36Z</time></trkpt><trkpt lat="44.752141523238755" lon="10.221096441677696"><ele>114.6</ele><time>2026-04-11T15:40:37Z</time></trkpt><trkpt lat="44.752131658174626" lon="10.221233432249443"><ele>114.8</ele><time>2026-04-11T15:40:38Z</time></trkpt><trkpt lat="44.75212836962764" lon="10.221379714264769"><ele>115.0</ele><time>2026-04-11T15:40:39Z</time></trkpt><trkpt lat="44.752127024378055" lon="10.221523178453317"><ele>115.2</ele><time>2026-04-11T15:40:40Z</time></trkpt><trkpt lat="44.752124558519974" lon="10.221667656029666"><ele>115.4</ele><time>2026-04-11T15:40:41Z</time></trkpt><trkpt lat="44.752124334411896" lon="10.221798375853528"><ele>115.6</ele><time>2026-04-11T15:40:42Z</time></trkpt><trkpt lat="44.75212417118185" lon="10.22193042248521"><ele>115.8</ele><time>2026-04-11T15:40:43Z</time></trkpt><trkpt lat="44.752126575304075" lon="10.222058874902803"><ele>116.0</ele><time>2026-04-11T15:40:44Z</time></trkpt><trkpt lat="44.7521309414784" lon="10.222182995344628"><ele>116.0</ele><time>2026-04-11T15:40:45Z</time></trkpt><trkpt lat="44.75212919929925" lon="10.222304333452565"><ele>116.0</ele><time>2026-04-11T15:40:46Z</time></trkpt><trkpt lat="44.752133927912574" lon="10.222432638844722"><ele>116.0</ele><time>2026-04-11T15:40:47Z</time></trkpt><trkpt lat="44.75213943839996" lon="10.222565976065038"><ele>116.0</ele><time>2026-04-11T15:40:48Z</time></trkpt><trkpt lat="44.752146309349996" lon="10.22268441951519"><ele>116.0</ele><time>2026-04-11T15:40:49Z</time></trkpt><trkpt lat="44.75215329609405" lon="10.222821868027225"><ele>116.0</ele><time>2026-04-11T15:40:50Z</time></trkpt><trkpt lat="44.75215798520452" lon="10.22295403241963"><ele>116.0</ele><time>2026-04-11T15:40:51Z</time></trkpt><trkpt lat="44.75216992698403" lon="10.223082900588894"><ele>116.0</ele><time>2026-04-11T15:40:52Z</time></trkpt><trkpt lat="44.75218799807341" lon="10.223223142198801"><ele>116.0</ele><time>2026-04-11T15:40:53Z</time></trkpt><trkpt lat="44.75221696077177" lon="10.22335125583263"><ele>116.0</ele><time>2026-04-11T15:40:54Z</time></trkpt><trkpt lat="44.75225043826883" lon="10.223472936316044"><ele>115.99999999999999</ele><time>2026-04-11T15:40:55Z</time></trkpt><trkpt lat="44.75228400053489" lon="10.223593099635302"><ele>116.0</ele><time>2026-04-11T15:40:56Z</time></trkpt><trkpt lat="44.75232194794345" lon="10.223709650775614"><ele>116.0</ele><time>2026-04-11T15:40:57Z</time></trkpt><trkpt lat="44.752362234053045" lon="10.223842578354164"><ele>116.0</ele><time>2026-04-11T15:40:58Z</time></trkpt><trkpt lat="44.75239550765747" lon="10.2239574456942"><ele>115.99999999999999</ele><time>2026-04-11T15:40:59Z</time></trkpt><trkpt lat="44.75242792200842" lon="10.224043322530129"><ele>116.0</ele><time>2026-04-11T15:41:00Z</time></trkpt><trkpt lat="44.752438749009855" lon="10.224159744718511"><ele>115.99999999999999</ele><time>2026-04-11T15:41:02Z</time></trkpt><trkpt lat="44.75241009099314" lon="10.224265536044916"><ele>116.0</ele><time>2026-04-11T15:41:07.999Z</time></trkpt><trkpt lat="44.75237082918551" lon="10.224400127768368"><ele>116.0</ele><time>2026-04-11T15:41:09.999Z</time></trkpt><trkpt lat="44.75236093910391" lon="10.224501775376543"><ele>116.0</ele><time>2026-04-11T15:41:10.999Z</time></trkpt><trkpt lat="44.752378553107896" lon="10.224592194439486"><ele>115.99999999999999</ele><time>2026-04-11T15:41:11.999Z</time></trkpt><trkpt lat="44.75244887034319" lon="10.224662614074552"><ele>116.0</ele><time>2026-04-11T15:41:12.999Z</time></trkpt><trkpt lat="44.75254352522639" lon="10.22470055570242"><ele>116.0</ele><time>2026-04-11T15:41:13.999Z</time></trkpt><trkpt lat="44.752634054712" lon="10.224752678874383"><ele>116.0</ele><time>2026-04-11T15:41:14.999Z</time></trkpt><trkpt lat="44.752707928544496" lon="10.224838626005303"><ele>116.0</ele><time>2026-04-11T15:41:15.999Z</time></trkpt><trkpt lat="44.75276900420821" lon="10.22495013501773"><ele>116.0</ele><time>2026-04-11T15:41:16.999Z</time></trkpt><trkpt lat="44.752828744088454" lon="10.225090609845104"><ele>116.0</ele><time>2026-04-11T15:41:17.999Z</time></trkpt><trkpt lat="44.7528914127004" lon="10.2252313217288"><ele>116.0</ele><time>2026-04-11T15:41:18.999Z</time></trkpt><trkpt lat="44.75296436741134" lon="10.22537317971996"><ele>116.0</ele><time>2026-04-11T15:41:19.999Z</time></trkpt><trkpt lat="44.75303312635215" lon="10.225512253716381"><ele>116.0</ele><time>2026-04-11T15:41:20.999Z</time></trkpt><trkpt lat="44.753098698870126" lon="10.22565116034698"><ele>116.0</ele><time>2026-04-11T15:41:21.999Z</time></trkpt><trkpt lat="44.753164168839" lon="10.225791975810049"><ele>116.25</ele><time>2026-04-11T15:41:22.999Z</time></trkpt><trkpt lat="44.75322788846147" lon="10.225928598232292"><ele>116.5</ele><time>2026-04-11T15:41:23.999Z</time></trkpt><trkpt lat="44.753293448575896" lon="10.226074672237358"><ele>116.75</ele><time>2026-04-11T15:41:24.999Z</time></trkpt><trkpt lat="44.75336390053834" lon="10.226226931478193"><ele>117.0</ele><time>2026-04-11T15:41:25.999Z</time></trkpt><trkpt lat="44.75343358779154" lon="10.226380946622532"><ele>116.75</ele><time>2026-04-11T15:41:26.999Z</time></trkpt><trkpt lat="44.75350317729629" lon="10.22653192126585"><ele>116.5</ele><time>2026-04-11T15:41:27.999Z</time></trkpt><trkpt lat="44.75357145412382" lon="10.226676525087369"><ele>116.25</ele><time>2026-04-11T15:41:28.999Z</time></trkpt><trkpt lat="44.75363523857884" lon="10.226813126964629"><ele>116.0</ele><time>2026-04-11T15:41:29.999Z</time></trkpt><trkpt lat="44.75369557523487" lon="10.226937492928538"><ele>115.8</ele><time>2026-04-11T15:41:30.999Z</time></trkpt><trkpt lat="44.753756406965" lon="10.227030849008871"><ele>115.6</ele><time>2026-04-11T15:41:31.999Z</time></trkpt><trkpt lat="44.753803076533" lon="10.227090638646567"><ele>115.4</ele><time>2026-04-11T15:41:32.999Z</time></trkpt><trkpt lat="44.753826328612625" lon="10.227188842844294"><ele>115.2</ele><time>2026-04-11T15:41:37.999Z</time></trkpt><trkpt lat="44.75391783012249" lon="10.22734550160442"><ele>115.0</ele><time>2026-04-11T15:41:39.999Z</time></trkpt><trkpt lat="44.75399534598499" lon="10.227409241109726"><ele>114.8</ele><time>2026-04-11T15:41:40.999Z</time></trkpt><trkpt lat="44.75406268748239" lon="10.227475352664209"><ele>114.6</ele><time>2026-04-11T15:41:41.999Z</time></trkpt><trkpt lat="44.75406946649242" lon="10.227664941635009"><ele>114.4</ele><time>2026-04-11T15:41:42.999Z</time></trkpt><trkpt lat="44.75410703826821" lon="10.227805736626339"><ele>114.2</ele><time>2026-04-11T15:41:43.999Z</time></trkpt><trkpt lat="44.75416062278968" lon="10.227945710073238"><ele>114.0</ele><time>2026-04-11T15:41:44.999Z</time></trkpt><trkpt lat="44.75423425434339" lon="10.228098939017364"><ele>113.75</ele><time>2026-04-11T15:41:45.999Z</time></trkpt><trkpt lat="44.75430312914402" lon="10.228249168260696"><ele>113.5</ele><time>2026-04-11T15:41:46.999Z</time></trkpt><trkpt lat="44.75436849884329" lon="10.22838881542517"><ele>113.25</ele><time>2026-04-11T15:41:47.999Z</time></trkpt><trkpt lat="44.75443059022875" lon="10.228528084634984"><ele>113.0</ele><time>2026-04-11T15:41:48.999Z</time></trkpt><trkpt lat="44.75449318328604" lon="10.228670334710614"><ele>113.0</ele><time>2026-04-11T15:41:49.999Z</time></trkpt><trkpt lat="44.75455554091607" lon="10.228811234150047"><ele>113.0</ele><time>2026-04-11T15:41:50.999Z</time></trkpt><trkpt lat="44.75461891153247" lon="10.228948422570477"><ele>113.0</ele><time>2026-04-11T15:41:51.999Z</time></trkpt><trkpt lat="44.75468500603377" lon="10.229082673624653"><ele>113.0</ele><time>2026-04-11T15:41:52.999Z</time></trkpt><trkpt lat="44.75474703041818" lon="10.229217937437245"><ele>112.75</ele><time>2026-04-11T15:41:53.999Z</time></trkpt><trkpt lat="44.75480998625751" lon="10.229355596668531"><ele>112.5</ele><time>2026-04-11T15:41:54.999Z</time></trkpt><trkpt lat="44.75487325440713" lon="10.229491077096982"><ele>112.25</ele><time>2026-04-11T15:41:55.999Z</time></trkpt><trkpt lat="44.75493564611378" lon="10.229626456175927"><ele>112.0</ele><time>2026-04-11T15:41:56.999Z</time></trkpt><trkpt lat="44.75499894601043" lon="10.229766114010372"><ele>112.0</ele><time>2026-04-11T15:41:57.999Z</time></trkpt><trkpt lat="44.755063437170755" lon="10.229903460055143"><ele>112.0</ele><time>2026-04-11T15:41:58.999Z</time></trkpt><trkpt lat="44.755129941798884" lon="10.230042540053493"><ele>112.0</ele><time>2026-04-11T15:41:59.999Z</time></trkpt><trkpt lat="44.755196435855844" lon="10.230183936164195"><ele>112.0</ele><time>2026-04-11T15:42:00.999Z</time></trkpt><trkpt lat="44.755267982521175" lon="10.230320537897438"><ele>112.0</ele><time>2026-04-11T15:42:01.999Z</time></trkpt><trkpt lat="44.75533593882106" lon="10.23044718851681"><ele>111.99999999999999</ele><time>2026-04-11T15:42:02.999Z</time></trkpt><trkpt lat="44.7554099475362" lon="10.230578408143954"><ele>111.99999999999999</ele><time>2026-04-11T15:42:03.999Z</time></trkpt><trkpt lat="44.75547938340001" lon="10.230709571458432"><ele>112.0</ele><time>2026-04-11T15:42:04.999Z</time></trkpt><trkpt lat="44.75552861800704" lon="10.230820054158473"><ele>112.0</ele><time>2026-04-11T15:42:06Z</time></trkpt><trkpt lat="44.75555860958213" lon="10.230940082224285"><ele>112.00000000000001</ele><time>2026-04-11T15:42:08Z</time></trkpt><trkpt lat="44.755592246863955" lon="10.231075682169982"><ele>112.0</ele><time>2026-04-11T15:42:10Z</time></trkpt><trkpt lat="44.75561376541377" lon="10.231169157300359"><ele>112.0</ele><time>2026-04-11T15:42:11Z</time></trkpt><trkpt lat="44.75564483931804" lon="10.231278811341607"><ele>112.0</ele><time>2026-04-11T15:42:12Z</time></trkpt><trkpt lat="44.7556931005898" lon="10.231385366570558"><ele>112.00000000000001</ele><time>2026-04-11T15:42:13Z</time></trkpt><trkpt lat="44.755759601928226" lon="10.231461392791779"><ele>112.0</ele><time>2026-04-11T15:42:14Z</time></trkpt><trkpt lat="44.75584958133775" lon="10.231528082240137"><ele>111.6</ele><time>2026-04-11T15:42:15Z</time></trkpt><trkpt lat="44.75593805916026" lon="10.2315858939004"><ele>111.19999999999999</ele><time>2026-04-11T15:42:16Z</time></trkpt><trkpt lat="44.756019598601455" lon="10.231663112883146"><ele>110.8</ele><time>2026-04-11T15:42:17Z</time></trkpt><trkpt lat="44.75608782693973" lon="10.231765199013363"><ele>110.4</ele><time>2026-04-11T15:42:18Z</time></trkpt><trkpt lat="44.756161560774245" lon="10.231874832222985"><ele>110.0</ele><time>2026-04-11T15:42:19Z</time></trkpt><trkpt lat="44.75617781753781" lon="10.232069548697739"><ele>109.5</ele><time>2026-04-11T15:42:20Z</time></trkpt><trkpt lat="44.75621189383245" lon="10.232227049910028"><ele>109.0</ele><time>2026-04-11T15:42:21Z</time></trkpt><trkpt lat="44.756254716231226" lon="10.232384978141365"><ele>108.5</ele><time>2026-04-11T15:42:22Z</time></trkpt><trkpt lat="44.756309442338825" lon="10.232552362724343"><ele>108.0</ele><time>2026-04-11T15:42:23Z</time></trkpt><trkpt lat="44.7563722027311" lon="10.232719502638872"><ele>108.0</ele><time>2026-04-11T15:42:24Z</time></trkpt><trkpt lat="44.75644271451919" lon="10.232882539591174"><ele>108.0</ele><time>2026-04-11T15:42:25Z</time></trkpt><trkpt lat="44.756519135418685" lon="10.233043235329873"><ele>108.0</ele><time>2026-04-11T15:42:26Z</time></trkpt><trkpt lat="44.75659660372638" lon="10.233205939729881"><ele>108.0</ele><time>2026-04-11T15:42:27Z</time></trkpt><trkpt lat="44.75667628855532" lon="10.233381298321849"><ele>108.0</ele><time>2026-04-11T15:42:28Z</time></trkpt><trkpt lat="44.756755835387274" lon="10.233565475172119"><ele>108.0</ele><time>2026-04-11T15:42:29Z</time></trkpt><trkpt lat="44.756837076046445" lon="10.233745890430383"><ele>108.0</ele><time>2026-04-11T15:42:30Z</time></trkpt><trkpt lat="44.75691912096077" lon="10.233922689367812"><ele>108.75</ele><time>2026-04-11T15:42:31Z</time></trkpt><trkpt lat="44.756999504330935" lon="10.234088175097193"><ele>109.5</ele><time>2026-04-11T15:42:32Z</time></trkpt><trkpt lat="44.757083427533026" lon="10.23425569255866"><ele>110.25</ele><time>2026-04-11T15:42:33Z</time></trkpt><trkpt lat="44.75716876303477" lon="10.234437212616557"><ele>111.0</ele><time>2026-04-11T15:42:34Z</time></trkpt><trkpt lat="44.75725109190511" lon="10.234624679271661"><ele>111.0</ele><time>2026-04-11T15:42:35Z</time></trkpt><trkpt lat="44.75733114784913" lon="10.234812546257354"><ele>111.0</ele><time>2026-04-11T15:42:36Z</time></trkpt><trkpt lat="44.75741528796264" lon="10.234996699973703"><ele>111.0</ele><time>2026-04-11T15:42:37Z</time></trkpt><trkpt lat="44.7575024312429" lon="10.235182431836218"><ele>111.0</ele><time>2026-04-11T15:42:38Z</time></trkpt><trkpt lat="44.757589615306784" lon="10.235370460973073"><ele>111.0</ele><time>2026-04-11T15:42:39Z</time></trkpt><trkpt lat="44.757674938806055" lon="10.235556609195092"><ele>111.0</ele><time>2026-04-11T15:42:40Z</time></trkpt><trkpt lat="44.75775982338858" lon="10.235743470477662"><ele>110.0</ele><time>2026-04-11T15:42:41Z</time></trkpt><trkpt lat="44.75784314869281" lon="10.23593276406168"><ele>109.0</ele><time>2026-04-11T15:42:42Z</time></trkpt><trkpt lat="44.75792690550696" lon="10.23611413389369"><ele>108.0</ele><time>2026-04-11T15:42:43Z</time></trkpt><trkpt lat="44.75801822944758" lon="10.2363156159116"><ele>108.0</ele><time>2026-04-11T15:42:44Z</time></trkpt><trkpt lat="44.75809648130561" lon="10.236484531236936"><ele>108.0</ele><time>2026-04-11T15:42:45Z</time></trkpt><trkpt lat="44.75817529763909" lon="10.236625304731225"><ele>108.0</ele><time>2026-04-11T15:42:46Z</time></trkpt><trkpt lat="44.75828077961568" lon="10.236870702107959"><ele>108.0</ele><time>2026-04-11T15:42:47Z</time></trkpt><trkpt lat="44.75836894301461" lon="10.237067333787122"><ele>108.0</ele><time>2026-04-11T15:42:48Z</time></trkpt><trkpt lat="44.758454029780474" lon="10.237272791507184"><ele>108.0</ele><time>2026-04-11T15:42:49Z</time></trkpt><trkpt lat="44.75857918627408" lon="10.237518842681634"><ele>108.0</ele><time>2026-04-11T15:42:50Z</time></trkpt><trkpt lat="44.75865872804763" lon="10.237688297674037"><ele>108.0</ele><time>2026-04-11T15:42:51Z</time></trkpt><trkpt lat="44.75872324320116" lon="10.237819308182647"><ele>108.0</ele><time>2026-04-11T15:42:52Z</time></trkpt><trkpt lat="44.75878762658068" lon="10.237975024741795"><ele>108.0</ele><time>2026-04-11T15:42:53Z</time></trkpt><trkpt lat="44.75883240979672" lon="10.238061065625446"><ele>108.0</ele><time>2026-04-11T15:42:54Z</time></trkpt><trkpt lat="44.7588845497782" lon="10.23814989380472"><ele>108.0</ele><time>2026-04-11T15:42:56Z</time></trkpt><trkpt lat="44.75894033271762" lon="10.238254148662941"><ele>108.0</ele><time>2026-04-11T15:42:58Z</time></trkpt><trkpt lat="44.759002582968925" lon="10.238407088578919"><ele>108.0</ele><time>2026-04-11T15:43:00Z</time></trkpt><trkpt lat="44.759041236943155" lon="10.238492624512741"><ele>108.0</ele><time>2026-04-11T15:43:01Z</time></trkpt><trkpt lat="44.75907932270009" lon="10.238566501836686"><ele>108.0</ele><time>2026-04-11T15:43:02Z</time></trkpt><trkpt lat="44.759119047211705" lon="10.238660206302901"><ele>108.0</ele><time>2026-04-11T15:43:03Z</time></trkpt><trkpt lat="44.75915822659685" lon="10.238758299831556"><ele>108.00000000000001</ele><time>2026-04-11T15:43:04Z</time></trkpt><trkpt lat="44.75920455465087" lon="10.238866475714314"><ele>108.00000000000001</ele><time>2026-04-11T15:43:05Z</time></trkpt><trkpt lat="44.759263567496546" lon="10.238982337232395"><ele>108.0</ele><time>2026-04-11T15:43:06Z</time></trkpt><trkpt lat="44.75932628713338" lon="10.239108075205198"><ele>108.0</ele><time>2026-04-11T15:43:07Z</time></trkpt><trkpt lat="44.75938722569459" lon="10.239246944856495"><ele>107.75</ele><time>2026-04-11T15:43:08Z</time></trkpt><trkpt lat="44.75944659299926" lon="10.239379648914756"><ele>107.5</ele><time>2026-04-11T15:43:09Z</time></trkpt><trkpt lat="44.75950957635102" lon="10.239523074915473"><ele>107.25</ele><time>2026-04-11T15:43:10Z</time></trkpt><trkpt lat="44.759573380750794" lon="10.239661597856736"><ele>107.0</ele><time>2026-04-11T15:43:11Z</time></trkpt><trkpt lat="44.759643298808435" lon="10.239809822589024"><ele>108.25</ele><time>2026-04-11T15:43:12Z</time></trkpt><trkpt lat="44.75971696338136" lon="10.239975471090942"><ele>109.5</ele><time>2026-04-11T15:43:12.999Z</time></trkpt><trkpt lat="44.75979635517933" lon="10.240146283550034"><ele>110.75</ele><time>2026-04-11T15:43:13.999Z</time></trkpt><trkpt lat="44.75987990214689" lon="10.240323403954378"><ele>112.0</ele><time>2026-04-11T15:43:14.999Z</time></trkpt><trkpt lat="44.759967311131284" lon="10.240508945291566"><ele>111.66666666666667</ele><time>2026-04-11T15:43:15.999Z</time></trkpt><trkpt lat="44.7600555374511" lon="10.240697730387392"><ele>111.33333333333334</ele><time>2026-04-11T15:43:16.999Z</time></trkpt><trkpt lat="44.7601464749689" lon="10.240905529952494"><ele>111.0</ele><time>2026-04-11T15:43:17.999Z</time></trkpt><trkpt lat="44.76025303548461" lon="10.241146891870363"><ele>110.66666666666666</ele><time>2026-04-11T15:43:18.999Z</time></trkpt><trkpt lat="44.76036531407032" lon="10.241407653532129"><ele>110.33333333333333</ele><time>2026-04-11T15:43:19.999Z</time></trkpt><trkpt lat="44.76048754197934" lon="10.241684107578076"><ele>110.0</ele><time>2026-04-11T15:43:20.999Z</time></trkpt><trkpt lat="44.7606139012598" lon="10.241982971514306"><ele>109.75</ele><time>2026-04-11T15:43:21.999Z</time></trkpt><trkpt lat="44.76059856271063" lon="10.241887291949663"><ele>109.5</ele><time>2026-04-11T15:43:22.999Z</time></trkpt><trkpt lat="44.760695739809734" lon="10.242094563453763"><ele>109.25</ele><time>2026-04-11T15:43:23.999Z</time></trkpt><trkpt lat="44.760789578350135" lon="10.24230179811246"><ele>109.0</ele><time>2026-04-11T15:43:24.999Z</time></trkpt><trkpt lat="44.760883939278635" lon="10.242512708871583"><ele>109.0</ele><time>2026-04-11T15:43:25.999Z</time></trkpt><trkpt lat="44.76098096013087" lon="10.242720455328831"><ele>109.0</ele><time>2026-04-11T15:43:26.999Z</time></trkpt><trkpt lat="44.761075758334435" lon="10.242934377127439"><ele>109.0</ele><time>2026-04-11T15:43:27.999Z</time></trkpt><trkpt lat="44.76117341457834" lon="10.243142339804296"><ele>107.0</ele><time>2026-04-11T15:43:28.999Z</time></trkpt><trkpt lat="44.7612714562514" lon="10.243354575984212"><ele>105.0</ele><time>2026-04-11T15:43:29.999Z</time></trkpt><trkpt lat="44.761370148013164" lon="10.243565325804893"><ele>103.0</ele><time>2026-04-11T15:43:30.999Z</time></trkpt><trkpt lat="44.7614685036143" lon="10.243772322019273"><ele>102.66666666666667</ele><time>2026-04-11T15:43:31.999Z</time></trkpt><trkpt lat="44.761565758578435" lon="10.243976161836665"><ele>102.33333333333334</ele><time>2026-04-11T15:43:32.999Z</time></trkpt><trkpt lat="44.76165613497358" lon="10.244177047108556"><ele>102.0</ele><time>2026-04-11T15:43:33.999Z</time></trkpt><trkpt lat="44.76174394571602" lon="10.24436935351138"><ele>102.0</ele><time>2026-04-11T15:43:34.999Z</time></trkpt><trkpt lat="44.76183484336777" lon="10.244555891464925"><ele>102.0</ele><time>2026-04-11T15:43:35.999Z</time></trkpt><trkpt lat="44.76192446352527" lon="10.244732948859035"><ele>102.0</ele><time>2026-04-11T15:43:36.999Z</time></trkpt><trkpt lat="44.762009233980336" lon="10.244906096223541"><ele>102.0</ele><time>2026-04-11T15:43:37.999Z</time></trkpt><trkpt lat="44.76209372317097" lon="10.245080458422175"><ele>102.0</ele><time>2026-04-11T15:43:38.999Z</time></trkpt><trkpt lat="44.762174520738455" lon="10.245261332002558"><ele>102.0</ele><time>2026-04-11T15:43:39.999Z</time></trkpt><trkpt lat="44.76224903922245" lon="10.245432153478275"><ele>102.0</ele><time>2026-04-11T15:43:40.999Z</time></trkpt><trkpt lat="44.76230973493284" lon="10.245550612007396"><ele>102.33333333333333</ele><time>2026-04-11T15:43:41.999Z</time></trkpt><trkpt lat="44.76235604883227" lon="10.245636366656777"><ele>102.66666666666666</ele><time>2026-04-11T15:43:42.999Z</time></trkpt><trkpt lat="44.762418885206515" lon="10.245744352018958"><ele>103.0</ele><time>2026-04-11T15:43:44.999Z</time></trkpt><trkpt lat="44.762453748249975" lon="10.245832613900797"><ele>103.33333333333333</ele><time>2026-04-11T15:43:45.999Z</time></trkpt><trkpt lat="44.76249392109538" lon="10.245928728672103"><ele>103.66666666666666</ele><time>2026-04-11T15:43:46.999Z</time></trkpt><trkpt lat="44.76254189698007" lon="10.24602711986106"><ele>104.0</ele><time>2026-04-11T15:43:47.999Z</time></trkpt><trkpt lat="44.76257854701395" lon="10.246121880921333"><ele>103.99999999999999</ele><time>2026-04-11T15:43:48.999Z</time></trkpt><trkpt lat="44.76261843326266" lon="10.246206982416368"><ele>104.0</ele><time>2026-04-11T15:43:49.999Z</time></trkpt><trkpt lat="44.762661468830515" lon="10.24628602466923"><ele>104.0</ele><time>2026-04-11T15:43:50.999Z</time></trkpt><trkpt lat="44.7627110500269" lon="10.246373950414434"><ele>104.0</ele><time>2026-04-11T15:43:51.999Z</time></trkpt><trkpt lat="44.76275871862642" lon="10.24647668720122"><ele>103.99999999999999</ele><time>2026-04-11T15:43:52.999Z</time></trkpt><trkpt lat="44.7628075014662" lon="10.246591694917253"><ele>104.0</ele><time>2026-04-11T15:43:53.999Z</time></trkpt><trkpt lat="44.762857414306865" lon="10.246712778135677"><ele>103.80000000000001</ele><time>2026-04-11T15:43:54.999Z</time></trkpt><trkpt lat="44.76292441483336" lon="10.246840796181628"><ele>103.60000000000001</ele><time>2026-04-11T15:43:55.999Z</time></trkpt><trkpt lat="44.76297642274074" lon="10.246956197839186"><ele>103.4</ele><time>2026-04-11T15:43:56.999Z</time></trkpt><trkpt lat="44.763031712957414" lon="10.247074205026959"><ele>103.2</ele><time>2026-04-11T15:43:57.999Z</time></trkpt><trkpt lat="44.763085893574676" lon="10.247201031707746"><ele>103.0</ele><time>2026-04-11T15:43:58.999Z</time></trkpt><trkpt lat="44.76314296135892" lon="10.24732126112323"><ele>103.4</ele><time>2026-04-11T15:43:59.999Z</time></trkpt><trkpt lat="44.76320046410058" lon="10.247443072216175"><ele>103.80000000000001</ele><time>2026-04-11T15:44:00.999Z</time></trkpt><trkpt lat="44.76325804604779" lon="10.247564737733462"><ele>104.2</ele><time>2026-04-11T15:44:01.999Z</time></trkpt><trkpt lat="44.76331414739525" lon="10.247689197599115"><ele>104.6</ele><time>2026-04-11T15:44:02.999Z</time></trkpt><trkpt lat="44.763375154761356" lon="10.247795988592078"><ele>105.0</ele><time>2026-04-11T15:44:03.999Z</time></trkpt><trkpt lat="44.76343464670517" lon="10.247913182808698"><ele>105.0</ele><time>2026-04-11T15:44:04.999Z</time></trkpt><trkpt lat="44.763482950625544" lon="10.248033274293663"><ele>105.0</ele><time>2026-04-11T15:44:05.999Z</time></trkpt><trkpt lat="44.763535779887015" lon="10.248142054591966"><ele>105.0</ele><time>2026-04-11T15:44:06.999Z</time></trkpt><trkpt lat="44.76358268289573" lon="10.248251065707352"><ele>105.0</ele><time>2026-04-11T15:44:07.999Z</time></trkpt><trkpt lat="44.76363738945988" lon="10.248369639694818"><ele>105.0</ele><time>2026-04-11T15:44:08.999Z</time></trkpt><trkpt lat="44.763692452990945" lon="10.248494779730239"><ele>104.4</ele><time>2026-04-11T15:44:09.999Z</time></trkpt><trkpt lat="44.76375662860651" lon="10.248623627351046"><ele>103.8</ele><time>2026-04-11T15:44:10.999Z</time></trkpt><trkpt lat="44.76381274516401" lon="10.2487531124306"><ele>103.19999999999999</ele><time>2026-04-11T15:44:12Z</time></trkpt><trkpt lat="44.763875627545744" lon="10.24888138029016"><ele>102.6</ele><time>2026-04-11T15:44:13Z</time></trkpt><trkpt lat="44.76393356061455" lon="10.24902009432299"><ele>102.0</ele><time>2026-04-11T15:44:14Z</time></trkpt><trkpt lat="44.76400826867596" lon="10.249139441682615"><ele>102.0</ele><time>2026-04-11T15:44:15Z</time></trkpt><trkpt lat="44.764067516913755" lon="10.249280723124636"><ele>102.0</ele><time>2026-04-11T15:44:16Z</time></trkpt><trkpt lat="44.764116246025566" lon="10.249404438304962"><ele>102.0</ele><time>2026-04-11T15:44:17Z</time></trkpt><trkpt lat="44.7641742094288" lon="10.249528672875549"><ele>102.0</ele><time>2026-04-11T15:44:18Z</time></trkpt><trkpt lat="44.764230257924986" lon="10.249650614515518"><ele>102.0</ele><time>2026-04-11T15:44:19Z</time></trkpt><trkpt lat="44.764291601310354" lon="10.249764665757736"><ele>101.5</ele><time>2026-04-11T15:44:20Z</time></trkpt><trkpt lat="44.76434913138868" lon="10.249889794623368"><ele>101.0</ele><time>2026-04-11T15:44:21Z</time></trkpt><trkpt lat="44.764410332730215" lon="10.250013303928824"><ele>100.5</ele><time>2026-04-11T15:44:22Z</time></trkpt><trkpt lat="44.764475616122816" lon="10.25014500227388"><ele>100.0</ele><time>2026-04-11T15:44:23Z</time></trkpt><trkpt lat="44.76454912923479" lon="10.25028677553928"><ele>99.5</ele><time>2026-04-11T15:44:24Z</time></trkpt><trkpt lat="44.764618818011876" lon="10.250442130344481"><ele>99.0</ele><time>2026-04-11T15:44:25Z</time></trkpt><trkpt lat="44.76468983572565" lon="10.25061067481225"><ele>98.5</ele><time>2026-04-11T15:44:26Z</time></trkpt><trkpt lat="44.76477601619831" lon="10.250800714414098"><ele>98.0</ele><time>2026-04-11T15:44:27Z</time></trkpt><trkpt lat="44.76485750051719" lon="10.250986884891626"><ele>98.0</ele><time>2026-04-11T15:44:28Z</time></trkpt><trkpt lat="44.76494619489277" lon="10.251184362514946"><ele>98.0</ele><time>2026-04-11T15:44:29Z</time></trkpt><trkpt lat="44.76503821343947" lon="10.251379961429269"><ele>98.0</ele><time>2026-04-11T15:44:30Z</time></trkpt><trkpt lat="44.765131000283745" lon="10.251579996064045"><ele>97.66666666666666</ele><time>2026-04-11T15:44:31Z</time></trkpt><trkpt lat="44.76522142436761" lon="10.251783144505746"><ele>97.33333333333334</ele><time>2026-04-11T15:44:32Z</time></trkpt><trkpt lat="44.765313878266944" lon="10.251985237561444"><ele>97.0</ele><time>2026-04-11T15:44:33Z</time></trkpt><trkpt lat="44.76540795950925" lon="10.252186596882897"><ele>97.33333333333334</ele><time>2026-04-11T15:44:34Z</time></trkpt><trkpt lat="44.76550396322494" lon="10.252396691138207"><ele>97.66666666666666</ele><time>2026-04-11T15:44:35Z</time></trkpt><trkpt lat="44.765596132892796" lon="10.252602869506731"><ele>98.0</ele><time>2026-04-11T15:44:36Z</time></trkpt><trkpt lat="44.76568681110125" lon="10.252807063162326"><ele>98.0</ele><time>2026-04-11T15:44:37Z</time></trkpt><trkpt lat="44.765785183239274" lon="10.25301824815172"><ele>98.0</ele><time>2026-04-11T15:44:38Z</time></trkpt><trkpt lat="44.76587377092924" lon="10.25321236092278"><ele>98.0</ele><time>2026-04-11T15:44:39Z</time></trkpt><trkpt lat="44.765954574867926" lon="10.253389921419684"><ele>98.25</ele><time>2026-04-11T15:44:40Z</time></trkpt><trkpt lat="44.7660368771904" lon="10.253563899841987"><ele>98.5</ele><time>2026-04-11T15:44:41Z</time></trkpt><trkpt lat="44.76610744699595" lon="10.253717454308697"><ele>98.75</ele><time>2026-04-11T15:44:42Z</time></trkpt><trkpt lat="44.76617188307939" lon="10.253853115979219"><ele>99.0</ele><time>2026-04-11T15:44:43Z</time></trkpt><trkpt lat="44.766222452245145" lon="10.253962691052092"><ele>98.4</ele><time>2026-04-11T15:44:44Z</time></trkpt><trkpt lat="44.766266006534906" lon="10.254056178426376"><ele>97.80000000000001</ele><time>2026-04-11T15:44:45Z</time></trkpt><trkpt lat="44.766301468096614" lon="10.254133046966048"><ele>97.19999999999999</ele><time>2026-04-11T15:44:46Z</time></trkpt><trkpt lat="44.766349117926765" lon="10.254228883965297"><ele>96.6</ele><time>2026-04-11T15:44:48Z</time></trkpt><trkpt lat="44.76638289383442" lon="10.254309138206475"><ele>96.0</ele><time>2026-04-11T15:44:50Z</time></trkpt><trkpt lat="44.766503352741346" lon="10.254128430839929"><ele>96.0</ele><time>2026-04-11T15:44:51Z</time></trkpt><trkpt lat="44.76657653951203" lon="10.254093973286674"><ele>96.0</ele><time>2026-04-11T15:44:52Z</time></trkpt><trkpt lat="44.766663890307555" lon="10.2540596804642"><ele>96.0</ele><time>2026-04-11T15:44:53Z</time></trkpt><trkpt lat="44.76675428744799" lon="10.254034228734549"><ele>96.0</ele><time>2026-04-11T15:44:54Z</time></trkpt><trkpt lat="44.7668503604306" lon="10.25409444618656"><ele>96.0</ele><time>2026-04-11T15:44:55Z</time></trkpt><trkpt lat="44.76696965512421" lon="10.254131332777526"><ele>96.0</ele><time>2026-04-11T15:44:56Z</time></trkpt><trkpt lat="44.767086695723144" lon="10.254177108519553"><ele>96.0</ele><time>2026-04-11T15:44:57Z</time></trkpt><trkpt lat="44.76721802677704" lon="10.254217471200974"><ele>96.0</ele><time>2026-04-11T15:44:58Z</time></trkpt><trkpt lat="44.76738181117264" lon="10.25425491111892"><ele>96.0</ele><time>2026-04-11T15:44:59Z</time></trkpt><trkpt lat="44.76754550536725" lon="10.254290311866988"><ele>96.0</ele><time>2026-04-11T15:45:00Z</time></trkpt><trkpt lat="44.767689336339096" lon="10.254331890049535"><ele>96.0</ele><time>2026-04-11T15:45:01Z</time></trkpt><trkpt lat="44.767837721190546" lon="10.25437786276628"><ele>96.0</ele><time>2026-04-11T15:45:02Z</time></trkpt><trkpt lat="44.76799308287157" lon="10.254428139940059"><ele>96.0</ele><time>2026-04-11T15:45:03Z</time></trkpt><trkpt lat="44.768144234485575" lon="10.254478232221581"><ele>96.0</ele><time>2026-04-11T15:45:04Z</time></trkpt><trkpt lat="44.76831755924951" lon="10.254524204993503"><ele>96.0</ele><time>2026-04-11T15:45:05Z</time></trkpt><trkpt lat="44.768467969863515" lon="10.254567216538232"><ele>94.66666666666667</ele><time>2026-04-11T15:45:06Z</time></trkpt><trkpt lat="44.76863455343202" lon="10.254606727127541"><ele>93.33333333333334</ele><time>2026-04-11T15:45:07Z</time></trkpt><trkpt lat="44.76880156052443" lon="10.254642207897842"><ele>92.0</ele><time>2026-04-11T15:45:08Z</time></trkpt><trkpt lat="44.76896999780369" lon="10.254674999565768"><ele>92.0</ele><time>2026-04-11T15:45:09Z</time></trkpt><trkpt lat="44.76913072352498" lon="10.254715494475878"><ele>92.0</ele><time>2026-04-11T15:45:10Z</time></trkpt><trkpt lat="44.76929524362528" lon="10.254758605513159"><ele>92.0</ele><time>2026-04-11T15:45:11Z</time></trkpt><trkpt lat="44.76945509312181" lon="10.254810413113113"><ele>92.0</ele><time>2026-04-11T15:45:12Z</time></trkpt><trkpt lat="44.76961277308653" lon="10.254856958752457"><ele>92.0</ele><time>2026-04-11T15:45:13Z</time></trkpt><trkpt lat="44.76974586424182" lon="10.254904973032982"><ele>92.0</ele><time>2026-04-11T15:45:14Z</time></trkpt><trkpt lat="44.76987883978258" lon="10.254946683940865"><ele>92.0</ele><time>2026-04-11T15:45:15Z</time></trkpt><trkpt lat="44.770011398105474" lon="10.254987296087595"><ele>92.0</ele><time>2026-04-11T15:45:16Z</time></trkpt><trkpt lat="44.770141927241184" lon="10.255026318333647"><ele>92.0</ele><time>2026-04-11T15:45:17Z</time></trkpt><trkpt lat="44.770262871023846" lon="10.255059348977344"><ele>92.0</ele><time>2026-04-11T15:45:18Z</time></trkpt><trkpt lat="44.77038414569852" lon="10.255091653612885"><ele>92.0</ele><time>2026-04-11T15:45:19Z</time></trkpt><trkpt lat="44.77049895247038" lon="10.255123936263836"><ele>92.0</ele><time>2026-04-11T15:45:19.999Z</time></trkpt><trkpt lat="44.770598042258435" lon="10.25515855864422"><ele>92.0</ele><time>2026-04-11T15:45:20.999Z</time></trkpt><trkpt lat="44.77066825516764" lon="10.25519380640396"><ele>92.0</ele><time>2026-04-11T15:45:21.999Z</time></trkpt><trkpt lat="44.77068806504952" lon="10.255517902190231"><ele>92.0</ele><time>2026-04-11T15:45:23.999Z</time></trkpt><trkpt lat="44.77066670152006" lon="10.255686673834216"><ele>92.0</ele><time>2026-04-11T15:45:24.999Z</time></trkpt><trkpt lat="44.770650969718176" lon="10.255859437990825"><ele>92.0</ele><time>2026-04-11T15:45:25.999Z</time></trkpt><trkpt lat="44.77062580766595" lon="10.256035063140503"><ele>92.0</ele><time>2026-04-11T15:45:26.999Z</time></trkpt><trkpt lat="44.77060371909018" lon="10.256220347413697"><ele>92.0</ele><time>2026-04-11T15:45:27.999Z</time></trkpt><trkpt lat="44.77058174907367" lon="10.256395797255454"><ele>92.0</ele><time>2026-04-11T15:45:28.999Z</time></trkpt><trkpt lat="44.77055845020744" lon="10.256556334301756"><ele>92.0</ele><time>2026-04-11T15:45:29.999Z</time></trkpt><trkpt lat="44.77054261780593" lon="10.256700729616998"><ele>92.0</ele><time>2026-04-11T15:45:30.999Z</time></trkpt><trkpt lat="44.770569342928894" lon="10.256833364666106"><ele>92.0</ele><time>2026-04-11T15:45:31.999Z</time></trkpt><trkpt lat="44.770638926169084" lon="10.256961369616544"><ele>92.0</ele><time>2026-04-11T15:45:32.999Z</time></trkpt><trkpt lat="44.770713683103715" lon="10.257101314178765"><ele>92.0</ele><time>2026-04-11T15:45:33.999Z</time></trkpt><trkpt lat="44.77078452638706" lon="10.257246929054626"><ele>92.0</ele><time>2026-04-11T15:45:34.999Z</time></trkpt><trkpt lat="44.77085587422586" lon="10.25738824132992"><ele>92.0</ele><time>2026-04-11T15:45:35.999Z</time></trkpt><trkpt lat="44.77092376997959" lon="10.257534652977926"><ele>92.0</ele><time>2026-04-11T15:45:36.999Z</time></trkpt><trkpt lat="44.77099120057301" lon="10.257687868071269"><ele>91.25</ele><time>2026-04-11T15:45:37.999Z</time></trkpt><trkpt lat="44.7710651784383" lon="10.257841923681664"><ele>90.5</ele><time>2026-04-11T15:45:38.999Z</time></trkpt><trkpt lat="44.77113936646954" lon="10.257999591263653"><ele>89.75</ele><time>2026-04-11T15:45:39.999Z</time></trkpt><trkpt lat="44.77122105638766" lon="10.258165100063074"><ele>89.0</ele><time>2026-04-11T15:45:40.999Z</time></trkpt><trkpt lat="44.771300727926544" lon="10.258337974546063"><ele>88.75</ele><time>2026-04-11T15:45:41.999Z</time></trkpt><trkpt lat="44.77138408166618" lon="10.258498758492225"><ele>88.5</ele><time>2026-04-11T15:45:42.999Z</time></trkpt><trkpt lat="44.7714635351276" lon="10.258666526514926"><ele>88.25</ele><time>2026-04-11T15:45:43.999Z</time></trkpt><trkpt lat="44.771537612830876" lon="10.258830448537447"><ele>88.0</ele><time>2026-04-11T15:45:44.999Z</time></trkpt><trkpt lat="44.771615831343354" lon="10.25900183740603"><ele>88.75</ele><time>2026-04-11T15:45:45.999Z</time></trkpt><trkpt lat="44.77169634798377" lon="10.25917292645196"><ele>89.5</ele><time>2026-04-11T15:45:46.999Z</time></trkpt><trkpt lat="44.77178298696977" lon="10.259344415405302"><ele>90.25</ele><time>2026-04-11T15:45:47.999Z</time></trkpt><trkpt lat="44.77186392681768" lon="10.259514125883369"><ele>91.0</ele><time>2026-04-11T15:45:48.999Z</time></trkpt><trkpt lat="44.771942194703534" lon="10.25968045537257"><ele>90.25</ele><time>2026-04-11T15:45:49.999Z</time></trkpt><trkpt lat="44.77202222668339" lon="10.259851021147146"><ele>89.5</ele><time>2026-04-11T15:45:50.999Z</time></trkpt><trkpt lat="44.77210017160947" lon="10.260025329074736"><ele>88.75</ele><time>2026-04-11T15:45:51.999Z</time></trkpt><trkpt lat="44.77218264240911" lon="10.260202025649122"><ele>88.0</ele><time>2026-04-11T15:45:52.999Z</time></trkpt><trkpt lat="44.772269940505545" lon="10.260388449739867"><ele>88.0</ele><time>2026-04-11T15:45:53.999Z</time></trkpt><trkpt lat="44.77235747637974" lon="10.260576709452966"><ele>88.0</ele><time>2026-04-11T15:45:54.999Z</time></trkpt><trkpt lat="44.77245185483351" lon="10.260769597269231"><ele>88.0</ele><time>2026-04-11T15:45:55.999Z</time></trkpt><trkpt lat="44.77254995965136" lon="10.260969355115876"><ele>88.0</ele><time>2026-04-11T15:45:56.999Z</time></trkpt><trkpt lat="44.77264883343312" lon="10.261171174088746"><ele>88.0</ele><time>2026-04-11T15:45:57.999Z</time></trkpt><trkpt lat="44.77274813625774" lon="10.261376469264237"><ele>88.0</ele><time>2026-04-11T15:45:58.999Z</time></trkpt><trkpt lat="44.772842926011116" lon="10.261576841351893"><ele>88.0</ele><time>2026-04-11T15:45:59.999Z</time></trkpt><trkpt lat="44.77293274330899" lon="10.261765531669353"><ele>88.0</ele><time>2026-04-11T15:46:00.999Z</time></trkpt><trkpt lat="44.77302484243327" lon="10.26195447250903"><ele>88.0</ele><time>2026-04-11T15:46:01.999Z</time></trkpt><trkpt lat="44.7731152541324" lon="10.262143745611143"><ele>88.0</ele><time>2026-04-11T15:46:02.999Z</time></trkpt><trkpt lat="44.77320334094281" lon="10.262337574306581"><ele>88.0</ele><time>2026-04-11T15:46:03.999Z</time></trkpt><trkpt lat="44.77328686341296" lon="10.262526353972216"><ele>88.0</ele><time>2026-04-11T15:46:04.999Z</time></trkpt><trkpt lat="44.77337057427344" lon="10.26270719498113"><ele>88.0</ele><time>2026-04-11T15:46:05.999Z</time></trkpt><trkpt lat="44.77345348021922" lon="10.262881240301748"><ele>88.0</ele><time>2026-04-11T15:46:06.999Z</time></trkpt><trkpt lat="44.773531267430364" lon="10.263037102105452"><ele>88.0</ele><time>2026-04-11T15:46:07.999Z</time></trkpt><trkpt lat="44.773606798325545" lon="10.263188614664589"><ele>88.0</ele><time>2026-04-11T15:46:08.999Z</time></trkpt><trkpt lat="44.7736730784561" lon="10.26333039516519"><ele>87.4</ele><time>2026-04-11T15:46:09.999Z</time></trkpt><trkpt lat="44.77373369341837" lon="10.263462599380947"><ele>86.80000000000001</ele><time>2026-04-11T15:46:10.999Z</time></trkpt><trkpt lat="44.77378565485439" lon="10.263554135077328"><ele>86.2</ele><time>2026-04-11T15:46:11.999Z</time></trkpt><trkpt lat="44.77381838605026" lon="10.263630908848429"><ele>85.6</ele><time>2026-04-11T15:46:13.999Z</time></trkpt><trkpt lat="44.773941307001536" lon="10.2635440723314"><ele>85.0</ele><time>2026-04-11T15:46:14.999Z</time></trkpt><trkpt lat="44.773971727320884" lon="10.263385340284568"><ele>85.0</ele><time>2026-04-11T15:46:16.999Z</time></trkpt><trkpt lat="44.773995135072596" lon="10.263267949012556"><ele>85.0</ele><time>2026-04-11T15:46:19Z</time></trkpt><trkpt lat="44.77401349494804" lon="10.263182562658132"><ele>85.0</ele><time>2026-04-11T15:46:46Z</time></trkpt><trkpt lat="44.77399739823501" lon="10.263051121619323"><ele>85.0</ele><time>2026-04-11T15:46:49Z</time></trkpt><trkpt lat="44.77391065096456" lon="10.263063976434792"><ele>85.0</ele><time>2026-04-11T15:46:51Z</time></trkpt><trkpt lat="44.773844581495226" lon="10.26303723279516"><ele>85.0</ele><time>2026-04-11T15:46:54Z</time></trkpt><trkpt lat="44.773783361280856" lon="10.263012452044826"><ele>85.16666666666666</ele><time>2026-04-11T15:46:57Z</time></trkpt><trkpt lat="44.7737129150077" lon="10.262920525035799"><ele>85.33333333333333</ele><time>2026-04-11T15:47:00Z</time></trkpt><trkpt lat="44.773663097763524" lon="10.262807653278575"><ele>85.5</ele><time>2026-04-11T15:47:02Z</time></trkpt><trkpt lat="44.77360480308908" lon="10.262706768248677"><ele>85.66666666666667</ele><time>2026-04-11T15:47:04Z</time></trkpt><trkpt lat="44.7735566996899" lon="10.262607225180416"><ele>85.83333333333334</ele><time>2026-04-11T15:47:06Z</time></trkpt><trkpt lat="44.773632046313466" lon="10.26257697804444"><ele>86.0</ele><time>2026-04-11T15:47:08Z</time></trkpt><trkpt lat="44.77369435970397" lon="10.262213434430988"><ele>86.0</ele><time>2026-04-11T15:47:10Z</time></trkpt><trkpt lat="44.773964630548605" lon="10.26272766326633"><ele>86.0</ele><time>2026-04-11T15:47:11Z</time></trkpt><trkpt lat="44.7739594494178" lon="10.262840983305816"><ele>86.0</ele><time>2026-04-11T15:47:13Z</time></trkpt><trkpt lat="44.773957951011724" lon="10.262957541464072"><ele>86.0</ele><time>2026-04-11T15:47:16Z</time></trkpt><trkpt lat="44.773991110561106" lon="10.262862035090183"><ele>86.0</ele><time>2026-04-11T15:47:21Z</time></trkpt><trkpt lat="44.7739978813127" lon="10.262730201098467"><ele>86.0</ele><time>2026-04-11T15:47:23Z</time></trkpt><trkpt lat="44.77400402465793" lon="10.262610524688236"><ele>86.0</ele><time>2026-04-11T15:47:24.999Z</time></trkpt><trkpt lat="44.77400945502486" lon="10.262477386980484"><ele>86.0</ele><time>2026-04-11T15:47:27.999Z</time></trkpt><trkpt lat="44.774010651354715" lon="10.262378723469924"><ele>86.0</ele><time>2026-04-11T15:47:29.999Z</time></trkpt><trkpt lat="44.77401157351621" lon="10.262277188496217"><ele>86.0</ele><time>2026-04-11T15:47:32.999Z</time></trkpt><trkpt lat="44.77392287229732" lon="10.262217864043743"><ele>86.0</ele><time>2026-04-11T15:47:38.999Z</time></trkpt><trkpt lat="44.77366253652168" lon="10.262255025791836"><ele>86.0</ele><time>2026-04-11T15:47:40.999Z</time></trkpt><trkpt lat="44.77364146858274" lon="10.262358449197214"><ele>86.0</ele><time>2026-04-11T15:47:43.999Z</time></trkpt><trkpt lat="44.77361678019865" lon="10.262480018409015"><ele>86.0</ele><time>2026-04-11T15:47:47.999Z</time></trkpt><trkpt lat="44.77393870045526" lon="10.262637389442682"><ele>86.0</ele><time>2026-04-11T15:47:48.999Z</time></trkpt><trkpt lat="44.7739003700222" lon="10.262726589914632"><ele>86.0</ele><time>2026-04-11T15:47:51.999Z</time></trkpt><trkpt lat="44.773855234999985" lon="10.262854076056295"><ele>86.0</ele><time>2026-04-11T15:47:54.999Z</time></trkpt><trkpt lat="44.77383244563882" lon="10.2629404316774"><ele>86.0</ele><time>2026-04-11T15:47:55.999Z</time></trkpt><trkpt lat="44.77398967768019" lon="10.263023549682739"><ele>86.0</ele><time>2026-04-11T15:47:56.999Z</time></trkpt><trkpt lat="44.77371434336997" lon="10.262940854560062"><ele>86.0</ele><time>2026-04-11T15:47:59.999Z</time></trkpt><trkpt lat="44.77366246617613" lon="10.262865140306856"><ele>86.0</ele><time>2026-04-11T15:48:01.999Z</time></trkpt><trkpt lat="44.77360677689799" lon="10.262742065766425"><ele>86.0</ele><time>2026-04-11T15:48:03.999Z</time></trkpt><trkpt lat="44.77353602729648" lon="10.26265434729587"><ele>86.0</ele><time>2026-04-11T15:48:05.999Z</time></trkpt><trkpt lat="44.77343441642779" lon="10.262691312163872"><ele>86.0</ele><time>2026-04-11T15:48:07.999Z</time></trkpt><trkpt lat="44.77344098974267" lon="10.26251124820384"><ele>88.0</ele><time>2026-04-11T15:48:08.999Z</time></trkpt></trkseg></trk></gpx>